<?xml version="1.0" encoding="UTF-8" standalone="no" ?>
<gpx xmlns="http://www.topografix.com/GPX/1/1" xmlns:xsi="http://www.w3.org/2001/XMLSchema-instance" xsi:schemaLocation="http://www.topografix.com/GPX/1/1 http://www.topografix.com/GPX/1/1/gpx.xsd" version="1.1" creator="VisuGPX - https://www.visugpx.com">
  <metadata>
    <name>Le Drumont</name>
    <desc><![CDATA[faite le 29/O8/2022
depuis la table d'orientation, la plus belle vue sur les Vosges du sud]]></desc>
  </metadata>
  <trk>
    <name><![CDATA[Bussang Randonnée]]></name>
    <extensions>
      <line xmlns="http://www.topografix.com/GPX/gpx_style/0/2">
        <color>0000FF</color>
        <width>4</width>
      </line>
    </extensions>
    <trkseg>
      <trkpt lat="47.88955" lon="6.88254">
        <ele>653.8</ele>
        <time>2022-08-29T06:05:24Z</time>
      </trkpt>
      <trkpt lat="47.88954" lon="6.88254">
        <ele>653.7</ele>
        <time>2022-08-29T06:05:26Z</time>
      </trkpt>
      <trkpt lat="47.88954" lon="6.88253">
        <ele>653.7</ele>
        <time>2022-08-29T06:05:27Z</time>
      </trkpt>
      <trkpt lat="47.88953" lon="6.88253">
        <ele>653.5</ele>
        <time>2022-08-29T06:05:28Z</time>
      </trkpt>
      <trkpt lat="47.88953" lon="6.88254">
        <ele>653.5</ele>
        <time>2022-08-29T06:05:55Z</time>
      </trkpt>
      <trkpt lat="47.88954" lon="6.88253">
        <ele>653.7</ele>
        <time>2022-08-29T06:05:56Z</time>
      </trkpt>
      <trkpt lat="47.88955" lon="6.88253">
        <ele>653.9</ele>
        <time>2022-08-29T06:05:57Z</time>
      </trkpt>
      <trkpt lat="47.88957" lon="6.88253">
        <ele>654.2</ele>
        <time>2022-08-29T06:05:58Z</time>
      </trkpt>
      <trkpt lat="47.88958" lon="6.88252">
        <ele>654.4</ele>
        <time>2022-08-29T06:05:59Z</time>
      </trkpt>
      <trkpt lat="47.88959" lon="6.88252">
        <ele>654.6</ele>
        <time>2022-08-29T06:06:01Z</time>
      </trkpt>
      <trkpt lat="47.8896" lon="6.88253">
        <ele>654.7</ele>
        <time>2022-08-29T06:06:03Z</time>
      </trkpt>
      <trkpt lat="47.88961" lon="6.88253">
        <ele>654.9</ele>
        <time>2022-08-29T06:06:04Z</time>
      </trkpt>
      <trkpt lat="47.88961" lon="6.88254">
        <ele>654.9</ele>
        <time>2022-08-29T06:06:05Z</time>
      </trkpt>
      <trkpt lat="47.88962" lon="6.88255">
        <ele>655</ele>
        <time>2022-08-29T06:06:06Z</time>
      </trkpt>
      <trkpt lat="47.88961" lon="6.88256">
        <ele>654.9</ele>
        <time>2022-08-29T06:06:07Z</time>
      </trkpt>
      <trkpt lat="47.88961" lon="6.88258">
        <ele>654.8</ele>
        <time>2022-08-29T06:06:08Z</time>
      </trkpt>
      <trkpt lat="47.88961" lon="6.88259">
        <ele>654.8</ele>
        <time>2022-08-29T06:06:09Z</time>
      </trkpt>
      <trkpt lat="47.8896" lon="6.88261">
        <ele>654.6</ele>
        <time>2022-08-29T06:06:10Z</time>
      </trkpt>
      <trkpt lat="47.8896" lon="6.88262">
        <ele>654.6</ele>
        <time>2022-08-29T06:06:11Z</time>
      </trkpt>
      <trkpt lat="47.8896" lon="6.88263">
        <ele>654.5</ele>
        <time>2022-08-29T06:06:12Z</time>
      </trkpt>
      <trkpt lat="47.8896" lon="6.88264">
        <ele>654.5</ele>
        <time>2022-08-29T06:06:17Z</time>
      </trkpt>
      <trkpt lat="47.88961" lon="6.88264">
        <ele>654.7</ele>
        <time>2022-08-29T06:06:18Z</time>
      </trkpt>
      <trkpt lat="47.88961" lon="6.88265">
        <ele>654.7</ele>
        <time>2022-08-29T06:06:19Z</time>
      </trkpt>
      <trkpt lat="47.88961" lon="6.88266">
        <ele>654.6</ele>
        <time>2022-08-29T06:06:20Z</time>
      </trkpt>
      <trkpt lat="47.88961" lon="6.88267">
        <ele>654.6</ele>
        <time>2022-08-29T06:06:21Z</time>
      </trkpt>
      <trkpt lat="47.88961" lon="6.88268">
        <ele>654.6</ele>
        <time>2022-08-29T06:06:22Z</time>
      </trkpt>
      <trkpt lat="47.88962" lon="6.88268">
        <ele>654.8</ele>
        <time>2022-08-29T06:06:23Z</time>
      </trkpt>
      <trkpt lat="47.88962" lon="6.88269">
        <ele>654.7</ele>
        <time>2022-08-29T06:06:25Z</time>
      </trkpt>
      <trkpt lat="47.88962" lon="6.8827">
        <ele>654.7</ele>
        <time>2022-08-29T06:06:27Z</time>
      </trkpt>
      <trkpt lat="47.88961" lon="6.8827">
        <ele>654.6</ele>
        <time>2022-08-29T06:06:30Z</time>
      </trkpt>
      <trkpt lat="47.8896" lon="6.88271">
        <ele>654.4</ele>
        <time>2022-08-29T06:06:33Z</time>
      </trkpt>
      <trkpt lat="47.8896" lon="6.88272">
        <ele>654.4</ele>
        <time>2022-08-29T06:06:34Z</time>
      </trkpt>
      <trkpt lat="47.8896" lon="6.88274">
        <ele>654.3</ele>
        <time>2022-08-29T06:06:36Z</time>
      </trkpt>
      <trkpt lat="47.8896" lon="6.88275">
        <ele>654.3</ele>
        <time>2022-08-29T06:06:37Z</time>
      </trkpt>
      <trkpt lat="47.8896" lon="6.88277">
        <ele>654.3</ele>
        <time>2022-08-29T06:06:38Z</time>
      </trkpt>
      <trkpt lat="47.8896" lon="6.88279">
        <ele>654.3</ele>
        <time>2022-08-29T06:06:39Z</time>
      </trkpt>
      <trkpt lat="47.8896" lon="6.8828">
        <ele>654.4</ele>
        <time>2022-08-29T06:06:40Z</time>
      </trkpt>
      <trkpt lat="47.8896" lon="6.88282">
        <ele>654.5</ele>
        <time>2022-08-29T06:06:41Z</time>
      </trkpt>
      <trkpt lat="47.8896" lon="6.88284">
        <ele>654.6</ele>
        <time>2022-08-29T06:06:42Z</time>
      </trkpt>
      <trkpt lat="47.8896" lon="6.88286">
        <ele>654.7</ele>
        <time>2022-08-29T06:06:43Z</time>
      </trkpt>
      <trkpt lat="47.88959" lon="6.88287">
        <ele>654.6</ele>
        <time>2022-08-29T06:06:44Z</time>
      </trkpt>
      <trkpt lat="47.88959" lon="6.88288">
        <ele>654.7</ele>
        <time>2022-08-29T06:06:45Z</time>
      </trkpt>
      <trkpt lat="47.88958" lon="6.88289">
        <ele>654.6</ele>
        <time>2022-08-29T06:06:52Z</time>
      </trkpt>
      <trkpt lat="47.88958" lon="6.8829">
        <ele>654.6</ele>
        <time>2022-08-29T06:06:53Z</time>
      </trkpt>
      <trkpt lat="47.88957" lon="6.8829">
        <ele>654.4</ele>
        <time>2022-08-29T06:06:54Z</time>
      </trkpt>
      <trkpt lat="47.88955" lon="6.8829">
        <ele>654.1</ele>
        <time>2022-08-29T06:07:21Z</time>
      </trkpt>
      <trkpt lat="47.88954" lon="6.88289">
        <ele>653.9</ele>
        <time>2022-08-29T06:07:22Z</time>
      </trkpt>
      <trkpt lat="47.88954" lon="6.88288">
        <ele>653.9</ele>
        <time>2022-08-29T06:07:32Z</time>
      </trkpt>
      <trkpt lat="47.88954" lon="6.88289">
        <ele>653.9</ele>
        <time>2022-08-29T06:07:35Z</time>
      </trkpt>
      <trkpt lat="47.88954" lon="6.88291">
        <ele>654</ele>
        <time>2022-08-29T06:07:37Z</time>
      </trkpt>
      <trkpt lat="47.88955" lon="6.88292">
        <ele>654.2</ele>
        <time>2022-08-29T06:07:38Z</time>
      </trkpt>
      <trkpt lat="47.88955" lon="6.88294">
        <ele>654.3</ele>
        <time>2022-08-29T06:07:39Z</time>
      </trkpt>
      <trkpt lat="47.88955" lon="6.88296">
        <ele>654.4</ele>
        <time>2022-08-29T06:07:40Z</time>
      </trkpt>
      <trkpt lat="47.88956" lon="6.88298">
        <ele>654.7</ele>
        <time>2022-08-29T06:07:41Z</time>
      </trkpt>
      <trkpt lat="47.88956" lon="6.883">
        <ele>654.8</ele>
        <time>2022-08-29T06:07:42Z</time>
      </trkpt>
      <trkpt lat="47.88956" lon="6.88303">
        <ele>654.9</ele>
        <time>2022-08-29T06:07:43Z</time>
      </trkpt>
      <trkpt lat="47.88956" lon="6.88305">
        <ele>655.1</ele>
        <time>2022-08-29T06:07:44Z</time>
      </trkpt>
      <trkpt lat="47.88956" lon="6.88308">
        <ele>655.2</ele>
        <time>2022-08-29T06:07:45Z</time>
      </trkpt>
      <trkpt lat="47.88956" lon="6.8831">
        <ele>655.4</ele>
        <time>2022-08-29T06:07:46Z</time>
      </trkpt>
      <trkpt lat="47.88956" lon="6.88312">
        <ele>655.5</ele>
        <time>2022-08-29T06:07:47Z</time>
      </trkpt>
      <trkpt lat="47.88956" lon="6.88315">
        <ele>655.7</ele>
        <time>2022-08-29T06:07:48Z</time>
      </trkpt>
      <trkpt lat="47.88956" lon="6.88317">
        <ele>655.8</ele>
        <time>2022-08-29T06:07:49Z</time>
      </trkpt>
      <trkpt lat="47.88956" lon="6.88318">
        <ele>655.9</ele>
        <time>2022-08-29T06:07:50Z</time>
      </trkpt>
      <trkpt lat="47.88956" lon="6.8832">
        <ele>656</ele>
        <time>2022-08-29T06:07:51Z</time>
      </trkpt>
      <trkpt lat="47.88956" lon="6.88322">
        <ele>656.2</ele>
        <time>2022-08-29T06:07:52Z</time>
      </trkpt>
      <trkpt lat="47.88956" lon="6.88324">
        <ele>656.3</ele>
        <time>2022-08-29T06:07:53Z</time>
      </trkpt>
      <trkpt lat="47.88956" lon="6.88326">
        <ele>656.4</ele>
        <time>2022-08-29T06:07:54Z</time>
      </trkpt>
      <trkpt lat="47.88956" lon="6.88328">
        <ele>656.6</ele>
        <time>2022-08-29T06:07:55Z</time>
      </trkpt>
      <trkpt lat="47.88956" lon="6.8833">
        <ele>656.7</ele>
        <time>2022-08-29T06:07:56Z</time>
      </trkpt>
      <trkpt lat="47.88956" lon="6.88332">
        <ele>656.8</ele>
        <time>2022-08-29T06:07:57Z</time>
      </trkpt>
      <trkpt lat="47.88956" lon="6.88333">
        <ele>656.9</ele>
        <time>2022-08-29T06:07:58Z</time>
      </trkpt>
      <trkpt lat="47.88956" lon="6.88335">
        <ele>656.9</ele>
        <time>2022-08-29T06:07:59Z</time>
      </trkpt>
      <trkpt lat="47.88956" lon="6.88337">
        <ele>657</ele>
        <time>2022-08-29T06:08:00Z</time>
      </trkpt>
      <trkpt lat="47.88956" lon="6.88339">
        <ele>657</ele>
        <time>2022-08-29T06:08:01Z</time>
      </trkpt>
      <trkpt lat="47.88957" lon="6.88341">
        <ele>657.3</ele>
        <time>2022-08-29T06:08:02Z</time>
      </trkpt>
      <trkpt lat="47.88957" lon="6.88342">
        <ele>657.3</ele>
        <time>2022-08-29T06:08:03Z</time>
      </trkpt>
      <trkpt lat="47.88957" lon="6.88344">
        <ele>657.3</ele>
        <time>2022-08-29T06:08:04Z</time>
      </trkpt>
      <trkpt lat="47.88957" lon="6.88345">
        <ele>657.4</ele>
        <time>2022-08-29T06:08:05Z</time>
      </trkpt>
      <trkpt lat="47.88957" lon="6.88347">
        <ele>657.4</ele>
        <time>2022-08-29T06:08:06Z</time>
      </trkpt>
      <trkpt lat="47.88957" lon="6.88348">
        <ele>657.4</ele>
        <time>2022-08-29T06:08:07Z</time>
      </trkpt>
      <trkpt lat="47.88957" lon="6.8835">
        <ele>657.4</ele>
        <time>2022-08-29T06:08:08Z</time>
      </trkpt>
      <trkpt lat="47.88957" lon="6.88351">
        <ele>657.5</ele>
        <time>2022-08-29T06:08:09Z</time>
      </trkpt>
      <trkpt lat="47.88957" lon="6.88353">
        <ele>657.5</ele>
        <time>2022-08-29T06:08:10Z</time>
      </trkpt>
      <trkpt lat="47.88957" lon="6.88354">
        <ele>657.5</ele>
        <time>2022-08-29T06:08:11Z</time>
      </trkpt>
      <trkpt lat="47.88956" lon="6.88355">
        <ele>657.2</ele>
        <time>2022-08-29T06:08:12Z</time>
      </trkpt>
      <trkpt lat="47.88956" lon="6.88356">
        <ele>657.3</ele>
        <time>2022-08-29T06:08:13Z</time>
      </trkpt>
      <trkpt lat="47.88955" lon="6.88357">
        <ele>657</ele>
        <time>2022-08-29T06:08:14Z</time>
      </trkpt>
      <trkpt lat="47.88955" lon="6.88359">
        <ele>657</ele>
        <time>2022-08-29T06:08:15Z</time>
      </trkpt>
      <trkpt lat="47.88955" lon="6.8836">
        <ele>657</ele>
        <time>2022-08-29T06:08:16Z</time>
      </trkpt>
      <trkpt lat="47.88954" lon="6.88361">
        <ele>656.8</ele>
        <time>2022-08-29T06:08:17Z</time>
      </trkpt>
      <trkpt lat="47.88954" lon="6.88363">
        <ele>656.8</ele>
        <time>2022-08-29T06:08:18Z</time>
      </trkpt>
      <trkpt lat="47.88953" lon="6.88364">
        <ele>656.5</ele>
        <time>2022-08-29T06:08:19Z</time>
      </trkpt>
      <trkpt lat="47.88953" lon="6.88365">
        <ele>656.5</ele>
        <time>2022-08-29T06:08:20Z</time>
      </trkpt>
      <trkpt lat="47.88952" lon="6.88366">
        <ele>656.3</ele>
        <time>2022-08-29T06:08:21Z</time>
      </trkpt>
      <trkpt lat="47.88952" lon="6.88368">
        <ele>656.3</ele>
        <time>2022-08-29T06:08:22Z</time>
      </trkpt>
      <trkpt lat="47.88952" lon="6.88369">
        <ele>656.3</ele>
        <time>2022-08-29T06:08:23Z</time>
      </trkpt>
      <trkpt lat="47.88952" lon="6.88371">
        <ele>656.3</ele>
        <time>2022-08-29T06:08:24Z</time>
      </trkpt>
      <trkpt lat="47.88952" lon="6.88373">
        <ele>656.4</ele>
        <time>2022-08-29T06:08:25Z</time>
      </trkpt>
      <trkpt lat="47.88952" lon="6.88374">
        <ele>656.4</ele>
        <time>2022-08-29T06:08:26Z</time>
      </trkpt>
      <trkpt lat="47.88952" lon="6.88376">
        <ele>656.4</ele>
        <time>2022-08-29T06:08:27Z</time>
      </trkpt>
      <trkpt lat="47.88952" lon="6.88377">
        <ele>656.4</ele>
        <time>2022-08-29T06:08:28Z</time>
      </trkpt>
      <trkpt lat="47.88952" lon="6.88379">
        <ele>656.5</ele>
        <time>2022-08-29T06:08:29Z</time>
      </trkpt>
      <trkpt lat="47.88952" lon="6.88381">
        <ele>656.5</ele>
        <time>2022-08-29T06:08:30Z</time>
      </trkpt>
      <trkpt lat="47.88952" lon="6.88383">
        <ele>656.5</ele>
        <time>2022-08-29T06:08:31Z</time>
      </trkpt>
      <trkpt lat="47.88951" lon="6.88385">
        <ele>656.3</ele>
        <time>2022-08-29T06:08:32Z</time>
      </trkpt>
      <trkpt lat="47.88951" lon="6.88387">
        <ele>656.4</ele>
        <time>2022-08-29T06:08:33Z</time>
      </trkpt>
      <trkpt lat="47.88951" lon="6.88389">
        <ele>656.4</ele>
        <time>2022-08-29T06:08:34Z</time>
      </trkpt>
      <trkpt lat="47.88951" lon="6.88391">
        <ele>656.4</ele>
        <time>2022-08-29T06:08:35Z</time>
      </trkpt>
      <trkpt lat="47.88951" lon="6.88393">
        <ele>656.5</ele>
        <time>2022-08-29T06:08:36Z</time>
      </trkpt>
      <trkpt lat="47.88951" lon="6.88395">
        <ele>656.5</ele>
        <time>2022-08-29T06:08:37Z</time>
      </trkpt>
      <trkpt lat="47.88951" lon="6.88396">
        <ele>656.5</ele>
        <time>2022-08-29T06:08:38Z</time>
      </trkpt>
      <trkpt lat="47.88951" lon="6.88398">
        <ele>656.5</ele>
        <time>2022-08-29T06:08:39Z</time>
      </trkpt>
      <trkpt lat="47.88951" lon="6.88399">
        <ele>656.5</ele>
        <time>2022-08-29T06:08:40Z</time>
      </trkpt>
      <trkpt lat="47.88951" lon="6.884">
        <ele>656.5</ele>
        <time>2022-08-29T06:08:41Z</time>
      </trkpt>
      <trkpt lat="47.88951" lon="6.88402">
        <ele>656.6</ele>
        <time>2022-08-29T06:08:42Z</time>
      </trkpt>
      <trkpt lat="47.88951" lon="6.88403">
        <ele>656.6</ele>
        <time>2022-08-29T06:08:43Z</time>
      </trkpt>
      <trkpt lat="47.88951" lon="6.88405">
        <ele>656.6</ele>
        <time>2022-08-29T06:08:44Z</time>
      </trkpt>
      <trkpt lat="47.88951" lon="6.88407">
        <ele>656.6</ele>
        <time>2022-08-29T06:08:45Z</time>
      </trkpt>
      <trkpt lat="47.88951" lon="6.88409">
        <ele>656.6</ele>
        <time>2022-08-29T06:08:46Z</time>
      </trkpt>
      <trkpt lat="47.88951" lon="6.88411">
        <ele>656.6</ele>
        <time>2022-08-29T06:08:47Z</time>
      </trkpt>
      <trkpt lat="47.88951" lon="6.88412">
        <ele>656.7</ele>
        <time>2022-08-29T06:08:48Z</time>
      </trkpt>
      <trkpt lat="47.88951" lon="6.88414">
        <ele>656.7</ele>
        <time>2022-08-29T06:08:49Z</time>
      </trkpt>
      <trkpt lat="47.88951" lon="6.88416">
        <ele>656.7</ele>
        <time>2022-08-29T06:08:50Z</time>
      </trkpt>
      <trkpt lat="47.88951" lon="6.88417">
        <ele>656.7</ele>
        <time>2022-08-29T06:08:51Z</time>
      </trkpt>
      <trkpt lat="47.88951" lon="6.88419">
        <ele>656.8</ele>
        <time>2022-08-29T06:08:52Z</time>
      </trkpt>
      <trkpt lat="47.88951" lon="6.8842">
        <ele>656.9</ele>
        <time>2022-08-29T06:08:53Z</time>
      </trkpt>
      <trkpt lat="47.88951" lon="6.88422">
        <ele>656.9</ele>
        <time>2022-08-29T06:08:54Z</time>
      </trkpt>
      <trkpt lat="47.88951" lon="6.88423">
        <ele>657</ele>
        <time>2022-08-29T06:08:55Z</time>
      </trkpt>
      <trkpt lat="47.88951" lon="6.88425">
        <ele>657.1</ele>
        <time>2022-08-29T06:08:56Z</time>
      </trkpt>
      <trkpt lat="47.88951" lon="6.88427">
        <ele>657.2</ele>
        <time>2022-08-29T06:08:57Z</time>
      </trkpt>
      <trkpt lat="47.88951" lon="6.88428">
        <ele>657.2</ele>
        <time>2022-08-29T06:08:58Z</time>
      </trkpt>
      <trkpt lat="47.88951" lon="6.8843">
        <ele>657.3</ele>
        <time>2022-08-29T06:08:59Z</time>
      </trkpt>
      <trkpt lat="47.88951" lon="6.88432">
        <ele>657.4</ele>
        <time>2022-08-29T06:09:00Z</time>
      </trkpt>
      <trkpt lat="47.88951" lon="6.88434">
        <ele>657.5</ele>
        <time>2022-08-29T06:09:01Z</time>
      </trkpt>
      <trkpt lat="47.8895" lon="6.88435">
        <ele>657.4</ele>
        <time>2022-08-29T06:09:02Z</time>
      </trkpt>
      <trkpt lat="47.8895" lon="6.88437">
        <ele>657.5</ele>
        <time>2022-08-29T06:09:03Z</time>
      </trkpt>
      <trkpt lat="47.8895" lon="6.88439">
        <ele>657.6</ele>
        <time>2022-08-29T06:09:04Z</time>
      </trkpt>
      <trkpt lat="47.88949" lon="6.8844">
        <ele>657.5</ele>
        <time>2022-08-29T06:09:05Z</time>
      </trkpt>
      <trkpt lat="47.88949" lon="6.88442">
        <ele>657.6</ele>
        <time>2022-08-29T06:09:06Z</time>
      </trkpt>
      <trkpt lat="47.88949" lon="6.88444">
        <ele>657.6</ele>
        <time>2022-08-29T06:09:07Z</time>
      </trkpt>
      <trkpt lat="47.88949" lon="6.88446">
        <ele>657.7</ele>
        <time>2022-08-29T06:09:08Z</time>
      </trkpt>
      <trkpt lat="47.88949" lon="6.88448">
        <ele>657.7</ele>
        <time>2022-08-29T06:09:09Z</time>
      </trkpt>
      <trkpt lat="47.88949" lon="6.88449">
        <ele>657.7</ele>
        <time>2022-08-29T06:09:10Z</time>
      </trkpt>
      <trkpt lat="47.88948" lon="6.88451">
        <ele>657.5</ele>
        <time>2022-08-29T06:09:11Z</time>
      </trkpt>
      <trkpt lat="47.88948" lon="6.88453">
        <ele>657.6</ele>
        <time>2022-08-29T06:09:12Z</time>
      </trkpt>
      <trkpt lat="47.88948" lon="6.88455">
        <ele>657.6</ele>
        <time>2022-08-29T06:09:13Z</time>
      </trkpt>
      <trkpt lat="47.88948" lon="6.88457">
        <ele>657.6</ele>
        <time>2022-08-29T06:09:14Z</time>
      </trkpt>
      <trkpt lat="47.88948" lon="6.88458">
        <ele>657.6</ele>
        <time>2022-08-29T06:09:15Z</time>
      </trkpt>
      <trkpt lat="47.88948" lon="6.8846">
        <ele>657.6</ele>
        <time>2022-08-29T06:09:16Z</time>
      </trkpt>
      <trkpt lat="47.88948" lon="6.88462">
        <ele>657.6</ele>
        <time>2022-08-29T06:09:17Z</time>
      </trkpt>
      <trkpt lat="47.88948" lon="6.88463">
        <ele>657.6</ele>
        <time>2022-08-29T06:09:18Z</time>
      </trkpt>
      <trkpt lat="47.88948" lon="6.88465">
        <ele>657.6</ele>
        <time>2022-08-29T06:09:19Z</time>
      </trkpt>
      <trkpt lat="47.88947" lon="6.88466">
        <ele>657.4</ele>
        <time>2022-08-29T06:09:20Z</time>
      </trkpt>
      <trkpt lat="47.88947" lon="6.88467">
        <ele>657.4</ele>
        <time>2022-08-29T06:09:21Z</time>
      </trkpt>
      <trkpt lat="47.88947" lon="6.88469">
        <ele>657.4</ele>
        <time>2022-08-29T06:09:22Z</time>
      </trkpt>
      <trkpt lat="47.88947" lon="6.8847">
        <ele>657.5</ele>
        <time>2022-08-29T06:09:23Z</time>
      </trkpt>
      <trkpt lat="47.88946" lon="6.88472">
        <ele>657.3</ele>
        <time>2022-08-29T06:09:24Z</time>
      </trkpt>
      <trkpt lat="47.88946" lon="6.88474">
        <ele>657.4</ele>
        <time>2022-08-29T06:09:25Z</time>
      </trkpt>
      <trkpt lat="47.88946" lon="6.88476">
        <ele>657.4</ele>
        <time>2022-08-29T06:09:26Z</time>
      </trkpt>
      <trkpt lat="47.88946" lon="6.88478">
        <ele>657.5</ele>
        <time>2022-08-29T06:09:27Z</time>
      </trkpt>
      <trkpt lat="47.88946" lon="6.88479">
        <ele>657.6</ele>
        <time>2022-08-29T06:09:28Z</time>
      </trkpt>
      <trkpt lat="47.88946" lon="6.88481">
        <ele>657.6</ele>
        <time>2022-08-29T06:09:29Z</time>
      </trkpt>
      <trkpt lat="47.88946" lon="6.88483">
        <ele>657.7</ele>
        <time>2022-08-29T06:09:30Z</time>
      </trkpt>
      <trkpt lat="47.88946" lon="6.88485">
        <ele>657.8</ele>
        <time>2022-08-29T06:09:31Z</time>
      </trkpt>
      <trkpt lat="47.88945" lon="6.88487">
        <ele>657.7</ele>
        <time>2022-08-29T06:09:32Z</time>
      </trkpt>
      <trkpt lat="47.88945" lon="6.88488">
        <ele>657.7</ele>
        <time>2022-08-29T06:09:33Z</time>
      </trkpt>
      <trkpt lat="47.88945" lon="6.8849">
        <ele>657.8</ele>
        <time>2022-08-29T06:09:34Z</time>
      </trkpt>
      <trkpt lat="47.88945" lon="6.88492">
        <ele>657.9</ele>
        <time>2022-08-29T06:09:35Z</time>
      </trkpt>
      <trkpt lat="47.88945" lon="6.88494">
        <ele>657.9</ele>
        <time>2022-08-29T06:09:36Z</time>
      </trkpt>
      <trkpt lat="47.88945" lon="6.88496">
        <ele>658</ele>
        <time>2022-08-29T06:09:37Z</time>
      </trkpt>
      <trkpt lat="47.88945" lon="6.88498">
        <ele>658.1</ele>
        <time>2022-08-29T06:09:38Z</time>
      </trkpt>
      <trkpt lat="47.88944" lon="6.885">
        <ele>658</ele>
        <time>2022-08-29T06:09:39Z</time>
      </trkpt>
      <trkpt lat="47.88944" lon="6.88502">
        <ele>658</ele>
        <time>2022-08-29T06:09:40Z</time>
      </trkpt>
      <trkpt lat="47.88944" lon="6.88503">
        <ele>658.1</ele>
        <time>2022-08-29T06:09:41Z</time>
      </trkpt>
      <trkpt lat="47.88944" lon="6.88505">
        <ele>658.2</ele>
        <time>2022-08-29T06:09:42Z</time>
      </trkpt>
      <trkpt lat="47.88944" lon="6.88507">
        <ele>658.2</ele>
        <time>2022-08-29T06:09:43Z</time>
      </trkpt>
      <trkpt lat="47.88944" lon="6.88509">
        <ele>658.3</ele>
        <time>2022-08-29T06:09:44Z</time>
      </trkpt>
      <trkpt lat="47.88943" lon="6.88511">
        <ele>658.3</ele>
        <time>2022-08-29T06:09:45Z</time>
      </trkpt>
      <trkpt lat="47.88943" lon="6.88512">
        <ele>658.4</ele>
        <time>2022-08-29T06:09:46Z</time>
      </trkpt>
      <trkpt lat="47.88943" lon="6.88514">
        <ele>658.4</ele>
        <time>2022-08-29T06:09:47Z</time>
      </trkpt>
      <trkpt lat="47.88943" lon="6.88516">
        <ele>658.5</ele>
        <time>2022-08-29T06:09:48Z</time>
      </trkpt>
      <trkpt lat="47.88943" lon="6.88518">
        <ele>658.6</ele>
        <time>2022-08-29T06:09:49Z</time>
      </trkpt>
      <trkpt lat="47.88943" lon="6.88519">
        <ele>658.6</ele>
        <time>2022-08-29T06:09:50Z</time>
      </trkpt>
      <trkpt lat="47.88942" lon="6.88521">
        <ele>658.6</ele>
        <time>2022-08-29T06:09:51Z</time>
      </trkpt>
      <trkpt lat="47.88942" lon="6.88523">
        <ele>658.7</ele>
        <time>2022-08-29T06:09:52Z</time>
      </trkpt>
      <trkpt lat="47.88942" lon="6.88525">
        <ele>658.8</ele>
        <time>2022-08-29T06:09:53Z</time>
      </trkpt>
      <trkpt lat="47.88942" lon="6.88527">
        <ele>658.9</ele>
        <time>2022-08-29T06:09:54Z</time>
      </trkpt>
      <trkpt lat="47.88942" lon="6.88529">
        <ele>658.9</ele>
        <time>2022-08-29T06:09:55Z</time>
      </trkpt>
      <trkpt lat="47.88942" lon="6.8853">
        <ele>658.9</ele>
        <time>2022-08-29T06:09:56Z</time>
      </trkpt>
      <trkpt lat="47.88942" lon="6.88532">
        <ele>659</ele>
        <time>2022-08-29T06:09:57Z</time>
      </trkpt>
      <trkpt lat="47.88942" lon="6.88534">
        <ele>659</ele>
        <time>2022-08-29T06:09:58Z</time>
      </trkpt>
      <trkpt lat="47.88941" lon="6.88535">
        <ele>659</ele>
        <time>2022-08-29T06:09:59Z</time>
      </trkpt>
      <trkpt lat="47.88941" lon="6.88537">
        <ele>659</ele>
        <time>2022-08-29T06:10:00Z</time>
      </trkpt>
      <trkpt lat="47.88941" lon="6.88538">
        <ele>659</ele>
        <time>2022-08-29T06:10:01Z</time>
      </trkpt>
      <trkpt lat="47.88941" lon="6.88539">
        <ele>659</ele>
        <time>2022-08-29T06:10:02Z</time>
      </trkpt>
      <trkpt lat="47.88941" lon="6.88541">
        <ele>659.1</ele>
        <time>2022-08-29T06:10:03Z</time>
      </trkpt>
      <trkpt lat="47.88941" lon="6.88542">
        <ele>659.1</ele>
        <time>2022-08-29T06:10:04Z</time>
      </trkpt>
      <trkpt lat="47.8894" lon="6.88544">
        <ele>659.1</ele>
        <time>2022-08-29T06:10:05Z</time>
      </trkpt>
      <trkpt lat="47.8894" lon="6.88545">
        <ele>659.1</ele>
        <time>2022-08-29T06:10:06Z</time>
      </trkpt>
      <trkpt lat="47.8894" lon="6.88547">
        <ele>659.2</ele>
        <time>2022-08-29T06:10:07Z</time>
      </trkpt>
      <trkpt lat="47.8894" lon="6.88548">
        <ele>659.2</ele>
        <time>2022-08-29T06:10:08Z</time>
      </trkpt>
      <trkpt lat="47.8894" lon="6.8855">
        <ele>659.2</ele>
        <time>2022-08-29T06:10:09Z</time>
      </trkpt>
      <trkpt lat="47.88939" lon="6.88552">
        <ele>659.3</ele>
        <time>2022-08-29T06:10:10Z</time>
      </trkpt>
      <trkpt lat="47.88939" lon="6.88553">
        <ele>659.3</ele>
        <time>2022-08-29T06:10:11Z</time>
      </trkpt>
      <trkpt lat="47.88939" lon="6.88555">
        <ele>659.4</ele>
        <time>2022-08-29T06:10:12Z</time>
      </trkpt>
      <trkpt lat="47.88939" lon="6.88557">
        <ele>659.5</ele>
        <time>2022-08-29T06:10:13Z</time>
      </trkpt>
      <trkpt lat="47.88938" lon="6.88559">
        <ele>659.7</ele>
        <time>2022-08-29T06:10:14Z</time>
      </trkpt>
      <trkpt lat="47.88938" lon="6.8856">
        <ele>659.8</ele>
        <time>2022-08-29T06:10:15Z</time>
      </trkpt>
      <trkpt lat="47.88938" lon="6.88562">
        <ele>659.9</ele>
        <time>2022-08-29T06:10:16Z</time>
      </trkpt>
      <trkpt lat="47.88938" lon="6.88563">
        <ele>660</ele>
        <time>2022-08-29T06:10:17Z</time>
      </trkpt>
      <trkpt lat="47.88937" lon="6.88565">
        <ele>660.2</ele>
        <time>2022-08-29T06:10:18Z</time>
      </trkpt>
      <trkpt lat="47.88937" lon="6.88567">
        <ele>660.4</ele>
        <time>2022-08-29T06:10:19Z</time>
      </trkpt>
      <trkpt lat="47.88937" lon="6.88569">
        <ele>660.5</ele>
        <time>2022-08-29T06:10:20Z</time>
      </trkpt>
      <trkpt lat="47.88937" lon="6.8857">
        <ele>660.6</ele>
        <time>2022-08-29T06:10:21Z</time>
      </trkpt>
      <trkpt lat="47.88937" lon="6.88572">
        <ele>660.7</ele>
        <time>2022-08-29T06:10:22Z</time>
      </trkpt>
      <trkpt lat="47.88936" lon="6.88574">
        <ele>660.9</ele>
        <time>2022-08-29T06:10:23Z</time>
      </trkpt>
      <trkpt lat="47.88936" lon="6.88576">
        <ele>661.1</ele>
        <time>2022-08-29T06:10:24Z</time>
      </trkpt>
      <trkpt lat="47.88936" lon="6.88577">
        <ele>661.2</ele>
        <time>2022-08-29T06:10:25Z</time>
      </trkpt>
      <trkpt lat="47.88936" lon="6.88579">
        <ele>661.3</ele>
        <time>2022-08-29T06:10:26Z</time>
      </trkpt>
      <trkpt lat="47.88936" lon="6.8858">
        <ele>661.4</ele>
        <time>2022-08-29T06:10:27Z</time>
      </trkpt>
      <trkpt lat="47.88936" lon="6.88582">
        <ele>661.5</ele>
        <time>2022-08-29T06:10:28Z</time>
      </trkpt>
      <trkpt lat="47.88936" lon="6.88584">
        <ele>661.6</ele>
        <time>2022-08-29T06:10:29Z</time>
      </trkpt>
      <trkpt lat="47.88936" lon="6.88585">
        <ele>661.7</ele>
        <time>2022-08-29T06:10:30Z</time>
      </trkpt>
      <trkpt lat="47.88936" lon="6.88587">
        <ele>661.8</ele>
        <time>2022-08-29T06:10:31Z</time>
      </trkpt>
      <trkpt lat="47.88937" lon="6.88589">
        <ele>661.8</ele>
        <time>2022-08-29T06:10:32Z</time>
      </trkpt>
      <trkpt lat="47.88937" lon="6.8859">
        <ele>661.8</ele>
        <time>2022-08-29T06:10:33Z</time>
      </trkpt>
      <trkpt lat="47.88937" lon="6.88592">
        <ele>661.9</ele>
        <time>2022-08-29T06:10:34Z</time>
      </trkpt>
      <trkpt lat="47.88937" lon="6.88594">
        <ele>662</ele>
        <time>2022-08-29T06:10:35Z</time>
      </trkpt>
      <trkpt lat="47.88937" lon="6.88595">
        <ele>662.1</ele>
        <time>2022-08-29T06:10:36Z</time>
      </trkpt>
      <trkpt lat="47.88937" lon="6.88597">
        <ele>662.2</ele>
        <time>2022-08-29T06:10:37Z</time>
      </trkpt>
      <trkpt lat="47.88937" lon="6.88599">
        <ele>662.3</ele>
        <time>2022-08-29T06:10:38Z</time>
      </trkpt>
      <trkpt lat="47.88936" lon="6.88601">
        <ele>662.4</ele>
        <time>2022-08-29T06:10:39Z</time>
      </trkpt>
      <trkpt lat="47.88936" lon="6.88602">
        <ele>662.5</ele>
        <time>2022-08-29T06:10:40Z</time>
      </trkpt>
      <trkpt lat="47.88936" lon="6.88604">
        <ele>662.6</ele>
        <time>2022-08-29T06:10:41Z</time>
      </trkpt>
      <trkpt lat="47.88936" lon="6.88606">
        <ele>662.7</ele>
        <time>2022-08-29T06:10:42Z</time>
      </trkpt>
      <trkpt lat="47.88936" lon="6.88608">
        <ele>662.8</ele>
        <time>2022-08-29T06:10:43Z</time>
      </trkpt>
      <trkpt lat="47.88936" lon="6.8861">
        <ele>662.9</ele>
        <time>2022-08-29T06:10:44Z</time>
      </trkpt>
      <trkpt lat="47.88936" lon="6.88611">
        <ele>662.9</ele>
        <time>2022-08-29T06:10:45Z</time>
      </trkpt>
      <trkpt lat="47.88936" lon="6.88613">
        <ele>663</ele>
        <time>2022-08-29T06:10:46Z</time>
      </trkpt>
      <trkpt lat="47.88936" lon="6.88615">
        <ele>663</ele>
        <time>2022-08-29T06:10:47Z</time>
      </trkpt>
      <trkpt lat="47.88936" lon="6.88617">
        <ele>663</ele>
        <time>2022-08-29T06:10:48Z</time>
      </trkpt>
      <trkpt lat="47.88936" lon="6.88619">
        <ele>663.1</ele>
        <time>2022-08-29T06:10:49Z</time>
      </trkpt>
      <trkpt lat="47.88936" lon="6.8862">
        <ele>663.1</ele>
        <time>2022-08-29T06:10:50Z</time>
      </trkpt>
      <trkpt lat="47.88936" lon="6.88622">
        <ele>663.2</ele>
        <time>2022-08-29T06:10:51Z</time>
      </trkpt>
      <trkpt lat="47.88936" lon="6.88624">
        <ele>663.2</ele>
        <time>2022-08-29T06:10:52Z</time>
      </trkpt>
      <trkpt lat="47.88936" lon="6.88626">
        <ele>663.2</ele>
        <time>2022-08-29T06:10:53Z</time>
      </trkpt>
      <trkpt lat="47.88936" lon="6.88628">
        <ele>663.3</ele>
        <time>2022-08-29T06:10:54Z</time>
      </trkpt>
      <trkpt lat="47.88936" lon="6.88629">
        <ele>663.3</ele>
        <time>2022-08-29T06:10:55Z</time>
      </trkpt>
      <trkpt lat="47.88936" lon="6.88631">
        <ele>663.3</ele>
        <time>2022-08-29T06:10:56Z</time>
      </trkpt>
      <trkpt lat="47.88936" lon="6.88632">
        <ele>663.4</ele>
        <time>2022-08-29T06:10:57Z</time>
      </trkpt>
      <trkpt lat="47.88935" lon="6.88634">
        <ele>663.6</ele>
        <time>2022-08-29T06:10:58Z</time>
      </trkpt>
      <trkpt lat="47.88935" lon="6.88636">
        <ele>663.6</ele>
        <time>2022-08-29T06:10:59Z</time>
      </trkpt>
      <trkpt lat="47.88935" lon="6.88638">
        <ele>663.7</ele>
        <time>2022-08-29T06:11:00Z</time>
      </trkpt>
      <trkpt lat="47.88935" lon="6.8864">
        <ele>663.8</ele>
        <time>2022-08-29T06:11:01Z</time>
      </trkpt>
      <trkpt lat="47.88935" lon="6.88642">
        <ele>663.9</ele>
        <time>2022-08-29T06:11:02Z</time>
      </trkpt>
      <trkpt lat="47.88935" lon="6.88644">
        <ele>663.9</ele>
        <time>2022-08-29T06:11:03Z</time>
      </trkpt>
      <trkpt lat="47.88935" lon="6.88646">
        <ele>664</ele>
        <time>2022-08-29T06:11:04Z</time>
      </trkpt>
      <trkpt lat="47.88935" lon="6.88647">
        <ele>664.1</ele>
        <time>2022-08-29T06:11:05Z</time>
      </trkpt>
      <trkpt lat="47.88935" lon="6.88649">
        <ele>664.2</ele>
        <time>2022-08-29T06:11:06Z</time>
      </trkpt>
      <trkpt lat="47.88935" lon="6.88651">
        <ele>664.3</ele>
        <time>2022-08-29T06:11:07Z</time>
      </trkpt>
      <trkpt lat="47.88935" lon="6.88652">
        <ele>664.3</ele>
        <time>2022-08-29T06:11:08Z</time>
      </trkpt>
      <trkpt lat="47.88935" lon="6.88654">
        <ele>664.4</ele>
        <time>2022-08-29T06:11:09Z</time>
      </trkpt>
      <trkpt lat="47.88935" lon="6.88656">
        <ele>664.5</ele>
        <time>2022-08-29T06:11:10Z</time>
      </trkpt>
      <trkpt lat="47.88935" lon="6.88658">
        <ele>664.6</ele>
        <time>2022-08-29T06:11:11Z</time>
      </trkpt>
      <trkpt lat="47.88935" lon="6.88659">
        <ele>664.7</ele>
        <time>2022-08-29T06:11:12Z</time>
      </trkpt>
      <trkpt lat="47.88935" lon="6.88661">
        <ele>664.8</ele>
        <time>2022-08-29T06:11:13Z</time>
      </trkpt>
      <trkpt lat="47.88935" lon="6.88663">
        <ele>664.9</ele>
        <time>2022-08-29T06:11:14Z</time>
      </trkpt>
      <trkpt lat="47.88936" lon="6.88664">
        <ele>664.7</ele>
        <time>2022-08-29T06:11:15Z</time>
      </trkpt>
      <trkpt lat="47.88936" lon="6.88666">
        <ele>664.8</ele>
        <time>2022-08-29T06:11:16Z</time>
      </trkpt>
      <trkpt lat="47.88936" lon="6.88668">
        <ele>664.9</ele>
        <time>2022-08-29T06:11:17Z</time>
      </trkpt>
      <trkpt lat="47.88936" lon="6.88669">
        <ele>664.9</ele>
        <time>2022-08-29T06:11:18Z</time>
      </trkpt>
      <trkpt lat="47.88936" lon="6.88671">
        <ele>665</ele>
        <time>2022-08-29T06:11:19Z</time>
      </trkpt>
      <trkpt lat="47.88936" lon="6.88673">
        <ele>665.1</ele>
        <time>2022-08-29T06:11:20Z</time>
      </trkpt>
      <trkpt lat="47.88936" lon="6.88674">
        <ele>665.2</ele>
        <time>2022-08-29T06:11:21Z</time>
      </trkpt>
      <trkpt lat="47.88936" lon="6.88676">
        <ele>665.3</ele>
        <time>2022-08-29T06:11:22Z</time>
      </trkpt>
      <trkpt lat="47.88936" lon="6.88678">
        <ele>665.4</ele>
        <time>2022-08-29T06:11:23Z</time>
      </trkpt>
      <trkpt lat="47.88936" lon="6.88679">
        <ele>665.4</ele>
        <time>2022-08-29T06:11:24Z</time>
      </trkpt>
      <trkpt lat="47.88936" lon="6.88681">
        <ele>665.5</ele>
        <time>2022-08-29T06:11:25Z</time>
      </trkpt>
      <trkpt lat="47.88936" lon="6.88682">
        <ele>665.5</ele>
        <time>2022-08-29T06:11:26Z</time>
      </trkpt>
      <trkpt lat="47.88936" lon="6.88684">
        <ele>665.6</ele>
        <time>2022-08-29T06:11:27Z</time>
      </trkpt>
      <trkpt lat="47.88936" lon="6.88685">
        <ele>665.7</ele>
        <time>2022-08-29T06:11:28Z</time>
      </trkpt>
      <trkpt lat="47.88937" lon="6.88687">
        <ele>665.5</ele>
        <time>2022-08-29T06:11:29Z</time>
      </trkpt>
      <trkpt lat="47.88937" lon="6.88688">
        <ele>665.6</ele>
        <time>2022-08-29T06:11:30Z</time>
      </trkpt>
      <trkpt lat="47.88937" lon="6.8869">
        <ele>665.7</ele>
        <time>2022-08-29T06:11:31Z</time>
      </trkpt>
      <trkpt lat="47.88937" lon="6.88692">
        <ele>665.8</ele>
        <time>2022-08-29T06:11:32Z</time>
      </trkpt>
      <trkpt lat="47.88937" lon="6.88693">
        <ele>665.8</ele>
        <time>2022-08-29T06:11:33Z</time>
      </trkpt>
      <trkpt lat="47.88938" lon="6.88695">
        <ele>665.7</ele>
        <time>2022-08-29T06:11:34Z</time>
      </trkpt>
      <trkpt lat="47.88938" lon="6.88696">
        <ele>665.7</ele>
        <time>2022-08-29T06:11:35Z</time>
      </trkpt>
      <trkpt lat="47.88938" lon="6.88698">
        <ele>665.9</ele>
        <time>2022-08-29T06:11:36Z</time>
      </trkpt>
      <trkpt lat="47.88938" lon="6.887">
        <ele>666.1</ele>
        <time>2022-08-29T06:11:37Z</time>
      </trkpt>
      <trkpt lat="47.88939" lon="6.88701">
        <ele>665.9</ele>
        <time>2022-08-29T06:11:38Z</time>
      </trkpt>
      <trkpt lat="47.88939" lon="6.88702">
        <ele>666</ele>
        <time>2022-08-29T06:11:39Z</time>
      </trkpt>
      <trkpt lat="47.88939" lon="6.88704">
        <ele>666.1</ele>
        <time>2022-08-29T06:11:40Z</time>
      </trkpt>
      <trkpt lat="47.88939" lon="6.88705">
        <ele>666.2</ele>
        <time>2022-08-29T06:11:41Z</time>
      </trkpt>
      <trkpt lat="47.88939" lon="6.88707">
        <ele>666.4</ele>
        <time>2022-08-29T06:11:42Z</time>
      </trkpt>
      <trkpt lat="47.88939" lon="6.88708">
        <ele>666.4</ele>
        <time>2022-08-29T06:11:43Z</time>
      </trkpt>
      <trkpt lat="47.8894" lon="6.8871">
        <ele>666.3</ele>
        <time>2022-08-29T06:11:44Z</time>
      </trkpt>
      <trkpt lat="47.8894" lon="6.88712">
        <ele>666.5</ele>
        <time>2022-08-29T06:11:45Z</time>
      </trkpt>
      <trkpt lat="47.8894" lon="6.88713">
        <ele>666.6</ele>
        <time>2022-08-29T06:11:46Z</time>
      </trkpt>
      <trkpt lat="47.8894" lon="6.88715">
        <ele>666.7</ele>
        <time>2022-08-29T06:11:47Z</time>
      </trkpt>
      <trkpt lat="47.8894" lon="6.88717">
        <ele>666.9</ele>
        <time>2022-08-29T06:11:48Z</time>
      </trkpt>
      <trkpt lat="47.8894" lon="6.88718">
        <ele>667</ele>
        <time>2022-08-29T06:11:49Z</time>
      </trkpt>
      <trkpt lat="47.88941" lon="6.8872">
        <ele>666.8</ele>
        <time>2022-08-29T06:11:50Z</time>
      </trkpt>
      <trkpt lat="47.88941" lon="6.88722">
        <ele>667</ele>
        <time>2022-08-29T06:11:51Z</time>
      </trkpt>
      <trkpt lat="47.88941" lon="6.88723">
        <ele>667.1</ele>
        <time>2022-08-29T06:11:52Z</time>
      </trkpt>
      <trkpt lat="47.88942" lon="6.88725">
        <ele>667</ele>
        <time>2022-08-29T06:11:53Z</time>
      </trkpt>
      <trkpt lat="47.88942" lon="6.88726">
        <ele>667.1</ele>
        <time>2022-08-29T06:11:54Z</time>
      </trkpt>
      <trkpt lat="47.88942" lon="6.88728">
        <ele>667.4</ele>
        <time>2022-08-29T06:11:55Z</time>
      </trkpt>
      <trkpt lat="47.88943" lon="6.88729">
        <ele>667.2</ele>
        <time>2022-08-29T06:11:56Z</time>
      </trkpt>
      <trkpt lat="47.88943" lon="6.88731">
        <ele>667.4</ele>
        <time>2022-08-29T06:11:57Z</time>
      </trkpt>
      <trkpt lat="47.88943" lon="6.88732">
        <ele>667.5</ele>
        <time>2022-08-29T06:11:58Z</time>
      </trkpt>
      <trkpt lat="47.88943" lon="6.88734">
        <ele>667.8</ele>
        <time>2022-08-29T06:11:59Z</time>
      </trkpt>
      <trkpt lat="47.88944" lon="6.88735">
        <ele>667.5</ele>
        <time>2022-08-29T06:12:00Z</time>
      </trkpt>
      <trkpt lat="47.88944" lon="6.88737">
        <ele>667.7</ele>
        <time>2022-08-29T06:12:01Z</time>
      </trkpt>
      <trkpt lat="47.88944" lon="6.88738">
        <ele>667.9</ele>
        <time>2022-08-29T06:12:02Z</time>
      </trkpt>
      <trkpt lat="47.88945" lon="6.8874">
        <ele>667.8</ele>
        <time>2022-08-29T06:12:03Z</time>
      </trkpt>
      <trkpt lat="47.88945" lon="6.88741">
        <ele>667.9</ele>
        <time>2022-08-29T06:12:04Z</time>
      </trkpt>
      <trkpt lat="47.88945" lon="6.88743">
        <ele>668.2</ele>
        <time>2022-08-29T06:12:05Z</time>
      </trkpt>
      <trkpt lat="47.88945" lon="6.88745">
        <ele>668.4</ele>
        <time>2022-08-29T06:12:06Z</time>
      </trkpt>
      <trkpt lat="47.88945" lon="6.88746">
        <ele>668.5</ele>
        <time>2022-08-29T06:12:07Z</time>
      </trkpt>
      <trkpt lat="47.88945" lon="6.88748">
        <ele>668.7</ele>
        <time>2022-08-29T06:12:08Z</time>
      </trkpt>
      <trkpt lat="47.88945" lon="6.8875">
        <ele>668.9</ele>
        <time>2022-08-29T06:12:09Z</time>
      </trkpt>
      <trkpt lat="47.88946" lon="6.88752">
        <ele>668.9</ele>
        <time>2022-08-29T06:12:10Z</time>
      </trkpt>
      <trkpt lat="47.88946" lon="6.88754">
        <ele>669</ele>
        <time>2022-08-29T06:12:11Z</time>
      </trkpt>
      <trkpt lat="47.88947" lon="6.88755">
        <ele>668.9</ele>
        <time>2022-08-29T06:12:12Z</time>
      </trkpt>
      <trkpt lat="47.88948" lon="6.88757">
        <ele>668.9</ele>
        <time>2022-08-29T06:12:13Z</time>
      </trkpt>
      <trkpt lat="47.88948" lon="6.88759">
        <ele>669</ele>
        <time>2022-08-29T06:12:14Z</time>
      </trkpt>
      <trkpt lat="47.88948" lon="6.8876">
        <ele>669.1</ele>
        <time>2022-08-29T06:12:15Z</time>
      </trkpt>
      <trkpt lat="47.88949" lon="6.88762">
        <ele>669</ele>
        <time>2022-08-29T06:12:16Z</time>
      </trkpt>
      <trkpt lat="47.88949" lon="6.88764">
        <ele>669.2</ele>
        <time>2022-08-29T06:12:17Z</time>
      </trkpt>
      <trkpt lat="47.8895" lon="6.88765">
        <ele>669.1</ele>
        <time>2022-08-29T06:12:18Z</time>
      </trkpt>
      <trkpt lat="47.8895" lon="6.88767">
        <ele>669.2</ele>
        <time>2022-08-29T06:12:19Z</time>
      </trkpt>
      <trkpt lat="47.8895" lon="6.88768">
        <ele>669.3</ele>
        <time>2022-08-29T06:12:20Z</time>
      </trkpt>
      <trkpt lat="47.88951" lon="6.8877">
        <ele>669.3</ele>
        <time>2022-08-29T06:12:21Z</time>
      </trkpt>
      <trkpt lat="47.88951" lon="6.88771">
        <ele>669.3</ele>
        <time>2022-08-29T06:12:22Z</time>
      </trkpt>
      <trkpt lat="47.88951" lon="6.88773">
        <ele>669.5</ele>
        <time>2022-08-29T06:12:23Z</time>
      </trkpt>
      <trkpt lat="47.88952" lon="6.88774">
        <ele>669.4</ele>
        <time>2022-08-29T06:12:24Z</time>
      </trkpt>
      <trkpt lat="47.88952" lon="6.88776">
        <ele>669.5</ele>
        <time>2022-08-29T06:12:25Z</time>
      </trkpt>
      <trkpt lat="47.88953" lon="6.88777">
        <ele>669.4</ele>
        <time>2022-08-29T06:12:26Z</time>
      </trkpt>
      <trkpt lat="47.88953" lon="6.88778">
        <ele>669.5</ele>
        <time>2022-08-29T06:12:27Z</time>
      </trkpt>
      <trkpt lat="47.88954" lon="6.8878">
        <ele>669.5</ele>
        <time>2022-08-29T06:12:28Z</time>
      </trkpt>
      <trkpt lat="47.88954" lon="6.88781">
        <ele>669.7</ele>
        <time>2022-08-29T06:12:29Z</time>
      </trkpt>
      <trkpt lat="47.88955" lon="6.88782">
        <ele>669.6</ele>
        <time>2022-08-29T06:12:30Z</time>
      </trkpt>
      <trkpt lat="47.88955" lon="6.88784">
        <ele>669.8</ele>
        <time>2022-08-29T06:12:31Z</time>
      </trkpt>
      <trkpt lat="47.88955" lon="6.88785">
        <ele>669.9</ele>
        <time>2022-08-29T06:12:32Z</time>
      </trkpt>
      <trkpt lat="47.88956" lon="6.88787">
        <ele>670</ele>
        <time>2022-08-29T06:12:33Z</time>
      </trkpt>
      <trkpt lat="47.88956" lon="6.88788">
        <ele>670.1</ele>
        <time>2022-08-29T06:12:34Z</time>
      </trkpt>
      <trkpt lat="47.88956" lon="6.8879">
        <ele>670.3</ele>
        <time>2022-08-29T06:12:35Z</time>
      </trkpt>
      <trkpt lat="47.88957" lon="6.88791">
        <ele>670.2</ele>
        <time>2022-08-29T06:12:36Z</time>
      </trkpt>
      <trkpt lat="47.88957" lon="6.88793">
        <ele>670.4</ele>
        <time>2022-08-29T06:12:37Z</time>
      </trkpt>
      <trkpt lat="47.88957" lon="6.88794">
        <ele>670.5</ele>
        <time>2022-08-29T06:12:38Z</time>
      </trkpt>
      <trkpt lat="47.88958" lon="6.88796">
        <ele>670.5</ele>
        <time>2022-08-29T06:12:39Z</time>
      </trkpt>
      <trkpt lat="47.88958" lon="6.88797">
        <ele>670.7</ele>
        <time>2022-08-29T06:12:40Z</time>
      </trkpt>
      <trkpt lat="47.88958" lon="6.88799">
        <ele>670.9</ele>
        <time>2022-08-29T06:12:41Z</time>
      </trkpt>
      <trkpt lat="47.88959" lon="6.888">
        <ele>670.7</ele>
        <time>2022-08-29T06:12:42Z</time>
      </trkpt>
      <trkpt lat="47.8896" lon="6.88802">
        <ele>670.7</ele>
        <time>2022-08-29T06:12:43Z</time>
      </trkpt>
      <trkpt lat="47.8896" lon="6.88803">
        <ele>670.8</ele>
        <time>2022-08-29T06:12:44Z</time>
      </trkpt>
      <trkpt lat="47.88961" lon="6.88805">
        <ele>670.8</ele>
        <time>2022-08-29T06:12:45Z</time>
      </trkpt>
      <trkpt lat="47.88961" lon="6.88807">
        <ele>671.1</ele>
        <time>2022-08-29T06:12:46Z</time>
      </trkpt>
      <trkpt lat="47.88962" lon="6.88808">
        <ele>671</ele>
        <time>2022-08-29T06:12:47Z</time>
      </trkpt>
      <trkpt lat="47.88962" lon="6.8881">
        <ele>671.4</ele>
        <time>2022-08-29T06:12:48Z</time>
      </trkpt>
      <trkpt lat="47.88962" lon="6.88811">
        <ele>671.6</ele>
        <time>2022-08-29T06:12:49Z</time>
      </trkpt>
      <trkpt lat="47.88963" lon="6.88813">
        <ele>671.8</ele>
        <time>2022-08-29T06:12:50Z</time>
      </trkpt>
      <trkpt lat="47.88963" lon="6.88814">
        <ele>671.9</ele>
        <time>2022-08-29T06:12:51Z</time>
      </trkpt>
      <trkpt lat="47.88964" lon="6.88815">
        <ele>671.9</ele>
        <time>2022-08-29T06:12:52Z</time>
      </trkpt>
      <trkpt lat="47.88965" lon="6.88817">
        <ele>672</ele>
        <time>2022-08-29T06:12:53Z</time>
      </trkpt>
      <trkpt lat="47.88965" lon="6.88818">
        <ele>672.2</ele>
        <time>2022-08-29T06:12:54Z</time>
      </trkpt>
      <trkpt lat="47.88966" lon="6.88819">
        <ele>672.1</ele>
        <time>2022-08-29T06:12:55Z</time>
      </trkpt>
      <trkpt lat="47.88966" lon="6.8882">
        <ele>672.3</ele>
        <time>2022-08-29T06:12:56Z</time>
      </trkpt>
      <trkpt lat="47.88967" lon="6.88822">
        <ele>672.4</ele>
        <time>2022-08-29T06:12:57Z</time>
      </trkpt>
      <trkpt lat="47.88967" lon="6.88823">
        <ele>672.6</ele>
        <time>2022-08-29T06:12:58Z</time>
      </trkpt>
      <trkpt lat="47.88968" lon="6.88824">
        <ele>672.5</ele>
        <time>2022-08-29T06:12:59Z</time>
      </trkpt>
      <trkpt lat="47.88968" lon="6.88826">
        <ele>672.9</ele>
        <time>2022-08-29T06:13:00Z</time>
      </trkpt>
      <trkpt lat="47.88969" lon="6.88827">
        <ele>672.8</ele>
        <time>2022-08-29T06:13:01Z</time>
      </trkpt>
      <trkpt lat="47.88969" lon="6.88829">
        <ele>673.1</ele>
        <time>2022-08-29T06:13:02Z</time>
      </trkpt>
      <trkpt lat="47.88969" lon="6.8883">
        <ele>673.3</ele>
        <time>2022-08-29T06:13:03Z</time>
      </trkpt>
      <trkpt lat="47.8897" lon="6.88831">
        <ele>673.2</ele>
        <time>2022-08-29T06:13:04Z</time>
      </trkpt>
      <trkpt lat="47.8897" lon="6.88833">
        <ele>673.6</ele>
        <time>2022-08-29T06:13:05Z</time>
      </trkpt>
      <trkpt lat="47.88971" lon="6.88834">
        <ele>673.4</ele>
        <time>2022-08-29T06:13:06Z</time>
      </trkpt>
      <trkpt lat="47.88971" lon="6.88835">
        <ele>673.5</ele>
        <time>2022-08-29T06:13:07Z</time>
      </trkpt>
      <trkpt lat="47.88972" lon="6.88837">
        <ele>673.5</ele>
        <time>2022-08-29T06:13:08Z</time>
      </trkpt>
      <trkpt lat="47.88972" lon="6.88838">
        <ele>673.6</ele>
        <time>2022-08-29T06:13:09Z</time>
      </trkpt>
      <trkpt lat="47.88973" lon="6.88839">
        <ele>673.5</ele>
        <time>2022-08-29T06:13:10Z</time>
      </trkpt>
      <trkpt lat="47.88973" lon="6.88841">
        <ele>673.7</ele>
        <time>2022-08-29T06:13:11Z</time>
      </trkpt>
      <trkpt lat="47.88974" lon="6.88842">
        <ele>673.7</ele>
        <time>2022-08-29T06:13:12Z</time>
      </trkpt>
      <trkpt lat="47.88974" lon="6.88843">
        <ele>673.8</ele>
        <time>2022-08-29T06:13:13Z</time>
      </trkpt>
      <trkpt lat="47.88974" lon="6.88845">
        <ele>674</ele>
        <time>2022-08-29T06:13:14Z</time>
      </trkpt>
      <trkpt lat="47.88975" lon="6.88846">
        <ele>674</ele>
        <time>2022-08-29T06:13:15Z</time>
      </trkpt>
      <trkpt lat="47.88975" lon="6.88847">
        <ele>674.1</ele>
        <time>2022-08-29T06:13:16Z</time>
      </trkpt>
      <trkpt lat="47.88976" lon="6.88849">
        <ele>674.1</ele>
        <time>2022-08-29T06:13:17Z</time>
      </trkpt>
      <trkpt lat="47.88976" lon="6.8885">
        <ele>674.2</ele>
        <time>2022-08-29T06:13:18Z</time>
      </trkpt>
      <trkpt lat="47.88977" lon="6.88851">
        <ele>674.2</ele>
        <time>2022-08-29T06:13:19Z</time>
      </trkpt>
      <trkpt lat="47.88977" lon="6.88853">
        <ele>674.4</ele>
        <time>2022-08-29T06:13:20Z</time>
      </trkpt>
      <trkpt lat="47.88978" lon="6.88854">
        <ele>674.3</ele>
        <time>2022-08-29T06:13:21Z</time>
      </trkpt>
      <trkpt lat="47.88978" lon="6.88855">
        <ele>674.4</ele>
        <time>2022-08-29T06:13:22Z</time>
      </trkpt>
      <trkpt lat="47.88979" lon="6.88856">
        <ele>674.3</ele>
        <time>2022-08-29T06:13:23Z</time>
      </trkpt>
      <trkpt lat="47.88979" lon="6.88858">
        <ele>674.5</ele>
        <time>2022-08-29T06:13:24Z</time>
      </trkpt>
      <trkpt lat="47.8898" lon="6.88859">
        <ele>674.4</ele>
        <time>2022-08-29T06:13:25Z</time>
      </trkpt>
      <trkpt lat="47.8898" lon="6.8886">
        <ele>674.5</ele>
        <time>2022-08-29T06:13:26Z</time>
      </trkpt>
      <trkpt lat="47.88981" lon="6.88862">
        <ele>674.6</ele>
        <time>2022-08-29T06:13:27Z</time>
      </trkpt>
      <trkpt lat="47.88981" lon="6.88863">
        <ele>674.7</ele>
        <time>2022-08-29T06:13:28Z</time>
      </trkpt>
      <trkpt lat="47.88982" lon="6.88864">
        <ele>674.7</ele>
        <time>2022-08-29T06:13:29Z</time>
      </trkpt>
      <trkpt lat="47.88982" lon="6.88865">
        <ele>674.9</ele>
        <time>2022-08-29T06:13:30Z</time>
      </trkpt>
      <trkpt lat="47.88983" lon="6.88867">
        <ele>675</ele>
        <time>2022-08-29T06:13:31Z</time>
      </trkpt>
      <trkpt lat="47.88983" lon="6.88868">
        <ele>675.2</ele>
        <time>2022-08-29T06:13:32Z</time>
      </trkpt>
      <trkpt lat="47.88984" lon="6.88869">
        <ele>675.1</ele>
        <time>2022-08-29T06:13:33Z</time>
      </trkpt>
      <trkpt lat="47.88984" lon="6.88871">
        <ele>675.4</ele>
        <time>2022-08-29T06:13:34Z</time>
      </trkpt>
      <trkpt lat="47.88985" lon="6.88872">
        <ele>675.3</ele>
        <time>2022-08-29T06:13:35Z</time>
      </trkpt>
      <trkpt lat="47.88985" lon="6.88874">
        <ele>675.6</ele>
        <time>2022-08-29T06:13:36Z</time>
      </trkpt>
      <trkpt lat="47.88985" lon="6.88875">
        <ele>675.8</ele>
        <time>2022-08-29T06:13:37Z</time>
      </trkpt>
      <trkpt lat="47.88986" lon="6.88877">
        <ele>675.8</ele>
        <time>2022-08-29T06:13:38Z</time>
      </trkpt>
      <trkpt lat="47.88986" lon="6.88878">
        <ele>676</ele>
        <time>2022-08-29T06:13:39Z</time>
      </trkpt>
      <trkpt lat="47.88986" lon="6.8888">
        <ele>676.3</ele>
        <time>2022-08-29T06:13:40Z</time>
      </trkpt>
      <trkpt lat="47.88987" lon="6.88881">
        <ele>676.1</ele>
        <time>2022-08-29T06:13:41Z</time>
      </trkpt>
      <trkpt lat="47.88988" lon="6.88883">
        <ele>676.1</ele>
        <time>2022-08-29T06:13:42Z</time>
      </trkpt>
      <trkpt lat="47.88988" lon="6.88884">
        <ele>676.2</ele>
        <time>2022-08-29T06:13:43Z</time>
      </trkpt>
      <trkpt lat="47.88989" lon="6.88886">
        <ele>676.2</ele>
        <time>2022-08-29T06:13:44Z</time>
      </trkpt>
      <trkpt lat="47.88989" lon="6.88887">
        <ele>676.3</ele>
        <time>2022-08-29T06:13:45Z</time>
      </trkpt>
      <trkpt lat="47.8899" lon="6.88889">
        <ele>676.3</ele>
        <time>2022-08-29T06:13:46Z</time>
      </trkpt>
      <trkpt lat="47.8899" lon="6.88891">
        <ele>676.5</ele>
        <time>2022-08-29T06:13:47Z</time>
      </trkpt>
      <trkpt lat="47.88991" lon="6.88892">
        <ele>676.3</ele>
        <time>2022-08-29T06:13:48Z</time>
      </trkpt>
      <trkpt lat="47.88991" lon="6.88894">
        <ele>676.6</ele>
        <time>2022-08-29T06:13:49Z</time>
      </trkpt>
      <trkpt lat="47.88992" lon="6.88895">
        <ele>676.4</ele>
        <time>2022-08-29T06:13:50Z</time>
      </trkpt>
      <trkpt lat="47.88992" lon="6.88896">
        <ele>676.5</ele>
        <time>2022-08-29T06:13:51Z</time>
      </trkpt>
      <trkpt lat="47.88992" lon="6.88898">
        <ele>676.8</ele>
        <time>2022-08-29T06:13:52Z</time>
      </trkpt>
      <trkpt lat="47.88993" lon="6.889">
        <ele>676.8</ele>
        <time>2022-08-29T06:13:53Z</time>
      </trkpt>
      <trkpt lat="47.88993" lon="6.88901">
        <ele>676.9</ele>
        <time>2022-08-29T06:13:54Z</time>
      </trkpt>
      <trkpt lat="47.88993" lon="6.88903">
        <ele>677.2</ele>
        <time>2022-08-29T06:13:55Z</time>
      </trkpt>
      <trkpt lat="47.88993" lon="6.88904">
        <ele>677.3</ele>
        <time>2022-08-29T06:13:56Z</time>
      </trkpt>
      <trkpt lat="47.88994" lon="6.88906">
        <ele>677.3</ele>
        <time>2022-08-29T06:13:57Z</time>
      </trkpt>
      <trkpt lat="47.88994" lon="6.88907">
        <ele>677.4</ele>
        <time>2022-08-29T06:13:58Z</time>
      </trkpt>
      <trkpt lat="47.88994" lon="6.88909">
        <ele>677.7</ele>
        <time>2022-08-29T06:13:59Z</time>
      </trkpt>
      <trkpt lat="47.88995" lon="6.88911">
        <ele>677.7</ele>
        <time>2022-08-29T06:14:00Z</time>
      </trkpt>
      <trkpt lat="47.88995" lon="6.88912">
        <ele>677.8</ele>
        <time>2022-08-29T06:14:01Z</time>
      </trkpt>
      <trkpt lat="47.88995" lon="6.88914">
        <ele>678.1</ele>
        <time>2022-08-29T06:14:02Z</time>
      </trkpt>
      <trkpt lat="47.88995" lon="6.88915">
        <ele>678.2</ele>
        <time>2022-08-29T06:14:03Z</time>
      </trkpt>
      <trkpt lat="47.88995" lon="6.88917">
        <ele>678.4</ele>
        <time>2022-08-29T06:14:04Z</time>
      </trkpt>
      <trkpt lat="47.88996" lon="6.88919">
        <ele>678.2</ele>
        <time>2022-08-29T06:14:05Z</time>
      </trkpt>
      <trkpt lat="47.88996" lon="6.8892">
        <ele>678.2</ele>
        <time>2022-08-29T06:14:06Z</time>
      </trkpt>
      <trkpt lat="47.88996" lon="6.88922">
        <ele>678.3</ele>
        <time>2022-08-29T06:14:07Z</time>
      </trkpt>
      <trkpt lat="47.88996" lon="6.88924">
        <ele>678.3</ele>
        <time>2022-08-29T06:14:08Z</time>
      </trkpt>
      <trkpt lat="47.88996" lon="6.88925">
        <ele>678.4</ele>
        <time>2022-08-29T06:14:09Z</time>
      </trkpt>
      <trkpt lat="47.88996" lon="6.88927">
        <ele>678.4</ele>
        <time>2022-08-29T06:14:10Z</time>
      </trkpt>
      <trkpt lat="47.88995" lon="6.88928">
        <ele>678.7</ele>
        <time>2022-08-29T06:14:11Z</time>
      </trkpt>
      <trkpt lat="47.88995" lon="6.8893">
        <ele>678.7</ele>
        <time>2022-08-29T06:14:12Z</time>
      </trkpt>
      <trkpt lat="47.88995" lon="6.88931">
        <ele>678.8</ele>
        <time>2022-08-29T06:14:13Z</time>
      </trkpt>
      <trkpt lat="47.88995" lon="6.88933">
        <ele>678.8</ele>
        <time>2022-08-29T06:14:14Z</time>
      </trkpt>
      <trkpt lat="47.88995" lon="6.88935">
        <ele>678.9</ele>
        <time>2022-08-29T06:14:15Z</time>
      </trkpt>
      <trkpt lat="47.88995" lon="6.88936">
        <ele>678.9</ele>
        <time>2022-08-29T06:14:16Z</time>
      </trkpt>
      <trkpt lat="47.88995" lon="6.88938">
        <ele>678.9</ele>
        <time>2022-08-29T06:14:17Z</time>
      </trkpt>
      <trkpt lat="47.88995" lon="6.8894">
        <ele>679</ele>
        <time>2022-08-29T06:14:18Z</time>
      </trkpt>
      <trkpt lat="47.88995" lon="6.88941">
        <ele>679</ele>
        <time>2022-08-29T06:14:19Z</time>
      </trkpt>
      <trkpt lat="47.88995" lon="6.88943">
        <ele>679</ele>
        <time>2022-08-29T06:14:20Z</time>
      </trkpt>
      <trkpt lat="47.88995" lon="6.88944">
        <ele>679.1</ele>
        <time>2022-08-29T06:14:21Z</time>
      </trkpt>
      <trkpt lat="47.88995" lon="6.88946">
        <ele>679.2</ele>
        <time>2022-08-29T06:14:22Z</time>
      </trkpt>
      <trkpt lat="47.88994" lon="6.88948">
        <ele>679.4</ele>
        <time>2022-08-29T06:14:23Z</time>
      </trkpt>
      <trkpt lat="47.88994" lon="6.88949">
        <ele>679.5</ele>
        <time>2022-08-29T06:14:24Z</time>
      </trkpt>
      <trkpt lat="47.88994" lon="6.88951">
        <ele>679.6</ele>
        <time>2022-08-29T06:14:25Z</time>
      </trkpt>
      <trkpt lat="47.88993" lon="6.88952">
        <ele>679.8</ele>
        <time>2022-08-29T06:14:26Z</time>
      </trkpt>
      <trkpt lat="47.88993" lon="6.88954">
        <ele>679.9</ele>
        <time>2022-08-29T06:14:27Z</time>
      </trkpt>
      <trkpt lat="47.88992" lon="6.88955">
        <ele>680.1</ele>
        <time>2022-08-29T06:14:28Z</time>
      </trkpt>
      <trkpt lat="47.88992" lon="6.88956">
        <ele>680.1</ele>
        <time>2022-08-29T06:14:29Z</time>
      </trkpt>
      <trkpt lat="47.88992" lon="6.88957">
        <ele>680.1</ele>
        <time>2022-08-29T06:14:30Z</time>
      </trkpt>
      <trkpt lat="47.88991" lon="6.88959">
        <ele>680.3</ele>
        <time>2022-08-29T06:14:31Z</time>
      </trkpt>
      <trkpt lat="47.88991" lon="6.8896">
        <ele>680.3</ele>
        <time>2022-08-29T06:14:32Z</time>
      </trkpt>
      <trkpt lat="47.8899" lon="6.88962">
        <ele>680.5</ele>
        <time>2022-08-29T06:14:33Z</time>
      </trkpt>
      <trkpt lat="47.8899" lon="6.88964">
        <ele>680.6</ele>
        <time>2022-08-29T06:14:34Z</time>
      </trkpt>
      <trkpt lat="47.8899" lon="6.88966">
        <ele>680.6</ele>
        <time>2022-08-29T06:14:35Z</time>
      </trkpt>
      <trkpt lat="47.88989" lon="6.88967">
        <ele>680.7</ele>
        <time>2022-08-29T06:14:36Z</time>
      </trkpt>
      <trkpt lat="47.88989" lon="6.88969">
        <ele>680.7</ele>
        <time>2022-08-29T06:14:37Z</time>
      </trkpt>
      <trkpt lat="47.88988" lon="6.88971">
        <ele>680.9</ele>
        <time>2022-08-29T06:14:38Z</time>
      </trkpt>
      <trkpt lat="47.88988" lon="6.88972">
        <ele>680.9</ele>
        <time>2022-08-29T06:14:39Z</time>
      </trkpt>
      <trkpt lat="47.88987" lon="6.88974">
        <ele>680.9</ele>
        <time>2022-08-29T06:14:40Z</time>
      </trkpt>
      <trkpt lat="47.88987" lon="6.88975">
        <ele>680.9</ele>
        <time>2022-08-29T06:14:41Z</time>
      </trkpt>
      <trkpt lat="47.88986" lon="6.88976">
        <ele>681</ele>
        <time>2022-08-29T06:14:42Z</time>
      </trkpt>
      <trkpt lat="47.88986" lon="6.88978">
        <ele>681</ele>
        <time>2022-08-29T06:14:43Z</time>
      </trkpt>
      <trkpt lat="47.88986" lon="6.88979">
        <ele>681</ele>
        <time>2022-08-29T06:14:44Z</time>
      </trkpt>
      <trkpt lat="47.88985" lon="6.8898">
        <ele>681.1</ele>
        <time>2022-08-29T06:14:45Z</time>
      </trkpt>
      <trkpt lat="47.88985" lon="6.88982">
        <ele>681.1</ele>
        <time>2022-08-29T06:14:46Z</time>
      </trkpt>
      <trkpt lat="47.88985" lon="6.88983">
        <ele>681.1</ele>
        <time>2022-08-29T06:14:47Z</time>
      </trkpt>
      <trkpt lat="47.88985" lon="6.88984">
        <ele>681.1</ele>
        <time>2022-08-29T06:14:48Z</time>
      </trkpt>
      <trkpt lat="47.88984" lon="6.88986">
        <ele>681.2</ele>
        <time>2022-08-29T06:14:49Z</time>
      </trkpt>
      <trkpt lat="47.88984" lon="6.88988">
        <ele>681.2</ele>
        <time>2022-08-29T06:14:50Z</time>
      </trkpt>
      <trkpt lat="47.88984" lon="6.88989">
        <ele>681.2</ele>
        <time>2022-08-29T06:14:51Z</time>
      </trkpt>
      <trkpt lat="47.88984" lon="6.88991">
        <ele>681.2</ele>
        <time>2022-08-29T06:14:52Z</time>
      </trkpt>
      <trkpt lat="47.88983" lon="6.88993">
        <ele>681.2</ele>
        <time>2022-08-29T06:14:53Z</time>
      </trkpt>
      <trkpt lat="47.88983" lon="6.88994">
        <ele>681.2</ele>
        <time>2022-08-29T06:14:54Z</time>
      </trkpt>
      <trkpt lat="47.88983" lon="6.88996">
        <ele>681.2</ele>
        <time>2022-08-29T06:14:55Z</time>
      </trkpt>
      <trkpt lat="47.88983" lon="6.88998">
        <ele>681.2</ele>
        <time>2022-08-29T06:14:56Z</time>
      </trkpt>
      <trkpt lat="47.88983" lon="6.88999">
        <ele>681.2</ele>
        <time>2022-08-29T06:14:57Z</time>
      </trkpt>
      <trkpt lat="47.88983" lon="6.89001">
        <ele>681.3</ele>
        <time>2022-08-29T06:14:58Z</time>
      </trkpt>
      <trkpt lat="47.88983" lon="6.89002">
        <ele>681.3</ele>
        <time>2022-08-29T06:14:59Z</time>
      </trkpt>
      <trkpt lat="47.88983" lon="6.89004">
        <ele>681.4</ele>
        <time>2022-08-29T06:15:00Z</time>
      </trkpt>
      <trkpt lat="47.88983" lon="6.89005">
        <ele>681.4</ele>
        <time>2022-08-29T06:15:01Z</time>
      </trkpt>
      <trkpt lat="47.88983" lon="6.89007">
        <ele>681.5</ele>
        <time>2022-08-29T06:15:02Z</time>
      </trkpt>
      <trkpt lat="47.88982" lon="6.89008">
        <ele>681.6</ele>
        <time>2022-08-29T06:15:03Z</time>
      </trkpt>
      <trkpt lat="47.88982" lon="6.8901">
        <ele>681.7</ele>
        <time>2022-08-29T06:15:04Z</time>
      </trkpt>
      <trkpt lat="47.88982" lon="6.89012">
        <ele>681.7</ele>
        <time>2022-08-29T06:15:05Z</time>
      </trkpt>
      <trkpt lat="47.88981" lon="6.89013">
        <ele>681.8</ele>
        <time>2022-08-29T06:15:06Z</time>
      </trkpt>
      <trkpt lat="47.88981" lon="6.89015">
        <ele>681.9</ele>
        <time>2022-08-29T06:15:07Z</time>
      </trkpt>
      <trkpt lat="47.88981" lon="6.89016">
        <ele>681.9</ele>
        <time>2022-08-29T06:15:08Z</time>
      </trkpt>
      <trkpt lat="47.88981" lon="6.89018">
        <ele>682</ele>
        <time>2022-08-29T06:15:09Z</time>
      </trkpt>
      <trkpt lat="47.88981" lon="6.89019">
        <ele>682.1</ele>
        <time>2022-08-29T06:15:10Z</time>
      </trkpt>
      <trkpt lat="47.88981" lon="6.89021">
        <ele>682.1</ele>
        <time>2022-08-29T06:15:11Z</time>
      </trkpt>
      <trkpt lat="47.88981" lon="6.89023">
        <ele>682.2</ele>
        <time>2022-08-29T06:15:12Z</time>
      </trkpt>
      <trkpt lat="47.88981" lon="6.89024">
        <ele>682.2</ele>
        <time>2022-08-29T06:15:13Z</time>
      </trkpt>
      <trkpt lat="47.88981" lon="6.89026">
        <ele>682.3</ele>
        <time>2022-08-29T06:15:14Z</time>
      </trkpt>
      <trkpt lat="47.88982" lon="6.89027">
        <ele>682.3</ele>
        <time>2022-08-29T06:15:15Z</time>
      </trkpt>
      <trkpt lat="47.88982" lon="6.89029">
        <ele>682.3</ele>
        <time>2022-08-29T06:15:16Z</time>
      </trkpt>
      <trkpt lat="47.88982" lon="6.8903">
        <ele>682.4</ele>
        <time>2022-08-29T06:15:17Z</time>
      </trkpt>
      <trkpt lat="47.88982" lon="6.89032">
        <ele>682.4</ele>
        <time>2022-08-29T06:15:18Z</time>
      </trkpt>
      <trkpt lat="47.88982" lon="6.89033">
        <ele>682.5</ele>
        <time>2022-08-29T06:15:19Z</time>
      </trkpt>
      <trkpt lat="47.88982" lon="6.89035">
        <ele>682.6</ele>
        <time>2022-08-29T06:15:20Z</time>
      </trkpt>
      <trkpt lat="47.88982" lon="6.89037">
        <ele>682.6</ele>
        <time>2022-08-29T06:15:21Z</time>
      </trkpt>
      <trkpt lat="47.88982" lon="6.89038">
        <ele>682.7</ele>
        <time>2022-08-29T06:15:22Z</time>
      </trkpt>
      <trkpt lat="47.88982" lon="6.8904">
        <ele>682.7</ele>
        <time>2022-08-29T06:15:23Z</time>
      </trkpt>
      <trkpt lat="47.88982" lon="6.89041">
        <ele>682.8</ele>
        <time>2022-08-29T06:15:24Z</time>
      </trkpt>
      <trkpt lat="47.88982" lon="6.89043">
        <ele>682.8</ele>
        <time>2022-08-29T06:15:25Z</time>
      </trkpt>
      <trkpt lat="47.88981" lon="6.89044">
        <ele>683</ele>
        <time>2022-08-29T06:15:26Z</time>
      </trkpt>
      <trkpt lat="47.88981" lon="6.89046">
        <ele>683</ele>
        <time>2022-08-29T06:15:27Z</time>
      </trkpt>
      <trkpt lat="47.88981" lon="6.89048">
        <ele>683.1</ele>
        <time>2022-08-29T06:15:28Z</time>
      </trkpt>
      <trkpt lat="47.88981" lon="6.89049">
        <ele>683.1</ele>
        <time>2022-08-29T06:15:29Z</time>
      </trkpt>
      <trkpt lat="47.88981" lon="6.89051">
        <ele>683.2</ele>
        <time>2022-08-29T06:15:30Z</time>
      </trkpt>
      <trkpt lat="47.88981" lon="6.89052">
        <ele>683.2</ele>
        <time>2022-08-29T06:15:31Z</time>
      </trkpt>
      <trkpt lat="47.88981" lon="6.89054">
        <ele>683.3</ele>
        <time>2022-08-29T06:15:32Z</time>
      </trkpt>
      <trkpt lat="47.88981" lon="6.89056">
        <ele>683.4</ele>
        <time>2022-08-29T06:15:33Z</time>
      </trkpt>
      <trkpt lat="47.88981" lon="6.89057">
        <ele>683.4</ele>
        <time>2022-08-29T06:15:34Z</time>
      </trkpt>
      <trkpt lat="47.88981" lon="6.89059">
        <ele>683.5</ele>
        <time>2022-08-29T06:15:35Z</time>
      </trkpt>
      <trkpt lat="47.88981" lon="6.8906">
        <ele>683.6</ele>
        <time>2022-08-29T06:15:36Z</time>
      </trkpt>
      <trkpt lat="47.8898" lon="6.89062">
        <ele>683.7</ele>
        <time>2022-08-29T06:15:37Z</time>
      </trkpt>
      <trkpt lat="47.8898" lon="6.89063">
        <ele>683.8</ele>
        <time>2022-08-29T06:15:38Z</time>
      </trkpt>
      <trkpt lat="47.8898" lon="6.89065">
        <ele>683.9</ele>
        <time>2022-08-29T06:15:39Z</time>
      </trkpt>
      <trkpt lat="47.8898" lon="6.89066">
        <ele>683.9</ele>
        <time>2022-08-29T06:15:40Z</time>
      </trkpt>
      <trkpt lat="47.8898" lon="6.89067">
        <ele>684</ele>
        <time>2022-08-29T06:15:41Z</time>
      </trkpt>
      <trkpt lat="47.8898" lon="6.89069">
        <ele>684.1</ele>
        <time>2022-08-29T06:15:42Z</time>
      </trkpt>
      <trkpt lat="47.8898" lon="6.89071">
        <ele>684.2</ele>
        <time>2022-08-29T06:15:43Z</time>
      </trkpt>
      <trkpt lat="47.8898" lon="6.89072">
        <ele>684.2</ele>
        <time>2022-08-29T06:15:44Z</time>
      </trkpt>
      <trkpt lat="47.8898" lon="6.89074">
        <ele>684.3</ele>
        <time>2022-08-29T06:15:45Z</time>
      </trkpt>
      <trkpt lat="47.8898" lon="6.89076">
        <ele>684.4</ele>
        <time>2022-08-29T06:15:46Z</time>
      </trkpt>
      <trkpt lat="47.8898" lon="6.89077">
        <ele>684.4</ele>
        <time>2022-08-29T06:15:47Z</time>
      </trkpt>
      <trkpt lat="47.88979" lon="6.89079">
        <ele>684.6</ele>
        <time>2022-08-29T06:15:48Z</time>
      </trkpt>
      <trkpt lat="47.88979" lon="6.89081">
        <ele>684.7</ele>
        <time>2022-08-29T06:15:49Z</time>
      </trkpt>
      <trkpt lat="47.88979" lon="6.89082">
        <ele>684.7</ele>
        <time>2022-08-29T06:15:50Z</time>
      </trkpt>
      <trkpt lat="47.88979" lon="6.89084">
        <ele>684.8</ele>
        <time>2022-08-29T06:15:51Z</time>
      </trkpt>
      <trkpt lat="47.8898" lon="6.89086">
        <ele>684.8</ele>
        <time>2022-08-29T06:15:52Z</time>
      </trkpt>
      <trkpt lat="47.8898" lon="6.89087">
        <ele>684.8</ele>
        <time>2022-08-29T06:15:53Z</time>
      </trkpt>
      <trkpt lat="47.8898" lon="6.89089">
        <ele>684.9</ele>
        <time>2022-08-29T06:15:54Z</time>
      </trkpt>
      <trkpt lat="47.8898" lon="6.8909">
        <ele>684.9</ele>
        <time>2022-08-29T06:15:55Z</time>
      </trkpt>
      <trkpt lat="47.8898" lon="6.89092">
        <ele>684.9</ele>
        <time>2022-08-29T06:15:56Z</time>
      </trkpt>
      <trkpt lat="47.8898" lon="6.89093">
        <ele>685</ele>
        <time>2022-08-29T06:15:57Z</time>
      </trkpt>
      <trkpt lat="47.8898" lon="6.89095">
        <ele>685</ele>
        <time>2022-08-29T06:15:58Z</time>
      </trkpt>
      <trkpt lat="47.8898" lon="6.89097">
        <ele>685.1</ele>
        <time>2022-08-29T06:15:59Z</time>
      </trkpt>
      <trkpt lat="47.88979" lon="6.89098">
        <ele>685.2</ele>
        <time>2022-08-29T06:16:00Z</time>
      </trkpt>
      <trkpt lat="47.88979" lon="6.891">
        <ele>685.2</ele>
        <time>2022-08-29T06:16:01Z</time>
      </trkpt>
      <trkpt lat="47.88979" lon="6.89101">
        <ele>685.2</ele>
        <time>2022-08-29T06:16:02Z</time>
      </trkpt>
      <trkpt lat="47.88979" lon="6.89103">
        <ele>685.3</ele>
        <time>2022-08-29T06:16:03Z</time>
      </trkpt>
      <trkpt lat="47.88979" lon="6.89105">
        <ele>685.3</ele>
        <time>2022-08-29T06:16:04Z</time>
      </trkpt>
      <trkpt lat="47.88979" lon="6.89106">
        <ele>685.4</ele>
        <time>2022-08-29T06:16:05Z</time>
      </trkpt>
      <trkpt lat="47.88979" lon="6.89108">
        <ele>685.4</ele>
        <time>2022-08-29T06:16:06Z</time>
      </trkpt>
      <trkpt lat="47.88979" lon="6.89109">
        <ele>685.5</ele>
        <time>2022-08-29T06:16:07Z</time>
      </trkpt>
      <trkpt lat="47.88979" lon="6.89111">
        <ele>685.5</ele>
        <time>2022-08-29T06:16:08Z</time>
      </trkpt>
      <trkpt lat="47.88979" lon="6.89112">
        <ele>685.5</ele>
        <time>2022-08-29T06:16:09Z</time>
      </trkpt>
      <trkpt lat="47.88979" lon="6.89114">
        <ele>685.6</ele>
        <time>2022-08-29T06:16:10Z</time>
      </trkpt>
      <trkpt lat="47.88979" lon="6.89115">
        <ele>685.6</ele>
        <time>2022-08-29T06:16:11Z</time>
      </trkpt>
      <trkpt lat="47.88979" lon="6.89117">
        <ele>685.7</ele>
        <time>2022-08-29T06:16:12Z</time>
      </trkpt>
      <trkpt lat="47.88979" lon="6.89118">
        <ele>685.7</ele>
        <time>2022-08-29T06:16:13Z</time>
      </trkpt>
      <trkpt lat="47.88979" lon="6.8912">
        <ele>685.8</ele>
        <time>2022-08-29T06:16:14Z</time>
      </trkpt>
      <trkpt lat="47.88979" lon="6.89121">
        <ele>685.8</ele>
        <time>2022-08-29T06:16:15Z</time>
      </trkpt>
      <trkpt lat="47.88979" lon="6.89123">
        <ele>685.8</ele>
        <time>2022-08-29T06:16:16Z</time>
      </trkpt>
      <trkpt lat="47.88979" lon="6.89124">
        <ele>685.9</ele>
        <time>2022-08-29T06:16:17Z</time>
      </trkpt>
      <trkpt lat="47.88979" lon="6.89125">
        <ele>685.9</ele>
        <time>2022-08-29T06:16:18Z</time>
      </trkpt>
      <trkpt lat="47.88979" lon="6.89127">
        <ele>685.9</ele>
        <time>2022-08-29T06:16:19Z</time>
      </trkpt>
      <trkpt lat="47.88979" lon="6.89129">
        <ele>686</ele>
        <time>2022-08-29T06:16:20Z</time>
      </trkpt>
      <trkpt lat="47.88979" lon="6.8913">
        <ele>686</ele>
        <time>2022-08-29T06:16:21Z</time>
      </trkpt>
      <trkpt lat="47.88978" lon="6.89132">
        <ele>686.2</ele>
        <time>2022-08-29T06:16:22Z</time>
      </trkpt>
      <trkpt lat="47.88978" lon="6.89133">
        <ele>686.2</ele>
        <time>2022-08-29T06:16:23Z</time>
      </trkpt>
      <trkpt lat="47.88978" lon="6.89135">
        <ele>686.3</ele>
        <time>2022-08-29T06:16:24Z</time>
      </trkpt>
      <trkpt lat="47.88978" lon="6.89136">
        <ele>686.3</ele>
        <time>2022-08-29T06:16:25Z</time>
      </trkpt>
      <trkpt lat="47.88978" lon="6.89138">
        <ele>686.4</ele>
        <time>2022-08-29T06:16:26Z</time>
      </trkpt>
      <trkpt lat="47.88977" lon="6.8914">
        <ele>686.6</ele>
        <time>2022-08-29T06:16:27Z</time>
      </trkpt>
      <trkpt lat="47.88977" lon="6.89141">
        <ele>686.6</ele>
        <time>2022-08-29T06:16:28Z</time>
      </trkpt>
      <trkpt lat="47.88977" lon="6.89143">
        <ele>686.7</ele>
        <time>2022-08-29T06:16:29Z</time>
      </trkpt>
      <trkpt lat="47.88977" lon="6.89144">
        <ele>686.8</ele>
        <time>2022-08-29T06:16:30Z</time>
      </trkpt>
      <trkpt lat="47.88977" lon="6.89146">
        <ele>686.9</ele>
        <time>2022-08-29T06:16:31Z</time>
      </trkpt>
      <trkpt lat="47.88977" lon="6.89147">
        <ele>687</ele>
        <time>2022-08-29T06:16:32Z</time>
      </trkpt>
      <trkpt lat="47.88977" lon="6.89149">
        <ele>687.1</ele>
        <time>2022-08-29T06:16:33Z</time>
      </trkpt>
      <trkpt lat="47.88977" lon="6.8915">
        <ele>687.1</ele>
        <time>2022-08-29T06:16:34Z</time>
      </trkpt>
      <trkpt lat="47.88977" lon="6.89152">
        <ele>687.3</ele>
        <time>2022-08-29T06:16:35Z</time>
      </trkpt>
      <trkpt lat="47.88977" lon="6.89153">
        <ele>687.3</ele>
        <time>2022-08-29T06:16:36Z</time>
      </trkpt>
      <trkpt lat="47.88976" lon="6.89155">
        <ele>687.6</ele>
        <time>2022-08-29T06:16:37Z</time>
      </trkpt>
      <trkpt lat="47.88976" lon="6.89156">
        <ele>687.7</ele>
        <time>2022-08-29T06:16:38Z</time>
      </trkpt>
      <trkpt lat="47.88976" lon="6.89157">
        <ele>687.7</ele>
        <time>2022-08-29T06:16:39Z</time>
      </trkpt>
      <trkpt lat="47.88976" lon="6.89158">
        <ele>687.8</ele>
        <time>2022-08-29T06:16:40Z</time>
      </trkpt>
      <trkpt lat="47.88975" lon="6.8916">
        <ele>688.1</ele>
        <time>2022-08-29T06:16:41Z</time>
      </trkpt>
      <trkpt lat="47.88975" lon="6.89161">
        <ele>688.1</ele>
        <time>2022-08-29T06:16:42Z</time>
      </trkpt>
      <trkpt lat="47.88975" lon="6.89162">
        <ele>688.2</ele>
        <time>2022-08-29T06:16:43Z</time>
      </trkpt>
      <trkpt lat="47.88975" lon="6.89164">
        <ele>688.3</ele>
        <time>2022-08-29T06:16:44Z</time>
      </trkpt>
      <trkpt lat="47.88975" lon="6.89165">
        <ele>688.4</ele>
        <time>2022-08-29T06:16:45Z</time>
      </trkpt>
      <trkpt lat="47.88974" lon="6.89167">
        <ele>688.7</ele>
        <time>2022-08-29T06:16:46Z</time>
      </trkpt>
      <trkpt lat="47.88974" lon="6.89169">
        <ele>688.8</ele>
        <time>2022-08-29T06:16:47Z</time>
      </trkpt>
      <trkpt lat="47.88974" lon="6.89171">
        <ele>688.8</ele>
        <time>2022-08-29T06:16:48Z</time>
      </trkpt>
      <trkpt lat="47.88974" lon="6.89172">
        <ele>688.9</ele>
        <time>2022-08-29T06:16:49Z</time>
      </trkpt>
      <trkpt lat="47.88974" lon="6.89174">
        <ele>688.9</ele>
        <time>2022-08-29T06:16:50Z</time>
      </trkpt>
      <trkpt lat="47.88974" lon="6.89176">
        <ele>689</ele>
        <time>2022-08-29T06:16:51Z</time>
      </trkpt>
      <trkpt lat="47.88974" lon="6.89177">
        <ele>689.1</ele>
        <time>2022-08-29T06:16:52Z</time>
      </trkpt>
      <trkpt lat="47.88974" lon="6.89179">
        <ele>689.1</ele>
        <time>2022-08-29T06:16:53Z</time>
      </trkpt>
      <trkpt lat="47.88974" lon="6.8918">
        <ele>689.2</ele>
        <time>2022-08-29T06:16:54Z</time>
      </trkpt>
      <trkpt lat="47.88974" lon="6.89182">
        <ele>689.2</ele>
        <time>2022-08-29T06:16:55Z</time>
      </trkpt>
      <trkpt lat="47.88974" lon="6.89183">
        <ele>689.3</ele>
        <time>2022-08-29T06:16:56Z</time>
      </trkpt>
      <trkpt lat="47.88974" lon="6.89185">
        <ele>689.3</ele>
        <time>2022-08-29T06:16:57Z</time>
      </trkpt>
      <trkpt lat="47.88974" lon="6.89186">
        <ele>689.4</ele>
        <time>2022-08-29T06:16:58Z</time>
      </trkpt>
      <trkpt lat="47.88974" lon="6.89188">
        <ele>689.4</ele>
        <time>2022-08-29T06:16:59Z</time>
      </trkpt>
      <trkpt lat="47.88974" lon="6.89189">
        <ele>689.5</ele>
        <time>2022-08-29T06:17:00Z</time>
      </trkpt>
      <trkpt lat="47.88974" lon="6.8919">
        <ele>689.5</ele>
        <time>2022-08-29T06:17:01Z</time>
      </trkpt>
      <trkpt lat="47.88974" lon="6.89192">
        <ele>689.6</ele>
        <time>2022-08-29T06:17:02Z</time>
      </trkpt>
      <trkpt lat="47.88973" lon="6.89193">
        <ele>689.8</ele>
        <time>2022-08-29T06:17:03Z</time>
      </trkpt>
      <trkpt lat="47.88973" lon="6.89195">
        <ele>689.9</ele>
        <time>2022-08-29T06:17:04Z</time>
      </trkpt>
      <trkpt lat="47.88973" lon="6.89196">
        <ele>689.9</ele>
        <time>2022-08-29T06:17:05Z</time>
      </trkpt>
      <trkpt lat="47.88973" lon="6.89198">
        <ele>690</ele>
        <time>2022-08-29T06:17:06Z</time>
      </trkpt>
      <trkpt lat="47.88972" lon="6.89199">
        <ele>690.2</ele>
        <time>2022-08-29T06:17:07Z</time>
      </trkpt>
      <trkpt lat="47.88973" lon="6.89201">
        <ele>690.1</ele>
        <time>2022-08-29T06:17:08Z</time>
      </trkpt>
      <trkpt lat="47.88973" lon="6.89202">
        <ele>690.1</ele>
        <time>2022-08-29T06:17:09Z</time>
      </trkpt>
      <trkpt lat="47.88973" lon="6.89204">
        <ele>690.2</ele>
        <time>2022-08-29T06:17:10Z</time>
      </trkpt>
      <trkpt lat="47.88973" lon="6.89205">
        <ele>690.3</ele>
        <time>2022-08-29T06:17:11Z</time>
      </trkpt>
      <trkpt lat="47.88973" lon="6.89207">
        <ele>690.3</ele>
        <time>2022-08-29T06:17:12Z</time>
      </trkpt>
      <trkpt lat="47.88973" lon="6.89208">
        <ele>690.4</ele>
        <time>2022-08-29T06:17:13Z</time>
      </trkpt>
      <trkpt lat="47.88973" lon="6.8921">
        <ele>690.4</ele>
        <time>2022-08-29T06:17:14Z</time>
      </trkpt>
      <trkpt lat="47.88973" lon="6.89212">
        <ele>690.5</ele>
        <time>2022-08-29T06:17:15Z</time>
      </trkpt>
      <trkpt lat="47.88972" lon="6.89213">
        <ele>690.7</ele>
        <time>2022-08-29T06:17:16Z</time>
      </trkpt>
      <trkpt lat="47.88972" lon="6.89215">
        <ele>690.7</ele>
        <time>2022-08-29T06:17:17Z</time>
      </trkpt>
      <trkpt lat="47.88971" lon="6.89216">
        <ele>690.8</ele>
        <time>2022-08-29T06:17:18Z</time>
      </trkpt>
      <trkpt lat="47.88971" lon="6.89217">
        <ele>690.9</ele>
        <time>2022-08-29T06:17:19Z</time>
      </trkpt>
      <trkpt lat="47.8897" lon="6.89219">
        <ele>691</ele>
        <time>2022-08-29T06:17:20Z</time>
      </trkpt>
      <trkpt lat="47.88969" lon="6.8922">
        <ele>691</ele>
        <time>2022-08-29T06:17:21Z</time>
      </trkpt>
      <trkpt lat="47.88968" lon="6.89222">
        <ele>691.1</ele>
        <time>2022-08-29T06:17:22Z</time>
      </trkpt>
      <trkpt lat="47.88968" lon="6.89223">
        <ele>691.2</ele>
        <time>2022-08-29T06:17:23Z</time>
      </trkpt>
      <trkpt lat="47.88967" lon="6.89224">
        <ele>691.3</ele>
        <time>2022-08-29T06:17:24Z</time>
      </trkpt>
      <trkpt lat="47.88967" lon="6.89226">
        <ele>691.4</ele>
        <time>2022-08-29T06:17:25Z</time>
      </trkpt>
      <trkpt lat="47.88966" lon="6.89227">
        <ele>691.5</ele>
        <time>2022-08-29T06:17:26Z</time>
      </trkpt>
      <trkpt lat="47.88966" lon="6.89228">
        <ele>691.6</ele>
        <time>2022-08-29T06:17:27Z</time>
      </trkpt>
      <trkpt lat="47.88965" lon="6.89229">
        <ele>691.7</ele>
        <time>2022-08-29T06:17:28Z</time>
      </trkpt>
      <trkpt lat="47.88965" lon="6.89231">
        <ele>691.8</ele>
        <time>2022-08-29T06:17:29Z</time>
      </trkpt>
      <trkpt lat="47.88965" lon="6.89232">
        <ele>691.9</ele>
        <time>2022-08-29T06:17:30Z</time>
      </trkpt>
      <trkpt lat="47.88964" lon="6.89233">
        <ele>692</ele>
        <time>2022-08-29T06:17:31Z</time>
      </trkpt>
      <trkpt lat="47.88964" lon="6.89235">
        <ele>692.2</ele>
        <time>2022-08-29T06:17:32Z</time>
      </trkpt>
      <trkpt lat="47.88964" lon="6.89236">
        <ele>692.2</ele>
        <time>2022-08-29T06:17:33Z</time>
      </trkpt>
      <trkpt lat="47.88964" lon="6.89238">
        <ele>692.4</ele>
        <time>2022-08-29T06:17:34Z</time>
      </trkpt>
      <trkpt lat="47.88964" lon="6.89239">
        <ele>692.4</ele>
        <time>2022-08-29T06:17:35Z</time>
      </trkpt>
      <trkpt lat="47.88964" lon="6.8924">
        <ele>692.5</ele>
        <time>2022-08-29T06:17:36Z</time>
      </trkpt>
      <trkpt lat="47.88964" lon="6.89242">
        <ele>692.6</ele>
        <time>2022-08-29T06:17:37Z</time>
      </trkpt>
      <trkpt lat="47.88964" lon="6.89243">
        <ele>692.7</ele>
        <time>2022-08-29T06:17:38Z</time>
      </trkpt>
      <trkpt lat="47.88964" lon="6.89245">
        <ele>692.8</ele>
        <time>2022-08-29T06:17:39Z</time>
      </trkpt>
      <trkpt lat="47.88964" lon="6.89246">
        <ele>692.9</ele>
        <time>2022-08-29T06:17:40Z</time>
      </trkpt>
      <trkpt lat="47.88964" lon="6.89248">
        <ele>693</ele>
        <time>2022-08-29T06:17:41Z</time>
      </trkpt>
      <trkpt lat="47.88963" lon="6.89249">
        <ele>693.3</ele>
        <time>2022-08-29T06:17:42Z</time>
      </trkpt>
      <trkpt lat="47.88963" lon="6.89251">
        <ele>693.4</ele>
        <time>2022-08-29T06:17:43Z</time>
      </trkpt>
      <trkpt lat="47.88963" lon="6.89252">
        <ele>693.5</ele>
        <time>2022-08-29T06:17:44Z</time>
      </trkpt>
      <trkpt lat="47.88963" lon="6.89253">
        <ele>693.6</ele>
        <time>2022-08-29T06:17:45Z</time>
      </trkpt>
      <trkpt lat="47.88963" lon="6.89255">
        <ele>693.8</ele>
        <time>2022-08-29T06:17:46Z</time>
      </trkpt>
      <trkpt lat="47.88962" lon="6.89256">
        <ele>694.1</ele>
        <time>2022-08-29T06:17:47Z</time>
      </trkpt>
      <trkpt lat="47.88962" lon="6.89257">
        <ele>694.2</ele>
        <time>2022-08-29T06:17:48Z</time>
      </trkpt>
      <trkpt lat="47.88962" lon="6.89258">
        <ele>694.3</ele>
        <time>2022-08-29T06:17:49Z</time>
      </trkpt>
      <trkpt lat="47.88962" lon="6.89259">
        <ele>694.4</ele>
        <time>2022-08-29T06:17:50Z</time>
      </trkpt>
      <trkpt lat="47.88962" lon="6.8926">
        <ele>694.5</ele>
        <time>2022-08-29T06:17:51Z</time>
      </trkpt>
      <trkpt lat="47.88962" lon="6.89261">
        <ele>694.6</ele>
        <time>2022-08-29T06:17:52Z</time>
      </trkpt>
      <trkpt lat="47.88962" lon="6.89262">
        <ele>694.7</ele>
        <time>2022-08-29T06:17:53Z</time>
      </trkpt>
      <trkpt lat="47.88962" lon="6.89263">
        <ele>694.8</ele>
        <time>2022-08-29T06:17:54Z</time>
      </trkpt>
      <trkpt lat="47.88962" lon="6.89265">
        <ele>694.9</ele>
        <time>2022-08-29T06:17:55Z</time>
      </trkpt>
      <trkpt lat="47.88962" lon="6.89266">
        <ele>695</ele>
        <time>2022-08-29T06:17:56Z</time>
      </trkpt>
      <trkpt lat="47.88962" lon="6.89267">
        <ele>695.1</ele>
        <time>2022-08-29T06:17:57Z</time>
      </trkpt>
      <trkpt lat="47.88962" lon="6.89269">
        <ele>695.3</ele>
        <time>2022-08-29T06:17:58Z</time>
      </trkpt>
      <trkpt lat="47.88962" lon="6.8927">
        <ele>695.4</ele>
        <time>2022-08-29T06:17:59Z</time>
      </trkpt>
      <trkpt lat="47.88962" lon="6.89271">
        <ele>695.5</ele>
        <time>2022-08-29T06:18:00Z</time>
      </trkpt>
      <trkpt lat="47.88962" lon="6.89273">
        <ele>695.7</ele>
        <time>2022-08-29T06:18:01Z</time>
      </trkpt>
      <trkpt lat="47.88962" lon="6.89274">
        <ele>695.8</ele>
        <time>2022-08-29T06:18:02Z</time>
      </trkpt>
      <trkpt lat="47.88962" lon="6.89275">
        <ele>695.9</ele>
        <time>2022-08-29T06:18:03Z</time>
      </trkpt>
      <trkpt lat="47.88962" lon="6.89277">
        <ele>696.1</ele>
        <time>2022-08-29T06:18:04Z</time>
      </trkpt>
      <trkpt lat="47.88962" lon="6.89278">
        <ele>696.2</ele>
        <time>2022-08-29T06:18:05Z</time>
      </trkpt>
      <trkpt lat="47.88962" lon="6.89279">
        <ele>696.4</ele>
        <time>2022-08-29T06:18:06Z</time>
      </trkpt>
      <trkpt lat="47.88962" lon="6.89281">
        <ele>696.6</ele>
        <time>2022-08-29T06:18:07Z</time>
      </trkpt>
      <trkpt lat="47.88962" lon="6.89282">
        <ele>696.7</ele>
        <time>2022-08-29T06:18:08Z</time>
      </trkpt>
      <trkpt lat="47.88962" lon="6.89284">
        <ele>697</ele>
        <time>2022-08-29T06:18:09Z</time>
      </trkpt>
      <trkpt lat="47.88962" lon="6.89285">
        <ele>697.1</ele>
        <time>2022-08-29T06:18:10Z</time>
      </trkpt>
      <trkpt lat="47.88962" lon="6.89286">
        <ele>697.2</ele>
        <time>2022-08-29T06:18:11Z</time>
      </trkpt>
      <trkpt lat="47.88962" lon="6.89288">
        <ele>697.4</ele>
        <time>2022-08-29T06:18:12Z</time>
      </trkpt>
      <trkpt lat="47.88962" lon="6.89289">
        <ele>697.6</ele>
        <time>2022-08-29T06:18:13Z</time>
      </trkpt>
      <trkpt lat="47.88962" lon="6.89291">
        <ele>697.8</ele>
        <time>2022-08-29T06:18:14Z</time>
      </trkpt>
      <trkpt lat="47.88962" lon="6.89292">
        <ele>697.9</ele>
        <time>2022-08-29T06:18:15Z</time>
      </trkpt>
      <trkpt lat="47.88962" lon="6.89293">
        <ele>698.1</ele>
        <time>2022-08-29T06:18:16Z</time>
      </trkpt>
      <trkpt lat="47.88963" lon="6.89295">
        <ele>698.1</ele>
        <time>2022-08-29T06:18:17Z</time>
      </trkpt>
      <trkpt lat="47.88963" lon="6.89296">
        <ele>698.2</ele>
        <time>2022-08-29T06:18:18Z</time>
      </trkpt>
      <trkpt lat="47.88963" lon="6.89298">
        <ele>698.4</ele>
        <time>2022-08-29T06:18:19Z</time>
      </trkpt>
      <trkpt lat="47.88964" lon="6.89299">
        <ele>698.3</ele>
        <time>2022-08-29T06:18:20Z</time>
      </trkpt>
      <trkpt lat="47.88964" lon="6.89301">
        <ele>698.5</ele>
        <time>2022-08-29T06:18:21Z</time>
      </trkpt>
      <trkpt lat="47.88964" lon="6.89302">
        <ele>698.7</ele>
        <time>2022-08-29T06:18:22Z</time>
      </trkpt>
      <trkpt lat="47.88965" lon="6.89304">
        <ele>698.6</ele>
        <time>2022-08-29T06:18:23Z</time>
      </trkpt>
      <trkpt lat="47.88965" lon="6.89305">
        <ele>698.8</ele>
        <time>2022-08-29T06:18:24Z</time>
      </trkpt>
      <trkpt lat="47.88965" lon="6.89306">
        <ele>698.9</ele>
        <time>2022-08-29T06:18:25Z</time>
      </trkpt>
      <trkpt lat="47.88965" lon="6.89308">
        <ele>699.3</ele>
        <time>2022-08-29T06:18:26Z</time>
      </trkpt>
      <trkpt lat="47.88965" lon="6.89309">
        <ele>699.6</ele>
        <time>2022-08-29T06:18:27Z</time>
      </trkpt>
      <trkpt lat="47.88965" lon="6.8931">
        <ele>699.8</ele>
        <time>2022-08-29T06:18:28Z</time>
      </trkpt>
      <trkpt lat="47.88965" lon="6.89312">
        <ele>700.2</ele>
        <time>2022-08-29T06:18:29Z</time>
      </trkpt>
      <trkpt lat="47.88965" lon="6.89313">
        <ele>700.4</ele>
        <time>2022-08-29T06:18:30Z</time>
      </trkpt>
      <trkpt lat="47.88965" lon="6.89315">
        <ele>700.9</ele>
        <time>2022-08-29T06:18:31Z</time>
      </trkpt>
      <trkpt lat="47.88965" lon="6.89316">
        <ele>701.1</ele>
        <time>2022-08-29T06:18:32Z</time>
      </trkpt>
      <trkpt lat="47.88965" lon="6.89317">
        <ele>701.3</ele>
        <time>2022-08-29T06:18:33Z</time>
      </trkpt>
      <trkpt lat="47.88965" lon="6.89319">
        <ele>701.7</ele>
        <time>2022-08-29T06:18:34Z</time>
      </trkpt>
      <trkpt lat="47.88966" lon="6.8932">
        <ele>701.7</ele>
        <time>2022-08-29T06:18:35Z</time>
      </trkpt>
      <trkpt lat="47.88966" lon="6.89322">
        <ele>702.1</ele>
        <time>2022-08-29T06:18:36Z</time>
      </trkpt>
      <trkpt lat="47.88966" lon="6.89323">
        <ele>702.3</ele>
        <time>2022-08-29T06:18:37Z</time>
      </trkpt>
      <trkpt lat="47.88966" lon="6.89325">
        <ele>702.8</ele>
        <time>2022-08-29T06:18:38Z</time>
      </trkpt>
      <trkpt lat="47.88966" lon="6.89326">
        <ele>703</ele>
        <time>2022-08-29T06:18:39Z</time>
      </trkpt>
      <trkpt lat="47.88967" lon="6.89327">
        <ele>702.9</ele>
        <time>2022-08-29T06:18:40Z</time>
      </trkpt>
      <trkpt lat="47.88967" lon="6.89329">
        <ele>703.4</ele>
        <time>2022-08-29T06:18:41Z</time>
      </trkpt>
      <trkpt lat="47.88967" lon="6.8933">
        <ele>703.6</ele>
        <time>2022-08-29T06:18:42Z</time>
      </trkpt>
      <trkpt lat="47.88968" lon="6.89332">
        <ele>703.8</ele>
        <time>2022-08-29T06:18:43Z</time>
      </trkpt>
      <trkpt lat="47.88968" lon="6.89333">
        <ele>704</ele>
        <time>2022-08-29T06:18:44Z</time>
      </trkpt>
      <trkpt lat="47.88969" lon="6.89335">
        <ele>704</ele>
        <time>2022-08-29T06:18:45Z</time>
      </trkpt>
      <trkpt lat="47.88969" lon="6.89336">
        <ele>704.1</ele>
        <time>2022-08-29T06:18:46Z</time>
      </trkpt>
      <trkpt lat="47.88969" lon="6.89337">
        <ele>704.2</ele>
        <time>2022-08-29T06:18:47Z</time>
      </trkpt>
      <trkpt lat="47.88969" lon="6.89338">
        <ele>704.3</ele>
        <time>2022-08-29T06:18:48Z</time>
      </trkpt>
      <trkpt lat="47.88969" lon="6.89339">
        <ele>704.4</ele>
        <time>2022-08-29T06:18:49Z</time>
      </trkpt>
      <trkpt lat="47.88969" lon="6.89341">
        <ele>704.6</ele>
        <time>2022-08-29T06:18:50Z</time>
      </trkpt>
      <trkpt lat="47.88969" lon="6.89342">
        <ele>704.7</ele>
        <time>2022-08-29T06:18:51Z</time>
      </trkpt>
      <trkpt lat="47.8897" lon="6.89343">
        <ele>704.6</ele>
        <time>2022-08-29T06:18:52Z</time>
      </trkpt>
      <trkpt lat="47.8897" lon="6.89344">
        <ele>704.7</ele>
        <time>2022-08-29T06:18:53Z</time>
      </trkpt>
      <trkpt lat="47.8897" lon="6.89346">
        <ele>704.9</ele>
        <time>2022-08-29T06:18:54Z</time>
      </trkpt>
      <trkpt lat="47.8897" lon="6.89347">
        <ele>705</ele>
        <time>2022-08-29T06:18:55Z</time>
      </trkpt>
      <trkpt lat="47.8897" lon="6.89349">
        <ele>705.2</ele>
        <time>2022-08-29T06:18:56Z</time>
      </trkpt>
      <trkpt lat="47.88971" lon="6.8935">
        <ele>705.1</ele>
        <time>2022-08-29T06:18:57Z</time>
      </trkpt>
      <trkpt lat="47.88971" lon="6.89352">
        <ele>705.3</ele>
        <time>2022-08-29T06:18:58Z</time>
      </trkpt>
      <trkpt lat="47.88972" lon="6.89354">
        <ele>705.3</ele>
        <time>2022-08-29T06:18:59Z</time>
      </trkpt>
      <trkpt lat="47.88972" lon="6.89356">
        <ele>705.5</ele>
        <time>2022-08-29T06:19:00Z</time>
      </trkpt>
      <trkpt lat="47.88972" lon="6.89358">
        <ele>705.7</ele>
        <time>2022-08-29T06:19:01Z</time>
      </trkpt>
      <trkpt lat="47.88973" lon="6.89359">
        <ele>706</ele>
        <time>2022-08-29T06:19:02Z</time>
      </trkpt>
      <trkpt lat="47.88973" lon="6.89361">
        <ele>706.2</ele>
        <time>2022-08-29T06:19:03Z</time>
      </trkpt>
      <trkpt lat="47.88974" lon="6.89362">
        <ele>706.6</ele>
        <time>2022-08-29T06:19:04Z</time>
      </trkpt>
      <trkpt lat="47.88974" lon="6.89364">
        <ele>706.7</ele>
        <time>2022-08-29T06:19:05Z</time>
      </trkpt>
      <trkpt lat="47.88974" lon="6.89365">
        <ele>706.8</ele>
        <time>2022-08-29T06:19:06Z</time>
      </trkpt>
      <trkpt lat="47.88974" lon="6.89367">
        <ele>706.9</ele>
        <time>2022-08-29T06:19:07Z</time>
      </trkpt>
      <trkpt lat="47.88974" lon="6.89368">
        <ele>707</ele>
        <time>2022-08-29T06:19:08Z</time>
      </trkpt>
      <trkpt lat="47.88975" lon="6.8937">
        <ele>707.5</ele>
        <time>2022-08-29T06:19:09Z</time>
      </trkpt>
      <trkpt lat="47.88975" lon="6.89371">
        <ele>707.5</ele>
        <time>2022-08-29T06:19:10Z</time>
      </trkpt>
      <trkpt lat="47.88975" lon="6.89372">
        <ele>707.6</ele>
        <time>2022-08-29T06:19:11Z</time>
      </trkpt>
      <trkpt lat="47.88974" lon="6.89374">
        <ele>707.5</ele>
        <time>2022-08-29T06:19:12Z</time>
      </trkpt>
      <trkpt lat="47.88974" lon="6.89375">
        <ele>707.5</ele>
        <time>2022-08-29T06:19:13Z</time>
      </trkpt>
      <trkpt lat="47.88974" lon="6.89377">
        <ele>707.7</ele>
        <time>2022-08-29T06:19:14Z</time>
      </trkpt>
      <trkpt lat="47.88975" lon="6.89379">
        <ele>708.2</ele>
        <time>2022-08-29T06:19:15Z</time>
      </trkpt>
      <trkpt lat="47.88975" lon="6.8938">
        <ele>708.2</ele>
        <time>2022-08-29T06:19:16Z</time>
      </trkpt>
      <trkpt lat="47.88975" lon="6.89382">
        <ele>708.4</ele>
        <time>2022-08-29T06:19:17Z</time>
      </trkpt>
      <trkpt lat="47.88975" lon="6.89384">
        <ele>708.5</ele>
        <time>2022-08-29T06:19:18Z</time>
      </trkpt>
      <trkpt lat="47.88976" lon="6.89386">
        <ele>709</ele>
        <time>2022-08-29T06:19:19Z</time>
      </trkpt>
      <trkpt lat="47.88976" lon="6.89388">
        <ele>709.2</ele>
        <time>2022-08-29T06:19:20Z</time>
      </trkpt>
      <trkpt lat="47.88976" lon="6.89389">
        <ele>709.2</ele>
        <time>2022-08-29T06:19:21Z</time>
      </trkpt>
      <trkpt lat="47.88976" lon="6.8939">
        <ele>709.3</ele>
        <time>2022-08-29T06:19:27Z</time>
      </trkpt>
      <trkpt lat="47.88976" lon="6.89391">
        <ele>709.5</ele>
        <time>2022-08-29T06:19:28Z</time>
      </trkpt>
      <trkpt lat="47.88977" lon="6.89391">
        <ele>709.8</ele>
        <time>2022-08-29T06:19:29Z</time>
      </trkpt>
      <trkpt lat="47.88977" lon="6.89392">
        <ele>709.9</ele>
        <time>2022-08-29T06:19:30Z</time>
      </trkpt>
      <trkpt lat="47.88977" lon="6.89393">
        <ele>710</ele>
        <time>2022-08-29T06:19:31Z</time>
      </trkpt>
      <trkpt lat="47.88977" lon="6.89394">
        <ele>710.1</ele>
        <time>2022-08-29T06:19:32Z</time>
      </trkpt>
      <trkpt lat="47.88977" lon="6.89395">
        <ele>710.2</ele>
        <time>2022-08-29T06:19:33Z</time>
      </trkpt>
      <trkpt lat="47.88977" lon="6.89396">
        <ele>710.4</ele>
        <time>2022-08-29T06:19:34Z</time>
      </trkpt>
      <trkpt lat="47.88977" lon="6.89397">
        <ele>710.5</ele>
        <time>2022-08-29T06:19:35Z</time>
      </trkpt>
      <trkpt lat="47.88977" lon="6.89399">
        <ele>710.7</ele>
        <time>2022-08-29T06:19:36Z</time>
      </trkpt>
      <trkpt lat="47.88977" lon="6.894">
        <ele>710.8</ele>
        <time>2022-08-29T06:19:37Z</time>
      </trkpt>
      <trkpt lat="47.88978" lon="6.89402">
        <ele>711.4</ele>
        <time>2022-08-29T06:19:52Z</time>
      </trkpt>
      <trkpt lat="47.88978" lon="6.89403">
        <ele>711.5</ele>
        <time>2022-08-29T06:19:53Z</time>
      </trkpt>
      <trkpt lat="47.88979" lon="6.89404">
        <ele>712</ele>
        <time>2022-08-29T06:19:54Z</time>
      </trkpt>
      <trkpt lat="47.88979" lon="6.89405">
        <ele>712.1</ele>
        <time>2022-08-29T06:19:55Z</time>
      </trkpt>
      <trkpt lat="47.88979" lon="6.89406">
        <ele>712.2</ele>
        <time>2022-08-29T06:19:56Z</time>
      </trkpt>
      <trkpt lat="47.88978" lon="6.89407">
        <ele>712</ele>
        <time>2022-08-29T06:19:57Z</time>
      </trkpt>
      <trkpt lat="47.88978" lon="6.89408">
        <ele>712.1</ele>
        <time>2022-08-29T06:19:58Z</time>
      </trkpt>
      <trkpt lat="47.88978" lon="6.8941">
        <ele>712.3</ele>
        <time>2022-08-29T06:19:59Z</time>
      </trkpt>
      <trkpt lat="47.88978" lon="6.89411">
        <ele>712.4</ele>
        <time>2022-08-29T06:20:00Z</time>
      </trkpt>
      <trkpt lat="47.88978" lon="6.89413">
        <ele>712.7</ele>
        <time>2022-08-29T06:20:01Z</time>
      </trkpt>
      <trkpt lat="47.88978" lon="6.89414">
        <ele>712.8</ele>
        <time>2022-08-29T06:20:02Z</time>
      </trkpt>
      <trkpt lat="47.88978" lon="6.89415">
        <ele>712.9</ele>
        <time>2022-08-29T06:20:03Z</time>
      </trkpt>
      <trkpt lat="47.88978" lon="6.89417">
        <ele>713.1</ele>
        <time>2022-08-29T06:20:04Z</time>
      </trkpt>
      <trkpt lat="47.88978" lon="6.89418">
        <ele>713.1</ele>
        <time>2022-08-29T06:20:05Z</time>
      </trkpt>
      <trkpt lat="47.88978" lon="6.8942">
        <ele>713.2</ele>
        <time>2022-08-29T06:20:06Z</time>
      </trkpt>
      <trkpt lat="47.88978" lon="6.89426">
        <ele>713.6</ele>
      </trkpt>
      <trkpt lat="47.8898" lon="6.89436">
        <ele>714.9</ele>
      </trkpt>
      <trkpt lat="47.8898" lon="6.89438">
        <ele>715</ele>
        <time>2022-08-29T06:23:29Z</time>
      </trkpt>
      <trkpt lat="47.88979" lon="6.8944">
        <ele>714.7</ele>
        <time>2022-08-29T06:23:30Z</time>
      </trkpt>
      <trkpt lat="47.88979" lon="6.89441">
        <ele>714.7</ele>
        <time>2022-08-29T06:23:31Z</time>
      </trkpt>
      <trkpt lat="47.88978" lon="6.89443">
        <ele>714.4</ele>
        <time>2022-08-29T06:23:32Z</time>
      </trkpt>
      <trkpt lat="47.88978" lon="6.89445">
        <ele>714.5</ele>
        <time>2022-08-29T06:23:33Z</time>
      </trkpt>
      <trkpt lat="47.88977" lon="6.89447">
        <ele>714.2</ele>
        <time>2022-08-29T06:23:34Z</time>
      </trkpt>
      <trkpt lat="47.88977" lon="6.89449">
        <ele>714.3</ele>
        <time>2022-08-29T06:23:35Z</time>
      </trkpt>
      <trkpt lat="47.88977" lon="6.89451">
        <ele>714.5</ele>
        <time>2022-08-29T06:23:36Z</time>
      </trkpt>
      <trkpt lat="47.88976" lon="6.89453">
        <ele>714.1</ele>
        <time>2022-08-29T06:23:37Z</time>
      </trkpt>
      <trkpt lat="47.88976" lon="6.89454">
        <ele>714.2</ele>
        <time>2022-08-29T06:23:38Z</time>
      </trkpt>
      <trkpt lat="47.88976" lon="6.89456">
        <ele>714.3</ele>
        <time>2022-08-29T06:23:39Z</time>
      </trkpt>
      <trkpt lat="47.88976" lon="6.89457">
        <ele>714.3</ele>
        <time>2022-08-29T06:23:40Z</time>
      </trkpt>
      <trkpt lat="47.88975" lon="6.89459">
        <ele>713.9</ele>
        <time>2022-08-29T06:23:41Z</time>
      </trkpt>
      <trkpt lat="47.88975" lon="6.8946">
        <ele>714</ele>
        <time>2022-08-29T06:23:42Z</time>
      </trkpt>
      <trkpt lat="47.88975" lon="6.89462">
        <ele>714.1</ele>
        <time>2022-08-29T06:23:43Z</time>
      </trkpt>
      <trkpt lat="47.88975" lon="6.89463">
        <ele>714.1</ele>
        <time>2022-08-29T06:23:44Z</time>
      </trkpt>
      <trkpt lat="47.88975" lon="6.89465">
        <ele>714.2</ele>
        <time>2022-08-29T06:23:45Z</time>
      </trkpt>
      <trkpt lat="47.88975" lon="6.89467">
        <ele>714.3</ele>
        <time>2022-08-29T06:23:46Z</time>
      </trkpt>
      <trkpt lat="47.88974" lon="6.89469">
        <ele>713.9</ele>
        <time>2022-08-29T06:23:47Z</time>
      </trkpt>
      <trkpt lat="47.88974" lon="6.89472">
        <ele>714</ele>
        <time>2022-08-29T06:23:48Z</time>
      </trkpt>
      <trkpt lat="47.88974" lon="6.89473">
        <ele>714.2</ele>
        <time>2022-08-29T06:23:49Z</time>
      </trkpt>
      <trkpt lat="47.88973" lon="6.89475">
        <ele>714</ele>
        <time>2022-08-29T06:23:50Z</time>
      </trkpt>
      <trkpt lat="47.88973" lon="6.89477">
        <ele>714.3</ele>
        <time>2022-08-29T06:23:51Z</time>
      </trkpt>
      <trkpt lat="47.88972" lon="6.89479">
        <ele>714.3</ele>
        <time>2022-08-29T06:23:52Z</time>
      </trkpt>
      <trkpt lat="47.88972" lon="6.8948">
        <ele>714.4</ele>
        <time>2022-08-29T06:23:53Z</time>
      </trkpt>
      <trkpt lat="47.88972" lon="6.89482">
        <ele>714.8</ele>
        <time>2022-08-29T06:23:54Z</time>
      </trkpt>
      <trkpt lat="47.88972" lon="6.89483">
        <ele>715</ele>
        <time>2022-08-29T06:23:55Z</time>
      </trkpt>
      <trkpt lat="47.88972" lon="6.89484">
        <ele>715.2</ele>
        <time>2022-08-29T06:23:56Z</time>
      </trkpt>
      <trkpt lat="47.88972" lon="6.89485">
        <ele>715.3</ele>
        <time>2022-08-29T06:23:57Z</time>
      </trkpt>
      <trkpt lat="47.88972" lon="6.89486">
        <ele>715.5</ele>
        <time>2022-08-29T06:23:58Z</time>
      </trkpt>
      <trkpt lat="47.88972" lon="6.89488">
        <ele>715.9</ele>
        <time>2022-08-29T06:23:59Z</time>
      </trkpt>
      <trkpt lat="47.88972" lon="6.8949">
        <ele>716.2</ele>
        <time>2022-08-29T06:24:00Z</time>
      </trkpt>
      <trkpt lat="47.88972" lon="6.89491">
        <ele>716.4</ele>
        <time>2022-08-29T06:24:01Z</time>
      </trkpt>
      <trkpt lat="47.88972" lon="6.89492">
        <ele>716.6</ele>
        <time>2022-08-29T06:24:02Z</time>
      </trkpt>
      <trkpt lat="47.88971" lon="6.89493">
        <ele>716.9</ele>
        <time>2022-08-29T06:24:03Z</time>
      </trkpt>
      <trkpt lat="47.8897" lon="6.89494">
        <ele>717.1</ele>
        <time>2022-08-29T06:24:05Z</time>
      </trkpt>
      <trkpt lat="47.8897" lon="6.89495">
        <ele>717.3</ele>
        <time>2022-08-29T06:24:06Z</time>
      </trkpt>
      <trkpt lat="47.88969" lon="6.89497">
        <ele>717.7</ele>
        <time>2022-08-29T06:24:07Z</time>
      </trkpt>
      <trkpt lat="47.88969" lon="6.89498">
        <ele>717.9</ele>
        <time>2022-08-29T06:24:08Z</time>
      </trkpt>
      <trkpt lat="47.88969" lon="6.89499">
        <ele>718.1</ele>
        <time>2022-08-29T06:24:09Z</time>
      </trkpt>
      <trkpt lat="47.88968" lon="6.895">
        <ele>718.3</ele>
        <time>2022-08-29T06:24:10Z</time>
      </trkpt>
      <trkpt lat="47.88968" lon="6.89501">
        <ele>718.4</ele>
        <time>2022-08-29T06:24:11Z</time>
      </trkpt>
      <trkpt lat="47.88967" lon="6.89502">
        <ele>718.6</ele>
        <time>2022-08-29T06:24:12Z</time>
      </trkpt>
      <trkpt lat="47.88967" lon="6.89504">
        <ele>718.9</ele>
        <time>2022-08-29T06:24:13Z</time>
      </trkpt>
      <trkpt lat="47.88966" lon="6.89505">
        <ele>719</ele>
        <time>2022-08-29T06:24:14Z</time>
      </trkpt>
      <trkpt lat="47.88966" lon="6.89506">
        <ele>719.2</ele>
        <time>2022-08-29T06:24:15Z</time>
      </trkpt>
      <trkpt lat="47.88966" lon="6.89508">
        <ele>719.4</ele>
        <time>2022-08-29T06:24:16Z</time>
      </trkpt>
      <trkpt lat="47.88965" lon="6.89509">
        <ele>719.6</ele>
        <time>2022-08-29T06:24:17Z</time>
      </trkpt>
      <trkpt lat="47.88965" lon="6.8951">
        <ele>719.7</ele>
        <time>2022-08-29T06:24:18Z</time>
      </trkpt>
      <trkpt lat="47.88965" lon="6.89512">
        <ele>719.9</ele>
        <time>2022-08-29T06:24:19Z</time>
      </trkpt>
      <trkpt lat="47.88965" lon="6.89513">
        <ele>720</ele>
        <time>2022-08-29T06:24:20Z</time>
      </trkpt>
      <trkpt lat="47.88965" lon="6.89515">
        <ele>720.3</ele>
        <time>2022-08-29T06:24:21Z</time>
      </trkpt>
      <trkpt lat="47.88964" lon="6.89516">
        <ele>720.4</ele>
        <time>2022-08-29T06:24:22Z</time>
      </trkpt>
      <trkpt lat="47.88964" lon="6.89517">
        <ele>720.5</ele>
        <time>2022-08-29T06:24:23Z</time>
      </trkpt>
      <trkpt lat="47.88964" lon="6.89518">
        <ele>720.6</ele>
        <time>2022-08-29T06:24:24Z</time>
      </trkpt>
      <trkpt lat="47.88963" lon="6.8952">
        <ele>720.8</ele>
        <time>2022-08-29T06:24:25Z</time>
      </trkpt>
      <trkpt lat="47.88963" lon="6.89521">
        <ele>720.9</ele>
        <time>2022-08-29T06:24:26Z</time>
      </trkpt>
      <trkpt lat="47.88963" lon="6.89522">
        <ele>721</ele>
        <time>2022-08-29T06:24:27Z</time>
      </trkpt>
      <trkpt lat="47.88962" lon="6.89523">
        <ele>721.1</ele>
        <time>2022-08-29T06:24:28Z</time>
      </trkpt>
      <trkpt lat="47.88962" lon="6.89524">
        <ele>721.2</ele>
        <time>2022-08-29T06:24:29Z</time>
      </trkpt>
      <trkpt lat="47.88962" lon="6.89526">
        <ele>721.4</ele>
        <time>2022-08-29T06:24:30Z</time>
      </trkpt>
      <trkpt lat="47.88961" lon="6.89527">
        <ele>721.5</ele>
        <time>2022-08-29T06:24:31Z</time>
      </trkpt>
      <trkpt lat="47.88961" lon="6.89529">
        <ele>721.6</ele>
        <time>2022-08-29T06:24:32Z</time>
      </trkpt>
      <trkpt lat="47.88961" lon="6.8953">
        <ele>721.6</ele>
        <time>2022-08-29T06:24:33Z</time>
      </trkpt>
      <trkpt lat="47.88961" lon="6.89531">
        <ele>721.6</ele>
        <time>2022-08-29T06:24:34Z</time>
      </trkpt>
      <trkpt lat="47.8896" lon="6.89532">
        <ele>721.6</ele>
        <time>2022-08-29T06:24:35Z</time>
      </trkpt>
      <trkpt lat="47.8896" lon="6.89533">
        <ele>721.6</ele>
        <time>2022-08-29T06:24:36Z</time>
      </trkpt>
      <trkpt lat="47.8896" lon="6.89535">
        <ele>721.7</ele>
        <time>2022-08-29T06:24:37Z</time>
      </trkpt>
      <trkpt lat="47.88959" lon="6.89536">
        <ele>721.7</ele>
        <time>2022-08-29T06:24:38Z</time>
      </trkpt>
      <trkpt lat="47.88959" lon="6.89537">
        <ele>721.7</ele>
        <time>2022-08-29T06:24:39Z</time>
      </trkpt>
      <trkpt lat="47.88959" lon="6.89538">
        <ele>721.7</ele>
        <time>2022-08-29T06:24:40Z</time>
      </trkpt>
      <trkpt lat="47.88958" lon="6.89539">
        <ele>721.7</ele>
        <time>2022-08-29T06:24:41Z</time>
      </trkpt>
      <trkpt lat="47.88958" lon="6.8954">
        <ele>721.7</ele>
        <time>2022-08-29T06:24:42Z</time>
      </trkpt>
      <trkpt lat="47.88958" lon="6.89541">
        <ele>721.7</ele>
        <time>2022-08-29T06:24:43Z</time>
      </trkpt>
      <trkpt lat="47.88958" lon="6.89542">
        <ele>721.8</ele>
        <time>2022-08-29T06:24:44Z</time>
      </trkpt>
      <trkpt lat="47.88958" lon="6.89543">
        <ele>721.8</ele>
        <time>2022-08-29T06:24:45Z</time>
      </trkpt>
      <trkpt lat="47.88957" lon="6.89545">
        <ele>721.8</ele>
        <time>2022-08-29T06:24:46Z</time>
      </trkpt>
      <trkpt lat="47.88957" lon="6.89546">
        <ele>721.8</ele>
        <time>2022-08-29T06:24:47Z</time>
      </trkpt>
      <trkpt lat="47.88957" lon="6.89547">
        <ele>721.8</ele>
        <time>2022-08-29T06:24:48Z</time>
      </trkpt>
      <trkpt lat="47.88957" lon="6.89548">
        <ele>721.9</ele>
        <time>2022-08-29T06:24:49Z</time>
      </trkpt>
      <trkpt lat="47.88958" lon="6.89549">
        <ele>721.9</ele>
        <time>2022-08-29T06:24:50Z</time>
      </trkpt>
      <trkpt lat="47.88958" lon="6.8955">
        <ele>721.9</ele>
        <time>2022-08-29T06:24:51Z</time>
      </trkpt>
      <trkpt lat="47.88958" lon="6.89552">
        <ele>721.9</ele>
        <time>2022-08-29T06:24:52Z</time>
      </trkpt>
      <trkpt lat="47.88959" lon="6.89554">
        <ele>722</ele>
        <time>2022-08-29T06:24:53Z</time>
      </trkpt>
      <trkpt lat="47.88959" lon="6.89555">
        <ele>722</ele>
        <time>2022-08-29T06:24:54Z</time>
      </trkpt>
      <trkpt lat="47.8896" lon="6.89557">
        <ele>722.1</ele>
        <time>2022-08-29T06:24:55Z</time>
      </trkpt>
      <trkpt lat="47.8896" lon="6.89559">
        <ele>722.3</ele>
        <time>2022-08-29T06:24:56Z</time>
      </trkpt>
      <trkpt lat="47.8896" lon="6.89561">
        <ele>722.4</ele>
        <time>2022-08-29T06:24:57Z</time>
      </trkpt>
      <trkpt lat="47.88959" lon="6.89563">
        <ele>722.5</ele>
        <time>2022-08-29T06:24:58Z</time>
      </trkpt>
      <trkpt lat="47.88959" lon="6.89565">
        <ele>722.7</ele>
        <time>2022-08-29T06:24:59Z</time>
      </trkpt>
      <trkpt lat="47.88959" lon="6.89567">
        <ele>722.8</ele>
        <time>2022-08-29T06:25:00Z</time>
      </trkpt>
      <trkpt lat="47.88958" lon="6.89568">
        <ele>722.9</ele>
        <time>2022-08-29T06:25:01Z</time>
      </trkpt>
      <trkpt lat="47.88958" lon="6.89569">
        <ele>723</ele>
        <time>2022-08-29T06:25:02Z</time>
      </trkpt>
      <trkpt lat="47.88957" lon="6.89569">
        <ele>722.9</ele>
        <time>2022-08-29T06:25:03Z</time>
      </trkpt>
      <trkpt lat="47.88957" lon="6.89571">
        <ele>723.1</ele>
        <time>2022-08-29T06:25:04Z</time>
      </trkpt>
      <trkpt lat="47.88956" lon="6.89572">
        <ele>723.1</ele>
        <time>2022-08-29T06:25:05Z</time>
      </trkpt>
      <trkpt lat="47.88956" lon="6.89573">
        <ele>723.2</ele>
        <time>2022-08-29T06:25:06Z</time>
      </trkpt>
      <trkpt lat="47.88956" lon="6.89574">
        <ele>723.2</ele>
        <time>2022-08-29T06:25:07Z</time>
      </trkpt>
      <trkpt lat="47.88956" lon="6.89575">
        <ele>723.3</ele>
        <time>2022-08-29T06:25:08Z</time>
      </trkpt>
      <trkpt lat="47.88956" lon="6.89576">
        <ele>723.3</ele>
        <time>2022-08-29T06:25:09Z</time>
      </trkpt>
      <trkpt lat="47.88956" lon="6.89578">
        <ele>723.5</ele>
        <time>2022-08-29T06:25:10Z</time>
      </trkpt>
      <trkpt lat="47.88956" lon="6.89579">
        <ele>723.5</ele>
        <time>2022-08-29T06:25:11Z</time>
      </trkpt>
      <trkpt lat="47.88957" lon="6.89581">
        <ele>723.7</ele>
        <time>2022-08-29T06:25:12Z</time>
      </trkpt>
      <trkpt lat="47.88957" lon="6.89582">
        <ele>723.8</ele>
        <time>2022-08-29T06:25:13Z</time>
      </trkpt>
      <trkpt lat="47.88957" lon="6.89584">
        <ele>724</ele>
        <time>2022-08-29T06:25:14Z</time>
      </trkpt>
      <trkpt lat="47.88957" lon="6.89586">
        <ele>724.3</ele>
        <time>2022-08-29T06:25:15Z</time>
      </trkpt>
      <trkpt lat="47.88957" lon="6.89588">
        <ele>724.7</ele>
        <time>2022-08-29T06:25:16Z</time>
      </trkpt>
      <trkpt lat="47.88957" lon="6.8959">
        <ele>725</ele>
        <time>2022-08-29T06:25:17Z</time>
      </trkpt>
      <trkpt lat="47.88957" lon="6.89592">
        <ele>725.3</ele>
        <time>2022-08-29T06:25:18Z</time>
      </trkpt>
      <trkpt lat="47.88957" lon="6.89594">
        <ele>725.6</ele>
        <time>2022-08-29T06:25:19Z</time>
      </trkpt>
      <trkpt lat="47.88957" lon="6.89595">
        <ele>725.8</ele>
        <time>2022-08-29T06:25:20Z</time>
      </trkpt>
      <trkpt lat="47.88958" lon="6.89597">
        <ele>726.4</ele>
        <time>2022-08-29T06:25:21Z</time>
      </trkpt>
      <trkpt lat="47.88958" lon="6.89599">
        <ele>726.7</ele>
        <time>2022-08-29T06:25:22Z</time>
      </trkpt>
      <trkpt lat="47.88958" lon="6.896">
        <ele>726.9</ele>
        <time>2022-08-29T06:25:23Z</time>
      </trkpt>
      <trkpt lat="47.88958" lon="6.89602">
        <ele>727.3</ele>
        <time>2022-08-29T06:25:24Z</time>
      </trkpt>
      <trkpt lat="47.88958" lon="6.89603">
        <ele>727.4</ele>
        <time>2022-08-29T06:25:25Z</time>
      </trkpt>
      <trkpt lat="47.88957" lon="6.89605">
        <ele>727.4</ele>
        <time>2022-08-29T06:25:26Z</time>
      </trkpt>
      <trkpt lat="47.88957" lon="6.89606">
        <ele>727.6</ele>
        <time>2022-08-29T06:25:27Z</time>
      </trkpt>
      <trkpt lat="47.88957" lon="6.89608">
        <ele>727.9</ele>
        <time>2022-08-29T06:25:28Z</time>
      </trkpt>
      <trkpt lat="47.88957" lon="6.8961">
        <ele>728.2</ele>
        <time>2022-08-29T06:25:29Z</time>
      </trkpt>
      <trkpt lat="47.88957" lon="6.89611">
        <ele>728.4</ele>
        <time>2022-08-29T06:25:30Z</time>
      </trkpt>
      <trkpt lat="47.88957" lon="6.89613">
        <ele>728.6</ele>
        <time>2022-08-29T06:25:31Z</time>
      </trkpt>
      <trkpt lat="47.88957" lon="6.89615">
        <ele>728.7</ele>
        <time>2022-08-29T06:25:32Z</time>
      </trkpt>
      <trkpt lat="47.88957" lon="6.89616">
        <ele>728.8</ele>
        <time>2022-08-29T06:25:33Z</time>
      </trkpt>
      <trkpt lat="47.88957" lon="6.89618">
        <ele>728.9</ele>
        <time>2022-08-29T06:25:34Z</time>
      </trkpt>
      <trkpt lat="47.88956" lon="6.89619">
        <ele>728.6</ele>
        <time>2022-08-29T06:25:35Z</time>
      </trkpt>
      <trkpt lat="47.88956" lon="6.89621">
        <ele>728.7</ele>
        <time>2022-08-29T06:25:36Z</time>
      </trkpt>
      <trkpt lat="47.88956" lon="6.89622">
        <ele>728.8</ele>
        <time>2022-08-29T06:25:37Z</time>
      </trkpt>
      <trkpt lat="47.88956" lon="6.89623">
        <ele>728.8</ele>
        <time>2022-08-29T06:25:38Z</time>
      </trkpt>
      <trkpt lat="47.88956" lon="6.89625">
        <ele>729</ele>
        <time>2022-08-29T06:25:39Z</time>
      </trkpt>
      <trkpt lat="47.88956" lon="6.89626">
        <ele>729.1</ele>
        <time>2022-08-29T06:25:40Z</time>
      </trkpt>
      <trkpt lat="47.88956" lon="6.89627">
        <ele>729.1</ele>
        <time>2022-08-29T06:25:41Z</time>
      </trkpt>
      <trkpt lat="47.88956" lon="6.89629">
        <ele>729.3</ele>
        <time>2022-08-29T06:25:42Z</time>
      </trkpt>
      <trkpt lat="47.88957" lon="6.8963">
        <ele>729.8</ele>
        <time>2022-08-29T06:25:43Z</time>
      </trkpt>
      <trkpt lat="47.88957" lon="6.89632">
        <ele>729.9</ele>
        <time>2022-08-29T06:25:44Z</time>
      </trkpt>
      <trkpt lat="47.88957" lon="6.89634">
        <ele>730.1</ele>
        <time>2022-08-29T06:25:45Z</time>
      </trkpt>
      <trkpt lat="47.88958" lon="6.89635">
        <ele>730.6</ele>
        <time>2022-08-29T06:25:46Z</time>
      </trkpt>
      <trkpt lat="47.88958" lon="6.89637">
        <ele>730.7</ele>
        <time>2022-08-29T06:25:47Z</time>
      </trkpt>
      <trkpt lat="47.88959" lon="6.89639">
        <ele>731.3</ele>
        <time>2022-08-29T06:25:57Z</time>
      </trkpt>
      <trkpt lat="47.88959" lon="6.8964">
        <ele>731.4</ele>
        <time>2022-08-29T06:25:58Z</time>
      </trkpt>
      <trkpt lat="47.88959" lon="6.89641">
        <ele>731.5</ele>
        <time>2022-08-29T06:25:59Z</time>
      </trkpt>
      <trkpt lat="47.88959" lon="6.89642">
        <ele>731.6</ele>
        <time>2022-08-29T06:26:00Z</time>
      </trkpt>
      <trkpt lat="47.88958" lon="6.89644">
        <ele>731.3</ele>
        <time>2022-08-29T06:26:02Z</time>
      </trkpt>
      <trkpt lat="47.88958" lon="6.89645">
        <ele>731.4</ele>
        <time>2022-08-29T06:26:03Z</time>
      </trkpt>
      <trkpt lat="47.88958" lon="6.89646">
        <ele>731.5</ele>
        <time>2022-08-29T06:26:04Z</time>
      </trkpt>
      <trkpt lat="47.88958" lon="6.89648">
        <ele>731.7</ele>
        <time>2022-08-29T06:26:05Z</time>
      </trkpt>
      <trkpt lat="47.88958" lon="6.89649">
        <ele>731.8</ele>
        <time>2022-08-29T06:26:06Z</time>
      </trkpt>
      <trkpt lat="47.88958" lon="6.8965">
        <ele>731.9</ele>
        <time>2022-08-29T06:26:07Z</time>
      </trkpt>
      <trkpt lat="47.88958" lon="6.89651">
        <ele>732</ele>
        <time>2022-08-29T06:26:08Z</time>
      </trkpt>
      <trkpt lat="47.88958" lon="6.89652">
        <ele>732.1</ele>
        <time>2022-08-29T06:26:09Z</time>
      </trkpt>
      <trkpt lat="47.88958" lon="6.89653">
        <ele>732.1</ele>
        <time>2022-08-29T06:26:10Z</time>
      </trkpt>
      <trkpt lat="47.88959" lon="6.89654">
        <ele>732.6</ele>
        <time>2022-08-29T06:26:11Z</time>
      </trkpt>
      <trkpt lat="47.88959" lon="6.89656">
        <ele>732.8</ele>
        <time>2022-08-29T06:26:12Z</time>
      </trkpt>
      <trkpt lat="47.88959" lon="6.89657">
        <ele>732.9</ele>
        <time>2022-08-29T06:26:13Z</time>
      </trkpt>
      <trkpt lat="47.88959" lon="6.89658">
        <ele>733</ele>
        <time>2022-08-29T06:26:14Z</time>
      </trkpt>
      <trkpt lat="47.88959" lon="6.89659">
        <ele>733</ele>
        <time>2022-08-29T06:26:15Z</time>
      </trkpt>
      <trkpt lat="47.88959" lon="6.8966">
        <ele>733.1</ele>
        <time>2022-08-29T06:26:16Z</time>
      </trkpt>
      <trkpt lat="47.8896" lon="6.8966">
        <ele>733.5</ele>
        <time>2022-08-29T06:26:17Z</time>
      </trkpt>
      <trkpt lat="47.8896" lon="6.89661">
        <ele>733.6</ele>
        <time>2022-08-29T06:26:18Z</time>
      </trkpt>
      <trkpt lat="47.88961" lon="6.89662">
        <ele>734</ele>
        <time>2022-08-29T06:26:20Z</time>
      </trkpt>
      <trkpt lat="47.88961" lon="6.89663">
        <ele>734.1</ele>
        <time>2022-08-29T06:26:21Z</time>
      </trkpt>
      <trkpt lat="47.88961" lon="6.89665">
        <ele>734.2</ele>
        <time>2022-08-29T06:26:23Z</time>
      </trkpt>
      <trkpt lat="47.88961" lon="6.89666">
        <ele>734.3</ele>
        <time>2022-08-29T06:26:24Z</time>
      </trkpt>
      <trkpt lat="47.88961" lon="6.89667">
        <ele>734.4</ele>
        <time>2022-08-29T06:26:25Z</time>
      </trkpt>
      <trkpt lat="47.88962" lon="6.89666">
        <ele>734.6</ele>
        <time>2022-08-29T06:26:36Z</time>
      </trkpt>
      <trkpt lat="47.88962" lon="6.89665">
        <ele>734.6</ele>
        <time>2022-08-29T06:26:37Z</time>
      </trkpt>
      <trkpt lat="47.88962" lon="6.89664">
        <ele>734.5</ele>
        <time>2022-08-29T06:26:38Z</time>
      </trkpt>
      <trkpt lat="47.88962" lon="6.89663">
        <ele>734.4</ele>
        <time>2022-08-29T06:26:39Z</time>
      </trkpt>
      <trkpt lat="47.88962" lon="6.89662">
        <ele>734.3</ele>
        <time>2022-08-29T06:26:40Z</time>
      </trkpt>
      <trkpt lat="47.88963" lon="6.89661">
        <ele>734.6</ele>
        <time>2022-08-29T06:26:41Z</time>
      </trkpt>
      <trkpt lat="47.88963" lon="6.8966">
        <ele>734.5</ele>
        <time>2022-08-29T06:26:42Z</time>
      </trkpt>
      <trkpt lat="47.88963" lon="6.89659">
        <ele>734.5</ele>
        <time>2022-08-29T06:26:43Z</time>
      </trkpt>
      <trkpt lat="47.88963" lon="6.89658">
        <ele>734.4</ele>
        <time>2022-08-29T06:26:44Z</time>
      </trkpt>
      <trkpt lat="47.88963" lon="6.89657">
        <ele>734.3</ele>
        <time>2022-08-29T06:26:46Z</time>
      </trkpt>
      <trkpt lat="47.88963" lon="6.89656">
        <ele>734.2</ele>
        <time>2022-08-29T06:26:47Z</time>
      </trkpt>
      <trkpt lat="47.88963" lon="6.89655">
        <ele>734.2</ele>
        <time>2022-08-29T06:26:48Z</time>
      </trkpt>
      <trkpt lat="47.88963" lon="6.89653">
        <ele>734</ele>
        <time>2022-08-29T06:26:49Z</time>
      </trkpt>
      <trkpt lat="47.88962" lon="6.89652">
        <ele>733.6</ele>
        <time>2022-08-29T06:26:50Z</time>
      </trkpt>
      <trkpt lat="47.88962" lon="6.89651">
        <ele>733.5</ele>
        <time>2022-08-29T06:26:51Z</time>
      </trkpt>
      <trkpt lat="47.88962" lon="6.8965">
        <ele>733.4</ele>
        <time>2022-08-29T06:26:52Z</time>
      </trkpt>
      <trkpt lat="47.88962" lon="6.89648">
        <ele>733.3</ele>
        <time>2022-08-29T06:26:53Z</time>
      </trkpt>
      <trkpt lat="47.88962" lon="6.89647">
        <ele>733.2</ele>
        <time>2022-08-29T06:26:54Z</time>
      </trkpt>
      <trkpt lat="47.88962" lon="6.89646">
        <ele>733.1</ele>
        <time>2022-08-29T06:26:55Z</time>
      </trkpt>
      <trkpt lat="47.88962" lon="6.89645">
        <ele>733</ele>
        <time>2022-08-29T06:26:56Z</time>
      </trkpt>
      <trkpt lat="47.88963" lon="6.89644">
        <ele>733.4</ele>
        <time>2022-08-29T06:26:57Z</time>
      </trkpt>
      <trkpt lat="47.88963" lon="6.89643">
        <ele>733.3</ele>
        <time>2022-08-29T06:26:58Z</time>
      </trkpt>
      <trkpt lat="47.88963" lon="6.89642">
        <ele>733.2</ele>
        <time>2022-08-29T06:26:59Z</time>
      </trkpt>
      <trkpt lat="47.88964" lon="6.89641">
        <ele>733.6</ele>
        <time>2022-08-29T06:27:00Z</time>
      </trkpt>
      <trkpt lat="47.88964" lon="6.8964">
        <ele>733.5</ele>
        <time>2022-08-29T06:27:01Z</time>
      </trkpt>
      <trkpt lat="47.88964" lon="6.89639">
        <ele>733.5</ele>
        <time>2022-08-29T06:27:02Z</time>
      </trkpt>
      <trkpt lat="47.88965" lon="6.89638">
        <ele>733.8</ele>
        <time>2022-08-29T06:27:03Z</time>
      </trkpt>
      <trkpt lat="47.88965" lon="6.89637">
        <ele>733.7</ele>
        <time>2022-08-29T06:27:04Z</time>
      </trkpt>
      <trkpt lat="47.88965" lon="6.89635">
        <ele>733.6</ele>
        <time>2022-08-29T06:27:05Z</time>
      </trkpt>
      <trkpt lat="47.88966" lon="6.89634">
        <ele>734</ele>
        <time>2022-08-29T06:27:06Z</time>
      </trkpt>
      <trkpt lat="47.88966" lon="6.89633">
        <ele>733.9</ele>
        <time>2022-08-29T06:27:07Z</time>
      </trkpt>
      <trkpt lat="47.88966" lon="6.89632">
        <ele>733.8</ele>
        <time>2022-08-29T06:27:08Z</time>
      </trkpt>
      <trkpt lat="47.88966" lon="6.89631">
        <ele>733.7</ele>
        <time>2022-08-29T06:27:09Z</time>
      </trkpt>
      <trkpt lat="47.88967" lon="6.89631">
        <ele>734.2</ele>
        <time>2022-08-29T06:27:10Z</time>
      </trkpt>
      <trkpt lat="47.88967" lon="6.8963">
        <ele>734.1</ele>
        <time>2022-08-29T06:27:11Z</time>
      </trkpt>
      <trkpt lat="47.88968" lon="6.89629">
        <ele>734.5</ele>
        <time>2022-08-29T06:27:13Z</time>
      </trkpt>
      <trkpt lat="47.88969" lon="6.89628">
        <ele>734.8</ele>
        <time>2022-08-29T06:27:14Z</time>
      </trkpt>
      <trkpt lat="47.88969" lon="6.89626">
        <ele>734.7</ele>
        <time>2022-08-29T06:27:15Z</time>
      </trkpt>
      <trkpt lat="47.8897" lon="6.89625">
        <ele>735</ele>
        <time>2022-08-29T06:27:16Z</time>
      </trkpt>
      <trkpt lat="47.8897" lon="6.89623">
        <ele>734.9</ele>
        <time>2022-08-29T06:27:17Z</time>
      </trkpt>
      <trkpt lat="47.88971" lon="6.89621">
        <ele>735.2</ele>
        <time>2022-08-29T06:27:18Z</time>
      </trkpt>
      <trkpt lat="47.88971" lon="6.8962">
        <ele>735.1</ele>
        <time>2022-08-29T06:27:19Z</time>
      </trkpt>
      <trkpt lat="47.88971" lon="6.89619">
        <ele>735</ele>
        <time>2022-08-29T06:27:20Z</time>
      </trkpt>
      <trkpt lat="47.88971" lon="6.89618">
        <ele>735</ele>
        <time>2022-08-29T06:27:21Z</time>
      </trkpt>
      <trkpt lat="47.88972" lon="6.89617">
        <ele>735.3</ele>
        <time>2022-08-29T06:27:22Z</time>
      </trkpt>
      <trkpt lat="47.88972" lon="6.89616">
        <ele>735.3</ele>
        <time>2022-08-29T06:27:23Z</time>
      </trkpt>
      <trkpt lat="47.88972" lon="6.89615">
        <ele>735.2</ele>
        <time>2022-08-29T06:27:24Z</time>
      </trkpt>
      <trkpt lat="47.88973" lon="6.89614">
        <ele>735.7</ele>
        <time>2022-08-29T06:27:25Z</time>
      </trkpt>
      <trkpt lat="47.88973" lon="6.89613">
        <ele>735.6</ele>
        <time>2022-08-29T06:27:27Z</time>
      </trkpt>
      <trkpt lat="47.88974" lon="6.89612">
        <ele>736.2</ele>
        <time>2022-08-29T06:27:28Z</time>
      </trkpt>
      <trkpt lat="47.88974" lon="6.89611">
        <ele>736</ele>
        <time>2022-08-29T06:27:29Z</time>
      </trkpt>
      <trkpt lat="47.88974" lon="6.8961">
        <ele>735.7</ele>
        <time>2022-08-29T06:27:30Z</time>
      </trkpt>
      <trkpt lat="47.88975" lon="6.89608">
        <ele>735.7</ele>
        <time>2022-08-29T06:27:31Z</time>
      </trkpt>
      <trkpt lat="47.88976" lon="6.89608">
        <ele>736.3</ele>
        <time>2022-08-29T06:27:34Z</time>
      </trkpt>
      <trkpt lat="47.88977" lon="6.89608">
        <ele>736.9</ele>
        <time>2022-08-29T06:27:35Z</time>
      </trkpt>
      <trkpt lat="47.88977" lon="6.89609">
        <ele>737.3</ele>
        <time>2022-08-29T06:27:36Z</time>
      </trkpt>
      <trkpt lat="47.88978" lon="6.8961">
        <ele>738.2</ele>
        <time>2022-08-29T06:27:37Z</time>
      </trkpt>
      <trkpt lat="47.88979" lon="6.89611">
        <ele>739.1</ele>
        <time>2022-08-29T06:27:38Z</time>
      </trkpt>
      <trkpt lat="47.88979" lon="6.89613">
        <ele>739.3</ele>
        <time>2022-08-29T06:27:39Z</time>
      </trkpt>
      <trkpt lat="47.88979" lon="6.89614">
        <ele>739.4</ele>
        <time>2022-08-29T06:27:40Z</time>
      </trkpt>
      <trkpt lat="47.8898" lon="6.89616">
        <ele>740.1</ele>
        <time>2022-08-29T06:27:41Z</time>
      </trkpt>
      <trkpt lat="47.88979" lon="6.89617">
        <ele>739.6</ele>
        <time>2022-08-29T06:27:42Z</time>
      </trkpt>
      <trkpt lat="47.88979" lon="6.89619">
        <ele>739.7</ele>
        <time>2022-08-29T06:27:43Z</time>
      </trkpt>
      <trkpt lat="47.8898" lon="6.89619">
        <ele>740.3</ele>
        <time>2022-08-29T06:27:44Z</time>
      </trkpt>
      <trkpt lat="47.8898" lon="6.8962">
        <ele>740.4</ele>
        <time>2022-08-29T06:27:45Z</time>
      </trkpt>
      <trkpt lat="47.8898" lon="6.89621">
        <ele>740.5</ele>
        <time>2022-08-29T06:27:46Z</time>
      </trkpt>
      <trkpt lat="47.8898" lon="6.89622">
        <ele>740.5</ele>
        <time>2022-08-29T06:27:47Z</time>
      </trkpt>
      <trkpt lat="47.88981" lon="6.89623">
        <ele>741.2</ele>
        <time>2022-08-29T06:27:49Z</time>
      </trkpt>
      <trkpt lat="47.88981" lon="6.89624">
        <ele>741.3</ele>
        <time>2022-08-29T06:27:50Z</time>
      </trkpt>
      <trkpt lat="47.88981" lon="6.89625">
        <ele>741.4</ele>
        <time>2022-08-29T06:27:51Z</time>
      </trkpt>
      <trkpt lat="47.88982" lon="6.89626">
        <ele>742.1</ele>
        <time>2022-08-29T06:27:52Z</time>
      </trkpt>
      <trkpt lat="47.88982" lon="6.89627">
        <ele>742.1</ele>
        <time>2022-08-29T06:27:53Z</time>
      </trkpt>
      <trkpt lat="47.88982" lon="6.89628">
        <ele>742.2</ele>
        <time>2022-08-29T06:27:54Z</time>
      </trkpt>
      <trkpt lat="47.88982" lon="6.89629">
        <ele>742.3</ele>
        <time>2022-08-29T06:27:55Z</time>
      </trkpt>
      <trkpt lat="47.88982" lon="6.8963">
        <ele>742.3</ele>
        <time>2022-08-29T06:27:56Z</time>
      </trkpt>
      <trkpt lat="47.88982" lon="6.89631">
        <ele>742.4</ele>
        <time>2022-08-29T06:27:57Z</time>
      </trkpt>
      <trkpt lat="47.88982" lon="6.89633">
        <ele>742.6</ele>
        <time>2022-08-29T06:27:58Z</time>
      </trkpt>
      <trkpt lat="47.88982" lon="6.89635">
        <ele>742.7</ele>
        <time>2022-08-29T06:27:59Z</time>
      </trkpt>
      <trkpt lat="47.88982" lon="6.89636">
        <ele>742.8</ele>
        <time>2022-08-29T06:28:00Z</time>
      </trkpt>
      <trkpt lat="47.88982" lon="6.89637">
        <ele>742.8</ele>
        <time>2022-08-29T06:28:01Z</time>
      </trkpt>
      <trkpt lat="47.88982" lon="6.89639">
        <ele>743</ele>
        <time>2022-08-29T06:28:02Z</time>
      </trkpt>
      <trkpt lat="47.88983" lon="6.89639">
        <ele>743.6</ele>
        <time>2022-08-29T06:28:03Z</time>
      </trkpt>
      <trkpt lat="47.88983" lon="6.8964">
        <ele>743.6</ele>
        <time>2022-08-29T06:28:04Z</time>
      </trkpt>
      <trkpt lat="47.88983" lon="6.89641">
        <ele>743.7</ele>
        <time>2022-08-29T06:28:05Z</time>
      </trkpt>
      <trkpt lat="47.88983" lon="6.89642">
        <ele>743.7</ele>
        <time>2022-08-29T06:28:06Z</time>
      </trkpt>
      <trkpt lat="47.88983" lon="6.89643">
        <ele>743.7</ele>
        <time>2022-08-29T06:28:07Z</time>
      </trkpt>
      <trkpt lat="47.88984" lon="6.89643">
        <ele>744.4</ele>
        <time>2022-08-29T06:28:08Z</time>
      </trkpt>
      <trkpt lat="47.88984" lon="6.89644">
        <ele>744.4</ele>
        <time>2022-08-29T06:28:09Z</time>
      </trkpt>
      <trkpt lat="47.88985" lon="6.89644">
        <ele>745</ele>
        <time>2022-08-29T06:28:10Z</time>
      </trkpt>
      <trkpt lat="47.88986" lon="6.89644">
        <ele>745.6</ele>
        <time>2022-08-29T06:28:12Z</time>
      </trkpt>
      <trkpt lat="47.88986" lon="6.89645">
        <ele>745.7</ele>
        <time>2022-08-29T06:28:13Z</time>
      </trkpt>
      <trkpt lat="47.88986" lon="6.89646">
        <ele>745.7</ele>
        <time>2022-08-29T06:28:14Z</time>
      </trkpt>
      <trkpt lat="47.88986" lon="6.89647">
        <ele>745.7</ele>
        <time>2022-08-29T06:28:16Z</time>
      </trkpt>
      <trkpt lat="47.88986" lon="6.89648">
        <ele>745.8</ele>
        <time>2022-08-29T06:28:17Z</time>
      </trkpt>
      <trkpt lat="47.88986" lon="6.89649">
        <ele>745.8</ele>
        <time>2022-08-29T06:28:18Z</time>
      </trkpt>
      <trkpt lat="47.88986" lon="6.8965">
        <ele>745.8</ele>
        <time>2022-08-29T06:28:19Z</time>
      </trkpt>
      <trkpt lat="47.88985" lon="6.89652">
        <ele>745.3</ele>
        <time>2022-08-29T06:28:20Z</time>
      </trkpt>
      <trkpt lat="47.88985" lon="6.89653">
        <ele>745.3</ele>
        <time>2022-08-29T06:28:21Z</time>
      </trkpt>
      <trkpt lat="47.88985" lon="6.89654">
        <ele>745.4</ele>
        <time>2022-08-29T06:28:22Z</time>
      </trkpt>
      <trkpt lat="47.88984" lon="6.89656">
        <ele>744.8</ele>
        <time>2022-08-29T06:28:23Z</time>
      </trkpt>
      <trkpt lat="47.88984" lon="6.89657">
        <ele>744.9</ele>
        <time>2022-08-29T06:28:24Z</time>
      </trkpt>
      <trkpt lat="47.88984" lon="6.89658">
        <ele>744.9</ele>
        <time>2022-08-29T06:28:26Z</time>
      </trkpt>
      <trkpt lat="47.88984" lon="6.89659">
        <ele>744.9</ele>
        <time>2022-08-29T06:28:27Z</time>
      </trkpt>
      <trkpt lat="47.88983" lon="6.8966">
        <ele>744.4</ele>
        <time>2022-08-29T06:28:28Z</time>
      </trkpt>
      <trkpt lat="47.88983" lon="6.89661">
        <ele>744.4</ele>
        <time>2022-08-29T06:28:29Z</time>
      </trkpt>
      <trkpt lat="47.88983" lon="6.89663">
        <ele>744.5</ele>
        <time>2022-08-29T06:28:30Z</time>
      </trkpt>
      <trkpt lat="47.88982" lon="6.89664">
        <ele>743.9</ele>
        <time>2022-08-29T06:28:31Z</time>
      </trkpt>
      <trkpt lat="47.88982" lon="6.89665">
        <ele>743.9</ele>
        <time>2022-08-29T06:28:32Z</time>
      </trkpt>
      <trkpt lat="47.88982" lon="6.89666">
        <ele>744</ele>
        <time>2022-08-29T06:28:33Z</time>
      </trkpt>
      <trkpt lat="47.88982" lon="6.89667">
        <ele>744</ele>
        <time>2022-08-29T06:28:34Z</time>
      </trkpt>
      <trkpt lat="47.88981" lon="6.89668">
        <ele>743.4</ele>
        <time>2022-08-29T06:28:35Z</time>
      </trkpt>
      <trkpt lat="47.88981" lon="6.89669">
        <ele>743.5</ele>
        <time>2022-08-29T06:28:36Z</time>
      </trkpt>
      <trkpt lat="47.88981" lon="6.8967">
        <ele>743.5</ele>
        <time>2022-08-29T06:28:37Z</time>
      </trkpt>
      <trkpt lat="47.88981" lon="6.89671">
        <ele>743.5</ele>
        <time>2022-08-29T06:28:39Z</time>
      </trkpt>
      <trkpt lat="47.8898" lon="6.89672">
        <ele>743</ele>
        <time>2022-08-29T06:28:40Z</time>
      </trkpt>
      <trkpt lat="47.8898" lon="6.89673">
        <ele>743</ele>
        <time>2022-08-29T06:28:41Z</time>
      </trkpt>
      <trkpt lat="47.8898" lon="6.89674">
        <ele>743</ele>
        <time>2022-08-29T06:28:42Z</time>
      </trkpt>
      <trkpt lat="47.8898" lon="6.89676">
        <ele>743.1</ele>
        <time>2022-08-29T06:28:43Z</time>
      </trkpt>
      <trkpt lat="47.8898" lon="6.89677">
        <ele>743.1</ele>
        <time>2022-08-29T06:28:44Z</time>
      </trkpt>
      <trkpt lat="47.88979" lon="6.89678">
        <ele>742.6</ele>
        <time>2022-08-29T06:28:45Z</time>
      </trkpt>
      <trkpt lat="47.88979" lon="6.89679">
        <ele>742.6</ele>
        <time>2022-08-29T06:28:46Z</time>
      </trkpt>
      <trkpt lat="47.88979" lon="6.8968">
        <ele>742.6</ele>
        <time>2022-08-29T06:28:47Z</time>
      </trkpt>
      <trkpt lat="47.88978" lon="6.89681">
        <ele>742.1</ele>
        <time>2022-08-29T06:28:48Z</time>
      </trkpt>
      <trkpt lat="47.88978" lon="6.89682">
        <ele>742.1</ele>
        <time>2022-08-29T06:28:49Z</time>
      </trkpt>
      <trkpt lat="47.88978" lon="6.89683">
        <ele>742.1</ele>
        <time>2022-08-29T06:28:50Z</time>
      </trkpt>
      <trkpt lat="47.88978" lon="6.89684">
        <ele>742.2</ele>
        <time>2022-08-29T06:28:51Z</time>
      </trkpt>
      <trkpt lat="47.88978" lon="6.89685">
        <ele>742.2</ele>
        <time>2022-08-29T06:28:52Z</time>
      </trkpt>
      <trkpt lat="47.88978" lon="6.89687">
        <ele>742.3</ele>
        <time>2022-08-29T06:28:53Z</time>
      </trkpt>
      <trkpt lat="47.88978" lon="6.89689">
        <ele>742.3</ele>
        <time>2022-08-29T06:28:54Z</time>
      </trkpt>
      <trkpt lat="47.88979" lon="6.8969">
        <ele>743</ele>
        <time>2022-08-29T06:28:55Z</time>
      </trkpt>
      <trkpt lat="47.88979" lon="6.89692">
        <ele>743.1</ele>
        <time>2022-08-29T06:28:56Z</time>
      </trkpt>
      <trkpt lat="47.88979" lon="6.89694">
        <ele>743.1</ele>
        <time>2022-08-29T06:28:57Z</time>
      </trkpt>
      <trkpt lat="47.8898" lon="6.89696">
        <ele>743.6</ele>
        <time>2022-08-29T06:28:58Z</time>
      </trkpt>
      <trkpt lat="47.8898" lon="6.89698">
        <ele>743.4</ele>
        <time>2022-08-29T06:28:59Z</time>
      </trkpt>
      <trkpt lat="47.8898" lon="6.89699">
        <ele>743.3</ele>
        <time>2022-08-29T06:29:00Z</time>
      </trkpt>
      <trkpt lat="47.88981" lon="6.89701">
        <ele>743.8</ele>
        <time>2022-08-29T06:29:01Z</time>
      </trkpt>
      <trkpt lat="47.88981" lon="6.89702">
        <ele>743.7</ele>
        <time>2022-08-29T06:29:02Z</time>
      </trkpt>
      <trkpt lat="47.88982" lon="6.89703">
        <ele>744.2</ele>
        <time>2022-08-29T06:29:03Z</time>
      </trkpt>
      <trkpt lat="47.88982" lon="6.89705">
        <ele>744</ele>
        <time>2022-08-29T06:29:04Z</time>
      </trkpt>
      <trkpt lat="47.88983" lon="6.89706">
        <ele>744.4</ele>
        <time>2022-08-29T06:29:05Z</time>
      </trkpt>
      <trkpt lat="47.88984" lon="6.89708">
        <ele>744.8</ele>
        <time>2022-08-29T06:29:06Z</time>
      </trkpt>
      <trkpt lat="47.88984" lon="6.8971">
        <ele>744.6</ele>
        <time>2022-08-29T06:29:07Z</time>
      </trkpt>
      <trkpt lat="47.88985" lon="6.89711">
        <ele>745.1</ele>
        <time>2022-08-29T06:29:08Z</time>
      </trkpt>
      <trkpt lat="47.88986" lon="6.89713">
        <ele>745.4</ele>
        <time>2022-08-29T06:29:09Z</time>
      </trkpt>
      <trkpt lat="47.88986" lon="6.89714">
        <ele>745.3</ele>
        <time>2022-08-29T06:29:10Z</time>
      </trkpt>
      <trkpt lat="47.88987" lon="6.89715">
        <ele>745.8</ele>
        <time>2022-08-29T06:29:11Z</time>
      </trkpt>
      <trkpt lat="47.88987" lon="6.89717">
        <ele>745.6</ele>
        <time>2022-08-29T06:29:12Z</time>
      </trkpt>
      <trkpt lat="47.88987" lon="6.89718">
        <ele>745.4</ele>
        <time>2022-08-29T06:29:14Z</time>
      </trkpt>
      <trkpt lat="47.88988" lon="6.89722">
        <ele>745.5</ele>
        <time>2022-08-29T06:29:23Z</time>
      </trkpt>
      <trkpt lat="47.88989" lon="6.89723">
        <ele>746</ele>
        <time>2022-08-29T06:29:24Z</time>
      </trkpt>
      <trkpt lat="47.88989" lon="6.89725">
        <ele>745.7</ele>
        <time>2022-08-29T06:29:25Z</time>
      </trkpt>
      <trkpt lat="47.88989" lon="6.89727">
        <ele>745.5</ele>
        <time>2022-08-29T06:29:26Z</time>
      </trkpt>
      <trkpt lat="47.8899" lon="6.89728">
        <ele>745.9</ele>
        <time>2022-08-29T06:29:27Z</time>
      </trkpt>
      <trkpt lat="47.8899" lon="6.8973">
        <ele>745.6</ele>
        <time>2022-08-29T06:29:28Z</time>
      </trkpt>
      <trkpt lat="47.8899" lon="6.89732">
        <ele>745.3</ele>
        <time>2022-08-29T06:29:29Z</time>
      </trkpt>
      <trkpt lat="47.8899" lon="6.89733">
        <ele>745.2</ele>
        <time>2022-08-29T06:29:30Z</time>
      </trkpt>
      <trkpt lat="47.8899" lon="6.89735">
        <ele>745</ele>
        <time>2022-08-29T06:29:31Z</time>
      </trkpt>
      <trkpt lat="47.8899" lon="6.89736">
        <ele>744.8</ele>
        <time>2022-08-29T06:29:32Z</time>
      </trkpt>
      <trkpt lat="47.88991" lon="6.89738">
        <ele>745</ele>
        <time>2022-08-29T06:29:33Z</time>
      </trkpt>
      <trkpt lat="47.88991" lon="6.89739">
        <ele>744.9</ele>
        <time>2022-08-29T06:29:34Z</time>
      </trkpt>
      <trkpt lat="47.88991" lon="6.8974">
        <ele>744.8</ele>
        <time>2022-08-29T06:29:35Z</time>
      </trkpt>
      <trkpt lat="47.88992" lon="6.89741">
        <ele>745.1</ele>
        <time>2022-08-29T06:29:36Z</time>
      </trkpt>
      <trkpt lat="47.88992" lon="6.89742">
        <ele>744.9</ele>
        <time>2022-08-29T06:29:37Z</time>
      </trkpt>
      <trkpt lat="47.88993" lon="6.89744">
        <ele>745.1</ele>
        <time>2022-08-29T06:29:43Z</time>
      </trkpt>
      <trkpt lat="47.88994" lon="6.89745">
        <ele>745.4</ele>
        <time>2022-08-29T06:29:44Z</time>
      </trkpt>
      <trkpt lat="47.88995" lon="6.89745">
        <ele>745.8</ele>
        <time>2022-08-29T06:29:45Z</time>
      </trkpt>
      <trkpt lat="47.88996" lon="6.89746">
        <ele>746.1</ele>
        <time>2022-08-29T06:29:46Z</time>
      </trkpt>
      <trkpt lat="47.88996" lon="6.89747">
        <ele>745.9</ele>
        <time>2022-08-29T06:29:48Z</time>
      </trkpt>
      <trkpt lat="47.88997" lon="6.89747">
        <ele>746.3</ele>
        <time>2022-08-29T06:29:50Z</time>
      </trkpt>
      <trkpt lat="47.88997" lon="6.89748">
        <ele>746.1</ele>
        <time>2022-08-29T06:29:51Z</time>
      </trkpt>
      <trkpt lat="47.88998" lon="6.89749">
        <ele>746.4</ele>
        <time>2022-08-29T06:29:52Z</time>
      </trkpt>
      <trkpt lat="47.88998" lon="6.8975">
        <ele>746.2</ele>
        <time>2022-08-29T06:29:53Z</time>
      </trkpt>
      <trkpt lat="47.88997" lon="6.89751">
        <ele>745.7</ele>
        <time>2022-08-29T06:29:54Z</time>
      </trkpt>
      <trkpt lat="47.88997" lon="6.89752">
        <ele>745.7</ele>
        <time>2022-08-29T06:29:55Z</time>
      </trkpt>
      <trkpt lat="47.88997" lon="6.89753">
        <ele>745.6</ele>
        <time>2022-08-29T06:29:56Z</time>
      </trkpt>
      <trkpt lat="47.88996" lon="6.89754">
        <ele>745.1</ele>
        <time>2022-08-29T06:29:57Z</time>
      </trkpt>
      <trkpt lat="47.88996" lon="6.89755">
        <ele>745.1</ele>
        <time>2022-08-29T06:29:58Z</time>
      </trkpt>
      <trkpt lat="47.88996" lon="6.89756">
        <ele>745</ele>
        <time>2022-08-29T06:29:59Z</time>
      </trkpt>
      <trkpt lat="47.88995" lon="6.89757">
        <ele>744.5</ele>
        <time>2022-08-29T06:30:00Z</time>
      </trkpt>
      <trkpt lat="47.88995" lon="6.89758">
        <ele>744.4</ele>
        <time>2022-08-29T06:30:01Z</time>
      </trkpt>
      <trkpt lat="47.88995" lon="6.8976">
        <ele>744.3</ele>
        <time>2022-08-29T06:30:02Z</time>
      </trkpt>
      <trkpt lat="47.88996" lon="6.89761">
        <ele>744.6</ele>
        <time>2022-08-29T06:30:03Z</time>
      </trkpt>
      <trkpt lat="47.88996" lon="6.89762">
        <ele>744.6</ele>
        <time>2022-08-29T06:30:04Z</time>
      </trkpt>
      <trkpt lat="47.88996" lon="6.89763">
        <ele>744.5</ele>
        <time>2022-08-29T06:30:05Z</time>
      </trkpt>
      <trkpt lat="47.88996" lon="6.89764">
        <ele>744.4</ele>
        <time>2022-08-29T06:30:06Z</time>
      </trkpt>
      <trkpt lat="47.88996" lon="6.89765">
        <ele>744.3</ele>
        <time>2022-08-29T06:30:07Z</time>
      </trkpt>
      <trkpt lat="47.88997" lon="6.89766">
        <ele>744.7</ele>
        <time>2022-08-29T06:30:09Z</time>
      </trkpt>
      <trkpt lat="47.88997" lon="6.89767">
        <ele>744.6</ele>
        <time>2022-08-29T06:30:10Z</time>
      </trkpt>
      <trkpt lat="47.88997" lon="6.89768">
        <ele>744.5</ele>
        <time>2022-08-29T06:30:11Z</time>
      </trkpt>
      <trkpt lat="47.88997" lon="6.89769">
        <ele>744.4</ele>
        <time>2022-08-29T06:30:13Z</time>
      </trkpt>
      <trkpt lat="47.88997" lon="6.8977">
        <ele>744.4</ele>
        <time>2022-08-29T06:30:14Z</time>
      </trkpt>
      <trkpt lat="47.88998" lon="6.8977">
        <ele>744.8</ele>
        <time>2022-08-29T06:30:15Z</time>
      </trkpt>
      <trkpt lat="47.88998" lon="6.89771">
        <ele>744.7</ele>
        <time>2022-08-29T06:30:16Z</time>
      </trkpt>
      <trkpt lat="47.88998" lon="6.89772">
        <ele>744.6</ele>
        <time>2022-08-29T06:30:17Z</time>
      </trkpt>
      <trkpt lat="47.88999" lon="6.89773">
        <ele>744.9</ele>
        <time>2022-08-29T06:30:18Z</time>
      </trkpt>
      <trkpt lat="47.88999" lon="6.89774">
        <ele>744.9</ele>
        <time>2022-08-29T06:30:19Z</time>
      </trkpt>
      <trkpt lat="47.88999" lon="6.89775">
        <ele>744.8</ele>
        <time>2022-08-29T06:30:20Z</time>
      </trkpt>
      <trkpt lat="47.89" lon="6.89777">
        <ele>745.1</ele>
        <time>2022-08-29T06:30:21Z</time>
      </trkpt>
      <trkpt lat="47.89001" lon="6.89778">
        <ele>745.7</ele>
        <time>2022-08-29T06:30:22Z</time>
      </trkpt>
      <trkpt lat="47.89001" lon="6.8978">
        <ele>745.4</ele>
        <time>2022-08-29T06:30:23Z</time>
      </trkpt>
      <trkpt lat="47.89002" lon="6.89781">
        <ele>746</ele>
        <time>2022-08-29T06:30:24Z</time>
      </trkpt>
      <trkpt lat="47.89003" lon="6.89782">
        <ele>746.6</ele>
        <time>2022-08-29T06:30:25Z</time>
      </trkpt>
      <trkpt lat="47.89003" lon="6.89783">
        <ele>746.5</ele>
        <time>2022-08-29T06:30:26Z</time>
      </trkpt>
      <trkpt lat="47.89004" lon="6.89784">
        <ele>747</ele>
        <time>2022-08-29T06:30:28Z</time>
      </trkpt>
      <trkpt lat="47.89004" lon="6.89785">
        <ele>746.9</ele>
        <time>2022-08-29T06:30:29Z</time>
      </trkpt>
      <trkpt lat="47.89005" lon="6.89787">
        <ele>747.4</ele>
        <time>2022-08-29T06:30:30Z</time>
      </trkpt>
      <trkpt lat="47.89005" lon="6.89788">
        <ele>747.2</ele>
        <time>2022-08-29T06:30:31Z</time>
      </trkpt>
      <trkpt lat="47.89005" lon="6.89789">
        <ele>747.1</ele>
        <time>2022-08-29T06:30:32Z</time>
      </trkpt>
      <trkpt lat="47.89005" lon="6.8979">
        <ele>747</ele>
        <time>2022-08-29T06:30:33Z</time>
      </trkpt>
      <trkpt lat="47.89006" lon="6.89791">
        <ele>747.6</ele>
        <time>2022-08-29T06:30:34Z</time>
      </trkpt>
      <trkpt lat="47.89006" lon="6.89792">
        <ele>747.5</ele>
        <time>2022-08-29T06:30:35Z</time>
      </trkpt>
      <trkpt lat="47.89007" lon="6.89792">
        <ele>748.1</ele>
        <time>2022-08-29T06:30:36Z</time>
      </trkpt>
      <trkpt lat="47.89008" lon="6.89793">
        <ele>748.7</ele>
        <time>2022-08-29T06:30:37Z</time>
      </trkpt>
      <trkpt lat="47.89009" lon="6.89794">
        <ele>749.2</ele>
        <time>2022-08-29T06:30:38Z</time>
      </trkpt>
      <trkpt lat="47.8901" lon="6.89794">
        <ele>749.9</ele>
        <time>2022-08-29T06:30:39Z</time>
      </trkpt>
      <trkpt lat="47.89011" lon="6.89795">
        <ele>750.4</ele>
        <time>2022-08-29T06:30:40Z</time>
      </trkpt>
      <trkpt lat="47.89012" lon="6.89795">
        <ele>751.1</ele>
        <time>2022-08-29T06:30:41Z</time>
      </trkpt>
      <trkpt lat="47.89013" lon="6.89795">
        <ele>751.7</ele>
        <time>2022-08-29T06:30:42Z</time>
      </trkpt>
      <trkpt lat="47.89014" lon="6.89796">
        <ele>752.3</ele>
        <time>2022-08-29T06:30:43Z</time>
      </trkpt>
      <trkpt lat="47.89015" lon="6.89796">
        <ele>752.9</ele>
        <time>2022-08-29T06:30:44Z</time>
      </trkpt>
      <trkpt lat="47.89016" lon="6.89796">
        <ele>753.6</ele>
        <time>2022-08-29T06:30:45Z</time>
      </trkpt>
      <trkpt lat="47.89016" lon="6.89797">
        <ele>753.5</ele>
        <time>2022-08-29T06:30:46Z</time>
      </trkpt>
      <trkpt lat="47.89016" lon="6.89798">
        <ele>753.3</ele>
        <time>2022-08-29T06:30:47Z</time>
      </trkpt>
      <trkpt lat="47.89016" lon="6.89799">
        <ele>753.2</ele>
        <time>2022-08-29T06:30:49Z</time>
      </trkpt>
      <trkpt lat="47.89016" lon="6.898">
        <ele>753.1</ele>
        <time>2022-08-29T06:30:50Z</time>
      </trkpt>
      <trkpt lat="47.89016" lon="6.89801">
        <ele>753</ele>
        <time>2022-08-29T06:30:53Z</time>
      </trkpt>
      <trkpt lat="47.89017" lon="6.89801">
        <ele>753.6</ele>
        <time>2022-08-29T06:30:54Z</time>
      </trkpt>
      <trkpt lat="47.89017" lon="6.89803">
        <ele>753.3</ele>
        <time>2022-08-29T06:30:56Z</time>
      </trkpt>
      <trkpt lat="47.89017" lon="6.89804">
        <ele>753.2</ele>
        <time>2022-08-29T06:30:57Z</time>
      </trkpt>
      <trkpt lat="47.89018" lon="6.89805">
        <ele>753.7</ele>
        <time>2022-08-29T06:30:58Z</time>
      </trkpt>
      <trkpt lat="47.89018" lon="6.89806">
        <ele>753.6</ele>
        <time>2022-08-29T06:30:59Z</time>
      </trkpt>
      <trkpt lat="47.89019" lon="6.89807">
        <ele>754</ele>
        <time>2022-08-29T06:31:11Z</time>
      </trkpt>
      <trkpt lat="47.89019" lon="6.89806">
        <ele>754.2</ele>
        <time>2022-08-29T06:31:16Z</time>
      </trkpt>
      <trkpt lat="47.89019" lon="6.89805">
        <ele>754.4</ele>
        <time>2022-08-29T06:31:17Z</time>
      </trkpt>
      <trkpt lat="47.89018" lon="6.89804">
        <ele>753.9</ele>
        <time>2022-08-29T06:31:19Z</time>
      </trkpt>
      <trkpt lat="47.89018" lon="6.89803">
        <ele>754</ele>
        <time>2022-08-29T06:31:20Z</time>
      </trkpt>
      <trkpt lat="47.89018" lon="6.89801">
        <ele>754.3</ele>
        <time>2022-08-29T06:31:22Z</time>
      </trkpt>
      <trkpt lat="47.89018" lon="6.898">
        <ele>754.4</ele>
        <time>2022-08-29T06:31:23Z</time>
      </trkpt>
      <trkpt lat="47.89018" lon="6.89799">
        <ele>754.5</ele>
        <time>2022-08-29T06:31:24Z</time>
      </trkpt>
      <trkpt lat="47.89018" lon="6.89798">
        <ele>754.7</ele>
        <time>2022-08-29T06:31:25Z</time>
      </trkpt>
      <trkpt lat="47.89018" lon="6.89797">
        <ele>754.8</ele>
        <time>2022-08-29T06:31:26Z</time>
      </trkpt>
      <trkpt lat="47.89018" lon="6.89796">
        <ele>754.9</ele>
        <time>2022-08-29T06:31:28Z</time>
      </trkpt>
      <trkpt lat="47.89018" lon="6.89795">
        <ele>755.1</ele>
        <time>2022-08-29T06:31:30Z</time>
      </trkpt>
      <trkpt lat="47.89018" lon="6.89794">
        <ele>755.2</ele>
        <time>2022-08-29T06:31:31Z</time>
      </trkpt>
      <trkpt lat="47.89018" lon="6.89792">
        <ele>755.4</ele>
        <time>2022-08-29T06:31:32Z</time>
      </trkpt>
      <trkpt lat="47.89019" lon="6.8979">
        <ele>756.4</ele>
        <time>2022-08-29T06:31:33Z</time>
      </trkpt>
      <trkpt lat="47.89019" lon="6.89789">
        <ele>756.5</ele>
        <time>2022-08-29T06:31:34Z</time>
      </trkpt>
      <trkpt lat="47.8902" lon="6.89785">
        <ele>757.7</ele>
        <time>2022-08-29T06:31:51Z</time>
      </trkpt>
      <trkpt lat="47.89021" lon="6.89782">
        <ele>758.8</ele>
        <time>2022-08-29T06:31:52Z</time>
      </trkpt>
      <trkpt lat="47.89022" lon="6.8978">
        <ele>759.7</ele>
        <time>2022-08-29T06:31:53Z</time>
      </trkpt>
      <trkpt lat="47.89022" lon="6.89778">
        <ele>760</ele>
        <time>2022-08-29T06:31:54Z</time>
      </trkpt>
      <trkpt lat="47.89023" lon="6.89777">
        <ele>760.8</ele>
        <time>2022-08-29T06:31:55Z</time>
      </trkpt>
      <trkpt lat="47.89023" lon="6.89776">
        <ele>760.9</ele>
        <time>2022-08-29T06:31:56Z</time>
      </trkpt>
      <trkpt lat="47.89023" lon="6.89775">
        <ele>760.9</ele>
        <time>2022-08-29T06:31:57Z</time>
      </trkpt>
      <trkpt lat="47.89023" lon="6.89774">
        <ele>761</ele>
        <time>2022-08-29T06:31:58Z</time>
      </trkpt>
      <trkpt lat="47.89024" lon="6.89773">
        <ele>761.8</ele>
        <time>2022-08-29T06:31:59Z</time>
      </trkpt>
      <trkpt lat="47.89024" lon="6.89772">
        <ele>761.8</ele>
        <time>2022-08-29T06:32:00Z</time>
      </trkpt>
      <trkpt lat="47.89024" lon="6.8977">
        <ele>762</ele>
        <time>2022-08-29T06:32:01Z</time>
      </trkpt>
      <trkpt lat="47.89024" lon="6.89769">
        <ele>762</ele>
        <time>2022-08-29T06:32:02Z</time>
      </trkpt>
      <trkpt lat="47.89024" lon="6.89763">
        <ele>762.5</ele>
        <time>2022-08-29T06:32:24Z</time>
      </trkpt>
      <trkpt lat="47.89025" lon="6.8976">
        <ele>763.4</ele>
        <time>2022-08-29T06:32:25Z</time>
      </trkpt>
      <trkpt lat="47.89025" lon="6.89756">
        <ele>763.7</ele>
        <time>2022-08-29T06:32:26Z</time>
      </trkpt>
      <trkpt lat="47.89025" lon="6.89755">
        <ele>763.7</ele>
        <time>2022-08-29T06:32:27Z</time>
      </trkpt>
      <trkpt lat="47.89025" lon="6.89754">
        <ele>763.8</ele>
        <time>2022-08-29T06:32:28Z</time>
      </trkpt>
      <trkpt lat="47.89026" lon="6.89752">
        <ele>764.6</ele>
        <time>2022-08-29T06:32:29Z</time>
      </trkpt>
      <trkpt lat="47.89026" lon="6.89751">
        <ele>764.7</ele>
        <time>2022-08-29T06:32:30Z</time>
      </trkpt>
      <trkpt lat="47.89026" lon="6.8975">
        <ele>764.8</ele>
        <time>2022-08-29T06:32:31Z</time>
      </trkpt>
      <trkpt lat="47.89027" lon="6.89748">
        <ele>765.7</ele>
        <time>2022-08-29T06:32:32Z</time>
      </trkpt>
      <trkpt lat="47.89027" lon="6.89747">
        <ele>765.8</ele>
        <time>2022-08-29T06:32:33Z</time>
      </trkpt>
      <trkpt lat="47.89028" lon="6.89741">
        <ele>767.1</ele>
        <time>2022-08-29T06:32:48Z</time>
      </trkpt>
      <trkpt lat="47.89028" lon="6.89738">
        <ele>767.4</ele>
        <time>2022-08-29T06:32:49Z</time>
      </trkpt>
      <trkpt lat="47.89029" lon="6.89735">
        <ele>768.1</ele>
        <time>2022-08-29T06:32:50Z</time>
      </trkpt>
      <trkpt lat="47.89029" lon="6.89733">
        <ele>768.3</ele>
        <time>2022-08-29T06:32:51Z</time>
      </trkpt>
      <trkpt lat="47.8903" lon="6.89731">
        <ele>768.9</ele>
        <time>2022-08-29T06:32:52Z</time>
      </trkpt>
      <trkpt lat="47.8903" lon="6.89729">
        <ele>769.1</ele>
        <time>2022-08-29T06:32:53Z</time>
      </trkpt>
      <trkpt lat="47.89031" lon="6.89728">
        <ele>769.5</ele>
        <time>2022-08-29T06:32:54Z</time>
      </trkpt>
      <trkpt lat="47.89031" lon="6.89727">
        <ele>769.6</ele>
        <time>2022-08-29T06:32:55Z</time>
      </trkpt>
      <trkpt lat="47.89032" lon="6.89726">
        <ele>770.1</ele>
        <time>2022-08-29T06:32:56Z</time>
      </trkpt>
      <trkpt lat="47.89033" lon="6.89725">
        <ele>770.5</ele>
        <time>2022-08-29T06:32:58Z</time>
      </trkpt>
      <trkpt lat="47.89034" lon="6.89725">
        <ele>770.8</ele>
        <time>2022-08-29T06:33:00Z</time>
      </trkpt>
      <trkpt lat="47.89035" lon="6.89725">
        <ele>771.2</ele>
        <time>2022-08-29T06:33:01Z</time>
      </trkpt>
      <trkpt lat="47.89036" lon="6.89725">
        <ele>771.5</ele>
        <time>2022-08-29T06:33:03Z</time>
      </trkpt>
      <trkpt lat="47.89037" lon="6.89726">
        <ele>771.8</ele>
        <time>2022-08-29T06:33:04Z</time>
      </trkpt>
      <trkpt lat="47.89037" lon="6.89727">
        <ele>771.8</ele>
        <time>2022-08-29T06:33:05Z</time>
      </trkpt>
      <trkpt lat="47.89037" lon="6.89728">
        <ele>771.7</ele>
        <time>2022-08-29T06:33:07Z</time>
      </trkpt>
      <trkpt lat="47.89038" lon="6.89729">
        <ele>772</ele>
        <time>2022-08-29T06:33:08Z</time>
      </trkpt>
      <trkpt lat="47.89038" lon="6.8973">
        <ele>772</ele>
        <time>2022-08-29T06:33:09Z</time>
      </trkpt>
      <trkpt lat="47.89039" lon="6.89731">
        <ele>772.3</ele>
        <time>2022-08-29T06:33:10Z</time>
      </trkpt>
      <trkpt lat="47.89039" lon="6.89732">
        <ele>772.3</ele>
        <time>2022-08-29T06:33:11Z</time>
      </trkpt>
      <trkpt lat="47.8904" lon="6.89733">
        <ele>772.6</ele>
        <time>2022-08-29T06:33:12Z</time>
      </trkpt>
      <trkpt lat="47.8904" lon="6.89734">
        <ele>772.6</ele>
        <time>2022-08-29T06:33:13Z</time>
      </trkpt>
      <trkpt lat="47.89041" lon="6.89735">
        <ele>773</ele>
        <time>2022-08-29T06:33:14Z</time>
      </trkpt>
      <trkpt lat="47.89042" lon="6.89736">
        <ele>773.4</ele>
        <time>2022-08-29T06:33:15Z</time>
      </trkpt>
      <trkpt lat="47.89043" lon="6.89736">
        <ele>773.8</ele>
        <time>2022-08-29T06:33:17Z</time>
      </trkpt>
      <trkpt lat="47.89044" lon="6.89736">
        <ele>774.2</ele>
        <time>2022-08-29T06:33:19Z</time>
      </trkpt>
      <trkpt lat="47.89045" lon="6.89736">
        <ele>774.6</ele>
        <time>2022-08-29T06:33:21Z</time>
      </trkpt>
      <trkpt lat="47.89045" lon="6.89737">
        <ele>774.6</ele>
        <time>2022-08-29T06:33:22Z</time>
      </trkpt>
      <trkpt lat="47.8905" lon="6.89739">
        <ele>776.8</ele>
        <time>2022-08-29T06:34:04Z</time>
      </trkpt>
      <trkpt lat="47.89052" lon="6.8974">
        <ele>777.7</ele>
        <time>2022-08-29T06:34:05Z</time>
      </trkpt>
      <trkpt lat="47.89054" lon="6.89741">
        <ele>778.7</ele>
        <time>2022-08-29T06:34:06Z</time>
      </trkpt>
      <trkpt lat="47.89055" lon="6.89741">
        <ele>779.1</ele>
        <time>2022-08-29T06:34:07Z</time>
      </trkpt>
      <trkpt lat="47.89056" lon="6.89742">
        <ele>779.5</ele>
        <time>2022-08-29T06:34:08Z</time>
      </trkpt>
      <trkpt lat="47.89057" lon="6.89743">
        <ele>779.8</ele>
        <time>2022-08-29T06:34:09Z</time>
      </trkpt>
      <trkpt lat="47.89058" lon="6.89743">
        <ele>780</ele>
        <time>2022-08-29T06:34:10Z</time>
      </trkpt>
      <trkpt lat="47.89058" lon="6.89744">
        <ele>780.1</ele>
        <time>2022-08-29T06:34:11Z</time>
      </trkpt>
      <trkpt lat="47.89059" lon="6.89744">
        <ele>780.3</ele>
        <time>2022-08-29T06:34:12Z</time>
      </trkpt>
      <trkpt lat="47.89059" lon="6.89745">
        <ele>780.4</ele>
        <time>2022-08-29T06:34:13Z</time>
      </trkpt>
      <trkpt lat="47.8906" lon="6.89745">
        <ele>780.6</ele>
        <time>2022-08-29T06:34:14Z</time>
      </trkpt>
      <trkpt lat="47.8906" lon="6.89746">
        <ele>780.6</ele>
        <time>2022-08-29T06:34:16Z</time>
      </trkpt>
      <trkpt lat="47.89061" lon="6.89746">
        <ele>780.8</ele>
        <time>2022-08-29T06:34:17Z</time>
      </trkpt>
      <trkpt lat="47.89061" lon="6.89747">
        <ele>780.9</ele>
        <time>2022-08-29T06:34:18Z</time>
      </trkpt>
      <trkpt lat="47.89062" lon="6.89748">
        <ele>781.1</ele>
        <time>2022-08-29T06:34:19Z</time>
      </trkpt>
      <trkpt lat="47.89063" lon="6.89748">
        <ele>781.3</ele>
        <time>2022-08-29T06:34:20Z</time>
      </trkpt>
      <trkpt lat="47.89064" lon="6.89749">
        <ele>781.5</ele>
        <time>2022-08-29T06:34:22Z</time>
      </trkpt>
      <trkpt lat="47.89065" lon="6.89749">
        <ele>781.7</ele>
        <time>2022-08-29T06:34:23Z</time>
      </trkpt>
      <trkpt lat="47.89066" lon="6.8975">
        <ele>781.9</ele>
        <time>2022-08-29T06:34:24Z</time>
      </trkpt>
      <trkpt lat="47.89066" lon="6.89751">
        <ele>782</ele>
        <time>2022-08-29T06:34:26Z</time>
      </trkpt>
      <trkpt lat="47.89067" lon="6.89751">
        <ele>782.2</ele>
        <time>2022-08-29T06:34:27Z</time>
      </trkpt>
      <trkpt lat="47.89067" lon="6.89752">
        <ele>782.4</ele>
        <time>2022-08-29T06:34:28Z</time>
      </trkpt>
      <trkpt lat="47.89068" lon="6.89752">
        <ele>782.6</ele>
        <time>2022-08-29T06:34:29Z</time>
      </trkpt>
      <trkpt lat="47.89068" lon="6.89753">
        <ele>782.7</ele>
        <time>2022-08-29T06:34:31Z</time>
      </trkpt>
      <trkpt lat="47.89069" lon="6.89754">
        <ele>783.1</ele>
        <time>2022-08-29T06:34:32Z</time>
      </trkpt>
      <trkpt lat="47.8907" lon="6.89755">
        <ele>783.4</ele>
        <time>2022-08-29T06:34:34Z</time>
      </trkpt>
      <trkpt lat="47.8907" lon="6.89756">
        <ele>783.6</ele>
        <time>2022-08-29T06:34:35Z</time>
      </trkpt>
      <trkpt lat="47.89071" lon="6.89757">
        <ele>783.9</ele>
        <time>2022-08-29T06:34:36Z</time>
      </trkpt>
      <trkpt lat="47.89072" lon="6.89757">
        <ele>784.1</ele>
        <time>2022-08-29T06:34:38Z</time>
      </trkpt>
      <trkpt lat="47.89073" lon="6.89758">
        <ele>784.5</ele>
        <time>2022-08-29T06:34:39Z</time>
      </trkpt>
      <trkpt lat="47.89074" lon="6.89758">
        <ele>784.7</ele>
        <time>2022-08-29T06:34:40Z</time>
      </trkpt>
      <trkpt lat="47.89075" lon="6.89758">
        <ele>784.9</ele>
        <time>2022-08-29T06:34:41Z</time>
      </trkpt>
      <trkpt lat="47.89075" lon="6.89757">
        <ele>784.7</ele>
        <time>2022-08-29T06:34:42Z</time>
      </trkpt>
      <trkpt lat="47.89076" lon="6.89757">
        <ele>784.9</ele>
        <time>2022-08-29T06:34:43Z</time>
      </trkpt>
      <trkpt lat="47.89077" lon="6.89757">
        <ele>785.1</ele>
        <time>2022-08-29T06:34:44Z</time>
      </trkpt>
      <trkpt lat="47.89078" lon="6.89757">
        <ele>785.3</ele>
        <time>2022-08-29T06:34:45Z</time>
      </trkpt>
      <trkpt lat="47.89079" lon="6.89757">
        <ele>785.4</ele>
        <time>2022-08-29T06:34:47Z</time>
      </trkpt>
      <trkpt lat="47.8908" lon="6.89757">
        <ele>785.6</ele>
        <time>2022-08-29T06:34:48Z</time>
      </trkpt>
      <trkpt lat="47.8908" lon="6.89756">
        <ele>785.5</ele>
        <time>2022-08-29T06:34:49Z</time>
      </trkpt>
      <trkpt lat="47.89081" lon="6.89756">
        <ele>785.6</ele>
        <time>2022-08-29T06:34:50Z</time>
      </trkpt>
      <trkpt lat="47.89082" lon="6.89756">
        <ele>785.8</ele>
        <time>2022-08-29T06:34:51Z</time>
      </trkpt>
      <trkpt lat="47.89083" lon="6.89756">
        <ele>786</ele>
        <time>2022-08-29T06:34:52Z</time>
      </trkpt>
      <trkpt lat="47.89084" lon="6.89756">
        <ele>786.2</ele>
        <time>2022-08-29T06:34:53Z</time>
      </trkpt>
      <trkpt lat="47.89085" lon="6.89756">
        <ele>786.3</ele>
        <time>2022-08-29T06:34:55Z</time>
      </trkpt>
      <trkpt lat="47.89086" lon="6.89757">
        <ele>786.7</ele>
        <time>2022-08-29T06:34:56Z</time>
      </trkpt>
      <trkpt lat="47.89087" lon="6.89757">
        <ele>786.8</ele>
        <time>2022-08-29T06:34:57Z</time>
      </trkpt>
      <trkpt lat="47.89088" lon="6.89758">
        <ele>787.1</ele>
        <time>2022-08-29T06:34:59Z</time>
      </trkpt>
      <trkpt lat="47.89089" lon="6.89758">
        <ele>787.3</ele>
        <time>2022-08-29T06:35:00Z</time>
      </trkpt>
      <trkpt lat="47.8909" lon="6.89759">
        <ele>787.5</ele>
        <time>2022-08-29T06:35:01Z</time>
      </trkpt>
      <trkpt lat="47.89091" lon="6.89759">
        <ele>787.7</ele>
        <time>2022-08-29T06:35:02Z</time>
      </trkpt>
      <trkpt lat="47.89091" lon="6.8976">
        <ele>787.8</ele>
        <time>2022-08-29T06:35:03Z</time>
      </trkpt>
      <trkpt lat="47.89092" lon="6.8976">
        <ele>787.9</ele>
        <time>2022-08-29T06:35:04Z</time>
      </trkpt>
      <trkpt lat="47.89093" lon="6.89761">
        <ele>788.1</ele>
        <time>2022-08-29T06:35:05Z</time>
      </trkpt>
      <trkpt lat="47.89094" lon="6.89761">
        <ele>788.2</ele>
        <time>2022-08-29T06:35:06Z</time>
      </trkpt>
      <trkpt lat="47.89095" lon="6.89761">
        <ele>788.3</ele>
        <time>2022-08-29T06:35:07Z</time>
      </trkpt>
      <trkpt lat="47.89096" lon="6.8976">
        <ele>788.4</ele>
        <time>2022-08-29T06:35:09Z</time>
      </trkpt>
      <trkpt lat="47.89097" lon="6.8976">
        <ele>788.5</ele>
        <time>2022-08-29T06:35:10Z</time>
      </trkpt>
      <trkpt lat="47.89098" lon="6.8976">
        <ele>788.6</ele>
        <time>2022-08-29T06:35:13Z</time>
      </trkpt>
      <trkpt lat="47.89099" lon="6.8976">
        <ele>788.8</ele>
        <time>2022-08-29T06:35:14Z</time>
      </trkpt>
      <trkpt lat="47.891" lon="6.89761">
        <ele>788.9</ele>
        <time>2022-08-29T06:35:15Z</time>
      </trkpt>
      <trkpt lat="47.89101" lon="6.89761">
        <ele>789</ele>
        <time>2022-08-29T06:35:16Z</time>
      </trkpt>
      <trkpt lat="47.89101" lon="6.89762">
        <ele>789.1</ele>
        <time>2022-08-29T06:35:17Z</time>
      </trkpt>
      <trkpt lat="47.89102" lon="6.89763">
        <ele>789.2</ele>
        <time>2022-08-29T06:35:18Z</time>
      </trkpt>
      <trkpt lat="47.89103" lon="6.89764">
        <ele>789.3</ele>
        <time>2022-08-29T06:35:19Z</time>
      </trkpt>
      <trkpt lat="47.89103" lon="6.89766">
        <ele>789.3</ele>
        <time>2022-08-29T06:35:20Z</time>
      </trkpt>
      <trkpt lat="47.89104" lon="6.89767">
        <ele>789.3</ele>
        <time>2022-08-29T06:35:21Z</time>
      </trkpt>
      <trkpt lat="47.89105" lon="6.89768">
        <ele>789.4</ele>
        <time>2022-08-29T06:35:22Z</time>
      </trkpt>
      <trkpt lat="47.89106" lon="6.89769">
        <ele>789.4</ele>
        <time>2022-08-29T06:35:23Z</time>
      </trkpt>
      <trkpt lat="47.89107" lon="6.8977">
        <ele>789.4</ele>
        <time>2022-08-29T06:35:24Z</time>
      </trkpt>
      <trkpt lat="47.89108" lon="6.89771">
        <ele>789.4</ele>
        <time>2022-08-29T06:35:25Z</time>
      </trkpt>
      <trkpt lat="47.89109" lon="6.89773">
        <ele>789.3</ele>
        <time>2022-08-29T06:35:26Z</time>
      </trkpt>
      <trkpt lat="47.8911" lon="6.89774">
        <ele>789.3</ele>
        <time>2022-08-29T06:35:27Z</time>
      </trkpt>
      <trkpt lat="47.8911" lon="6.89775">
        <ele>789.2</ele>
        <time>2022-08-29T06:35:28Z</time>
      </trkpt>
      <trkpt lat="47.89111" lon="6.89776">
        <ele>789.1</ele>
        <time>2022-08-29T06:35:29Z</time>
      </trkpt>
      <trkpt lat="47.89111" lon="6.89777">
        <ele>789.1</ele>
        <time>2022-08-29T06:35:30Z</time>
      </trkpt>
      <trkpt lat="47.89111" lon="6.89778">
        <ele>789</ele>
        <time>2022-08-29T06:35:31Z</time>
      </trkpt>
      <trkpt lat="47.89111" lon="6.8978">
        <ele>789.2</ele>
        <time>2022-08-29T06:35:32Z</time>
      </trkpt>
      <trkpt lat="47.89111" lon="6.89781">
        <ele>789.4</ele>
        <time>2022-08-29T06:35:33Z</time>
      </trkpt>
      <trkpt lat="47.89112" lon="6.89782">
        <ele>789.2</ele>
        <time>2022-08-29T06:35:34Z</time>
      </trkpt>
      <trkpt lat="47.89113" lon="6.89783">
        <ele>789</ele>
        <time>2022-08-29T06:35:35Z</time>
      </trkpt>
      <trkpt lat="47.89113" lon="6.89785">
        <ele>789.3</ele>
        <time>2022-08-29T06:35:36Z</time>
      </trkpt>
      <trkpt lat="47.89114" lon="6.89786">
        <ele>789.1</ele>
        <time>2022-08-29T06:35:37Z</time>
      </trkpt>
      <trkpt lat="47.89114" lon="6.89788">
        <ele>789.3</ele>
        <time>2022-08-29T06:35:38Z</time>
      </trkpt>
      <trkpt lat="47.89115" lon="6.89789">
        <ele>789.1</ele>
        <time>2022-08-29T06:35:39Z</time>
      </trkpt>
      <trkpt lat="47.89115" lon="6.89791">
        <ele>789.4</ele>
        <time>2022-08-29T06:35:40Z</time>
      </trkpt>
      <trkpt lat="47.89115" lon="6.89792">
        <ele>789.5</ele>
        <time>2022-08-29T06:35:41Z</time>
      </trkpt>
      <trkpt lat="47.89115" lon="6.89794">
        <ele>789.7</ele>
        <time>2022-08-29T06:35:42Z</time>
      </trkpt>
      <trkpt lat="47.89116" lon="6.89795">
        <ele>789.6</ele>
        <time>2022-08-29T06:35:43Z</time>
      </trkpt>
      <trkpt lat="47.89116" lon="6.89796">
        <ele>789.7</ele>
        <time>2022-08-29T06:35:44Z</time>
      </trkpt>
      <trkpt lat="47.89116" lon="6.89798">
        <ele>789.9</ele>
        <time>2022-08-29T06:35:45Z</time>
      </trkpt>
      <trkpt lat="47.89116" lon="6.89799">
        <ele>790</ele>
        <time>2022-08-29T06:35:46Z</time>
      </trkpt>
      <trkpt lat="47.89116" lon="6.898">
        <ele>790.1</ele>
        <time>2022-08-29T06:35:47Z</time>
      </trkpt>
      <trkpt lat="47.89116" lon="6.89801">
        <ele>790.2</ele>
        <time>2022-08-29T06:35:48Z</time>
      </trkpt>
      <trkpt lat="47.89117" lon="6.89802">
        <ele>790.1</ele>
        <time>2022-08-29T06:35:49Z</time>
      </trkpt>
      <trkpt lat="47.89117" lon="6.89804">
        <ele>790.3</ele>
        <time>2022-08-29T06:35:50Z</time>
      </trkpt>
      <trkpt lat="47.89118" lon="6.89805">
        <ele>790.2</ele>
        <time>2022-08-29T06:35:51Z</time>
      </trkpt>
      <trkpt lat="47.89119" lon="6.89806">
        <ele>790.1</ele>
        <time>2022-08-29T06:35:52Z</time>
      </trkpt>
      <trkpt lat="47.89121" lon="6.89808">
        <ele>790.1</ele>
        <time>2022-08-29T06:36:00Z</time>
      </trkpt>
      <trkpt lat="47.89122" lon="6.89809">
        <ele>790.1</ele>
        <time>2022-08-29T06:36:01Z</time>
      </trkpt>
      <trkpt lat="47.89123" lon="6.8981">
        <ele>790.1</ele>
        <time>2022-08-29T06:36:03Z</time>
      </trkpt>
      <trkpt lat="47.89123" lon="6.89811">
        <ele>790.3</ele>
        <time>2022-08-29T06:36:04Z</time>
      </trkpt>
      <trkpt lat="47.89123" lon="6.89812">
        <ele>790.6</ele>
        <time>2022-08-29T06:36:05Z</time>
      </trkpt>
      <trkpt lat="47.89123" lon="6.89813">
        <ele>790.8</ele>
        <time>2022-08-29T06:36:06Z</time>
      </trkpt>
      <trkpt lat="47.89124" lon="6.89815">
        <ele>791.1</ele>
        <time>2022-08-29T06:36:07Z</time>
      </trkpt>
      <trkpt lat="47.89124" lon="6.89817">
        <ele>791.6</ele>
        <time>2022-08-29T06:36:08Z</time>
      </trkpt>
      <trkpt lat="47.89124" lon="6.89818">
        <ele>791.8</ele>
        <time>2022-08-29T06:36:15Z</time>
      </trkpt>
      <trkpt lat="47.89125" lon="6.8982">
        <ele>792.1</ele>
        <time>2022-08-29T06:36:16Z</time>
      </trkpt>
      <trkpt lat="47.89126" lon="6.89821">
        <ele>792.2</ele>
        <time>2022-08-29T06:36:17Z</time>
      </trkpt>
      <trkpt lat="47.89126" lon="6.89822">
        <ele>792.5</ele>
        <time>2022-08-29T06:36:18Z</time>
      </trkpt>
      <trkpt lat="47.89127" lon="6.89822">
        <ele>792.3</ele>
        <time>2022-08-29T06:36:19Z</time>
      </trkpt>
      <trkpt lat="47.89128" lon="6.89823">
        <ele>792.4</ele>
        <time>2022-08-29T06:36:20Z</time>
      </trkpt>
      <trkpt lat="47.89129" lon="6.89825">
        <ele>792.8</ele>
        <time>2022-08-29T06:36:21Z</time>
      </trkpt>
      <trkpt lat="47.8913" lon="6.89826">
        <ele>792.9</ele>
        <time>2022-08-29T06:36:22Z</time>
      </trkpt>
      <trkpt lat="47.89131" lon="6.89827">
        <ele>793.1</ele>
        <time>2022-08-29T06:36:23Z</time>
      </trkpt>
      <trkpt lat="47.89131" lon="6.89828">
        <ele>793.3</ele>
        <time>2022-08-29T06:36:24Z</time>
      </trkpt>
      <trkpt lat="47.89132" lon="6.89829">
        <ele>793.5</ele>
        <time>2022-08-29T06:36:25Z</time>
      </trkpt>
      <trkpt lat="47.89133" lon="6.8983">
        <ele>793.7</ele>
        <time>2022-08-29T06:36:27Z</time>
      </trkpt>
      <trkpt lat="47.89134" lon="6.8983">
        <ele>793.5</ele>
        <time>2022-08-29T06:36:29Z</time>
      </trkpt>
      <trkpt lat="47.89135" lon="6.89831">
        <ele>793.7</ele>
        <time>2022-08-29T06:36:31Z</time>
      </trkpt>
      <trkpt lat="47.89136" lon="6.89831">
        <ele>793.6</ele>
        <time>2022-08-29T06:36:32Z</time>
      </trkpt>
      <trkpt lat="47.89137" lon="6.89832">
        <ele>793.8</ele>
        <time>2022-08-29T06:36:33Z</time>
      </trkpt>
      <trkpt lat="47.89138" lon="6.89833">
        <ele>794</ele>
        <time>2022-08-29T06:36:34Z</time>
      </trkpt>
      <trkpt lat="47.89139" lon="6.89833">
        <ele>793.9</ele>
        <time>2022-08-29T06:36:35Z</time>
      </trkpt>
      <trkpt lat="47.8914" lon="6.89834">
        <ele>794</ele>
        <time>2022-08-29T06:36:36Z</time>
      </trkpt>
      <trkpt lat="47.8914" lon="6.89835">
        <ele>794.3</ele>
        <time>2022-08-29T06:36:37Z</time>
      </trkpt>
      <trkpt lat="47.89141" lon="6.89836">
        <ele>794.5</ele>
        <time>2022-08-29T06:36:38Z</time>
      </trkpt>
      <trkpt lat="47.89142" lon="6.89836">
        <ele>794.3</ele>
        <time>2022-08-29T06:36:39Z</time>
      </trkpt>
      <trkpt lat="47.89142" lon="6.89837">
        <ele>794.6</ele>
        <time>2022-08-29T06:36:40Z</time>
      </trkpt>
      <trkpt lat="47.89143" lon="6.89838">
        <ele>794.8</ele>
        <time>2022-08-29T06:36:41Z</time>
      </trkpt>
      <trkpt lat="47.89144" lon="6.89838">
        <ele>794.6</ele>
        <time>2022-08-29T06:36:42Z</time>
      </trkpt>
      <trkpt lat="47.89145" lon="6.89838">
        <ele>794.5</ele>
        <time>2022-08-29T06:37:03Z</time>
      </trkpt>
      <trkpt lat="47.89147" lon="6.89838">
        <ele>794.2</ele>
        <time>2022-08-29T06:37:04Z</time>
      </trkpt>
      <trkpt lat="47.89148" lon="6.89838">
        <ele>794.1</ele>
        <time>2022-08-29T06:37:05Z</time>
      </trkpt>
      <trkpt lat="47.89149" lon="6.89839">
        <ele>794.3</ele>
        <time>2022-08-29T06:37:07Z</time>
      </trkpt>
      <trkpt lat="47.8915" lon="6.8984">
        <ele>794.4</ele>
        <time>2022-08-29T06:37:08Z</time>
      </trkpt>
      <trkpt lat="47.89151" lon="6.8984">
        <ele>794.3</ele>
        <time>2022-08-29T06:37:09Z</time>
      </trkpt>
      <trkpt lat="47.89151" lon="6.89841">
        <ele>794.6</ele>
        <time>2022-08-29T06:37:10Z</time>
      </trkpt>
      <trkpt lat="47.89152" lon="6.89842">
        <ele>794.8</ele>
        <time>2022-08-29T06:37:11Z</time>
      </trkpt>
      <trkpt lat="47.89153" lon="6.89843">
        <ele>794.9</ele>
        <time>2022-08-29T06:37:12Z</time>
      </trkpt>
      <trkpt lat="47.89154" lon="6.89843">
        <ele>794.8</ele>
        <time>2022-08-29T06:37:13Z</time>
      </trkpt>
      <trkpt lat="47.89155" lon="6.89844">
        <ele>795</ele>
        <time>2022-08-29T06:37:14Z</time>
      </trkpt>
      <trkpt lat="47.89156" lon="6.89844">
        <ele>794.8</ele>
        <time>2022-08-29T06:37:15Z</time>
      </trkpt>
      <trkpt lat="47.89156" lon="6.89845">
        <ele>795.2</ele>
        <time>2022-08-29T06:37:16Z</time>
      </trkpt>
      <trkpt lat="47.89157" lon="6.89845">
        <ele>795</ele>
        <time>2022-08-29T06:37:17Z</time>
      </trkpt>
      <trkpt lat="47.89158" lon="6.89846">
        <ele>795.2</ele>
        <time>2022-08-29T06:37:18Z</time>
      </trkpt>
      <trkpt lat="47.89158" lon="6.89847">
        <ele>795.5</ele>
        <time>2022-08-29T06:37:19Z</time>
      </trkpt>
      <trkpt lat="47.89159" lon="6.89848">
        <ele>795.7</ele>
        <time>2022-08-29T06:37:20Z</time>
      </trkpt>
      <trkpt lat="47.8916" lon="6.89848">
        <ele>795.6</ele>
        <time>2022-08-29T06:37:21Z</time>
      </trkpt>
      <trkpt lat="47.8916" lon="6.89849">
        <ele>795.9</ele>
        <time>2022-08-29T06:37:22Z</time>
      </trkpt>
      <trkpt lat="47.89161" lon="6.89849">
        <ele>795.8</ele>
        <time>2022-08-29T06:37:23Z</time>
      </trkpt>
      <trkpt lat="47.89162" lon="6.8985">
        <ele>796</ele>
        <time>2022-08-29T06:37:24Z</time>
      </trkpt>
      <trkpt lat="47.89163" lon="6.89851">
        <ele>796.2</ele>
        <time>2022-08-29T06:37:25Z</time>
      </trkpt>
      <trkpt lat="47.89164" lon="6.89852">
        <ele>796.4</ele>
        <time>2022-08-29T06:37:27Z</time>
      </trkpt>
      <trkpt lat="47.89165" lon="6.89852">
        <ele>796.2</ele>
        <time>2022-08-29T06:37:28Z</time>
      </trkpt>
      <trkpt lat="47.89166" lon="6.89853">
        <ele>796.5</ele>
        <time>2022-08-29T06:37:29Z</time>
      </trkpt>
      <trkpt lat="47.89167" lon="6.89854">
        <ele>796.7</ele>
        <time>2022-08-29T06:37:30Z</time>
      </trkpt>
      <trkpt lat="47.89168" lon="6.89855">
        <ele>797</ele>
        <time>2022-08-29T06:37:31Z</time>
      </trkpt>
      <trkpt lat="47.89169" lon="6.89856">
        <ele>797.2</ele>
        <time>2022-08-29T06:37:32Z</time>
      </trkpt>
      <trkpt lat="47.8917" lon="6.89857">
        <ele>797.5</ele>
        <time>2022-08-29T06:37:33Z</time>
      </trkpt>
      <trkpt lat="47.89171" lon="6.89858">
        <ele>797.7</ele>
        <time>2022-08-29T06:37:34Z</time>
      </trkpt>
      <trkpt lat="47.89171" lon="6.89859">
        <ele>798</ele>
        <time>2022-08-29T06:37:35Z</time>
      </trkpt>
      <trkpt lat="47.89172" lon="6.89859">
        <ele>798</ele>
        <time>2022-08-29T06:37:36Z</time>
      </trkpt>
      <trkpt lat="47.89173" lon="6.8986">
        <ele>798.2</ele>
        <time>2022-08-29T06:37:37Z</time>
      </trkpt>
      <trkpt lat="47.89174" lon="6.8986">
        <ele>798.1</ele>
        <time>2022-08-29T06:37:39Z</time>
      </trkpt>
      <trkpt lat="47.89175" lon="6.8986">
        <ele>798.1</ele>
        <time>2022-08-29T06:37:40Z</time>
      </trkpt>
      <trkpt lat="47.89176" lon="6.89861">
        <ele>798.3</ele>
        <time>2022-08-29T06:37:41Z</time>
      </trkpt>
      <trkpt lat="47.89177" lon="6.89861">
        <ele>798.2</ele>
        <time>2022-08-29T06:37:42Z</time>
      </trkpt>
      <trkpt lat="47.89178" lon="6.89861">
        <ele>798.2</ele>
        <time>2022-08-29T06:37:43Z</time>
      </trkpt>
      <trkpt lat="47.89179" lon="6.89861">
        <ele>798.1</ele>
        <time>2022-08-29T06:37:44Z</time>
      </trkpt>
      <trkpt lat="47.8918" lon="6.89861">
        <ele>798</ele>
        <time>2022-08-29T06:37:46Z</time>
      </trkpt>
      <trkpt lat="47.89181" lon="6.89861">
        <ele>797.9</ele>
        <time>2022-08-29T06:37:47Z</time>
      </trkpt>
      <trkpt lat="47.89182" lon="6.89861">
        <ele>797.9</ele>
        <time>2022-08-29T06:37:48Z</time>
      </trkpt>
      <trkpt lat="47.89183" lon="6.89862">
        <ele>798.1</ele>
        <time>2022-08-29T06:37:49Z</time>
      </trkpt>
      <trkpt lat="47.89184" lon="6.89862">
        <ele>798</ele>
        <time>2022-08-29T06:37:50Z</time>
      </trkpt>
      <trkpt lat="47.89185" lon="6.89862">
        <ele>798</ele>
        <time>2022-08-29T06:37:51Z</time>
      </trkpt>
      <trkpt lat="47.89186" lon="6.89863">
        <ele>798.2</ele>
        <time>2022-08-29T06:37:53Z</time>
      </trkpt>
      <trkpt lat="47.89187" lon="6.89863">
        <ele>798.1</ele>
        <time>2022-08-29T06:37:54Z</time>
      </trkpt>
      <trkpt lat="47.89187" lon="6.89864">
        <ele>798.4</ele>
        <time>2022-08-29T06:37:55Z</time>
      </trkpt>
      <trkpt lat="47.89188" lon="6.89864">
        <ele>798.4</ele>
        <time>2022-08-29T06:37:56Z</time>
      </trkpt>
      <trkpt lat="47.89189" lon="6.89865">
        <ele>798.6</ele>
        <time>2022-08-29T06:37:57Z</time>
      </trkpt>
      <trkpt lat="47.8919" lon="6.89865">
        <ele>798.6</ele>
        <time>2022-08-29T06:37:58Z</time>
      </trkpt>
      <trkpt lat="47.89191" lon="6.89866">
        <ele>798.8</ele>
        <time>2022-08-29T06:37:59Z</time>
      </trkpt>
      <trkpt lat="47.89192" lon="6.89866">
        <ele>798.7</ele>
        <time>2022-08-29T06:38:00Z</time>
      </trkpt>
      <trkpt lat="47.89194" lon="6.89866">
        <ele>798.6</ele>
        <time>2022-08-29T06:38:01Z</time>
      </trkpt>
      <trkpt lat="47.89195" lon="6.89866">
        <ele>798.6</ele>
        <time>2022-08-29T06:38:02Z</time>
      </trkpt>
      <trkpt lat="47.89196" lon="6.89866">
        <ele>798.6</ele>
        <time>2022-08-29T06:38:04Z</time>
      </trkpt>
      <trkpt lat="47.89197" lon="6.89866">
        <ele>798.6</ele>
        <time>2022-08-29T06:38:05Z</time>
      </trkpt>
      <trkpt lat="47.89198" lon="6.89866">
        <ele>798.6</ele>
        <time>2022-08-29T06:38:06Z</time>
      </trkpt>
      <trkpt lat="47.89198" lon="6.89867">
        <ele>799</ele>
        <time>2022-08-29T06:38:07Z</time>
      </trkpt>
      <trkpt lat="47.89199" lon="6.89867">
        <ele>799</ele>
        <time>2022-08-29T06:38:08Z</time>
      </trkpt>
      <trkpt lat="47.892" lon="6.89868">
        <ele>799.3</ele>
        <time>2022-08-29T06:38:09Z</time>
      </trkpt>
      <trkpt lat="47.89201" lon="6.89869">
        <ele>799.6</ele>
        <time>2022-08-29T06:38:10Z</time>
      </trkpt>
      <trkpt lat="47.89202" lon="6.89871">
        <ele>800.2</ele>
        <time>2022-08-29T06:38:11Z</time>
      </trkpt>
      <trkpt lat="47.89203" lon="6.89872">
        <ele>800.5</ele>
        <time>2022-08-29T06:38:12Z</time>
      </trkpt>
      <trkpt lat="47.89204" lon="6.89872">
        <ele>800.5</ele>
        <time>2022-08-29T06:38:13Z</time>
      </trkpt>
      <trkpt lat="47.89205" lon="6.89873">
        <ele>800.7</ele>
        <time>2022-08-29T06:38:14Z</time>
      </trkpt>
      <trkpt lat="47.89206" lon="6.89874">
        <ele>801</ele>
        <time>2022-08-29T06:38:15Z</time>
      </trkpt>
      <trkpt lat="47.89207" lon="6.89875">
        <ele>801.3</ele>
        <time>2022-08-29T06:38:16Z</time>
      </trkpt>
      <trkpt lat="47.89208" lon="6.89875">
        <ele>801.3</ele>
        <time>2022-08-29T06:38:17Z</time>
      </trkpt>
      <trkpt lat="47.89208" lon="6.89876">
        <ele>801.5</ele>
        <time>2022-08-29T06:38:18Z</time>
      </trkpt>
      <trkpt lat="47.89209" lon="6.89877">
        <ele>801.8</ele>
        <time>2022-08-29T06:38:19Z</time>
      </trkpt>
      <trkpt lat="47.8921" lon="6.89878">
        <ele>802</ele>
        <time>2022-08-29T06:38:20Z</time>
      </trkpt>
      <trkpt lat="47.8921" lon="6.89879">
        <ele>802.3</ele>
        <time>2022-08-29T06:38:21Z</time>
      </trkpt>
      <trkpt lat="47.89211" lon="6.8988">
        <ele>802.5</ele>
        <time>2022-08-29T06:38:22Z</time>
      </trkpt>
      <trkpt lat="47.89212" lon="6.89881">
        <ele>802.7</ele>
        <time>2022-08-29T06:38:23Z</time>
      </trkpt>
      <trkpt lat="47.89213" lon="6.89883">
        <ele>803.2</ele>
        <time>2022-08-29T06:38:24Z</time>
      </trkpt>
      <trkpt lat="47.89214" lon="6.89884">
        <ele>803.4</ele>
        <time>2022-08-29T06:38:26Z</time>
      </trkpt>
      <trkpt lat="47.89215" lon="6.89885">
        <ele>803.6</ele>
        <time>2022-08-29T06:38:28Z</time>
      </trkpt>
      <trkpt lat="47.89215" lon="6.89886">
        <ele>803.8</ele>
        <time>2022-08-29T06:38:29Z</time>
      </trkpt>
      <trkpt lat="47.89216" lon="6.89886">
        <ele>803.8</ele>
        <time>2022-08-29T06:38:30Z</time>
      </trkpt>
      <trkpt lat="47.89217" lon="6.89887">
        <ele>803.9</ele>
        <time>2022-08-29T06:38:31Z</time>
      </trkpt>
      <trkpt lat="47.89218" lon="6.89887">
        <ele>803.9</ele>
        <time>2022-08-29T06:38:32Z</time>
      </trkpt>
      <trkpt lat="47.89219" lon="6.89887">
        <ele>803.8</ele>
        <time>2022-08-29T06:38:33Z</time>
      </trkpt>
      <trkpt lat="47.8922" lon="6.89887">
        <ele>803.7</ele>
        <time>2022-08-29T06:38:34Z</time>
      </trkpt>
      <trkpt lat="47.89221" lon="6.89886">
        <ele>803.5</ele>
        <time>2022-08-29T06:38:35Z</time>
      </trkpt>
      <trkpt lat="47.89222" lon="6.89886">
        <ele>803.4</ele>
        <time>2022-08-29T06:38:36Z</time>
      </trkpt>
      <trkpt lat="47.89223" lon="6.89886">
        <ele>803.4</ele>
        <time>2022-08-29T06:38:37Z</time>
      </trkpt>
      <trkpt lat="47.89224" lon="6.89886">
        <ele>803.4</ele>
        <time>2022-08-29T06:38:39Z</time>
      </trkpt>
      <trkpt lat="47.89225" lon="6.89886">
        <ele>803.4</ele>
        <time>2022-08-29T06:38:40Z</time>
      </trkpt>
      <trkpt lat="47.89226" lon="6.89886">
        <ele>803.4</ele>
        <time>2022-08-29T06:38:41Z</time>
      </trkpt>
      <trkpt lat="47.89227" lon="6.89886">
        <ele>803.4</ele>
        <time>2022-08-29T06:38:42Z</time>
      </trkpt>
      <trkpt lat="47.89227" lon="6.89887">
        <ele>803.6</ele>
        <time>2022-08-29T06:38:43Z</time>
      </trkpt>
      <trkpt lat="47.89228" lon="6.89887">
        <ele>803.6</ele>
        <time>2022-08-29T06:38:44Z</time>
      </trkpt>
      <trkpt lat="47.89229" lon="6.89887">
        <ele>803.6</ele>
        <time>2022-08-29T06:38:45Z</time>
      </trkpt>
      <trkpt lat="47.8923" lon="6.89888">
        <ele>803.8</ele>
        <time>2022-08-29T06:38:46Z</time>
      </trkpt>
      <trkpt lat="47.89231" lon="6.89888">
        <ele>803.8</ele>
        <time>2022-08-29T06:38:47Z</time>
      </trkpt>
      <trkpt lat="47.89232" lon="6.89889">
        <ele>804</ele>
        <time>2022-08-29T06:38:48Z</time>
      </trkpt>
      <trkpt lat="47.89233" lon="6.89889">
        <ele>804</ele>
        <time>2022-08-29T06:38:50Z</time>
      </trkpt>
      <trkpt lat="47.89234" lon="6.89889">
        <ele>804</ele>
        <time>2022-08-29T06:38:51Z</time>
      </trkpt>
      <trkpt lat="47.89235" lon="6.89889">
        <ele>804</ele>
        <time>2022-08-29T06:38:52Z</time>
      </trkpt>
      <trkpt lat="47.89236" lon="6.8989">
        <ele>804.3</ele>
        <time>2022-08-29T06:38:53Z</time>
      </trkpt>
      <trkpt lat="47.89237" lon="6.8989">
        <ele>804.3</ele>
        <time>2022-08-29T06:38:54Z</time>
      </trkpt>
      <trkpt lat="47.89238" lon="6.8989">
        <ele>804.3</ele>
        <time>2022-08-29T06:38:55Z</time>
      </trkpt>
      <trkpt lat="47.89239" lon="6.8989">
        <ele>804.3</ele>
        <time>2022-08-29T06:38:56Z</time>
      </trkpt>
      <trkpt lat="47.8924" lon="6.8989">
        <ele>804.3</ele>
        <time>2022-08-29T06:38:57Z</time>
      </trkpt>
      <trkpt lat="47.89241" lon="6.8989">
        <ele>804.3</ele>
        <time>2022-08-29T06:38:58Z</time>
      </trkpt>
      <trkpt lat="47.89242" lon="6.89891">
        <ele>804.5</ele>
        <time>2022-08-29T06:38:59Z</time>
      </trkpt>
      <trkpt lat="47.89243" lon="6.89891">
        <ele>804.5</ele>
        <time>2022-08-29T06:39:00Z</time>
      </trkpt>
      <trkpt lat="47.89244" lon="6.89891">
        <ele>804.5</ele>
        <time>2022-08-29T06:39:01Z</time>
      </trkpt>
      <trkpt lat="47.89246" lon="6.89892">
        <ele>804.8</ele>
        <time>2022-08-29T06:39:02Z</time>
      </trkpt>
      <trkpt lat="47.89247" lon="6.89893">
        <ele>805</ele>
        <time>2022-08-29T06:39:04Z</time>
      </trkpt>
      <trkpt lat="47.89248" lon="6.89893">
        <ele>805</ele>
        <time>2022-08-29T06:39:05Z</time>
      </trkpt>
      <trkpt lat="47.89249" lon="6.89893">
        <ele>805</ele>
        <time>2022-08-29T06:39:06Z</time>
      </trkpt>
      <trkpt lat="47.8925" lon="6.89893">
        <ele>805</ele>
        <time>2022-08-29T06:39:07Z</time>
      </trkpt>
      <trkpt lat="47.89251" lon="6.89893">
        <ele>805.2</ele>
        <time>2022-08-29T06:39:08Z</time>
      </trkpt>
      <trkpt lat="47.89252" lon="6.89893">
        <ele>805.4</ele>
        <time>2022-08-29T06:39:09Z</time>
      </trkpt>
      <trkpt lat="47.89253" lon="6.89893">
        <ele>805.5</ele>
        <time>2022-08-29T06:39:10Z</time>
      </trkpt>
      <trkpt lat="47.89254" lon="6.89893">
        <ele>805.7</ele>
        <time>2022-08-29T06:39:11Z</time>
      </trkpt>
      <trkpt lat="47.89255" lon="6.89893">
        <ele>805.9</ele>
        <time>2022-08-29T06:39:12Z</time>
      </trkpt>
      <trkpt lat="47.89255" lon="6.89892">
        <ele>805.6</ele>
        <time>2022-08-29T06:39:13Z</time>
      </trkpt>
      <trkpt lat="47.89256" lon="6.89892">
        <ele>805.8</ele>
        <time>2022-08-29T06:39:14Z</time>
      </trkpt>
      <trkpt lat="47.89257" lon="6.89891">
        <ele>805.8</ele>
        <time>2022-08-29T06:39:15Z</time>
      </trkpt>
      <trkpt lat="47.89258" lon="6.89891">
        <ele>805.9</ele>
        <time>2022-08-29T06:39:16Z</time>
      </trkpt>
      <trkpt lat="47.89259" lon="6.89891">
        <ele>806.1</ele>
        <time>2022-08-29T06:39:19Z</time>
      </trkpt>
      <trkpt lat="47.8926" lon="6.89891">
        <ele>806.3</ele>
        <time>2022-08-29T06:39:21Z</time>
      </trkpt>
      <trkpt lat="47.89261" lon="6.89892">
        <ele>806.7</ele>
        <time>2022-08-29T06:39:24Z</time>
      </trkpt>
      <trkpt lat="47.89262" lon="6.89892">
        <ele>806.8</ele>
        <time>2022-08-29T06:39:25Z</time>
      </trkpt>
      <trkpt lat="47.89262" lon="6.89893">
        <ele>807.1</ele>
        <time>2022-08-29T06:39:26Z</time>
      </trkpt>
      <trkpt lat="47.89263" lon="6.89894">
        <ele>807.5</ele>
        <time>2022-08-29T06:39:27Z</time>
      </trkpt>
      <trkpt lat="47.89264" lon="6.89895">
        <ele>807.8</ele>
        <time>2022-08-29T06:39:28Z</time>
      </trkpt>
      <trkpt lat="47.89265" lon="6.89895">
        <ele>808</ele>
        <time>2022-08-29T06:39:29Z</time>
      </trkpt>
      <trkpt lat="47.89266" lon="6.89895">
        <ele>808.2</ele>
        <time>2022-08-29T06:39:30Z</time>
      </trkpt>
      <trkpt lat="47.89269" lon="6.89895">
        <ele>808.7</ele>
        <time>2022-08-29T06:39:45Z</time>
      </trkpt>
      <trkpt lat="47.8927" lon="6.89894">
        <ele>808.6</ele>
        <time>2022-08-29T06:39:46Z</time>
      </trkpt>
      <trkpt lat="47.89271" lon="6.89893">
        <ele>808.6</ele>
        <time>2022-08-29T06:39:47Z</time>
      </trkpt>
      <trkpt lat="47.89272" lon="6.89893">
        <ele>808.8</ele>
        <time>2022-08-29T06:39:48Z</time>
      </trkpt>
      <trkpt lat="47.89272" lon="6.89892">
        <ele>808.6</ele>
        <time>2022-08-29T06:39:49Z</time>
      </trkpt>
      <trkpt lat="47.89273" lon="6.89892">
        <ele>808.7</ele>
        <time>2022-08-29T06:39:50Z</time>
      </trkpt>
      <trkpt lat="47.89274" lon="6.89892">
        <ele>808.9</ele>
        <time>2022-08-29T06:39:51Z</time>
      </trkpt>
      <trkpt lat="47.89274" lon="6.89891">
        <ele>808.7</ele>
        <time>2022-08-29T06:39:52Z</time>
      </trkpt>
      <trkpt lat="47.89275" lon="6.89891">
        <ele>808.9</ele>
        <time>2022-08-29T06:39:53Z</time>
      </trkpt>
      <trkpt lat="47.89275" lon="6.8989">
        <ele>808.7</ele>
        <time>2022-08-29T06:39:54Z</time>
      </trkpt>
      <trkpt lat="47.89276" lon="6.8989">
        <ele>808.9</ele>
        <time>2022-08-29T06:39:55Z</time>
      </trkpt>
      <trkpt lat="47.89276" lon="6.89889">
        <ele>808.7</ele>
        <time>2022-08-29T06:39:56Z</time>
      </trkpt>
      <trkpt lat="47.89277" lon="6.89888">
        <ele>808.7</ele>
        <time>2022-08-29T06:39:57Z</time>
      </trkpt>
      <trkpt lat="47.89277" lon="6.89887">
        <ele>808.5</ele>
        <time>2022-08-29T06:39:58Z</time>
      </trkpt>
      <trkpt lat="47.89278" lon="6.89887">
        <ele>808.7</ele>
        <time>2022-08-29T06:39:59Z</time>
      </trkpt>
      <trkpt lat="47.89278" lon="6.89886">
        <ele>808.5</ele>
        <time>2022-08-29T06:40:00Z</time>
      </trkpt>
      <trkpt lat="47.89279" lon="6.89885">
        <ele>808.7</ele>
        <time>2022-08-29T06:40:01Z</time>
      </trkpt>
      <trkpt lat="47.8928" lon="6.89885">
        <ele>809.1</ele>
        <time>2022-08-29T06:40:02Z</time>
      </trkpt>
      <trkpt lat="47.8928" lon="6.89884">
        <ele>808.9</ele>
        <time>2022-08-29T06:40:03Z</time>
      </trkpt>
      <trkpt lat="47.8928" lon="6.89883">
        <ele>808.7</ele>
        <time>2022-08-29T06:40:04Z</time>
      </trkpt>
      <trkpt lat="47.89281" lon="6.89883">
        <ele>809.1</ele>
        <time>2022-08-29T06:40:05Z</time>
      </trkpt>
      <trkpt lat="47.89281" lon="6.89882">
        <ele>808.9</ele>
        <time>2022-08-29T06:40:06Z</time>
      </trkpt>
      <trkpt lat="47.89281" lon="6.89881">
        <ele>808.7</ele>
        <time>2022-08-29T06:40:09Z</time>
      </trkpt>
      <trkpt lat="47.89282" lon="6.8988">
        <ele>808.9</ele>
        <time>2022-08-29T06:40:10Z</time>
      </trkpt>
      <trkpt lat="47.89283" lon="6.89879">
        <ele>809.1</ele>
        <time>2022-08-29T06:40:12Z</time>
      </trkpt>
      <trkpt lat="47.89283" lon="6.89878">
        <ele>808.8</ele>
        <time>2022-08-29T06:40:14Z</time>
      </trkpt>
      <trkpt lat="47.89284" lon="6.89878">
        <ele>809.2</ele>
        <time>2022-08-29T06:40:16Z</time>
      </trkpt>
      <trkpt lat="47.89284" lon="6.89877">
        <ele>809</ele>
        <time>2022-08-29T06:40:17Z</time>
      </trkpt>
      <trkpt lat="47.89285" lon="6.89877">
        <ele>809.4</ele>
        <time>2022-08-29T06:40:18Z</time>
      </trkpt>
      <trkpt lat="47.89286" lon="6.89877">
        <ele>809.9</ele>
        <time>2022-08-29T06:40:19Z</time>
      </trkpt>
      <trkpt lat="47.89286" lon="6.89876">
        <ele>809.6</ele>
        <time>2022-08-29T06:40:20Z</time>
      </trkpt>
      <trkpt lat="47.89287" lon="6.89876">
        <ele>810</ele>
        <time>2022-08-29T06:40:21Z</time>
      </trkpt>
      <trkpt lat="47.89287" lon="6.89875">
        <ele>809.8</ele>
        <time>2022-08-29T06:40:22Z</time>
      </trkpt>
      <trkpt lat="47.89288" lon="6.89874">
        <ele>810</ele>
        <time>2022-08-29T06:40:24Z</time>
      </trkpt>
      <trkpt lat="47.89288" lon="6.89873">
        <ele>809.8</ele>
        <time>2022-08-29T06:40:25Z</time>
      </trkpt>
      <trkpt lat="47.89289" lon="6.89872">
        <ele>810</ele>
        <time>2022-08-29T06:40:26Z</time>
      </trkpt>
      <trkpt lat="47.89289" lon="6.89871">
        <ele>809.7</ele>
        <time>2022-08-29T06:40:27Z</time>
      </trkpt>
      <trkpt lat="47.8929" lon="6.8987">
        <ele>809.9</ele>
        <time>2022-08-29T06:40:29Z</time>
      </trkpt>
      <trkpt lat="47.89291" lon="6.89869">
        <ele>810.1</ele>
        <time>2022-08-29T06:40:31Z</time>
      </trkpt>
      <trkpt lat="47.89292" lon="6.89868">
        <ele>810.2</ele>
        <time>2022-08-29T06:40:32Z</time>
      </trkpt>
      <trkpt lat="47.89293" lon="6.89867">
        <ele>810.4</ele>
        <time>2022-08-29T06:40:34Z</time>
      </trkpt>
      <trkpt lat="47.89294" lon="6.89866">
        <ele>810.6</ele>
        <time>2022-08-29T06:40:35Z</time>
      </trkpt>
      <trkpt lat="47.89295" lon="6.89865">
        <ele>810.7</ele>
        <time>2022-08-29T06:40:37Z</time>
      </trkpt>
      <trkpt lat="47.89296" lon="6.89864">
        <ele>810.9</ele>
        <time>2022-08-29T06:40:38Z</time>
      </trkpt>
      <trkpt lat="47.89296" lon="6.89863">
        <ele>810.7</ele>
        <time>2022-08-29T06:40:39Z</time>
      </trkpt>
      <trkpt lat="47.89297" lon="6.89862">
        <ele>810.8</ele>
        <time>2022-08-29T06:40:40Z</time>
      </trkpt>
      <trkpt lat="47.89297" lon="6.89861">
        <ele>810.6</ele>
        <time>2022-08-29T06:40:41Z</time>
      </trkpt>
      <trkpt lat="47.89298" lon="6.89861">
        <ele>811</ele>
        <time>2022-08-29T06:40:42Z</time>
      </trkpt>
      <trkpt lat="47.89298" lon="6.8986">
        <ele>810.8</ele>
        <time>2022-08-29T06:40:43Z</time>
      </trkpt>
      <trkpt lat="47.89299" lon="6.8986">
        <ele>811.2</ele>
        <time>2022-08-29T06:40:44Z</time>
      </trkpt>
      <trkpt lat="47.893" lon="6.89859">
        <ele>811.4</ele>
        <time>2022-08-29T06:40:45Z</time>
      </trkpt>
      <trkpt lat="47.89301" lon="6.89859">
        <ele>811.8</ele>
        <time>2022-08-29T06:40:47Z</time>
      </trkpt>
      <trkpt lat="47.89302" lon="6.8986">
        <ele>812.4</ele>
        <time>2022-08-29T06:40:48Z</time>
      </trkpt>
      <trkpt lat="47.89303" lon="6.8986">
        <ele>812.8</ele>
        <time>2022-08-29T06:40:49Z</time>
      </trkpt>
      <trkpt lat="47.89303" lon="6.89861">
        <ele>813</ele>
        <time>2022-08-29T06:40:50Z</time>
      </trkpt>
      <trkpt lat="47.89304" lon="6.89862">
        <ele>813.6</ele>
        <time>2022-08-29T06:40:51Z</time>
      </trkpt>
      <trkpt lat="47.89305" lon="6.89862">
        <ele>814</ele>
        <time>2022-08-29T06:40:53Z</time>
      </trkpt>
      <trkpt lat="47.89306" lon="6.89863">
        <ele>814.7</ele>
        <time>2022-08-29T06:40:54Z</time>
      </trkpt>
      <trkpt lat="47.89307" lon="6.89863">
        <ele>815.1</ele>
        <time>2022-08-29T06:40:56Z</time>
      </trkpt>
      <trkpt lat="47.8931" lon="6.89862">
        <ele>816.1</ele>
        <time>2022-08-29T06:41:07Z</time>
      </trkpt>
      <trkpt lat="47.89311" lon="6.89862">
        <ele>816.6</ele>
        <time>2022-08-29T06:41:08Z</time>
      </trkpt>
      <trkpt lat="47.89312" lon="6.89862">
        <ele>817</ele>
        <time>2022-08-29T06:41:09Z</time>
      </trkpt>
      <trkpt lat="47.89313" lon="6.89862">
        <ele>817.4</ele>
        <time>2022-08-29T06:41:10Z</time>
      </trkpt>
      <trkpt lat="47.89313" lon="6.89861">
        <ele>817.2</ele>
        <time>2022-08-29T06:41:11Z</time>
      </trkpt>
      <trkpt lat="47.89314" lon="6.89861">
        <ele>817.6</ele>
        <time>2022-08-29T06:41:12Z</time>
      </trkpt>
      <trkpt lat="47.89315" lon="6.8986">
        <ele>817.9</ele>
        <time>2022-08-29T06:41:14Z</time>
      </trkpt>
      <trkpt lat="47.89316" lon="6.8986">
        <ele>818.3</ele>
        <time>2022-08-29T06:41:15Z</time>
      </trkpt>
      <trkpt lat="47.89316" lon="6.89859">
        <ele>818.1</ele>
        <time>2022-08-29T06:41:16Z</time>
      </trkpt>
      <trkpt lat="47.89317" lon="6.89858">
        <ele>818.3</ele>
        <time>2022-08-29T06:41:17Z</time>
      </trkpt>
      <trkpt lat="47.89318" lon="6.89857">
        <ele>818.5</ele>
        <time>2022-08-29T06:41:19Z</time>
      </trkpt>
      <trkpt lat="47.89319" lon="6.89856">
        <ele>818.7</ele>
        <time>2022-08-29T06:41:20Z</time>
      </trkpt>
      <trkpt lat="47.8932" lon="6.89855">
        <ele>818.9</ele>
        <time>2022-08-29T06:41:22Z</time>
      </trkpt>
      <trkpt lat="47.89321" lon="6.89854">
        <ele>819.1</ele>
        <time>2022-08-29T06:41:24Z</time>
      </trkpt>
      <trkpt lat="47.89322" lon="6.89853">
        <ele>819.3</ele>
        <time>2022-08-29T06:41:26Z</time>
      </trkpt>
      <trkpt lat="47.89323" lon="6.89853">
        <ele>819.7</ele>
        <time>2022-08-29T06:41:27Z</time>
      </trkpt>
      <trkpt lat="47.89324" lon="6.89852">
        <ele>819.9</ele>
        <time>2022-08-29T06:41:28Z</time>
      </trkpt>
      <trkpt lat="47.89324" lon="6.89851">
        <ele>819.7</ele>
        <time>2022-08-29T06:41:30Z</time>
      </trkpt>
      <trkpt lat="47.89325" lon="6.8985">
        <ele>819.8</ele>
        <time>2022-08-29T06:41:31Z</time>
      </trkpt>
      <trkpt lat="47.89325" lon="6.89849">
        <ele>819.6</ele>
        <time>2022-08-29T06:41:32Z</time>
      </trkpt>
      <trkpt lat="47.89325" lon="6.89848">
        <ele>819.4</ele>
        <time>2022-08-29T06:41:33Z</time>
      </trkpt>
      <trkpt lat="47.89326" lon="6.89847">
        <ele>819.5</ele>
        <time>2022-08-29T06:41:34Z</time>
      </trkpt>
      <trkpt lat="47.89327" lon="6.89846">
        <ele>819.7</ele>
        <time>2022-08-29T06:41:36Z</time>
      </trkpt>
      <trkpt lat="47.89328" lon="6.89845">
        <ele>819.9</ele>
        <time>2022-08-29T06:41:37Z</time>
      </trkpt>
      <trkpt lat="47.89329" lon="6.89845">
        <ele>820.2</ele>
        <time>2022-08-29T06:41:38Z</time>
      </trkpt>
      <trkpt lat="47.8933" lon="6.89845">
        <ele>820.6</ele>
        <time>2022-08-29T06:41:39Z</time>
      </trkpt>
      <trkpt lat="47.89331" lon="6.89845">
        <ele>821</ele>
        <time>2022-08-29T06:41:40Z</time>
      </trkpt>
      <trkpt lat="47.89331" lon="6.89846">
        <ele>821.3</ele>
        <time>2022-08-29T06:41:41Z</time>
      </trkpt>
      <trkpt lat="47.89332" lon="6.89846">
        <ele>821.7</ele>
        <time>2022-08-29T06:41:42Z</time>
      </trkpt>
      <trkpt lat="47.89333" lon="6.89846">
        <ele>822.1</ele>
        <time>2022-08-29T06:41:43Z</time>
      </trkpt>
      <trkpt lat="47.89334" lon="6.89847">
        <ele>822.6</ele>
        <time>2022-08-29T06:41:44Z</time>
      </trkpt>
      <trkpt lat="47.89335" lon="6.89847">
        <ele>822.8</ele>
        <time>2022-08-29T06:41:46Z</time>
      </trkpt>
      <trkpt lat="47.89336" lon="6.89847">
        <ele>823.1</ele>
        <time>2022-08-29T06:41:48Z</time>
      </trkpt>
      <trkpt lat="47.89337" lon="6.89847">
        <ele>823.3</ele>
        <time>2022-08-29T06:41:50Z</time>
      </trkpt>
      <trkpt lat="47.89338" lon="6.89846">
        <ele>823.3</ele>
        <time>2022-08-29T06:41:51Z</time>
      </trkpt>
      <trkpt lat="47.89339" lon="6.89845">
        <ele>823.2</ele>
        <time>2022-08-29T06:41:53Z</time>
      </trkpt>
      <trkpt lat="47.8934" lon="6.89845">
        <ele>823.5</ele>
        <time>2022-08-29T06:41:55Z</time>
      </trkpt>
      <trkpt lat="47.8934" lon="6.89844">
        <ele>823.2</ele>
        <time>2022-08-29T06:41:56Z</time>
      </trkpt>
      <trkpt lat="47.89341" lon="6.89844">
        <ele>823.4</ele>
        <time>2022-08-29T06:41:57Z</time>
      </trkpt>
      <trkpt lat="47.89342" lon="6.89844">
        <ele>823.7</ele>
        <time>2022-08-29T06:42:04Z</time>
      </trkpt>
      <trkpt lat="47.89343" lon="6.89843">
        <ele>823.6</ele>
        <time>2022-08-29T06:42:05Z</time>
      </trkpt>
      <trkpt lat="47.89344" lon="6.89843">
        <ele>823.9</ele>
        <time>2022-08-29T06:42:06Z</time>
      </trkpt>
      <trkpt lat="47.89345" lon="6.89843">
        <ele>824.1</ele>
        <time>2022-08-29T06:42:07Z</time>
      </trkpt>
      <trkpt lat="47.89345" lon="6.89844">
        <ele>824.4</ele>
        <time>2022-08-29T06:42:08Z</time>
      </trkpt>
      <trkpt lat="47.89346" lon="6.89844">
        <ele>824.6</ele>
        <time>2022-08-29T06:42:09Z</time>
      </trkpt>
      <trkpt lat="47.89347" lon="6.89844">
        <ele>824.8</ele>
        <time>2022-08-29T06:42:10Z</time>
      </trkpt>
      <trkpt lat="47.89348" lon="6.89845">
        <ele>825.3</ele>
        <time>2022-08-29T06:42:12Z</time>
      </trkpt>
      <trkpt lat="47.89349" lon="6.89845">
        <ele>825.6</ele>
        <time>2022-08-29T06:42:13Z</time>
      </trkpt>
      <trkpt lat="47.89349" lon="6.89846">
        <ele>825.8</ele>
        <time>2022-08-29T06:42:15Z</time>
      </trkpt>
      <trkpt lat="47.8935" lon="6.89846">
        <ele>826.1</ele>
        <time>2022-08-29T06:42:16Z</time>
      </trkpt>
      <trkpt lat="47.89351" lon="6.89846">
        <ele>826.3</ele>
        <time>2022-08-29T06:42:18Z</time>
      </trkpt>
      <trkpt lat="47.89352" lon="6.89846">
        <ele>826.5</ele>
        <time>2022-08-29T06:42:19Z</time>
      </trkpt>
      <trkpt lat="47.89353" lon="6.89845">
        <ele>826.5</ele>
        <time>2022-08-29T06:42:21Z</time>
      </trkpt>
      <trkpt lat="47.89354" lon="6.89845">
        <ele>826.7</ele>
        <time>2022-08-29T06:42:22Z</time>
      </trkpt>
      <trkpt lat="47.89355" lon="6.89845">
        <ele>826.9</ele>
        <time>2022-08-29T06:42:23Z</time>
      </trkpt>
      <trkpt lat="47.89356" lon="6.89845">
        <ele>827.2</ele>
        <time>2022-08-29T06:42:24Z</time>
      </trkpt>
      <trkpt lat="47.89356" lon="6.89844">
        <ele>826.9</ele>
        <time>2022-08-29T06:42:25Z</time>
      </trkpt>
      <trkpt lat="47.89357" lon="6.89844">
        <ele>827.1</ele>
        <time>2022-08-29T06:42:26Z</time>
      </trkpt>
      <trkpt lat="47.89357" lon="6.89843">
        <ele>826.8</ele>
        <time>2022-08-29T06:42:28Z</time>
      </trkpt>
      <trkpt lat="47.89358" lon="6.89842">
        <ele>826.8</ele>
        <time>2022-08-29T06:42:29Z</time>
      </trkpt>
      <trkpt lat="47.89359" lon="6.89841">
        <ele>826.7</ele>
        <time>2022-08-29T06:42:30Z</time>
      </trkpt>
      <trkpt lat="47.8936" lon="6.8984">
        <ele>826.7</ele>
        <time>2022-08-29T06:42:32Z</time>
      </trkpt>
      <trkpt lat="47.8936" lon="6.89839">
        <ele>826.4</ele>
        <time>2022-08-29T06:42:33Z</time>
      </trkpt>
      <trkpt lat="47.89361" lon="6.89839">
        <ele>826.6</ele>
        <time>2022-08-29T06:42:34Z</time>
      </trkpt>
      <trkpt lat="47.89361" lon="6.89838">
        <ele>826.3</ele>
        <time>2022-08-29T06:42:35Z</time>
      </trkpt>
      <trkpt lat="47.89362" lon="6.89837">
        <ele>826.3</ele>
        <time>2022-08-29T06:42:36Z</time>
      </trkpt>
      <trkpt lat="47.89363" lon="6.89836">
        <ele>826.2</ele>
        <time>2022-08-29T06:42:38Z</time>
      </trkpt>
      <trkpt lat="47.89364" lon="6.89836">
        <ele>826.4</ele>
        <time>2022-08-29T06:42:39Z</time>
      </trkpt>
      <trkpt lat="47.89365" lon="6.89836">
        <ele>826.6</ele>
        <time>2022-08-29T06:42:41Z</time>
      </trkpt>
      <trkpt lat="47.89366" lon="6.89836">
        <ele>826.9</ele>
        <time>2022-08-29T06:42:42Z</time>
      </trkpt>
      <trkpt lat="47.89367" lon="6.89835">
        <ele>826.8</ele>
        <time>2022-08-29T06:42:43Z</time>
      </trkpt>
      <trkpt lat="47.89368" lon="6.89834">
        <ele>826.7</ele>
        <time>2022-08-29T06:42:45Z</time>
      </trkpt>
      <trkpt lat="47.89368" lon="6.89833">
        <ele>826.4</ele>
        <time>2022-08-29T06:42:46Z</time>
      </trkpt>
      <trkpt lat="47.89369" lon="6.89833">
        <ele>826.6</ele>
        <time>2022-08-29T06:42:47Z</time>
      </trkpt>
      <trkpt lat="47.8937" lon="6.89832">
        <ele>826.5</ele>
        <time>2022-08-29T06:42:48Z</time>
      </trkpt>
      <trkpt lat="47.89371" lon="6.89832">
        <ele>826.7</ele>
        <time>2022-08-29T06:42:50Z</time>
      </trkpt>
      <trkpt lat="47.89372" lon="6.89832">
        <ele>826.9</ele>
        <time>2022-08-29T06:42:51Z</time>
      </trkpt>
      <trkpt lat="47.89373" lon="6.89832">
        <ele>827.1</ele>
        <time>2022-08-29T06:42:53Z</time>
      </trkpt>
      <trkpt lat="47.89374" lon="6.89832">
        <ele>827.3</ele>
        <time>2022-08-29T06:42:54Z</time>
      </trkpt>
      <trkpt lat="47.89375" lon="6.89832">
        <ele>827.5</ele>
        <time>2022-08-29T06:42:55Z</time>
      </trkpt>
      <trkpt lat="47.89376" lon="6.89832">
        <ele>827.8</ele>
        <time>2022-08-29T06:42:56Z</time>
      </trkpt>
      <trkpt lat="47.89377" lon="6.89832">
        <ele>828</ele>
        <time>2022-08-29T06:42:58Z</time>
      </trkpt>
      <trkpt lat="47.89378" lon="6.89832">
        <ele>828.2</ele>
        <time>2022-08-29T06:43:03Z</time>
      </trkpt>
      <trkpt lat="47.89379" lon="6.89832">
        <ele>828.4</ele>
        <time>2022-08-29T06:43:04Z</time>
      </trkpt>
      <trkpt lat="47.8938" lon="6.89832">
        <ele>828.6</ele>
        <time>2022-08-29T06:43:05Z</time>
      </trkpt>
      <trkpt lat="47.8938" lon="6.89831">
        <ele>828.2</ele>
        <time>2022-08-29T06:43:06Z</time>
      </trkpt>
      <trkpt lat="47.89382" lon="6.89831">
        <ele>828.7</ele>
        <time>2022-08-29T06:43:14Z</time>
      </trkpt>
      <trkpt lat="47.89383" lon="6.8983">
        <ele>828.5</ele>
        <time>2022-08-29T06:43:15Z</time>
      </trkpt>
      <trkpt lat="47.89384" lon="6.8983">
        <ele>828.7</ele>
        <time>2022-08-29T06:43:16Z</time>
      </trkpt>
      <trkpt lat="47.89387" lon="6.8983">
        <ele>829.3</ele>
        <time>2022-08-29T06:43:23Z</time>
      </trkpt>
      <trkpt lat="47.89388" lon="6.89831">
        <ele>829.9</ele>
        <time>2022-08-29T06:43:24Z</time>
      </trkpt>
      <trkpt lat="47.89389" lon="6.89831">
        <ele>830.1</ele>
        <time>2022-08-29T06:43:25Z</time>
      </trkpt>
      <trkpt lat="47.8939" lon="6.89831">
        <ele>830.2</ele>
        <time>2022-08-29T06:43:26Z</time>
      </trkpt>
      <trkpt lat="47.89391" lon="6.89832">
        <ele>830.6</ele>
        <time>2022-08-29T06:43:27Z</time>
      </trkpt>
      <trkpt lat="47.89392" lon="6.89832">
        <ele>830.7</ele>
        <time>2022-08-29T06:43:28Z</time>
      </trkpt>
      <trkpt lat="47.89393" lon="6.89832">
        <ele>830.8</ele>
        <time>2022-08-29T06:43:30Z</time>
      </trkpt>
      <trkpt lat="47.89394" lon="6.89833">
        <ele>831.2</ele>
        <time>2022-08-29T06:43:31Z</time>
      </trkpt>
      <trkpt lat="47.89395" lon="6.89833">
        <ele>831.3</ele>
        <time>2022-08-29T06:43:33Z</time>
      </trkpt>
      <trkpt lat="47.89396" lon="6.89834">
        <ele>831.8</ele>
        <time>2022-08-29T06:43:34Z</time>
      </trkpt>
      <trkpt lat="47.89397" lon="6.89835">
        <ele>832.2</ele>
        <time>2022-08-29T06:43:35Z</time>
      </trkpt>
      <trkpt lat="47.89398" lon="6.89835">
        <ele>832.3</ele>
        <time>2022-08-29T06:43:36Z</time>
      </trkpt>
      <trkpt lat="47.89399" lon="6.89836">
        <ele>832.7</ele>
        <time>2022-08-29T06:43:37Z</time>
      </trkpt>
      <trkpt lat="47.894" lon="6.89837">
        <ele>833.2</ele>
        <time>2022-08-29T06:43:38Z</time>
      </trkpt>
      <trkpt lat="47.89401" lon="6.89837">
        <ele>833.3</ele>
        <time>2022-08-29T06:43:39Z</time>
      </trkpt>
      <trkpt lat="47.89402" lon="6.89838">
        <ele>833.7</ele>
        <time>2022-08-29T06:43:40Z</time>
      </trkpt>
      <trkpt lat="47.89403" lon="6.89838">
        <ele>833.8</ele>
        <time>2022-08-29T06:43:43Z</time>
      </trkpt>
      <trkpt lat="47.89403" lon="6.89839">
        <ele>834.2</ele>
        <time>2022-08-29T06:43:44Z</time>
      </trkpt>
      <trkpt lat="47.89404" lon="6.8984">
        <ele>834.6</ele>
        <time>2022-08-29T06:43:48Z</time>
      </trkpt>
      <trkpt lat="47.89404" lon="6.89841">
        <ele>835</ele>
        <time>2022-08-29T06:43:49Z</time>
      </trkpt>
      <trkpt lat="47.89405" lon="6.89841">
        <ele>835</ele>
        <time>2022-08-29T06:43:50Z</time>
      </trkpt>
      <trkpt lat="47.89405" lon="6.89842">
        <ele>835.4</ele>
        <time>2022-08-29T06:43:51Z</time>
      </trkpt>
      <trkpt lat="47.89406" lon="6.89842">
        <ele>835.5</ele>
        <time>2022-08-29T06:43:52Z</time>
      </trkpt>
      <trkpt lat="47.89407" lon="6.89843">
        <ele>835.9</ele>
        <time>2022-08-29T06:43:54Z</time>
      </trkpt>
      <trkpt lat="47.89407" lon="6.89844">
        <ele>836.3</ele>
        <time>2022-08-29T06:43:55Z</time>
      </trkpt>
      <trkpt lat="47.89408" lon="6.89844">
        <ele>836.3</ele>
        <time>2022-08-29T06:43:56Z</time>
      </trkpt>
      <trkpt lat="47.89409" lon="6.89845">
        <ele>836.8</ele>
        <time>2022-08-29T06:43:57Z</time>
      </trkpt>
      <trkpt lat="47.8941" lon="6.89846">
        <ele>837.2</ele>
        <time>2022-08-29T06:43:59Z</time>
      </trkpt>
      <trkpt lat="47.89411" lon="6.89846">
        <ele>837.2</ele>
        <time>2022-08-29T06:44:00Z</time>
      </trkpt>
      <trkpt lat="47.89412" lon="6.89847">
        <ele>837.7</ele>
        <time>2022-08-29T06:44:02Z</time>
      </trkpt>
      <trkpt lat="47.89413" lon="6.89847">
        <ele>837.7</ele>
        <time>2022-08-29T06:44:03Z</time>
      </trkpt>
      <trkpt lat="47.89413" lon="6.89848">
        <ele>838.1</ele>
        <time>2022-08-29T06:44:04Z</time>
      </trkpt>
      <trkpt lat="47.89414" lon="6.89848">
        <ele>838.1</ele>
        <time>2022-08-29T06:44:05Z</time>
      </trkpt>
      <trkpt lat="47.89415" lon="6.89849">
        <ele>838.6</ele>
        <time>2022-08-29T06:44:06Z</time>
      </trkpt>
      <trkpt lat="47.89416" lon="6.89851">
        <ele>839.3</ele>
        <time>2022-08-29T06:44:07Z</time>
      </trkpt>
      <trkpt lat="47.89416" lon="6.89852">
        <ele>839.7</ele>
        <time>2022-08-29T06:44:08Z</time>
      </trkpt>
      <trkpt lat="47.89417" lon="6.89854">
        <ele>840.4</ele>
        <time>2022-08-29T06:44:09Z</time>
      </trkpt>
      <trkpt lat="47.89418" lon="6.89855">
        <ele>840.5</ele>
        <time>2022-08-29T06:44:10Z</time>
      </trkpt>
      <trkpt lat="47.89419" lon="6.89857">
        <ele>841.1</ele>
        <time>2022-08-29T06:44:11Z</time>
      </trkpt>
      <trkpt lat="47.89419" lon="6.89859">
        <ele>841.8</ele>
        <time>2022-08-29T06:44:12Z</time>
      </trkpt>
      <trkpt lat="47.8942" lon="6.8986">
        <ele>841.9</ele>
        <time>2022-08-29T06:44:14Z</time>
      </trkpt>
      <trkpt lat="47.8942" lon="6.89861">
        <ele>842.2</ele>
        <time>2022-08-29T06:44:15Z</time>
      </trkpt>
      <trkpt lat="47.89421" lon="6.89862">
        <ele>842.4</ele>
        <time>2022-08-29T06:44:17Z</time>
      </trkpt>
      <trkpt lat="47.89421" lon="6.89863">
        <ele>842.8</ele>
        <time>2022-08-29T06:44:18Z</time>
      </trkpt>
      <trkpt lat="47.89421" lon="6.89864">
        <ele>843.2</ele>
        <time>2022-08-29T06:44:19Z</time>
      </trkpt>
      <trkpt lat="47.89422" lon="6.89864">
        <ele>843</ele>
        <time>2022-08-29T06:44:20Z</time>
      </trkpt>
      <trkpt lat="47.89423" lon="6.89866">
        <ele>843.5</ele>
        <time>2022-08-29T06:44:34Z</time>
      </trkpt>
      <trkpt lat="47.89424" lon="6.89866">
        <ele>843.3</ele>
        <time>2022-08-29T06:44:35Z</time>
      </trkpt>
      <trkpt lat="47.89425" lon="6.89866">
        <ele>843.1</ele>
        <time>2022-08-29T06:44:37Z</time>
      </trkpt>
      <trkpt lat="47.89425" lon="6.89867">
        <ele>843.5</ele>
        <time>2022-08-29T06:44:38Z</time>
      </trkpt>
      <trkpt lat="47.89426" lon="6.89867">
        <ele>843.2</ele>
        <time>2022-08-29T06:44:39Z</time>
      </trkpt>
      <trkpt lat="47.89427" lon="6.89867">
        <ele>843</ele>
        <time>2022-08-29T06:44:41Z</time>
      </trkpt>
      <trkpt lat="47.89427" lon="6.89868">
        <ele>843.4</ele>
        <time>2022-08-29T06:44:42Z</time>
      </trkpt>
      <trkpt lat="47.89428" lon="6.89868">
        <ele>843.2</ele>
        <time>2022-08-29T06:44:43Z</time>
      </trkpt>
      <trkpt lat="47.89429" lon="6.89869">
        <ele>843.3</ele>
        <time>2022-08-29T06:44:44Z</time>
      </trkpt>
      <trkpt lat="47.89429" lon="6.8987">
        <ele>843.7</ele>
        <time>2022-08-29T06:44:45Z</time>
      </trkpt>
      <trkpt lat="47.8943" lon="6.89871">
        <ele>843.9</ele>
        <time>2022-08-29T06:44:46Z</time>
      </trkpt>
      <trkpt lat="47.89432" lon="6.89873">
        <ele>844.2</ele>
        <time>2022-08-29T06:44:56Z</time>
      </trkpt>
      <trkpt lat="47.89433" lon="6.89875">
        <ele>844.7</ele>
        <time>2022-08-29T06:44:57Z</time>
      </trkpt>
      <trkpt lat="47.89434" lon="6.89876">
        <ele>844.8</ele>
        <time>2022-08-29T06:44:58Z</time>
      </trkpt>
      <trkpt lat="47.89435" lon="6.89877">
        <ele>845</ele>
        <time>2022-08-29T06:45:00Z</time>
      </trkpt>
      <trkpt lat="47.89436" lon="6.89878">
        <ele>845.1</ele>
        <time>2022-08-29T06:45:01Z</time>
      </trkpt>
      <trkpt lat="47.89437" lon="6.89878">
        <ele>844.9</ele>
        <time>2022-08-29T06:45:03Z</time>
      </trkpt>
      <trkpt lat="47.89438" lon="6.89879">
        <ele>845</ele>
        <time>2022-08-29T06:45:04Z</time>
      </trkpt>
      <trkpt lat="47.89439" lon="6.8988">
        <ele>845.1</ele>
        <time>2022-08-29T06:45:06Z</time>
      </trkpt>
      <trkpt lat="47.89439" lon="6.89881">
        <ele>845.5</ele>
        <time>2022-08-29T06:45:07Z</time>
      </trkpt>
      <trkpt lat="47.8944" lon="6.89882">
        <ele>845.6</ele>
        <time>2022-08-29T06:45:08Z</time>
      </trkpt>
      <trkpt lat="47.8944" lon="6.89883">
        <ele>846</ele>
        <time>2022-08-29T06:45:09Z</time>
      </trkpt>
      <trkpt lat="47.89441" lon="6.89884">
        <ele>846.1</ele>
        <time>2022-08-29T06:45:10Z</time>
      </trkpt>
      <trkpt lat="47.89441" lon="6.89885">
        <ele>846.5</ele>
        <time>2022-08-29T06:45:11Z</time>
      </trkpt>
      <trkpt lat="47.89442" lon="6.89887">
        <ele>846.9</ele>
        <time>2022-08-29T06:45:12Z</time>
      </trkpt>
      <trkpt lat="47.89443" lon="6.89888">
        <ele>847</ele>
        <time>2022-08-29T06:45:13Z</time>
      </trkpt>
      <trkpt lat="47.89443" lon="6.89889">
        <ele>847.4</ele>
        <time>2022-08-29T06:45:14Z</time>
      </trkpt>
      <trkpt lat="47.89444" lon="6.89891">
        <ele>847.8</ele>
        <time>2022-08-29T06:45:15Z</time>
      </trkpt>
      <trkpt lat="47.89444" lon="6.89892">
        <ele>848.1</ele>
        <time>2022-08-29T06:45:16Z</time>
      </trkpt>
      <trkpt lat="47.89445" lon="6.89893">
        <ele>848.2</ele>
        <time>2022-08-29T06:45:17Z</time>
      </trkpt>
      <trkpt lat="47.89446" lon="6.89894">
        <ele>848.2</ele>
        <time>2022-08-29T06:45:19Z</time>
      </trkpt>
      <trkpt lat="47.89446" lon="6.89896">
        <ele>848.8</ele>
        <time>2022-08-29T06:47:35Z</time>
      </trkpt>
      <trkpt lat="47.89447" lon="6.89897">
        <ele>848.8</ele>
        <time>2022-08-29T06:47:36Z</time>
      </trkpt>
      <trkpt lat="47.89448" lon="6.89898">
        <ele>848.8</ele>
        <time>2022-08-29T06:47:37Z</time>
      </trkpt>
      <trkpt lat="47.89449" lon="6.89899">
        <ele>848.9</ele>
        <time>2022-08-29T06:47:38Z</time>
      </trkpt>
      <trkpt lat="47.8945" lon="6.899">
        <ele>848.9</ele>
        <time>2022-08-29T06:47:39Z</time>
      </trkpt>
      <trkpt lat="47.89451" lon="6.89901">
        <ele>848.9</ele>
        <time>2022-08-29T06:47:40Z</time>
      </trkpt>
      <trkpt lat="47.89452" lon="6.89902">
        <ele>848.9</ele>
        <time>2022-08-29T06:47:41Z</time>
      </trkpt>
      <trkpt lat="47.89453" lon="6.89902">
        <ele>848.6</ele>
        <time>2022-08-29T06:47:42Z</time>
      </trkpt>
      <trkpt lat="47.89454" lon="6.89903">
        <ele>848.7</ele>
        <time>2022-08-29T06:47:43Z</time>
      </trkpt>
      <trkpt lat="47.89454" lon="6.89904">
        <ele>849</ele>
        <time>2022-08-29T06:47:44Z</time>
      </trkpt>
      <trkpt lat="47.89455" lon="6.89905">
        <ele>849</ele>
        <time>2022-08-29T06:47:45Z</time>
      </trkpt>
      <trkpt lat="47.89455" lon="6.89906">
        <ele>849.4</ele>
        <time>2022-08-29T06:47:46Z</time>
      </trkpt>
      <trkpt lat="47.89455" lon="6.89907">
        <ele>849.7</ele>
        <time>2022-08-29T06:47:47Z</time>
      </trkpt>
      <trkpt lat="47.89456" lon="6.89907">
        <ele>849.4</ele>
        <time>2022-08-29T06:47:48Z</time>
      </trkpt>
      <trkpt lat="47.89456" lon="6.89908">
        <ele>849.7</ele>
        <time>2022-08-29T06:47:49Z</time>
      </trkpt>
      <trkpt lat="47.89457" lon="6.89909">
        <ele>849.8</ele>
        <time>2022-08-29T06:47:50Z</time>
      </trkpt>
      <trkpt lat="47.89457" lon="6.8991">
        <ele>850.1</ele>
        <time>2022-08-29T06:47:51Z</time>
      </trkpt>
      <trkpt lat="47.89458" lon="6.89911">
        <ele>850.2</ele>
        <time>2022-08-29T06:47:52Z</time>
      </trkpt>
      <trkpt lat="47.89458" lon="6.89912">
        <ele>850.5</ele>
        <time>2022-08-29T06:47:53Z</time>
      </trkpt>
      <trkpt lat="47.89459" lon="6.89913">
        <ele>850.6</ele>
        <time>2022-08-29T06:47:54Z</time>
      </trkpt>
      <trkpt lat="47.89459" lon="6.89914">
        <ele>850.9</ele>
        <time>2022-08-29T06:47:55Z</time>
      </trkpt>
      <trkpt lat="47.8946" lon="6.89915">
        <ele>850.9</ele>
        <time>2022-08-29T06:47:56Z</time>
      </trkpt>
      <trkpt lat="47.8946" lon="6.89916">
        <ele>851.3</ele>
        <time>2022-08-29T06:47:57Z</time>
      </trkpt>
      <trkpt lat="47.8946" lon="6.89917">
        <ele>851.6</ele>
        <time>2022-08-29T06:47:58Z</time>
      </trkpt>
      <trkpt lat="47.8946" lon="6.89918">
        <ele>852</ele>
        <time>2022-08-29T06:47:59Z</time>
      </trkpt>
      <trkpt lat="47.89461" lon="6.8992">
        <ele>852.5</ele>
        <time>2022-08-29T06:48:00Z</time>
      </trkpt>
      <trkpt lat="47.89461" lon="6.89921">
        <ele>852.9</ele>
        <time>2022-08-29T06:48:01Z</time>
      </trkpt>
      <trkpt lat="47.89461" lon="6.89923">
        <ele>853.6</ele>
        <time>2022-08-29T06:48:02Z</time>
      </trkpt>
      <trkpt lat="47.89462" lon="6.89924">
        <ele>853.8</ele>
        <time>2022-08-29T06:48:03Z</time>
      </trkpt>
      <trkpt lat="47.89462" lon="6.89925">
        <ele>854.1</ele>
        <time>2022-08-29T06:48:04Z</time>
      </trkpt>
      <trkpt lat="47.89462" lon="6.89926">
        <ele>854.5</ele>
        <time>2022-08-29T06:48:05Z</time>
      </trkpt>
      <trkpt lat="47.89463" lon="6.89927">
        <ele>854.6</ele>
        <time>2022-08-29T06:48:06Z</time>
      </trkpt>
      <trkpt lat="47.89463" lon="6.89928">
        <ele>855</ele>
        <time>2022-08-29T06:48:07Z</time>
      </trkpt>
      <trkpt lat="47.89463" lon="6.89929">
        <ele>855.4</ele>
        <time>2022-08-29T06:48:08Z</time>
      </trkpt>
      <trkpt lat="47.89464" lon="6.8993">
        <ele>855.5</ele>
        <time>2022-08-29T06:48:09Z</time>
      </trkpt>
      <trkpt lat="47.89464" lon="6.89931">
        <ele>855.9</ele>
        <time>2022-08-29T06:48:11Z</time>
      </trkpt>
      <trkpt lat="47.89464" lon="6.89932">
        <ele>856.3</ele>
        <time>2022-08-29T06:48:12Z</time>
      </trkpt>
      <trkpt lat="47.89465" lon="6.89933">
        <ele>856.4</ele>
        <time>2022-08-29T06:48:15Z</time>
      </trkpt>
      <trkpt lat="47.89465" lon="6.89934">
        <ele>856.8</ele>
        <time>2022-08-29T06:48:17Z</time>
      </trkpt>
      <trkpt lat="47.89466" lon="6.89936">
        <ele>857.3</ele>
        <time>2022-08-29T06:48:18Z</time>
      </trkpt>
      <trkpt lat="47.89466" lon="6.89937">
        <ele>857.7</ele>
        <time>2022-08-29T06:48:20Z</time>
      </trkpt>
      <trkpt lat="47.89467" lon="6.89937">
        <ele>857.4</ele>
        <time>2022-08-29T06:48:21Z</time>
      </trkpt>
      <trkpt lat="47.89467" lon="6.89938">
        <ele>857.8</ele>
        <time>2022-08-29T06:48:22Z</time>
      </trkpt>
      <trkpt lat="47.89468" lon="6.89938">
        <ele>857.5</ele>
        <time>2022-08-29T06:48:25Z</time>
      </trkpt>
      <trkpt lat="47.89469" lon="6.89939">
        <ele>857.7</ele>
        <time>2022-08-29T06:48:27Z</time>
      </trkpt>
      <trkpt lat="47.8947" lon="6.89939">
        <ele>857.4</ele>
        <time>2022-08-29T06:48:28Z</time>
      </trkpt>
      <trkpt lat="47.89471" lon="6.8994">
        <ele>857.6</ele>
        <time>2022-08-29T06:48:30Z</time>
      </trkpt>
      <trkpt lat="47.89474" lon="6.89942">
        <ele>857.7</ele>
        <time>2022-08-29T06:48:42Z</time>
      </trkpt>
      <trkpt lat="47.89475" lon="6.89943">
        <ele>857.9</ele>
        <time>2022-08-29T06:48:43Z</time>
      </trkpt>
      <trkpt lat="47.89476" lon="6.89943">
        <ele>857.7</ele>
        <time>2022-08-29T06:48:44Z</time>
      </trkpt>
      <trkpt lat="47.89476" lon="6.89944">
        <ele>858.1</ele>
        <time>2022-08-29T06:48:45Z</time>
      </trkpt>
      <trkpt lat="47.89477" lon="6.89944">
        <ele>858</ele>
        <time>2022-08-29T06:48:46Z</time>
      </trkpt>
      <trkpt lat="47.89477" lon="6.89945">
        <ele>858.3</ele>
        <time>2022-08-29T06:48:48Z</time>
      </trkpt>
      <trkpt lat="47.89478" lon="6.89945">
        <ele>858.1</ele>
        <time>2022-08-29T06:48:49Z</time>
      </trkpt>
      <trkpt lat="47.89479" lon="6.89946">
        <ele>858.3</ele>
        <time>2022-08-29T06:48:50Z</time>
      </trkpt>
      <trkpt lat="47.89479" lon="6.89947">
        <ele>858.6</ele>
        <time>2022-08-29T06:48:51Z</time>
      </trkpt>
      <trkpt lat="47.8948" lon="6.89948">
        <ele>858.8</ele>
        <time>2022-08-29T06:48:52Z</time>
      </trkpt>
      <trkpt lat="47.89481" lon="6.89949">
        <ele>858.9</ele>
        <time>2022-08-29T06:48:53Z</time>
      </trkpt>
      <trkpt lat="47.89482" lon="6.8995">
        <ele>859.1</ele>
        <time>2022-08-29T06:48:54Z</time>
      </trkpt>
      <trkpt lat="47.89483" lon="6.89951">
        <ele>859.3</ele>
        <time>2022-08-29T06:48:55Z</time>
      </trkpt>
      <trkpt lat="47.89484" lon="6.89952">
        <ele>859.4</ele>
        <time>2022-08-29T06:48:56Z</time>
      </trkpt>
      <trkpt lat="47.89485" lon="6.89953">
        <ele>859.6</ele>
        <time>2022-08-29T06:48:57Z</time>
      </trkpt>
      <trkpt lat="47.89486" lon="6.89955">
        <ele>860.1</ele>
        <time>2022-08-29T06:48:59Z</time>
      </trkpt>
      <trkpt lat="47.89487" lon="6.89956">
        <ele>860.3</ele>
        <time>2022-08-29T06:49:00Z</time>
      </trkpt>
      <trkpt lat="47.89488" lon="6.89958">
        <ele>860.8</ele>
        <time>2022-08-29T06:49:01Z</time>
      </trkpt>
      <trkpt lat="47.89488" lon="6.89959">
        <ele>861.2</ele>
        <time>2022-08-29T06:49:02Z</time>
      </trkpt>
      <trkpt lat="47.89489" lon="6.8996">
        <ele>861.4</ele>
        <time>2022-08-29T06:49:03Z</time>
      </trkpt>
      <trkpt lat="47.89489" lon="6.89961">
        <ele>861.7</ele>
        <time>2022-08-29T06:49:04Z</time>
      </trkpt>
      <trkpt lat="47.89489" lon="6.89962">
        <ele>862</ele>
        <time>2022-08-29T06:49:05Z</time>
      </trkpt>
      <trkpt lat="47.8949" lon="6.89963">
        <ele>862.2</ele>
        <time>2022-08-29T06:49:06Z</time>
      </trkpt>
      <trkpt lat="47.8949" lon="6.89965">
        <ele>862.9</ele>
        <time>2022-08-29T06:49:07Z</time>
      </trkpt>
      <trkpt lat="47.8949" lon="6.89966">
        <ele>863.3</ele>
        <time>2022-08-29T06:49:08Z</time>
      </trkpt>
      <trkpt lat="47.89491" lon="6.89968">
        <ele>863.8</ele>
        <time>2022-08-29T06:49:09Z</time>
      </trkpt>
      <trkpt lat="47.89491" lon="6.89969">
        <ele>864.2</ele>
        <time>2022-08-29T06:49:10Z</time>
      </trkpt>
      <trkpt lat="47.89491" lon="6.8997">
        <ele>864.5</ele>
        <time>2022-08-29T06:49:11Z</time>
      </trkpt>
      <trkpt lat="47.89491" lon="6.89971">
        <ele>864.9</ele>
        <time>2022-08-29T06:49:12Z</time>
      </trkpt>
      <trkpt lat="47.89492" lon="6.89973">
        <ele>865.4</ele>
        <time>2022-08-29T06:49:21Z</time>
      </trkpt>
      <trkpt lat="47.89493" lon="6.89974">
        <ele>865.5</ele>
        <time>2022-08-29T06:49:22Z</time>
      </trkpt>
      <trkpt lat="47.89493" lon="6.89976">
        <ele>866.1</ele>
        <time>2022-08-29T06:49:23Z</time>
      </trkpt>
      <trkpt lat="47.89494" lon="6.89977">
        <ele>866.2</ele>
        <time>2022-08-29T06:49:24Z</time>
      </trkpt>
      <trkpt lat="47.89494" lon="6.89978">
        <ele>866.5</ele>
        <time>2022-08-29T06:49:25Z</time>
      </trkpt>
      <trkpt lat="47.89495" lon="6.89979">
        <ele>866.7</ele>
        <time>2022-08-29T06:49:26Z</time>
      </trkpt>
      <trkpt lat="47.89495" lon="6.89981">
        <ele>867.2</ele>
        <time>2022-08-29T06:49:27Z</time>
      </trkpt>
      <trkpt lat="47.89495" lon="6.89982">
        <ele>867.5</ele>
        <time>2022-08-29T06:49:29Z</time>
      </trkpt>
      <trkpt lat="47.89496" lon="6.89983">
        <ele>867.7</ele>
        <time>2022-08-29T06:49:30Z</time>
      </trkpt>
      <trkpt lat="47.89497" lon="6.89985">
        <ele>868.1</ele>
        <time>2022-08-29T06:49:39Z</time>
      </trkpt>
      <trkpt lat="47.89498" lon="6.89987">
        <ele>868.5</ele>
        <time>2022-08-29T06:49:40Z</time>
      </trkpt>
      <trkpt lat="47.89499" lon="6.89988">
        <ele>868.7</ele>
        <time>2022-08-29T06:49:41Z</time>
      </trkpt>
      <trkpt lat="47.895" lon="6.89989">
        <ele>868.8</ele>
        <time>2022-08-29T06:49:42Z</time>
      </trkpt>
      <trkpt lat="47.89501" lon="6.89991">
        <ele>869.2</ele>
        <time>2022-08-29T06:49:43Z</time>
      </trkpt>
      <trkpt lat="47.89502" lon="6.89991">
        <ele>868.9</ele>
        <time>2022-08-29T06:49:44Z</time>
      </trkpt>
      <trkpt lat="47.89502" lon="6.89992">
        <ele>869.2</ele>
        <time>2022-08-29T06:49:46Z</time>
      </trkpt>
      <trkpt lat="47.89503" lon="6.89992">
        <ele>868.9</ele>
        <time>2022-08-29T06:49:47Z</time>
      </trkpt>
      <trkpt lat="47.89504" lon="6.89993">
        <ele>869</ele>
        <time>2022-08-29T06:49:48Z</time>
      </trkpt>
      <trkpt lat="47.89504" lon="6.89994">
        <ele>869.3</ele>
        <time>2022-08-29T06:49:49Z</time>
      </trkpt>
      <trkpt lat="47.89505" lon="6.89994">
        <ele>869</ele>
        <time>2022-08-29T06:49:50Z</time>
      </trkpt>
      <trkpt lat="47.89505" lon="6.89995">
        <ele>869.3</ele>
        <time>2022-08-29T06:49:51Z</time>
      </trkpt>
      <trkpt lat="47.89505" lon="6.89996">
        <ele>869.6</ele>
        <time>2022-08-29T06:49:52Z</time>
      </trkpt>
      <trkpt lat="47.89505" lon="6.89997">
        <ele>869.9</ele>
        <time>2022-08-29T06:49:53Z</time>
      </trkpt>
      <trkpt lat="47.89505" lon="6.89998">
        <ele>870.2</ele>
        <time>2022-08-29T06:49:54Z</time>
      </trkpt>
      <trkpt lat="47.89505" lon="6.89999">
        <ele>870.5</ele>
        <time>2022-08-29T06:49:55Z</time>
      </trkpt>
      <trkpt lat="47.89505" lon="6.9">
        <ele>870.7</ele>
        <time>2022-08-29T06:49:56Z</time>
      </trkpt>
      <trkpt lat="47.89505" lon="6.90002">
        <ele>871.3</ele>
        <time>2022-08-29T06:49:57Z</time>
      </trkpt>
      <trkpt lat="47.89506" lon="6.90003">
        <ele>871.3</ele>
        <time>2022-08-29T06:49:58Z</time>
      </trkpt>
      <trkpt lat="47.89506" lon="6.90005">
        <ele>871.8</ele>
        <time>2022-08-29T06:49:59Z</time>
      </trkpt>
      <trkpt lat="47.89506" lon="6.90006">
        <ele>872</ele>
        <time>2022-08-29T06:50:00Z</time>
      </trkpt>
      <trkpt lat="47.89506" lon="6.90007">
        <ele>872.3</ele>
        <time>2022-08-29T06:50:01Z</time>
      </trkpt>
      <trkpt lat="47.89507" lon="6.90008">
        <ele>872.3</ele>
        <time>2022-08-29T06:50:02Z</time>
      </trkpt>
      <trkpt lat="47.89507" lon="6.9001">
        <ele>872.8</ele>
        <time>2022-08-29T06:50:03Z</time>
      </trkpt>
      <trkpt lat="47.89507" lon="6.90011">
        <ele>873.1</ele>
        <time>2022-08-29T06:50:04Z</time>
      </trkpt>
      <trkpt lat="47.89508" lon="6.90012">
        <ele>873.1</ele>
        <time>2022-08-29T06:50:05Z</time>
      </trkpt>
      <trkpt lat="47.89508" lon="6.90013">
        <ele>873.4</ele>
        <time>2022-08-29T06:50:06Z</time>
      </trkpt>
      <trkpt lat="47.89509" lon="6.90015">
        <ele>873.7</ele>
        <time>2022-08-29T06:50:07Z</time>
      </trkpt>
      <trkpt lat="47.8951" lon="6.90016">
        <ele>873.7</ele>
        <time>2022-08-29T06:50:08Z</time>
      </trkpt>
      <trkpt lat="47.89511" lon="6.90017">
        <ele>873.8</ele>
        <time>2022-08-29T06:50:09Z</time>
      </trkpt>
      <trkpt lat="47.89512" lon="6.90018">
        <ele>873.8</ele>
        <time>2022-08-29T06:50:10Z</time>
      </trkpt>
      <trkpt lat="47.89513" lon="6.90018">
        <ele>873.6</ele>
        <time>2022-08-29T06:50:11Z</time>
      </trkpt>
      <trkpt lat="47.89513" lon="6.9002">
        <ele>874.1</ele>
        <time>2022-08-29T06:50:12Z</time>
      </trkpt>
      <trkpt lat="47.89514" lon="6.90021">
        <ele>874.1</ele>
        <time>2022-08-29T06:50:13Z</time>
      </trkpt>
      <trkpt lat="47.89515" lon="6.90022">
        <ele>874.2</ele>
        <time>2022-08-29T06:50:14Z</time>
      </trkpt>
      <trkpt lat="47.89516" lon="6.90023">
        <ele>874.2</ele>
        <time>2022-08-29T06:50:15Z</time>
      </trkpt>
      <trkpt lat="47.89516" lon="6.90024">
        <ele>874.5</ele>
        <time>2022-08-29T06:50:16Z</time>
      </trkpt>
      <trkpt lat="47.89517" lon="6.90026">
        <ele>874.8</ele>
        <time>2022-08-29T06:50:17Z</time>
      </trkpt>
      <trkpt lat="47.89517" lon="6.90027">
        <ele>875.1</ele>
        <time>2022-08-29T06:50:18Z</time>
      </trkpt>
      <trkpt lat="47.89517" lon="6.90028">
        <ele>875.4</ele>
        <time>2022-08-29T06:50:20Z</time>
      </trkpt>
      <trkpt lat="47.89518" lon="6.90029">
        <ele>875.4</ele>
        <time>2022-08-29T06:50:21Z</time>
      </trkpt>
      <trkpt lat="47.89518" lon="6.9003">
        <ele>875.6</ele>
        <time>2022-08-29T06:50:22Z</time>
      </trkpt>
      <trkpt lat="47.89519" lon="6.90031">
        <ele>875.5</ele>
        <time>2022-08-29T06:50:23Z</time>
      </trkpt>
      <trkpt lat="47.8952" lon="6.90032">
        <ele>875.5</ele>
        <time>2022-08-29T06:50:25Z</time>
      </trkpt>
      <trkpt lat="47.8952" lon="6.90033">
        <ele>875.7</ele>
        <time>2022-08-29T06:50:26Z</time>
      </trkpt>
      <trkpt lat="47.8952" lon="6.90034">
        <ele>875.9</ele>
        <time>2022-08-29T06:50:27Z</time>
      </trkpt>
      <trkpt lat="47.89522" lon="6.90037">
        <ele>876</ele>
        <time>2022-08-29T06:50:37Z</time>
      </trkpt>
      <trkpt lat="47.89522" lon="6.90038">
        <ele>876.2</ele>
        <time>2022-08-29T06:50:38Z</time>
      </trkpt>
      <trkpt lat="47.89522" lon="6.90039">
        <ele>876.4</ele>
        <time>2022-08-29T06:50:39Z</time>
      </trkpt>
      <trkpt lat="47.89523" lon="6.90041">
        <ele>876.6</ele>
        <time>2022-08-29T06:50:40Z</time>
      </trkpt>
      <trkpt lat="47.89523" lon="6.90042">
        <ele>876.8</ele>
        <time>2022-08-29T06:50:41Z</time>
      </trkpt>
      <trkpt lat="47.89523" lon="6.90043">
        <ele>877</ele>
        <time>2022-08-29T06:50:43Z</time>
      </trkpt>
      <trkpt lat="47.89524" lon="6.90044">
        <ele>876.9</ele>
        <time>2022-08-29T06:50:44Z</time>
      </trkpt>
      <trkpt lat="47.89524" lon="6.90045">
        <ele>877.1</ele>
        <time>2022-08-29T06:50:45Z</time>
      </trkpt>
      <trkpt lat="47.89524" lon="6.90046">
        <ele>877.3</ele>
        <time>2022-08-29T06:50:46Z</time>
      </trkpt>
      <trkpt lat="47.89525" lon="6.90047">
        <ele>877.2</ele>
        <time>2022-08-29T06:50:47Z</time>
      </trkpt>
      <trkpt lat="47.89525" lon="6.90048">
        <ele>877.4</ele>
        <time>2022-08-29T06:50:48Z</time>
      </trkpt>
      <trkpt lat="47.89525" lon="6.90049">
        <ele>877.6</ele>
        <time>2022-08-29T06:50:49Z</time>
      </trkpt>
      <trkpt lat="47.89525" lon="6.9005">
        <ele>877.8</ele>
        <time>2022-08-29T06:50:50Z</time>
      </trkpt>
      <trkpt lat="47.89525" lon="6.90052">
        <ele>878.1</ele>
        <time>2022-08-29T06:50:57Z</time>
      </trkpt>
      <trkpt lat="47.89526" lon="6.90054">
        <ele>878.2</ele>
        <time>2022-08-29T06:50:58Z</time>
      </trkpt>
      <trkpt lat="47.89526" lon="6.90055">
        <ele>878.4</ele>
        <time>2022-08-29T06:50:59Z</time>
      </trkpt>
      <trkpt lat="47.89526" lon="6.90056">
        <ele>878.6</ele>
        <time>2022-08-29T06:51:00Z</time>
      </trkpt>
      <trkpt lat="47.89526" lon="6.90057">
        <ele>878.7</ele>
        <time>2022-08-29T06:51:01Z</time>
      </trkpt>
      <trkpt lat="47.89527" lon="6.90057">
        <ele>878.4</ele>
        <time>2022-08-29T06:51:02Z</time>
      </trkpt>
      <trkpt lat="47.89527" lon="6.90058">
        <ele>878.6</ele>
        <time>2022-08-29T06:51:03Z</time>
      </trkpt>
      <trkpt lat="47.89527" lon="6.90059">
        <ele>878.7</ele>
        <time>2022-08-29T06:51:04Z</time>
      </trkpt>
      <trkpt lat="47.89527" lon="6.9006">
        <ele>878.9</ele>
        <time>2022-08-29T06:51:05Z</time>
      </trkpt>
      <trkpt lat="47.89527" lon="6.90061">
        <ele>879</ele>
        <time>2022-08-29T06:51:06Z</time>
      </trkpt>
      <trkpt lat="47.89526" lon="6.90062">
        <ele>879.4</ele>
        <time>2022-08-29T06:51:07Z</time>
      </trkpt>
      <trkpt lat="47.89526" lon="6.90063">
        <ele>879.6</ele>
        <time>2022-08-29T06:51:08Z</time>
      </trkpt>
      <trkpt lat="47.89526" lon="6.90065">
        <ele>879.9</ele>
        <time>2022-08-29T06:51:09Z</time>
      </trkpt>
      <trkpt lat="47.89526" lon="6.90066">
        <ele>880</ele>
        <time>2022-08-29T06:51:10Z</time>
      </trkpt>
      <trkpt lat="47.89526" lon="6.90067">
        <ele>880.2</ele>
        <time>2022-08-29T06:51:11Z</time>
      </trkpt>
      <trkpt lat="47.89526" lon="6.90068">
        <ele>880.3</ele>
        <time>2022-08-29T06:51:18Z</time>
      </trkpt>
      <trkpt lat="47.89527" lon="6.90069">
        <ele>880.2</ele>
        <time>2022-08-29T06:51:19Z</time>
      </trkpt>
      <trkpt lat="47.89527" lon="6.9007">
        <ele>880.3</ele>
        <time>2022-08-29T06:51:20Z</time>
      </trkpt>
      <trkpt lat="47.89528" lon="6.90071">
        <ele>880.1</ele>
        <time>2022-08-29T06:51:22Z</time>
      </trkpt>
      <trkpt lat="47.89529" lon="6.90072">
        <ele>879.9</ele>
        <time>2022-08-29T06:51:25Z</time>
      </trkpt>
      <trkpt lat="47.89529" lon="6.90073">
        <ele>880.1</ele>
        <time>2022-08-29T06:51:26Z</time>
      </trkpt>
      <trkpt lat="47.89529" lon="6.90074">
        <ele>880.2</ele>
        <time>2022-08-29T06:51:27Z</time>
      </trkpt>
      <trkpt lat="47.89529" lon="6.90075">
        <ele>880.4</ele>
        <time>2022-08-29T06:51:28Z</time>
      </trkpt>
      <trkpt lat="47.89529" lon="6.90076">
        <ele>880.5</ele>
        <time>2022-08-29T06:51:29Z</time>
      </trkpt>
      <trkpt lat="47.89529" lon="6.90077">
        <ele>880.7</ele>
        <time>2022-08-29T06:51:30Z</time>
      </trkpt>
      <trkpt lat="47.89529" lon="6.90078">
        <ele>880.8</ele>
        <time>2022-08-29T06:51:31Z</time>
      </trkpt>
      <trkpt lat="47.89529" lon="6.90079">
        <ele>880.9</ele>
        <time>2022-08-29T06:51:32Z</time>
      </trkpt>
      <trkpt lat="47.89529" lon="6.90082">
        <ele>881.4</ele>
        <time>2022-08-29T06:51:44Z</time>
      </trkpt>
      <trkpt lat="47.89529" lon="6.90084">
        <ele>881.7</ele>
        <time>2022-08-29T06:51:45Z</time>
      </trkpt>
      <trkpt lat="47.89529" lon="6.90085">
        <ele>881.8</ele>
        <time>2022-08-29T06:51:46Z</time>
      </trkpt>
      <trkpt lat="47.89528" lon="6.90087">
        <ele>882.4</ele>
        <time>2022-08-29T06:51:47Z</time>
      </trkpt>
      <trkpt lat="47.89528" lon="6.90088">
        <ele>882.6</ele>
        <time>2022-08-29T06:51:48Z</time>
      </trkpt>
      <trkpt lat="47.89528" lon="6.90089">
        <ele>882.7</ele>
        <time>2022-08-29T06:51:51Z</time>
      </trkpt>
      <trkpt lat="47.89528" lon="6.9009">
        <ele>882.9</ele>
        <time>2022-08-29T06:51:53Z</time>
      </trkpt>
      <trkpt lat="47.89527" lon="6.90091">
        <ele>883.3</ele>
        <time>2022-08-29T06:51:54Z</time>
      </trkpt>
      <trkpt lat="47.89527" lon="6.90093">
        <ele>883.6</ele>
        <time>2022-08-29T06:51:55Z</time>
      </trkpt>
      <trkpt lat="47.89527" lon="6.90094">
        <ele>883.7</ele>
        <time>2022-08-29T06:51:56Z</time>
      </trkpt>
      <trkpt lat="47.89527" lon="6.90095">
        <ele>883.9</ele>
        <time>2022-08-29T06:51:57Z</time>
      </trkpt>
      <trkpt lat="47.89527" lon="6.90096">
        <ele>884</ele>
        <time>2022-08-29T06:51:58Z</time>
      </trkpt>
      <trkpt lat="47.89527" lon="6.90097">
        <ele>884.2</ele>
        <time>2022-08-29T06:51:59Z</time>
      </trkpt>
      <trkpt lat="47.89526" lon="6.90099">
        <ele>884.7</ele>
        <time>2022-08-29T06:52:00Z</time>
      </trkpt>
      <trkpt lat="47.89526" lon="6.90101">
        <ele>885</ele>
        <time>2022-08-29T06:52:08Z</time>
      </trkpt>
      <trkpt lat="47.89526" lon="6.90102">
        <ele>885.2</ele>
        <time>2022-08-29T06:52:09Z</time>
      </trkpt>
      <trkpt lat="47.89526" lon="6.90104">
        <ele>885.4</ele>
        <time>2022-08-29T06:52:10Z</time>
      </trkpt>
      <trkpt lat="47.89526" lon="6.90105">
        <ele>885.6</ele>
        <time>2022-08-29T06:52:11Z</time>
      </trkpt>
      <trkpt lat="47.89526" lon="6.90106">
        <ele>885.7</ele>
        <time>2022-08-29T06:52:12Z</time>
      </trkpt>
      <trkpt lat="47.89527" lon="6.90107">
        <ele>885.6</ele>
        <time>2022-08-29T06:52:13Z</time>
      </trkpt>
      <trkpt lat="47.89527" lon="6.90108">
        <ele>885.8</ele>
        <time>2022-08-29T06:52:15Z</time>
      </trkpt>
      <trkpt lat="47.89527" lon="6.90109">
        <ele>885.9</ele>
        <time>2022-08-29T06:52:17Z</time>
      </trkpt>
      <trkpt lat="47.89528" lon="6.9011">
        <ele>885.8</ele>
        <time>2022-08-29T06:52:18Z</time>
      </trkpt>
      <trkpt lat="47.89528" lon="6.90111">
        <ele>885.9</ele>
        <time>2022-08-29T06:52:19Z</time>
      </trkpt>
      <trkpt lat="47.89529" lon="6.90112">
        <ele>885.8</ele>
        <time>2022-08-29T06:52:20Z</time>
      </trkpt>
      <trkpt lat="47.89529" lon="6.90113">
        <ele>885.9</ele>
        <time>2022-08-29T06:52:21Z</time>
      </trkpt>
      <trkpt lat="47.89529" lon="6.90114">
        <ele>886.1</ele>
        <time>2022-08-29T06:52:23Z</time>
      </trkpt>
      <trkpt lat="47.89529" lon="6.90116">
        <ele>886.5</ele>
        <time>2022-08-29T06:52:24Z</time>
      </trkpt>
      <trkpt lat="47.8953" lon="6.90117">
        <ele>886.4</ele>
        <time>2022-08-29T06:52:25Z</time>
      </trkpt>
      <trkpt lat="47.8953" lon="6.90119">
        <ele>886.7</ele>
        <time>2022-08-29T06:52:26Z</time>
      </trkpt>
      <trkpt lat="47.8953" lon="6.9012">
        <ele>886.9</ele>
        <time>2022-08-29T06:52:27Z</time>
      </trkpt>
      <trkpt lat="47.89531" lon="6.90123">
        <ele>887.1</ele>
        <time>2022-08-29T06:52:47Z</time>
      </trkpt>
      <trkpt lat="47.89531" lon="6.90124">
        <ele>887.3</ele>
        <time>2022-08-29T06:52:48Z</time>
      </trkpt>
      <trkpt lat="47.89532" lon="6.90126">
        <ele>887.4</ele>
        <time>2022-08-29T06:52:49Z</time>
      </trkpt>
      <trkpt lat="47.89532" lon="6.90128">
        <ele>887.8</ele>
        <time>2022-08-29T06:52:50Z</time>
      </trkpt>
      <trkpt lat="47.89532" lon="6.90129">
        <ele>887.9</ele>
        <time>2022-08-29T06:52:51Z</time>
      </trkpt>
      <trkpt lat="47.89532" lon="6.90131">
        <ele>888.3</ele>
        <time>2022-08-29T06:52:52Z</time>
      </trkpt>
      <trkpt lat="47.89532" lon="6.90133">
        <ele>888.7</ele>
        <time>2022-08-29T06:52:53Z</time>
      </trkpt>
      <trkpt lat="47.89532" lon="6.90135">
        <ele>889.1</ele>
        <time>2022-08-29T06:52:54Z</time>
      </trkpt>
      <trkpt lat="47.89532" lon="6.90137">
        <ele>889.4</ele>
        <time>2022-08-29T06:52:55Z</time>
      </trkpt>
      <trkpt lat="47.89532" lon="6.90139">
        <ele>889.8</ele>
        <time>2022-08-29T06:52:56Z</time>
      </trkpt>
      <trkpt lat="47.89532" lon="6.90141">
        <ele>890.3</ele>
        <time>2022-08-29T06:52:57Z</time>
      </trkpt>
      <trkpt lat="47.89532" lon="6.90142">
        <ele>890.6</ele>
        <time>2022-08-29T06:52:58Z</time>
      </trkpt>
      <trkpt lat="47.89533" lon="6.90144">
        <ele>890.8</ele>
        <time>2022-08-29T06:52:59Z</time>
      </trkpt>
      <trkpt lat="47.89533" lon="6.90146">
        <ele>891.3</ele>
        <time>2022-08-29T06:53:00Z</time>
      </trkpt>
      <trkpt lat="47.89533" lon="6.90147">
        <ele>891.5</ele>
        <time>2022-08-29T06:53:01Z</time>
      </trkpt>
      <trkpt lat="47.89534" lon="6.90149">
        <ele>891.8</ele>
        <time>2022-08-29T06:53:02Z</time>
      </trkpt>
      <trkpt lat="47.89534" lon="6.9015">
        <ele>892</ele>
        <time>2022-08-29T06:53:03Z</time>
      </trkpt>
      <trkpt lat="47.89534" lon="6.90152">
        <ele>892.5</ele>
        <time>2022-08-29T06:53:04Z</time>
      </trkpt>
      <trkpt lat="47.89535" lon="6.90153">
        <ele>892.5</ele>
        <time>2022-08-29T06:53:05Z</time>
      </trkpt>
      <trkpt lat="47.89535" lon="6.90154">
        <ele>892.7</ele>
        <time>2022-08-29T06:53:06Z</time>
      </trkpt>
      <trkpt lat="47.89535" lon="6.90155">
        <ele>893</ele>
        <time>2022-08-29T06:53:07Z</time>
      </trkpt>
      <trkpt lat="47.89535" lon="6.90156">
        <ele>893.2</ele>
        <time>2022-08-29T06:53:08Z</time>
      </trkpt>
      <trkpt lat="47.89535" lon="6.90158">
        <ele>893.7</ele>
        <time>2022-08-29T06:53:09Z</time>
      </trkpt>
      <trkpt lat="47.89535" lon="6.90159">
        <ele>894</ele>
        <time>2022-08-29T06:53:10Z</time>
      </trkpt>
      <trkpt lat="47.89536" lon="6.9016">
        <ele>894</ele>
        <time>2022-08-29T06:53:11Z</time>
      </trkpt>
      <trkpt lat="47.89536" lon="6.90161">
        <ele>894.2</ele>
        <time>2022-08-29T06:53:12Z</time>
      </trkpt>
      <trkpt lat="47.89536" lon="6.90163">
        <ele>894.7</ele>
        <time>2022-08-29T06:53:13Z</time>
      </trkpt>
      <trkpt lat="47.89537" lon="6.90164">
        <ele>894.7</ele>
        <time>2022-08-29T06:53:14Z</time>
      </trkpt>
      <trkpt lat="47.89537" lon="6.90165">
        <ele>894.9</ele>
        <time>2022-08-29T06:53:15Z</time>
      </trkpt>
      <trkpt lat="47.89537" lon="6.90167">
        <ele>895.4</ele>
        <time>2022-08-29T06:53:16Z</time>
      </trkpt>
      <trkpt lat="47.89538" lon="6.90168">
        <ele>895.4</ele>
        <time>2022-08-29T06:53:17Z</time>
      </trkpt>
      <trkpt lat="47.89538" lon="6.90169">
        <ele>895.7</ele>
        <time>2022-08-29T06:53:18Z</time>
      </trkpt>
      <trkpt lat="47.89538" lon="6.9017">
        <ele>896</ele>
        <time>2022-08-29T06:53:19Z</time>
      </trkpt>
      <trkpt lat="47.89539" lon="6.90171">
        <ele>896</ele>
        <time>2022-08-29T06:53:20Z</time>
      </trkpt>
      <trkpt lat="47.89539" lon="6.90172">
        <ele>896.2</ele>
        <time>2022-08-29T06:53:21Z</time>
      </trkpt>
      <trkpt lat="47.89539" lon="6.90173">
        <ele>896.5</ele>
        <time>2022-08-29T06:53:23Z</time>
      </trkpt>
      <trkpt lat="47.89539" lon="6.90174">
        <ele>896.8</ele>
        <time>2022-08-29T06:53:25Z</time>
      </trkpt>
      <trkpt lat="47.89539" lon="6.90175">
        <ele>897.1</ele>
        <time>2022-08-29T06:53:26Z</time>
      </trkpt>
      <trkpt lat="47.89539" lon="6.90176">
        <ele>897.3</ele>
        <time>2022-08-29T06:53:27Z</time>
      </trkpt>
      <trkpt lat="47.89539" lon="6.90177">
        <ele>897.6</ele>
        <time>2022-08-29T06:53:28Z</time>
      </trkpt>
      <trkpt lat="47.89539" lon="6.90178">
        <ele>897.9</ele>
        <time>2022-08-29T06:53:30Z</time>
      </trkpt>
      <trkpt lat="47.89539" lon="6.90179">
        <ele>898.1</ele>
        <time>2022-08-29T06:53:31Z</time>
      </trkpt>
      <trkpt lat="47.89539" lon="6.9018">
        <ele>898.4</ele>
        <time>2022-08-29T06:53:32Z</time>
      </trkpt>
      <trkpt lat="47.89539" lon="6.90181">
        <ele>898.7</ele>
        <time>2022-08-29T06:53:33Z</time>
      </trkpt>
      <trkpt lat="47.8954" lon="6.90182">
        <ele>898.8</ele>
        <time>2022-08-29T06:53:34Z</time>
      </trkpt>
      <trkpt lat="47.8954" lon="6.90183">
        <ele>899</ele>
        <time>2022-08-29T06:53:35Z</time>
      </trkpt>
      <trkpt lat="47.8954" lon="6.90184">
        <ele>899.3</ele>
        <time>2022-08-29T06:53:36Z</time>
      </trkpt>
      <trkpt lat="47.89541" lon="6.90184">
        <ele>899.1</ele>
        <time>2022-08-29T06:53:37Z</time>
      </trkpt>
      <trkpt lat="47.89541" lon="6.90185">
        <ele>899.4</ele>
        <time>2022-08-29T06:53:38Z</time>
      </trkpt>
      <trkpt lat="47.89542" lon="6.90185">
        <ele>899.2</ele>
        <time>2022-08-29T06:53:39Z</time>
      </trkpt>
      <trkpt lat="47.89543" lon="6.90186">
        <ele>899.3</ele>
        <time>2022-08-29T06:53:41Z</time>
      </trkpt>
      <trkpt lat="47.89544" lon="6.90187">
        <ele>899.4</ele>
        <time>2022-08-29T06:53:43Z</time>
      </trkpt>
      <trkpt lat="47.89544" lon="6.90188">
        <ele>899.7</ele>
        <time>2022-08-29T06:53:45Z</time>
      </trkpt>
      <trkpt lat="47.89544" lon="6.90189">
        <ele>900</ele>
        <time>2022-08-29T06:53:46Z</time>
      </trkpt>
      <trkpt lat="47.89544" lon="6.9019">
        <ele>900.3</ele>
        <time>2022-08-29T06:53:47Z</time>
      </trkpt>
      <trkpt lat="47.89544" lon="6.90191">
        <ele>900.6</ele>
        <time>2022-08-29T06:53:48Z</time>
      </trkpt>
      <trkpt lat="47.89543" lon="6.90192">
        <ele>901.1</ele>
        <time>2022-08-29T06:53:49Z</time>
      </trkpt>
      <trkpt lat="47.89543" lon="6.90193">
        <ele>901.4</ele>
        <time>2022-08-29T06:53:51Z</time>
      </trkpt>
      <trkpt lat="47.89543" lon="6.90194">
        <ele>901.7</ele>
        <time>2022-08-29T06:53:52Z</time>
      </trkpt>
      <trkpt lat="47.89544" lon="6.90195">
        <ele>901.8</ele>
        <time>2022-08-29T06:53:53Z</time>
      </trkpt>
      <trkpt lat="47.89544" lon="6.90196">
        <ele>902.1</ele>
        <time>2022-08-29T06:53:54Z</time>
      </trkpt>
      <trkpt lat="47.89544" lon="6.90197">
        <ele>902.3</ele>
        <time>2022-08-29T06:53:55Z</time>
      </trkpt>
      <trkpt lat="47.89544" lon="6.90198">
        <ele>902.6</ele>
        <time>2022-08-29T06:53:56Z</time>
      </trkpt>
      <trkpt lat="47.89545" lon="6.90199">
        <ele>902.7</ele>
        <time>2022-08-29T06:53:57Z</time>
      </trkpt>
      <trkpt lat="47.89545" lon="6.902">
        <ele>902.9</ele>
        <time>2022-08-29T06:53:59Z</time>
      </trkpt>
      <trkpt lat="47.89545" lon="6.90201">
        <ele>903.2</ele>
        <time>2022-08-29T06:54:00Z</time>
      </trkpt>
      <trkpt lat="47.89545" lon="6.90202">
        <ele>903.4</ele>
        <time>2022-08-29T06:54:01Z</time>
      </trkpt>
      <trkpt lat="47.89549" lon="6.90205">
        <ele>903.6</ele>
        <time>2022-08-29T06:54:19Z</time>
      </trkpt>
      <trkpt lat="47.89551" lon="6.90206">
        <ele>903.6</ele>
        <time>2022-08-29T06:54:20Z</time>
      </trkpt>
      <trkpt lat="47.89553" lon="6.90208">
        <ele>903.8</ele>
        <time>2022-08-29T06:54:21Z</time>
      </trkpt>
      <trkpt lat="47.89554" lon="6.90208">
        <ele>903.6</ele>
        <time>2022-08-29T06:54:22Z</time>
      </trkpt>
      <trkpt lat="47.89555" lon="6.90209">
        <ele>903.7</ele>
        <time>2022-08-29T06:54:23Z</time>
      </trkpt>
      <trkpt lat="47.89556" lon="6.90209">
        <ele>903.7</ele>
        <time>2022-08-29T06:54:25Z</time>
      </trkpt>
      <trkpt lat="47.89557" lon="6.9021">
        <ele>904</ele>
        <time>2022-08-29T06:54:27Z</time>
      </trkpt>
      <trkpt lat="47.89562" lon="6.90212">
        <ele>905</ele>
        <time>2022-08-29T06:55:24Z</time>
      </trkpt>
      <trkpt lat="47.89565" lon="6.90212">
        <ele>905.3</ele>
        <time>2022-08-29T06:55:25Z</time>
      </trkpt>
      <trkpt lat="47.89568" lon="6.90213">
        <ele>905.9</ele>
        <time>2022-08-29T06:55:26Z</time>
      </trkpt>
      <trkpt lat="47.89569" lon="6.90214">
        <ele>906.3</ele>
        <time>2022-08-29T06:55:27Z</time>
      </trkpt>
      <trkpt lat="47.89571" lon="6.90214">
        <ele>906.5</ele>
        <time>2022-08-29T06:55:28Z</time>
      </trkpt>
      <trkpt lat="47.89572" lon="6.90214">
        <ele>906.6</ele>
        <time>2022-08-29T06:55:29Z</time>
      </trkpt>
      <trkpt lat="47.89573" lon="6.90215">
        <ele>907</ele>
        <time>2022-08-29T06:55:30Z</time>
      </trkpt>
      <trkpt lat="47.89574" lon="6.90215">
        <ele>907.1</ele>
        <time>2022-08-29T06:55:32Z</time>
      </trkpt>
      <trkpt lat="47.89575" lon="6.90216">
        <ele>907.6</ele>
        <time>2022-08-29T06:55:40Z</time>
      </trkpt>
      <trkpt lat="47.89576" lon="6.90217">
        <ele>908.1</ele>
        <time>2022-08-29T06:55:41Z</time>
      </trkpt>
      <trkpt lat="47.89577" lon="6.90217">
        <ele>908.2</ele>
        <time>2022-08-29T06:55:42Z</time>
      </trkpt>
      <trkpt lat="47.89578" lon="6.90218">
        <ele>908.7</ele>
        <time>2022-08-29T06:55:43Z</time>
      </trkpt>
      <trkpt lat="47.89578" lon="6.90219">
        <ele>909</ele>
        <time>2022-08-29T06:55:44Z</time>
      </trkpt>
      <trkpt lat="47.8958" lon="6.9022">
        <ele>909.7</ele>
        <time>2022-08-29T06:55:52Z</time>
      </trkpt>
      <trkpt lat="47.89581" lon="6.9022">
        <ele>909.8</ele>
        <time>2022-08-29T06:55:53Z</time>
      </trkpt>
      <trkpt lat="47.89582" lon="6.90221">
        <ele>910.3</ele>
        <time>2022-08-29T06:55:54Z</time>
      </trkpt>
      <trkpt lat="47.89583" lon="6.90221">
        <ele>910.5</ele>
        <time>2022-08-29T06:55:55Z</time>
      </trkpt>
      <trkpt lat="47.89584" lon="6.90221">
        <ele>910.5</ele>
        <time>2022-08-29T06:55:56Z</time>
      </trkpt>
      <trkpt lat="47.89585" lon="6.90221">
        <ele>910.5</ele>
        <time>2022-08-29T06:55:58Z</time>
      </trkpt>
      <trkpt lat="47.89586" lon="6.90221">
        <ele>910.5</ele>
        <time>2022-08-29T06:56:00Z</time>
      </trkpt>
      <trkpt lat="47.89587" lon="6.90221">
        <ele>910.5</ele>
        <time>2022-08-29T06:56:06Z</time>
      </trkpt>
      <trkpt lat="47.89588" lon="6.90221">
        <ele>910.5</ele>
        <time>2022-08-29T06:56:07Z</time>
      </trkpt>
      <trkpt lat="47.89589" lon="6.90222">
        <ele>910.9</ele>
        <time>2022-08-29T06:56:08Z</time>
      </trkpt>
      <trkpt lat="47.8959" lon="6.90222">
        <ele>910.9</ele>
        <time>2022-08-29T06:56:09Z</time>
      </trkpt>
      <trkpt lat="47.89592" lon="6.90222">
        <ele>910.9</ele>
        <time>2022-08-29T06:56:22Z</time>
      </trkpt>
      <trkpt lat="47.89593" lon="6.90221">
        <ele>910.5</ele>
        <time>2022-08-29T06:56:23Z</time>
      </trkpt>
      <trkpt lat="47.89595" lon="6.90221">
        <ele>910.6</ele>
        <time>2022-08-29T06:56:24Z</time>
      </trkpt>
      <trkpt lat="47.89596" lon="6.90221">
        <ele>910.6</ele>
        <time>2022-08-29T06:56:25Z</time>
      </trkpt>
      <trkpt lat="47.89597" lon="6.90221">
        <ele>910.6</ele>
        <time>2022-08-29T06:56:26Z</time>
      </trkpt>
      <trkpt lat="47.89599" lon="6.90227">
        <ele>912.5</ele>
        <time>2022-08-29T06:57:02Z</time>
      </trkpt>
      <trkpt lat="47.896" lon="6.9023">
        <ele>913.5</ele>
        <time>2022-08-29T06:57:03Z</time>
      </trkpt>
      <trkpt lat="47.89602" lon="6.90233">
        <ele>914.5</ele>
        <time>2022-08-29T06:57:04Z</time>
      </trkpt>
      <trkpt lat="47.89602" lon="6.90234">
        <ele>914.8</ele>
        <time>2022-08-29T06:57:05Z</time>
      </trkpt>
      <trkpt lat="47.89603" lon="6.90235">
        <ele>915.1</ele>
        <time>2022-08-29T06:57:06Z</time>
      </trkpt>
      <trkpt lat="47.89604" lon="6.90236">
        <ele>915.5</ele>
        <time>2022-08-29T06:57:07Z</time>
      </trkpt>
      <trkpt lat="47.89604" lon="6.90237">
        <ele>915.8</ele>
        <time>2022-08-29T06:57:08Z</time>
      </trkpt>
      <trkpt lat="47.89605" lon="6.90237">
        <ele>915.8</ele>
        <time>2022-08-29T06:57:09Z</time>
      </trkpt>
      <trkpt lat="47.89605" lon="6.90238">
        <ele>916.1</ele>
        <time>2022-08-29T06:57:10Z</time>
      </trkpt>
      <trkpt lat="47.89606" lon="6.90238">
        <ele>916.1</ele>
        <time>2022-08-29T06:57:11Z</time>
      </trkpt>
      <trkpt lat="47.89606" lon="6.90239">
        <ele>916.4</ele>
        <time>2022-08-29T06:57:12Z</time>
      </trkpt>
      <trkpt lat="47.89607" lon="6.90239">
        <ele>916.4</ele>
        <time>2022-08-29T06:57:13Z</time>
      </trkpt>
      <trkpt lat="47.89608" lon="6.9024">
        <ele>916.8</ele>
        <time>2022-08-29T06:57:14Z</time>
      </trkpt>
      <trkpt lat="47.89609" lon="6.9024">
        <ele>916.8</ele>
        <time>2022-08-29T06:57:15Z</time>
      </trkpt>
      <trkpt lat="47.89609" lon="6.90241">
        <ele>917.1</ele>
        <time>2022-08-29T06:57:16Z</time>
      </trkpt>
      <trkpt lat="47.8961" lon="6.90242">
        <ele>917.4</ele>
        <time>2022-08-29T06:57:17Z</time>
      </trkpt>
      <trkpt lat="47.89611" lon="6.90242">
        <ele>917.4</ele>
        <time>2022-08-29T06:57:18Z</time>
      </trkpt>
      <trkpt lat="47.89611" lon="6.90243">
        <ele>917.7</ele>
        <time>2022-08-29T06:57:19Z</time>
      </trkpt>
      <trkpt lat="47.89612" lon="6.90243">
        <ele>917.7</ele>
        <time>2022-08-29T06:57:20Z</time>
      </trkpt>
      <trkpt lat="47.89612" lon="6.90244">
        <ele>918</ele>
        <time>2022-08-29T06:57:21Z</time>
      </trkpt>
      <trkpt lat="47.89613" lon="6.90244">
        <ele>917.9</ele>
        <time>2022-08-29T06:57:22Z</time>
      </trkpt>
      <trkpt lat="47.89614" lon="6.90245">
        <ele>918.2</ele>
        <time>2022-08-29T06:57:23Z</time>
      </trkpt>
      <trkpt lat="47.89615" lon="6.90246">
        <ele>918.4</ele>
        <time>2022-08-29T06:57:24Z</time>
      </trkpt>
      <trkpt lat="47.89616" lon="6.90246">
        <ele>918.4</ele>
        <time>2022-08-29T06:57:26Z</time>
      </trkpt>
      <trkpt lat="47.89616" lon="6.90247">
        <ele>918.7</ele>
        <time>2022-08-29T06:57:27Z</time>
      </trkpt>
      <trkpt lat="47.89617" lon="6.90247">
        <ele>918.6</ele>
        <time>2022-08-29T06:57:28Z</time>
      </trkpt>
      <trkpt lat="47.89618" lon="6.90248">
        <ele>918.9</ele>
        <time>2022-08-29T06:57:29Z</time>
      </trkpt>
      <trkpt lat="47.89619" lon="6.90249">
        <ele>919.1</ele>
        <time>2022-08-29T06:57:31Z</time>
      </trkpt>
      <trkpt lat="47.8962" lon="6.90251">
        <ele>919.7</ele>
        <time>2022-08-29T06:57:34Z</time>
      </trkpt>
      <trkpt lat="47.89621" lon="6.90252">
        <ele>920</ele>
        <time>2022-08-29T06:57:35Z</time>
      </trkpt>
      <trkpt lat="47.89622" lon="6.90253">
        <ele>920.2</ele>
        <time>2022-08-29T06:57:36Z</time>
      </trkpt>
      <trkpt lat="47.89622" lon="6.90254">
        <ele>920.6</ele>
        <time>2022-08-29T06:57:37Z</time>
      </trkpt>
      <trkpt lat="47.89623" lon="6.90254">
        <ele>920.5</ele>
        <time>2022-08-29T06:57:38Z</time>
      </trkpt>
      <trkpt lat="47.89624" lon="6.90255">
        <ele>920.8</ele>
        <time>2022-08-29T06:57:39Z</time>
      </trkpt>
      <trkpt lat="47.89625" lon="6.90256">
        <ele>921.1</ele>
        <time>2022-08-29T06:57:41Z</time>
      </trkpt>
      <trkpt lat="47.89626" lon="6.90256">
        <ele>921</ele>
        <time>2022-08-29T06:57:43Z</time>
      </trkpt>
      <trkpt lat="47.89627" lon="6.90256">
        <ele>920.9</ele>
        <time>2022-08-29T06:57:45Z</time>
      </trkpt>
      <trkpt lat="47.89628" lon="6.90256">
        <ele>920.9</ele>
        <time>2022-08-29T06:57:47Z</time>
      </trkpt>
      <trkpt lat="47.89628" lon="6.90257">
        <ele>921.2</ele>
        <time>2022-08-29T06:57:48Z</time>
      </trkpt>
      <trkpt lat="47.89629" lon="6.90257">
        <ele>921.1</ele>
        <time>2022-08-29T06:57:49Z</time>
      </trkpt>
      <trkpt lat="47.89629" lon="6.90258">
        <ele>921.5</ele>
        <time>2022-08-29T06:57:50Z</time>
      </trkpt>
      <trkpt lat="47.8963" lon="6.90259">
        <ele>921.8</ele>
        <time>2022-08-29T06:57:51Z</time>
      </trkpt>
      <trkpt lat="47.89631" lon="6.9026">
        <ele>922.1</ele>
        <time>2022-08-29T06:57:53Z</time>
      </trkpt>
      <trkpt lat="47.89633" lon="6.90262">
        <ele>922.7</ele>
        <time>2022-08-29T06:58:03Z</time>
      </trkpt>
      <trkpt lat="47.89634" lon="6.90263">
        <ele>922.9</ele>
        <time>2022-08-29T06:58:04Z</time>
      </trkpt>
      <trkpt lat="47.89635" lon="6.90265">
        <ele>923.6</ele>
        <time>2022-08-29T06:58:05Z</time>
      </trkpt>
      <trkpt lat="47.89636" lon="6.90266">
        <ele>923.9</ele>
        <time>2022-08-29T06:58:06Z</time>
      </trkpt>
      <trkpt lat="47.89636" lon="6.90267">
        <ele>924.3</ele>
        <time>2022-08-29T06:58:07Z</time>
      </trkpt>
      <trkpt lat="47.89637" lon="6.90267">
        <ele>924.2</ele>
        <time>2022-08-29T06:58:13Z</time>
      </trkpt>
      <trkpt lat="47.89638" lon="6.90268">
        <ele>924.5</ele>
        <time>2022-08-29T06:58:14Z</time>
      </trkpt>
      <trkpt lat="47.89639" lon="6.90268">
        <ele>924.5</ele>
        <time>2022-08-29T06:58:15Z</time>
      </trkpt>
      <trkpt lat="47.89639" lon="6.90269">
        <ele>924.8</ele>
        <time>2022-08-29T06:58:16Z</time>
      </trkpt>
      <trkpt lat="47.8964" lon="6.9027">
        <ele>925.1</ele>
        <time>2022-08-29T06:58:18Z</time>
      </trkpt>
      <trkpt lat="47.89641" lon="6.90271">
        <ele>925.3</ele>
        <time>2022-08-29T06:58:20Z</time>
      </trkpt>
      <trkpt lat="47.89641" lon="6.90272">
        <ele>925.6</ele>
        <time>2022-08-29T06:58:21Z</time>
      </trkpt>
      <trkpt lat="47.89642" lon="6.90272">
        <ele>925.5</ele>
        <time>2022-08-29T06:58:22Z</time>
      </trkpt>
      <trkpt lat="47.89642" lon="6.90273">
        <ele>925.9</ele>
        <time>2022-08-29T06:58:23Z</time>
      </trkpt>
      <trkpt lat="47.89643" lon="6.90274">
        <ele>926.1</ele>
        <time>2022-08-29T06:58:24Z</time>
      </trkpt>
      <trkpt lat="47.89644" lon="6.90275">
        <ele>926.3</ele>
        <time>2022-08-29T06:58:25Z</time>
      </trkpt>
      <trkpt lat="47.89645" lon="6.90276">
        <ele>926.5</ele>
        <time>2022-08-29T06:58:27Z</time>
      </trkpt>
      <trkpt lat="47.89646" lon="6.90277">
        <ele>926.7</ele>
        <time>2022-08-29T06:58:28Z</time>
      </trkpt>
      <trkpt lat="47.89646" lon="6.90278">
        <ele>927.1</ele>
        <time>2022-08-29T06:58:29Z</time>
      </trkpt>
      <trkpt lat="47.89647" lon="6.90278">
        <ele>926.9</ele>
        <time>2022-08-29T06:58:30Z</time>
      </trkpt>
      <trkpt lat="47.89647" lon="6.90279">
        <ele>927.3</ele>
        <time>2022-08-29T06:58:31Z</time>
      </trkpt>
      <trkpt lat="47.89648" lon="6.9028">
        <ele>927.5</ele>
        <time>2022-08-29T06:58:32Z</time>
      </trkpt>
      <trkpt lat="47.89649" lon="6.90281">
        <ele>927.7</ele>
        <time>2022-08-29T06:58:33Z</time>
      </trkpt>
      <trkpt lat="47.8965" lon="6.90283">
        <ele>928.4</ele>
        <time>2022-08-29T06:58:34Z</time>
      </trkpt>
      <trkpt lat="47.8965" lon="6.90284">
        <ele>928.7</ele>
        <time>2022-08-29T06:58:40Z</time>
      </trkpt>
      <trkpt lat="47.89651" lon="6.90285">
        <ele>929</ele>
        <time>2022-08-29T06:58:41Z</time>
      </trkpt>
      <trkpt lat="47.89651" lon="6.90286">
        <ele>929.3</ele>
        <time>2022-08-29T06:58:42Z</time>
      </trkpt>
      <trkpt lat="47.89652" lon="6.90287">
        <ele>929.6</ele>
        <time>2022-08-29T06:58:43Z</time>
      </trkpt>
      <trkpt lat="47.89653" lon="6.90288">
        <ele>929.8</ele>
        <time>2022-08-29T06:58:46Z</time>
      </trkpt>
      <trkpt lat="47.89654" lon="6.90288">
        <ele>929.7</ele>
        <time>2022-08-29T06:58:47Z</time>
      </trkpt>
      <trkpt lat="47.89655" lon="6.90288">
        <ele>929.6</ele>
        <time>2022-08-29T06:58:48Z</time>
      </trkpt>
      <trkpt lat="47.89656" lon="6.90288">
        <ele>929.4</ele>
        <time>2022-08-29T06:58:50Z</time>
      </trkpt>
      <trkpt lat="47.89657" lon="6.90288">
        <ele>929.3</ele>
        <time>2022-08-29T06:58:53Z</time>
      </trkpt>
      <trkpt lat="47.89658" lon="6.90289">
        <ele>929.6</ele>
        <time>2022-08-29T06:58:55Z</time>
      </trkpt>
      <trkpt lat="47.89659" lon="6.90289">
        <ele>929.4</ele>
        <time>2022-08-29T06:58:56Z</time>
      </trkpt>
      <trkpt lat="47.89659" lon="6.9029">
        <ele>929.8</ele>
        <time>2022-08-29T06:58:57Z</time>
      </trkpt>
      <trkpt lat="47.8966" lon="6.9029">
        <ele>929.7</ele>
        <time>2022-08-29T06:58:58Z</time>
      </trkpt>
      <trkpt lat="47.89661" lon="6.9029">
        <ele>929.6</ele>
        <time>2022-08-29T06:58:59Z</time>
      </trkpt>
      <trkpt lat="47.89661" lon="6.90291">
        <ele>930</ele>
        <time>2022-08-29T06:59:00Z</time>
      </trkpt>
      <trkpt lat="47.89662" lon="6.90291">
        <ele>929.8</ele>
        <time>2022-08-29T06:59:01Z</time>
      </trkpt>
      <trkpt lat="47.89663" lon="6.90292">
        <ele>930.1</ele>
        <time>2022-08-29T06:59:02Z</time>
      </trkpt>
      <trkpt lat="47.89664" lon="6.90293">
        <ele>930.4</ele>
        <time>2022-08-29T06:59:04Z</time>
      </trkpt>
      <trkpt lat="47.89664" lon="6.90294">
        <ele>930.8</ele>
        <time>2022-08-29T06:59:05Z</time>
      </trkpt>
      <trkpt lat="47.89665" lon="6.90295">
        <ele>931</ele>
        <time>2022-08-29T06:59:06Z</time>
      </trkpt>
      <trkpt lat="47.89665" lon="6.90296">
        <ele>931.4</ele>
        <time>2022-08-29T06:59:07Z</time>
      </trkpt>
      <trkpt lat="47.89666" lon="6.90297">
        <ele>931.7</ele>
        <time>2022-08-29T06:59:08Z</time>
      </trkpt>
      <trkpt lat="47.89667" lon="6.90299">
        <ele>932.3</ele>
        <time>2022-08-29T06:59:16Z</time>
      </trkpt>
      <trkpt lat="47.89668" lon="6.903">
        <ele>932.5</ele>
        <time>2022-08-29T06:59:17Z</time>
      </trkpt>
      <trkpt lat="47.89669" lon="6.90301">
        <ele>932.6</ele>
        <time>2022-08-29T06:59:18Z</time>
      </trkpt>
      <trkpt lat="47.89669" lon="6.90302">
        <ele>933</ele>
        <time>2022-08-29T06:59:19Z</time>
      </trkpt>
      <trkpt lat="47.8967" lon="6.90303">
        <ele>933.2</ele>
        <time>2022-08-29T06:59:20Z</time>
      </trkpt>
      <trkpt lat="47.8967" lon="6.90304">
        <ele>933.6</ele>
        <time>2022-08-29T06:59:21Z</time>
      </trkpt>
      <trkpt lat="47.89671" lon="6.90305">
        <ele>933.7</ele>
        <time>2022-08-29T06:59:23Z</time>
      </trkpt>
      <trkpt lat="47.89672" lon="6.90306">
        <ele>933.8</ele>
        <time>2022-08-29T06:59:24Z</time>
      </trkpt>
      <trkpt lat="47.89673" lon="6.90307">
        <ele>934</ele>
        <time>2022-08-29T06:59:25Z</time>
      </trkpt>
      <trkpt lat="47.89674" lon="6.90308">
        <ele>934.1</ele>
        <time>2022-08-29T06:59:26Z</time>
      </trkpt>
      <trkpt lat="47.89676" lon="6.90311">
        <ele>934.7</ele>
        <time>2022-08-29T06:59:32Z</time>
      </trkpt>
      <trkpt lat="47.89677" lon="6.90312">
        <ele>934.9</ele>
        <time>2022-08-29T06:59:33Z</time>
      </trkpt>
      <trkpt lat="47.89678" lon="6.90313">
        <ele>935</ele>
        <time>2022-08-29T06:59:34Z</time>
      </trkpt>
      <trkpt lat="47.89678" lon="6.90314">
        <ele>935.4</ele>
        <time>2022-08-29T06:59:35Z</time>
      </trkpt>
      <trkpt lat="47.89679" lon="6.90314">
        <ele>935.1</ele>
        <time>2022-08-29T06:59:36Z</time>
      </trkpt>
      <trkpt lat="47.89682" lon="6.90318">
        <ele>935.8</ele>
        <time>2022-08-29T06:59:46Z</time>
      </trkpt>
      <trkpt lat="47.89683" lon="6.9032">
        <ele>936.3</ele>
        <time>2022-08-29T06:59:47Z</time>
      </trkpt>
      <trkpt lat="47.89684" lon="6.90322">
        <ele>936.8</ele>
        <time>2022-08-29T06:59:48Z</time>
      </trkpt>
      <trkpt lat="47.89685" lon="6.90323">
        <ele>936.9</ele>
        <time>2022-08-29T06:59:49Z</time>
      </trkpt>
      <trkpt lat="47.89686" lon="6.90325">
        <ele>937.3</ele>
        <time>2022-08-29T06:59:50Z</time>
      </trkpt>
      <trkpt lat="47.89686" lon="6.90326">
        <ele>937.7</ele>
        <time>2022-08-29T06:59:51Z</time>
      </trkpt>
      <trkpt lat="47.89687" lon="6.90328">
        <ele>938.2</ele>
        <time>2022-08-29T06:59:52Z</time>
      </trkpt>
      <trkpt lat="47.89687" lon="6.90329">
        <ele>938.5</ele>
        <time>2022-08-29T06:59:53Z</time>
      </trkpt>
      <trkpt lat="47.89687" lon="6.90331">
        <ele>939.3</ele>
        <time>2022-08-29T06:59:54Z</time>
      </trkpt>
      <trkpt lat="47.89689" lon="6.90335">
        <ele>940</ele>
        <time>2022-08-29T07:00:01Z</time>
      </trkpt>
      <trkpt lat="47.89689" lon="6.90337">
        <ele>940.6</ele>
        <time>2022-08-29T07:00:02Z</time>
      </trkpt>
      <trkpt lat="47.89689" lon="6.90338">
        <ele>940.9</ele>
        <time>2022-08-29T07:00:03Z</time>
      </trkpt>
      <trkpt lat="47.8969" lon="6.9034">
        <ele>941.2</ele>
        <time>2022-08-29T07:00:04Z</time>
      </trkpt>
      <trkpt lat="47.89691" lon="6.90341">
        <ele>941.2</ele>
        <time>2022-08-29T07:00:05Z</time>
      </trkpt>
      <trkpt lat="47.89691" lon="6.90342">
        <ele>941.5</ele>
        <time>2022-08-29T07:00:06Z</time>
      </trkpt>
      <trkpt lat="47.89692" lon="6.90343">
        <ele>941.5</ele>
        <time>2022-08-29T07:00:08Z</time>
      </trkpt>
      <trkpt lat="47.89692" lon="6.90344">
        <ele>941.8</ele>
        <time>2022-08-29T07:00:09Z</time>
      </trkpt>
      <trkpt lat="47.89693" lon="6.90345">
        <ele>941.8</ele>
        <time>2022-08-29T07:00:10Z</time>
      </trkpt>
      <trkpt lat="47.89693" lon="6.90346">
        <ele>942.1</ele>
        <time>2022-08-29T07:00:11Z</time>
      </trkpt>
      <trkpt lat="47.89694" lon="6.90346">
        <ele>941.8</ele>
        <time>2022-08-29T07:00:12Z</time>
      </trkpt>
      <trkpt lat="47.89694" lon="6.90347">
        <ele>942.1</ele>
        <time>2022-08-29T07:00:13Z</time>
      </trkpt>
      <trkpt lat="47.89695" lon="6.90348">
        <ele>942.1</ele>
        <time>2022-08-29T07:00:14Z</time>
      </trkpt>
      <trkpt lat="47.89696" lon="6.9035">
        <ele>942.4</ele>
        <time>2022-08-29T07:00:16Z</time>
      </trkpt>
      <trkpt lat="47.89697" lon="6.90351">
        <ele>942.4</ele>
        <time>2022-08-29T07:00:17Z</time>
      </trkpt>
      <trkpt lat="47.89697" lon="6.90352">
        <ele>942.6</ele>
        <time>2022-08-29T07:00:19Z</time>
      </trkpt>
      <trkpt lat="47.89697" lon="6.90353">
        <ele>942.9</ele>
        <time>2022-08-29T07:00:20Z</time>
      </trkpt>
      <trkpt lat="47.89697" lon="6.90354">
        <ele>943.2</ele>
        <time>2022-08-29T07:00:21Z</time>
      </trkpt>
      <trkpt lat="47.89698" lon="6.90355">
        <ele>943.2</ele>
        <time>2022-08-29T07:00:22Z</time>
      </trkpt>
      <trkpt lat="47.89698" lon="6.90356">
        <ele>943.5</ele>
        <time>2022-08-29T07:00:23Z</time>
      </trkpt>
      <trkpt lat="47.89698" lon="6.90358">
        <ele>944.1</ele>
        <time>2022-08-29T07:00:24Z</time>
      </trkpt>
      <trkpt lat="47.89698" lon="6.90359">
        <ele>944.4</ele>
        <time>2022-08-29T07:00:25Z</time>
      </trkpt>
      <trkpt lat="47.89699" lon="6.9036">
        <ele>944.4</ele>
        <time>2022-08-29T07:00:26Z</time>
      </trkpt>
      <trkpt lat="47.89699" lon="6.90361">
        <ele>944.7</ele>
        <time>2022-08-29T07:00:27Z</time>
      </trkpt>
      <trkpt lat="47.89701" lon="6.90362">
        <ele>944.3</ele>
        <time>2022-08-29T07:00:28Z</time>
      </trkpt>
      <trkpt lat="47.89702" lon="6.90362">
        <ele>944</ele>
        <time>2022-08-29T07:00:29Z</time>
      </trkpt>
      <trkpt lat="47.89704" lon="6.90364">
        <ele>943.9</ele>
        <time>2022-08-29T07:01:22Z</time>
      </trkpt>
      <trkpt lat="47.89705" lon="6.90366">
        <ele>944</ele>
        <time>2022-08-29T07:01:23Z</time>
      </trkpt>
      <trkpt lat="47.89705" lon="6.90367">
        <ele>944.2</ele>
        <time>2022-08-29T07:01:24Z</time>
      </trkpt>
      <trkpt lat="47.89706" lon="6.90368">
        <ele>944.2</ele>
        <time>2022-08-29T07:01:25Z</time>
      </trkpt>
      <trkpt lat="47.89706" lon="6.9037">
        <ele>944.6</ele>
        <time>2022-08-29T07:01:26Z</time>
      </trkpt>
      <trkpt lat="47.89707" lon="6.9037">
        <ele>944.3</ele>
        <time>2022-08-29T07:01:27Z</time>
      </trkpt>
      <trkpt lat="47.89707" lon="6.90371">
        <ele>944.5</ele>
        <time>2022-08-29T07:01:28Z</time>
      </trkpt>
      <trkpt lat="47.89707" lon="6.90372">
        <ele>944.7</ele>
        <time>2022-08-29T07:01:29Z</time>
      </trkpt>
      <trkpt lat="47.89708" lon="6.90374">
        <ele>944.9</ele>
        <time>2022-08-29T07:01:30Z</time>
      </trkpt>
      <trkpt lat="47.89708" lon="6.90375">
        <ele>945.1</ele>
        <time>2022-08-29T07:01:31Z</time>
      </trkpt>
      <trkpt lat="47.89708" lon="6.90376">
        <ele>945.3</ele>
        <time>2022-08-29T07:01:32Z</time>
      </trkpt>
      <trkpt lat="47.89708" lon="6.90378">
        <ele>945.7</ele>
        <time>2022-08-29T07:01:33Z</time>
      </trkpt>
      <trkpt lat="47.89708" lon="6.90379">
        <ele>946</ele>
        <time>2022-08-29T07:01:34Z</time>
      </trkpt>
      <trkpt lat="47.89708" lon="6.90381">
        <ele>946.4</ele>
        <time>2022-08-29T07:01:35Z</time>
      </trkpt>
      <trkpt lat="47.89709" lon="6.90383">
        <ele>946.5</ele>
        <time>2022-08-29T07:01:36Z</time>
      </trkpt>
      <trkpt lat="47.89709" lon="6.90384">
        <ele>946.8</ele>
        <time>2022-08-29T07:01:37Z</time>
      </trkpt>
      <trkpt lat="47.89709" lon="6.90386">
        <ele>947.2</ele>
        <time>2022-08-29T07:01:38Z</time>
      </trkpt>
      <trkpt lat="47.89709" lon="6.90387">
        <ele>947.4</ele>
        <time>2022-08-29T07:01:39Z</time>
      </trkpt>
      <trkpt lat="47.89709" lon="6.90389">
        <ele>947.8</ele>
        <time>2022-08-29T07:01:40Z</time>
      </trkpt>
      <trkpt lat="47.89709" lon="6.9039">
        <ele>948</ele>
        <time>2022-08-29T07:01:41Z</time>
      </trkpt>
      <trkpt lat="47.8971" lon="6.90391">
        <ele>947.9</ele>
        <time>2022-08-29T07:01:42Z</time>
      </trkpt>
      <trkpt lat="47.8971" lon="6.90392">
        <ele>948.1</ele>
        <time>2022-08-29T07:01:43Z</time>
      </trkpt>
      <trkpt lat="47.8971" lon="6.90393">
        <ele>948.2</ele>
        <time>2022-08-29T07:01:44Z</time>
      </trkpt>
      <trkpt lat="47.89711" lon="6.90395">
        <ele>948.2</ele>
        <time>2022-08-29T07:01:45Z</time>
      </trkpt>
      <trkpt lat="47.89711" lon="6.90396">
        <ele>948.4</ele>
        <time>2022-08-29T07:01:46Z</time>
      </trkpt>
      <trkpt lat="47.89711" lon="6.90397">
        <ele>948.6</ele>
        <time>2022-08-29T07:01:47Z</time>
      </trkpt>
      <trkpt lat="47.89711" lon="6.90398">
        <ele>948.7</ele>
        <time>2022-08-29T07:01:48Z</time>
      </trkpt>
      <trkpt lat="47.89711" lon="6.90399">
        <ele>948.9</ele>
        <time>2022-08-29T07:01:49Z</time>
      </trkpt>
      <trkpt lat="47.89711" lon="6.904">
        <ele>949.1</ele>
        <time>2022-08-29T07:01:50Z</time>
      </trkpt>
      <trkpt lat="47.89711" lon="6.90401">
        <ele>949.2</ele>
        <time>2022-08-29T07:01:51Z</time>
      </trkpt>
      <trkpt lat="47.89711" lon="6.90402">
        <ele>949.4</ele>
        <time>2022-08-29T07:01:52Z</time>
      </trkpt>
      <trkpt lat="47.89711" lon="6.90404">
        <ele>949.7</ele>
        <time>2022-08-29T07:01:53Z</time>
      </trkpt>
      <trkpt lat="47.89712" lon="6.90405">
        <ele>949.5</ele>
        <time>2022-08-29T07:01:55Z</time>
      </trkpt>
      <trkpt lat="47.89712" lon="6.90406">
        <ele>949.7</ele>
        <time>2022-08-29T07:01:56Z</time>
      </trkpt>
      <trkpt lat="47.89712" lon="6.90407">
        <ele>949.9</ele>
        <time>2022-08-29T07:01:57Z</time>
      </trkpt>
      <trkpt lat="47.89712" lon="6.90408">
        <ele>950</ele>
        <time>2022-08-29T07:01:59Z</time>
      </trkpt>
      <trkpt lat="47.89712" lon="6.90409">
        <ele>950.2</ele>
        <time>2022-08-29T07:02:01Z</time>
      </trkpt>
      <trkpt lat="47.89712" lon="6.9041">
        <ele>950.3</ele>
        <time>2022-08-29T07:02:02Z</time>
      </trkpt>
      <trkpt lat="47.89712" lon="6.90411">
        <ele>950.5</ele>
        <time>2022-08-29T07:02:03Z</time>
      </trkpt>
      <trkpt lat="47.89712" lon="6.90412">
        <ele>950.7</ele>
        <time>2022-08-29T07:02:04Z</time>
      </trkpt>
      <trkpt lat="47.89712" lon="6.90413">
        <ele>950.8</ele>
        <time>2022-08-29T07:02:05Z</time>
      </trkpt>
      <trkpt lat="47.89712" lon="6.90414">
        <ele>951</ele>
        <time>2022-08-29T07:02:06Z</time>
      </trkpt>
      <trkpt lat="47.89713" lon="6.90415">
        <ele>950.7</ele>
        <time>2022-08-29T07:02:07Z</time>
      </trkpt>
      <trkpt lat="47.89713" lon="6.90416">
        <ele>950.9</ele>
        <time>2022-08-29T07:02:08Z</time>
      </trkpt>
      <trkpt lat="47.89713" lon="6.90417">
        <ele>951</ele>
        <time>2022-08-29T07:02:10Z</time>
      </trkpt>
      <trkpt lat="47.89713" lon="6.90418">
        <ele>951.2</ele>
        <time>2022-08-29T07:02:12Z</time>
      </trkpt>
      <trkpt lat="47.89713" lon="6.90419">
        <ele>951.4</ele>
        <time>2022-08-29T07:02:14Z</time>
      </trkpt>
      <trkpt lat="47.89712" lon="6.9042">
        <ele>952.1</ele>
        <time>2022-08-29T07:02:15Z</time>
      </trkpt>
      <trkpt lat="47.89712" lon="6.90421">
        <ele>952.3</ele>
        <time>2022-08-29T07:02:16Z</time>
      </trkpt>
      <trkpt lat="47.89712" lon="6.90424">
        <ele>952.8</ele>
        <time>2022-08-29T07:02:22Z</time>
      </trkpt>
      <trkpt lat="47.89712" lon="6.90425">
        <ele>953</ele>
        <time>2022-08-29T07:02:23Z</time>
      </trkpt>
      <trkpt lat="47.89712" lon="6.90426">
        <ele>953.2</ele>
        <time>2022-08-29T07:02:24Z</time>
      </trkpt>
      <trkpt lat="47.89712" lon="6.90427">
        <ele>953.4</ele>
        <time>2022-08-29T07:02:25Z</time>
      </trkpt>
      <trkpt lat="47.89713" lon="6.90428">
        <ele>953.2</ele>
        <time>2022-08-29T07:02:26Z</time>
      </trkpt>
      <trkpt lat="47.89713" lon="6.90429">
        <ele>953.4</ele>
        <time>2022-08-29T07:02:28Z</time>
      </trkpt>
      <trkpt lat="47.89713" lon="6.9043">
        <ele>953.5</ele>
        <time>2022-08-29T07:02:30Z</time>
      </trkpt>
      <trkpt lat="47.89713" lon="6.90431">
        <ele>953.7</ele>
        <time>2022-08-29T07:02:31Z</time>
      </trkpt>
      <trkpt lat="47.89713" lon="6.90432">
        <ele>953.9</ele>
        <time>2022-08-29T07:02:32Z</time>
      </trkpt>
      <trkpt lat="47.89714" lon="6.90434">
        <ele>953.9</ele>
        <time>2022-08-29T07:02:33Z</time>
      </trkpt>
      <trkpt lat="47.89714" lon="6.90435">
        <ele>954</ele>
        <time>2022-08-29T07:02:34Z</time>
      </trkpt>
      <trkpt lat="47.89714" lon="6.90437">
        <ele>954.4</ele>
        <time>2022-08-29T07:02:35Z</time>
      </trkpt>
      <trkpt lat="47.89715" lon="6.90439">
        <ele>954.3</ele>
        <time>2022-08-29T07:02:36Z</time>
      </trkpt>
      <trkpt lat="47.89715" lon="6.90441">
        <ele>954.7</ele>
        <time>2022-08-29T07:02:37Z</time>
      </trkpt>
      <trkpt lat="47.89716" lon="6.90443">
        <ele>954.6</ele>
        <time>2022-08-29T07:02:38Z</time>
      </trkpt>
      <trkpt lat="47.89716" lon="6.90444">
        <ele>954.8</ele>
        <time>2022-08-29T07:02:39Z</time>
      </trkpt>
      <trkpt lat="47.89717" lon="6.90445">
        <ele>954.6</ele>
        <time>2022-08-29T07:02:40Z</time>
      </trkpt>
      <trkpt lat="47.89717" lon="6.90446">
        <ele>954.8</ele>
        <time>2022-08-29T07:02:41Z</time>
      </trkpt>
      <trkpt lat="47.89717" lon="6.90447">
        <ele>955</ele>
        <time>2022-08-29T07:02:42Z</time>
      </trkpt>
      <trkpt lat="47.89718" lon="6.90448">
        <ele>954.7</ele>
        <time>2022-08-29T07:02:43Z</time>
      </trkpt>
      <trkpt lat="47.89718" lon="6.90449">
        <ele>955</ele>
        <time>2022-08-29T07:02:44Z</time>
      </trkpt>
      <trkpt lat="47.89718" lon="6.9045">
        <ele>955.2</ele>
        <time>2022-08-29T07:02:45Z</time>
      </trkpt>
      <trkpt lat="47.89718" lon="6.90451">
        <ele>955.4</ele>
        <time>2022-08-29T07:02:46Z</time>
      </trkpt>
      <trkpt lat="47.89719" lon="6.90454">
        <ele>955.6</ele>
        <time>2022-08-29T07:02:57Z</time>
      </trkpt>
      <trkpt lat="47.8972" lon="6.90456">
        <ele>955.5</ele>
        <time>2022-08-29T07:02:58Z</time>
      </trkpt>
      <trkpt lat="47.8972" lon="6.90458">
        <ele>956</ele>
        <time>2022-08-29T07:02:59Z</time>
      </trkpt>
      <trkpt lat="47.8972" lon="6.9046">
        <ele>956.4</ele>
        <time>2022-08-29T07:03:00Z</time>
      </trkpt>
      <trkpt lat="47.89721" lon="6.90462">
        <ele>956.4</ele>
        <time>2022-08-29T07:03:01Z</time>
      </trkpt>
      <trkpt lat="47.8972" lon="6.90463">
        <ele>957</ele>
        <time>2022-08-29T07:03:02Z</time>
      </trkpt>
      <trkpt lat="47.8972" lon="6.90465">
        <ele>957.5</ele>
        <time>2022-08-29T07:03:03Z</time>
      </trkpt>
      <trkpt lat="47.8972" lon="6.90468">
        <ele>958.1</ele>
        <time>2022-08-29T07:03:15Z</time>
      </trkpt>
      <trkpt lat="47.8972" lon="6.90469">
        <ele>958.3</ele>
        <time>2022-08-29T07:03:16Z</time>
      </trkpt>
      <trkpt lat="47.89719" lon="6.9047">
        <ele>959</ele>
        <time>2022-08-29T07:03:17Z</time>
      </trkpt>
      <trkpt lat="47.89719" lon="6.90471">
        <ele>959.2</ele>
        <time>2022-08-29T07:03:18Z</time>
      </trkpt>
      <trkpt lat="47.89719" lon="6.90472">
        <ele>959.5</ele>
        <time>2022-08-29T07:03:19Z</time>
      </trkpt>
      <trkpt lat="47.89719" lon="6.90473">
        <ele>959.6</ele>
        <time>2022-08-29T07:03:20Z</time>
      </trkpt>
      <trkpt lat="47.89719" lon="6.90474">
        <ele>959.8</ele>
        <time>2022-08-29T07:03:22Z</time>
      </trkpt>
      <trkpt lat="47.89719" lon="6.90475">
        <ele>960</ele>
        <time>2022-08-29T07:03:23Z</time>
      </trkpt>
      <trkpt lat="47.89719" lon="6.90476">
        <ele>960.2</ele>
        <time>2022-08-29T07:03:24Z</time>
      </trkpt>
      <trkpt lat="47.89719" lon="6.90477">
        <ele>960.3</ele>
        <time>2022-08-29T07:03:25Z</time>
      </trkpt>
      <trkpt lat="47.89719" lon="6.90478">
        <ele>960.5</ele>
        <time>2022-08-29T07:03:27Z</time>
      </trkpt>
      <trkpt lat="47.89719" lon="6.90479">
        <ele>960.7</ele>
        <time>2022-08-29T07:03:28Z</time>
      </trkpt>
      <trkpt lat="47.89719" lon="6.9048">
        <ele>960.9</ele>
        <time>2022-08-29T07:03:29Z</time>
      </trkpt>
      <trkpt lat="47.8972" lon="6.90484">
        <ele>961.1</ele>
        <time>2022-08-29T07:03:38Z</time>
      </trkpt>
      <trkpt lat="47.89721" lon="6.90486">
        <ele>961</ele>
        <time>2022-08-29T07:03:39Z</time>
      </trkpt>
      <trkpt lat="47.89721" lon="6.90488">
        <ele>961.4</ele>
        <time>2022-08-29T07:03:40Z</time>
      </trkpt>
      <trkpt lat="47.89721" lon="6.90489">
        <ele>961.6</ele>
        <time>2022-08-29T07:03:41Z</time>
      </trkpt>
      <trkpt lat="47.89721" lon="6.9049">
        <ele>961.7</ele>
        <time>2022-08-29T07:03:42Z</time>
      </trkpt>
      <trkpt lat="47.89721" lon="6.90491">
        <ele>961.9</ele>
        <time>2022-08-29T07:03:43Z</time>
      </trkpt>
      <trkpt lat="47.89721" lon="6.90493">
        <ele>962.3</ele>
        <time>2022-08-29T07:03:44Z</time>
      </trkpt>
      <trkpt lat="47.89721" lon="6.90494">
        <ele>962.5</ele>
        <time>2022-08-29T07:03:45Z</time>
      </trkpt>
      <trkpt lat="47.89722" lon="6.90496">
        <ele>962.4</ele>
        <time>2022-08-29T07:03:46Z</time>
      </trkpt>
      <trkpt lat="47.89722" lon="6.90497">
        <ele>962.6</ele>
        <time>2022-08-29T07:03:47Z</time>
      </trkpt>
      <trkpt lat="47.89723" lon="6.905">
        <ele>962.6</ele>
        <time>2022-08-29T07:03:55Z</time>
      </trkpt>
      <trkpt lat="47.89723" lon="6.90501">
        <ele>962.8</ele>
        <time>2022-08-29T07:03:56Z</time>
      </trkpt>
      <trkpt lat="47.89724" lon="6.90503">
        <ele>962.6</ele>
        <time>2022-08-29T07:03:57Z</time>
      </trkpt>
      <trkpt lat="47.89725" lon="6.90506">
        <ele>962.6</ele>
        <time>2022-08-29T07:04:07Z</time>
      </trkpt>
      <trkpt lat="47.89724" lon="6.90507">
        <ele>963.2</ele>
        <time>2022-08-29T07:04:08Z</time>
      </trkpt>
      <trkpt lat="47.89724" lon="6.90509">
        <ele>963.5</ele>
        <time>2022-08-29T07:04:09Z</time>
      </trkpt>
      <trkpt lat="47.89724" lon="6.90511">
        <ele>963.8</ele>
        <time>2022-08-29T07:04:10Z</time>
      </trkpt>
      <trkpt lat="47.89724" lon="6.90513">
        <ele>964.1</ele>
        <time>2022-08-29T07:04:11Z</time>
      </trkpt>
      <trkpt lat="47.89725" lon="6.90515">
        <ele>963.9</ele>
        <time>2022-08-29T07:04:12Z</time>
      </trkpt>
      <trkpt lat="47.89725" lon="6.90517">
        <ele>964.2</ele>
        <time>2022-08-29T07:04:13Z</time>
      </trkpt>
      <trkpt lat="47.89725" lon="6.90519">
        <ele>964.5</ele>
        <time>2022-08-29T07:04:14Z</time>
      </trkpt>
      <trkpt lat="47.89726" lon="6.9052">
        <ele>964.2</ele>
        <time>2022-08-29T07:04:15Z</time>
      </trkpt>
      <trkpt lat="47.89726" lon="6.90522">
        <ele>964.5</ele>
        <time>2022-08-29T07:04:16Z</time>
      </trkpt>
      <trkpt lat="47.89727" lon="6.90523">
        <ele>964.2</ele>
        <time>2022-08-29T07:04:17Z</time>
      </trkpt>
      <trkpt lat="47.89727" lon="6.90524">
        <ele>964.4</ele>
        <time>2022-08-29T07:04:18Z</time>
      </trkpt>
      <trkpt lat="47.89727" lon="6.90525">
        <ele>964.5</ele>
        <time>2022-08-29T07:04:19Z</time>
      </trkpt>
      <trkpt lat="47.89727" lon="6.90526">
        <ele>964.7</ele>
        <time>2022-08-29T07:04:20Z</time>
      </trkpt>
      <trkpt lat="47.89727" lon="6.90527">
        <ele>964.8</ele>
        <time>2022-08-29T07:04:21Z</time>
      </trkpt>
      <trkpt lat="47.89727" lon="6.90528">
        <ele>965</ele>
        <time>2022-08-29T07:04:22Z</time>
      </trkpt>
      <trkpt lat="47.89727" lon="6.90529">
        <ele>965.2</ele>
        <time>2022-08-29T07:04:23Z</time>
      </trkpt>
      <trkpt lat="47.89728" lon="6.9053">
        <ele>964.9</ele>
        <time>2022-08-29T07:04:24Z</time>
      </trkpt>
      <trkpt lat="47.89728" lon="6.90531">
        <ele>965.1</ele>
        <time>2022-08-29T07:04:25Z</time>
      </trkpt>
      <trkpt lat="47.89728" lon="6.90533">
        <ele>965.4</ele>
        <time>2022-08-29T07:04:26Z</time>
      </trkpt>
      <trkpt lat="47.89727" lon="6.90535">
        <ele>966.2</ele>
        <time>2022-08-29T07:04:27Z</time>
      </trkpt>
      <trkpt lat="47.89727" lon="6.90536">
        <ele>966.4</ele>
        <time>2022-08-29T07:04:28Z</time>
      </trkpt>
      <trkpt lat="47.89727" lon="6.90538">
        <ele>966.8</ele>
        <time>2022-08-29T07:04:29Z</time>
      </trkpt>
      <trkpt lat="47.89727" lon="6.90539">
        <ele>967</ele>
        <time>2022-08-29T07:04:32Z</time>
      </trkpt>
      <trkpt lat="47.89726" lon="6.90539">
        <ele>967.4</ele>
        <time>2022-08-29T07:04:33Z</time>
      </trkpt>
      <trkpt lat="47.89726" lon="6.9054">
        <ele>967.6</ele>
        <time>2022-08-29T07:04:35Z</time>
      </trkpt>
      <trkpt lat="47.89726" lon="6.90541">
        <ele>967.7</ele>
        <time>2022-08-29T07:04:36Z</time>
      </trkpt>
      <trkpt lat="47.89727" lon="6.90542">
        <ele>967.5</ele>
        <time>2022-08-29T07:04:37Z</time>
      </trkpt>
      <trkpt lat="47.89727" lon="6.90543">
        <ele>967.7</ele>
        <time>2022-08-29T07:04:38Z</time>
      </trkpt>
      <trkpt lat="47.89728" lon="6.90544">
        <ele>967.4</ele>
        <time>2022-08-29T07:04:39Z</time>
      </trkpt>
      <trkpt lat="47.89729" lon="6.90545">
        <ele>967.2</ele>
        <time>2022-08-29T07:04:40Z</time>
      </trkpt>
      <trkpt lat="47.8973" lon="6.90546">
        <ele>966.9</ele>
        <time>2022-08-29T07:04:41Z</time>
      </trkpt>
      <trkpt lat="47.89731" lon="6.90546">
        <ele>966.5</ele>
        <time>2022-08-29T07:04:42Z</time>
      </trkpt>
      <trkpt lat="47.89732" lon="6.90547">
        <ele>966.2</ele>
        <time>2022-08-29T07:04:43Z</time>
      </trkpt>
      <trkpt lat="47.89733" lon="6.90548">
        <ele>966</ele>
        <time>2022-08-29T07:04:44Z</time>
      </trkpt>
      <trkpt lat="47.89733" lon="6.90549">
        <ele>966.2</ele>
        <time>2022-08-29T07:04:45Z</time>
      </trkpt>
      <trkpt lat="47.89733" lon="6.9055">
        <ele>966.3</ele>
        <time>2022-08-29T07:04:46Z</time>
      </trkpt>
      <trkpt lat="47.89733" lon="6.90551">
        <ele>966.5</ele>
        <time>2022-08-29T07:04:48Z</time>
      </trkpt>
      <trkpt lat="47.89733" lon="6.90552">
        <ele>966.7</ele>
        <time>2022-08-29T07:04:50Z</time>
      </trkpt>
      <trkpt lat="47.89732" lon="6.90553">
        <ele>967.3</ele>
        <time>2022-08-29T07:04:52Z</time>
      </trkpt>
      <trkpt lat="47.89731" lon="6.90554">
        <ele>967.9</ele>
        <time>2022-08-29T07:04:54Z</time>
      </trkpt>
      <trkpt lat="47.89731" lon="6.90555">
        <ele>968.1</ele>
        <time>2022-08-29T07:04:55Z</time>
      </trkpt>
      <trkpt lat="47.89732" lon="6.90556">
        <ele>967.9</ele>
        <time>2022-08-29T07:04:57Z</time>
      </trkpt>
      <trkpt lat="47.89732" lon="6.9056">
        <ele>968.6</ele>
        <time>2022-08-29T07:05:22Z</time>
      </trkpt>
      <trkpt lat="47.89731" lon="6.90562">
        <ele>969.4</ele>
        <time>2022-08-29T07:05:23Z</time>
      </trkpt>
      <trkpt lat="47.89731" lon="6.90564">
        <ele>969.7</ele>
        <time>2022-08-29T07:05:24Z</time>
      </trkpt>
      <trkpt lat="47.89731" lon="6.90565">
        <ele>969.9</ele>
        <time>2022-08-29T07:05:25Z</time>
      </trkpt>
      <trkpt lat="47.89731" lon="6.90567">
        <ele>970.3</ele>
        <time>2022-08-29T07:05:26Z</time>
      </trkpt>
      <trkpt lat="47.89731" lon="6.90568">
        <ele>970.4</ele>
        <time>2022-08-29T07:05:27Z</time>
      </trkpt>
      <trkpt lat="47.8973" lon="6.90569">
        <ele>971.1</ele>
        <time>2022-08-29T07:05:28Z</time>
      </trkpt>
      <trkpt lat="47.8973" lon="6.9057">
        <ele>971.2</ele>
        <time>2022-08-29T07:05:30Z</time>
      </trkpt>
      <trkpt lat="47.8973" lon="6.90572">
        <ele>971.6</ele>
        <time>2022-08-29T07:05:31Z</time>
      </trkpt>
      <trkpt lat="47.8973" lon="6.90573">
        <ele>971.8</ele>
        <time>2022-08-29T07:05:32Z</time>
      </trkpt>
      <trkpt lat="47.89729" lon="6.90574">
        <ele>972.4</ele>
        <time>2022-08-29T07:05:33Z</time>
      </trkpt>
      <trkpt lat="47.89729" lon="6.90575">
        <ele>972.6</ele>
        <time>2022-08-29T07:05:34Z</time>
      </trkpt>
      <trkpt lat="47.89729" lon="6.90576">
        <ele>972.8</ele>
        <time>2022-08-29T07:05:35Z</time>
      </trkpt>
      <trkpt lat="47.89729" lon="6.90577">
        <ele>972.9</ele>
        <time>2022-08-29T07:05:36Z</time>
      </trkpt>
      <trkpt lat="47.8973" lon="6.90578">
        <ele>972.7</ele>
        <time>2022-08-29T07:05:37Z</time>
      </trkpt>
      <trkpt lat="47.8973" lon="6.90579">
        <ele>972.9</ele>
        <time>2022-08-29T07:05:38Z</time>
      </trkpt>
      <trkpt lat="47.8973" lon="6.9058">
        <ele>973</ele>
        <time>2022-08-29T07:05:40Z</time>
      </trkpt>
      <trkpt lat="47.8973" lon="6.90581">
        <ele>973.2</ele>
        <time>2022-08-29T07:05:41Z</time>
      </trkpt>
      <trkpt lat="47.89731" lon="6.90582">
        <ele>973</ele>
        <time>2022-08-29T07:05:42Z</time>
      </trkpt>
      <trkpt lat="47.89731" lon="6.90583">
        <ele>973.1</ele>
        <time>2022-08-29T07:05:43Z</time>
      </trkpt>
      <trkpt lat="47.89731" lon="6.90584">
        <ele>973.3</ele>
        <time>2022-08-29T07:05:44Z</time>
      </trkpt>
      <trkpt lat="47.89731" lon="6.90585">
        <ele>973.5</ele>
        <time>2022-08-29T07:05:45Z</time>
      </trkpt>
      <trkpt lat="47.89731" lon="6.90586">
        <ele>973.7</ele>
        <time>2022-08-29T07:05:46Z</time>
      </trkpt>
      <trkpt lat="47.8973" lon="6.90588">
        <ele>974.4</ele>
        <time>2022-08-29T07:05:47Z</time>
      </trkpt>
      <trkpt lat="47.8973" lon="6.90589">
        <ele>974.6</ele>
        <time>2022-08-29T07:05:48Z</time>
      </trkpt>
      <trkpt lat="47.8973" lon="6.90591">
        <ele>974.9</ele>
        <time>2022-08-29T07:05:49Z</time>
      </trkpt>
      <trkpt lat="47.8973" lon="6.90593">
        <ele>975.3</ele>
        <time>2022-08-29T07:05:50Z</time>
      </trkpt>
      <trkpt lat="47.8973" lon="6.90594">
        <ele>975.5</ele>
        <time>2022-08-29T07:05:51Z</time>
      </trkpt>
      <trkpt lat="47.8973" lon="6.90595">
        <ele>975.6</ele>
        <time>2022-08-29T07:05:52Z</time>
      </trkpt>
      <trkpt lat="47.89731" lon="6.90596">
        <ele>975.3</ele>
        <time>2022-08-29T07:05:53Z</time>
      </trkpt>
      <trkpt lat="47.89731" lon="6.90597">
        <ele>975.5</ele>
        <time>2022-08-29T07:05:54Z</time>
      </trkpt>
      <trkpt lat="47.89731" lon="6.90599">
        <ele>975.8</ele>
        <time>2022-08-29T07:05:55Z</time>
      </trkpt>
      <trkpt lat="47.89731" lon="6.906">
        <ele>976</ele>
        <time>2022-08-29T07:05:56Z</time>
      </trkpt>
      <trkpt lat="47.89731" lon="6.90601">
        <ele>976.2</ele>
        <time>2022-08-29T07:05:57Z</time>
      </trkpt>
      <trkpt lat="47.89731" lon="6.90602">
        <ele>976.4</ele>
        <time>2022-08-29T07:05:58Z</time>
      </trkpt>
      <trkpt lat="47.89732" lon="6.90604">
        <ele>976.2</ele>
        <time>2022-08-29T07:05:59Z</time>
      </trkpt>
      <trkpt lat="47.89732" lon="6.90605">
        <ele>976.4</ele>
        <time>2022-08-29T07:06:00Z</time>
      </trkpt>
      <trkpt lat="47.89732" lon="6.90607">
        <ele>976.7</ele>
        <time>2022-08-29T07:06:01Z</time>
      </trkpt>
      <trkpt lat="47.89732" lon="6.90609">
        <ele>977.1</ele>
        <time>2022-08-29T07:06:02Z</time>
      </trkpt>
      <trkpt lat="47.89732" lon="6.90611">
        <ele>977.4</ele>
        <time>2022-08-29T07:06:03Z</time>
      </trkpt>
      <trkpt lat="47.89732" lon="6.90612">
        <ele>977.6</ele>
        <time>2022-08-29T07:06:04Z</time>
      </trkpt>
      <trkpt lat="47.89733" lon="6.90613">
        <ele>977.4</ele>
        <time>2022-08-29T07:06:05Z</time>
      </trkpt>
      <trkpt lat="47.89733" lon="6.90614">
        <ele>977.6</ele>
        <time>2022-08-29T07:06:06Z</time>
      </trkpt>
      <trkpt lat="47.89733" lon="6.90615">
        <ele>977.8</ele>
        <time>2022-08-29T07:06:07Z</time>
      </trkpt>
      <trkpt lat="47.89733" lon="6.90617">
        <ele>978.2</ele>
        <time>2022-08-29T07:06:13Z</time>
      </trkpt>
      <trkpt lat="47.89733" lon="6.90618">
        <ele>978.4</ele>
        <time>2022-08-29T07:06:14Z</time>
      </trkpt>
      <trkpt lat="47.89733" lon="6.90619">
        <ele>978.7</ele>
        <time>2022-08-29T07:06:15Z</time>
      </trkpt>
      <trkpt lat="47.89733" lon="6.9062">
        <ele>978.9</ele>
        <time>2022-08-29T07:06:16Z</time>
      </trkpt>
      <trkpt lat="47.89734" lon="6.90621">
        <ele>978.6</ele>
        <time>2022-08-29T07:06:18Z</time>
      </trkpt>
      <trkpt lat="47.89734" lon="6.90622">
        <ele>978.8</ele>
        <time>2022-08-29T07:06:19Z</time>
      </trkpt>
      <trkpt lat="47.89734" lon="6.90623">
        <ele>979.1</ele>
        <time>2022-08-29T07:06:20Z</time>
      </trkpt>
      <trkpt lat="47.89734" lon="6.90624">
        <ele>979.3</ele>
        <time>2022-08-29T07:06:22Z</time>
      </trkpt>
      <trkpt lat="47.89734" lon="6.90625">
        <ele>979.5</ele>
        <time>2022-08-29T07:06:23Z</time>
      </trkpt>
      <trkpt lat="47.89734" lon="6.90626">
        <ele>979.7</ele>
        <time>2022-08-29T07:06:25Z</time>
      </trkpt>
      <trkpt lat="47.89734" lon="6.90627">
        <ele>979.9</ele>
        <time>2022-08-29T07:06:26Z</time>
      </trkpt>
      <trkpt lat="47.89735" lon="6.90628">
        <ele>979.7</ele>
        <time>2022-08-29T07:06:27Z</time>
      </trkpt>
      <trkpt lat="47.89735" lon="6.90629">
        <ele>979.9</ele>
        <time>2022-08-29T07:06:29Z</time>
      </trkpt>
      <trkpt lat="47.89735" lon="6.9063">
        <ele>980.1</ele>
        <time>2022-08-29T07:06:31Z</time>
      </trkpt>
      <trkpt lat="47.89736" lon="6.9063">
        <ele>979.6</ele>
        <time>2022-08-29T07:06:32Z</time>
      </trkpt>
      <trkpt lat="47.89736" lon="6.90631">
        <ele>979.8</ele>
        <time>2022-08-29T07:06:33Z</time>
      </trkpt>
      <trkpt lat="47.89736" lon="6.90632">
        <ele>980.1</ele>
        <time>2022-08-29T07:06:34Z</time>
      </trkpt>
      <trkpt lat="47.89736" lon="6.90633">
        <ele>980.3</ele>
        <time>2022-08-29T07:06:35Z</time>
      </trkpt>
      <trkpt lat="47.89737" lon="6.90635">
        <ele>980.2</ele>
        <time>2022-08-29T07:06:36Z</time>
      </trkpt>
      <trkpt lat="47.89737" lon="6.90636">
        <ele>980.5</ele>
        <time>2022-08-29T07:06:37Z</time>
      </trkpt>
      <trkpt lat="47.89737" lon="6.90638">
        <ele>980.9</ele>
        <time>2022-08-29T07:06:38Z</time>
      </trkpt>
      <trkpt lat="47.89738" lon="6.90639">
        <ele>980.6</ele>
        <time>2022-08-29T07:06:39Z</time>
      </trkpt>
      <trkpt lat="47.89738" lon="6.9064">
        <ele>980.9</ele>
        <time>2022-08-29T07:06:40Z</time>
      </trkpt>
      <trkpt lat="47.89738" lon="6.90641">
        <ele>981.1</ele>
        <time>2022-08-29T07:06:41Z</time>
      </trkpt>
      <trkpt lat="47.89739" lon="6.90644">
        <ele>981.4</ele>
        <time>2022-08-29T07:06:50Z</time>
      </trkpt>
      <trkpt lat="47.89739" lon="6.90646">
        <ele>981.8</ele>
        <time>2022-08-29T07:06:51Z</time>
      </trkpt>
      <trkpt lat="47.89739" lon="6.90648">
        <ele>982.3</ele>
        <time>2022-08-29T07:06:52Z</time>
      </trkpt>
      <trkpt lat="47.89739" lon="6.90649">
        <ele>982.6</ele>
        <time>2022-08-29T07:06:53Z</time>
      </trkpt>
      <trkpt lat="47.89739" lon="6.9065">
        <ele>982.8</ele>
        <time>2022-08-29T07:06:54Z</time>
      </trkpt>
      <trkpt lat="47.89739" lon="6.90651">
        <ele>983</ele>
        <time>2022-08-29T07:06:56Z</time>
      </trkpt>
      <trkpt lat="47.89739" lon="6.90652">
        <ele>983.3</ele>
        <time>2022-08-29T07:06:57Z</time>
      </trkpt>
      <trkpt lat="47.89739" lon="6.90653">
        <ele>983.5</ele>
        <time>2022-08-29T07:06:58Z</time>
      </trkpt>
      <trkpt lat="47.89739" lon="6.90655">
        <ele>984</ele>
        <time>2022-08-29T07:06:59Z</time>
      </trkpt>
      <trkpt lat="47.8974" lon="6.90656">
        <ele>983.8</ele>
        <time>2022-08-29T07:07:00Z</time>
      </trkpt>
      <trkpt lat="47.89741" lon="6.90657">
        <ele>983.6</ele>
        <time>2022-08-29T07:07:02Z</time>
      </trkpt>
      <trkpt lat="47.89741" lon="6.90658">
        <ele>983.8</ele>
        <time>2022-08-29T07:07:03Z</time>
      </trkpt>
      <trkpt lat="47.89742" lon="6.90659">
        <ele>983.6</ele>
        <time>2022-08-29T07:07:04Z</time>
      </trkpt>
      <trkpt lat="47.89743" lon="6.9066">
        <ele>983.4</ele>
        <time>2022-08-29T07:07:06Z</time>
      </trkpt>
      <trkpt lat="47.89743" lon="6.90661">
        <ele>983.6</ele>
        <time>2022-08-29T07:07:07Z</time>
      </trkpt>
      <trkpt lat="47.89744" lon="6.90662">
        <ele>983.5</ele>
        <time>2022-08-29T07:07:08Z</time>
      </trkpt>
      <trkpt lat="47.89744" lon="6.90663">
        <ele>983.7</ele>
        <time>2022-08-29T07:07:09Z</time>
      </trkpt>
      <trkpt lat="47.89744" lon="6.90664">
        <ele>983.9</ele>
        <time>2022-08-29T07:07:10Z</time>
      </trkpt>
      <trkpt lat="47.89745" lon="6.90665">
        <ele>983.8</ele>
        <time>2022-08-29T07:07:11Z</time>
      </trkpt>
      <trkpt lat="47.89745" lon="6.90666">
        <ele>984</ele>
        <time>2022-08-29T07:07:12Z</time>
      </trkpt>
      <trkpt lat="47.89745" lon="6.90667">
        <ele>984.3</ele>
        <time>2022-08-29T07:07:13Z</time>
      </trkpt>
      <trkpt lat="47.89745" lon="6.90668">
        <ele>984.5</ele>
        <time>2022-08-29T07:07:15Z</time>
      </trkpt>
      <trkpt lat="47.89745" lon="6.90669">
        <ele>984.8</ele>
        <time>2022-08-29T07:07:16Z</time>
      </trkpt>
      <trkpt lat="47.89745" lon="6.90671">
        <ele>985.4</ele>
        <time>2022-08-29T07:07:17Z</time>
      </trkpt>
      <trkpt lat="47.89745" lon="6.90672">
        <ele>985.6</ele>
        <time>2022-08-29T07:07:18Z</time>
      </trkpt>
      <trkpt lat="47.89743" lon="6.90673">
        <ele>986.7</ele>
        <time>2022-08-29T07:08:25Z</time>
      </trkpt>
      <trkpt lat="47.89742" lon="6.90674">
        <ele>987.4</ele>
        <time>2022-08-29T07:08:26Z</time>
      </trkpt>
      <trkpt lat="47.89742" lon="6.90675">
        <ele>987.7</ele>
        <time>2022-08-29T07:08:27Z</time>
      </trkpt>
      <trkpt lat="47.89742" lon="6.90676">
        <ele>988</ele>
        <time>2022-08-29T07:08:28Z</time>
      </trkpt>
      <trkpt lat="47.89741" lon="6.90677">
        <ele>988.6</ele>
        <time>2022-08-29T07:08:29Z</time>
      </trkpt>
      <trkpt lat="47.89742" lon="6.90677">
        <ele>988.2</ele>
        <time>2022-08-29T07:08:30Z</time>
      </trkpt>
      <trkpt lat="47.89742" lon="6.90678">
        <ele>988.5</ele>
        <time>2022-08-29T07:08:31Z</time>
      </trkpt>
      <trkpt lat="47.89743" lon="6.90679">
        <ele>988.4</ele>
        <time>2022-08-29T07:08:32Z</time>
      </trkpt>
      <trkpt lat="47.89744" lon="6.9068">
        <ele>988.2</ele>
        <time>2022-08-29T07:08:34Z</time>
      </trkpt>
      <trkpt lat="47.89745" lon="6.90681">
        <ele>988.1</ele>
        <time>2022-08-29T07:08:35Z</time>
      </trkpt>
      <trkpt lat="47.89745" lon="6.90682">
        <ele>988.4</ele>
        <time>2022-08-29T07:08:36Z</time>
      </trkpt>
      <trkpt lat="47.89746" lon="6.90683">
        <ele>988.3</ele>
        <time>2022-08-29T07:08:37Z</time>
      </trkpt>
      <trkpt lat="47.89747" lon="6.90684">
        <ele>988.2</ele>
        <time>2022-08-29T07:08:38Z</time>
      </trkpt>
      <trkpt lat="47.89747" lon="6.90685">
        <ele>988.4</ele>
        <time>2022-08-29T07:08:39Z</time>
      </trkpt>
      <trkpt lat="47.89748" lon="6.90686">
        <ele>988.3</ele>
        <time>2022-08-29T07:08:40Z</time>
      </trkpt>
      <trkpt lat="47.89748" lon="6.90687">
        <ele>988.6</ele>
        <time>2022-08-29T07:08:41Z</time>
      </trkpt>
      <trkpt lat="47.89748" lon="6.90688">
        <ele>988.9</ele>
        <time>2022-08-29T07:08:42Z</time>
      </trkpt>
      <trkpt lat="47.89748" lon="6.90689">
        <ele>989.2</ele>
        <time>2022-08-29T07:08:43Z</time>
      </trkpt>
      <trkpt lat="47.89748" lon="6.90694">
        <ele>990.6</ele>
        <time>2022-08-29T07:08:55Z</time>
      </trkpt>
      <trkpt lat="47.89748" lon="6.90697">
        <ele>991.4</ele>
        <time>2022-08-29T07:08:56Z</time>
      </trkpt>
      <trkpt lat="47.89748" lon="6.90699">
        <ele>992</ele>
        <time>2022-08-29T07:08:57Z</time>
      </trkpt>
      <trkpt lat="47.89748" lon="6.907">
        <ele>992.3</ele>
        <time>2022-08-29T07:08:58Z</time>
      </trkpt>
      <trkpt lat="47.89749" lon="6.90702">
        <ele>992.5</ele>
        <time>2022-08-29T07:08:59Z</time>
      </trkpt>
      <trkpt lat="47.89749" lon="6.90703">
        <ele>992.8</ele>
        <time>2022-08-29T07:09:00Z</time>
      </trkpt>
      <trkpt lat="47.89749" lon="6.90705">
        <ele>993.4</ele>
        <time>2022-08-29T07:09:02Z</time>
      </trkpt>
      <trkpt lat="47.8975" lon="6.90706">
        <ele>993.3</ele>
        <time>2022-08-29T07:09:03Z</time>
      </trkpt>
      <trkpt lat="47.8975" lon="6.90707">
        <ele>993.6</ele>
        <time>2022-08-29T07:09:04Z</time>
      </trkpt>
      <trkpt lat="47.89751" lon="6.90709">
        <ele>993.8</ele>
        <time>2022-08-29T07:09:05Z</time>
      </trkpt>
      <trkpt lat="47.89752" lon="6.9071">
        <ele>993.8</ele>
        <time>2022-08-29T07:09:06Z</time>
      </trkpt>
      <trkpt lat="47.89752" lon="6.90711">
        <ele>994</ele>
        <time>2022-08-29T07:09:07Z</time>
      </trkpt>
      <trkpt lat="47.89753" lon="6.90712">
        <ele>994</ele>
        <time>2022-08-29T07:09:08Z</time>
      </trkpt>
      <trkpt lat="47.89754" lon="6.90713">
        <ele>993.9</ele>
        <time>2022-08-29T07:09:09Z</time>
      </trkpt>
      <trkpt lat="47.89754" lon="6.90714">
        <ele>994.2</ele>
        <time>2022-08-29T07:09:10Z</time>
      </trkpt>
      <trkpt lat="47.89755" lon="6.90714">
        <ele>993.8</ele>
        <time>2022-08-29T07:09:11Z</time>
      </trkpt>
      <trkpt lat="47.89755" lon="6.90715">
        <ele>994.1</ele>
        <time>2022-08-29T07:09:12Z</time>
      </trkpt>
      <trkpt lat="47.89756" lon="6.90716">
        <ele>994</ele>
        <time>2022-08-29T07:09:13Z</time>
      </trkpt>
      <trkpt lat="47.89756" lon="6.90717">
        <ele>994.3</ele>
        <time>2022-08-29T07:09:14Z</time>
      </trkpt>
      <trkpt lat="47.89756" lon="6.90718">
        <ele>994.6</ele>
        <time>2022-08-29T07:09:15Z</time>
      </trkpt>
      <trkpt lat="47.89756" lon="6.90719">
        <ele>994.9</ele>
        <time>2022-08-29T07:09:16Z</time>
      </trkpt>
      <trkpt lat="47.89756" lon="6.9072">
        <ele>995.2</ele>
        <time>2022-08-29T07:09:17Z</time>
      </trkpt>
      <trkpt lat="47.89756" lon="6.90721">
        <ele>995.5</ele>
        <time>2022-08-29T07:09:18Z</time>
      </trkpt>
      <trkpt lat="47.89756" lon="6.90722">
        <ele>995.8</ele>
        <time>2022-08-29T07:09:19Z</time>
      </trkpt>
      <trkpt lat="47.89756" lon="6.90723">
        <ele>996</ele>
        <time>2022-08-29T07:09:20Z</time>
      </trkpt>
      <trkpt lat="47.89756" lon="6.90724">
        <ele>996.2</ele>
        <time>2022-08-29T07:09:21Z</time>
      </trkpt>
      <trkpt lat="47.89756" lon="6.90725">
        <ele>996.5</ele>
        <time>2022-08-29T07:09:22Z</time>
      </trkpt>
      <trkpt lat="47.89756" lon="6.90726">
        <ele>996.7</ele>
        <time>2022-08-29T07:09:23Z</time>
      </trkpt>
      <trkpt lat="47.89755" lon="6.90727">
        <ele>997.3</ele>
        <time>2022-08-29T07:09:24Z</time>
      </trkpt>
      <trkpt lat="47.89755" lon="6.90728">
        <ele>997.5</ele>
        <time>2022-08-29T07:09:25Z</time>
      </trkpt>
      <trkpt lat="47.89755" lon="6.90729">
        <ele>997.7</ele>
        <time>2022-08-29T07:09:26Z</time>
      </trkpt>
      <trkpt lat="47.89755" lon="6.9073">
        <ele>997.9</ele>
        <time>2022-08-29T07:09:28Z</time>
      </trkpt>
      <trkpt lat="47.89754" lon="6.90731">
        <ele>998.5</ele>
        <time>2022-08-29T07:09:29Z</time>
      </trkpt>
      <trkpt lat="47.89754" lon="6.90733">
        <ele>998.9</ele>
        <time>2022-08-29T07:09:44Z</time>
      </trkpt>
      <trkpt lat="47.89754" lon="6.90735">
        <ele>999.4</ele>
        <time>2022-08-29T07:09:45Z</time>
      </trkpt>
      <trkpt lat="47.89754" lon="6.90736">
        <ele>999.6</ele>
        <time>2022-08-29T07:09:46Z</time>
      </trkpt>
      <trkpt lat="47.89752" lon="6.90738">
        <ele>1000.7</ele>
        <time>2022-08-29T07:09:57Z</time>
      </trkpt>
      <trkpt lat="47.89752" lon="6.9074">
        <ele>1001.2</ele>
        <time>2022-08-29T07:09:58Z</time>
      </trkpt>
      <trkpt lat="47.89752" lon="6.90741">
        <ele>1001.4</ele>
        <time>2022-08-29T07:09:59Z</time>
      </trkpt>
      <trkpt lat="47.89752" lon="6.90743">
        <ele>1001.8</ele>
        <time>2022-08-29T07:10:00Z</time>
      </trkpt>
      <trkpt lat="47.89752" lon="6.90744">
        <ele>1002</ele>
        <time>2022-08-29T07:10:01Z</time>
      </trkpt>
      <trkpt lat="47.89752" lon="6.90745">
        <ele>1002.3</ele>
        <time>2022-08-29T07:10:02Z</time>
      </trkpt>
      <trkpt lat="47.89752" lon="6.90746">
        <ele>1002.5</ele>
        <time>2022-08-29T07:10:03Z</time>
      </trkpt>
      <trkpt lat="47.89753" lon="6.90747">
        <ele>1002.4</ele>
        <time>2022-08-29T07:10:04Z</time>
      </trkpt>
      <trkpt lat="47.89753" lon="6.90748">
        <ele>1002.6</ele>
        <time>2022-08-29T07:10:05Z</time>
      </trkpt>
      <trkpt lat="47.89753" lon="6.9075">
        <ele>1003</ele>
        <time>2022-08-29T07:10:06Z</time>
      </trkpt>
      <trkpt lat="47.89753" lon="6.90751">
        <ele>1003.3</ele>
        <time>2022-08-29T07:10:07Z</time>
      </trkpt>
      <trkpt lat="47.89753" lon="6.90752">
        <ele>1003.5</ele>
        <time>2022-08-29T07:10:08Z</time>
      </trkpt>
      <trkpt lat="47.89753" lon="6.90753">
        <ele>1003.8</ele>
        <time>2022-08-29T07:10:09Z</time>
      </trkpt>
      <trkpt lat="47.89754" lon="6.90755">
        <ele>1004</ele>
        <time>2022-08-29T07:10:10Z</time>
      </trkpt>
      <trkpt lat="47.89754" lon="6.90756">
        <ele>1004.2</ele>
        <time>2022-08-29T07:10:11Z</time>
      </trkpt>
      <trkpt lat="47.89755" lon="6.90758">
        <ele>1004.4</ele>
        <time>2022-08-29T07:10:13Z</time>
      </trkpt>
      <trkpt lat="47.89756" lon="6.90759">
        <ele>1004.3</ele>
        <time>2022-08-29T07:10:14Z</time>
      </trkpt>
      <trkpt lat="47.89756" lon="6.90761">
        <ele>1004.8</ele>
        <time>2022-08-29T07:10:15Z</time>
      </trkpt>
      <trkpt lat="47.89757" lon="6.90762">
        <ele>1004.8</ele>
        <time>2022-08-29T07:10:16Z</time>
      </trkpt>
      <trkpt lat="47.89757" lon="6.90764">
        <ele>1005.3</ele>
        <time>2022-08-29T07:10:17Z</time>
      </trkpt>
      <trkpt lat="47.89757" lon="6.90765">
        <ele>1005.5</ele>
        <time>2022-08-29T07:10:18Z</time>
      </trkpt>
      <trkpt lat="47.89758" lon="6.90766">
        <ele>1005.4</ele>
        <time>2022-08-29T07:10:19Z</time>
      </trkpt>
      <trkpt lat="47.89758" lon="6.90768">
        <ele>1005.9</ele>
        <time>2022-08-29T07:10:20Z</time>
      </trkpt>
      <trkpt lat="47.89759" lon="6.90769">
        <ele>1005.9</ele>
        <time>2022-08-29T07:10:21Z</time>
      </trkpt>
      <trkpt lat="47.89759" lon="6.9077">
        <ele>1006.1</ele>
        <time>2022-08-29T07:10:22Z</time>
      </trkpt>
      <trkpt lat="47.89761" lon="6.90773">
        <ele>1006.2</ele>
        <time>2022-08-29T07:10:30Z</time>
      </trkpt>
      <trkpt lat="47.89762" lon="6.90774">
        <ele>1006.2</ele>
        <time>2022-08-29T07:10:31Z</time>
      </trkpt>
      <trkpt lat="47.89763" lon="6.90775">
        <ele>1006.1</ele>
        <time>2022-08-29T07:10:32Z</time>
      </trkpt>
      <trkpt lat="47.89764" lon="6.90775">
        <ele>1005.8</ele>
        <time>2022-08-29T07:10:33Z</time>
      </trkpt>
      <trkpt lat="47.89765" lon="6.90776">
        <ele>1005.7</ele>
        <time>2022-08-29T07:10:34Z</time>
      </trkpt>
      <trkpt lat="47.89766" lon="6.90776">
        <ele>1005.4</ele>
        <time>2022-08-29T07:10:35Z</time>
      </trkpt>
      <trkpt lat="47.89766" lon="6.90777">
        <ele>1005.6</ele>
        <time>2022-08-29T07:10:36Z</time>
      </trkpt>
      <trkpt lat="47.89767" lon="6.90777">
        <ele>1005.3</ele>
        <time>2022-08-29T07:10:37Z</time>
      </trkpt>
      <trkpt lat="47.89768" lon="6.90778">
        <ele>1005.2</ele>
        <time>2022-08-29T07:10:38Z</time>
      </trkpt>
      <trkpt lat="47.89768" lon="6.90779">
        <ele>1005.5</ele>
        <time>2022-08-29T07:10:40Z</time>
      </trkpt>
      <trkpt lat="47.89769" lon="6.90779">
        <ele>1005.2</ele>
        <time>2022-08-29T07:10:41Z</time>
      </trkpt>
      <trkpt lat="47.89769" lon="6.9078">
        <ele>1005.4</ele>
        <time>2022-08-29T07:10:42Z</time>
      </trkpt>
      <trkpt lat="47.89769" lon="6.90781">
        <ele>1005.7</ele>
        <time>2022-08-29T07:10:43Z</time>
      </trkpt>
      <trkpt lat="47.89769" lon="6.90782">
        <ele>1006</ele>
        <time>2022-08-29T07:10:45Z</time>
      </trkpt>
      <trkpt lat="47.8977" lon="6.90783">
        <ele>1005.9</ele>
        <time>2022-08-29T07:10:46Z</time>
      </trkpt>
      <trkpt lat="47.8977" lon="6.90784">
        <ele>1006.2</ele>
        <time>2022-08-29T07:10:47Z</time>
      </trkpt>
      <trkpt lat="47.8977" lon="6.90786">
        <ele>1006.7</ele>
        <time>2022-08-29T07:10:48Z</time>
      </trkpt>
      <trkpt lat="47.89769" lon="6.90791">
        <ele>1008.3</ele>
        <time>2022-08-29T07:11:08Z</time>
      </trkpt>
      <trkpt lat="47.89768" lon="6.90794">
        <ele>1009.5</ele>
        <time>2022-08-29T07:11:09Z</time>
      </trkpt>
      <trkpt lat="47.89767" lon="6.90796">
        <ele>1010.3</ele>
        <time>2022-08-29T07:11:10Z</time>
      </trkpt>
      <trkpt lat="47.89767" lon="6.90798">
        <ele>1010.9</ele>
        <time>2022-08-29T07:11:11Z</time>
      </trkpt>
      <trkpt lat="47.89767" lon="6.90799">
        <ele>1011.1</ele>
        <time>2022-08-29T07:11:12Z</time>
      </trkpt>
      <trkpt lat="47.89767" lon="6.908">
        <ele>1011.4</ele>
        <time>2022-08-29T07:11:13Z</time>
      </trkpt>
      <trkpt lat="47.89767" lon="6.90802">
        <ele>1011.9</ele>
        <time>2022-08-29T07:11:14Z</time>
      </trkpt>
      <trkpt lat="47.89767" lon="6.90803">
        <ele>1012.2</ele>
        <time>2022-08-29T07:11:15Z</time>
      </trkpt>
      <trkpt lat="47.89767" lon="6.90804">
        <ele>1012.5</ele>
        <time>2022-08-29T07:11:16Z</time>
      </trkpt>
      <trkpt lat="47.89768" lon="6.90805">
        <ele>1012.4</ele>
        <time>2022-08-29T07:11:17Z</time>
      </trkpt>
      <trkpt lat="47.89768" lon="6.90806">
        <ele>1012.7</ele>
        <time>2022-08-29T07:11:18Z</time>
      </trkpt>
      <trkpt lat="47.89768" lon="6.90807">
        <ele>1013</ele>
        <time>2022-08-29T07:11:19Z</time>
      </trkpt>
      <trkpt lat="47.89768" lon="6.90808">
        <ele>1013.3</ele>
        <time>2022-08-29T07:11:21Z</time>
      </trkpt>
      <trkpt lat="47.89768" lon="6.90809">
        <ele>1013.7</ele>
        <time>2022-08-29T07:11:23Z</time>
      </trkpt>
      <trkpt lat="47.89769" lon="6.90809">
        <ele>1013.3</ele>
        <time>2022-08-29T07:11:24Z</time>
      </trkpt>
      <trkpt lat="47.89769" lon="6.9081">
        <ele>1013.7</ele>
        <time>2022-08-29T07:11:25Z</time>
      </trkpt>
      <trkpt lat="47.89769" lon="6.90811">
        <ele>1014</ele>
        <time>2022-08-29T07:11:26Z</time>
      </trkpt>
      <trkpt lat="47.8977" lon="6.90812">
        <ele>1014</ele>
        <time>2022-08-29T07:11:27Z</time>
      </trkpt>
      <trkpt lat="47.8977" lon="6.90813">
        <ele>1014.3</ele>
        <time>2022-08-29T07:11:28Z</time>
      </trkpt>
      <trkpt lat="47.89771" lon="6.90815">
        <ele>1014.6</ele>
        <time>2022-08-29T07:11:29Z</time>
      </trkpt>
      <trkpt lat="47.89771" lon="6.90816">
        <ele>1014.9</ele>
        <time>2022-08-29T07:11:31Z</time>
      </trkpt>
      <trkpt lat="47.89772" lon="6.90817">
        <ele>1014.9</ele>
        <time>2022-08-29T07:11:32Z</time>
      </trkpt>
      <trkpt lat="47.89773" lon="6.90821">
        <ele>1015.8</ele>
        <time>2022-08-29T07:11:41Z</time>
      </trkpt>
      <trkpt lat="47.89774" lon="6.90822">
        <ele>1015.8</ele>
        <time>2022-08-29T07:11:42Z</time>
      </trkpt>
      <trkpt lat="47.89775" lon="6.90824">
        <ele>1016</ele>
        <time>2022-08-29T07:11:43Z</time>
      </trkpt>
      <trkpt lat="47.89776" lon="6.90825">
        <ele>1016</ele>
        <time>2022-08-29T07:11:45Z</time>
      </trkpt>
      <trkpt lat="47.89776" lon="6.90826">
        <ele>1016.3</ele>
        <time>2022-08-29T07:11:46Z</time>
      </trkpt>
      <trkpt lat="47.89777" lon="6.90827">
        <ele>1016.2</ele>
        <time>2022-08-29T07:11:47Z</time>
      </trkpt>
      <trkpt lat="47.89778" lon="6.90829">
        <ele>1016.5</ele>
        <time>2022-08-29T07:11:50Z</time>
      </trkpt>
      <trkpt lat="47.89778" lon="6.9083">
        <ele>1016.8</ele>
        <time>2022-08-29T07:11:51Z</time>
      </trkpt>
      <trkpt lat="47.89779" lon="6.90831">
        <ele>1016.8</ele>
        <time>2022-08-29T07:11:52Z</time>
      </trkpt>
      <trkpt lat="47.89779" lon="6.90832">
        <ele>1017.1</ele>
        <time>2022-08-29T07:11:53Z</time>
      </trkpt>
      <trkpt lat="47.89781" lon="6.90834">
        <ele>1017</ele>
        <time>2022-08-29T07:12:02Z</time>
      </trkpt>
      <trkpt lat="47.89782" lon="6.90836">
        <ele>1017.2</ele>
        <time>2022-08-29T07:12:03Z</time>
      </trkpt>
      <trkpt lat="47.89783" lon="6.90837">
        <ele>1017.2</ele>
        <time>2022-08-29T07:12:04Z</time>
      </trkpt>
      <trkpt lat="47.89784" lon="6.90838">
        <ele>1017.1</ele>
        <time>2022-08-29T07:12:05Z</time>
      </trkpt>
      <trkpt lat="47.89785" lon="6.9084">
        <ele>1017.3</ele>
        <time>2022-08-29T07:12:06Z</time>
      </trkpt>
      <trkpt lat="47.89785" lon="6.90841">
        <ele>1017.5</ele>
        <time>2022-08-29T07:12:07Z</time>
      </trkpt>
      <trkpt lat="47.89786" lon="6.90843">
        <ele>1017.7</ele>
        <time>2022-08-29T07:12:08Z</time>
      </trkpt>
      <trkpt lat="47.89786" lon="6.90844">
        <ele>1018</ele>
        <time>2022-08-29T07:12:09Z</time>
      </trkpt>
      <trkpt lat="47.89786" lon="6.90845">
        <ele>1018.3</ele>
        <time>2022-08-29T07:12:10Z</time>
      </trkpt>
      <trkpt lat="47.89787" lon="6.90847">
        <ele>1018.5</ele>
        <time>2022-08-29T07:12:11Z</time>
      </trkpt>
      <trkpt lat="47.89787" lon="6.90848">
        <ele>1018.7</ele>
        <time>2022-08-29T07:12:12Z</time>
      </trkpt>
      <trkpt lat="47.89787" lon="6.9085">
        <ele>1019.3</ele>
        <time>2022-08-29T07:12:13Z</time>
      </trkpt>
      <trkpt lat="47.89788" lon="6.90851">
        <ele>1019.2</ele>
        <time>2022-08-29T07:12:14Z</time>
      </trkpt>
      <trkpt lat="47.89788" lon="6.90852">
        <ele>1019.4</ele>
        <time>2022-08-29T07:12:15Z</time>
      </trkpt>
      <trkpt lat="47.89788" lon="6.90854">
        <ele>1020</ele>
        <time>2022-08-29T07:12:16Z</time>
      </trkpt>
      <trkpt lat="47.89788" lon="6.90855">
        <ele>1020.3</ele>
        <time>2022-08-29T07:12:17Z</time>
      </trkpt>
      <trkpt lat="47.89789" lon="6.90857">
        <ele>1020.4</ele>
        <time>2022-08-29T07:12:18Z</time>
      </trkpt>
      <trkpt lat="47.8979" lon="6.90859">
        <ele>1020.6</ele>
        <time>2022-08-29T07:12:19Z</time>
      </trkpt>
      <trkpt lat="47.8979" lon="6.9086">
        <ele>1020.9</ele>
        <time>2022-08-29T07:12:20Z</time>
      </trkpt>
      <trkpt lat="47.89791" lon="6.90862">
        <ele>1021</ele>
        <time>2022-08-29T07:12:21Z</time>
      </trkpt>
      <trkpt lat="47.89792" lon="6.90863">
        <ele>1020.9</ele>
        <time>2022-08-29T07:12:22Z</time>
      </trkpt>
      <trkpt lat="47.89792" lon="6.90864">
        <ele>1021.1</ele>
        <time>2022-08-29T07:12:23Z</time>
      </trkpt>
      <trkpt lat="47.89792" lon="6.90865">
        <ele>1021.4</ele>
        <time>2022-08-29T07:12:24Z</time>
      </trkpt>
      <trkpt lat="47.89792" lon="6.90866">
        <ele>1021.7</ele>
        <time>2022-08-29T07:12:25Z</time>
      </trkpt>
      <trkpt lat="47.89792" lon="6.90867">
        <ele>1022</ele>
        <time>2022-08-29T07:12:26Z</time>
      </trkpt>
      <trkpt lat="47.89792" lon="6.90868">
        <ele>1022.2</ele>
        <time>2022-08-29T07:12:28Z</time>
      </trkpt>
      <trkpt lat="47.89792" lon="6.90869">
        <ele>1022.5</ele>
        <time>2022-08-29T07:12:29Z</time>
      </trkpt>
      <trkpt lat="47.89792" lon="6.9087">
        <ele>1022.8</ele>
        <time>2022-08-29T07:12:30Z</time>
      </trkpt>
      <trkpt lat="47.89793" lon="6.90871">
        <ele>1022.6</ele>
        <time>2022-08-29T07:12:31Z</time>
      </trkpt>
      <trkpt lat="47.89792" lon="6.90872">
        <ele>1023.3</ele>
        <time>2022-08-29T07:12:33Z</time>
      </trkpt>
      <trkpt lat="47.89792" lon="6.90873">
        <ele>1023.6</ele>
        <time>2022-08-29T07:12:34Z</time>
      </trkpt>
      <trkpt lat="47.89793" lon="6.90874">
        <ele>1023.4</ele>
        <time>2022-08-29T07:12:35Z</time>
      </trkpt>
      <trkpt lat="47.89793" lon="6.90875">
        <ele>1023.7</ele>
        <time>2022-08-29T07:12:36Z</time>
      </trkpt>
      <trkpt lat="47.89793" lon="6.90876">
        <ele>1024</ele>
        <time>2022-08-29T07:12:38Z</time>
      </trkpt>
      <trkpt lat="47.89793" lon="6.90877">
        <ele>1024.2</ele>
        <time>2022-08-29T07:12:39Z</time>
      </trkpt>
      <trkpt lat="47.89793" lon="6.90878">
        <ele>1024.5</ele>
        <time>2022-08-29T07:12:40Z</time>
      </trkpt>
      <trkpt lat="47.89792" lon="6.90879">
        <ele>1025.2</ele>
        <time>2022-08-29T07:12:41Z</time>
      </trkpt>
      <trkpt lat="47.89792" lon="6.90884">
        <ele>1026.5</ele>
        <time>2022-08-29T07:13:08Z</time>
      </trkpt>
      <trkpt lat="47.89792" lon="6.90887">
        <ele>1027.3</ele>
        <time>2022-08-29T07:13:09Z</time>
      </trkpt>
      <trkpt lat="47.89792" lon="6.9089">
        <ele>1028.1</ele>
        <time>2022-08-29T07:13:10Z</time>
      </trkpt>
      <trkpt lat="47.89793" lon="6.90896">
        <ele>1029.1</ele>
        <time>2022-08-29T07:13:30Z</time>
      </trkpt>
      <trkpt lat="47.89793" lon="6.90899">
        <ele>1029.8</ele>
        <time>2022-08-29T07:13:31Z</time>
      </trkpt>
      <trkpt lat="47.89793" lon="6.90902">
        <ele>1030.5</ele>
        <time>2022-08-29T07:13:32Z</time>
      </trkpt>
      <trkpt lat="47.89794" lon="6.90903">
        <ele>1030.3</ele>
        <time>2022-08-29T07:13:33Z</time>
      </trkpt>
      <trkpt lat="47.89795" lon="6.90905">
        <ele>1030.3</ele>
        <time>2022-08-29T07:13:34Z</time>
      </trkpt>
      <trkpt lat="47.89795" lon="6.90906">
        <ele>1030.5</ele>
        <time>2022-08-29T07:13:35Z</time>
      </trkpt>
      <trkpt lat="47.89796" lon="6.90907">
        <ele>1030.3</ele>
        <time>2022-08-29T07:13:36Z</time>
      </trkpt>
      <trkpt lat="47.89796" lon="6.90908">
        <ele>1030.5</ele>
        <time>2022-08-29T07:13:37Z</time>
      </trkpt>
      <trkpt lat="47.89797" lon="6.9091">
        <ele>1030.5</ele>
        <time>2022-08-29T07:13:38Z</time>
      </trkpt>
      <trkpt lat="47.89797" lon="6.90911">
        <ele>1030.7</ele>
        <time>2022-08-29T07:13:39Z</time>
      </trkpt>
      <trkpt lat="47.89797" lon="6.90912">
        <ele>1030.9</ele>
        <time>2022-08-29T07:13:40Z</time>
      </trkpt>
      <trkpt lat="47.89798" lon="6.90913">
        <ele>1030.7</ele>
        <time>2022-08-29T07:13:41Z</time>
      </trkpt>
      <trkpt lat="47.89799" lon="6.90913">
        <ele>1030.2</ele>
        <time>2022-08-29T07:13:42Z</time>
      </trkpt>
      <trkpt lat="47.89799" lon="6.90914">
        <ele>1030.5</ele>
        <time>2022-08-29T07:13:43Z</time>
      </trkpt>
      <trkpt lat="47.898" lon="6.90914">
        <ele>1030</ele>
        <time>2022-08-29T07:13:44Z</time>
      </trkpt>
      <trkpt lat="47.89801" lon="6.90915">
        <ele>1029.8</ele>
        <time>2022-08-29T07:13:45Z</time>
      </trkpt>
      <trkpt lat="47.89802" lon="6.90916">
        <ele>1029.5</ele>
        <time>2022-08-29T07:13:47Z</time>
      </trkpt>
      <trkpt lat="47.89802" lon="6.90917">
        <ele>1029.7</ele>
        <time>2022-08-29T07:13:48Z</time>
      </trkpt>
      <trkpt lat="47.89803" lon="6.90917">
        <ele>1029.3</ele>
        <time>2022-08-29T07:13:49Z</time>
      </trkpt>
      <trkpt lat="47.89803" lon="6.90918">
        <ele>1029.4</ele>
        <time>2022-08-29T07:13:50Z</time>
      </trkpt>
      <trkpt lat="47.89803" lon="6.90919">
        <ele>1029.6</ele>
        <time>2022-08-29T07:13:51Z</time>
      </trkpt>
      <trkpt lat="47.89804" lon="6.90921">
        <ele>1029.5</ele>
        <time>2022-08-29T07:13:52Z</time>
      </trkpt>
      <trkpt lat="47.89804" lon="6.90922">
        <ele>1029.7</ele>
        <time>2022-08-29T07:13:53Z</time>
      </trkpt>
      <trkpt lat="47.89804" lon="6.90924">
        <ele>1030.1</ele>
        <time>2022-08-29T07:13:54Z</time>
      </trkpt>
      <trkpt lat="47.89805" lon="6.90925">
        <ele>1029.8</ele>
        <time>2022-08-29T07:13:55Z</time>
      </trkpt>
      <trkpt lat="47.89806" lon="6.90927">
        <ele>1029.7</ele>
        <time>2022-08-29T07:13:56Z</time>
      </trkpt>
      <trkpt lat="47.89806" lon="6.90928">
        <ele>1029.9</ele>
        <time>2022-08-29T07:13:57Z</time>
      </trkpt>
      <trkpt lat="47.89806" lon="6.9093">
        <ele>1030.2</ele>
        <time>2022-08-29T07:13:58Z</time>
      </trkpt>
      <trkpt lat="47.89806" lon="6.90931">
        <ele>1030.4</ele>
        <time>2022-08-29T07:13:59Z</time>
      </trkpt>
      <trkpt lat="47.89806" lon="6.90932">
        <ele>1030.6</ele>
        <time>2022-08-29T07:14:00Z</time>
      </trkpt>
      <trkpt lat="47.89806" lon="6.90933">
        <ele>1030.7</ele>
        <time>2022-08-29T07:14:01Z</time>
      </trkpt>
      <trkpt lat="47.89805" lon="6.90934">
        <ele>1031.4</ele>
        <time>2022-08-29T07:14:02Z</time>
      </trkpt>
      <trkpt lat="47.89805" lon="6.90935">
        <ele>1031.6</ele>
        <time>2022-08-29T07:14:03Z</time>
      </trkpt>
      <trkpt lat="47.89805" lon="6.90936">
        <ele>1031.8</ele>
        <time>2022-08-29T07:14:05Z</time>
      </trkpt>
      <trkpt lat="47.89805" lon="6.90938">
        <ele>1032.1</ele>
        <time>2022-08-29T07:14:07Z</time>
      </trkpt>
      <trkpt lat="47.89805" lon="6.90939">
        <ele>1032.3</ele>
        <time>2022-08-29T07:14:08Z</time>
      </trkpt>
      <trkpt lat="47.89805" lon="6.90943">
        <ele>1033</ele>
        <time>2022-08-29T07:14:21Z</time>
      </trkpt>
      <trkpt lat="47.89805" lon="6.90944">
        <ele>1033.2</ele>
        <time>2022-08-29T07:14:22Z</time>
      </trkpt>
      <trkpt lat="47.89805" lon="6.90945">
        <ele>1033.4</ele>
        <time>2022-08-29T07:14:23Z</time>
      </trkpt>
      <trkpt lat="47.89805" lon="6.90946">
        <ele>1033.6</ele>
        <time>2022-08-29T07:14:24Z</time>
      </trkpt>
      <trkpt lat="47.89805" lon="6.90947">
        <ele>1033.9</ele>
        <time>2022-08-29T07:14:25Z</time>
      </trkpt>
      <trkpt lat="47.89806" lon="6.90948">
        <ele>1033.6</ele>
        <time>2022-08-29T07:14:26Z</time>
      </trkpt>
      <trkpt lat="47.89806" lon="6.90949">
        <ele>1033.8</ele>
        <time>2022-08-29T07:14:28Z</time>
      </trkpt>
      <trkpt lat="47.89807" lon="6.9095">
        <ele>1033.5</ele>
        <time>2022-08-29T07:14:30Z</time>
      </trkpt>
      <trkpt lat="47.89807" lon="6.90951">
        <ele>1033.7</ele>
        <time>2022-08-29T07:14:31Z</time>
      </trkpt>
      <trkpt lat="47.89807" lon="6.90952">
        <ele>1033.9</ele>
        <time>2022-08-29T07:14:32Z</time>
      </trkpt>
      <trkpt lat="47.89807" lon="6.90953">
        <ele>1034.1</ele>
        <time>2022-08-29T07:14:33Z</time>
      </trkpt>
      <trkpt lat="47.89808" lon="6.90954">
        <ele>1033.8</ele>
        <time>2022-08-29T07:14:35Z</time>
      </trkpt>
      <trkpt lat="47.89807" lon="6.90955">
        <ele>1034.5</ele>
        <time>2022-08-29T07:14:36Z</time>
      </trkpt>
      <trkpt lat="47.89807" lon="6.90956">
        <ele>1034.8</ele>
        <time>2022-08-29T07:14:37Z</time>
      </trkpt>
      <trkpt lat="47.89807" lon="6.90957">
        <ele>1035</ele>
        <time>2022-08-29T07:14:38Z</time>
      </trkpt>
      <trkpt lat="47.89806" lon="6.90959">
        <ele>1035.9</ele>
        <time>2022-08-29T07:14:39Z</time>
      </trkpt>
      <trkpt lat="47.89806" lon="6.9096">
        <ele>1036.1</ele>
        <time>2022-08-29T07:14:40Z</time>
      </trkpt>
      <trkpt lat="47.89806" lon="6.90961">
        <ele>1036.3</ele>
        <time>2022-08-29T07:14:41Z</time>
      </trkpt>
      <trkpt lat="47.89805" lon="6.90962">
        <ele>1037.1</ele>
        <time>2022-08-29T07:14:42Z</time>
      </trkpt>
      <trkpt lat="47.89805" lon="6.90964">
        <ele>1037.5</ele>
        <time>2022-08-29T07:14:43Z</time>
      </trkpt>
      <trkpt lat="47.89804" lon="6.90965">
        <ele>1038.3</ele>
        <time>2022-08-29T07:14:44Z</time>
      </trkpt>
      <trkpt lat="47.89804" lon="6.90966">
        <ele>1038.5</ele>
        <time>2022-08-29T07:14:45Z</time>
      </trkpt>
      <trkpt lat="47.89803" lon="6.90967">
        <ele>1039.3</ele>
        <time>2022-08-29T07:14:46Z</time>
      </trkpt>
      <trkpt lat="47.89803" lon="6.90968">
        <ele>1039.5</ele>
        <time>2022-08-29T07:14:47Z</time>
      </trkpt>
      <trkpt lat="47.89804" lon="6.90969">
        <ele>1039.2</ele>
        <time>2022-08-29T07:14:48Z</time>
      </trkpt>
      <trkpt lat="47.89804" lon="6.9097">
        <ele>1039.4</ele>
        <time>2022-08-29T07:14:50Z</time>
      </trkpt>
      <trkpt lat="47.89805" lon="6.90971">
        <ele>1039.1</ele>
        <time>2022-08-29T07:14:51Z</time>
      </trkpt>
      <trkpt lat="47.89805" lon="6.90972">
        <ele>1039.3</ele>
        <time>2022-08-29T07:14:54Z</time>
      </trkpt>
      <trkpt lat="47.89806" lon="6.90973">
        <ele>1038.9</ele>
        <time>2022-08-29T07:14:56Z</time>
      </trkpt>
      <trkpt lat="47.89806" lon="6.90974">
        <ele>1039</ele>
        <time>2022-08-29T07:14:57Z</time>
      </trkpt>
      <trkpt lat="47.89806" lon="6.90975">
        <ele>1039.1</ele>
        <time>2022-08-29T07:14:58Z</time>
      </trkpt>
      <trkpt lat="47.89806" lon="6.90976">
        <ele>1039.3</ele>
        <time>2022-08-29T07:14:59Z</time>
      </trkpt>
      <trkpt lat="47.89806" lon="6.90978">
        <ele>1039.6</ele>
        <time>2022-08-29T07:15:00Z</time>
      </trkpt>
      <trkpt lat="47.89806" lon="6.90979">
        <ele>1039.7</ele>
        <time>2022-08-29T07:15:01Z</time>
      </trkpt>
      <trkpt lat="47.89806" lon="6.9098">
        <ele>1039.9</ele>
        <time>2022-08-29T07:15:02Z</time>
      </trkpt>
      <trkpt lat="47.89806" lon="6.90981">
        <ele>1040</ele>
        <time>2022-08-29T07:15:03Z</time>
      </trkpt>
      <trkpt lat="47.89805" lon="6.90983">
        <ele>1040.9</ele>
        <time>2022-08-29T07:15:04Z</time>
      </trkpt>
      <trkpt lat="47.89805" lon="6.90984">
        <ele>1041</ele>
        <time>2022-08-29T07:15:05Z</time>
      </trkpt>
      <trkpt lat="47.89805" lon="6.90985">
        <ele>1041.2</ele>
        <time>2022-08-29T07:15:06Z</time>
      </trkpt>
      <trkpt lat="47.89805" lon="6.90987">
        <ele>1041.4</ele>
        <time>2022-08-29T07:15:07Z</time>
      </trkpt>
      <trkpt lat="47.89805" lon="6.90988">
        <ele>1041.6</ele>
        <time>2022-08-29T07:15:08Z</time>
      </trkpt>
      <trkpt lat="47.89805" lon="6.90989">
        <ele>1041.7</ele>
        <time>2022-08-29T07:15:09Z</time>
      </trkpt>
      <trkpt lat="47.89805" lon="6.9099">
        <ele>1041.9</ele>
        <time>2022-08-29T07:15:10Z</time>
      </trkpt>
      <trkpt lat="47.89805" lon="6.90992">
        <ele>1042.2</ele>
        <time>2022-08-29T07:15:11Z</time>
      </trkpt>
      <trkpt lat="47.89805" lon="6.90993">
        <ele>1042.3</ele>
        <time>2022-08-29T07:15:13Z</time>
      </trkpt>
      <trkpt lat="47.89805" lon="6.90994">
        <ele>1042.5</ele>
        <time>2022-08-29T07:15:14Z</time>
      </trkpt>
      <trkpt lat="47.89805" lon="6.90995">
        <ele>1042.6</ele>
        <time>2022-08-29T07:15:15Z</time>
      </trkpt>
      <trkpt lat="47.89805" lon="6.90996">
        <ele>1042.7</ele>
        <time>2022-08-29T07:15:17Z</time>
      </trkpt>
      <trkpt lat="47.89804" lon="6.90997">
        <ele>1043.5</ele>
        <time>2022-08-29T07:15:18Z</time>
      </trkpt>
      <trkpt lat="47.89805" lon="6.90999">
        <ele>1043.2</ele>
        <time>2022-08-29T07:15:19Z</time>
      </trkpt>
      <trkpt lat="47.89805" lon="6.91002">
        <ele>1043.5</ele>
        <time>2022-08-29T07:15:20Z</time>
      </trkpt>
      <trkpt lat="47.89805" lon="6.91004">
        <ele>1043.6</ele>
        <time>2022-08-29T07:15:21Z</time>
      </trkpt>
      <trkpt lat="47.89805" lon="6.91005">
        <ele>1043.7</ele>
        <time>2022-08-29T07:15:22Z</time>
      </trkpt>
      <trkpt lat="47.89805" lon="6.91012">
        <ele>1044.2</ele>
        <time>2022-08-29T07:15:55Z</time>
      </trkpt>
      <trkpt lat="47.89805" lon="6.91015">
        <ele>1044.4</ele>
        <time>2022-08-29T07:15:56Z</time>
      </trkpt>
      <trkpt lat="47.89804" lon="6.91019">
        <ele>1045.3</ele>
        <time>2022-08-29T07:15:57Z</time>
      </trkpt>
      <trkpt lat="47.89804" lon="6.91021">
        <ele>1045.5</ele>
        <time>2022-08-29T07:15:58Z</time>
      </trkpt>
      <trkpt lat="47.89804" lon="6.91023">
        <ele>1045.6</ele>
        <time>2022-08-29T07:15:59Z</time>
      </trkpt>
      <trkpt lat="47.89804" lon="6.91024">
        <ele>1045.7</ele>
        <time>2022-08-29T07:16:00Z</time>
      </trkpt>
      <trkpt lat="47.89804" lon="6.91026">
        <ele>1045.9</ele>
        <time>2022-08-29T07:16:01Z</time>
      </trkpt>
      <trkpt lat="47.89804" lon="6.91027">
        <ele>1045.9</ele>
        <time>2022-08-29T07:16:04Z</time>
      </trkpt>
      <trkpt lat="47.89804" lon="6.91029">
        <ele>1046</ele>
        <time>2022-08-29T07:16:06Z</time>
      </trkpt>
      <trkpt lat="47.89803" lon="6.9103">
        <ele>1046.6</ele>
        <time>2022-08-29T07:16:07Z</time>
      </trkpt>
      <trkpt lat="47.89803" lon="6.91032">
        <ele>1046.5</ele>
        <time>2022-08-29T07:16:08Z</time>
      </trkpt>
      <trkpt lat="47.89803" lon="6.91033">
        <ele>1046.5</ele>
        <time>2022-08-29T07:16:09Z</time>
      </trkpt>
      <trkpt lat="47.89803" lon="6.91034">
        <ele>1046.5</ele>
        <time>2022-08-29T07:16:10Z</time>
      </trkpt>
      <trkpt lat="47.89803" lon="6.91035">
        <ele>1046.4</ele>
        <time>2022-08-29T07:16:11Z</time>
      </trkpt>
      <trkpt lat="47.89803" lon="6.91036">
        <ele>1046.4</ele>
        <time>2022-08-29T07:16:13Z</time>
      </trkpt>
      <trkpt lat="47.89802" lon="6.91038">
        <ele>1047</ele>
        <time>2022-08-29T07:16:14Z</time>
      </trkpt>
      <trkpt lat="47.89802" lon="6.91039">
        <ele>1047</ele>
        <time>2022-08-29T07:16:15Z</time>
      </trkpt>
      <trkpt lat="47.89802" lon="6.9104">
        <ele>1047</ele>
        <time>2022-08-29T07:16:16Z</time>
      </trkpt>
      <trkpt lat="47.89802" lon="6.91042">
        <ele>1046.9</ele>
        <time>2022-08-29T07:16:17Z</time>
      </trkpt>
      <trkpt lat="47.89801" lon="6.91043">
        <ele>1047.6</ele>
        <time>2022-08-29T07:16:18Z</time>
      </trkpt>
      <trkpt lat="47.89801" lon="6.91044">
        <ele>1047.6</ele>
        <time>2022-08-29T07:16:19Z</time>
      </trkpt>
      <trkpt lat="47.89801" lon="6.91045">
        <ele>1047.5</ele>
        <time>2022-08-29T07:16:20Z</time>
      </trkpt>
      <trkpt lat="47.898" lon="6.91046">
        <ele>1048.2</ele>
        <time>2022-08-29T07:16:21Z</time>
      </trkpt>
      <trkpt lat="47.898" lon="6.91049">
        <ele>1048.1</ele>
        <time>2022-08-29T07:16:28Z</time>
      </trkpt>
      <trkpt lat="47.89799" lon="6.91051">
        <ele>1048.8</ele>
        <time>2022-08-29T07:16:29Z</time>
      </trkpt>
      <trkpt lat="47.89799" lon="6.91052">
        <ele>1048.8</ele>
        <time>2022-08-29T07:16:30Z</time>
      </trkpt>
      <trkpt lat="47.89798" lon="6.91054">
        <ele>1049.5</ele>
        <time>2022-08-29T07:16:31Z</time>
      </trkpt>
      <trkpt lat="47.89798" lon="6.91056">
        <ele>1049.4</ele>
        <time>2022-08-29T07:16:32Z</time>
      </trkpt>
      <trkpt lat="47.89797" lon="6.91057">
        <ele>1050</ele>
        <time>2022-08-29T07:16:33Z</time>
      </trkpt>
      <trkpt lat="47.89797" lon="6.91058">
        <ele>1049.9</ele>
        <time>2022-08-29T07:16:34Z</time>
      </trkpt>
      <trkpt lat="47.89797" lon="6.91059">
        <ele>1049.7</ele>
        <time>2022-08-29T07:16:35Z</time>
      </trkpt>
      <trkpt lat="47.89797" lon="6.9106">
        <ele>1049.6</ele>
        <time>2022-08-29T07:16:36Z</time>
      </trkpt>
      <trkpt lat="47.89798" lon="6.91061">
        <ele>1048.8</ele>
        <time>2022-08-29T07:16:37Z</time>
      </trkpt>
      <trkpt lat="47.89798" lon="6.91062">
        <ele>1048.7</ele>
        <time>2022-08-29T07:16:38Z</time>
      </trkpt>
      <trkpt lat="47.89798" lon="6.91063">
        <ele>1048.6</ele>
        <time>2022-08-29T07:16:39Z</time>
      </trkpt>
      <trkpt lat="47.89798" lon="6.91064">
        <ele>1048.4</ele>
        <time>2022-08-29T07:16:40Z</time>
      </trkpt>
      <trkpt lat="47.89798" lon="6.91065">
        <ele>1048.3</ele>
        <time>2022-08-29T07:16:46Z</time>
      </trkpt>
      <trkpt lat="47.89798" lon="6.91066">
        <ele>1048.2</ele>
        <time>2022-08-29T07:16:47Z</time>
      </trkpt>
      <trkpt lat="47.89798" lon="6.91067">
        <ele>1048.1</ele>
        <time>2022-08-29T07:16:48Z</time>
      </trkpt>
      <trkpt lat="47.89798" lon="6.91068">
        <ele>1048</ele>
        <time>2022-08-29T07:16:49Z</time>
      </trkpt>
      <trkpt lat="47.89798" lon="6.91069">
        <ele>1047.9</ele>
        <time>2022-08-29T07:16:50Z</time>
      </trkpt>
      <trkpt lat="47.89798" lon="6.9107">
        <ele>1047.7</ele>
        <time>2022-08-29T07:16:51Z</time>
      </trkpt>
      <trkpt lat="47.89798" lon="6.91071">
        <ele>1047.6</ele>
        <time>2022-08-29T07:16:52Z</time>
      </trkpt>
      <trkpt lat="47.89796" lon="6.91073">
        <ele>1048.8</ele>
        <time>2022-08-29T07:16:59Z</time>
      </trkpt>
      <trkpt lat="47.89795" lon="6.91075">
        <ele>1049.2</ele>
        <time>2022-08-29T07:17:00Z</time>
      </trkpt>
      <trkpt lat="47.89794" lon="6.91076">
        <ele>1049.8</ele>
        <time>2022-08-29T07:17:01Z</time>
      </trkpt>
      <trkpt lat="47.89794" lon="6.91077">
        <ele>1049.7</ele>
        <time>2022-08-29T07:17:02Z</time>
      </trkpt>
      <trkpt lat="47.89793" lon="6.91079">
        <ele>1050.1</ele>
        <time>2022-08-29T07:17:03Z</time>
      </trkpt>
      <trkpt lat="47.89792" lon="6.91082">
        <ele>1050.4</ele>
        <time>2022-08-29T07:17:10Z</time>
      </trkpt>
      <trkpt lat="47.89792" lon="6.91083">
        <ele>1050.3</ele>
        <time>2022-08-29T07:17:12Z</time>
      </trkpt>
      <trkpt lat="47.89792" lon="6.91084">
        <ele>1050.3</ele>
        <time>2022-08-29T07:17:13Z</time>
      </trkpt>
      <trkpt lat="47.89792" lon="6.91085">
        <ele>1050.3</ele>
        <time>2022-08-29T07:17:14Z</time>
      </trkpt>
      <trkpt lat="47.89792" lon="6.9109">
        <ele>1050.3</ele>
        <time>2022-08-29T07:17:32Z</time>
      </trkpt>
      <trkpt lat="47.89792" lon="6.91093">
        <ele>1050.3</ele>
        <time>2022-08-29T07:17:33Z</time>
      </trkpt>
      <trkpt lat="47.89792" lon="6.91096">
        <ele>1050.3</ele>
        <time>2022-08-29T07:17:34Z</time>
      </trkpt>
      <trkpt lat="47.89792" lon="6.91098">
        <ele>1050.3</ele>
        <time>2022-08-29T07:17:35Z</time>
      </trkpt>
      <trkpt lat="47.89791" lon="6.911">
        <ele>1051</ele>
        <time>2022-08-29T07:17:36Z</time>
      </trkpt>
      <trkpt lat="47.8979" lon="6.91102">
        <ele>1051.6</ele>
        <time>2022-08-29T07:17:44Z</time>
      </trkpt>
      <trkpt lat="47.8979" lon="6.91104">
        <ele>1051.6</ele>
        <time>2022-08-29T07:17:45Z</time>
      </trkpt>
      <trkpt lat="47.8979" lon="6.91106">
        <ele>1051.6</ele>
        <time>2022-08-29T07:17:46Z</time>
      </trkpt>
      <trkpt lat="47.8979" lon="6.91107">
        <ele>1051.6</ele>
        <time>2022-08-29T07:17:47Z</time>
      </trkpt>
      <trkpt lat="47.8979" lon="6.91108">
        <ele>1051.6</ele>
        <time>2022-08-29T07:17:48Z</time>
      </trkpt>
      <trkpt lat="47.8979" lon="6.91109">
        <ele>1051.6</ele>
        <time>2022-08-29T07:17:49Z</time>
      </trkpt>
      <trkpt lat="47.8979" lon="6.9111">
        <ele>1051.6</ele>
        <time>2022-08-29T07:17:50Z</time>
      </trkpt>
      <trkpt lat="47.89789" lon="6.91111">
        <ele>1052.3</ele>
        <time>2022-08-29T07:17:51Z</time>
      </trkpt>
      <trkpt lat="47.89788" lon="6.91112">
        <ele>1053</ele>
        <time>2022-08-29T07:17:52Z</time>
      </trkpt>
      <trkpt lat="47.89788" lon="6.91113">
        <ele>1053</ele>
        <time>2022-08-29T07:17:53Z</time>
      </trkpt>
      <trkpt lat="47.89787" lon="6.91114">
        <ele>1053.7</ele>
        <time>2022-08-29T07:17:54Z</time>
      </trkpt>
      <trkpt lat="47.89787" lon="6.91115">
        <ele>1053.7</ele>
        <time>2022-08-29T07:17:55Z</time>
      </trkpt>
      <trkpt lat="47.89786" lon="6.91115">
        <ele>1054.4</ele>
        <time>2022-08-29T07:17:56Z</time>
      </trkpt>
      <trkpt lat="47.89786" lon="6.91116">
        <ele>1054.4</ele>
        <time>2022-08-29T07:17:57Z</time>
      </trkpt>
      <trkpt lat="47.89785" lon="6.91117">
        <ele>1055.1</ele>
        <time>2022-08-29T07:17:59Z</time>
      </trkpt>
      <trkpt lat="47.89785" lon="6.91118">
        <ele>1055.1</ele>
        <time>2022-08-29T07:18:00Z</time>
      </trkpt>
      <trkpt lat="47.89784" lon="6.91118">
        <ele>1055.8</ele>
        <time>2022-08-29T07:18:01Z</time>
      </trkpt>
      <trkpt lat="47.89783" lon="6.91119">
        <ele>1056.5</ele>
        <time>2022-08-29T07:18:02Z</time>
      </trkpt>
      <trkpt lat="47.89783" lon="6.9112">
        <ele>1056.5</ele>
        <time>2022-08-29T07:18:03Z</time>
      </trkpt>
      <trkpt lat="47.89782" lon="6.91121">
        <ele>1057.2</ele>
        <time>2022-08-29T07:18:05Z</time>
      </trkpt>
      <trkpt lat="47.89781" lon="6.91124">
        <ele>1057.8</ele>
        <time>2022-08-29T07:18:12Z</time>
      </trkpt>
      <trkpt lat="47.89781" lon="6.91125">
        <ele>1057.9</ele>
        <time>2022-08-29T07:18:13Z</time>
      </trkpt>
      <trkpt lat="47.8978" lon="6.91126">
        <ele>1058.5</ele>
        <time>2022-08-29T07:18:14Z</time>
      </trkpt>
      <trkpt lat="47.8978" lon="6.91128">
        <ele>1058.5</ele>
        <time>2022-08-29T07:18:15Z</time>
      </trkpt>
      <trkpt lat="47.8978" lon="6.91129">
        <ele>1058.5</ele>
        <time>2022-08-29T07:18:16Z</time>
      </trkpt>
      <trkpt lat="47.8978" lon="6.9113">
        <ele>1058.5</ele>
        <time>2022-08-29T07:18:17Z</time>
      </trkpt>
      <trkpt lat="47.8978" lon="6.91131">
        <ele>1058.5</ele>
        <time>2022-08-29T07:18:18Z</time>
      </trkpt>
      <trkpt lat="47.8978" lon="6.91132">
        <ele>1058.5</ele>
        <time>2022-08-29T07:18:19Z</time>
      </trkpt>
      <trkpt lat="47.8978" lon="6.91133">
        <ele>1058.5</ele>
        <time>2022-08-29T07:18:20Z</time>
      </trkpt>
      <trkpt lat="47.89779" lon="6.91134">
        <ele>1059.2</ele>
        <time>2022-08-29T07:18:21Z</time>
      </trkpt>
      <trkpt lat="47.89778" lon="6.91135">
        <ele>1059.9</ele>
        <time>2022-08-29T07:18:22Z</time>
      </trkpt>
      <trkpt lat="47.89778" lon="6.91137">
        <ele>1059.9</ele>
        <time>2022-08-29T07:18:23Z</time>
      </trkpt>
      <trkpt lat="47.89777" lon="6.91137">
        <ele>1060.6</ele>
        <time>2022-08-29T07:18:24Z</time>
      </trkpt>
      <trkpt lat="47.89777" lon="6.91138">
        <ele>1060.6</ele>
        <time>2022-08-29T07:18:25Z</time>
      </trkpt>
      <trkpt lat="47.89776" lon="6.91139">
        <ele>1061.3</ele>
        <time>2022-08-29T07:18:26Z</time>
      </trkpt>
      <trkpt lat="47.89775" lon="6.9114">
        <ele>1062</ele>
        <time>2022-08-29T07:18:27Z</time>
      </trkpt>
      <trkpt lat="47.89774" lon="6.91141">
        <ele>1062.8</ele>
        <time>2022-08-29T07:18:29Z</time>
      </trkpt>
      <trkpt lat="47.89774" lon="6.91142">
        <ele>1062.8</ele>
        <time>2022-08-29T07:18:30Z</time>
      </trkpt>
      <trkpt lat="47.89773" lon="6.91143">
        <ele>1063.5</ele>
        <time>2022-08-29T07:18:31Z</time>
      </trkpt>
      <trkpt lat="47.89772" lon="6.91143">
        <ele>1064.2</ele>
        <time>2022-08-29T07:18:32Z</time>
      </trkpt>
      <trkpt lat="47.89772" lon="6.91144">
        <ele>1064.2</ele>
        <time>2022-08-29T07:18:33Z</time>
      </trkpt>
      <trkpt lat="47.89771" lon="6.91145">
        <ele>1064.9</ele>
        <time>2022-08-29T07:18:34Z</time>
      </trkpt>
      <trkpt lat="47.8977" lon="6.91146">
        <ele>1065.6</ele>
        <time>2022-08-29T07:18:35Z</time>
      </trkpt>
      <trkpt lat="47.8977" lon="6.91147">
        <ele>1065.6</ele>
        <time>2022-08-29T07:18:36Z</time>
      </trkpt>
      <trkpt lat="47.89769" lon="6.91148">
        <ele>1066.3</ele>
        <time>2022-08-29T07:18:37Z</time>
      </trkpt>
      <trkpt lat="47.89768" lon="6.91149">
        <ele>1067</ele>
        <time>2022-08-29T07:18:38Z</time>
      </trkpt>
      <trkpt lat="47.89768" lon="6.9115">
        <ele>1067</ele>
        <time>2022-08-29T07:18:39Z</time>
      </trkpt>
      <trkpt lat="47.89768" lon="6.91151">
        <ele>1067</ele>
        <time>2022-08-29T07:18:40Z</time>
      </trkpt>
      <trkpt lat="47.89769" lon="6.91152">
        <ele>1066.3</ele>
        <time>2022-08-29T07:18:48Z</time>
      </trkpt>
      <trkpt lat="47.8977" lon="6.91154">
        <ele>1065.7</ele>
        <time>2022-08-29T07:18:49Z</time>
      </trkpt>
      <trkpt lat="47.8977" lon="6.91155">
        <ele>1065.7</ele>
        <time>2022-08-29T07:18:50Z</time>
      </trkpt>
      <trkpt lat="47.89771" lon="6.91156">
        <ele>1065</ele>
        <time>2022-08-29T07:18:51Z</time>
      </trkpt>
      <trkpt lat="47.89771" lon="6.91157">
        <ele>1065.1</ele>
        <time>2022-08-29T07:18:52Z</time>
      </trkpt>
      <trkpt lat="47.8977" lon="6.91158">
        <ele>1065.7</ele>
        <time>2022-08-29T07:18:53Z</time>
      </trkpt>
      <trkpt lat="47.8977" lon="6.91159">
        <ele>1065.7</ele>
        <time>2022-08-29T07:18:54Z</time>
      </trkpt>
      <trkpt lat="47.8977" lon="6.9116">
        <ele>1065.7</ele>
        <time>2022-08-29T07:18:55Z</time>
      </trkpt>
      <trkpt lat="47.89769" lon="6.91161">
        <ele>1066.4</ele>
        <time>2022-08-29T07:18:56Z</time>
      </trkpt>
      <trkpt lat="47.89769" lon="6.91162">
        <ele>1066.4</ele>
        <time>2022-08-29T07:18:57Z</time>
      </trkpt>
      <trkpt lat="47.89769" lon="6.91163">
        <ele>1066.4</ele>
        <time>2022-08-29T07:18:58Z</time>
      </trkpt>
      <trkpt lat="47.89768" lon="6.91164">
        <ele>1067</ele>
        <time>2022-08-29T07:19:07Z</time>
      </trkpt>
      <trkpt lat="47.89769" lon="6.91164">
        <ele>1066.4</ele>
        <time>2022-08-29T07:19:08Z</time>
      </trkpt>
      <trkpt lat="47.89769" lon="6.91165">
        <ele>1066.4</ele>
        <time>2022-08-29T07:19:09Z</time>
      </trkpt>
      <trkpt lat="47.8977" lon="6.91165">
        <ele>1065.8</ele>
        <time>2022-08-29T07:19:12Z</time>
      </trkpt>
      <trkpt lat="47.89771" lon="6.91165">
        <ele>1065.1</ele>
        <time>2022-08-29T07:19:13Z</time>
      </trkpt>
      <trkpt lat="47.89772" lon="6.91165">
        <ele>1064.5</ele>
        <time>2022-08-29T07:19:15Z</time>
      </trkpt>
      <trkpt lat="47.89774" lon="6.91164">
        <ele>1063.3</ele>
        <time>2022-08-29T07:19:26Z</time>
      </trkpt>
      <trkpt lat="47.89775" lon="6.91163">
        <ele>1062.6</ele>
        <time>2022-08-29T07:19:28Z</time>
      </trkpt>
      <trkpt lat="47.89775" lon="6.91165">
        <ele>1062.7</ele>
        <time>2022-08-29T07:20:09Z</time>
      </trkpt>
      <trkpt lat="47.89775" lon="6.91167">
        <ele>1062.7</ele>
        <time>2022-08-29T07:20:10Z</time>
      </trkpt>
      <trkpt lat="47.89774" lon="6.91168">
        <ele>1063.3</ele>
        <time>2022-08-29T07:20:11Z</time>
      </trkpt>
      <trkpt lat="47.89774" lon="6.91169">
        <ele>1063.2</ele>
        <time>2022-08-29T07:20:12Z</time>
      </trkpt>
      <trkpt lat="47.89773" lon="6.91171">
        <ele>1063.8</ele>
        <time>2022-08-29T07:20:13Z</time>
      </trkpt>
      <trkpt lat="47.89772" lon="6.91172">
        <ele>1064.3</ele>
        <time>2022-08-29T07:20:14Z</time>
      </trkpt>
      <trkpt lat="47.89771" lon="6.91173">
        <ele>1064.9</ele>
        <time>2022-08-29T07:20:15Z</time>
      </trkpt>
      <trkpt lat="47.89771" lon="6.91174">
        <ele>1064.9</ele>
        <time>2022-08-29T07:20:16Z</time>
      </trkpt>
      <trkpt lat="47.8977" lon="6.91176">
        <ele>1065.4</ele>
        <time>2022-08-29T07:20:17Z</time>
      </trkpt>
      <trkpt lat="47.89769" lon="6.91176">
        <ele>1066</ele>
        <time>2022-08-29T07:20:18Z</time>
      </trkpt>
      <trkpt lat="47.89768" lon="6.91177">
        <ele>1066.6</ele>
        <time>2022-08-29T07:20:19Z</time>
      </trkpt>
      <trkpt lat="47.89767" lon="6.91178">
        <ele>1067.2</ele>
        <time>2022-08-29T07:20:20Z</time>
      </trkpt>
      <trkpt lat="47.89766" lon="6.91179">
        <ele>1067.8</ele>
        <time>2022-08-29T07:20:21Z</time>
      </trkpt>
      <trkpt lat="47.89765" lon="6.9118">
        <ele>1068.3</ele>
        <time>2022-08-29T07:20:22Z</time>
      </trkpt>
      <trkpt lat="47.89764" lon="6.91181">
        <ele>1068.9</ele>
        <time>2022-08-29T07:20:23Z</time>
      </trkpt>
      <trkpt lat="47.89763" lon="6.91182">
        <ele>1069.5</ele>
        <time>2022-08-29T07:20:24Z</time>
      </trkpt>
      <trkpt lat="47.89762" lon="6.91182">
        <ele>1070.1</ele>
        <time>2022-08-29T07:20:26Z</time>
      </trkpt>
      <trkpt lat="47.89761" lon="6.91183">
        <ele>1070.7</ele>
        <time>2022-08-29T07:20:30Z</time>
      </trkpt>
      <trkpt lat="47.8976" lon="6.91184">
        <ele>1071.3</ele>
        <time>2022-08-29T07:20:31Z</time>
      </trkpt>
      <trkpt lat="47.89759" lon="6.91185">
        <ele>1071.8</ele>
        <time>2022-08-29T07:20:32Z</time>
      </trkpt>
      <trkpt lat="47.89759" lon="6.91186">
        <ele>1071.8</ele>
        <time>2022-08-29T07:20:33Z</time>
      </trkpt>
      <trkpt lat="47.89758" lon="6.91187">
        <ele>1072.4</ele>
        <time>2022-08-29T07:20:34Z</time>
      </trkpt>
      <trkpt lat="47.89757" lon="6.91188">
        <ele>1072.9</ele>
        <time>2022-08-29T07:20:35Z</time>
      </trkpt>
      <trkpt lat="47.89756" lon="6.91188">
        <ele>1073.6</ele>
        <time>2022-08-29T07:20:36Z</time>
      </trkpt>
      <trkpt lat="47.89756" lon="6.91189">
        <ele>1073.5</ele>
        <time>2022-08-29T07:20:37Z</time>
      </trkpt>
      <trkpt lat="47.89754" lon="6.91192">
        <ele>1074.6</ele>
        <time>2022-08-29T07:20:55Z</time>
      </trkpt>
      <trkpt lat="47.89753" lon="6.91194">
        <ele>1075.2</ele>
        <time>2022-08-29T07:20:56Z</time>
      </trkpt>
      <trkpt lat="47.89753" lon="6.91196">
        <ele>1075.5</ele>
        <time>2022-08-29T07:20:57Z</time>
      </trkpt>
      <trkpt lat="47.89752" lon="6.91197">
        <ele>1076.2</ele>
        <time>2022-08-29T07:20:58Z</time>
      </trkpt>
      <trkpt lat="47.89752" lon="6.91198">
        <ele>1076.4</ele>
        <time>2022-08-29T07:20:59Z</time>
      </trkpt>
      <trkpt lat="47.89752" lon="6.91199">
        <ele>1076.6</ele>
        <time>2022-08-29T07:21:00Z</time>
      </trkpt>
      <trkpt lat="47.89751" lon="6.912">
        <ele>1077.4</ele>
        <time>2022-08-29T07:21:01Z</time>
      </trkpt>
      <trkpt lat="47.89751" lon="6.91201">
        <ele>1077.6</ele>
        <time>2022-08-29T07:21:02Z</time>
      </trkpt>
      <trkpt lat="47.89751" lon="6.91202">
        <ele>1077.8</ele>
        <time>2022-08-29T07:21:03Z</time>
      </trkpt>
      <trkpt lat="47.8975" lon="6.91203">
        <ele>1078.5</ele>
        <time>2022-08-29T07:21:04Z</time>
      </trkpt>
      <trkpt lat="47.8975" lon="6.91204">
        <ele>1078.7</ele>
        <time>2022-08-29T07:21:05Z</time>
      </trkpt>
      <trkpt lat="47.8975" lon="6.91205">
        <ele>1078.9</ele>
        <time>2022-08-29T07:21:07Z</time>
      </trkpt>
      <trkpt lat="47.8975" lon="6.91206">
        <ele>1079.1</ele>
        <time>2022-08-29T07:21:08Z</time>
      </trkpt>
      <trkpt lat="47.8975" lon="6.91207">
        <ele>1079.3</ele>
        <time>2022-08-29T07:21:10Z</time>
      </trkpt>
      <trkpt lat="47.8975" lon="6.91208">
        <ele>1079.4</ele>
        <time>2022-08-29T07:21:11Z</time>
      </trkpt>
      <trkpt lat="47.8975" lon="6.91209">
        <ele>1079.6</ele>
        <time>2022-08-29T07:21:12Z</time>
      </trkpt>
      <trkpt lat="47.89751" lon="6.91213">
        <ele>1079.8</ele>
        <time>2022-08-29T07:21:19Z</time>
      </trkpt>
      <trkpt lat="47.89751" lon="6.91215">
        <ele>1080.1</ele>
        <time>2022-08-29T07:21:20Z</time>
      </trkpt>
      <trkpt lat="47.89751" lon="6.91218">
        <ele>1080.7</ele>
        <time>2022-08-29T07:21:21Z</time>
      </trkpt>
      <trkpt lat="47.89751" lon="6.9122">
        <ele>1081</ele>
        <time>2022-08-29T07:21:22Z</time>
      </trkpt>
      <trkpt lat="47.89751" lon="6.91223">
        <ele>1081.6</ele>
        <time>2022-08-29T07:21:23Z</time>
      </trkpt>
      <trkpt lat="47.89751" lon="6.91225">
        <ele>1081.9</ele>
        <time>2022-08-29T07:21:24Z</time>
      </trkpt>
      <trkpt lat="47.89751" lon="6.91227">
        <ele>1082.3</ele>
        <time>2022-08-29T07:21:25Z</time>
      </trkpt>
      <trkpt lat="47.89751" lon="6.91228">
        <ele>1082.5</ele>
        <time>2022-08-29T07:21:26Z</time>
      </trkpt>
      <trkpt lat="47.89751" lon="6.9123">
        <ele>1082.8</ele>
        <time>2022-08-29T07:21:27Z</time>
      </trkpt>
      <trkpt lat="47.89751" lon="6.91231">
        <ele>1083</ele>
        <time>2022-08-29T07:21:28Z</time>
      </trkpt>
      <trkpt lat="47.8975" lon="6.91233">
        <ele>1083.9</ele>
        <time>2022-08-29T07:21:29Z</time>
      </trkpt>
      <trkpt lat="47.89749" lon="6.91238">
        <ele>1085.4</ele>
        <time>2022-08-29T07:21:49Z</time>
      </trkpt>
      <trkpt lat="47.89748" lon="6.9124">
        <ele>1086.4</ele>
        <time>2022-08-29T07:21:50Z</time>
      </trkpt>
      <trkpt lat="47.89748" lon="6.91242">
        <ele>1086.7</ele>
        <time>2022-08-29T07:21:51Z</time>
      </trkpt>
      <trkpt lat="47.89747" lon="6.91243">
        <ele>1087.5</ele>
        <time>2022-08-29T07:21:52Z</time>
      </trkpt>
      <trkpt lat="47.89747" lon="6.91244">
        <ele>1087.6</ele>
        <time>2022-08-29T07:21:53Z</time>
      </trkpt>
      <trkpt lat="47.89747" lon="6.91245">
        <ele>1087.8</ele>
        <time>2022-08-29T07:21:54Z</time>
      </trkpt>
      <trkpt lat="47.89747" lon="6.91247">
        <ele>1088.2</ele>
        <time>2022-08-29T07:21:55Z</time>
      </trkpt>
      <trkpt lat="47.89747" lon="6.91248">
        <ele>1088.4</ele>
        <time>2022-08-29T07:21:56Z</time>
      </trkpt>
      <trkpt lat="47.89747" lon="6.91249">
        <ele>1088.5</ele>
        <time>2022-08-29T07:21:57Z</time>
      </trkpt>
      <trkpt lat="47.89747" lon="6.9125">
        <ele>1088.7</ele>
        <time>2022-08-29T07:21:58Z</time>
      </trkpt>
      <trkpt lat="47.89747" lon="6.91251">
        <ele>1088.9</ele>
        <time>2022-08-29T07:21:59Z</time>
      </trkpt>
      <trkpt lat="47.89746" lon="6.91252">
        <ele>1089.7</ele>
        <time>2022-08-29T07:22:00Z</time>
      </trkpt>
      <trkpt lat="47.89746" lon="6.91253">
        <ele>1089.8</ele>
        <time>2022-08-29T07:22:01Z</time>
      </trkpt>
      <trkpt lat="47.89745" lon="6.91259">
        <ele>1091.5</ele>
        <time>2022-08-29T07:22:29Z</time>
      </trkpt>
      <trkpt lat="47.89744" lon="6.91262">
        <ele>1092.6</ele>
        <time>2022-08-29T07:22:30Z</time>
      </trkpt>
      <trkpt lat="47.89744" lon="6.91265">
        <ele>1093.2</ele>
        <time>2022-08-29T07:22:31Z</time>
      </trkpt>
      <trkpt lat="47.89743" lon="6.91266">
        <ele>1093.9</ele>
        <time>2022-08-29T07:22:32Z</time>
      </trkpt>
      <trkpt lat="47.89743" lon="6.91268">
        <ele>1094.3</ele>
        <time>2022-08-29T07:22:33Z</time>
      </trkpt>
      <trkpt lat="47.89743" lon="6.91269">
        <ele>1094.5</ele>
        <time>2022-08-29T07:22:34Z</time>
      </trkpt>
      <trkpt lat="47.89744" lon="6.9127">
        <ele>1094.1</ele>
        <time>2022-08-29T07:22:35Z</time>
      </trkpt>
      <trkpt lat="47.89744" lon="6.91272">
        <ele>1094.4</ele>
        <time>2022-08-29T07:22:36Z</time>
      </trkpt>
      <trkpt lat="47.89744" lon="6.91273">
        <ele>1094.6</ele>
        <time>2022-08-29T07:22:37Z</time>
      </trkpt>
      <trkpt lat="47.89745" lon="6.91277">
        <ele>1094.7</ele>
        <time>2022-08-29T07:22:47Z</time>
      </trkpt>
      <trkpt lat="47.89745" lon="6.91279">
        <ele>1095.1</ele>
        <time>2022-08-29T07:22:48Z</time>
      </trkpt>
      <trkpt lat="47.89746" lon="6.91281">
        <ele>1095</ele>
        <time>2022-08-29T07:22:49Z</time>
      </trkpt>
      <trkpt lat="47.89746" lon="6.91283">
        <ele>1095.4</ele>
        <time>2022-08-29T07:22:50Z</time>
      </trkpt>
      <trkpt lat="47.89746" lon="6.91284">
        <ele>1095.6</ele>
        <time>2022-08-29T07:22:51Z</time>
      </trkpt>
      <trkpt lat="47.89746" lon="6.91285">
        <ele>1095.8</ele>
        <time>2022-08-29T07:22:52Z</time>
      </trkpt>
      <trkpt lat="47.89746" lon="6.91287">
        <ele>1096.2</ele>
        <time>2022-08-29T07:22:53Z</time>
      </trkpt>
      <trkpt lat="47.89746" lon="6.91288">
        <ele>1096.4</ele>
        <time>2022-08-29T07:22:54Z</time>
      </trkpt>
      <trkpt lat="47.89746" lon="6.91289">
        <ele>1096.6</ele>
        <time>2022-08-29T07:22:55Z</time>
      </trkpt>
      <trkpt lat="47.89746" lon="6.9129">
        <ele>1096.8</ele>
        <time>2022-08-29T07:22:57Z</time>
      </trkpt>
      <trkpt lat="47.89746" lon="6.91291">
        <ele>1097</ele>
        <time>2022-08-29T07:22:59Z</time>
      </trkpt>
      <trkpt lat="47.89746" lon="6.91292">
        <ele>1097.2</ele>
        <time>2022-08-29T07:23:00Z</time>
      </trkpt>
      <trkpt lat="47.89746" lon="6.91293">
        <ele>1097.4</ele>
        <time>2022-08-29T07:23:01Z</time>
      </trkpt>
      <trkpt lat="47.89747" lon="6.91299">
        <ele>1098.1</ele>
        <time>2022-08-29T07:23:15Z</time>
      </trkpt>
      <trkpt lat="47.89747" lon="6.91301">
        <ele>1098.6</ele>
        <time>2022-08-29T07:23:16Z</time>
      </trkpt>
      <trkpt lat="47.89747" lon="6.91304">
        <ele>1099.2</ele>
        <time>2022-08-29T07:23:17Z</time>
      </trkpt>
      <trkpt lat="47.89747" lon="6.91305">
        <ele>1099.4</ele>
        <time>2022-08-29T07:23:18Z</time>
      </trkpt>
      <trkpt lat="47.89747" lon="6.91306">
        <ele>1099.6</ele>
        <time>2022-08-29T07:23:19Z</time>
      </trkpt>
      <trkpt lat="47.89747" lon="6.91307">
        <ele>1099.8</ele>
        <time>2022-08-29T07:23:20Z</time>
      </trkpt>
      <trkpt lat="47.89747" lon="6.91308">
        <ele>1099.9</ele>
        <time>2022-08-29T07:23:21Z</time>
      </trkpt>
      <trkpt lat="47.89747" lon="6.9131">
        <ele>1100.3</ele>
        <time>2022-08-29T07:23:22Z</time>
      </trkpt>
      <trkpt lat="47.89747" lon="6.91312">
        <ele>1100.6</ele>
        <time>2022-08-29T07:23:23Z</time>
      </trkpt>
      <trkpt lat="47.89747" lon="6.91314">
        <ele>1101</ele>
        <time>2022-08-29T07:23:24Z</time>
      </trkpt>
      <trkpt lat="47.89747" lon="6.91315">
        <ele>1101.2</ele>
        <time>2022-08-29T07:23:25Z</time>
      </trkpt>
      <trkpt lat="47.89747" lon="6.91316">
        <ele>1101.4</ele>
        <time>2022-08-29T07:23:26Z</time>
      </trkpt>
      <trkpt lat="47.89746" lon="6.91316">
        <ele>1101.8</ele>
        <time>2022-08-29T07:23:27Z</time>
      </trkpt>
      <trkpt lat="47.89746" lon="6.91317">
        <ele>1102</ele>
        <time>2022-08-29T07:23:28Z</time>
      </trkpt>
      <trkpt lat="47.89746" lon="6.91318">
        <ele>1102.2</ele>
        <time>2022-08-29T07:23:29Z</time>
      </trkpt>
      <trkpt lat="47.89747" lon="6.91318">
        <ele>1101.7</ele>
        <time>2022-08-29T07:23:32Z</time>
      </trkpt>
      <trkpt lat="47.89748" lon="6.91318">
        <ele>1101.2</ele>
        <time>2022-08-29T07:23:33Z</time>
      </trkpt>
      <trkpt lat="47.89749" lon="6.91318">
        <ele>1100.7</ele>
        <time>2022-08-29T07:23:34Z</time>
      </trkpt>
      <trkpt lat="47.8975" lon="6.91319">
        <ele>1100.4</ele>
        <time>2022-08-29T07:23:35Z</time>
      </trkpt>
      <trkpt lat="47.89751" lon="6.91319">
        <ele>1099.9</ele>
        <time>2022-08-29T07:23:36Z</time>
      </trkpt>
      <trkpt lat="47.89751" lon="6.9132">
        <ele>1100.1</ele>
        <time>2022-08-29T07:23:37Z</time>
      </trkpt>
      <trkpt lat="47.89752" lon="6.9132">
        <ele>1099.5</ele>
        <time>2022-08-29T07:23:38Z</time>
      </trkpt>
      <trkpt lat="47.89752" lon="6.91321">
        <ele>1099.7</ele>
        <time>2022-08-29T07:23:39Z</time>
      </trkpt>
      <trkpt lat="47.89753" lon="6.91321">
        <ele>1099.2</ele>
        <time>2022-08-29T07:23:40Z</time>
      </trkpt>
      <trkpt lat="47.89753" lon="6.91326">
        <ele>1100.1</ele>
        <time>2022-08-29T07:23:50Z</time>
      </trkpt>
      <trkpt lat="47.89752" lon="6.91329">
        <ele>1101.2</ele>
        <time>2022-08-29T07:23:51Z</time>
      </trkpt>
      <trkpt lat="47.89752" lon="6.91331">
        <ele>1101.6</ele>
        <time>2022-08-29T07:23:52Z</time>
      </trkpt>
      <trkpt lat="47.89752" lon="6.91333">
        <ele>1101.9</ele>
        <time>2022-08-29T07:23:53Z</time>
      </trkpt>
      <trkpt lat="47.89753" lon="6.91334">
        <ele>1101.6</ele>
        <time>2022-08-29T07:23:54Z</time>
      </trkpt>
      <trkpt lat="47.89753" lon="6.91335">
        <ele>1101.8</ele>
        <time>2022-08-29T07:23:55Z</time>
      </trkpt>
      <trkpt lat="47.89754" lon="6.91336">
        <ele>1101.6</ele>
        <time>2022-08-29T07:23:56Z</time>
      </trkpt>
      <trkpt lat="47.89754" lon="6.91337">
        <ele>1101.8</ele>
        <time>2022-08-29T07:23:58Z</time>
      </trkpt>
      <trkpt lat="47.89754" lon="6.9134">
        <ele>1102.4</ele>
        <time>2022-08-29T07:24:11Z</time>
      </trkpt>
      <trkpt lat="47.89753" lon="6.91342">
        <ele>1103.4</ele>
        <time>2022-08-29T07:24:12Z</time>
      </trkpt>
      <trkpt lat="47.89753" lon="6.91344">
        <ele>1103.8</ele>
        <time>2022-08-29T07:24:13Z</time>
      </trkpt>
      <trkpt lat="47.89753" lon="6.91345">
        <ele>1104</ele>
        <time>2022-08-29T07:24:14Z</time>
      </trkpt>
      <trkpt lat="47.89752" lon="6.91347">
        <ele>1104.9</ele>
        <time>2022-08-29T07:24:15Z</time>
      </trkpt>
      <trkpt lat="47.89752" lon="6.91348">
        <ele>1105.2</ele>
        <time>2022-08-29T07:24:16Z</time>
      </trkpt>
      <trkpt lat="47.89751" lon="6.91349">
        <ele>1105.9</ele>
        <time>2022-08-29T07:24:17Z</time>
      </trkpt>
      <trkpt lat="47.89751" lon="6.9135">
        <ele>1106.1</ele>
        <time>2022-08-29T07:24:18Z</time>
      </trkpt>
      <trkpt lat="47.8975" lon="6.91352">
        <ele>1107</ele>
        <time>2022-08-29T07:24:20Z</time>
      </trkpt>
      <trkpt lat="47.8975" lon="6.91353">
        <ele>1107.2</ele>
        <time>2022-08-29T07:24:21Z</time>
      </trkpt>
      <trkpt lat="47.89749" lon="6.91354">
        <ele>1107.9</ele>
        <time>2022-08-29T07:24:22Z</time>
      </trkpt>
      <trkpt lat="47.89749" lon="6.91356">
        <ele>1108.3</ele>
        <time>2022-08-29T07:24:23Z</time>
      </trkpt>
      <trkpt lat="47.89749" lon="6.91357">
        <ele>1108.5</ele>
        <time>2022-08-29T07:24:24Z</time>
      </trkpt>
      <trkpt lat="47.89748" lon="6.91358">
        <ele>1109.1</ele>
        <time>2022-08-29T07:24:25Z</time>
      </trkpt>
      <trkpt lat="47.89748" lon="6.9136">
        <ele>1109.6</ele>
        <time>2022-08-29T07:24:26Z</time>
      </trkpt>
      <trkpt lat="47.89748" lon="6.91361">
        <ele>1109.8</ele>
        <time>2022-08-29T07:24:27Z</time>
      </trkpt>
      <trkpt lat="47.89747" lon="6.91363">
        <ele>1110.5</ele>
        <time>2022-08-29T07:24:28Z</time>
      </trkpt>
      <trkpt lat="47.89747" lon="6.91365">
        <ele>1110.7</ele>
        <time>2022-08-29T07:24:29Z</time>
      </trkpt>
      <trkpt lat="47.89746" lon="6.91365">
        <ele>1111.1</ele>
        <time>2022-08-29T07:24:30Z</time>
      </trkpt>
      <trkpt lat="47.89746" lon="6.91366">
        <ele>1111.3</ele>
        <time>2022-08-29T07:24:31Z</time>
      </trkpt>
      <trkpt lat="47.89746" lon="6.91367">
        <ele>1111.4</ele>
        <time>2022-08-29T07:24:32Z</time>
      </trkpt>
      <trkpt lat="47.89747" lon="6.91368">
        <ele>1111.2</ele>
        <time>2022-08-29T07:24:33Z</time>
      </trkpt>
      <trkpt lat="47.89747" lon="6.91369">
        <ele>1111.3</ele>
        <time>2022-08-29T07:24:34Z</time>
      </trkpt>
      <trkpt lat="47.89748" lon="6.9137">
        <ele>1111.1</ele>
        <time>2022-08-29T07:24:35Z</time>
      </trkpt>
      <trkpt lat="47.89749" lon="6.91371">
        <ele>1110.8</ele>
        <time>2022-08-29T07:24:36Z</time>
      </trkpt>
      <trkpt lat="47.8975" lon="6.91372">
        <ele>1110.6</ele>
        <time>2022-08-29T07:24:37Z</time>
      </trkpt>
      <trkpt lat="47.8975" lon="6.91373">
        <ele>1110.7</ele>
        <time>2022-08-29T07:24:38Z</time>
      </trkpt>
      <trkpt lat="47.8975" lon="6.91375">
        <ele>1111</ele>
        <time>2022-08-29T07:24:39Z</time>
      </trkpt>
      <trkpt lat="47.89751" lon="6.91376">
        <ele>1110.7</ele>
        <time>2022-08-29T07:24:40Z</time>
      </trkpt>
      <trkpt lat="47.89751" lon="6.91377">
        <ele>1110.8</ele>
        <time>2022-08-29T07:24:41Z</time>
      </trkpt>
      <trkpt lat="47.89751" lon="6.91378">
        <ele>1111</ele>
        <time>2022-08-29T07:24:42Z</time>
      </trkpt>
      <trkpt lat="47.89751" lon="6.91379">
        <ele>1111.1</ele>
        <time>2022-08-29T07:24:43Z</time>
      </trkpt>
      <trkpt lat="47.89751" lon="6.91381">
        <ele>1111.4</ele>
        <time>2022-08-29T07:24:44Z</time>
      </trkpt>
      <trkpt lat="47.89751" lon="6.91382">
        <ele>1111.6</ele>
        <time>2022-08-29T07:24:45Z</time>
      </trkpt>
      <trkpt lat="47.8975" lon="6.91386">
        <ele>1112.6</ele>
        <time>2022-08-29T07:25:04Z</time>
      </trkpt>
      <trkpt lat="47.8975" lon="6.91388">
        <ele>1112.9</ele>
        <time>2022-08-29T07:25:05Z</time>
      </trkpt>
      <trkpt lat="47.89749" lon="6.9139">
        <ele>1113.6</ele>
        <time>2022-08-29T07:25:06Z</time>
      </trkpt>
      <trkpt lat="47.89749" lon="6.91392">
        <ele>1114.1</ele>
        <time>2022-08-29T07:25:07Z</time>
      </trkpt>
      <trkpt lat="47.89749" lon="6.91393">
        <ele>1114.3</ele>
        <time>2022-08-29T07:25:08Z</time>
      </trkpt>
      <trkpt lat="47.89749" lon="6.91394">
        <ele>1114.5</ele>
        <time>2022-08-29T07:25:09Z</time>
      </trkpt>
      <trkpt lat="47.8975" lon="6.91395">
        <ele>1114.3</ele>
        <time>2022-08-29T07:25:10Z</time>
      </trkpt>
      <trkpt lat="47.8975" lon="6.91396">
        <ele>1114.5</ele>
        <time>2022-08-29T07:25:11Z</time>
      </trkpt>
      <trkpt lat="47.89751" lon="6.91397">
        <ele>1114.3</ele>
        <time>2022-08-29T07:25:12Z</time>
      </trkpt>
      <trkpt lat="47.89752" lon="6.91399">
        <ele>1114.3</ele>
        <time>2022-08-29T07:25:21Z</time>
      </trkpt>
      <trkpt lat="47.89753" lon="6.914">
        <ele>1114.1</ele>
        <time>2022-08-29T07:25:22Z</time>
      </trkpt>
      <trkpt lat="47.89753" lon="6.91401">
        <ele>1114.3</ele>
        <time>2022-08-29T07:25:23Z</time>
      </trkpt>
      <trkpt lat="47.89753" lon="6.91402">
        <ele>1114.5</ele>
        <time>2022-08-29T07:25:24Z</time>
      </trkpt>
      <trkpt lat="47.89754" lon="6.91403">
        <ele>1114.2</ele>
        <time>2022-08-29T07:25:25Z</time>
      </trkpt>
      <trkpt lat="47.89753" lon="6.91404">
        <ele>1114.9</ele>
        <time>2022-08-29T07:25:26Z</time>
      </trkpt>
      <trkpt lat="47.89753" lon="6.91406">
        <ele>1115.3</ele>
        <time>2022-08-29T07:25:27Z</time>
      </trkpt>
      <trkpt lat="47.89752" lon="6.91407">
        <ele>1116</ele>
        <time>2022-08-29T07:25:28Z</time>
      </trkpt>
      <trkpt lat="47.89752" lon="6.91408">
        <ele>1116.2</ele>
        <time>2022-08-29T07:25:29Z</time>
      </trkpt>
      <trkpt lat="47.89752" lon="6.91409">
        <ele>1116.4</ele>
        <time>2022-08-29T07:25:30Z</time>
      </trkpt>
      <trkpt lat="47.89751" lon="6.9141">
        <ele>1117.1</ele>
        <time>2022-08-29T07:25:31Z</time>
      </trkpt>
      <trkpt lat="47.89751" lon="6.91411">
        <ele>1117.3</ele>
        <time>2022-08-29T07:25:32Z</time>
      </trkpt>
      <trkpt lat="47.89751" lon="6.91412">
        <ele>1117.5</ele>
        <time>2022-08-29T07:25:33Z</time>
      </trkpt>
      <trkpt lat="47.89751" lon="6.91414">
        <ele>1118</ele>
        <time>2022-08-29T07:25:34Z</time>
      </trkpt>
      <trkpt lat="47.89751" lon="6.91415">
        <ele>1118.2</ele>
        <time>2022-08-29T07:25:35Z</time>
      </trkpt>
      <trkpt lat="47.89752" lon="6.91415">
        <ele>1117.7</ele>
        <time>2022-08-29T07:25:36Z</time>
      </trkpt>
      <trkpt lat="47.89752" lon="6.91416">
        <ele>1117.9</ele>
        <time>2022-08-29T07:25:37Z</time>
      </trkpt>
      <trkpt lat="47.89752" lon="6.91417">
        <ele>1118.1</ele>
        <time>2022-08-29T07:25:38Z</time>
      </trkpt>
      <trkpt lat="47.89752" lon="6.91418">
        <ele>1118.3</ele>
        <time>2022-08-29T07:25:39Z</time>
      </trkpt>
      <trkpt lat="47.89753" lon="6.91419">
        <ele>1118</ele>
        <time>2022-08-29T07:25:40Z</time>
      </trkpt>
      <trkpt lat="47.89753" lon="6.91421">
        <ele>1118.4</ele>
        <time>2022-08-29T07:25:41Z</time>
      </trkpt>
      <trkpt lat="47.89754" lon="6.91422">
        <ele>1118.1</ele>
        <time>2022-08-29T07:25:42Z</time>
      </trkpt>
      <trkpt lat="47.89754" lon="6.91423">
        <ele>1118.3</ele>
        <time>2022-08-29T07:25:43Z</time>
      </trkpt>
      <trkpt lat="47.89754" lon="6.91425">
        <ele>1118.7</ele>
        <time>2022-08-29T07:25:44Z</time>
      </trkpt>
      <trkpt lat="47.89754" lon="6.91426">
        <ele>1118.9</ele>
        <time>2022-08-29T07:25:45Z</time>
      </trkpt>
      <trkpt lat="47.89754" lon="6.91428">
        <ele>1119.3</ele>
        <time>2022-08-29T07:25:46Z</time>
      </trkpt>
      <trkpt lat="47.89755" lon="6.91429">
        <ele>1119</ele>
        <time>2022-08-29T07:25:47Z</time>
      </trkpt>
      <trkpt lat="47.89756" lon="6.9143">
        <ele>1118.8</ele>
        <time>2022-08-29T07:25:48Z</time>
      </trkpt>
      <trkpt lat="47.89757" lon="6.91431">
        <ele>1118.6</ele>
        <time>2022-08-29T07:25:49Z</time>
      </trkpt>
      <trkpt lat="47.89758" lon="6.91432">
        <ele>1118.3</ele>
        <time>2022-08-29T07:25:50Z</time>
      </trkpt>
      <trkpt lat="47.89759" lon="6.91433">
        <ele>1118.1</ele>
        <time>2022-08-29T07:25:51Z</time>
      </trkpt>
      <trkpt lat="47.89759" lon="6.91434">
        <ele>1118.3</ele>
        <time>2022-08-29T07:25:52Z</time>
      </trkpt>
      <trkpt lat="47.89759" lon="6.91435">
        <ele>1118.5</ele>
        <time>2022-08-29T07:25:54Z</time>
      </trkpt>
      <trkpt lat="47.89759" lon="6.91436">
        <ele>1118.7</ele>
        <time>2022-08-29T07:25:55Z</time>
      </trkpt>
      <trkpt lat="47.89759" lon="6.91437">
        <ele>1118.9</ele>
        <time>2022-08-29T07:25:57Z</time>
      </trkpt>
      <trkpt lat="47.89758" lon="6.91438">
        <ele>1119.5</ele>
        <time>2022-08-29T07:25:59Z</time>
      </trkpt>
      <trkpt lat="47.89758" lon="6.91439">
        <ele>1119.7</ele>
        <time>2022-08-29T07:26:00Z</time>
      </trkpt>
      <trkpt lat="47.89758" lon="6.9144">
        <ele>1119.9</ele>
        <time>2022-08-29T07:26:01Z</time>
      </trkpt>
      <trkpt lat="47.89757" lon="6.91441">
        <ele>1120.5</ele>
        <time>2022-08-29T07:26:02Z</time>
      </trkpt>
      <trkpt lat="47.89757" lon="6.91443">
        <ele>1120.9</ele>
        <time>2022-08-29T07:26:03Z</time>
      </trkpt>
      <trkpt lat="47.89757" lon="6.91444">
        <ele>1121.1</ele>
        <time>2022-08-29T07:26:04Z</time>
      </trkpt>
      <trkpt lat="47.89756" lon="6.91444">
        <ele>1121.5</ele>
        <time>2022-08-29T07:26:05Z</time>
      </trkpt>
      <trkpt lat="47.89756" lon="6.91446">
        <ele>1122</ele>
        <time>2022-08-29T07:26:06Z</time>
      </trkpt>
      <trkpt lat="47.89755" lon="6.91447">
        <ele>1122.6</ele>
        <time>2022-08-29T07:26:07Z</time>
      </trkpt>
      <trkpt lat="47.89755" lon="6.91448">
        <ele>1122.8</ele>
        <time>2022-08-29T07:26:09Z</time>
      </trkpt>
      <trkpt lat="47.89755" lon="6.91449">
        <ele>1123.1</ele>
        <time>2022-08-29T07:26:11Z</time>
      </trkpt>
      <trkpt lat="47.89756" lon="6.91449">
        <ele>1122.7</ele>
        <time>2022-08-29T07:26:13Z</time>
      </trkpt>
      <trkpt lat="47.89756" lon="6.9145">
        <ele>1122.9</ele>
        <time>2022-08-29T07:26:14Z</time>
      </trkpt>
      <trkpt lat="47.89757" lon="6.91451">
        <ele>1122.8</ele>
        <time>2022-08-29T07:26:16Z</time>
      </trkpt>
      <trkpt lat="47.89757" lon="6.91454">
        <ele>1123.5</ele>
        <time>2022-08-29T07:26:24Z</time>
      </trkpt>
      <trkpt lat="47.89757" lon="6.91455">
        <ele>1123.7</ele>
        <time>2022-08-29T07:26:25Z</time>
      </trkpt>
      <trkpt lat="47.89757" lon="6.91456">
        <ele>1123.9</ele>
        <time>2022-08-29T07:26:26Z</time>
      </trkpt>
      <trkpt lat="47.89757" lon="6.91457">
        <ele>1124.2</ele>
        <time>2022-08-29T07:26:27Z</time>
      </trkpt>
      <trkpt lat="47.89756" lon="6.91459">
        <ele>1125</ele>
        <time>2022-08-29T07:26:28Z</time>
      </trkpt>
      <trkpt lat="47.89757" lon="6.9146">
        <ele>1124.9</ele>
        <time>2022-08-29T07:26:30Z</time>
      </trkpt>
      <trkpt lat="47.89758" lon="6.9146">
        <ele>1124.5</ele>
        <time>2022-08-29T07:26:32Z</time>
      </trkpt>
      <trkpt lat="47.89758" lon="6.91461">
        <ele>1124.8</ele>
        <time>2022-08-29T07:26:33Z</time>
      </trkpt>
      <trkpt lat="47.8976" lon="6.91462">
        <ele>1124.3</ele>
        <time>2022-08-29T07:26:34Z</time>
      </trkpt>
      <trkpt lat="47.89761" lon="6.91462">
        <ele>1123.9</ele>
        <time>2022-08-29T07:26:35Z</time>
      </trkpt>
      <trkpt lat="47.89761" lon="6.91463">
        <ele>1124.2</ele>
        <time>2022-08-29T07:26:36Z</time>
      </trkpt>
      <trkpt lat="47.89761" lon="6.91464">
        <ele>1124.4</ele>
        <time>2022-08-29T07:26:37Z</time>
      </trkpt>
      <trkpt lat="47.89762" lon="6.91464">
        <ele>1124.1</ele>
        <time>2022-08-29T07:26:38Z</time>
      </trkpt>
      <trkpt lat="47.89762" lon="6.91465">
        <ele>1124.3</ele>
        <time>2022-08-29T07:26:39Z</time>
      </trkpt>
      <trkpt lat="47.89763" lon="6.91467">
        <ele>1124.5</ele>
        <time>2022-08-29T07:26:41Z</time>
      </trkpt>
      <trkpt lat="47.89764" lon="6.91469">
        <ele>1124.7</ele>
        <time>2022-08-29T07:26:42Z</time>
      </trkpt>
      <trkpt lat="47.89765" lon="6.9147">
        <ele>1124.6</ele>
        <time>2022-08-29T07:26:43Z</time>
      </trkpt>
      <trkpt lat="47.89765" lon="6.91471">
        <ele>1124.8</ele>
        <time>2022-08-29T07:26:44Z</time>
      </trkpt>
      <trkpt lat="47.89766" lon="6.91472">
        <ele>1124.8</ele>
        <time>2022-08-29T07:26:45Z</time>
      </trkpt>
      <trkpt lat="47.89766" lon="6.91473">
        <ele>1125</ele>
        <time>2022-08-29T07:26:46Z</time>
      </trkpt>
      <trkpt lat="47.89767" lon="6.91474">
        <ele>1124.9</ele>
        <time>2022-08-29T07:26:47Z</time>
      </trkpt>
      <trkpt lat="47.89767" lon="6.91475">
        <ele>1125.2</ele>
        <time>2022-08-29T07:26:48Z</time>
      </trkpt>
      <trkpt lat="47.89767" lon="6.91476">
        <ele>1125.4</ele>
        <time>2022-08-29T07:26:49Z</time>
      </trkpt>
      <trkpt lat="47.89768" lon="6.91477">
        <ele>1125.4</ele>
        <time>2022-08-29T07:26:50Z</time>
      </trkpt>
      <trkpt lat="47.89768" lon="6.91478">
        <ele>1125.6</ele>
        <time>2022-08-29T07:26:51Z</time>
      </trkpt>
      <trkpt lat="47.89769" lon="6.91479">
        <ele>1125.6</ele>
        <time>2022-08-29T07:26:52Z</time>
      </trkpt>
      <trkpt lat="47.89769" lon="6.9148">
        <ele>1125.8</ele>
        <time>2022-08-29T07:26:53Z</time>
      </trkpt>
      <trkpt lat="47.89769" lon="6.91481">
        <ele>1126.1</ele>
        <time>2022-08-29T07:26:54Z</time>
      </trkpt>
      <trkpt lat="47.89769" lon="6.91482">
        <ele>1126.3</ele>
        <time>2022-08-29T07:26:55Z</time>
      </trkpt>
      <trkpt lat="47.89769" lon="6.91483">
        <ele>1126.6</ele>
        <time>2022-08-29T07:26:57Z</time>
      </trkpt>
      <trkpt lat="47.89769" lon="6.91484">
        <ele>1126.8</ele>
        <time>2022-08-29T07:26:58Z</time>
      </trkpt>
      <trkpt lat="47.89769" lon="6.91485">
        <ele>1127.1</ele>
        <time>2022-08-29T07:26:59Z</time>
      </trkpt>
      <trkpt lat="47.89769" lon="6.91487">
        <ele>1127.6</ele>
        <time>2022-08-29T07:27:00Z</time>
      </trkpt>
      <trkpt lat="47.89769" lon="6.91488">
        <ele>1127.8</ele>
        <time>2022-08-29T07:27:01Z</time>
      </trkpt>
      <trkpt lat="47.89769" lon="6.91489">
        <ele>1128.1</ele>
        <time>2022-08-29T07:27:02Z</time>
      </trkpt>
      <trkpt lat="47.89769" lon="6.9149">
        <ele>1128.3</ele>
        <time>2022-08-29T07:27:04Z</time>
      </trkpt>
      <trkpt lat="47.89769" lon="6.91491">
        <ele>1128.6</ele>
        <time>2022-08-29T07:27:05Z</time>
      </trkpt>
      <trkpt lat="47.8977" lon="6.91493">
        <ele>1128.8</ele>
        <time>2022-08-29T07:27:06Z</time>
      </trkpt>
      <trkpt lat="47.8977" lon="6.91495">
        <ele>1129.3</ele>
        <time>2022-08-29T07:27:07Z</time>
      </trkpt>
      <trkpt lat="47.8977" lon="6.91497">
        <ele>1129.8</ele>
        <time>2022-08-29T07:27:08Z</time>
      </trkpt>
      <trkpt lat="47.8977" lon="6.91498">
        <ele>1130</ele>
        <time>2022-08-29T07:27:09Z</time>
      </trkpt>
      <trkpt lat="47.8977" lon="6.91499">
        <ele>1130.3</ele>
        <time>2022-08-29T07:27:10Z</time>
      </trkpt>
      <trkpt lat="47.8977" lon="6.915">
        <ele>1130.5</ele>
        <time>2022-08-29T07:27:12Z</time>
      </trkpt>
      <trkpt lat="47.8977" lon="6.91501">
        <ele>1130.8</ele>
        <time>2022-08-29T07:27:14Z</time>
      </trkpt>
      <trkpt lat="47.89771" lon="6.91502">
        <ele>1130.8</ele>
        <time>2022-08-29T07:27:15Z</time>
      </trkpt>
      <trkpt lat="47.89771" lon="6.91503">
        <ele>1131.1</ele>
        <time>2022-08-29T07:27:16Z</time>
      </trkpt>
      <trkpt lat="47.89771" lon="6.91504">
        <ele>1131.4</ele>
        <time>2022-08-29T07:27:17Z</time>
      </trkpt>
      <trkpt lat="47.89772" lon="6.91505">
        <ele>1131.4</ele>
        <time>2022-08-29T07:27:18Z</time>
      </trkpt>
      <trkpt lat="47.89773" lon="6.91505">
        <ele>1131.1</ele>
        <time>2022-08-29T07:27:19Z</time>
      </trkpt>
      <trkpt lat="47.89774" lon="6.91505">
        <ele>1130.8</ele>
        <time>2022-08-29T07:27:20Z</time>
      </trkpt>
      <trkpt lat="47.89775" lon="6.91506">
        <ele>1130.8</ele>
        <time>2022-08-29T07:27:21Z</time>
      </trkpt>
      <trkpt lat="47.89776" lon="6.91506">
        <ele>1130.5</ele>
        <time>2022-08-29T07:27:22Z</time>
      </trkpt>
      <trkpt lat="47.89778" lon="6.91506">
        <ele>1129.9</ele>
        <time>2022-08-29T07:27:23Z</time>
      </trkpt>
      <trkpt lat="47.89779" lon="6.91506">
        <ele>1129.6</ele>
        <time>2022-08-29T07:27:24Z</time>
      </trkpt>
      <trkpt lat="47.8978" lon="6.91507">
        <ele>1129.6</ele>
        <time>2022-08-29T07:27:25Z</time>
      </trkpt>
      <trkpt lat="47.89781" lon="6.91507">
        <ele>1129.3</ele>
        <time>2022-08-29T07:27:26Z</time>
      </trkpt>
      <trkpt lat="47.89782" lon="6.91508">
        <ele>1129.4</ele>
        <time>2022-08-29T07:27:28Z</time>
      </trkpt>
      <trkpt lat="47.89783" lon="6.91512">
        <ele>1130.4</ele>
        <time>2022-08-29T07:27:44Z</time>
      </trkpt>
      <trkpt lat="47.89783" lon="6.91514">
        <ele>1131</ele>
        <time>2022-08-29T07:27:45Z</time>
      </trkpt>
      <trkpt lat="47.89784" lon="6.91516">
        <ele>1131.4</ele>
        <time>2022-08-29T07:27:46Z</time>
      </trkpt>
      <trkpt lat="47.89784" lon="6.9152">
        <ele>1132.7</ele>
        <time>2022-08-29T07:27:55Z</time>
      </trkpt>
      <trkpt lat="47.89784" lon="6.91522">
        <ele>1133.3</ele>
        <time>2022-08-29T07:27:56Z</time>
      </trkpt>
      <trkpt lat="47.89783" lon="6.91523">
        <ele>1133.9</ele>
        <time>2022-08-29T07:27:57Z</time>
      </trkpt>
      <trkpt lat="47.89783" lon="6.91525">
        <ele>1134.6</ele>
        <time>2022-08-29T07:27:58Z</time>
      </trkpt>
      <trkpt lat="47.89783" lon="6.91526">
        <ele>1134.9</ele>
        <time>2022-08-29T07:27:59Z</time>
      </trkpt>
      <trkpt lat="47.89784" lon="6.91527">
        <ele>1135</ele>
        <time>2022-08-29T07:28:00Z</time>
      </trkpt>
      <trkpt lat="47.89784" lon="6.91528">
        <ele>1135.3</ele>
        <time>2022-08-29T07:28:02Z</time>
      </trkpt>
      <trkpt lat="47.89785" lon="6.91528">
        <ele>1135</ele>
        <time>2022-08-29T07:28:03Z</time>
      </trkpt>
      <trkpt lat="47.89786" lon="6.91528">
        <ele>1134.7</ele>
        <time>2022-08-29T07:28:05Z</time>
      </trkpt>
      <trkpt lat="47.89787" lon="6.91529">
        <ele>1134.7</ele>
        <time>2022-08-29T07:28:06Z</time>
      </trkpt>
      <trkpt lat="47.89788" lon="6.91529">
        <ele>1134.4</ele>
        <time>2022-08-29T07:28:07Z</time>
      </trkpt>
      <trkpt lat="47.89788" lon="6.9153">
        <ele>1134.7</ele>
        <time>2022-08-29T07:28:08Z</time>
      </trkpt>
      <trkpt lat="47.89789" lon="6.9153">
        <ele>1134.4</ele>
        <time>2022-08-29T07:28:09Z</time>
      </trkpt>
      <trkpt lat="47.8979" lon="6.91531">
        <ele>1134.5</ele>
        <time>2022-08-29T07:28:10Z</time>
      </trkpt>
      <trkpt lat="47.89791" lon="6.91531">
        <ele>1134.2</ele>
        <time>2022-08-29T07:28:11Z</time>
      </trkpt>
      <trkpt lat="47.89792" lon="6.91532">
        <ele>1134.2</ele>
        <time>2022-08-29T07:28:12Z</time>
      </trkpt>
      <trkpt lat="47.89793" lon="6.91533">
        <ele>1134.2</ele>
        <time>2022-08-29T07:28:14Z</time>
      </trkpt>
      <trkpt lat="47.89793" lon="6.91534">
        <ele>1134.5</ele>
        <time>2022-08-29T07:28:15Z</time>
      </trkpt>
      <trkpt lat="47.89794" lon="6.91535">
        <ele>1134.6</ele>
        <time>2022-08-29T07:28:16Z</time>
      </trkpt>
      <trkpt lat="47.89794" lon="6.91541">
        <ele>1136.4</ele>
        <time>2022-08-29T07:28:39Z</time>
      </trkpt>
      <trkpt lat="47.89794" lon="6.91544">
        <ele>1137.3</ele>
        <time>2022-08-29T07:28:40Z</time>
      </trkpt>
      <trkpt lat="47.89794" lon="6.91547">
        <ele>1138.3</ele>
        <time>2022-08-29T07:28:41Z</time>
      </trkpt>
      <trkpt lat="47.89794" lon="6.91549">
        <ele>1138.9</ele>
        <time>2022-08-29T07:28:42Z</time>
      </trkpt>
      <trkpt lat="47.89793" lon="6.91551">
        <ele>1139.8</ele>
        <time>2022-08-29T07:28:43Z</time>
      </trkpt>
      <trkpt lat="47.89793" lon="6.91552">
        <ele>1140.1</ele>
        <time>2022-08-29T07:28:44Z</time>
      </trkpt>
      <trkpt lat="47.89793" lon="6.91553">
        <ele>1140.4</ele>
        <time>2022-08-29T07:28:45Z</time>
      </trkpt>
      <trkpt lat="47.89793" lon="6.91554">
        <ele>1140.7</ele>
        <time>2022-08-29T07:28:46Z</time>
      </trkpt>
      <trkpt lat="47.89793" lon="6.91555">
        <ele>1141</ele>
        <time>2022-08-29T07:28:47Z</time>
      </trkpt>
      <trkpt lat="47.89792" lon="6.91556">
        <ele>1141.6</ele>
        <time>2022-08-29T07:28:48Z</time>
      </trkpt>
      <trkpt lat="47.89793" lon="6.91557">
        <ele>1141.6</ele>
        <time>2022-08-29T07:28:49Z</time>
      </trkpt>
      <trkpt lat="47.89793" lon="6.91558">
        <ele>1142</ele>
        <time>2022-08-29T07:28:50Z</time>
      </trkpt>
      <trkpt lat="47.89794" lon="6.91559">
        <ele>1142</ele>
        <time>2022-08-29T07:28:51Z</time>
      </trkpt>
      <trkpt lat="47.89794" lon="6.9156">
        <ele>1142.4</ele>
        <time>2022-08-29T07:28:52Z</time>
      </trkpt>
      <trkpt lat="47.89795" lon="6.91561">
        <ele>1142.5</ele>
        <time>2022-08-29T07:28:53Z</time>
      </trkpt>
      <trkpt lat="47.89796" lon="6.91562">
        <ele>1142.6</ele>
        <time>2022-08-29T07:28:54Z</time>
      </trkpt>
      <trkpt lat="47.89797" lon="6.91564">
        <ele>1143</ele>
        <time>2022-08-29T07:29:00Z</time>
      </trkpt>
      <trkpt lat="47.89797" lon="6.91565">
        <ele>1143.3</ele>
        <time>2022-08-29T07:29:01Z</time>
      </trkpt>
      <trkpt lat="47.89797" lon="6.91566">
        <ele>1143.7</ele>
        <time>2022-08-29T07:29:02Z</time>
      </trkpt>
      <trkpt lat="47.89798" lon="6.91567">
        <ele>1143.8</ele>
        <time>2022-08-29T07:29:03Z</time>
      </trkpt>
      <trkpt lat="47.89798" lon="6.91568">
        <ele>1144.1</ele>
        <time>2022-08-29T07:29:04Z</time>
      </trkpt>
      <trkpt lat="47.89801" lon="6.91573">
        <ele>1145.2</ele>
        <time>2022-08-29T07:29:28Z</time>
      </trkpt>
      <trkpt lat="47.89802" lon="6.91577">
        <ele>1146.4</ele>
        <time>2022-08-29T07:29:29Z</time>
      </trkpt>
      <trkpt lat="47.89803" lon="6.9158">
        <ele>1147.3</ele>
        <time>2022-08-29T07:29:30Z</time>
      </trkpt>
      <trkpt lat="47.89806" lon="6.91584">
        <ele>1148.1</ele>
        <time>2022-08-29T07:29:38Z</time>
      </trkpt>
      <trkpt lat="47.89807" lon="6.91584">
        <ele>1147.8</ele>
        <time>2022-08-29T07:29:39Z</time>
      </trkpt>
      <trkpt lat="47.89808" lon="6.91585">
        <ele>1147.8</ele>
        <time>2022-08-29T07:29:40Z</time>
      </trkpt>
      <trkpt lat="47.89809" lon="6.91586">
        <ele>1147.8</ele>
        <time>2022-08-29T07:29:41Z</time>
      </trkpt>
      <trkpt lat="47.89809" lon="6.91587">
        <ele>1148.1</ele>
        <time>2022-08-29T07:29:42Z</time>
      </trkpt>
      <trkpt lat="47.8981" lon="6.91587">
        <ele>1147.8</ele>
        <time>2022-08-29T07:29:43Z</time>
      </trkpt>
      <trkpt lat="47.8981" lon="6.91588">
        <ele>1148.1</ele>
        <time>2022-08-29T07:29:44Z</time>
      </trkpt>
      <trkpt lat="47.8981" lon="6.91589">
        <ele>1148.4</ele>
        <time>2022-08-29T07:29:45Z</time>
      </trkpt>
      <trkpt lat="47.89811" lon="6.9159">
        <ele>1148.4</ele>
        <time>2022-08-29T07:29:46Z</time>
      </trkpt>
      <trkpt lat="47.89811" lon="6.91591">
        <ele>1148.7</ele>
        <time>2022-08-29T07:29:47Z</time>
      </trkpt>
      <trkpt lat="47.89813" lon="6.91596">
        <ele>1149.7</ele>
        <time>2022-08-29T07:30:04Z</time>
      </trkpt>
      <trkpt lat="47.89814" lon="6.91599">
        <ele>1150.4</ele>
        <time>2022-08-29T07:30:05Z</time>
      </trkpt>
      <trkpt lat="47.89815" lon="6.91602">
        <ele>1151.1</ele>
        <time>2022-08-29T07:30:06Z</time>
      </trkpt>
      <trkpt lat="47.89817" lon="6.91607">
        <ele>1152.2</ele>
        <time>2022-08-29T07:30:13Z</time>
      </trkpt>
      <trkpt lat="47.89817" lon="6.91609">
        <ele>1152.9</ele>
        <time>2022-08-29T07:30:14Z</time>
      </trkpt>
      <trkpt lat="47.89818" lon="6.91611">
        <ele>1153.3</ele>
        <time>2022-08-29T07:30:15Z</time>
      </trkpt>
      <trkpt lat="47.89818" lon="6.91613">
        <ele>1153.9</ele>
        <time>2022-08-29T07:30:16Z</time>
      </trkpt>
      <trkpt lat="47.89819" lon="6.91614">
        <ele>1154</ele>
        <time>2022-08-29T07:30:17Z</time>
      </trkpt>
      <trkpt lat="47.8982" lon="6.91615">
        <ele>1154.1</ele>
        <time>2022-08-29T07:30:18Z</time>
      </trkpt>
      <trkpt lat="47.89821" lon="6.91616">
        <ele>1154.2</ele>
        <time>2022-08-29T07:30:19Z</time>
      </trkpt>
      <trkpt lat="47.89822" lon="6.91617">
        <ele>1154.3</ele>
        <time>2022-08-29T07:30:20Z</time>
      </trkpt>
      <trkpt lat="47.89823" lon="6.91618">
        <ele>1154.4</ele>
        <time>2022-08-29T07:30:21Z</time>
      </trkpt>
      <trkpt lat="47.89824" lon="6.91619">
        <ele>1154.5</ele>
        <time>2022-08-29T07:30:23Z</time>
      </trkpt>
      <trkpt lat="47.89825" lon="6.9162">
        <ele>1154.6</ele>
        <time>2022-08-29T07:30:25Z</time>
      </trkpt>
      <trkpt lat="47.89826" lon="6.91621">
        <ele>1154.7</ele>
        <time>2022-08-29T07:30:33Z</time>
      </trkpt>
      <trkpt lat="47.89827" lon="6.91621">
        <ele>1154.5</ele>
        <time>2022-08-29T07:30:34Z</time>
      </trkpt>
      <trkpt lat="47.89828" lon="6.91622">
        <ele>1154.6</ele>
        <time>2022-08-29T07:30:35Z</time>
      </trkpt>
      <trkpt lat="47.89828" lon="6.91625">
        <ele>1155.6</ele>
        <time>2022-08-29T07:30:41Z</time>
      </trkpt>
      <trkpt lat="47.89829" lon="6.91626">
        <ele>1155.7</ele>
        <time>2022-08-29T07:30:42Z</time>
      </trkpt>
      <trkpt lat="47.89829" lon="6.91627">
        <ele>1156</ele>
        <time>2022-08-29T07:30:43Z</time>
      </trkpt>
      <trkpt lat="47.89829" lon="6.91628">
        <ele>1156.3</ele>
        <time>2022-08-29T07:30:44Z</time>
      </trkpt>
      <trkpt lat="47.89829" lon="6.9163">
        <ele>1156.9</ele>
        <time>2022-08-29T07:30:45Z</time>
      </trkpt>
      <trkpt lat="47.8983" lon="6.91631">
        <ele>1157.1</ele>
        <time>2022-08-29T07:30:46Z</time>
      </trkpt>
      <trkpt lat="47.8983" lon="6.91632">
        <ele>1157.4</ele>
        <time>2022-08-29T07:30:47Z</time>
      </trkpt>
      <trkpt lat="47.8983" lon="6.91633">
        <ele>1157.7</ele>
        <time>2022-08-29T07:30:49Z</time>
      </trkpt>
      <trkpt lat="47.89831" lon="6.91634">
        <ele>1157.9</ele>
        <time>2022-08-29T07:30:50Z</time>
      </trkpt>
      <trkpt lat="47.89831" lon="6.91635">
        <ele>1158.2</ele>
        <time>2022-08-29T07:30:51Z</time>
      </trkpt>
      <trkpt lat="47.89832" lon="6.91636">
        <ele>1158.3</ele>
        <time>2022-08-29T07:30:52Z</time>
      </trkpt>
      <trkpt lat="47.89833" lon="6.91637">
        <ele>1158.4</ele>
        <time>2022-08-29T07:30:53Z</time>
      </trkpt>
      <trkpt lat="47.89833" lon="6.91638">
        <ele>1158.8</ele>
        <time>2022-08-29T07:30:54Z</time>
      </trkpt>
      <trkpt lat="47.89834" lon="6.91638">
        <ele>1158.6</ele>
        <time>2022-08-29T07:30:55Z</time>
      </trkpt>
      <trkpt lat="47.89835" lon="6.91639">
        <ele>1158.7</ele>
        <time>2022-08-29T07:30:56Z</time>
      </trkpt>
      <trkpt lat="47.89836" lon="6.9164">
        <ele>1158.8</ele>
        <time>2022-08-29T07:30:57Z</time>
      </trkpt>
      <trkpt lat="47.89837" lon="6.91641">
        <ele>1158.9</ele>
        <time>2022-08-29T07:30:59Z</time>
      </trkpt>
      <trkpt lat="47.89838" lon="6.91642">
        <ele>1159.1</ele>
        <time>2022-08-29T07:31:00Z</time>
      </trkpt>
      <trkpt lat="47.89838" lon="6.91643">
        <ele>1159.3</ele>
        <time>2022-08-29T07:31:01Z</time>
      </trkpt>
      <trkpt lat="47.89839" lon="6.91644">
        <ele>1159.5</ele>
        <time>2022-08-29T07:31:03Z</time>
      </trkpt>
      <trkpt lat="47.8984" lon="6.91645">
        <ele>1159.6</ele>
        <time>2022-08-29T07:31:05Z</time>
      </trkpt>
      <trkpt lat="47.89841" lon="6.91645">
        <ele>1159.4</ele>
        <time>2022-08-29T07:31:06Z</time>
      </trkpt>
      <trkpt lat="47.89842" lon="6.91645">
        <ele>1159.2</ele>
        <time>2022-08-29T07:31:07Z</time>
      </trkpt>
      <trkpt lat="47.89843" lon="6.91649">
        <ele>1160.2</ele>
        <time>2022-08-29T07:32:51Z</time>
      </trkpt>
      <trkpt lat="47.89845" lon="6.91651">
        <ele>1160.4</ele>
        <time>2022-08-29T07:32:52Z</time>
      </trkpt>
      <trkpt lat="47.89846" lon="6.91653">
        <ele>1160.8</ele>
        <time>2022-08-29T07:32:53Z</time>
      </trkpt>
      <trkpt lat="47.89847" lon="6.91654">
        <ele>1160.9</ele>
        <time>2022-08-29T07:32:55Z</time>
      </trkpt>
      <trkpt lat="47.89848" lon="6.91654">
        <ele>1160.7</ele>
        <time>2022-08-29T07:32:56Z</time>
      </trkpt>
      <trkpt lat="47.89849" lon="6.91655">
        <ele>1160.8</ele>
        <time>2022-08-29T07:32:57Z</time>
      </trkpt>
      <trkpt lat="47.8985" lon="6.91655">
        <ele>1160.6</ele>
        <time>2022-08-29T07:32:59Z</time>
      </trkpt>
      <trkpt lat="47.89851" lon="6.91656">
        <ele>1160.7</ele>
        <time>2022-08-29T07:33:00Z</time>
      </trkpt>
      <trkpt lat="47.89852" lon="6.91656">
        <ele>1160.6</ele>
        <time>2022-08-29T07:33:01Z</time>
      </trkpt>
      <trkpt lat="47.89853" lon="6.91657">
        <ele>1160.7</ele>
        <time>2022-08-29T07:33:02Z</time>
      </trkpt>
      <trkpt lat="47.89854" lon="6.91657">
        <ele>1160.5</ele>
        <time>2022-08-29T07:33:03Z</time>
      </trkpt>
      <trkpt lat="47.89855" lon="6.91658">
        <ele>1160.6</ele>
        <time>2022-08-29T07:33:04Z</time>
      </trkpt>
      <trkpt lat="47.89856" lon="6.91658">
        <ele>1160.4</ele>
        <time>2022-08-29T07:33:05Z</time>
      </trkpt>
      <trkpt lat="47.89857" lon="6.91659">
        <ele>1160.5</ele>
        <time>2022-08-29T07:33:06Z</time>
      </trkpt>
      <trkpt lat="47.89858" lon="6.91659">
        <ele>1160.4</ele>
        <time>2022-08-29T07:33:07Z</time>
      </trkpt>
      <trkpt lat="47.89859" lon="6.9166">
        <ele>1160.5</ele>
        <time>2022-08-29T07:33:08Z</time>
      </trkpt>
      <trkpt lat="47.8986" lon="6.9166">
        <ele>1160.3</ele>
        <time>2022-08-29T07:33:09Z</time>
      </trkpt>
      <trkpt lat="47.89861" lon="6.91661">
        <ele>1160.4</ele>
        <time>2022-08-29T07:33:10Z</time>
      </trkpt>
      <trkpt lat="47.89862" lon="6.91662">
        <ele>1160.5</ele>
        <time>2022-08-29T07:33:12Z</time>
      </trkpt>
      <trkpt lat="47.89863" lon="6.91663">
        <ele>1160.7</ele>
        <time>2022-08-29T07:33:13Z</time>
      </trkpt>
      <trkpt lat="47.89864" lon="6.91664">
        <ele>1160.8</ele>
        <time>2022-08-29T07:33:14Z</time>
      </trkpt>
      <trkpt lat="47.89864" lon="6.91665">
        <ele>1161.1</ele>
        <time>2022-08-29T07:33:15Z</time>
      </trkpt>
      <trkpt lat="47.89865" lon="6.91665">
        <ele>1160.9</ele>
        <time>2022-08-29T07:33:16Z</time>
      </trkpt>
      <trkpt lat="47.89866" lon="6.91666">
        <ele>1161.1</ele>
        <time>2022-08-29T07:33:17Z</time>
      </trkpt>
      <trkpt lat="47.89866" lon="6.91667">
        <ele>1161.4</ele>
        <time>2022-08-29T07:33:18Z</time>
      </trkpt>
      <trkpt lat="47.89867" lon="6.91667">
        <ele>1161.2</ele>
        <time>2022-08-29T07:33:19Z</time>
      </trkpt>
      <trkpt lat="47.89867" lon="6.91668">
        <ele>1161.5</ele>
        <time>2022-08-29T07:33:20Z</time>
      </trkpt>
      <trkpt lat="47.89868" lon="6.91668">
        <ele>1161.4</ele>
        <time>2022-08-29T07:33:47Z</time>
      </trkpt>
      <trkpt lat="47.89868" lon="6.91669">
        <ele>1161.7</ele>
        <time>2022-08-29T07:33:48Z</time>
      </trkpt>
      <trkpt lat="47.89868" lon="6.9167">
        <ele>1162</ele>
        <time>2022-08-29T07:33:50Z</time>
      </trkpt>
      <trkpt lat="47.89868" lon="6.91671">
        <ele>1162.3</ele>
        <time>2022-08-29T07:33:51Z</time>
      </trkpt>
      <trkpt lat="47.89869" lon="6.91672">
        <ele>1162.4</ele>
        <time>2022-08-29T07:33:52Z</time>
      </trkpt>
      <trkpt lat="47.89869" lon="6.91673">
        <ele>1162.7</ele>
        <time>2022-08-29T07:33:53Z</time>
      </trkpt>
      <trkpt lat="47.8987" lon="6.91674">
        <ele>1162.8</ele>
        <time>2022-08-29T07:33:55Z</time>
      </trkpt>
      <trkpt lat="47.8987" lon="6.91675">
        <ele>1163.1</ele>
        <time>2022-08-29T07:33:56Z</time>
      </trkpt>
      <trkpt lat="47.89871" lon="6.91676">
        <ele>1163.3</ele>
        <time>2022-08-29T07:33:57Z</time>
      </trkpt>
      <trkpt lat="47.89871" lon="6.91677">
        <ele>1163.6</ele>
        <time>2022-08-29T07:33:59Z</time>
      </trkpt>
      <trkpt lat="47.89872" lon="6.91678">
        <ele>1163.7</ele>
        <time>2022-08-29T07:34:00Z</time>
      </trkpt>
      <trkpt lat="47.89873" lon="6.91679">
        <ele>1163.8</ele>
        <time>2022-08-29T07:34:02Z</time>
      </trkpt>
      <trkpt lat="47.89874" lon="6.91679">
        <ele>1163.7</ele>
        <time>2022-08-29T07:34:03Z</time>
      </trkpt>
      <trkpt lat="47.89875" lon="6.9168">
        <ele>1163.8</ele>
        <time>2022-08-29T07:34:05Z</time>
      </trkpt>
      <trkpt lat="47.89876" lon="6.9168">
        <ele>1163.7</ele>
        <time>2022-08-29T07:34:06Z</time>
      </trkpt>
      <trkpt lat="47.89877" lon="6.91681">
        <ele>1163.8</ele>
        <time>2022-08-29T07:34:07Z</time>
      </trkpt>
      <trkpt lat="47.89878" lon="6.91682">
        <ele>1164</ele>
        <time>2022-08-29T07:34:09Z</time>
      </trkpt>
      <trkpt lat="47.89879" lon="6.91683">
        <ele>1164.1</ele>
        <time>2022-08-29T07:34:10Z</time>
      </trkpt>
      <trkpt lat="47.89879" lon="6.91684">
        <ele>1164.4</ele>
        <time>2022-08-29T07:34:11Z</time>
      </trkpt>
      <trkpt lat="47.8988" lon="6.91684">
        <ele>1164.3</ele>
        <time>2022-08-29T07:34:12Z</time>
      </trkpt>
      <trkpt lat="47.89881" lon="6.91685">
        <ele>1164.4</ele>
        <time>2022-08-29T07:34:13Z</time>
      </trkpt>
      <trkpt lat="47.89881" lon="6.91686">
        <ele>1164.7</ele>
        <time>2022-08-29T07:34:14Z</time>
      </trkpt>
      <trkpt lat="47.89882" lon="6.91687">
        <ele>1164.8</ele>
        <time>2022-08-29T07:34:15Z</time>
      </trkpt>
      <trkpt lat="47.89882" lon="6.91688">
        <ele>1165.1</ele>
        <time>2022-08-29T07:34:16Z</time>
      </trkpt>
      <trkpt lat="47.89883" lon="6.91688">
        <ele>1165</ele>
        <time>2022-08-29T07:34:17Z</time>
      </trkpt>
      <trkpt lat="47.89883" lon="6.91689">
        <ele>1165.3</ele>
        <time>2022-08-29T07:34:18Z</time>
      </trkpt>
      <trkpt lat="47.89884" lon="6.9169">
        <ele>1165.4</ele>
        <time>2022-08-29T07:34:19Z</time>
      </trkpt>
      <trkpt lat="47.89885" lon="6.91691">
        <ele>1165.6</ele>
        <time>2022-08-29T07:34:21Z</time>
      </trkpt>
      <trkpt lat="47.89886" lon="6.91692">
        <ele>1165.7</ele>
        <time>2022-08-29T07:34:22Z</time>
      </trkpt>
      <trkpt lat="47.89887" lon="6.91692">
        <ele>1165.6</ele>
        <time>2022-08-29T07:34:24Z</time>
      </trkpt>
      <trkpt lat="47.89887" lon="6.91693">
        <ele>1165.9</ele>
        <time>2022-08-29T07:34:25Z</time>
      </trkpt>
      <trkpt lat="47.89888" lon="6.91693">
        <ele>1165.7</ele>
        <time>2022-08-29T07:34:26Z</time>
      </trkpt>
      <trkpt lat="47.89889" lon="6.91694">
        <ele>1165.9</ele>
        <time>2022-08-29T07:34:27Z</time>
      </trkpt>
      <trkpt lat="47.8989" lon="6.91694">
        <ele>1165.7</ele>
        <time>2022-08-29T07:34:28Z</time>
      </trkpt>
      <trkpt lat="47.8989" lon="6.91695">
        <ele>1166</ele>
        <time>2022-08-29T07:34:29Z</time>
      </trkpt>
      <trkpt lat="47.89891" lon="6.91695">
        <ele>1165.8</ele>
        <time>2022-08-29T07:34:30Z</time>
      </trkpt>
      <trkpt lat="47.89892" lon="6.91695">
        <ele>1165.7</ele>
        <time>2022-08-29T07:34:31Z</time>
      </trkpt>
      <trkpt lat="47.89893" lon="6.91695">
        <ele>1165.6</ele>
        <time>2022-08-29T07:34:32Z</time>
      </trkpt>
      <trkpt lat="47.89894" lon="6.91696">
        <ele>1165.7</ele>
        <time>2022-08-29T07:34:33Z</time>
      </trkpt>
      <trkpt lat="47.89895" lon="6.91696">
        <ele>1165.5</ele>
        <time>2022-08-29T07:34:35Z</time>
      </trkpt>
      <trkpt lat="47.89896" lon="6.91697">
        <ele>1165.6</ele>
        <time>2022-08-29T07:34:36Z</time>
      </trkpt>
      <trkpt lat="47.89896" lon="6.91698">
        <ele>1165.9</ele>
        <time>2022-08-29T07:34:37Z</time>
      </trkpt>
      <trkpt lat="47.89897" lon="6.91698">
        <ele>1165.8</ele>
        <time>2022-08-29T07:34:38Z</time>
      </trkpt>
      <trkpt lat="47.89898" lon="6.91699">
        <ele>1165.9</ele>
        <time>2022-08-29T07:34:39Z</time>
      </trkpt>
      <trkpt lat="47.89899" lon="6.917">
        <ele>1166</ele>
        <time>2022-08-29T07:35:17Z</time>
      </trkpt>
      <trkpt lat="47.899" lon="6.917">
        <ele>1165.9</ele>
        <time>2022-08-29T07:35:18Z</time>
      </trkpt>
      <trkpt lat="47.89901" lon="6.917">
        <ele>1165.7</ele>
        <time>2022-08-29T07:35:19Z</time>
      </trkpt>
      <trkpt lat="47.89901" lon="6.91701">
        <ele>1166</ele>
        <time>2022-08-29T07:35:20Z</time>
      </trkpt>
      <trkpt lat="47.89902" lon="6.91701">
        <ele>1165.9</ele>
        <time>2022-08-29T07:35:21Z</time>
      </trkpt>
      <trkpt lat="47.89903" lon="6.91702">
        <ele>1166</ele>
        <time>2022-08-29T07:35:22Z</time>
      </trkpt>
      <trkpt lat="47.89903" lon="6.91703">
        <ele>1166.3</ele>
        <time>2022-08-29T07:35:23Z</time>
      </trkpt>
      <trkpt lat="47.89904" lon="6.91704">
        <ele>1166.4</ele>
        <time>2022-08-29T07:35:24Z</time>
      </trkpt>
      <trkpt lat="47.89905" lon="6.91705">
        <ele>1166.6</ele>
        <time>2022-08-29T07:35:25Z</time>
      </trkpt>
      <trkpt lat="47.89906" lon="6.91706">
        <ele>1166.7</ele>
        <time>2022-08-29T07:35:26Z</time>
      </trkpt>
      <trkpt lat="47.89906" lon="6.91707">
        <ele>1167</ele>
        <time>2022-08-29T07:35:27Z</time>
      </trkpt>
      <trkpt lat="47.89906" lon="6.91708">
        <ele>1167.3</ele>
        <time>2022-08-29T07:35:28Z</time>
      </trkpt>
      <trkpt lat="47.89907" lon="6.91709">
        <ele>1167.4</ele>
        <time>2022-08-29T07:35:29Z</time>
      </trkpt>
      <trkpt lat="47.89908" lon="6.91709">
        <ele>1167.3</ele>
        <time>2022-08-29T07:35:31Z</time>
      </trkpt>
      <trkpt lat="47.89909" lon="6.9171">
        <ele>1167.4</ele>
        <time>2022-08-29T07:35:32Z</time>
      </trkpt>
      <trkpt lat="47.8991" lon="6.9171">
        <ele>1167.3</ele>
        <time>2022-08-29T07:35:33Z</time>
      </trkpt>
      <trkpt lat="47.89911" lon="6.91711">
        <ele>1167.5</ele>
        <time>2022-08-29T07:35:35Z</time>
      </trkpt>
      <trkpt lat="47.89912" lon="6.91711">
        <ele>1167.3</ele>
        <time>2022-08-29T07:35:36Z</time>
      </trkpt>
      <trkpt lat="47.89913" lon="6.91711">
        <ele>1167.2</ele>
        <time>2022-08-29T07:35:37Z</time>
      </trkpt>
      <trkpt lat="47.89914" lon="6.91712">
        <ele>1167.4</ele>
        <time>2022-08-29T07:35:38Z</time>
      </trkpt>
      <trkpt lat="47.89915" lon="6.91712">
        <ele>1167.3</ele>
        <time>2022-08-29T07:35:39Z</time>
      </trkpt>
      <trkpt lat="47.89915" lon="6.91713">
        <ele>1167.5</ele>
        <time>2022-08-29T07:35:40Z</time>
      </trkpt>
      <trkpt lat="47.89916" lon="6.91713">
        <ele>1167.4</ele>
        <time>2022-08-29T07:35:41Z</time>
      </trkpt>
      <trkpt lat="47.89917" lon="6.91714">
        <ele>1167.6</ele>
        <time>2022-08-29T07:35:42Z</time>
      </trkpt>
      <trkpt lat="47.89918" lon="6.91715">
        <ele>1167.8</ele>
        <time>2022-08-29T07:35:43Z</time>
      </trkpt>
      <trkpt lat="47.89919" lon="6.91716">
        <ele>1168</ele>
        <time>2022-08-29T07:35:44Z</time>
      </trkpt>
      <trkpt lat="47.8992" lon="6.91717">
        <ele>1168.3</ele>
        <time>2022-08-29T07:35:45Z</time>
      </trkpt>
      <trkpt lat="47.89921" lon="6.91718">
        <ele>1168.5</ele>
        <time>2022-08-29T07:35:47Z</time>
      </trkpt>
      <trkpt lat="47.89922" lon="6.91719">
        <ele>1168.7</ele>
        <time>2022-08-29T07:35:48Z</time>
      </trkpt>
      <trkpt lat="47.89923" lon="6.91719">
        <ele>1168.6</ele>
        <time>2022-08-29T07:35:49Z</time>
      </trkpt>
      <trkpt lat="47.89924" lon="6.9172">
        <ele>1168.8</ele>
        <time>2022-08-29T07:35:50Z</time>
      </trkpt>
      <trkpt lat="47.89925" lon="6.9172">
        <ele>1168.8</ele>
        <time>2022-08-29T07:35:51Z</time>
      </trkpt>
      <trkpt lat="47.89926" lon="6.91721">
        <ele>1169</ele>
        <time>2022-08-29T07:35:52Z</time>
      </trkpt>
      <trkpt lat="47.89926" lon="6.91722">
        <ele>1169.3</ele>
        <time>2022-08-29T07:35:53Z</time>
      </trkpt>
      <trkpt lat="47.89927" lon="6.91722">
        <ele>1169.2</ele>
        <time>2022-08-29T07:35:54Z</time>
      </trkpt>
      <trkpt lat="47.89928" lon="6.91723">
        <ele>1169.3</ele>
        <time>2022-08-29T07:35:55Z</time>
      </trkpt>
      <trkpt lat="47.89929" lon="6.91724">
        <ele>1169.4</ele>
        <time>2022-08-29T07:35:56Z</time>
      </trkpt>
      <trkpt lat="47.89929" lon="6.91725">
        <ele>1169.6</ele>
        <time>2022-08-29T07:35:57Z</time>
      </trkpt>
      <trkpt lat="47.8993" lon="6.91726">
        <ele>1169.7</ele>
        <time>2022-08-29T07:35:58Z</time>
      </trkpt>
      <trkpt lat="47.89931" lon="6.91726">
        <ele>1169.6</ele>
        <time>2022-08-29T07:35:59Z</time>
      </trkpt>
      <trkpt lat="47.89931" lon="6.91727">
        <ele>1169.8</ele>
        <time>2022-08-29T07:36:00Z</time>
      </trkpt>
      <trkpt lat="47.89932" lon="6.91728">
        <ele>1169.9</ele>
        <time>2022-08-29T07:36:01Z</time>
      </trkpt>
      <trkpt lat="47.89933" lon="6.91728">
        <ele>1169.9</ele>
        <time>2022-08-29T07:36:02Z</time>
      </trkpt>
      <trkpt lat="47.89933" lon="6.91729">
        <ele>1170</ele>
        <time>2022-08-29T07:36:03Z</time>
      </trkpt>
      <trkpt lat="47.89934" lon="6.9173">
        <ele>1170.2</ele>
        <time>2022-08-29T07:36:04Z</time>
      </trkpt>
      <trkpt lat="47.89935" lon="6.9173">
        <ele>1170.1</ele>
        <time>2022-08-29T07:36:05Z</time>
      </trkpt>
      <trkpt lat="47.89936" lon="6.91731">
        <ele>1170.2</ele>
        <time>2022-08-29T07:36:06Z</time>
      </trkpt>
      <trkpt lat="47.89937" lon="6.91731">
        <ele>1170.1</ele>
        <time>2022-08-29T07:36:07Z</time>
      </trkpt>
      <trkpt lat="47.89938" lon="6.91732">
        <ele>1170.2</ele>
        <time>2022-08-29T07:36:08Z</time>
      </trkpt>
      <trkpt lat="47.89938" lon="6.91733">
        <ele>1170.4</ele>
        <time>2022-08-29T07:36:09Z</time>
      </trkpt>
      <trkpt lat="47.89939" lon="6.91733">
        <ele>1170.3</ele>
        <time>2022-08-29T07:36:10Z</time>
      </trkpt>
      <trkpt lat="47.8994" lon="6.91734">
        <ele>1170.4</ele>
        <time>2022-08-29T07:36:11Z</time>
      </trkpt>
      <trkpt lat="47.89941" lon="6.91735">
        <ele>1170.5</ele>
        <time>2022-08-29T07:36:12Z</time>
      </trkpt>
      <trkpt lat="47.89942" lon="6.91735">
        <ele>1170.5</ele>
        <time>2022-08-29T07:36:13Z</time>
      </trkpt>
      <trkpt lat="47.89943" lon="6.91736">
        <ele>1170.6</ele>
        <time>2022-08-29T07:36:14Z</time>
      </trkpt>
      <trkpt lat="47.89944" lon="6.91737">
        <ele>1170.7</ele>
        <time>2022-08-29T07:36:15Z</time>
      </trkpt>
      <trkpt lat="47.89945" lon="6.91737">
        <ele>1170.7</ele>
        <time>2022-08-29T07:36:16Z</time>
      </trkpt>
      <trkpt lat="47.89945" lon="6.91738">
        <ele>1170.8</ele>
        <time>2022-08-29T07:36:17Z</time>
      </trkpt>
      <trkpt lat="47.89946" lon="6.91739">
        <ele>1171</ele>
        <time>2022-08-29T07:36:18Z</time>
      </trkpt>
      <trkpt lat="47.89946" lon="6.9174">
        <ele>1171.2</ele>
        <time>2022-08-29T07:36:19Z</time>
      </trkpt>
      <trkpt lat="47.89947" lon="6.91741">
        <ele>1171.4</ele>
        <time>2022-08-29T07:36:20Z</time>
      </trkpt>
      <trkpt lat="47.89948" lon="6.91742">
        <ele>1171.6</ele>
        <time>2022-08-29T07:36:21Z</time>
      </trkpt>
      <trkpt lat="47.89949" lon="6.91742">
        <ele>1171.6</ele>
        <time>2022-08-29T07:36:22Z</time>
      </trkpt>
      <trkpt lat="47.8995" lon="6.91743">
        <ele>1171.8</ele>
        <time>2022-08-29T07:36:23Z</time>
      </trkpt>
      <trkpt lat="47.89951" lon="6.91743">
        <ele>1171.8</ele>
        <time>2022-08-29T07:36:24Z</time>
      </trkpt>
      <trkpt lat="47.89952" lon="6.91744">
        <ele>1172</ele>
        <time>2022-08-29T07:36:25Z</time>
      </trkpt>
      <trkpt lat="47.89952" lon="6.91745">
        <ele>1172.1</ele>
        <time>2022-08-29T07:36:26Z</time>
      </trkpt>
      <trkpt lat="47.89953" lon="6.91745">
        <ele>1172.2</ele>
        <time>2022-08-29T07:36:27Z</time>
      </trkpt>
      <trkpt lat="47.89954" lon="6.91746">
        <ele>1172.3</ele>
        <time>2022-08-29T07:36:28Z</time>
      </trkpt>
      <trkpt lat="47.89955" lon="6.91747">
        <ele>1172.5</ele>
        <time>2022-08-29T07:36:29Z</time>
      </trkpt>
      <trkpt lat="47.89955" lon="6.91748">
        <ele>1172.7</ele>
        <time>2022-08-29T07:36:30Z</time>
      </trkpt>
      <trkpt lat="47.89956" lon="6.91749">
        <ele>1172.8</ele>
        <time>2022-08-29T07:36:31Z</time>
      </trkpt>
      <trkpt lat="47.89957" lon="6.9175">
        <ele>1173</ele>
        <time>2022-08-29T07:36:32Z</time>
      </trkpt>
      <trkpt lat="47.89957" lon="6.91751">
        <ele>1173.1</ele>
        <time>2022-08-29T07:36:33Z</time>
      </trkpt>
      <trkpt lat="47.89958" lon="6.91752">
        <ele>1173.1</ele>
        <time>2022-08-29T07:36:34Z</time>
      </trkpt>
      <trkpt lat="47.89958" lon="6.91753">
        <ele>1173.2</ele>
        <time>2022-08-29T07:36:35Z</time>
      </trkpt>
      <trkpt lat="47.89959" lon="6.91753">
        <ele>1173.2</ele>
        <time>2022-08-29T07:36:36Z</time>
      </trkpt>
      <trkpt lat="47.8996" lon="6.91754">
        <ele>1173.2</ele>
        <time>2022-08-29T07:36:37Z</time>
      </trkpt>
      <trkpt lat="47.89961" lon="6.91755">
        <ele>1173.3</ele>
        <time>2022-08-29T07:36:38Z</time>
      </trkpt>
      <trkpt lat="47.89962" lon="6.91755">
        <ele>1173.2</ele>
        <time>2022-08-29T07:36:39Z</time>
      </trkpt>
      <trkpt lat="47.89963" lon="6.91756">
        <ele>1173.3</ele>
        <time>2022-08-29T07:36:40Z</time>
      </trkpt>
      <trkpt lat="47.89964" lon="6.91757">
        <ele>1173.3</ele>
        <time>2022-08-29T07:36:42Z</time>
      </trkpt>
      <trkpt lat="47.89965" lon="6.91757">
        <ele>1173.3</ele>
        <time>2022-08-29T07:36:43Z</time>
      </trkpt>
      <trkpt lat="47.89966" lon="6.91758">
        <ele>1173.4</ele>
        <time>2022-08-29T07:36:44Z</time>
      </trkpt>
      <trkpt lat="47.89967" lon="6.91758">
        <ele>1173.3</ele>
        <time>2022-08-29T07:36:45Z</time>
      </trkpt>
      <trkpt lat="47.89967" lon="6.91759">
        <ele>1173.4</ele>
        <time>2022-08-29T07:36:46Z</time>
      </trkpt>
      <trkpt lat="47.89968" lon="6.91759">
        <ele>1173.4</ele>
        <time>2022-08-29T07:36:47Z</time>
      </trkpt>
      <trkpt lat="47.89969" lon="6.91759">
        <ele>1173.4</ele>
        <time>2022-08-29T07:36:48Z</time>
      </trkpt>
      <trkpt lat="47.8997" lon="6.91759">
        <ele>1173.3</ele>
        <time>2022-08-29T07:36:50Z</time>
      </trkpt>
      <trkpt lat="47.8997" lon="6.9176">
        <ele>1173.4</ele>
        <time>2022-08-29T07:36:51Z</time>
      </trkpt>
      <trkpt lat="47.89971" lon="6.9176">
        <ele>1173.4</ele>
        <time>2022-08-29T07:36:52Z</time>
      </trkpt>
      <trkpt lat="47.89971" lon="6.91761">
        <ele>1173.4</ele>
        <time>2022-08-29T07:36:53Z</time>
      </trkpt>
      <trkpt lat="47.89971" lon="6.91763">
        <ele>1173.5</ele>
        <time>2022-08-29T07:37:31Z</time>
      </trkpt>
      <trkpt lat="47.89971" lon="6.91764">
        <ele>1173.5</ele>
        <time>2022-08-29T07:37:33Z</time>
      </trkpt>
      <trkpt lat="47.89972" lon="6.91764">
        <ele>1173.5</ele>
        <time>2022-08-29T07:37:36Z</time>
      </trkpt>
      <trkpt lat="47.89973" lon="6.91764">
        <ele>1173.6</ele>
        <time>2022-08-29T07:37:37Z</time>
      </trkpt>
      <trkpt lat="47.89974" lon="6.91764">
        <ele>1173.7</ele>
        <time>2022-08-29T07:37:38Z</time>
      </trkpt>
      <trkpt lat="47.89975" lon="6.91763">
        <ele>1173.7</ele>
        <time>2022-08-29T07:37:39Z</time>
      </trkpt>
      <trkpt lat="47.89976" lon="6.91763">
        <ele>1173.8</ele>
        <time>2022-08-29T07:37:46Z</time>
      </trkpt>
      <trkpt lat="47.89977" lon="6.91763">
        <ele>1173.9</ele>
        <time>2022-08-29T07:37:48Z</time>
      </trkpt>
      <trkpt lat="47.89978" lon="6.91763">
        <ele>1174</ele>
        <time>2022-08-29T07:37:49Z</time>
      </trkpt>
      <trkpt lat="47.89979" lon="6.91763">
        <ele>1174.1</ele>
        <time>2022-08-29T07:37:50Z</time>
      </trkpt>
      <trkpt lat="47.8998" lon="6.91763">
        <ele>1174.2</ele>
        <time>2022-08-29T07:37:52Z</time>
      </trkpt>
      <trkpt lat="47.89981" lon="6.91763">
        <ele>1174.2</ele>
        <time>2022-08-29T07:37:53Z</time>
      </trkpt>
      <trkpt lat="47.89982" lon="6.91763">
        <ele>1174.3</ele>
        <time>2022-08-29T07:37:54Z</time>
      </trkpt>
      <trkpt lat="47.89983" lon="6.91763">
        <ele>1174.4</ele>
        <time>2022-08-29T07:37:55Z</time>
      </trkpt>
      <trkpt lat="47.89984" lon="6.91763">
        <ele>1174.5</ele>
        <time>2022-08-29T07:37:56Z</time>
      </trkpt>
      <trkpt lat="47.89985" lon="6.91763">
        <ele>1174.6</ele>
        <time>2022-08-29T07:37:57Z</time>
      </trkpt>
      <trkpt lat="47.89986" lon="6.91763">
        <ele>1174.7</ele>
        <time>2022-08-29T07:37:58Z</time>
      </trkpt>
      <trkpt lat="47.89987" lon="6.91763">
        <ele>1174.8</ele>
        <time>2022-08-29T07:37:59Z</time>
      </trkpt>
      <trkpt lat="47.89988" lon="6.91763">
        <ele>1174.9</ele>
        <time>2022-08-29T07:38:00Z</time>
      </trkpt>
      <trkpt lat="47.89989" lon="6.91763">
        <ele>1175</ele>
        <time>2022-08-29T07:38:01Z</time>
      </trkpt>
      <trkpt lat="47.8999" lon="6.91763">
        <ele>1175</ele>
        <time>2022-08-29T07:38:02Z</time>
      </trkpt>
      <trkpt lat="47.89991" lon="6.91763">
        <ele>1175.1</ele>
        <time>2022-08-29T07:38:03Z</time>
      </trkpt>
      <trkpt lat="47.89992" lon="6.91763">
        <ele>1175.2</ele>
        <time>2022-08-29T07:38:04Z</time>
      </trkpt>
      <trkpt lat="47.89993" lon="6.91763">
        <ele>1175.3</ele>
        <time>2022-08-29T07:38:05Z</time>
      </trkpt>
      <trkpt lat="47.89994" lon="6.91763">
        <ele>1175.4</ele>
        <time>2022-08-29T07:38:06Z</time>
      </trkpt>
      <trkpt lat="47.89995" lon="6.91763">
        <ele>1175.5</ele>
        <time>2022-08-29T07:38:07Z</time>
      </trkpt>
      <trkpt lat="47.89996" lon="6.91763">
        <ele>1175.6</ele>
        <time>2022-08-29T07:38:08Z</time>
      </trkpt>
      <trkpt lat="47.89997" lon="6.91763">
        <ele>1175.7</ele>
        <time>2022-08-29T07:38:09Z</time>
      </trkpt>
      <trkpt lat="47.89998" lon="6.91763">
        <ele>1175.8</ele>
        <time>2022-08-29T07:38:10Z</time>
      </trkpt>
      <trkpt lat="47.89999" lon="6.91762">
        <ele>1175.8</ele>
        <time>2022-08-29T07:38:11Z</time>
      </trkpt>
      <trkpt lat="47.9" lon="6.91762">
        <ele>1175.9</ele>
        <time>2022-08-29T07:38:12Z</time>
      </trkpt>
      <trkpt lat="47.90001" lon="6.91762">
        <ele>1176</ele>
        <time>2022-08-29T07:38:13Z</time>
      </trkpt>
      <trkpt lat="47.90002" lon="6.91762">
        <ele>1176.1</ele>
        <time>2022-08-29T07:38:14Z</time>
      </trkpt>
      <trkpt lat="47.90003" lon="6.91762">
        <ele>1176.2</ele>
        <time>2022-08-29T07:38:15Z</time>
      </trkpt>
      <trkpt lat="47.90004" lon="6.91762">
        <ele>1176.3</ele>
        <time>2022-08-29T07:38:16Z</time>
      </trkpt>
      <trkpt lat="47.90005" lon="6.91762">
        <ele>1176.4</ele>
        <time>2022-08-29T07:38:17Z</time>
      </trkpt>
      <trkpt lat="47.90006" lon="6.91762">
        <ele>1176.5</ele>
        <time>2022-08-29T07:38:18Z</time>
      </trkpt>
      <trkpt lat="47.90007" lon="6.91762">
        <ele>1176.7</ele>
        <time>2022-08-29T07:38:19Z</time>
      </trkpt>
      <trkpt lat="47.90008" lon="6.91762">
        <ele>1176.8</ele>
        <time>2022-08-29T07:38:20Z</time>
      </trkpt>
      <trkpt lat="47.90009" lon="6.91761">
        <ele>1176.8</ele>
        <time>2022-08-29T07:38:22Z</time>
      </trkpt>
      <trkpt lat="47.9001" lon="6.91761">
        <ele>1176.9</ele>
        <time>2022-08-29T07:38:23Z</time>
      </trkpt>
      <trkpt lat="47.90011" lon="6.91761">
        <ele>1177.1</ele>
        <time>2022-08-29T07:38:24Z</time>
      </trkpt>
      <trkpt lat="47.90012" lon="6.91761">
        <ele>1177.2</ele>
        <time>2022-08-29T07:38:25Z</time>
      </trkpt>
      <trkpt lat="47.90013" lon="6.91761">
        <ele>1177.3</ele>
        <time>2022-08-29T07:38:26Z</time>
      </trkpt>
      <trkpt lat="47.90014" lon="6.91761">
        <ele>1177.4</ele>
        <time>2022-08-29T07:38:27Z</time>
      </trkpt>
      <trkpt lat="47.90015" lon="6.91761">
        <ele>1177.5</ele>
        <time>2022-08-29T07:38:28Z</time>
      </trkpt>
      <trkpt lat="47.90016" lon="6.9176">
        <ele>1177.6</ele>
        <time>2022-08-29T07:38:29Z</time>
      </trkpt>
      <trkpt lat="47.90017" lon="6.9176">
        <ele>1177.7</ele>
        <time>2022-08-29T07:38:30Z</time>
      </trkpt>
      <trkpt lat="47.90018" lon="6.9176">
        <ele>1177.8</ele>
        <time>2022-08-29T07:38:31Z</time>
      </trkpt>
      <trkpt lat="47.90019" lon="6.9176">
        <ele>1178</ele>
        <time>2022-08-29T07:38:32Z</time>
      </trkpt>
      <trkpt lat="47.9002" lon="6.9176">
        <ele>1178.1</ele>
        <time>2022-08-29T07:38:50Z</time>
      </trkpt>
      <trkpt lat="47.90021" lon="6.91759">
        <ele>1178.2</ele>
        <time>2022-08-29T07:38:51Z</time>
      </trkpt>
      <trkpt lat="47.90022" lon="6.91759">
        <ele>1178.3</ele>
        <time>2022-08-29T07:38:52Z</time>
      </trkpt>
      <trkpt lat="47.90023" lon="6.91759">
        <ele>1178.4</ele>
        <time>2022-08-29T07:38:54Z</time>
      </trkpt>
      <trkpt lat="47.90024" lon="6.91758">
        <ele>1178.5</ele>
        <time>2022-08-29T07:39:20Z</time>
      </trkpt>
      <trkpt lat="47.90025" lon="6.91758">
        <ele>1178.7</ele>
        <time>2022-08-29T07:39:22Z</time>
      </trkpt>
      <trkpt lat="47.90026" lon="6.91758">
        <ele>1178.8</ele>
        <time>2022-08-29T07:39:23Z</time>
      </trkpt>
      <trkpt lat="47.90027" lon="6.91758">
        <ele>1178.9</ele>
        <time>2022-08-29T07:39:25Z</time>
      </trkpt>
      <trkpt lat="47.90028" lon="6.91758">
        <ele>1179</ele>
        <time>2022-08-29T07:39:26Z</time>
      </trkpt>
      <trkpt lat="47.90029" lon="6.91758">
        <ele>1179.1</ele>
        <time>2022-08-29T07:39:27Z</time>
      </trkpt>
      <trkpt lat="47.9003" lon="6.91758">
        <ele>1179.2</ele>
        <time>2022-08-29T07:39:28Z</time>
      </trkpt>
      <trkpt lat="47.90031" lon="6.91758">
        <ele>1179.3</ele>
        <time>2022-08-29T07:39:29Z</time>
      </trkpt>
      <trkpt lat="47.90032" lon="6.91758">
        <ele>1179.5</ele>
        <time>2022-08-29T07:39:30Z</time>
      </trkpt>
      <trkpt lat="47.90033" lon="6.91758">
        <ele>1179.6</ele>
        <time>2022-08-29T07:39:31Z</time>
      </trkpt>
      <trkpt lat="47.90034" lon="6.91758">
        <ele>1179.7</ele>
        <time>2022-08-29T07:39:32Z</time>
      </trkpt>
      <trkpt lat="47.90035" lon="6.91758">
        <ele>1179.8</ele>
        <time>2022-08-29T07:39:33Z</time>
      </trkpt>
      <trkpt lat="47.90036" lon="6.91758">
        <ele>1179.9</ele>
        <time>2022-08-29T07:39:34Z</time>
      </trkpt>
      <trkpt lat="47.90037" lon="6.91758">
        <ele>1180</ele>
        <time>2022-08-29T07:39:35Z</time>
      </trkpt>
      <trkpt lat="47.90038" lon="6.91758">
        <ele>1180.1</ele>
        <time>2022-08-29T07:39:36Z</time>
      </trkpt>
      <trkpt lat="47.90039" lon="6.91758">
        <ele>1180.2</ele>
        <time>2022-08-29T07:39:37Z</time>
      </trkpt>
      <trkpt lat="47.9004" lon="6.91758">
        <ele>1180.3</ele>
        <time>2022-08-29T07:39:38Z</time>
      </trkpt>
      <trkpt lat="47.90041" lon="6.91758">
        <ele>1180.4</ele>
        <time>2022-08-29T07:39:39Z</time>
      </trkpt>
      <trkpt lat="47.90042" lon="6.91758">
        <ele>1180.5</ele>
        <time>2022-08-29T07:39:40Z</time>
      </trkpt>
      <trkpt lat="47.90043" lon="6.91758">
        <ele>1180.6</ele>
        <time>2022-08-29T07:39:41Z</time>
      </trkpt>
      <trkpt lat="47.90044" lon="6.91758">
        <ele>1180.8</ele>
        <time>2022-08-29T07:39:42Z</time>
      </trkpt>
      <trkpt lat="47.90045" lon="6.91758">
        <ele>1180.9</ele>
        <time>2022-08-29T07:39:43Z</time>
      </trkpt>
      <trkpt lat="47.90046" lon="6.91758">
        <ele>1181</ele>
        <time>2022-08-29T07:39:44Z</time>
      </trkpt>
      <trkpt lat="47.90047" lon="6.91758">
        <ele>1181.1</ele>
        <time>2022-08-29T07:39:45Z</time>
      </trkpt>
      <trkpt lat="47.90048" lon="6.91758">
        <ele>1181.2</ele>
        <time>2022-08-29T07:39:47Z</time>
      </trkpt>
      <trkpt lat="47.9005" lon="6.91758">
        <ele>1181.4</ele>
        <time>2022-08-29T07:39:48Z</time>
      </trkpt>
      <trkpt lat="47.90051" lon="6.91758">
        <ele>1181.5</ele>
        <time>2022-08-29T07:39:49Z</time>
      </trkpt>
      <trkpt lat="47.90052" lon="6.91758">
        <ele>1181.6</ele>
        <time>2022-08-29T07:39:50Z</time>
      </trkpt>
      <trkpt lat="47.90053" lon="6.91758">
        <ele>1181.7</ele>
        <time>2022-08-29T07:39:51Z</time>
      </trkpt>
      <trkpt lat="47.90054" lon="6.91758">
        <ele>1181.8</ele>
        <time>2022-08-29T07:39:52Z</time>
      </trkpt>
      <trkpt lat="47.90055" lon="6.91758">
        <ele>1181.9</ele>
        <time>2022-08-29T07:39:53Z</time>
      </trkpt>
      <trkpt lat="47.90056" lon="6.91758">
        <ele>1182</ele>
        <time>2022-08-29T07:39:54Z</time>
      </trkpt>
      <trkpt lat="47.90057" lon="6.91758">
        <ele>1182.1</ele>
        <time>2022-08-29T07:39:55Z</time>
      </trkpt>
      <trkpt lat="47.90058" lon="6.91758">
        <ele>1182.2</ele>
        <time>2022-08-29T07:39:56Z</time>
      </trkpt>
      <trkpt lat="47.90059" lon="6.91758">
        <ele>1182.3</ele>
        <time>2022-08-29T07:39:57Z</time>
      </trkpt>
      <trkpt lat="47.9006" lon="6.91758">
        <ele>1182.4</ele>
        <time>2022-08-29T07:39:58Z</time>
      </trkpt>
      <trkpt lat="47.90061" lon="6.91758">
        <ele>1182.4</ele>
        <time>2022-08-29T07:39:59Z</time>
      </trkpt>
      <trkpt lat="47.90062" lon="6.91758">
        <ele>1182.5</ele>
        <time>2022-08-29T07:40:00Z</time>
      </trkpt>
      <trkpt lat="47.90063" lon="6.91759">
        <ele>1182.6</ele>
        <time>2022-08-29T07:40:01Z</time>
      </trkpt>
      <trkpt lat="47.90064" lon="6.91759">
        <ele>1182.7</ele>
        <time>2022-08-29T07:40:02Z</time>
      </trkpt>
      <trkpt lat="47.90065" lon="6.91759">
        <ele>1182.8</ele>
        <time>2022-08-29T07:40:03Z</time>
      </trkpt>
      <trkpt lat="47.90066" lon="6.91759">
        <ele>1182.9</ele>
        <time>2022-08-29T07:40:04Z</time>
      </trkpt>
      <trkpt lat="47.90067" lon="6.91759">
        <ele>1183</ele>
        <time>2022-08-29T07:40:05Z</time>
      </trkpt>
      <trkpt lat="47.90068" lon="6.91759">
        <ele>1183</ele>
        <time>2022-08-29T07:40:06Z</time>
      </trkpt>
      <trkpt lat="47.90069" lon="6.91759">
        <ele>1183.1</ele>
        <time>2022-08-29T07:40:07Z</time>
      </trkpt>
      <trkpt lat="47.9007" lon="6.91758">
        <ele>1183.2</ele>
        <time>2022-08-29T07:40:08Z</time>
      </trkpt>
      <trkpt lat="47.90071" lon="6.91758">
        <ele>1183.3</ele>
        <time>2022-08-29T07:40:09Z</time>
      </trkpt>
      <trkpt lat="47.90072" lon="6.91758">
        <ele>1183.4</ele>
        <time>2022-08-29T07:40:10Z</time>
      </trkpt>
      <trkpt lat="47.90073" lon="6.91758">
        <ele>1183.4</ele>
        <time>2022-08-29T07:40:11Z</time>
      </trkpt>
      <trkpt lat="47.90074" lon="6.91759">
        <ele>1183.5</ele>
        <time>2022-08-29T07:40:12Z</time>
      </trkpt>
      <trkpt lat="47.90075" lon="6.91758">
        <ele>1183.6</ele>
        <time>2022-08-29T07:40:13Z</time>
      </trkpt>
      <trkpt lat="47.90076" lon="6.91758">
        <ele>1183.7</ele>
        <time>2022-08-29T07:40:14Z</time>
      </trkpt>
      <trkpt lat="47.90077" lon="6.91758">
        <ele>1183.8</ele>
        <time>2022-08-29T07:40:15Z</time>
      </trkpt>
      <trkpt lat="47.90078" lon="6.91758">
        <ele>1183.8</ele>
        <time>2022-08-29T07:40:16Z</time>
      </trkpt>
      <trkpt lat="47.9008" lon="6.91758">
        <ele>1184</ele>
        <time>2022-08-29T07:40:17Z</time>
      </trkpt>
      <trkpt lat="47.90081" lon="6.91758">
        <ele>1184.1</ele>
        <time>2022-08-29T07:40:18Z</time>
      </trkpt>
      <trkpt lat="47.90082" lon="6.91758">
        <ele>1184.2</ele>
        <time>2022-08-29T07:40:19Z</time>
      </trkpt>
      <trkpt lat="47.90083" lon="6.91757">
        <ele>1184.2</ele>
        <time>2022-08-29T07:40:20Z</time>
      </trkpt>
      <trkpt lat="47.90084" lon="6.91757">
        <ele>1184.2</ele>
        <time>2022-08-29T07:40:21Z</time>
      </trkpt>
      <trkpt lat="47.90085" lon="6.91757">
        <ele>1184.1</ele>
        <time>2022-08-29T07:40:22Z</time>
      </trkpt>
      <trkpt lat="47.90086" lon="6.91757">
        <ele>1184</ele>
        <time>2022-08-29T07:40:23Z</time>
      </trkpt>
      <trkpt lat="47.90087" lon="6.91757">
        <ele>1183.9</ele>
        <time>2022-08-29T07:40:24Z</time>
      </trkpt>
      <trkpt lat="47.90088" lon="6.91757">
        <ele>1183.7</ele>
        <time>2022-08-29T07:40:25Z</time>
      </trkpt>
      <trkpt lat="47.90089" lon="6.91756">
        <ele>1183.7</ele>
        <time>2022-08-29T07:40:26Z</time>
      </trkpt>
      <trkpt lat="47.9009" lon="6.91756">
        <ele>1183.6</ele>
        <time>2022-08-29T07:40:27Z</time>
      </trkpt>
      <trkpt lat="47.90091" lon="6.91755">
        <ele>1183.6</ele>
        <time>2022-08-29T07:40:29Z</time>
      </trkpt>
      <trkpt lat="47.90092" lon="6.91755">
        <ele>1183.5</ele>
        <time>2022-08-29T07:40:30Z</time>
      </trkpt>
      <trkpt lat="47.90093" lon="6.91754">
        <ele>1183.5</ele>
        <time>2022-08-29T07:40:31Z</time>
      </trkpt>
      <trkpt lat="47.90094" lon="6.91753">
        <ele>1183.6</ele>
        <time>2022-08-29T07:40:32Z</time>
      </trkpt>
      <trkpt lat="47.90095" lon="6.91752">
        <ele>1183.7</ele>
        <time>2022-08-29T07:40:33Z</time>
      </trkpt>
      <trkpt lat="47.90095" lon="6.91751">
        <ele>1183.9</ele>
        <time>2022-08-29T07:40:34Z</time>
      </trkpt>
      <trkpt lat="47.90096" lon="6.91751">
        <ele>1183.8</ele>
        <time>2022-08-29T07:40:35Z</time>
      </trkpt>
      <trkpt lat="47.90097" lon="6.9175">
        <ele>1184</ele>
        <time>2022-08-29T07:40:36Z</time>
      </trkpt>
      <trkpt lat="47.90097" lon="6.91749">
        <ele>1184</ele>
        <time>2022-08-29T07:40:37Z</time>
      </trkpt>
      <trkpt lat="47.90098" lon="6.91748">
        <ele>1184</ele>
        <time>2022-08-29T07:40:38Z</time>
      </trkpt>
      <trkpt lat="47.90099" lon="6.91747">
        <ele>1184</ele>
        <time>2022-08-29T07:40:39Z</time>
      </trkpt>
      <trkpt lat="47.90099" lon="6.91746">
        <ele>1184</ele>
        <time>2022-08-29T07:40:40Z</time>
      </trkpt>
      <trkpt lat="47.901" lon="6.91745">
        <ele>1184</ele>
        <time>2022-08-29T07:40:41Z</time>
      </trkpt>
      <trkpt lat="47.90101" lon="6.91744">
        <ele>1184</ele>
        <time>2022-08-29T07:40:42Z</time>
      </trkpt>
      <trkpt lat="47.90101" lon="6.91743">
        <ele>1184</ele>
        <time>2022-08-29T07:40:43Z</time>
      </trkpt>
      <trkpt lat="47.90102" lon="6.91742">
        <ele>1184</ele>
        <time>2022-08-29T07:40:44Z</time>
      </trkpt>
      <trkpt lat="47.90103" lon="6.91741">
        <ele>1184</ele>
        <time>2022-08-29T07:40:45Z</time>
      </trkpt>
      <trkpt lat="47.90103" lon="6.9174">
        <ele>1184</ele>
        <time>2022-08-29T07:40:46Z</time>
      </trkpt>
      <trkpt lat="47.90104" lon="6.91739">
        <ele>1184.1</ele>
        <time>2022-08-29T07:40:47Z</time>
      </trkpt>
      <trkpt lat="47.90105" lon="6.91738">
        <ele>1184.1</ele>
        <time>2022-08-29T07:40:48Z</time>
      </trkpt>
      <trkpt lat="47.90105" lon="6.91737">
        <ele>1184.2</ele>
        <time>2022-08-29T07:40:49Z</time>
      </trkpt>
      <trkpt lat="47.90106" lon="6.91736">
        <ele>1184.2</ele>
        <time>2022-08-29T07:40:50Z</time>
      </trkpt>
      <trkpt lat="47.90107" lon="6.91735">
        <ele>1184.3</ele>
        <time>2022-08-29T07:40:51Z</time>
      </trkpt>
      <trkpt lat="47.90108" lon="6.91734">
        <ele>1184.4</ele>
        <time>2022-08-29T07:40:52Z</time>
      </trkpt>
      <trkpt lat="47.90108" lon="6.91733">
        <ele>1184.4</ele>
        <time>2022-08-29T07:40:53Z</time>
      </trkpt>
      <trkpt lat="47.90109" lon="6.91732">
        <ele>1184.5</ele>
        <time>2022-08-29T07:40:54Z</time>
      </trkpt>
      <trkpt lat="47.9011" lon="6.91731">
        <ele>1184.6</ele>
        <time>2022-08-29T07:40:55Z</time>
      </trkpt>
      <trkpt lat="47.90111" lon="6.9173">
        <ele>1184.7</ele>
        <time>2022-08-29T07:40:56Z</time>
      </trkpt>
      <trkpt lat="47.90112" lon="6.91729">
        <ele>1184.7</ele>
        <time>2022-08-29T07:40:58Z</time>
      </trkpt>
      <trkpt lat="47.90113" lon="6.91728">
        <ele>1184.7</ele>
        <time>2022-08-29T07:40:59Z</time>
      </trkpt>
      <trkpt lat="47.90114" lon="6.91727">
        <ele>1184.8</ele>
        <time>2022-08-29T07:41:00Z</time>
      </trkpt>
      <trkpt lat="47.90114" lon="6.91726">
        <ele>1184.8</ele>
        <time>2022-08-29T07:41:01Z</time>
      </trkpt>
      <trkpt lat="47.90115" lon="6.91725">
        <ele>1184.9</ele>
        <time>2022-08-29T07:41:02Z</time>
      </trkpt>
      <trkpt lat="47.90116" lon="6.91724">
        <ele>1185</ele>
        <time>2022-08-29T07:41:03Z</time>
      </trkpt>
      <trkpt lat="47.90116" lon="6.91723">
        <ele>1185.1</ele>
        <time>2022-08-29T07:41:04Z</time>
      </trkpt>
      <trkpt lat="47.90117" lon="6.91723">
        <ele>1185.1</ele>
        <time>2022-08-29T07:41:05Z</time>
      </trkpt>
      <trkpt lat="47.90118" lon="6.91722">
        <ele>1185.2</ele>
        <time>2022-08-29T07:41:06Z</time>
      </trkpt>
      <trkpt lat="47.90119" lon="6.9172">
        <ele>1185.2</ele>
        <time>2022-08-29T07:41:07Z</time>
      </trkpt>
      <trkpt lat="47.90119" lon="6.91719">
        <ele>1185.2</ele>
        <time>2022-08-29T07:41:08Z</time>
      </trkpt>
      <trkpt lat="47.9012" lon="6.91718">
        <ele>1185.2</ele>
        <time>2022-08-29T07:41:09Z</time>
      </trkpt>
      <trkpt lat="47.90121" lon="6.91717">
        <ele>1185.2</ele>
        <time>2022-08-29T07:41:10Z</time>
      </trkpt>
      <trkpt lat="47.90122" lon="6.91716">
        <ele>1185.2</ele>
        <time>2022-08-29T07:41:11Z</time>
      </trkpt>
      <trkpt lat="47.90123" lon="6.91715">
        <ele>1185.2</ele>
        <time>2022-08-29T07:41:12Z</time>
      </trkpt>
      <trkpt lat="47.90123" lon="6.91714">
        <ele>1185.2</ele>
        <time>2022-08-29T07:41:13Z</time>
      </trkpt>
      <trkpt lat="47.90124" lon="6.91713">
        <ele>1185.3</ele>
        <time>2022-08-29T07:41:14Z</time>
      </trkpt>
      <trkpt lat="47.90125" lon="6.91712">
        <ele>1185.3</ele>
        <time>2022-08-29T07:41:15Z</time>
      </trkpt>
      <trkpt lat="47.90126" lon="6.91711">
        <ele>1185.4</ele>
        <time>2022-08-29T07:41:16Z</time>
      </trkpt>
      <trkpt lat="47.90126" lon="6.9171">
        <ele>1185.4</ele>
        <time>2022-08-29T07:41:17Z</time>
      </trkpt>
      <trkpt lat="47.90127" lon="6.91709">
        <ele>1185.4</ele>
        <time>2022-08-29T07:41:18Z</time>
      </trkpt>
      <trkpt lat="47.90128" lon="6.91708">
        <ele>1185.5</ele>
        <time>2022-08-29T07:41:19Z</time>
      </trkpt>
      <trkpt lat="47.90129" lon="6.91707">
        <ele>1185.6</ele>
        <time>2022-08-29T07:41:20Z</time>
      </trkpt>
      <trkpt lat="47.9013" lon="6.91706">
        <ele>1185.7</ele>
        <time>2022-08-29T07:41:21Z</time>
      </trkpt>
      <trkpt lat="47.9013" lon="6.91705">
        <ele>1185.7</ele>
        <time>2022-08-29T07:41:22Z</time>
      </trkpt>
      <trkpt lat="47.90131" lon="6.91704">
        <ele>1185.8</ele>
        <time>2022-08-29T07:41:23Z</time>
      </trkpt>
      <trkpt lat="47.90132" lon="6.91704">
        <ele>1185.9</ele>
        <time>2022-08-29T07:41:24Z</time>
      </trkpt>
      <trkpt lat="47.90133" lon="6.91703">
        <ele>1186</ele>
        <time>2022-08-29T07:41:25Z</time>
      </trkpt>
      <trkpt lat="47.90134" lon="6.91702">
        <ele>1186.2</ele>
        <time>2022-08-29T07:41:26Z</time>
      </trkpt>
      <trkpt lat="47.90135" lon="6.91701">
        <ele>1186.3</ele>
        <time>2022-08-29T07:41:27Z</time>
      </trkpt>
      <trkpt lat="47.90135" lon="6.917">
        <ele>1186.3</ele>
        <time>2022-08-29T07:41:28Z</time>
      </trkpt>
      <trkpt lat="47.90136" lon="6.917">
        <ele>1186.4</ele>
        <time>2022-08-29T07:41:29Z</time>
      </trkpt>
      <trkpt lat="47.90137" lon="6.91699">
        <ele>1186.6</ele>
        <time>2022-08-29T07:41:30Z</time>
      </trkpt>
      <trkpt lat="47.90138" lon="6.91698">
        <ele>1186.8</ele>
        <time>2022-08-29T07:41:31Z</time>
      </trkpt>
      <trkpt lat="47.90139" lon="6.91697">
        <ele>1186.9</ele>
        <time>2022-08-29T07:41:32Z</time>
      </trkpt>
      <trkpt lat="47.9014" lon="6.91697">
        <ele>1187.1</ele>
        <time>2022-08-29T07:41:33Z</time>
      </trkpt>
      <trkpt lat="47.90141" lon="6.91696">
        <ele>1187.4</ele>
        <time>2022-08-29T07:41:34Z</time>
      </trkpt>
      <trkpt lat="47.90142" lon="6.91695">
        <ele>1187.6</ele>
        <time>2022-08-29T07:41:36Z</time>
      </trkpt>
      <trkpt lat="47.90143" lon="6.91695">
        <ele>1187.9</ele>
        <time>2022-08-29T07:41:37Z</time>
      </trkpt>
      <trkpt lat="47.90144" lon="6.91695">
        <ele>1188.1</ele>
        <time>2022-08-29T07:41:38Z</time>
      </trkpt>
      <trkpt lat="47.90145" lon="6.91695">
        <ele>1188.3</ele>
        <time>2022-08-29T07:41:39Z</time>
      </trkpt>
      <trkpt lat="47.90145" lon="6.91694">
        <ele>1188.3</ele>
        <time>2022-08-29T07:41:40Z</time>
      </trkpt>
      <trkpt lat="47.90146" lon="6.91694">
        <ele>1188.5</ele>
        <time>2022-08-29T07:41:41Z</time>
      </trkpt>
      <trkpt lat="47.90147" lon="6.91694">
        <ele>1188.7</ele>
        <time>2022-08-29T07:41:42Z</time>
      </trkpt>
      <trkpt lat="47.90148" lon="6.91693">
        <ele>1188.9</ele>
        <time>2022-08-29T07:41:43Z</time>
      </trkpt>
      <trkpt lat="47.90149" lon="6.91693">
        <ele>1189.2</ele>
        <time>2022-08-29T07:41:45Z</time>
      </trkpt>
      <trkpt lat="47.9015" lon="6.91692">
        <ele>1189.3</ele>
        <time>2022-08-29T07:41:46Z</time>
      </trkpt>
      <trkpt lat="47.90151" lon="6.91692">
        <ele>1189.6</ele>
        <time>2022-08-29T07:41:47Z</time>
      </trkpt>
      <trkpt lat="47.90152" lon="6.91692">
        <ele>1189.8</ele>
        <time>2022-08-29T07:41:49Z</time>
      </trkpt>
      <trkpt lat="47.90153" lon="6.91691">
        <ele>1190</ele>
        <time>2022-08-29T07:41:50Z</time>
      </trkpt>
      <trkpt lat="47.90154" lon="6.91691">
        <ele>1190.2</ele>
        <time>2022-08-29T07:41:52Z</time>
      </trkpt>
      <trkpt lat="47.90155" lon="6.9169">
        <ele>1190.4</ele>
        <time>2022-08-29T07:41:53Z</time>
      </trkpt>
      <trkpt lat="47.90156" lon="6.9169">
        <ele>1190.6</ele>
        <time>2022-08-29T07:41:54Z</time>
      </trkpt>
      <trkpt lat="47.90156" lon="6.91689">
        <ele>1190.6</ele>
        <time>2022-08-29T07:41:55Z</time>
      </trkpt>
      <trkpt lat="47.90157" lon="6.91689">
        <ele>1190.8</ele>
        <time>2022-08-29T07:41:56Z</time>
      </trkpt>
      <trkpt lat="47.90158" lon="6.91689">
        <ele>1191.1</ele>
        <time>2022-08-29T07:41:57Z</time>
      </trkpt>
      <trkpt lat="47.90158" lon="6.91688">
        <ele>1191.1</ele>
        <time>2022-08-29T07:41:58Z</time>
      </trkpt>
      <trkpt lat="47.90159" lon="6.91688">
        <ele>1191.3</ele>
        <time>2022-08-29T07:41:59Z</time>
      </trkpt>
      <trkpt lat="47.9016" lon="6.91688">
        <ele>1191.5</ele>
        <time>2022-08-29T07:42:00Z</time>
      </trkpt>
      <trkpt lat="47.90161" lon="6.91687">
        <ele>1191.7</ele>
        <time>2022-08-29T07:42:02Z</time>
      </trkpt>
      <trkpt lat="47.90162" lon="6.91687">
        <ele>1191.9</ele>
        <time>2022-08-29T07:42:04Z</time>
      </trkpt>
      <trkpt lat="47.90163" lon="6.91687">
        <ele>1192.2</ele>
        <time>2022-08-29T07:42:06Z</time>
      </trkpt>
      <trkpt lat="47.90164" lon="6.91687">
        <ele>1192.4</ele>
        <time>2022-08-29T07:42:08Z</time>
      </trkpt>
      <trkpt lat="47.90165" lon="6.91686">
        <ele>1192.6</ele>
        <time>2022-08-29T07:42:10Z</time>
      </trkpt>
      <trkpt lat="47.90167" lon="6.91686">
        <ele>1193</ele>
        <time>2022-08-29T07:42:23Z</time>
      </trkpt>
      <trkpt lat="47.90168" lon="6.91686">
        <ele>1193.2</ele>
        <time>2022-08-29T07:42:24Z</time>
      </trkpt>
      <trkpt lat="47.90169" lon="6.91686">
        <ele>1193.3</ele>
        <time>2022-08-29T07:42:26Z</time>
      </trkpt>
      <trkpt lat="47.9017" lon="6.91686">
        <ele>1193.5</ele>
        <time>2022-08-29T07:42:27Z</time>
      </trkpt>
      <trkpt lat="47.9017" lon="6.91685">
        <ele>1193.5</ele>
        <time>2022-08-29T07:42:28Z</time>
      </trkpt>
      <trkpt lat="47.90171" lon="6.91685">
        <ele>1193.6</ele>
        <time>2022-08-29T07:42:29Z</time>
      </trkpt>
      <trkpt lat="47.90172" lon="6.91685">
        <ele>1193.8</ele>
        <time>2022-08-29T07:42:30Z</time>
      </trkpt>
      <trkpt lat="47.90173" lon="6.91685">
        <ele>1193.9</ele>
        <time>2022-08-29T07:42:31Z</time>
      </trkpt>
      <trkpt lat="47.90174" lon="6.91684">
        <ele>1194.1</ele>
        <time>2022-08-29T07:42:33Z</time>
      </trkpt>
      <trkpt lat="47.90175" lon="6.91684">
        <ele>1194.2</ele>
        <time>2022-08-29T07:42:34Z</time>
      </trkpt>
      <trkpt lat="47.90176" lon="6.91684">
        <ele>1194.3</ele>
        <time>2022-08-29T07:42:36Z</time>
      </trkpt>
      <trkpt lat="47.90177" lon="6.91683">
        <ele>1194.5</ele>
        <time>2022-08-29T07:42:37Z</time>
      </trkpt>
      <trkpt lat="47.90178" lon="6.91683">
        <ele>1194.6</ele>
        <time>2022-08-29T07:42:38Z</time>
      </trkpt>
      <trkpt lat="47.90179" lon="6.91683">
        <ele>1194.8</ele>
        <time>2022-08-29T07:42:39Z</time>
      </trkpt>
      <trkpt lat="47.9018" lon="6.91682">
        <ele>1194.9</ele>
        <time>2022-08-29T07:42:40Z</time>
      </trkpt>
      <trkpt lat="47.90181" lon="6.91682">
        <ele>1195.1</ele>
        <time>2022-08-29T07:42:42Z</time>
      </trkpt>
      <trkpt lat="47.90182" lon="6.91681">
        <ele>1195.2</ele>
        <time>2022-08-29T07:42:43Z</time>
      </trkpt>
      <trkpt lat="47.90183" lon="6.91681">
        <ele>1195.4</ele>
        <time>2022-08-29T07:42:44Z</time>
      </trkpt>
      <trkpt lat="47.90184" lon="6.91681">
        <ele>1195.5</ele>
        <time>2022-08-29T07:42:45Z</time>
      </trkpt>
      <trkpt lat="47.90185" lon="6.9168">
        <ele>1195.6</ele>
        <time>2022-08-29T07:42:46Z</time>
      </trkpt>
      <trkpt lat="47.90186" lon="6.9168">
        <ele>1195.8</ele>
        <time>2022-08-29T07:42:47Z</time>
      </trkpt>
      <trkpt lat="47.90187" lon="6.9168">
        <ele>1195.9</ele>
        <time>2022-08-29T07:42:49Z</time>
      </trkpt>
      <trkpt lat="47.90188" lon="6.9168">
        <ele>1196.1</ele>
        <time>2022-08-29T07:42:50Z</time>
      </trkpt>
      <trkpt lat="47.90188" lon="6.91679">
        <ele>1196.1</ele>
        <time>2022-08-29T07:42:51Z</time>
      </trkpt>
      <trkpt lat="47.90189" lon="6.91679">
        <ele>1196.2</ele>
        <time>2022-08-29T07:42:52Z</time>
      </trkpt>
      <trkpt lat="47.9019" lon="6.91679">
        <ele>1196.4</ele>
        <time>2022-08-29T07:42:53Z</time>
      </trkpt>
      <trkpt lat="47.90191" lon="6.91679">
        <ele>1196.5</ele>
        <time>2022-08-29T07:42:54Z</time>
      </trkpt>
      <trkpt lat="47.90192" lon="6.91679">
        <ele>1196.6</ele>
        <time>2022-08-29T07:42:56Z</time>
      </trkpt>
      <trkpt lat="47.90193" lon="6.91678">
        <ele>1196.8</ele>
        <time>2022-08-29T07:42:57Z</time>
      </trkpt>
      <trkpt lat="47.90194" lon="6.91678">
        <ele>1196.9</ele>
        <time>2022-08-29T07:42:58Z</time>
      </trkpt>
      <trkpt lat="47.90195" lon="6.91678">
        <ele>1197</ele>
        <time>2022-08-29T07:43:00Z</time>
      </trkpt>
      <trkpt lat="47.90196" lon="6.91677">
        <ele>1197.1</ele>
        <time>2022-08-29T07:43:01Z</time>
      </trkpt>
      <trkpt lat="47.90197" lon="6.91677">
        <ele>1197.1</ele>
        <time>2022-08-29T07:43:02Z</time>
      </trkpt>
      <trkpt lat="47.90198" lon="6.91677">
        <ele>1197.1</ele>
        <time>2022-08-29T07:43:03Z</time>
      </trkpt>
      <trkpt lat="47.90199" lon="6.91676">
        <ele>1197.2</ele>
        <time>2022-08-29T07:43:05Z</time>
      </trkpt>
      <trkpt lat="47.902" lon="6.91676">
        <ele>1197.2</ele>
        <time>2022-08-29T07:43:06Z</time>
      </trkpt>
      <trkpt lat="47.90201" lon="6.91675">
        <ele>1197.2</ele>
        <time>2022-08-29T07:43:07Z</time>
      </trkpt>
      <trkpt lat="47.90202" lon="6.91675">
        <ele>1197.3</ele>
        <time>2022-08-29T07:43:09Z</time>
      </trkpt>
      <trkpt lat="47.90203" lon="6.91674">
        <ele>1197.3</ele>
        <time>2022-08-29T07:43:10Z</time>
      </trkpt>
      <trkpt lat="47.90204" lon="6.91674">
        <ele>1197.3</ele>
        <time>2022-08-29T07:43:11Z</time>
      </trkpt>
      <trkpt lat="47.90205" lon="6.91674">
        <ele>1197.4</ele>
        <time>2022-08-29T07:43:12Z</time>
      </trkpt>
      <trkpt lat="47.90206" lon="6.91674">
        <ele>1197.4</ele>
        <time>2022-08-29T07:43:13Z</time>
      </trkpt>
      <trkpt lat="47.90207" lon="6.91673">
        <ele>1197.5</ele>
        <time>2022-08-29T07:43:15Z</time>
      </trkpt>
      <trkpt lat="47.90208" lon="6.91673">
        <ele>1197.5</ele>
        <time>2022-08-29T07:43:16Z</time>
      </trkpt>
      <trkpt lat="47.90209" lon="6.91673">
        <ele>1197.5</ele>
        <time>2022-08-29T07:43:17Z</time>
      </trkpt>
      <trkpt lat="47.9021" lon="6.91673">
        <ele>1197.6</ele>
        <time>2022-08-29T07:43:18Z</time>
      </trkpt>
      <trkpt lat="47.90211" lon="6.91673">
        <ele>1197.6</ele>
        <time>2022-08-29T07:43:20Z</time>
      </trkpt>
      <trkpt lat="47.90212" lon="6.91673">
        <ele>1197.6</ele>
        <time>2022-08-29T07:43:21Z</time>
      </trkpt>
      <trkpt lat="47.90213" lon="6.91673">
        <ele>1197.7</ele>
        <time>2022-08-29T07:43:23Z</time>
      </trkpt>
      <trkpt lat="47.90214" lon="6.91673">
        <ele>1197.7</ele>
        <time>2022-08-29T07:43:24Z</time>
      </trkpt>
      <trkpt lat="47.90215" lon="6.91673">
        <ele>1197.7</ele>
        <time>2022-08-29T07:43:26Z</time>
      </trkpt>
      <trkpt lat="47.90215" lon="6.91674">
        <ele>1197.7</ele>
        <time>2022-08-29T07:51:03Z</time>
      </trkpt>
      <trkpt lat="47.90216" lon="6.91675">
        <ele>1197.8</ele>
        <time>2022-08-29T07:51:05Z</time>
      </trkpt>
      <trkpt lat="47.90215" lon="6.91675">
        <ele>1197.7</ele>
        <time>2022-08-29T07:51:06Z</time>
      </trkpt>
      <trkpt lat="47.90214" lon="6.91674">
        <ele>1197.7</ele>
        <time>2022-08-29T07:51:10Z</time>
      </trkpt>
      <trkpt lat="47.90213" lon="6.91673">
        <ele>1197.7</ele>
        <time>2022-08-29T07:51:12Z</time>
      </trkpt>
      <trkpt lat="47.90213" lon="6.91672">
        <ele>1197.7</ele>
        <time>2022-08-29T07:51:13Z</time>
      </trkpt>
      <trkpt lat="47.90213" lon="6.91671">
        <ele>1197.7</ele>
        <time>2022-08-29T07:51:14Z</time>
      </trkpt>
      <trkpt lat="47.90213" lon="6.9167">
        <ele>1197.7</ele>
        <time>2022-08-29T07:51:15Z</time>
      </trkpt>
      <trkpt lat="47.90212" lon="6.91669">
        <ele>1197.6</ele>
        <time>2022-08-29T07:51:16Z</time>
      </trkpt>
      <trkpt lat="47.90212" lon="6.91668">
        <ele>1197.6</ele>
        <time>2022-08-29T07:51:17Z</time>
      </trkpt>
      <trkpt lat="47.90212" lon="6.91667">
        <ele>1197.6</ele>
        <time>2022-08-29T07:51:18Z</time>
      </trkpt>
      <trkpt lat="47.90212" lon="6.91666">
        <ele>1197.5</ele>
        <time>2022-08-29T07:51:20Z</time>
      </trkpt>
      <trkpt lat="47.90211" lon="6.91665">
        <ele>1197.2</ele>
        <time>2022-08-29T07:51:22Z</time>
      </trkpt>
      <trkpt lat="47.90211" lon="6.91664">
        <ele>1197</ele>
        <time>2022-08-29T07:51:24Z</time>
      </trkpt>
      <trkpt lat="47.90211" lon="6.91663">
        <ele>1196.8</ele>
        <time>2022-08-29T07:51:25Z</time>
      </trkpt>
      <trkpt lat="47.90212" lon="6.91663">
        <ele>1196.8</ele>
        <time>2022-08-29T07:51:26Z</time>
      </trkpt>
      <trkpt lat="47.90213" lon="6.91662">
        <ele>1196.5</ele>
        <time>2022-08-29T07:51:35Z</time>
      </trkpt>
      <trkpt lat="47.90213" lon="6.91661">
        <ele>1196.3</ele>
        <time>2022-08-29T07:51:36Z</time>
      </trkpt>
      <trkpt lat="47.90213" lon="6.9166">
        <ele>1196.1</ele>
        <time>2022-08-29T07:51:38Z</time>
      </trkpt>
      <trkpt lat="47.90212" lon="6.9166">
        <ele>1196.1</ele>
        <time>2022-08-29T07:51:39Z</time>
      </trkpt>
      <trkpt lat="47.90212" lon="6.91659">
        <ele>1195.8</ele>
        <time>2022-08-29T07:51:40Z</time>
      </trkpt>
      <trkpt lat="47.90211" lon="6.91658">
        <ele>1195.6</ele>
        <time>2022-08-29T07:51:41Z</time>
      </trkpt>
      <trkpt lat="47.90211" lon="6.91657">
        <ele>1195.4</ele>
        <time>2022-08-29T07:51:42Z</time>
      </trkpt>
      <trkpt lat="47.9021" lon="6.91656">
        <ele>1195.2</ele>
        <time>2022-08-29T07:51:44Z</time>
      </trkpt>
      <trkpt lat="47.9021" lon="6.91655">
        <ele>1194.9</ele>
        <time>2022-08-29T07:51:45Z</time>
      </trkpt>
      <trkpt lat="47.9021" lon="6.91654">
        <ele>1194.7</ele>
        <time>2022-08-29T07:51:46Z</time>
      </trkpt>
      <trkpt lat="47.9021" lon="6.91653">
        <ele>1194.5</ele>
        <time>2022-08-29T07:51:47Z</time>
      </trkpt>
      <trkpt lat="47.90209" lon="6.9165">
        <ele>1193.9</ele>
        <time>2022-08-29T07:52:08Z</time>
      </trkpt>
      <trkpt lat="47.90209" lon="6.91649">
        <ele>1193.6</ele>
        <time>2022-08-29T07:52:09Z</time>
      </trkpt>
      <trkpt lat="47.90209" lon="6.91648">
        <ele>1193.4</ele>
        <time>2022-08-29T07:52:10Z</time>
      </trkpt>
      <trkpt lat="47.90209" lon="6.91647">
        <ele>1193.2</ele>
        <time>2022-08-29T07:52:11Z</time>
      </trkpt>
      <trkpt lat="47.90208" lon="6.91646">
        <ele>1193.1</ele>
        <time>2022-08-29T07:52:12Z</time>
      </trkpt>
      <trkpt lat="47.90208" lon="6.91645">
        <ele>1192.8</ele>
        <time>2022-08-29T07:52:13Z</time>
      </trkpt>
      <trkpt lat="47.90208" lon="6.91644">
        <ele>1192.6</ele>
        <time>2022-08-29T07:52:14Z</time>
      </trkpt>
      <trkpt lat="47.90207" lon="6.91643">
        <ele>1192.5</ele>
        <time>2022-08-29T07:52:15Z</time>
      </trkpt>
      <trkpt lat="47.90207" lon="6.91642">
        <ele>1192.3</ele>
        <time>2022-08-29T07:52:16Z</time>
      </trkpt>
      <trkpt lat="47.90206" lon="6.91642">
        <ele>1192.4</ele>
        <time>2022-08-29T07:52:17Z</time>
      </trkpt>
      <trkpt lat="47.90206" lon="6.91641">
        <ele>1192.2</ele>
        <time>2022-08-29T07:52:18Z</time>
      </trkpt>
      <trkpt lat="47.90206" lon="6.9164">
        <ele>1192</ele>
        <time>2022-08-29T07:52:19Z</time>
      </trkpt>
      <trkpt lat="47.90206" lon="6.91639">
        <ele>1191.8</ele>
        <time>2022-08-29T07:52:20Z</time>
      </trkpt>
      <trkpt lat="47.90205" lon="6.91638">
        <ele>1191.6</ele>
        <time>2022-08-29T07:52:21Z</time>
      </trkpt>
      <trkpt lat="47.90205" lon="6.91637">
        <ele>1191.3</ele>
        <time>2022-08-29T07:52:22Z</time>
      </trkpt>
      <trkpt lat="47.90205" lon="6.91636">
        <ele>1191</ele>
        <time>2022-08-29T07:52:24Z</time>
      </trkpt>
      <trkpt lat="47.90205" lon="6.91635">
        <ele>1190.7</ele>
        <time>2022-08-29T07:52:25Z</time>
      </trkpt>
      <trkpt lat="47.90205" lon="6.91634">
        <ele>1190.3</ele>
        <time>2022-08-29T07:52:26Z</time>
      </trkpt>
      <trkpt lat="47.90205" lon="6.91633">
        <ele>1190</ele>
        <time>2022-08-29T07:52:27Z</time>
      </trkpt>
      <trkpt lat="47.90205" lon="6.91632">
        <ele>1189.7</ele>
        <time>2022-08-29T07:52:28Z</time>
      </trkpt>
      <trkpt lat="47.90205" lon="6.91631">
        <ele>1189.4</ele>
        <time>2022-08-29T07:52:29Z</time>
      </trkpt>
      <trkpt lat="47.90205" lon="6.9163">
        <ele>1189.1</ele>
        <time>2022-08-29T07:52:30Z</time>
      </trkpt>
      <trkpt lat="47.90205" lon="6.91629">
        <ele>1188.8</ele>
        <time>2022-08-29T07:52:32Z</time>
      </trkpt>
      <trkpt lat="47.90205" lon="6.91628">
        <ele>1188.5</ele>
        <time>2022-08-29T07:52:33Z</time>
      </trkpt>
      <trkpt lat="47.90206" lon="6.91627">
        <ele>1188.1</ele>
        <time>2022-08-29T07:52:36Z</time>
      </trkpt>
      <trkpt lat="47.90206" lon="6.91626">
        <ele>1187.8</ele>
        <time>2022-08-29T07:52:38Z</time>
      </trkpt>
      <trkpt lat="47.90206" lon="6.91625">
        <ele>1187.5</ele>
        <time>2022-08-29T07:52:39Z</time>
      </trkpt>
      <trkpt lat="47.90207" lon="6.91624">
        <ele>1187.1</ele>
        <time>2022-08-29T07:52:40Z</time>
      </trkpt>
      <trkpt lat="47.90207" lon="6.91623">
        <ele>1186.8</ele>
        <time>2022-08-29T07:52:42Z</time>
      </trkpt>
      <trkpt lat="47.90208" lon="6.91623">
        <ele>1186.7</ele>
        <time>2022-08-29T07:52:43Z</time>
      </trkpt>
      <trkpt lat="47.90208" lon="6.91622">
        <ele>1186.4</ele>
        <time>2022-08-29T07:52:44Z</time>
      </trkpt>
      <trkpt lat="47.90208" lon="6.91621">
        <ele>1186.1</ele>
        <time>2022-08-29T07:52:46Z</time>
      </trkpt>
      <trkpt lat="47.90209" lon="6.91621">
        <ele>1186</ele>
        <time>2022-08-29T07:52:47Z</time>
      </trkpt>
      <trkpt lat="47.90209" lon="6.9162">
        <ele>1185.7</ele>
        <time>2022-08-29T07:52:48Z</time>
      </trkpt>
      <trkpt lat="47.90209" lon="6.91619">
        <ele>1185.4</ele>
        <time>2022-08-29T07:52:49Z</time>
      </trkpt>
      <trkpt lat="47.90209" lon="6.91618">
        <ele>1185.1</ele>
        <time>2022-08-29T07:52:51Z</time>
      </trkpt>
      <trkpt lat="47.90209" lon="6.91617">
        <ele>1184.7</ele>
        <time>2022-08-29T07:52:52Z</time>
      </trkpt>
      <trkpt lat="47.90209" lon="6.91616">
        <ele>1184.4</ele>
        <time>2022-08-29T07:52:53Z</time>
      </trkpt>
      <trkpt lat="47.90209" lon="6.91615">
        <ele>1184.1</ele>
        <time>2022-08-29T07:52:54Z</time>
      </trkpt>
      <trkpt lat="47.90209" lon="6.91614">
        <ele>1183.8</ele>
        <time>2022-08-29T07:52:55Z</time>
      </trkpt>
      <trkpt lat="47.90209" lon="6.91613">
        <ele>1183.5</ele>
        <time>2022-08-29T07:52:57Z</time>
      </trkpt>
      <trkpt lat="47.90209" lon="6.91612">
        <ele>1183.2</ele>
        <time>2022-08-29T07:52:58Z</time>
      </trkpt>
      <trkpt lat="47.90209" lon="6.91611">
        <ele>1182.9</ele>
        <time>2022-08-29T07:52:59Z</time>
      </trkpt>
      <trkpt lat="47.90209" lon="6.9161">
        <ele>1182.6</ele>
        <time>2022-08-29T07:53:01Z</time>
      </trkpt>
      <trkpt lat="47.90209" lon="6.91609">
        <ele>1182.4</ele>
        <time>2022-08-29T07:53:02Z</time>
      </trkpt>
      <trkpt lat="47.90209" lon="6.91608">
        <ele>1182.1</ele>
        <time>2022-08-29T07:53:03Z</time>
      </trkpt>
      <trkpt lat="47.9021" lon="6.91607">
        <ele>1181.7</ele>
        <time>2022-08-29T07:53:04Z</time>
      </trkpt>
      <trkpt lat="47.9021" lon="6.91606">
        <ele>1181.5</ele>
        <time>2022-08-29T07:53:05Z</time>
      </trkpt>
      <trkpt lat="47.9021" lon="6.91605">
        <ele>1181.2</ele>
        <time>2022-08-29T07:53:07Z</time>
      </trkpt>
      <trkpt lat="47.9021" lon="6.91604">
        <ele>1180.9</ele>
        <time>2022-08-29T07:53:08Z</time>
      </trkpt>
      <trkpt lat="47.9021" lon="6.91603">
        <ele>1180.6</ele>
        <time>2022-08-29T07:53:09Z</time>
      </trkpt>
      <trkpt lat="47.9021" lon="6.91602">
        <ele>1180.3</ele>
        <time>2022-08-29T07:53:11Z</time>
      </trkpt>
      <trkpt lat="47.9021" lon="6.91601">
        <ele>1180.1</ele>
        <time>2022-08-29T07:53:12Z</time>
      </trkpt>
      <trkpt lat="47.9021" lon="6.916">
        <ele>1179.8</ele>
        <time>2022-08-29T07:53:13Z</time>
      </trkpt>
      <trkpt lat="47.9021" lon="6.91599">
        <ele>1179.5</ele>
        <time>2022-08-29T07:53:15Z</time>
      </trkpt>
      <trkpt lat="47.9021" lon="6.91598">
        <ele>1179.2</ele>
        <time>2022-08-29T07:53:16Z</time>
      </trkpt>
      <trkpt lat="47.9021" lon="6.91597">
        <ele>1178.9</ele>
        <time>2022-08-29T07:53:17Z</time>
      </trkpt>
      <trkpt lat="47.9021" lon="6.91596">
        <ele>1178.7</ele>
        <time>2022-08-29T07:53:18Z</time>
      </trkpt>
      <trkpt lat="47.9021" lon="6.91595">
        <ele>1178.4</ele>
        <time>2022-08-29T07:53:19Z</time>
      </trkpt>
      <trkpt lat="47.9021" lon="6.91594">
        <ele>1178.1</ele>
        <time>2022-08-29T07:53:20Z</time>
      </trkpt>
      <trkpt lat="47.9021" lon="6.91593">
        <ele>1177.8</ele>
        <time>2022-08-29T07:53:21Z</time>
      </trkpt>
      <trkpt lat="47.9021" lon="6.91592">
        <ele>1177.5</ele>
        <time>2022-08-29T07:53:22Z</time>
      </trkpt>
      <trkpt lat="47.9021" lon="6.91591">
        <ele>1177.3</ele>
        <time>2022-08-29T07:53:23Z</time>
      </trkpt>
      <trkpt lat="47.9021" lon="6.9159">
        <ele>1177</ele>
        <time>2022-08-29T07:53:24Z</time>
      </trkpt>
      <trkpt lat="47.9021" lon="6.91589">
        <ele>1176.7</ele>
        <time>2022-08-29T07:53:25Z</time>
      </trkpt>
      <trkpt lat="47.9021" lon="6.91588">
        <ele>1176.4</ele>
        <time>2022-08-29T07:53:26Z</time>
      </trkpt>
      <trkpt lat="47.9021" lon="6.91587">
        <ele>1176.1</ele>
        <time>2022-08-29T07:53:27Z</time>
      </trkpt>
      <trkpt lat="47.90211" lon="6.91586">
        <ele>1175.9</ele>
        <time>2022-08-29T07:53:28Z</time>
      </trkpt>
      <trkpt lat="47.90211" lon="6.91585">
        <ele>1175.6</ele>
        <time>2022-08-29T07:53:30Z</time>
      </trkpt>
      <trkpt lat="47.90211" lon="6.91584">
        <ele>1175.4</ele>
        <time>2022-08-29T07:53:31Z</time>
      </trkpt>
      <trkpt lat="47.90211" lon="6.91583">
        <ele>1175.1</ele>
        <time>2022-08-29T07:53:32Z</time>
      </trkpt>
      <trkpt lat="47.90211" lon="6.91582">
        <ele>1174.9</ele>
        <time>2022-08-29T07:53:33Z</time>
      </trkpt>
      <trkpt lat="47.90211" lon="6.91581">
        <ele>1174.7</ele>
        <time>2022-08-29T07:53:34Z</time>
      </trkpt>
      <trkpt lat="47.90211" lon="6.9158">
        <ele>1174.4</ele>
        <time>2022-08-29T07:53:35Z</time>
      </trkpt>
      <trkpt lat="47.90211" lon="6.91579">
        <ele>1174.2</ele>
        <time>2022-08-29T07:53:36Z</time>
      </trkpt>
      <trkpt lat="47.90211" lon="6.91578">
        <ele>1174</ele>
        <time>2022-08-29T07:53:37Z</time>
      </trkpt>
      <trkpt lat="47.90211" lon="6.91576">
        <ele>1173.5</ele>
        <time>2022-08-29T07:53:38Z</time>
      </trkpt>
      <trkpt lat="47.90211" lon="6.91575">
        <ele>1173.3</ele>
        <time>2022-08-29T07:53:39Z</time>
      </trkpt>
      <trkpt lat="47.90211" lon="6.91574">
        <ele>1173</ele>
        <time>2022-08-29T07:53:40Z</time>
      </trkpt>
      <trkpt lat="47.90211" lon="6.91573">
        <ele>1172.8</ele>
        <time>2022-08-29T07:53:41Z</time>
      </trkpt>
      <trkpt lat="47.90212" lon="6.91572">
        <ele>1172.7</ele>
        <time>2022-08-29T07:53:42Z</time>
      </trkpt>
      <trkpt lat="47.90212" lon="6.91571">
        <ele>1172.4</ele>
        <time>2022-08-29T07:53:43Z</time>
      </trkpt>
      <trkpt lat="47.90212" lon="6.9157">
        <ele>1172.2</ele>
        <time>2022-08-29T07:53:44Z</time>
      </trkpt>
      <trkpt lat="47.90212" lon="6.91569">
        <ele>1172</ele>
        <time>2022-08-29T07:53:45Z</time>
      </trkpt>
      <trkpt lat="47.90212" lon="6.91568">
        <ele>1171.7</ele>
        <time>2022-08-29T07:53:46Z</time>
      </trkpt>
      <trkpt lat="47.90212" lon="6.91567">
        <ele>1171.5</ele>
        <time>2022-08-29T07:53:47Z</time>
      </trkpt>
      <trkpt lat="47.90212" lon="6.91566">
        <ele>1171.3</ele>
        <time>2022-08-29T07:53:48Z</time>
      </trkpt>
      <trkpt lat="47.90213" lon="6.91565">
        <ele>1171.2</ele>
        <time>2022-08-29T07:53:49Z</time>
      </trkpt>
      <trkpt lat="47.90213" lon="6.91564">
        <ele>1170.9</ele>
        <time>2022-08-29T07:53:50Z</time>
      </trkpt>
      <trkpt lat="47.90213" lon="6.91563">
        <ele>1170.7</ele>
        <time>2022-08-29T07:53:51Z</time>
      </trkpt>
      <trkpt lat="47.90213" lon="6.91562">
        <ele>1170.5</ele>
        <time>2022-08-29T07:53:52Z</time>
      </trkpt>
      <trkpt lat="47.90213" lon="6.91561">
        <ele>1170.2</ele>
        <time>2022-08-29T07:53:53Z</time>
      </trkpt>
      <trkpt lat="47.90214" lon="6.9156">
        <ele>1170.1</ele>
        <time>2022-08-29T07:53:54Z</time>
      </trkpt>
      <trkpt lat="47.90214" lon="6.91559">
        <ele>1169.9</ele>
        <time>2022-08-29T07:53:55Z</time>
      </trkpt>
      <trkpt lat="47.90214" lon="6.91557">
        <ele>1169.4</ele>
        <time>2022-08-29T07:53:56Z</time>
      </trkpt>
      <trkpt lat="47.90214" lon="6.91556">
        <ele>1169.2</ele>
        <time>2022-08-29T07:53:57Z</time>
      </trkpt>
      <trkpt lat="47.90215" lon="6.91555">
        <ele>1169.1</ele>
        <time>2022-08-29T07:53:58Z</time>
      </trkpt>
      <trkpt lat="47.90215" lon="6.91554">
        <ele>1168.9</ele>
        <time>2022-08-29T07:53:59Z</time>
      </trkpt>
      <trkpt lat="47.90215" lon="6.91553">
        <ele>1168.7</ele>
        <time>2022-08-29T07:54:00Z</time>
      </trkpt>
      <trkpt lat="47.90216" lon="6.91552">
        <ele>1168.7</ele>
        <time>2022-08-29T07:54:01Z</time>
      </trkpt>
      <trkpt lat="47.90216" lon="6.9155">
        <ele>1168.3</ele>
        <time>2022-08-29T07:54:02Z</time>
      </trkpt>
      <trkpt lat="47.90216" lon="6.91549">
        <ele>1168.1</ele>
        <time>2022-08-29T07:54:03Z</time>
      </trkpt>
      <trkpt lat="47.90216" lon="6.91548">
        <ele>1167.9</ele>
        <time>2022-08-29T07:54:04Z</time>
      </trkpt>
      <trkpt lat="47.90216" lon="6.91547">
        <ele>1167.7</ele>
        <time>2022-08-29T07:54:05Z</time>
      </trkpt>
      <trkpt lat="47.90217" lon="6.91546">
        <ele>1167.7</ele>
        <time>2022-08-29T07:54:06Z</time>
      </trkpt>
      <trkpt lat="47.90217" lon="6.91545">
        <ele>1167.5</ele>
        <time>2022-08-29T07:54:07Z</time>
      </trkpt>
      <trkpt lat="47.90217" lon="6.91544">
        <ele>1167.3</ele>
        <time>2022-08-29T07:54:08Z</time>
      </trkpt>
      <trkpt lat="47.90217" lon="6.91543">
        <ele>1167.1</ele>
        <time>2022-08-29T07:54:09Z</time>
      </trkpt>
      <trkpt lat="47.90217" lon="6.91542">
        <ele>1166.9</ele>
        <time>2022-08-29T07:54:10Z</time>
      </trkpt>
      <trkpt lat="47.90217" lon="6.9154">
        <ele>1166.5</ele>
        <time>2022-08-29T07:54:11Z</time>
      </trkpt>
      <trkpt lat="47.90217" lon="6.91539">
        <ele>1166.3</ele>
        <time>2022-08-29T07:54:12Z</time>
      </trkpt>
      <trkpt lat="47.90218" lon="6.91538">
        <ele>1166.3</ele>
        <time>2022-08-29T07:54:13Z</time>
      </trkpt>
      <trkpt lat="47.90218" lon="6.91537">
        <ele>1166.1</ele>
        <time>2022-08-29T07:54:14Z</time>
      </trkpt>
      <trkpt lat="47.90218" lon="6.91535">
        <ele>1165.7</ele>
        <time>2022-08-29T07:54:15Z</time>
      </trkpt>
      <trkpt lat="47.90218" lon="6.91534">
        <ele>1165.5</ele>
        <time>2022-08-29T07:54:16Z</time>
      </trkpt>
      <trkpt lat="47.90218" lon="6.91533">
        <ele>1165.4</ele>
        <time>2022-08-29T07:54:17Z</time>
      </trkpt>
      <trkpt lat="47.90219" lon="6.91532">
        <ele>1165.3</ele>
        <time>2022-08-29T07:54:18Z</time>
      </trkpt>
      <trkpt lat="47.90219" lon="6.91531">
        <ele>1165.1</ele>
        <time>2022-08-29T07:54:19Z</time>
      </trkpt>
      <trkpt lat="47.90219" lon="6.91529">
        <ele>1164.8</ele>
        <time>2022-08-29T07:54:20Z</time>
      </trkpt>
      <trkpt lat="47.9022" lon="6.91528">
        <ele>1164.7</ele>
        <time>2022-08-29T07:54:21Z</time>
      </trkpt>
      <trkpt lat="47.9022" lon="6.91527">
        <ele>1164.5</ele>
        <time>2022-08-29T07:54:22Z</time>
      </trkpt>
      <trkpt lat="47.9022" lon="6.91526">
        <ele>1164.4</ele>
        <time>2022-08-29T07:54:23Z</time>
      </trkpt>
      <trkpt lat="47.90221" lon="6.91525">
        <ele>1164.3</ele>
        <time>2022-08-29T07:54:24Z</time>
      </trkpt>
      <trkpt lat="47.90221" lon="6.91523">
        <ele>1164</ele>
        <time>2022-08-29T07:54:25Z</time>
      </trkpt>
      <trkpt lat="47.90222" lon="6.91522">
        <ele>1163.9</ele>
        <time>2022-08-29T07:54:26Z</time>
      </trkpt>
      <trkpt lat="47.90222" lon="6.91521">
        <ele>1163.7</ele>
        <time>2022-08-29T07:54:27Z</time>
      </trkpt>
      <trkpt lat="47.90222" lon="6.9152">
        <ele>1163.6</ele>
        <time>2022-08-29T07:54:28Z</time>
      </trkpt>
      <trkpt lat="47.90223" lon="6.91519">
        <ele>1163.3</ele>
        <time>2022-08-29T07:54:29Z</time>
      </trkpt>
      <trkpt lat="47.90223" lon="6.91517">
        <ele>1163</ele>
        <time>2022-08-29T07:54:30Z</time>
      </trkpt>
      <trkpt lat="47.90223" lon="6.91516">
        <ele>1162.8</ele>
        <time>2022-08-29T07:54:31Z</time>
      </trkpt>
      <trkpt lat="47.90223" lon="6.91515">
        <ele>1162.6</ele>
        <time>2022-08-29T07:54:32Z</time>
      </trkpt>
      <trkpt lat="47.90223" lon="6.91514">
        <ele>1162.4</ele>
        <time>2022-08-29T07:54:33Z</time>
      </trkpt>
      <trkpt lat="47.90223" lon="6.91513">
        <ele>1162.3</ele>
        <time>2022-08-29T07:54:34Z</time>
      </trkpt>
      <trkpt lat="47.90223" lon="6.91512">
        <ele>1162.1</ele>
        <time>2022-08-29T07:54:35Z</time>
      </trkpt>
      <trkpt lat="47.90223" lon="6.91511">
        <ele>1161.9</ele>
        <time>2022-08-29T07:54:36Z</time>
      </trkpt>
      <trkpt lat="47.90224" lon="6.91509">
        <ele>1161.4</ele>
        <time>2022-08-29T07:54:37Z</time>
      </trkpt>
      <trkpt lat="47.90224" lon="6.91508">
        <ele>1161.2</ele>
        <time>2022-08-29T07:54:40Z</time>
      </trkpt>
      <trkpt lat="47.90224" lon="6.91507">
        <ele>1161.1</ele>
        <time>2022-08-29T07:54:42Z</time>
      </trkpt>
      <trkpt lat="47.90224" lon="6.91506">
        <ele>1160.9</ele>
        <time>2022-08-29T07:54:43Z</time>
      </trkpt>
      <trkpt lat="47.90225" lon="6.91505">
        <ele>1160.6</ele>
        <time>2022-08-29T07:54:44Z</time>
      </trkpt>
      <trkpt lat="47.90225" lon="6.91504">
        <ele>1160.4</ele>
        <time>2022-08-29T07:54:45Z</time>
      </trkpt>
      <trkpt lat="47.90226" lon="6.91504">
        <ele>1160.3</ele>
        <time>2022-08-29T07:54:46Z</time>
      </trkpt>
      <trkpt lat="47.90227" lon="6.91504">
        <ele>1160.2</ele>
        <time>2022-08-29T07:54:47Z</time>
      </trkpt>
      <trkpt lat="47.90228" lon="6.91504">
        <ele>1160.1</ele>
        <time>2022-08-29T07:54:48Z</time>
      </trkpt>
      <trkpt lat="47.90229" lon="6.91504">
        <ele>1160</ele>
        <time>2022-08-29T07:54:49Z</time>
      </trkpt>
      <trkpt lat="47.9023" lon="6.91504">
        <ele>1159.9</ele>
        <time>2022-08-29T07:54:50Z</time>
      </trkpt>
      <trkpt lat="47.90231" lon="6.91505">
        <ele>1160</ele>
        <time>2022-08-29T07:54:51Z</time>
      </trkpt>
      <trkpt lat="47.90232" lon="6.91506">
        <ele>1160</ele>
        <time>2022-08-29T07:54:52Z</time>
      </trkpt>
      <trkpt lat="47.90233" lon="6.91506">
        <ele>1159.9</ele>
        <time>2022-08-29T07:54:53Z</time>
      </trkpt>
      <trkpt lat="47.90234" lon="6.91507">
        <ele>1160</ele>
        <time>2022-08-29T07:54:54Z</time>
      </trkpt>
      <trkpt lat="47.90234" lon="6.91508">
        <ele>1160.2</ele>
        <time>2022-08-29T07:54:55Z</time>
      </trkpt>
      <trkpt lat="47.90235" lon="6.91508">
        <ele>1160.1</ele>
        <time>2022-08-29T07:54:56Z</time>
      </trkpt>
      <trkpt lat="47.90236" lon="6.91509">
        <ele>1160.1</ele>
        <time>2022-08-29T07:54:57Z</time>
      </trkpt>
      <trkpt lat="47.90237" lon="6.91509">
        <ele>1160</ele>
        <time>2022-08-29T07:54:58Z</time>
      </trkpt>
      <trkpt lat="47.90238" lon="6.91509">
        <ele>1159.9</ele>
        <time>2022-08-29T07:54:59Z</time>
      </trkpt>
      <trkpt lat="47.90239" lon="6.9151">
        <ele>1160</ele>
        <time>2022-08-29T07:55:00Z</time>
      </trkpt>
      <trkpt lat="47.9024" lon="6.9151">
        <ele>1159.9</ele>
        <time>2022-08-29T07:55:01Z</time>
      </trkpt>
      <trkpt lat="47.90241" lon="6.9151">
        <ele>1159.8</ele>
        <time>2022-08-29T07:55:02Z</time>
      </trkpt>
      <trkpt lat="47.90242" lon="6.9151">
        <ele>1159.7</ele>
        <time>2022-08-29T07:55:03Z</time>
      </trkpt>
      <trkpt lat="47.90243" lon="6.91509">
        <ele>1159.4</ele>
        <time>2022-08-29T07:55:04Z</time>
      </trkpt>
      <trkpt lat="47.90244" lon="6.91509">
        <ele>1159.3</ele>
        <time>2022-08-29T07:55:05Z</time>
      </trkpt>
      <trkpt lat="47.90244" lon="6.91508">
        <ele>1159.1</ele>
        <time>2022-08-29T07:55:06Z</time>
      </trkpt>
      <trkpt lat="47.90245" lon="6.91507">
        <ele>1158.8</ele>
        <time>2022-08-29T07:55:07Z</time>
      </trkpt>
      <trkpt lat="47.90245" lon="6.91506">
        <ele>1158.6</ele>
        <time>2022-08-29T07:55:08Z</time>
      </trkpt>
      <trkpt lat="47.90245" lon="6.91505">
        <ele>1158.4</ele>
        <time>2022-08-29T07:55:09Z</time>
      </trkpt>
      <trkpt lat="47.90245" lon="6.91504">
        <ele>1158.3</ele>
        <time>2022-08-29T07:55:10Z</time>
      </trkpt>
      <trkpt lat="47.90245" lon="6.91503">
        <ele>1158.1</ele>
        <time>2022-08-29T07:55:11Z</time>
      </trkpt>
      <trkpt lat="47.90245" lon="6.91502">
        <ele>1157.9</ele>
        <time>2022-08-29T07:55:12Z</time>
      </trkpt>
      <trkpt lat="47.90245" lon="6.915">
        <ele>1157.5</ele>
        <time>2022-08-29T07:55:13Z</time>
      </trkpt>
      <trkpt lat="47.90246" lon="6.91499">
        <ele>1157.3</ele>
        <time>2022-08-29T07:55:14Z</time>
      </trkpt>
      <trkpt lat="47.90246" lon="6.91498">
        <ele>1157.1</ele>
        <time>2022-08-29T07:55:15Z</time>
      </trkpt>
      <trkpt lat="47.90246" lon="6.91497">
        <ele>1157</ele>
        <time>2022-08-29T07:55:16Z</time>
      </trkpt>
      <trkpt lat="47.90247" lon="6.91496">
        <ele>1156.7</ele>
        <time>2022-08-29T07:55:17Z</time>
      </trkpt>
      <trkpt lat="47.90247" lon="6.91495">
        <ele>1156.6</ele>
        <time>2022-08-29T07:55:18Z</time>
      </trkpt>
      <trkpt lat="47.90248" lon="6.91494">
        <ele>1156.4</ele>
        <time>2022-08-29T07:55:20Z</time>
      </trkpt>
      <trkpt lat="47.90248" lon="6.91493">
        <ele>1156.2</ele>
        <time>2022-08-29T07:55:21Z</time>
      </trkpt>
      <trkpt lat="47.90249" lon="6.91492">
        <ele>1156</ele>
        <time>2022-08-29T07:55:22Z</time>
      </trkpt>
      <trkpt lat="47.90249" lon="6.91491">
        <ele>1155.8</ele>
        <time>2022-08-29T07:55:23Z</time>
      </trkpt>
      <trkpt lat="47.90249" lon="6.9149">
        <ele>1155.7</ele>
        <time>2022-08-29T07:55:24Z</time>
      </trkpt>
      <trkpt lat="47.9025" lon="6.91489">
        <ele>1155.4</ele>
        <time>2022-08-29T07:55:25Z</time>
      </trkpt>
      <trkpt lat="47.9025" lon="6.91488">
        <ele>1155.3</ele>
        <time>2022-08-29T07:55:26Z</time>
      </trkpt>
      <trkpt lat="47.9025" lon="6.91487">
        <ele>1155.1</ele>
        <time>2022-08-29T07:55:27Z</time>
      </trkpt>
      <trkpt lat="47.90251" lon="6.91486">
        <ele>1154.6</ele>
        <time>2022-08-29T07:55:28Z</time>
      </trkpt>
      <trkpt lat="47.90251" lon="6.91485">
        <ele>1154.5</ele>
        <time>2022-08-29T07:55:29Z</time>
      </trkpt>
      <trkpt lat="47.90251" lon="6.91484">
        <ele>1154.3</ele>
        <time>2022-08-29T07:55:30Z</time>
      </trkpt>
      <trkpt lat="47.90252" lon="6.91483">
        <ele>1153.8</ele>
        <time>2022-08-29T07:55:31Z</time>
      </trkpt>
      <trkpt lat="47.90252" lon="6.91482">
        <ele>1153.7</ele>
        <time>2022-08-29T07:55:32Z</time>
      </trkpt>
      <trkpt lat="47.90252" lon="6.91481">
        <ele>1153.5</ele>
        <time>2022-08-29T07:55:33Z</time>
      </trkpt>
      <trkpt lat="47.90252" lon="6.9148">
        <ele>1153.4</ele>
        <time>2022-08-29T07:55:34Z</time>
      </trkpt>
      <trkpt lat="47.90252" lon="6.91479">
        <ele>1153.3</ele>
        <time>2022-08-29T07:55:35Z</time>
      </trkpt>
      <trkpt lat="47.90252" lon="6.91478">
        <ele>1153.1</ele>
        <time>2022-08-29T07:55:36Z</time>
      </trkpt>
      <trkpt lat="47.90252" lon="6.91475">
        <ele>1152.7</ele>
        <time>2022-08-29T07:55:57Z</time>
      </trkpt>
      <trkpt lat="47.90252" lon="6.91474">
        <ele>1152.5</ele>
        <time>2022-08-29T07:55:58Z</time>
      </trkpt>
      <trkpt lat="47.90252" lon="6.91473">
        <ele>1152.4</ele>
        <time>2022-08-29T07:55:59Z</time>
      </trkpt>
      <trkpt lat="47.90252" lon="6.91472">
        <ele>1152.2</ele>
        <time>2022-08-29T07:56:00Z</time>
      </trkpt>
      <trkpt lat="47.90252" lon="6.91471">
        <ele>1152</ele>
        <time>2022-08-29T07:56:01Z</time>
      </trkpt>
      <trkpt lat="47.90252" lon="6.9147">
        <ele>1151.9</ele>
        <time>2022-08-29T07:56:02Z</time>
      </trkpt>
      <trkpt lat="47.90252" lon="6.91469">
        <ele>1151.7</ele>
        <time>2022-08-29T07:56:03Z</time>
      </trkpt>
      <trkpt lat="47.90251" lon="6.91468">
        <ele>1151.9</ele>
        <time>2022-08-29T07:56:04Z</time>
      </trkpt>
      <trkpt lat="47.90251" lon="6.91467">
        <ele>1151.7</ele>
        <time>2022-08-29T07:56:05Z</time>
      </trkpt>
      <trkpt lat="47.90251" lon="6.91466">
        <ele>1151.5</ele>
        <time>2022-08-29T07:56:06Z</time>
      </trkpt>
      <trkpt lat="47.90251" lon="6.91465">
        <ele>1151.3</ele>
        <time>2022-08-29T07:56:07Z</time>
      </trkpt>
      <trkpt lat="47.90251" lon="6.91464">
        <ele>1151.1</ele>
        <time>2022-08-29T07:56:08Z</time>
      </trkpt>
      <trkpt lat="47.9025" lon="6.91463">
        <ele>1151.3</ele>
        <time>2022-08-29T07:56:09Z</time>
      </trkpt>
      <trkpt lat="47.9025" lon="6.91462">
        <ele>1151.2</ele>
        <time>2022-08-29T07:56:10Z</time>
      </trkpt>
      <trkpt lat="47.90249" lon="6.91461">
        <ele>1151.1</ele>
        <time>2022-08-29T07:56:11Z</time>
      </trkpt>
      <trkpt lat="47.90249" lon="6.9146">
        <ele>1150.9</ele>
        <time>2022-08-29T07:56:12Z</time>
      </trkpt>
      <trkpt lat="47.90249" lon="6.91459">
        <ele>1150.7</ele>
        <time>2022-08-29T07:56:13Z</time>
      </trkpt>
      <trkpt lat="47.90249" lon="6.91458">
        <ele>1150.5</ele>
        <time>2022-08-29T07:56:15Z</time>
      </trkpt>
      <trkpt lat="47.90249" lon="6.91457">
        <ele>1150.4</ele>
        <time>2022-08-29T07:56:19Z</time>
      </trkpt>
      <trkpt lat="47.90249" lon="6.91456">
        <ele>1150.2</ele>
        <time>2022-08-29T07:56:20Z</time>
      </trkpt>
      <trkpt lat="47.90249" lon="6.91455">
        <ele>1150</ele>
        <time>2022-08-29T07:56:22Z</time>
      </trkpt>
      <trkpt lat="47.9025" lon="6.91455">
        <ele>1149.9</ele>
        <time>2022-08-29T07:56:23Z</time>
      </trkpt>
      <trkpt lat="47.9025" lon="6.91454">
        <ele>1149.7</ele>
        <time>2022-08-29T07:56:25Z</time>
      </trkpt>
      <trkpt lat="47.90251" lon="6.91454">
        <ele>1149.2</ele>
        <time>2022-08-29T07:56:26Z</time>
      </trkpt>
      <trkpt lat="47.90252" lon="6.91454">
        <ele>1148.8</ele>
        <time>2022-08-29T07:56:27Z</time>
      </trkpt>
      <trkpt lat="47.90253" lon="6.91454">
        <ele>1148.3</ele>
        <time>2022-08-29T07:56:29Z</time>
      </trkpt>
      <trkpt lat="47.90253" lon="6.91455">
        <ele>1148.5</ele>
        <time>2022-08-29T07:56:31Z</time>
      </trkpt>
      <trkpt lat="47.90253" lon="6.91454">
        <ele>1148.3</ele>
        <time>2022-08-29T07:56:34Z</time>
      </trkpt>
      <trkpt lat="47.90252" lon="6.91453">
        <ele>1148.6</ele>
        <time>2022-08-29T07:56:35Z</time>
      </trkpt>
      <trkpt lat="47.90251" lon="6.91453">
        <ele>1149.1</ele>
        <time>2022-08-29T07:56:36Z</time>
      </trkpt>
      <trkpt lat="47.90251" lon="6.91452">
        <ele>1148.9</ele>
        <time>2022-08-29T07:56:37Z</time>
      </trkpt>
      <trkpt lat="47.9025" lon="6.91451">
        <ele>1149.2</ele>
        <time>2022-08-29T07:56:38Z</time>
      </trkpt>
      <trkpt lat="47.90249" lon="6.91449">
        <ele>1148.9</ele>
        <time>2022-08-29T07:56:39Z</time>
      </trkpt>
      <trkpt lat="47.90249" lon="6.91448">
        <ele>1148.7</ele>
        <time>2022-08-29T07:56:40Z</time>
      </trkpt>
      <trkpt lat="47.90248" lon="6.91447">
        <ele>1148.7</ele>
        <time>2022-08-29T07:56:41Z</time>
      </trkpt>
      <trkpt lat="47.90248" lon="6.91446">
        <ele>1148.5</ele>
        <time>2022-08-29T07:56:42Z</time>
      </trkpt>
      <trkpt lat="47.90247" lon="6.91444">
        <ele>1148.3</ele>
        <time>2022-08-29T07:56:43Z</time>
      </trkpt>
      <trkpt lat="47.90247" lon="6.91443">
        <ele>1148.1</ele>
        <time>2022-08-29T07:56:44Z</time>
      </trkpt>
      <trkpt lat="47.90246" lon="6.91442">
        <ele>1148.1</ele>
        <time>2022-08-29T07:56:45Z</time>
      </trkpt>
      <trkpt lat="47.90246" lon="6.9144">
        <ele>1147.8</ele>
        <time>2022-08-29T07:56:46Z</time>
      </trkpt>
      <trkpt lat="47.90245" lon="6.91439">
        <ele>1147.8</ele>
        <time>2022-08-29T07:56:47Z</time>
      </trkpt>
      <trkpt lat="47.90245" lon="6.91437">
        <ele>1147.5</ele>
        <time>2022-08-29T07:56:48Z</time>
      </trkpt>
      <trkpt lat="47.90245" lon="6.91436">
        <ele>1147.4</ele>
        <time>2022-08-29T07:56:49Z</time>
      </trkpt>
      <trkpt lat="47.90244" lon="6.91434">
        <ele>1147.2</ele>
        <time>2022-08-29T07:56:50Z</time>
      </trkpt>
      <trkpt lat="47.90244" lon="6.91433">
        <ele>1147.1</ele>
        <time>2022-08-29T07:56:51Z</time>
      </trkpt>
      <trkpt lat="47.90244" lon="6.91432">
        <ele>1147</ele>
        <time>2022-08-29T07:56:52Z</time>
      </trkpt>
      <trkpt lat="47.90244" lon="6.9143">
        <ele>1146.7</ele>
        <time>2022-08-29T07:56:53Z</time>
      </trkpt>
      <trkpt lat="47.90243" lon="6.91429">
        <ele>1146.7</ele>
        <time>2022-08-29T07:56:54Z</time>
      </trkpt>
      <trkpt lat="47.90243" lon="6.91428">
        <ele>1146.5</ele>
        <time>2022-08-29T07:56:55Z</time>
      </trkpt>
      <trkpt lat="47.90244" lon="6.91427">
        <ele>1146.3</ele>
        <time>2022-08-29T07:56:56Z</time>
      </trkpt>
      <trkpt lat="47.90244" lon="6.91426">
        <ele>1146.1</ele>
        <time>2022-08-29T07:56:57Z</time>
      </trkpt>
      <trkpt lat="47.90244" lon="6.91425">
        <ele>1146</ele>
        <time>2022-08-29T07:56:58Z</time>
      </trkpt>
      <trkpt lat="47.90244" lon="6.91424">
        <ele>1145.9</ele>
        <time>2022-08-29T07:57:00Z</time>
      </trkpt>
      <trkpt lat="47.90245" lon="6.91423">
        <ele>1145.6</ele>
        <time>2022-08-29T07:57:01Z</time>
      </trkpt>
      <trkpt lat="47.90245" lon="6.91422">
        <ele>1145.5</ele>
        <time>2022-08-29T07:57:02Z</time>
      </trkpt>
      <trkpt lat="47.90245" lon="6.91421">
        <ele>1145.3</ele>
        <time>2022-08-29T07:57:03Z</time>
      </trkpt>
      <trkpt lat="47.90245" lon="6.9142">
        <ele>1145.2</ele>
        <time>2022-08-29T07:57:04Z</time>
      </trkpt>
      <trkpt lat="47.90244" lon="6.91419">
        <ele>1145.2</ele>
        <time>2022-08-29T07:57:05Z</time>
      </trkpt>
      <trkpt lat="47.90244" lon="6.91418">
        <ele>1145</ele>
        <time>2022-08-29T07:57:06Z</time>
      </trkpt>
      <trkpt lat="47.90243" lon="6.91418">
        <ele>1145.2</ele>
        <time>2022-08-29T07:57:07Z</time>
      </trkpt>
      <trkpt lat="47.90242" lon="6.91417">
        <ele>1145.2</ele>
        <time>2022-08-29T07:57:08Z</time>
      </trkpt>
      <trkpt lat="47.90242" lon="6.91416">
        <ele>1145.1</ele>
        <time>2022-08-29T07:57:09Z</time>
      </trkpt>
      <trkpt lat="47.90241" lon="6.91415">
        <ele>1145.2</ele>
        <time>2022-08-29T07:57:10Z</time>
      </trkpt>
      <trkpt lat="47.9024" lon="6.91415">
        <ele>1145.3</ele>
        <time>2022-08-29T07:57:11Z</time>
      </trkpt>
      <trkpt lat="47.90239" lon="6.91414">
        <ele>1145.4</ele>
        <time>2022-08-29T07:57:12Z</time>
      </trkpt>
      <trkpt lat="47.90238" lon="6.91414">
        <ele>1145.5</ele>
        <time>2022-08-29T07:57:13Z</time>
      </trkpt>
      <trkpt lat="47.90238" lon="6.91413">
        <ele>1145.5</ele>
        <time>2022-08-29T07:57:14Z</time>
      </trkpt>
      <trkpt lat="47.90237" lon="6.91413">
        <ele>1145.6</ele>
        <time>2022-08-29T07:57:15Z</time>
      </trkpt>
      <trkpt lat="47.90236" lon="6.91413">
        <ele>1145.8</ele>
        <time>2022-08-29T07:57:16Z</time>
      </trkpt>
      <trkpt lat="47.90235" lon="6.91412">
        <ele>1145.8</ele>
        <time>2022-08-29T07:57:17Z</time>
      </trkpt>
      <trkpt lat="47.90234" lon="6.91412">
        <ele>1145.9</ele>
        <time>2022-08-29T07:57:18Z</time>
      </trkpt>
      <trkpt lat="47.90233" lon="6.91411">
        <ele>1146</ele>
        <time>2022-08-29T07:57:20Z</time>
      </trkpt>
      <trkpt lat="47.90232" lon="6.91411">
        <ele>1146.1</ele>
        <time>2022-08-29T07:57:21Z</time>
      </trkpt>
      <trkpt lat="47.90231" lon="6.9141">
        <ele>1146.2</ele>
        <time>2022-08-29T07:57:22Z</time>
      </trkpt>
      <trkpt lat="47.9023" lon="6.91409">
        <ele>1146.2</ele>
        <time>2022-08-29T07:57:24Z</time>
      </trkpt>
      <trkpt lat="47.90229" lon="6.91408">
        <ele>1146.2</ele>
        <time>2022-08-29T07:57:25Z</time>
      </trkpt>
      <trkpt lat="47.90228" lon="6.91407">
        <ele>1146.3</ele>
        <time>2022-08-29T07:57:28Z</time>
      </trkpt>
      <trkpt lat="47.90227" lon="6.91407">
        <ele>1146.4</ele>
        <time>2022-08-29T07:57:31Z</time>
      </trkpt>
      <trkpt lat="47.90226" lon="6.91407">
        <ele>1146.5</ele>
        <time>2022-08-29T07:57:33Z</time>
      </trkpt>
      <trkpt lat="47.90225" lon="6.91407">
        <ele>1146.6</ele>
        <time>2022-08-29T07:57:34Z</time>
      </trkpt>
      <trkpt lat="47.90224" lon="6.91408">
        <ele>1146.8</ele>
        <time>2022-08-29T07:57:36Z</time>
      </trkpt>
      <trkpt lat="47.90223" lon="6.91408">
        <ele>1147</ele>
        <time>2022-08-29T07:57:38Z</time>
      </trkpt>
      <trkpt lat="47.90222" lon="6.91408">
        <ele>1147</ele>
        <time>2022-08-29T07:57:39Z</time>
      </trkpt>
      <trkpt lat="47.90223" lon="6.91408">
        <ele>1147</ele>
        <time>2022-08-29T07:57:48Z</time>
      </trkpt>
      <trkpt lat="47.90224" lon="6.91408">
        <ele>1146.8</ele>
        <time>2022-08-29T07:57:50Z</time>
      </trkpt>
      <trkpt lat="47.90225" lon="6.91408">
        <ele>1146.7</ele>
        <time>2022-08-29T07:57:51Z</time>
      </trkpt>
      <trkpt lat="47.90226" lon="6.91408">
        <ele>1146.6</ele>
        <time>2022-08-29T07:57:52Z</time>
      </trkpt>
      <trkpt lat="47.90226" lon="6.91409">
        <ele>1146.7</ele>
        <time>2022-08-29T07:58:14Z</time>
      </trkpt>
      <trkpt lat="47.90225" lon="6.91409">
        <ele>1146.8</ele>
        <time>2022-08-29T07:58:15Z</time>
      </trkpt>
      <trkpt lat="47.90225" lon="6.9141">
        <ele>1146.9</ele>
        <time>2022-08-29T07:58:16Z</time>
      </trkpt>
      <trkpt lat="47.90224" lon="6.9141">
        <ele>1147.1</ele>
        <time>2022-08-29T07:58:18Z</time>
      </trkpt>
      <trkpt lat="47.90224" lon="6.91409">
        <ele>1147</ele>
        <time>2022-08-29T07:58:19Z</time>
      </trkpt>
      <trkpt lat="47.90223" lon="6.91409">
        <ele>1147.1</ele>
        <time>2022-08-29T07:58:20Z</time>
      </trkpt>
      <trkpt lat="47.90223" lon="6.91408">
        <ele>1147</ele>
        <time>2022-08-29T07:58:21Z</time>
      </trkpt>
      <trkpt lat="47.90222" lon="6.91407">
        <ele>1146.9</ele>
        <time>2022-08-29T07:58:22Z</time>
      </trkpt>
      <trkpt lat="47.90222" lon="6.91406">
        <ele>1146.8</ele>
        <time>2022-08-29T07:58:23Z</time>
      </trkpt>
      <trkpt lat="47.90222" lon="6.91405">
        <ele>1146.7</ele>
        <time>2022-08-29T07:58:24Z</time>
      </trkpt>
      <trkpt lat="47.90222" lon="6.91404">
        <ele>1146.6</ele>
        <time>2022-08-29T07:58:25Z</time>
      </trkpt>
      <trkpt lat="47.90222" lon="6.91403">
        <ele>1146.5</ele>
        <time>2022-08-29T07:58:26Z</time>
      </trkpt>
      <trkpt lat="47.90222" lon="6.91401">
        <ele>1146.3</ele>
        <time>2022-08-29T07:58:27Z</time>
      </trkpt>
      <trkpt lat="47.90222" lon="6.914">
        <ele>1146.1</ele>
        <time>2022-08-29T07:58:28Z</time>
      </trkpt>
      <trkpt lat="47.90223" lon="6.91399">
        <ele>1146</ele>
        <time>2022-08-29T07:58:29Z</time>
      </trkpt>
      <trkpt lat="47.90223" lon="6.91398">
        <ele>1145.9</ele>
        <time>2022-08-29T07:58:30Z</time>
      </trkpt>
      <trkpt lat="47.90223" lon="6.91397">
        <ele>1145.8</ele>
        <time>2022-08-29T07:58:31Z</time>
      </trkpt>
      <trkpt lat="47.90224" lon="6.91396">
        <ele>1145.6</ele>
        <time>2022-08-29T07:58:32Z</time>
      </trkpt>
      <trkpt lat="47.90224" lon="6.91395">
        <ele>1145.5</ele>
        <time>2022-08-29T07:58:33Z</time>
      </trkpt>
      <trkpt lat="47.90225" lon="6.91393">
        <ele>1145.2</ele>
        <time>2022-08-29T07:58:34Z</time>
      </trkpt>
      <trkpt lat="47.90225" lon="6.91392">
        <ele>1145.1</ele>
        <time>2022-08-29T07:58:35Z</time>
      </trkpt>
      <trkpt lat="47.90226" lon="6.91391">
        <ele>1144.9</ele>
        <time>2022-08-29T07:58:36Z</time>
      </trkpt>
      <trkpt lat="47.90226" lon="6.9139">
        <ele>1144.8</ele>
        <time>2022-08-29T07:58:37Z</time>
      </trkpt>
      <trkpt lat="47.90227" lon="6.91389">
        <ele>1144.7</ele>
        <time>2022-08-29T07:58:38Z</time>
      </trkpt>
      <trkpt lat="47.90227" lon="6.91388">
        <ele>1144.6</ele>
        <time>2022-08-29T07:58:39Z</time>
      </trkpt>
      <trkpt lat="47.90227" lon="6.91387">
        <ele>1144.5</ele>
        <time>2022-08-29T07:58:40Z</time>
      </trkpt>
      <trkpt lat="47.90228" lon="6.91385">
        <ele>1144.2</ele>
        <time>2022-08-29T07:58:41Z</time>
      </trkpt>
      <trkpt lat="47.90228" lon="6.91384">
        <ele>1144.1</ele>
        <time>2022-08-29T07:58:42Z</time>
      </trkpt>
      <trkpt lat="47.90228" lon="6.91383">
        <ele>1144</ele>
        <time>2022-08-29T07:58:43Z</time>
      </trkpt>
      <trkpt lat="47.90229" lon="6.91382">
        <ele>1143.9</ele>
        <time>2022-08-29T07:58:44Z</time>
      </trkpt>
      <trkpt lat="47.90229" lon="6.9138">
        <ele>1143.7</ele>
        <time>2022-08-29T07:58:45Z</time>
      </trkpt>
      <trkpt lat="47.9023" lon="6.91379">
        <ele>1143.6</ele>
        <time>2022-08-29T07:58:46Z</time>
      </trkpt>
      <trkpt lat="47.9023" lon="6.91378">
        <ele>1143.5</ele>
        <time>2022-08-29T07:58:47Z</time>
      </trkpt>
      <trkpt lat="47.90231" lon="6.91377">
        <ele>1143.4</ele>
        <time>2022-08-29T07:58:48Z</time>
      </trkpt>
      <trkpt lat="47.90231" lon="6.91375">
        <ele>1143.2</ele>
        <time>2022-08-29T07:58:49Z</time>
      </trkpt>
      <trkpt lat="47.90232" lon="6.91374">
        <ele>1143.1</ele>
        <time>2022-08-29T07:58:50Z</time>
      </trkpt>
      <trkpt lat="47.90232" lon="6.91372">
        <ele>1142.9</ele>
        <time>2022-08-29T07:58:51Z</time>
      </trkpt>
      <trkpt lat="47.90233" lon="6.91371">
        <ele>1142.8</ele>
        <time>2022-08-29T07:58:52Z</time>
      </trkpt>
      <trkpt lat="47.90233" lon="6.9137">
        <ele>1142.7</ele>
        <time>2022-08-29T07:58:53Z</time>
      </trkpt>
      <trkpt lat="47.90233" lon="6.91368">
        <ele>1142.6</ele>
        <time>2022-08-29T07:58:54Z</time>
      </trkpt>
      <trkpt lat="47.90234" lon="6.91367">
        <ele>1142.5</ele>
        <time>2022-08-29T07:58:55Z</time>
      </trkpt>
      <trkpt lat="47.90234" lon="6.91366">
        <ele>1142.4</ele>
        <time>2022-08-29T07:58:56Z</time>
      </trkpt>
      <trkpt lat="47.90234" lon="6.91365">
        <ele>1142.3</ele>
        <time>2022-08-29T07:58:57Z</time>
      </trkpt>
      <trkpt lat="47.90235" lon="6.91365">
        <ele>1142.3</ele>
        <time>2022-08-29T07:58:58Z</time>
      </trkpt>
      <trkpt lat="47.90235" lon="6.91364">
        <ele>1142.2</ele>
        <time>2022-08-29T07:59:15Z</time>
      </trkpt>
      <trkpt lat="47.90236" lon="6.91363">
        <ele>1142.1</ele>
        <time>2022-08-29T07:59:16Z</time>
      </trkpt>
      <trkpt lat="47.90237" lon="6.91363">
        <ele>1142.1</ele>
        <time>2022-08-29T07:59:17Z</time>
      </trkpt>
      <trkpt lat="47.90238" lon="6.91362">
        <ele>1142.1</ele>
        <time>2022-08-29T07:59:19Z</time>
      </trkpt>
      <trkpt lat="47.90239" lon="6.91361">
        <ele>1142</ele>
        <time>2022-08-29T07:59:21Z</time>
      </trkpt>
      <trkpt lat="47.90239" lon="6.9136">
        <ele>1141.9</ele>
        <time>2022-08-29T07:59:22Z</time>
      </trkpt>
      <trkpt lat="47.9024" lon="6.91359">
        <ele>1141.8</ele>
        <time>2022-08-29T07:59:23Z</time>
      </trkpt>
      <trkpt lat="47.9024" lon="6.91358">
        <ele>1141.8</ele>
        <time>2022-08-29T07:59:24Z</time>
      </trkpt>
      <trkpt lat="47.9024" lon="6.91357">
        <ele>1141.7</ele>
        <time>2022-08-29T07:59:25Z</time>
      </trkpt>
      <trkpt lat="47.90241" lon="6.91355">
        <ele>1141.6</ele>
        <time>2022-08-29T07:59:26Z</time>
      </trkpt>
      <trkpt lat="47.90241" lon="6.91354">
        <ele>1141.5</ele>
        <time>2022-08-29T07:59:27Z</time>
      </trkpt>
      <trkpt lat="47.90242" lon="6.91353">
        <ele>1141.5</ele>
        <time>2022-08-29T07:59:28Z</time>
      </trkpt>
      <trkpt lat="47.90242" lon="6.91351">
        <ele>1141.3</ele>
        <time>2022-08-29T07:59:29Z</time>
      </trkpt>
      <trkpt lat="47.90243" lon="6.9135">
        <ele>1141.3</ele>
        <time>2022-08-29T07:59:30Z</time>
      </trkpt>
      <trkpt lat="47.90244" lon="6.91349">
        <ele>1141.3</ele>
        <time>2022-08-29T07:59:31Z</time>
      </trkpt>
      <trkpt lat="47.90244" lon="6.91347">
        <ele>1141.2</ele>
        <time>2022-08-29T07:59:32Z</time>
      </trkpt>
      <trkpt lat="47.90245" lon="6.91346">
        <ele>1141.2</ele>
        <time>2022-08-29T07:59:33Z</time>
      </trkpt>
      <trkpt lat="47.90245" lon="6.91344">
        <ele>1141.1</ele>
        <time>2022-08-29T07:59:34Z</time>
      </trkpt>
      <trkpt lat="47.90246" lon="6.91343">
        <ele>1141.1</ele>
        <time>2022-08-29T07:59:35Z</time>
      </trkpt>
      <trkpt lat="47.90246" lon="6.91342">
        <ele>1141</ele>
        <time>2022-08-29T07:59:36Z</time>
      </trkpt>
      <trkpt lat="47.90247" lon="6.9134">
        <ele>1141</ele>
        <time>2022-08-29T07:59:37Z</time>
      </trkpt>
      <trkpt lat="47.90247" lon="6.91339">
        <ele>1140.9</ele>
        <time>2022-08-29T07:59:38Z</time>
      </trkpt>
      <trkpt lat="47.90248" lon="6.91338">
        <ele>1141</ele>
        <time>2022-08-29T07:59:39Z</time>
      </trkpt>
      <trkpt lat="47.90248" lon="6.91337">
        <ele>1140.9</ele>
        <time>2022-08-29T07:59:40Z</time>
      </trkpt>
      <trkpt lat="47.90248" lon="6.91336">
        <ele>1140.9</ele>
        <time>2022-08-29T07:59:41Z</time>
      </trkpt>
      <trkpt lat="47.90248" lon="6.91334">
        <ele>1140.8</ele>
        <time>2022-08-29T07:59:42Z</time>
      </trkpt>
      <trkpt lat="47.90249" lon="6.91333">
        <ele>1140.8</ele>
        <time>2022-08-29T07:59:43Z</time>
      </trkpt>
      <trkpt lat="47.90249" lon="6.91332">
        <ele>1140.7</ele>
        <time>2022-08-29T07:59:44Z</time>
      </trkpt>
      <trkpt lat="47.90249" lon="6.91331">
        <ele>1140.5</ele>
        <time>2022-08-29T07:59:45Z</time>
      </trkpt>
      <trkpt lat="47.90249" lon="6.9133">
        <ele>1140.3</ele>
        <time>2022-08-29T07:59:46Z</time>
      </trkpt>
      <trkpt lat="47.90249" lon="6.91329">
        <ele>1140.1</ele>
        <time>2022-08-29T07:59:47Z</time>
      </trkpt>
      <trkpt lat="47.90249" lon="6.91328">
        <ele>1139.9</ele>
        <time>2022-08-29T07:59:48Z</time>
      </trkpt>
      <trkpt lat="47.90249" lon="6.91326">
        <ele>1139.6</ele>
        <time>2022-08-29T07:59:49Z</time>
      </trkpt>
      <trkpt lat="47.90249" lon="6.91325">
        <ele>1139.4</ele>
        <time>2022-08-29T07:59:50Z</time>
      </trkpt>
      <trkpt lat="47.90249" lon="6.91324">
        <ele>1139.2</ele>
        <time>2022-08-29T07:59:51Z</time>
      </trkpt>
      <trkpt lat="47.90249" lon="6.91323">
        <ele>1139</ele>
        <time>2022-08-29T07:59:52Z</time>
      </trkpt>
      <trkpt lat="47.9025" lon="6.91322">
        <ele>1139</ele>
        <time>2022-08-29T07:59:53Z</time>
      </trkpt>
      <trkpt lat="47.9025" lon="6.91321">
        <ele>1138.8</ele>
        <time>2022-08-29T07:59:54Z</time>
      </trkpt>
      <trkpt lat="47.9025" lon="6.9132">
        <ele>1138.6</ele>
        <time>2022-08-29T07:59:55Z</time>
      </trkpt>
      <trkpt lat="47.9025" lon="6.91319">
        <ele>1138.4</ele>
        <time>2022-08-29T07:59:56Z</time>
      </trkpt>
      <trkpt lat="47.9025" lon="6.91318">
        <ele>1138.2</ele>
        <time>2022-08-29T07:59:57Z</time>
      </trkpt>
      <trkpt lat="47.90251" lon="6.91317">
        <ele>1137.6</ele>
        <time>2022-08-29T07:59:58Z</time>
      </trkpt>
      <trkpt lat="47.90251" lon="6.91315">
        <ele>1137.2</ele>
        <time>2022-08-29T07:59:59Z</time>
      </trkpt>
      <trkpt lat="47.90251" lon="6.91314">
        <ele>1137.1</ele>
        <time>2022-08-29T08:00:00Z</time>
      </trkpt>
      <trkpt lat="47.90251" lon="6.91313">
        <ele>1136.9</ele>
        <time>2022-08-29T08:00:01Z</time>
      </trkpt>
      <trkpt lat="47.90251" lon="6.91312">
        <ele>1136.7</ele>
        <time>2022-08-29T08:00:02Z</time>
      </trkpt>
      <trkpt lat="47.90251" lon="6.91311">
        <ele>1136.5</ele>
        <time>2022-08-29T08:00:03Z</time>
      </trkpt>
      <trkpt lat="47.90251" lon="6.9131">
        <ele>1136.4</ele>
        <time>2022-08-29T08:00:04Z</time>
      </trkpt>
      <trkpt lat="47.90251" lon="6.91309">
        <ele>1136.2</ele>
        <time>2022-08-29T08:00:08Z</time>
      </trkpt>
      <trkpt lat="47.90251" lon="6.91308">
        <ele>1136</ele>
        <time>2022-08-29T08:00:09Z</time>
      </trkpt>
      <trkpt lat="47.90251" lon="6.91307">
        <ele>1135.8</ele>
        <time>2022-08-29T08:00:11Z</time>
      </trkpt>
      <trkpt lat="47.90251" lon="6.91306">
        <ele>1135.6</ele>
        <time>2022-08-29T08:00:12Z</time>
      </trkpt>
      <trkpt lat="47.90251" lon="6.91305">
        <ele>1135.5</ele>
        <time>2022-08-29T08:00:13Z</time>
      </trkpt>
      <trkpt lat="47.90252" lon="6.91304">
        <ele>1134.9</ele>
        <time>2022-08-29T08:00:14Z</time>
      </trkpt>
      <trkpt lat="47.90252" lon="6.91302">
        <ele>1134.7</ele>
        <time>2022-08-29T08:00:15Z</time>
      </trkpt>
      <trkpt lat="47.90252" lon="6.91301">
        <ele>1134.5</ele>
        <time>2022-08-29T08:00:16Z</time>
      </trkpt>
      <trkpt lat="47.90252" lon="6.913">
        <ele>1134.4</ele>
        <time>2022-08-29T08:00:45Z</time>
      </trkpt>
      <trkpt lat="47.90253" lon="6.91299">
        <ele>1133.9</ele>
        <time>2022-08-29T08:00:47Z</time>
      </trkpt>
      <trkpt lat="47.90253" lon="6.91298">
        <ele>1133.8</ele>
        <time>2022-08-29T08:00:49Z</time>
      </trkpt>
      <trkpt lat="47.90253" lon="6.91297">
        <ele>1133.6</ele>
        <time>2022-08-29T08:00:50Z</time>
      </trkpt>
      <trkpt lat="47.90253" lon="6.91296">
        <ele>1133.5</ele>
        <time>2022-08-29T08:00:51Z</time>
      </trkpt>
      <trkpt lat="47.90253" lon="6.91294">
        <ele>1133.3</ele>
        <time>2022-08-29T08:00:52Z</time>
      </trkpt>
      <trkpt lat="47.90253" lon="6.91293">
        <ele>1133.1</ele>
        <time>2022-08-29T08:00:53Z</time>
      </trkpt>
      <trkpt lat="47.90254" lon="6.91292">
        <ele>1132.7</ele>
        <time>2022-08-29T08:00:54Z</time>
      </trkpt>
      <trkpt lat="47.90254" lon="6.91291">
        <ele>1132.6</ele>
        <time>2022-08-29T08:00:55Z</time>
      </trkpt>
      <trkpt lat="47.90254" lon="6.91289">
        <ele>1132.3</ele>
        <time>2022-08-29T08:00:56Z</time>
      </trkpt>
      <trkpt lat="47.90254" lon="6.91288">
        <ele>1132.2</ele>
        <time>2022-08-29T08:00:57Z</time>
      </trkpt>
      <trkpt lat="47.90255" lon="6.91287">
        <ele>1131.8</ele>
        <time>2022-08-29T08:00:58Z</time>
      </trkpt>
      <trkpt lat="47.90255" lon="6.91286">
        <ele>1131.7</ele>
        <time>2022-08-29T08:00:59Z</time>
      </trkpt>
      <trkpt lat="47.90255" lon="6.91284">
        <ele>1131.4</ele>
        <time>2022-08-29T08:01:00Z</time>
      </trkpt>
      <trkpt lat="47.90255" lon="6.91283">
        <ele>1131.3</ele>
        <time>2022-08-29T08:01:01Z</time>
      </trkpt>
      <trkpt lat="47.90255" lon="6.91282">
        <ele>1131.2</ele>
        <time>2022-08-29T08:01:02Z</time>
      </trkpt>
      <trkpt lat="47.90256" lon="6.9128">
        <ele>1130.7</ele>
        <time>2022-08-29T08:01:03Z</time>
      </trkpt>
      <trkpt lat="47.90256" lon="6.91279">
        <ele>1130.6</ele>
        <time>2022-08-29T08:01:04Z</time>
      </trkpt>
      <trkpt lat="47.90256" lon="6.91278">
        <ele>1130.5</ele>
        <time>2022-08-29T08:01:05Z</time>
      </trkpt>
      <trkpt lat="47.90256" lon="6.91276">
        <ele>1130.1</ele>
        <time>2022-08-29T08:01:06Z</time>
      </trkpt>
      <trkpt lat="47.90256" lon="6.91275">
        <ele>1129.9</ele>
        <time>2022-08-29T08:01:07Z</time>
      </trkpt>
      <trkpt lat="47.90257" lon="6.91274">
        <ele>1129.5</ele>
        <time>2022-08-29T08:01:08Z</time>
      </trkpt>
      <trkpt lat="47.90257" lon="6.91272">
        <ele>1129.1</ele>
        <time>2022-08-29T08:01:09Z</time>
      </trkpt>
      <trkpt lat="47.90257" lon="6.91271">
        <ele>1128.9</ele>
        <time>2022-08-29T08:01:10Z</time>
      </trkpt>
      <trkpt lat="47.90257" lon="6.91269">
        <ele>1128.5</ele>
        <time>2022-08-29T08:01:11Z</time>
      </trkpt>
      <trkpt lat="47.90257" lon="6.91268">
        <ele>1128.3</ele>
        <time>2022-08-29T08:01:12Z</time>
      </trkpt>
      <trkpt lat="47.90258" lon="6.91267">
        <ele>1127.9</ele>
        <time>2022-08-29T08:01:13Z</time>
      </trkpt>
      <trkpt lat="47.90258" lon="6.91266">
        <ele>1127.7</ele>
        <time>2022-08-29T08:01:14Z</time>
      </trkpt>
      <trkpt lat="47.90258" lon="6.91264">
        <ele>1127.3</ele>
        <time>2022-08-29T08:01:15Z</time>
      </trkpt>
      <trkpt lat="47.90259" lon="6.91263">
        <ele>1126.9</ele>
        <time>2022-08-29T08:01:16Z</time>
      </trkpt>
      <trkpt lat="47.90259" lon="6.91262">
        <ele>1126.7</ele>
        <time>2022-08-29T08:01:17Z</time>
      </trkpt>
      <trkpt lat="47.90259" lon="6.91261">
        <ele>1126.5</ele>
        <time>2022-08-29T08:01:18Z</time>
      </trkpt>
      <trkpt lat="47.9026" lon="6.9126">
        <ele>1126.1</ele>
        <time>2022-08-29T08:01:19Z</time>
      </trkpt>
      <trkpt lat="47.9026" lon="6.91259">
        <ele>1125.9</ele>
        <time>2022-08-29T08:01:20Z</time>
      </trkpt>
      <trkpt lat="47.90261" lon="6.91258">
        <ele>1125.5</ele>
        <time>2022-08-29T08:01:21Z</time>
      </trkpt>
      <trkpt lat="47.90261" lon="6.91257">
        <ele>1125.3</ele>
        <time>2022-08-29T08:01:22Z</time>
      </trkpt>
      <trkpt lat="47.90262" lon="6.91256">
        <ele>1124.9</ele>
        <time>2022-08-29T08:01:23Z</time>
      </trkpt>
      <trkpt lat="47.90262" lon="6.91255">
        <ele>1124.8</ele>
        <time>2022-08-29T08:01:24Z</time>
      </trkpt>
      <trkpt lat="47.90263" lon="6.91254">
        <ele>1124.4</ele>
        <time>2022-08-29T08:01:25Z</time>
      </trkpt>
      <trkpt lat="47.90263" lon="6.91253">
        <ele>1124.2</ele>
        <time>2022-08-29T08:01:26Z</time>
      </trkpt>
      <trkpt lat="47.90264" lon="6.91252">
        <ele>1123.8</ele>
        <time>2022-08-29T08:01:27Z</time>
      </trkpt>
      <trkpt lat="47.90264" lon="6.91251">
        <ele>1123.7</ele>
        <time>2022-08-29T08:01:28Z</time>
      </trkpt>
      <trkpt lat="47.90264" lon="6.9125">
        <ele>1123.5</ele>
        <time>2022-08-29T08:01:29Z</time>
      </trkpt>
      <trkpt lat="47.90265" lon="6.91249">
        <ele>1123.2</ele>
        <time>2022-08-29T08:01:30Z</time>
      </trkpt>
      <trkpt lat="47.90266" lon="6.91248">
        <ele>1122.9</ele>
        <time>2022-08-29T08:01:31Z</time>
      </trkpt>
      <trkpt lat="47.90267" lon="6.91247">
        <ele>1122.6</ele>
        <time>2022-08-29T08:01:33Z</time>
      </trkpt>
      <trkpt lat="47.90267" lon="6.91246">
        <ele>1122.5</ele>
        <time>2022-08-29T08:01:34Z</time>
      </trkpt>
      <trkpt lat="47.90268" lon="6.91245">
        <ele>1122.2</ele>
        <time>2022-08-29T08:01:35Z</time>
      </trkpt>
      <trkpt lat="47.90269" lon="6.91244">
        <ele>1121.9</ele>
        <time>2022-08-29T08:01:37Z</time>
      </trkpt>
      <trkpt lat="47.90269" lon="6.91243">
        <ele>1121.8</ele>
        <time>2022-08-29T08:01:38Z</time>
      </trkpt>
      <trkpt lat="47.9027" lon="6.91242">
        <ele>1121.6</ele>
        <time>2022-08-29T08:01:39Z</time>
      </trkpt>
      <trkpt lat="47.90271" lon="6.91241">
        <ele>1121.3</ele>
        <time>2022-08-29T08:01:40Z</time>
      </trkpt>
      <trkpt lat="47.90271" lon="6.9124">
        <ele>1121.2</ele>
        <time>2022-08-29T08:01:41Z</time>
      </trkpt>
      <trkpt lat="47.90272" lon="6.91239">
        <ele>1121</ele>
        <time>2022-08-29T08:01:42Z</time>
      </trkpt>
      <trkpt lat="47.90272" lon="6.91238">
        <ele>1120.9</ele>
        <time>2022-08-29T08:01:43Z</time>
      </trkpt>
      <trkpt lat="47.90273" lon="6.91237">
        <ele>1120.7</ele>
        <time>2022-08-29T08:01:44Z</time>
      </trkpt>
      <trkpt lat="47.90273" lon="6.91236">
        <ele>1120.6</ele>
        <time>2022-08-29T08:01:45Z</time>
      </trkpt>
      <trkpt lat="47.90274" lon="6.91235">
        <ele>1120.4</ele>
        <time>2022-08-29T08:01:46Z</time>
      </trkpt>
      <trkpt lat="47.90274" lon="6.91234">
        <ele>1120.3</ele>
        <time>2022-08-29T08:01:47Z</time>
      </trkpt>
      <trkpt lat="47.90275" lon="6.91233">
        <ele>1120.1</ele>
        <time>2022-08-29T08:01:48Z</time>
      </trkpt>
      <trkpt lat="47.90275" lon="6.91232">
        <ele>1120</ele>
        <time>2022-08-29T08:01:49Z</time>
      </trkpt>
      <trkpt lat="47.90276" lon="6.91231">
        <ele>1119.8</ele>
        <time>2022-08-29T08:01:50Z</time>
      </trkpt>
      <trkpt lat="47.90277" lon="6.9123">
        <ele>1119.6</ele>
        <time>2022-08-29T08:01:52Z</time>
      </trkpt>
      <trkpt lat="47.90277" lon="6.91229">
        <ele>1119.6</ele>
        <time>2022-08-29T08:01:53Z</time>
      </trkpt>
      <trkpt lat="47.90278" lon="6.91228">
        <ele>1119.3</ele>
        <time>2022-08-29T08:01:54Z</time>
      </trkpt>
      <trkpt lat="47.90278" lon="6.91227">
        <ele>1119.3</ele>
        <time>2022-08-29T08:01:55Z</time>
      </trkpt>
      <trkpt lat="47.90279" lon="6.91226">
        <ele>1118.8</ele>
        <time>2022-08-29T08:01:56Z</time>
      </trkpt>
      <trkpt lat="47.90279" lon="6.91225">
        <ele>1118.8</ele>
        <time>2022-08-29T08:01:57Z</time>
      </trkpt>
      <trkpt lat="47.9028" lon="6.91224">
        <ele>1118.4</ele>
        <time>2022-08-29T08:01:58Z</time>
      </trkpt>
      <trkpt lat="47.9028" lon="6.91223">
        <ele>1118.3</ele>
        <time>2022-08-29T08:01:59Z</time>
      </trkpt>
      <trkpt lat="47.9028" lon="6.91222">
        <ele>1118.2</ele>
        <time>2022-08-29T08:02:00Z</time>
      </trkpt>
      <trkpt lat="47.90281" lon="6.9122">
        <ele>1117.5</ele>
        <time>2022-08-29T08:02:01Z</time>
      </trkpt>
      <trkpt lat="47.90281" lon="6.91219">
        <ele>1117.3</ele>
        <time>2022-08-29T08:02:02Z</time>
      </trkpt>
      <trkpt lat="47.90282" lon="6.91218">
        <ele>1116.8</ele>
        <time>2022-08-29T08:02:03Z</time>
      </trkpt>
      <trkpt lat="47.90283" lon="6.91217">
        <ele>1116.3</ele>
        <time>2022-08-29T08:02:05Z</time>
      </trkpt>
      <trkpt lat="47.90283" lon="6.91216">
        <ele>1116.1</ele>
        <time>2022-08-29T08:02:06Z</time>
      </trkpt>
      <trkpt lat="47.90284" lon="6.91215">
        <ele>1115.6</ele>
        <time>2022-08-29T08:02:07Z</time>
      </trkpt>
      <trkpt lat="47.90285" lon="6.91214">
        <ele>1115.2</ele>
        <time>2022-08-29T08:02:08Z</time>
      </trkpt>
      <trkpt lat="47.90285" lon="6.91213">
        <ele>1115</ele>
        <time>2022-08-29T08:02:09Z</time>
      </trkpt>
      <trkpt lat="47.90286" lon="6.91212">
        <ele>1114.6</ele>
        <time>2022-08-29T08:02:10Z</time>
      </trkpt>
      <trkpt lat="47.90287" lon="6.91212">
        <ele>1114.4</ele>
        <time>2022-08-29T08:02:11Z</time>
      </trkpt>
      <trkpt lat="47.90287" lon="6.91211">
        <ele>1114.3</ele>
        <time>2022-08-29T08:02:12Z</time>
      </trkpt>
      <trkpt lat="47.90288" lon="6.9121">
        <ele>1113.9</ele>
        <time>2022-08-29T08:02:13Z</time>
      </trkpt>
      <trkpt lat="47.90289" lon="6.9121">
        <ele>1113.7</ele>
        <time>2022-08-29T08:02:14Z</time>
      </trkpt>
      <trkpt lat="47.90289" lon="6.91209">
        <ele>1113.6</ele>
        <time>2022-08-29T08:02:15Z</time>
      </trkpt>
      <trkpt lat="47.9029" lon="6.91209">
        <ele>1113.4</ele>
        <time>2022-08-29T08:02:16Z</time>
      </trkpt>
      <trkpt lat="47.9029" lon="6.91208">
        <ele>1113.3</ele>
        <time>2022-08-29T08:02:17Z</time>
      </trkpt>
      <trkpt lat="47.90291" lon="6.91208">
        <ele>1113.1</ele>
        <time>2022-08-29T08:02:18Z</time>
      </trkpt>
      <trkpt lat="47.90292" lon="6.91207">
        <ele>1112.8</ele>
        <time>2022-08-29T08:02:19Z</time>
      </trkpt>
      <trkpt lat="47.90292" lon="6.91206">
        <ele>1112.7</ele>
        <time>2022-08-29T08:02:20Z</time>
      </trkpt>
      <trkpt lat="47.90293" lon="6.91205">
        <ele>1112.4</ele>
        <time>2022-08-29T08:02:21Z</time>
      </trkpt>
      <trkpt lat="47.90294" lon="6.91204">
        <ele>1112.2</ele>
        <time>2022-08-29T08:02:23Z</time>
      </trkpt>
      <trkpt lat="47.90294" lon="6.91203">
        <ele>1112.1</ele>
        <time>2022-08-29T08:02:24Z</time>
      </trkpt>
      <trkpt lat="47.90295" lon="6.91203">
        <ele>1112</ele>
        <time>2022-08-29T08:02:25Z</time>
      </trkpt>
      <trkpt lat="47.90295" lon="6.91202">
        <ele>1111.9</ele>
        <time>2022-08-29T08:02:26Z</time>
      </trkpt>
      <trkpt lat="47.90295" lon="6.91201">
        <ele>1111.9</ele>
        <time>2022-08-29T08:02:27Z</time>
      </trkpt>
      <trkpt lat="47.90296" lon="6.91201">
        <ele>1111.8</ele>
        <time>2022-08-29T08:02:28Z</time>
      </trkpt>
      <trkpt lat="47.90296" lon="6.912">
        <ele>1111.7</ele>
        <time>2022-08-29T08:02:29Z</time>
      </trkpt>
      <trkpt lat="47.90297" lon="6.91199">
        <ele>1111.5</ele>
        <time>2022-08-29T08:02:30Z</time>
      </trkpt>
      <trkpt lat="47.90298" lon="6.91198">
        <ele>1111.4</ele>
        <time>2022-08-29T08:02:32Z</time>
      </trkpt>
      <trkpt lat="47.90299" lon="6.91197">
        <ele>1111.3</ele>
        <time>2022-08-29T08:02:33Z</time>
      </trkpt>
      <trkpt lat="47.90299" lon="6.91196">
        <ele>1111.3</ele>
        <time>2022-08-29T08:02:34Z</time>
      </trkpt>
      <trkpt lat="47.903" lon="6.91195">
        <ele>1111.2</ele>
        <time>2022-08-29T08:02:35Z</time>
      </trkpt>
      <trkpt lat="47.90301" lon="6.91195">
        <ele>1111.2</ele>
        <time>2022-08-29T08:02:36Z</time>
      </trkpt>
      <trkpt lat="47.90301" lon="6.91194">
        <ele>1111.1</ele>
        <time>2022-08-29T08:02:37Z</time>
      </trkpt>
      <trkpt lat="47.90302" lon="6.91193">
        <ele>1110.9</ele>
        <time>2022-08-29T08:02:38Z</time>
      </trkpt>
      <trkpt lat="47.90303" lon="6.91192">
        <ele>1110.6</ele>
        <time>2022-08-29T08:02:39Z</time>
      </trkpt>
      <trkpt lat="47.90304" lon="6.91191">
        <ele>1110.4</ele>
        <time>2022-08-29T08:02:41Z</time>
      </trkpt>
      <trkpt lat="47.90305" lon="6.91191">
        <ele>1110.4</ele>
        <time>2022-08-29T08:02:42Z</time>
      </trkpt>
      <trkpt lat="47.90306" lon="6.91191">
        <ele>1110.2</ele>
        <time>2022-08-29T08:02:43Z</time>
      </trkpt>
      <trkpt lat="47.90307" lon="6.91191">
        <ele>1109.8</ele>
        <time>2022-08-29T08:02:44Z</time>
      </trkpt>
      <trkpt lat="47.90307" lon="6.9119">
        <ele>1109.7</ele>
        <time>2022-08-29T08:02:45Z</time>
      </trkpt>
      <trkpt lat="47.90308" lon="6.9119">
        <ele>1109.3</ele>
        <time>2022-08-29T08:02:46Z</time>
      </trkpt>
      <trkpt lat="47.90309" lon="6.91189">
        <ele>1108.8</ele>
        <time>2022-08-29T08:02:47Z</time>
      </trkpt>
      <trkpt lat="47.90309" lon="6.91188">
        <ele>1108.7</ele>
        <time>2022-08-29T08:02:48Z</time>
      </trkpt>
      <trkpt lat="47.9031" lon="6.91187">
        <ele>1108.2</ele>
        <time>2022-08-29T08:02:49Z</time>
      </trkpt>
      <trkpt lat="47.9031" lon="6.91185">
        <ele>1108</ele>
        <time>2022-08-29T08:02:50Z</time>
      </trkpt>
      <trkpt lat="47.9031" lon="6.91184">
        <ele>1107.9</ele>
        <time>2022-08-29T08:02:51Z</time>
      </trkpt>
      <trkpt lat="47.9031" lon="6.91183">
        <ele>1107.7</ele>
        <time>2022-08-29T08:02:52Z</time>
      </trkpt>
      <trkpt lat="47.90311" lon="6.91182">
        <ele>1107.4</ele>
        <time>2022-08-29T08:02:53Z</time>
      </trkpt>
      <trkpt lat="47.90311" lon="6.91181">
        <ele>1107.3</ele>
        <time>2022-08-29T08:02:54Z</time>
      </trkpt>
      <trkpt lat="47.90312" lon="6.9118">
        <ele>1106.9</ele>
        <time>2022-08-29T08:02:55Z</time>
      </trkpt>
      <trkpt lat="47.90313" lon="6.91179">
        <ele>1106.6</ele>
        <time>2022-08-29T08:02:57Z</time>
      </trkpt>
      <trkpt lat="47.90313" lon="6.91178">
        <ele>1106.6</ele>
        <time>2022-08-29T08:02:58Z</time>
      </trkpt>
      <trkpt lat="47.90313" lon="6.91177">
        <ele>1106.5</ele>
        <time>2022-08-29T08:02:59Z</time>
      </trkpt>
      <trkpt lat="47.90314" lon="6.91175">
        <ele>1106.2</ele>
        <time>2022-08-29T08:03:00Z</time>
      </trkpt>
      <trkpt lat="47.90315" lon="6.91174">
        <ele>1106</ele>
        <time>2022-08-29T08:03:01Z</time>
      </trkpt>
      <trkpt lat="47.90317" lon="6.91173">
        <ele>1105.7</ele>
        <time>2022-08-29T08:03:02Z</time>
      </trkpt>
      <trkpt lat="47.90318" lon="6.91172">
        <ele>1105.6</ele>
        <time>2022-08-29T08:03:03Z</time>
      </trkpt>
      <trkpt lat="47.90319" lon="6.91171">
        <ele>1105.5</ele>
        <time>2022-08-29T08:03:04Z</time>
      </trkpt>
      <trkpt lat="47.90321" lon="6.9117">
        <ele>1105.3</ele>
        <time>2022-08-29T08:03:05Z</time>
      </trkpt>
      <trkpt lat="47.90322" lon="6.9117">
        <ele>1105.2</ele>
        <time>2022-08-29T08:03:06Z</time>
      </trkpt>
      <trkpt lat="47.90323" lon="6.91169">
        <ele>1105.2</ele>
        <time>2022-08-29T08:03:07Z</time>
      </trkpt>
      <trkpt lat="47.90324" lon="6.91168">
        <ele>1105.2</ele>
        <time>2022-08-29T08:03:08Z</time>
      </trkpt>
      <trkpt lat="47.90325" lon="6.91168">
        <ele>1105.2</ele>
        <time>2022-08-29T08:03:09Z</time>
      </trkpt>
      <trkpt lat="47.90326" lon="6.91167">
        <ele>1105.2</ele>
        <time>2022-08-29T08:03:10Z</time>
      </trkpt>
      <trkpt lat="47.90327" lon="6.91167">
        <ele>1105.2</ele>
        <time>2022-08-29T08:03:12Z</time>
      </trkpt>
      <trkpt lat="47.90328" lon="6.91167">
        <ele>1105.1</ele>
        <time>2022-08-29T08:03:13Z</time>
      </trkpt>
      <trkpt lat="47.90328" lon="6.91166">
        <ele>1105.1</ele>
        <time>2022-08-29T08:03:14Z</time>
      </trkpt>
      <trkpt lat="47.90329" lon="6.91166">
        <ele>1105.1</ele>
        <time>2022-08-29T08:03:15Z</time>
      </trkpt>
      <trkpt lat="47.9033" lon="6.91166">
        <ele>1105</ele>
        <time>2022-08-29T08:03:16Z</time>
      </trkpt>
      <trkpt lat="47.90331" lon="6.91166">
        <ele>1105</ele>
        <time>2022-08-29T08:03:26Z</time>
      </trkpt>
      <trkpt lat="47.90332" lon="6.91166">
        <ele>1105</ele>
        <time>2022-08-29T08:03:27Z</time>
      </trkpt>
      <trkpt lat="47.90332" lon="6.91165">
        <ele>1104.9</ele>
        <time>2022-08-29T08:03:29Z</time>
      </trkpt>
      <trkpt lat="47.90333" lon="6.91165">
        <ele>1104.8</ele>
        <time>2022-08-29T08:03:30Z</time>
      </trkpt>
      <trkpt lat="47.90333" lon="6.91164">
        <ele>1104.7</ele>
        <time>2022-08-29T08:03:31Z</time>
      </trkpt>
      <trkpt lat="47.90333" lon="6.91163">
        <ele>1104.6</ele>
        <time>2022-08-29T08:03:32Z</time>
      </trkpt>
      <trkpt lat="47.90334" lon="6.91162">
        <ele>1104.4</ele>
        <time>2022-08-29T08:03:33Z</time>
      </trkpt>
      <trkpt lat="47.90334" lon="6.91161">
        <ele>1104.3</ele>
        <time>2022-08-29T08:03:34Z</time>
      </trkpt>
      <trkpt lat="47.90335" lon="6.9116">
        <ele>1104.1</ele>
        <time>2022-08-29T08:03:35Z</time>
      </trkpt>
      <trkpt lat="47.90335" lon="6.91159">
        <ele>1104</ele>
        <time>2022-08-29T08:03:36Z</time>
      </trkpt>
      <trkpt lat="47.90336" lon="6.91159">
        <ele>1103.9</ele>
        <time>2022-08-29T08:03:37Z</time>
      </trkpt>
      <trkpt lat="47.90337" lon="6.91158">
        <ele>1103.7</ele>
        <time>2022-08-29T08:03:38Z</time>
      </trkpt>
      <trkpt lat="47.90338" lon="6.91157">
        <ele>1103.5</ele>
        <time>2022-08-29T08:03:39Z</time>
      </trkpt>
      <trkpt lat="47.90339" lon="6.91157">
        <ele>1103.4</ele>
        <time>2022-08-29T08:03:40Z</time>
      </trkpt>
      <trkpt lat="47.90341" lon="6.91156">
        <ele>1103.1</ele>
        <time>2022-08-29T08:03:41Z</time>
      </trkpt>
      <trkpt lat="47.90342" lon="6.91155">
        <ele>1103</ele>
        <time>2022-08-29T08:03:42Z</time>
      </trkpt>
      <trkpt lat="47.90344" lon="6.91154">
        <ele>1102.8</ele>
        <time>2022-08-29T08:03:43Z</time>
      </trkpt>
      <trkpt lat="47.90345" lon="6.91154">
        <ele>1102.7</ele>
        <time>2022-08-29T08:03:44Z</time>
      </trkpt>
      <trkpt lat="47.90347" lon="6.91153">
        <ele>1102.5</ele>
        <time>2022-08-29T08:03:45Z</time>
      </trkpt>
      <trkpt lat="47.90349" lon="6.91152">
        <ele>1102.4</ele>
        <time>2022-08-29T08:03:46Z</time>
      </trkpt>
      <trkpt lat="47.90351" lon="6.91152">
        <ele>1102.3</ele>
        <time>2022-08-29T08:03:47Z</time>
      </trkpt>
      <trkpt lat="47.90353" lon="6.91151">
        <ele>1102.2</ele>
        <time>2022-08-29T08:03:48Z</time>
      </trkpt>
      <trkpt lat="47.90355" lon="6.91151">
        <ele>1102</ele>
        <time>2022-08-29T08:03:49Z</time>
      </trkpt>
      <trkpt lat="47.90356" lon="6.9115">
        <ele>1102.1</ele>
        <time>2022-08-29T08:03:50Z</time>
      </trkpt>
      <trkpt lat="47.90358" lon="6.9115">
        <ele>1102</ele>
        <time>2022-08-29T08:04:08Z</time>
      </trkpt>
      <trkpt lat="47.90358" lon="6.91149">
        <ele>1102</ele>
        <time>2022-08-29T08:04:09Z</time>
      </trkpt>
      <trkpt lat="47.90358" lon="6.91148">
        <ele>1102.1</ele>
        <time>2022-08-29T08:04:12Z</time>
      </trkpt>
      <trkpt lat="47.90357" lon="6.91148">
        <ele>1102.2</ele>
        <time>2022-08-29T08:04:13Z</time>
      </trkpt>
      <trkpt lat="47.90356" lon="6.91147">
        <ele>1102.3</ele>
        <time>2022-08-29T08:04:15Z</time>
      </trkpt>
      <trkpt lat="47.90355" lon="6.91147">
        <ele>1102.3</ele>
        <time>2022-08-29T08:04:17Z</time>
      </trkpt>
      <trkpt lat="47.90354" lon="6.91146">
        <ele>1102.4</ele>
        <time>2022-08-29T08:04:18Z</time>
      </trkpt>
      <trkpt lat="47.90353" lon="6.91146">
        <ele>1102.4</ele>
        <time>2022-08-29T08:04:19Z</time>
      </trkpt>
      <trkpt lat="47.90352" lon="6.91145">
        <ele>1102.4</ele>
        <time>2022-08-29T08:04:21Z</time>
      </trkpt>
      <trkpt lat="47.90351" lon="6.91145">
        <ele>1102.5</ele>
        <time>2022-08-29T08:04:22Z</time>
      </trkpt>
      <trkpt lat="47.90351" lon="6.91144">
        <ele>1102.5</ele>
        <time>2022-08-29T08:04:24Z</time>
      </trkpt>
      <trkpt lat="47.9035" lon="6.91143">
        <ele>1102.5</ele>
        <time>2022-08-29T08:04:25Z</time>
      </trkpt>
      <trkpt lat="47.9035" lon="6.91142">
        <ele>1102.5</ele>
        <time>2022-08-29T08:04:26Z</time>
      </trkpt>
      <trkpt lat="47.9035" lon="6.9114">
        <ele>1102.6</ele>
        <time>2022-08-29T08:04:27Z</time>
      </trkpt>
      <trkpt lat="47.9035" lon="6.91139">
        <ele>1102.6</ele>
        <time>2022-08-29T08:04:28Z</time>
      </trkpt>
      <trkpt lat="47.90349" lon="6.91137">
        <ele>1102.3</ele>
        <time>2022-08-29T08:04:29Z</time>
      </trkpt>
      <trkpt lat="47.90349" lon="6.91135">
        <ele>1102</ele>
        <time>2022-08-29T08:04:30Z</time>
      </trkpt>
      <trkpt lat="47.90349" lon="6.91134">
        <ele>1101.9</ele>
        <time>2022-08-29T08:04:31Z</time>
      </trkpt>
      <trkpt lat="47.90349" lon="6.91132">
        <ele>1101.6</ele>
        <time>2022-08-29T08:04:32Z</time>
      </trkpt>
      <trkpt lat="47.90349" lon="6.91131">
        <ele>1101.5</ele>
        <time>2022-08-29T08:04:33Z</time>
      </trkpt>
      <trkpt lat="47.90349" lon="6.9113">
        <ele>1101.3</ele>
        <time>2022-08-29T08:04:34Z</time>
      </trkpt>
      <trkpt lat="47.90349" lon="6.91128">
        <ele>1101</ele>
        <time>2022-08-29T08:04:35Z</time>
      </trkpt>
      <trkpt lat="47.90349" lon="6.91127">
        <ele>1100.9</ele>
        <time>2022-08-29T08:04:36Z</time>
      </trkpt>
      <trkpt lat="47.90349" lon="6.91126">
        <ele>1100.8</ele>
        <time>2022-08-29T08:04:37Z</time>
      </trkpt>
      <trkpt lat="47.90349" lon="6.91125">
        <ele>1100.6</ele>
        <time>2022-08-29T08:04:38Z</time>
      </trkpt>
      <trkpt lat="47.9035" lon="6.91124">
        <ele>1100.6</ele>
        <time>2022-08-29T08:04:39Z</time>
      </trkpt>
      <trkpt lat="47.9035" lon="6.91123">
        <ele>1100.4</ele>
        <time>2022-08-29T08:04:40Z</time>
      </trkpt>
      <trkpt lat="47.9035" lon="6.91122">
        <ele>1100.3</ele>
        <time>2022-08-29T08:04:41Z</time>
      </trkpt>
      <trkpt lat="47.9035" lon="6.9112">
        <ele>1100</ele>
        <time>2022-08-29T08:04:42Z</time>
      </trkpt>
      <trkpt lat="47.9035" lon="6.91119">
        <ele>1099.9</ele>
        <time>2022-08-29T08:04:43Z</time>
      </trkpt>
      <trkpt lat="47.9035" lon="6.91117">
        <ele>1099.6</ele>
        <time>2022-08-29T08:04:44Z</time>
      </trkpt>
      <trkpt lat="47.9035" lon="6.91116">
        <ele>1099.5</ele>
        <time>2022-08-29T08:04:45Z</time>
      </trkpt>
      <trkpt lat="47.9035" lon="6.91115">
        <ele>1099.3</ele>
        <time>2022-08-29T08:04:46Z</time>
      </trkpt>
      <trkpt lat="47.90351" lon="6.91114">
        <ele>1099.3</ele>
        <time>2022-08-29T08:04:47Z</time>
      </trkpt>
      <trkpt lat="47.90351" lon="6.91113">
        <ele>1099.2</ele>
        <time>2022-08-29T08:04:48Z</time>
      </trkpt>
      <trkpt lat="47.90352" lon="6.91113">
        <ele>1099.3</ele>
        <time>2022-08-29T08:04:49Z</time>
      </trkpt>
      <trkpt lat="47.90353" lon="6.91112">
        <ele>1099.2</ele>
        <time>2022-08-29T08:04:50Z</time>
      </trkpt>
      <trkpt lat="47.90354" lon="6.91112">
        <ele>1099.3</ele>
        <time>2022-08-29T08:04:51Z</time>
      </trkpt>
      <trkpt lat="47.90354" lon="6.91111">
        <ele>1099.2</ele>
        <time>2022-08-29T08:04:52Z</time>
      </trkpt>
      <trkpt lat="47.90355" lon="6.91111">
        <ele>1099.3</ele>
        <time>2022-08-29T08:04:53Z</time>
      </trkpt>
      <trkpt lat="47.90356" lon="6.9111">
        <ele>1099.3</ele>
        <time>2022-08-29T08:04:54Z</time>
      </trkpt>
      <trkpt lat="47.90357" lon="6.9111">
        <ele>1099.4</ele>
        <time>2022-08-29T08:04:55Z</time>
      </trkpt>
      <trkpt lat="47.90357" lon="6.91109">
        <ele>1099.2</ele>
        <time>2022-08-29T08:04:56Z</time>
      </trkpt>
      <trkpt lat="47.90358" lon="6.91108">
        <ele>1099.2</ele>
        <time>2022-08-29T08:04:57Z</time>
      </trkpt>
      <trkpt lat="47.90359" lon="6.91107">
        <ele>1099.2</ele>
        <time>2022-08-29T08:04:58Z</time>
      </trkpt>
      <trkpt lat="47.90359" lon="6.91106">
        <ele>1099</ele>
        <time>2022-08-29T08:04:59Z</time>
      </trkpt>
      <trkpt lat="47.90359" lon="6.91105">
        <ele>1098.9</ele>
        <time>2022-08-29T08:05:00Z</time>
      </trkpt>
      <trkpt lat="47.9036" lon="6.91104">
        <ele>1098.8</ele>
        <time>2022-08-29T08:05:01Z</time>
      </trkpt>
      <trkpt lat="47.9036" lon="6.91103">
        <ele>1098.7</ele>
        <time>2022-08-29T08:05:02Z</time>
      </trkpt>
      <trkpt lat="47.9036" lon="6.91102">
        <ele>1098.6</ele>
        <time>2022-08-29T08:05:03Z</time>
      </trkpt>
      <trkpt lat="47.9036" lon="6.91101">
        <ele>1098.4</ele>
        <time>2022-08-29T08:05:04Z</time>
      </trkpt>
      <trkpt lat="47.9036" lon="6.911">
        <ele>1098.3</ele>
        <time>2022-08-29T08:05:05Z</time>
      </trkpt>
      <trkpt lat="47.9036" lon="6.91099">
        <ele>1098.1</ele>
        <time>2022-08-29T08:05:06Z</time>
      </trkpt>
      <trkpt lat="47.9036" lon="6.91098">
        <ele>1098</ele>
        <time>2022-08-29T08:05:07Z</time>
      </trkpt>
      <trkpt lat="47.9036" lon="6.91097">
        <ele>1097.8</ele>
        <time>2022-08-29T08:05:08Z</time>
      </trkpt>
      <trkpt lat="47.9036" lon="6.91096">
        <ele>1097.7</ele>
        <time>2022-08-29T08:05:09Z</time>
      </trkpt>
      <trkpt lat="47.90359" lon="6.91096">
        <ele>1097.6</ele>
        <time>2022-08-29T08:05:10Z</time>
      </trkpt>
      <trkpt lat="47.90358" lon="6.91095">
        <ele>1097.3</ele>
        <time>2022-08-29T08:05:12Z</time>
      </trkpt>
      <trkpt lat="47.90357" lon="6.91094">
        <ele>1097</ele>
        <time>2022-08-29T08:05:14Z</time>
      </trkpt>
      <trkpt lat="47.90356" lon="6.91094">
        <ele>1096.9</ele>
        <time>2022-08-29T08:05:15Z</time>
      </trkpt>
      <trkpt lat="47.90356" lon="6.91093">
        <ele>1096.7</ele>
        <time>2022-08-29T08:05:16Z</time>
      </trkpt>
      <trkpt lat="47.90355" lon="6.91093">
        <ele>1096.6</ele>
        <time>2022-08-29T08:05:17Z</time>
      </trkpt>
      <trkpt lat="47.90354" lon="6.91092">
        <ele>1096.3</ele>
        <time>2022-08-29T08:05:18Z</time>
      </trkpt>
      <trkpt lat="47.90354" lon="6.91091">
        <ele>1096.2</ele>
        <time>2022-08-29T08:05:19Z</time>
      </trkpt>
      <trkpt lat="47.90353" lon="6.91091">
        <ele>1096</ele>
        <time>2022-08-29T08:05:20Z</time>
      </trkpt>
      <trkpt lat="47.90353" lon="6.9109">
        <ele>1095.9</ele>
        <time>2022-08-29T08:05:21Z</time>
      </trkpt>
      <trkpt lat="47.90353" lon="6.91089">
        <ele>1095.7</ele>
        <time>2022-08-29T08:05:22Z</time>
      </trkpt>
      <trkpt lat="47.90352" lon="6.91088">
        <ele>1095.4</ele>
        <time>2022-08-29T08:05:23Z</time>
      </trkpt>
      <trkpt lat="47.90351" lon="6.91087">
        <ele>1095.1</ele>
        <time>2022-08-29T08:05:25Z</time>
      </trkpt>
      <trkpt lat="47.9035" lon="6.91086">
        <ele>1094.8</ele>
        <time>2022-08-29T08:05:26Z</time>
      </trkpt>
      <trkpt lat="47.9035" lon="6.91085">
        <ele>1094.7</ele>
        <time>2022-08-29T08:05:27Z</time>
      </trkpt>
      <trkpt lat="47.90349" lon="6.91085">
        <ele>1094.5</ele>
        <time>2022-08-29T08:05:28Z</time>
      </trkpt>
      <trkpt lat="47.90348" lon="6.91084">
        <ele>1094.2</ele>
        <time>2022-08-29T08:05:29Z</time>
      </trkpt>
      <trkpt lat="47.90347" lon="6.91084">
        <ele>1094.1</ele>
        <time>2022-08-29T08:05:31Z</time>
      </trkpt>
      <trkpt lat="47.90347" lon="6.91083">
        <ele>1093.9</ele>
        <time>2022-08-29T08:05:32Z</time>
      </trkpt>
      <trkpt lat="47.90346" lon="6.91083">
        <ele>1093.8</ele>
        <time>2022-08-29T08:05:33Z</time>
      </trkpt>
      <trkpt lat="47.90345" lon="6.91082">
        <ele>1093.4</ele>
        <time>2022-08-29T08:05:34Z</time>
      </trkpt>
      <trkpt lat="47.90344" lon="6.91082">
        <ele>1093.3</ele>
        <time>2022-08-29T08:05:36Z</time>
      </trkpt>
      <trkpt lat="47.90343" lon="6.91082">
        <ele>1093.1</ele>
        <time>2022-08-29T08:05:37Z</time>
      </trkpt>
      <trkpt lat="47.90342" lon="6.91082">
        <ele>1093</ele>
        <time>2022-08-29T08:05:38Z</time>
      </trkpt>
      <trkpt lat="47.90341" lon="6.91083">
        <ele>1093</ele>
        <time>2022-08-29T08:05:39Z</time>
      </trkpt>
      <trkpt lat="47.9034" lon="6.91083">
        <ele>1092.9</ele>
        <time>2022-08-29T08:05:40Z</time>
      </trkpt>
      <trkpt lat="47.90339" lon="6.91084">
        <ele>1092.9</ele>
        <time>2022-08-29T08:05:41Z</time>
      </trkpt>
      <trkpt lat="47.90338" lon="6.91084">
        <ele>1092.8</ele>
        <time>2022-08-29T08:05:42Z</time>
      </trkpt>
      <trkpt lat="47.90337" lon="6.91084">
        <ele>1092.6</ele>
        <time>2022-08-29T08:05:43Z</time>
      </trkpt>
      <trkpt lat="47.90336" lon="6.91085">
        <ele>1092.7</ele>
        <time>2022-08-29T08:05:44Z</time>
      </trkpt>
      <trkpt lat="47.90335" lon="6.91085">
        <ele>1092.5</ele>
        <time>2022-08-29T08:05:45Z</time>
      </trkpt>
      <trkpt lat="47.90334" lon="6.91085">
        <ele>1092.4</ele>
        <time>2022-08-29T08:05:47Z</time>
      </trkpt>
      <trkpt lat="47.90333" lon="6.91085">
        <ele>1092.2</ele>
        <time>2022-08-29T08:05:48Z</time>
      </trkpt>
      <trkpt lat="47.90332" lon="6.91085">
        <ele>1092</ele>
        <time>2022-08-29T08:05:49Z</time>
      </trkpt>
      <trkpt lat="47.90331" lon="6.91085">
        <ele>1091.8</ele>
        <time>2022-08-29T08:05:50Z</time>
      </trkpt>
      <trkpt lat="47.9033" lon="6.91084">
        <ele>1091.4</ele>
        <time>2022-08-29T08:05:52Z</time>
      </trkpt>
      <trkpt lat="47.90329" lon="6.91084">
        <ele>1091.2</ele>
        <time>2022-08-29T08:05:53Z</time>
      </trkpt>
      <trkpt lat="47.90328" lon="6.91084">
        <ele>1091</ele>
        <time>2022-08-29T08:05:54Z</time>
      </trkpt>
      <trkpt lat="47.90327" lon="6.91084">
        <ele>1090.8</ele>
        <time>2022-08-29T08:05:55Z</time>
      </trkpt>
      <trkpt lat="47.90326" lon="6.91084">
        <ele>1090.5</ele>
        <time>2022-08-29T08:05:56Z</time>
      </trkpt>
      <trkpt lat="47.90326" lon="6.91085">
        <ele>1090.7</ele>
        <time>2022-08-29T08:05:57Z</time>
      </trkpt>
      <trkpt lat="47.90325" lon="6.91085">
        <ele>1090.5</ele>
        <time>2022-08-29T08:05:58Z</time>
      </trkpt>
      <trkpt lat="47.90324" lon="6.91085">
        <ele>1090.3</ele>
        <time>2022-08-29T08:05:59Z</time>
      </trkpt>
      <trkpt lat="47.90323" lon="6.91085">
        <ele>1090.1</ele>
        <time>2022-08-29T08:06:00Z</time>
      </trkpt>
      <trkpt lat="47.90322" lon="6.91085">
        <ele>1089.9</ele>
        <time>2022-08-29T08:06:01Z</time>
      </trkpt>
      <trkpt lat="47.90321" lon="6.91085">
        <ele>1089.7</ele>
        <time>2022-08-29T08:06:03Z</time>
      </trkpt>
      <trkpt lat="47.9032" lon="6.91085">
        <ele>1089.5</ele>
        <time>2022-08-29T08:06:04Z</time>
      </trkpt>
      <trkpt lat="47.90319" lon="6.91085">
        <ele>1089.3</ele>
        <time>2022-08-29T08:06:06Z</time>
      </trkpt>
      <trkpt lat="47.90319" lon="6.91084">
        <ele>1089</ele>
        <time>2022-08-29T08:06:07Z</time>
      </trkpt>
      <trkpt lat="47.90318" lon="6.91084">
        <ele>1088.8</ele>
        <time>2022-08-29T08:06:08Z</time>
      </trkpt>
      <trkpt lat="47.90317" lon="6.91084">
        <ele>1088.6</ele>
        <time>2022-08-29T08:06:09Z</time>
      </trkpt>
      <trkpt lat="47.90317" lon="6.91085">
        <ele>1088.8</ele>
        <time>2022-08-29T08:06:10Z</time>
      </trkpt>
      <trkpt lat="47.90316" lon="6.91085">
        <ele>1088.6</ele>
        <time>2022-08-29T08:06:11Z</time>
      </trkpt>
      <trkpt lat="47.90315" lon="6.91086">
        <ele>1088.6</ele>
        <time>2022-08-29T08:06:12Z</time>
      </trkpt>
      <trkpt lat="47.90314" lon="6.91087">
        <ele>1088.7</ele>
        <time>2022-08-29T08:06:13Z</time>
      </trkpt>
      <trkpt lat="47.90313" lon="6.91087">
        <ele>1088.5</ele>
        <time>2022-08-29T08:06:14Z</time>
      </trkpt>
      <trkpt lat="47.90312" lon="6.91088">
        <ele>1088.5</ele>
        <time>2022-08-29T08:06:15Z</time>
      </trkpt>
      <trkpt lat="47.90311" lon="6.91089">
        <ele>1088.5</ele>
        <time>2022-08-29T08:06:16Z</time>
      </trkpt>
      <trkpt lat="47.9031" lon="6.91089">
        <ele>1088.3</ele>
        <time>2022-08-29T08:06:17Z</time>
      </trkpt>
      <trkpt lat="47.90309" lon="6.9109">
        <ele>1088.4</ele>
        <time>2022-08-29T08:06:18Z</time>
      </trkpt>
      <trkpt lat="47.90308" lon="6.91091">
        <ele>1088.4</ele>
        <time>2022-08-29T08:06:19Z</time>
      </trkpt>
      <trkpt lat="47.90307" lon="6.91092">
        <ele>1088.5</ele>
        <time>2022-08-29T08:06:20Z</time>
      </trkpt>
      <trkpt lat="47.90306" lon="6.91093">
        <ele>1088.5</ele>
        <time>2022-08-29T08:06:21Z</time>
      </trkpt>
      <trkpt lat="47.90306" lon="6.91094">
        <ele>1088.8</ele>
        <time>2022-08-29T08:06:22Z</time>
      </trkpt>
      <trkpt lat="47.90305" lon="6.91094">
        <ele>1088.6</ele>
        <time>2022-08-29T08:06:23Z</time>
      </trkpt>
      <trkpt lat="47.90304" lon="6.91095">
        <ele>1088.7</ele>
        <time>2022-08-29T08:06:24Z</time>
      </trkpt>
      <trkpt lat="47.90303" lon="6.91095">
        <ele>1088.5</ele>
        <time>2022-08-29T08:06:25Z</time>
      </trkpt>
      <trkpt lat="47.90302" lon="6.91095">
        <ele>1088.3</ele>
        <time>2022-08-29T08:06:26Z</time>
      </trkpt>
      <trkpt lat="47.903" lon="6.91094">
        <ele>1087.6</ele>
        <time>2022-08-29T08:06:27Z</time>
      </trkpt>
      <trkpt lat="47.90299" lon="6.91094">
        <ele>1087.5</ele>
        <time>2022-08-29T08:06:28Z</time>
      </trkpt>
      <trkpt lat="47.90298" lon="6.91093">
        <ele>1087</ele>
        <time>2022-08-29T08:06:29Z</time>
      </trkpt>
      <trkpt lat="47.90296" lon="6.91092">
        <ele>1086.3</ele>
        <time>2022-08-29T08:06:30Z</time>
      </trkpt>
      <trkpt lat="47.90295" lon="6.91092">
        <ele>1086.1</ele>
        <time>2022-08-29T08:06:31Z</time>
      </trkpt>
      <trkpt lat="47.90293" lon="6.91091">
        <ele>1085.5</ele>
        <time>2022-08-29T08:06:32Z</time>
      </trkpt>
      <trkpt lat="47.90292" lon="6.91091">
        <ele>1085.3</ele>
        <time>2022-08-29T08:06:33Z</time>
      </trkpt>
      <trkpt lat="47.9029" lon="6.9109">
        <ele>1084.6</ele>
        <time>2022-08-29T08:06:34Z</time>
      </trkpt>
      <trkpt lat="47.90289" lon="6.9109">
        <ele>1084.4</ele>
        <time>2022-08-29T08:06:35Z</time>
      </trkpt>
      <trkpt lat="47.90288" lon="6.9109">
        <ele>1084.2</ele>
        <time>2022-08-29T08:06:36Z</time>
      </trkpt>
      <trkpt lat="47.90287" lon="6.91089">
        <ele>1083.7</ele>
        <time>2022-08-29T08:06:37Z</time>
      </trkpt>
      <trkpt lat="47.90286" lon="6.91089">
        <ele>1083.5</ele>
        <time>2022-08-29T08:06:38Z</time>
      </trkpt>
      <trkpt lat="47.90285" lon="6.91089">
        <ele>1083.3</ele>
        <time>2022-08-29T08:06:39Z</time>
      </trkpt>
      <trkpt lat="47.90284" lon="6.91088">
        <ele>1082.8</ele>
        <time>2022-08-29T08:06:40Z</time>
      </trkpt>
      <trkpt lat="47.90283" lon="6.91087">
        <ele>1082.3</ele>
        <time>2022-08-29T08:06:41Z</time>
      </trkpt>
      <trkpt lat="47.90282" lon="6.91087">
        <ele>1082.1</ele>
        <time>2022-08-29T08:06:42Z</time>
      </trkpt>
      <trkpt lat="47.9028" lon="6.91086">
        <ele>1081.3</ele>
        <time>2022-08-29T08:06:43Z</time>
      </trkpt>
      <trkpt lat="47.90279" lon="6.91086">
        <ele>1081.1</ele>
        <time>2022-08-29T08:06:45Z</time>
      </trkpt>
      <trkpt lat="47.90278" lon="6.91086">
        <ele>1080.9</ele>
        <time>2022-08-29T08:06:46Z</time>
      </trkpt>
      <trkpt lat="47.90277" lon="6.91086">
        <ele>1080.7</ele>
        <time>2022-08-29T08:06:47Z</time>
      </trkpt>
      <trkpt lat="47.90276" lon="6.91086">
        <ele>1080.5</ele>
        <time>2022-08-29T08:06:49Z</time>
      </trkpt>
      <trkpt lat="47.90275" lon="6.91086">
        <ele>1080.4</ele>
        <time>2022-08-29T08:06:50Z</time>
      </trkpt>
      <trkpt lat="47.90274" lon="6.91086">
        <ele>1080.2</ele>
        <time>2022-08-29T08:06:51Z</time>
      </trkpt>
      <trkpt lat="47.90273" lon="6.91085">
        <ele>1079.7</ele>
        <time>2022-08-29T08:06:52Z</time>
      </trkpt>
      <trkpt lat="47.90272" lon="6.91085">
        <ele>1079.5</ele>
        <time>2022-08-29T08:06:53Z</time>
      </trkpt>
      <trkpt lat="47.90271" lon="6.91085">
        <ele>1079.3</ele>
        <time>2022-08-29T08:06:54Z</time>
      </trkpt>
      <trkpt lat="47.9027" lon="6.91085">
        <ele>1079.1</ele>
        <time>2022-08-29T08:06:55Z</time>
      </trkpt>
      <trkpt lat="47.90269" lon="6.91085">
        <ele>1079</ele>
        <time>2022-08-29T08:06:56Z</time>
      </trkpt>
      <trkpt lat="47.90268" lon="6.91086">
        <ele>1079.1</ele>
        <time>2022-08-29T08:06:57Z</time>
      </trkpt>
      <trkpt lat="47.90267" lon="6.91086">
        <ele>1078.9</ele>
        <time>2022-08-29T08:06:58Z</time>
      </trkpt>
      <trkpt lat="47.90266" lon="6.91086">
        <ele>1078.7</ele>
        <time>2022-08-29T08:06:59Z</time>
      </trkpt>
      <trkpt lat="47.90265" lon="6.91086">
        <ele>1078.6</ele>
        <time>2022-08-29T08:07:00Z</time>
      </trkpt>
      <trkpt lat="47.90264" lon="6.91086">
        <ele>1078.4</ele>
        <time>2022-08-29T08:07:01Z</time>
      </trkpt>
      <trkpt lat="47.90263" lon="6.91086">
        <ele>1078.2</ele>
        <time>2022-08-29T08:07:02Z</time>
      </trkpt>
      <trkpt lat="47.90262" lon="6.91086">
        <ele>1078</ele>
        <time>2022-08-29T08:07:04Z</time>
      </trkpt>
      <trkpt lat="47.90261" lon="6.91086">
        <ele>1077.8</ele>
        <time>2022-08-29T08:07:05Z</time>
      </trkpt>
      <trkpt lat="47.90261" lon="6.91087">
        <ele>1078.2</ele>
        <time>2022-08-29T08:07:06Z</time>
      </trkpt>
      <trkpt lat="47.9026" lon="6.91087">
        <ele>1078</ele>
        <time>2022-08-29T08:07:07Z</time>
      </trkpt>
      <trkpt lat="47.90259" lon="6.91087">
        <ele>1077.8</ele>
        <time>2022-08-29T08:07:08Z</time>
      </trkpt>
      <trkpt lat="47.90258" lon="6.91087">
        <ele>1077.6</ele>
        <time>2022-08-29T08:07:09Z</time>
      </trkpt>
      <trkpt lat="47.90257" lon="6.91087">
        <ele>1077.4</ele>
        <time>2022-08-29T08:07:10Z</time>
      </trkpt>
      <trkpt lat="47.90257" lon="6.91086">
        <ele>1077.1</ele>
        <time>2022-08-29T08:07:11Z</time>
      </trkpt>
      <trkpt lat="47.90256" lon="6.91085">
        <ele>1076.6</ele>
        <time>2022-08-29T08:07:12Z</time>
      </trkpt>
      <trkpt lat="47.90255" lon="6.91085">
        <ele>1076.4</ele>
        <time>2022-08-29T08:07:13Z</time>
      </trkpt>
      <trkpt lat="47.90255" lon="6.91084">
        <ele>1076.1</ele>
        <time>2022-08-29T08:07:14Z</time>
      </trkpt>
      <trkpt lat="47.90255" lon="6.91083">
        <ele>1075.8</ele>
        <time>2022-08-29T08:07:15Z</time>
      </trkpt>
      <trkpt lat="47.90254" lon="6.91083">
        <ele>1075.6</ele>
        <time>2022-08-29T08:07:16Z</time>
      </trkpt>
      <trkpt lat="47.90254" lon="6.91082">
        <ele>1075.2</ele>
        <time>2022-08-29T08:07:18Z</time>
      </trkpt>
      <trkpt lat="47.90253" lon="6.91081">
        <ele>1074.7</ele>
        <time>2022-08-29T08:07:19Z</time>
      </trkpt>
      <trkpt lat="47.90252" lon="6.9108">
        <ele>1074.2</ele>
        <time>2022-08-29T08:07:21Z</time>
      </trkpt>
      <trkpt lat="47.90251" lon="6.91079">
        <ele>1073.6</ele>
        <time>2022-08-29T08:07:22Z</time>
      </trkpt>
      <trkpt lat="47.90251" lon="6.91078">
        <ele>1073.3</ele>
        <time>2022-08-29T08:07:23Z</time>
      </trkpt>
      <trkpt lat="47.90251" lon="6.91077">
        <ele>1072.9</ele>
        <time>2022-08-29T08:07:24Z</time>
      </trkpt>
      <trkpt lat="47.90251" lon="6.91076">
        <ele>1072.5</ele>
        <time>2022-08-29T08:07:25Z</time>
      </trkpt>
      <trkpt lat="47.9025" lon="6.91075">
        <ele>1072</ele>
        <time>2022-08-29T08:07:26Z</time>
      </trkpt>
      <trkpt lat="47.9025" lon="6.91074">
        <ele>1071.6</ele>
        <time>2022-08-29T08:07:28Z</time>
      </trkpt>
      <trkpt lat="47.9025" lon="6.91073">
        <ele>1071.3</ele>
        <time>2022-08-29T08:07:29Z</time>
      </trkpt>
      <trkpt lat="47.9025" lon="6.91072">
        <ele>1070.9</ele>
        <time>2022-08-29T08:07:31Z</time>
      </trkpt>
      <trkpt lat="47.90251" lon="6.91071">
        <ele>1070.8</ele>
        <time>2022-08-29T08:07:32Z</time>
      </trkpt>
      <trkpt lat="47.90252" lon="6.9107">
        <ele>1070.6</ele>
        <time>2022-08-29T08:07:34Z</time>
      </trkpt>
      <trkpt lat="47.90253" lon="6.91069">
        <ele>1070.4</ele>
        <time>2022-08-29T08:07:36Z</time>
      </trkpt>
      <trkpt lat="47.90253" lon="6.91068">
        <ele>1070.1</ele>
        <time>2022-08-29T08:07:37Z</time>
      </trkpt>
      <trkpt lat="47.90253" lon="6.91067">
        <ele>1069.7</ele>
        <time>2022-08-29T08:07:38Z</time>
      </trkpt>
      <trkpt lat="47.90254" lon="6.91067">
        <ele>1069.9</ele>
        <time>2022-08-29T08:07:39Z</time>
      </trkpt>
      <trkpt lat="47.90254" lon="6.91066">
        <ele>1069.6</ele>
        <time>2022-08-29T08:07:40Z</time>
      </trkpt>
      <trkpt lat="47.90255" lon="6.91066">
        <ele>1069.8</ele>
        <time>2022-08-29T08:07:41Z</time>
      </trkpt>
      <trkpt lat="47.90255" lon="6.91065">
        <ele>1069.4</ele>
        <time>2022-08-29T08:07:42Z</time>
      </trkpt>
      <trkpt lat="47.90256" lon="6.91065">
        <ele>1069.6</ele>
        <time>2022-08-29T08:07:43Z</time>
      </trkpt>
      <trkpt lat="47.90256" lon="6.91064">
        <ele>1069.3</ele>
        <time>2022-08-29T08:07:44Z</time>
      </trkpt>
      <trkpt lat="47.90256" lon="6.91063">
        <ele>1068.9</ele>
        <time>2022-08-29T08:07:45Z</time>
      </trkpt>
      <trkpt lat="47.90257" lon="6.91062">
        <ele>1068.8</ele>
        <time>2022-08-29T08:07:46Z</time>
      </trkpt>
      <trkpt lat="47.90258" lon="6.91061">
        <ele>1068.6</ele>
        <time>2022-08-29T08:07:48Z</time>
      </trkpt>
      <trkpt lat="47.90258" lon="6.9106">
        <ele>1068.3</ele>
        <time>2022-08-29T08:07:50Z</time>
      </trkpt>
      <trkpt lat="47.90259" lon="6.91059">
        <ele>1068.1</ele>
        <time>2022-08-29T08:07:51Z</time>
      </trkpt>
      <trkpt lat="47.9026" lon="6.91058">
        <ele>1068</ele>
        <time>2022-08-29T08:07:52Z</time>
      </trkpt>
      <trkpt lat="47.90261" lon="6.91057">
        <ele>1067.9</ele>
        <time>2022-08-29T08:07:54Z</time>
      </trkpt>
      <trkpt lat="47.90262" lon="6.91057">
        <ele>1068.1</ele>
        <time>2022-08-29T08:07:55Z</time>
      </trkpt>
      <trkpt lat="47.90263" lon="6.91056">
        <ele>1068</ele>
        <time>2022-08-29T08:07:56Z</time>
      </trkpt>
      <trkpt lat="47.90265" lon="6.91055">
        <ele>1068.1</ele>
        <time>2022-08-29T08:07:57Z</time>
      </trkpt>
      <trkpt lat="47.90266" lon="6.91054">
        <ele>1068</ele>
        <time>2022-08-29T08:07:58Z</time>
      </trkpt>
      <trkpt lat="47.90267" lon="6.91053">
        <ele>1068</ele>
        <time>2022-08-29T08:07:59Z</time>
      </trkpt>
      <trkpt lat="47.90268" lon="6.91052">
        <ele>1067.9</ele>
        <time>2022-08-29T08:08:00Z</time>
      </trkpt>
      <trkpt lat="47.90269" lon="6.91051">
        <ele>1067.9</ele>
        <time>2022-08-29T08:08:01Z</time>
      </trkpt>
      <trkpt lat="47.9027" lon="6.91051">
        <ele>1068.1</ele>
        <time>2022-08-29T08:08:02Z</time>
      </trkpt>
      <trkpt lat="47.90271" lon="6.91051">
        <ele>1068.3</ele>
        <time>2022-08-29T08:08:03Z</time>
      </trkpt>
      <trkpt lat="47.90273" lon="6.91051">
        <ele>1068.8</ele>
        <time>2022-08-29T08:08:04Z</time>
      </trkpt>
      <trkpt lat="47.90274" lon="6.9105">
        <ele>1068.7</ele>
        <time>2022-08-29T08:08:05Z</time>
      </trkpt>
      <trkpt lat="47.90275" lon="6.9105">
        <ele>1069</ele>
        <time>2022-08-29T08:08:06Z</time>
      </trkpt>
      <trkpt lat="47.90277" lon="6.91049">
        <ele>1069.2</ele>
        <time>2022-08-29T08:08:07Z</time>
      </trkpt>
      <trkpt lat="47.90278" lon="6.91047">
        <ele>1068.9</ele>
        <time>2022-08-29T08:08:08Z</time>
      </trkpt>
      <trkpt lat="47.90278" lon="6.91046">
        <ele>1068.7</ele>
        <time>2022-08-29T08:08:09Z</time>
      </trkpt>
      <trkpt lat="47.90278" lon="6.91045">
        <ele>1068.4</ele>
        <time>2022-08-29T08:08:10Z</time>
      </trkpt>
      <trkpt lat="47.90279" lon="6.91045">
        <ele>1068.7</ele>
        <time>2022-08-29T08:08:11Z</time>
      </trkpt>
      <trkpt lat="47.90279" lon="6.91043">
        <ele>1068.2</ele>
        <time>2022-08-29T08:08:12Z</time>
      </trkpt>
      <trkpt lat="47.9028" lon="6.91042">
        <ele>1068.3</ele>
        <time>2022-08-29T08:08:13Z</time>
      </trkpt>
      <trkpt lat="47.9028" lon="6.91041">
        <ele>1068.1</ele>
        <time>2022-08-29T08:08:14Z</time>
      </trkpt>
      <trkpt lat="47.90281" lon="6.9104">
        <ele>1068.1</ele>
        <time>2022-08-29T08:08:15Z</time>
      </trkpt>
      <trkpt lat="47.90281" lon="6.91039">
        <ele>1067.9</ele>
        <time>2022-08-29T08:08:16Z</time>
      </trkpt>
      <trkpt lat="47.90282" lon="6.91038">
        <ele>1067.9</ele>
        <time>2022-08-29T08:08:17Z</time>
      </trkpt>
      <trkpt lat="47.90282" lon="6.91037">
        <ele>1067.7</ele>
        <time>2022-08-29T08:08:18Z</time>
      </trkpt>
      <trkpt lat="47.90282" lon="6.91036">
        <ele>1067.4</ele>
        <time>2022-08-29T08:08:19Z</time>
      </trkpt>
      <trkpt lat="47.90283" lon="6.91035">
        <ele>1067.5</ele>
        <time>2022-08-29T08:08:21Z</time>
      </trkpt>
      <trkpt lat="47.90283" lon="6.91033">
        <ele>1067</ele>
        <time>2022-08-29T08:08:22Z</time>
      </trkpt>
      <trkpt lat="47.90283" lon="6.91032">
        <ele>1066.8</ele>
        <time>2022-08-29T08:08:23Z</time>
      </trkpt>
      <trkpt lat="47.90283" lon="6.9103">
        <ele>1066.3</ele>
        <time>2022-08-29T08:08:24Z</time>
      </trkpt>
      <trkpt lat="47.90283" lon="6.91028">
        <ele>1065.7</ele>
        <time>2022-08-29T08:08:25Z</time>
      </trkpt>
      <trkpt lat="47.90284" lon="6.91026">
        <ele>1065.6</ele>
        <time>2022-08-29T08:08:26Z</time>
      </trkpt>
      <trkpt lat="47.90284" lon="6.91024">
        <ele>1065.2</ele>
        <time>2022-08-29T08:08:27Z</time>
      </trkpt>
      <trkpt lat="47.90285" lon="6.91023">
        <ele>1065.3</ele>
        <time>2022-08-29T08:08:28Z</time>
      </trkpt>
      <trkpt lat="47.90285" lon="6.91021">
        <ele>1064.8</ele>
        <time>2022-08-29T08:08:29Z</time>
      </trkpt>
      <trkpt lat="47.90286" lon="6.91019">
        <ele>1064.7</ele>
        <time>2022-08-29T08:08:30Z</time>
      </trkpt>
      <trkpt lat="47.90286" lon="6.91017">
        <ele>1064.2</ele>
        <time>2022-08-29T08:08:31Z</time>
      </trkpt>
      <trkpt lat="47.90287" lon="6.91016">
        <ele>1064.3</ele>
        <time>2022-08-29T08:08:32Z</time>
      </trkpt>
      <trkpt lat="47.90287" lon="6.91015">
        <ele>1064.1</ele>
        <time>2022-08-29T08:08:33Z</time>
      </trkpt>
      <trkpt lat="47.90288" lon="6.91013">
        <ele>1063.9</ele>
        <time>2022-08-29T08:08:34Z</time>
      </trkpt>
      <trkpt lat="47.90289" lon="6.91012">
        <ele>1064</ele>
        <time>2022-08-29T08:08:35Z</time>
      </trkpt>
      <trkpt lat="47.90289" lon="6.91011">
        <ele>1063.8</ele>
        <time>2022-08-29T08:08:36Z</time>
      </trkpt>
      <trkpt lat="47.9029" lon="6.9101">
        <ele>1063.8</ele>
        <time>2022-08-29T08:08:37Z</time>
      </trkpt>
      <trkpt lat="47.90291" lon="6.91009">
        <ele>1063.9</ele>
        <time>2022-08-29T08:08:38Z</time>
      </trkpt>
      <trkpt lat="47.90292" lon="6.91009">
        <ele>1064.2</ele>
        <time>2022-08-29T08:08:39Z</time>
      </trkpt>
      <trkpt lat="47.90293" lon="6.91008">
        <ele>1064.3</ele>
        <time>2022-08-29T08:08:40Z</time>
      </trkpt>
      <trkpt lat="47.90293" lon="6.91007">
        <ele>1064</ele>
        <time>2022-08-29T08:08:41Z</time>
      </trkpt>
      <trkpt lat="47.90294" lon="6.91007">
        <ele>1064.3</ele>
        <time>2022-08-29T08:08:42Z</time>
      </trkpt>
      <trkpt lat="47.90295" lon="6.91006">
        <ele>1064.4</ele>
        <time>2022-08-29T08:08:43Z</time>
      </trkpt>
      <trkpt lat="47.90296" lon="6.91005">
        <ele>1064.4</ele>
        <time>2022-08-29T08:08:44Z</time>
      </trkpt>
      <trkpt lat="47.90297" lon="6.91004">
        <ele>1064.5</ele>
        <time>2022-08-29T08:08:45Z</time>
      </trkpt>
      <trkpt lat="47.90297" lon="6.91003">
        <ele>1064.3</ele>
        <time>2022-08-29T08:08:46Z</time>
      </trkpt>
      <trkpt lat="47.90298" lon="6.91002">
        <ele>1064.3</ele>
        <time>2022-08-29T08:08:47Z</time>
      </trkpt>
      <trkpt lat="47.90298" lon="6.91001">
        <ele>1064.1</ele>
        <time>2022-08-29T08:08:48Z</time>
      </trkpt>
      <trkpt lat="47.90299" lon="6.91">
        <ele>1064.1</ele>
        <time>2022-08-29T08:08:49Z</time>
      </trkpt>
      <trkpt lat="47.90299" lon="6.90999">
        <ele>1063.8</ele>
        <time>2022-08-29T08:08:50Z</time>
      </trkpt>
      <trkpt lat="47.903" lon="6.90998">
        <ele>1063.8</ele>
        <time>2022-08-29T08:08:51Z</time>
      </trkpt>
      <trkpt lat="47.90301" lon="6.90997">
        <ele>1063.8</ele>
        <time>2022-08-29T08:08:53Z</time>
      </trkpt>
      <trkpt lat="47.90302" lon="6.90996">
        <ele>1063.8</ele>
        <time>2022-08-29T08:08:55Z</time>
      </trkpt>
      <trkpt lat="47.90302" lon="6.90995">
        <ele>1063.6</ele>
        <time>2022-08-29T08:08:56Z</time>
      </trkpt>
      <trkpt lat="47.90302" lon="6.90993">
        <ele>1063</ele>
        <time>2022-08-29T08:08:57Z</time>
      </trkpt>
      <trkpt lat="47.90302" lon="6.90992">
        <ele>1062.7</ele>
        <time>2022-08-29T08:08:58Z</time>
      </trkpt>
      <trkpt lat="47.90302" lon="6.90991">
        <ele>1062.4</ele>
        <time>2022-08-29T08:08:59Z</time>
      </trkpt>
      <trkpt lat="47.90302" lon="6.9099">
        <ele>1062.1</ele>
        <time>2022-08-29T08:09:00Z</time>
      </trkpt>
      <trkpt lat="47.90303" lon="6.90989">
        <ele>1062.1</ele>
        <time>2022-08-29T08:09:01Z</time>
      </trkpt>
      <trkpt lat="47.90303" lon="6.90988">
        <ele>1061.8</ele>
        <time>2022-08-29T08:09:02Z</time>
      </trkpt>
      <trkpt lat="47.90303" lon="6.90987">
        <ele>1061.6</ele>
        <time>2022-08-29T08:09:03Z</time>
      </trkpt>
      <trkpt lat="47.90304" lon="6.90987">
        <ele>1061.8</ele>
        <time>2022-08-29T08:09:04Z</time>
      </trkpt>
      <trkpt lat="47.90304" lon="6.90986">
        <ele>1061.5</ele>
        <time>2022-08-29T08:09:05Z</time>
      </trkpt>
      <trkpt lat="47.90305" lon="6.90986">
        <ele>1061.8</ele>
        <time>2022-08-29T08:09:06Z</time>
      </trkpt>
      <trkpt lat="47.90306" lon="6.90985">
        <ele>1061.8</ele>
        <time>2022-08-29T08:09:07Z</time>
      </trkpt>
      <trkpt lat="47.90307" lon="6.90985">
        <ele>1062</ele>
        <time>2022-08-29T08:09:08Z</time>
      </trkpt>
      <trkpt lat="47.90307" lon="6.90984">
        <ele>1061.7</ele>
        <time>2022-08-29T08:09:09Z</time>
      </trkpt>
      <trkpt lat="47.90308" lon="6.90983">
        <ele>1061.6</ele>
        <time>2022-08-29T08:09:10Z</time>
      </trkpt>
      <trkpt lat="47.90309" lon="6.90982">
        <ele>1061.5</ele>
        <time>2022-08-29T08:09:11Z</time>
      </trkpt>
      <trkpt lat="47.9031" lon="6.90981">
        <ele>1061.4</ele>
        <time>2022-08-29T08:09:12Z</time>
      </trkpt>
      <trkpt lat="47.9031" lon="6.9098">
        <ele>1061.1</ele>
        <time>2022-08-29T08:09:13Z</time>
      </trkpt>
      <trkpt lat="47.90311" lon="6.90979">
        <ele>1061</ele>
        <time>2022-08-29T08:09:14Z</time>
      </trkpt>
      <trkpt lat="47.90311" lon="6.90978">
        <ele>1060.7</ele>
        <time>2022-08-29T08:09:15Z</time>
      </trkpt>
      <trkpt lat="47.90312" lon="6.90977">
        <ele>1060.6</ele>
        <time>2022-08-29T08:09:16Z</time>
      </trkpt>
      <trkpt lat="47.90312" lon="6.90976">
        <ele>1060.3</ele>
        <time>2022-08-29T08:09:17Z</time>
      </trkpt>
      <trkpt lat="47.90313" lon="6.90974">
        <ele>1059.9</ele>
        <time>2022-08-29T08:09:18Z</time>
      </trkpt>
      <trkpt lat="47.90313" lon="6.90973">
        <ele>1059.6</ele>
        <time>2022-08-29T08:09:19Z</time>
      </trkpt>
      <trkpt lat="47.90314" lon="6.90972">
        <ele>1059.5</ele>
        <time>2022-08-29T08:09:20Z</time>
      </trkpt>
      <trkpt lat="47.90315" lon="6.90972">
        <ele>1059.6</ele>
        <time>2022-08-29T08:09:21Z</time>
      </trkpt>
      <trkpt lat="47.90316" lon="6.90972">
        <ele>1059.8</ele>
        <time>2022-08-29T08:09:22Z</time>
      </trkpt>
      <trkpt lat="47.90317" lon="6.90972">
        <ele>1060</ele>
        <time>2022-08-29T08:09:23Z</time>
      </trkpt>
      <trkpt lat="47.90318" lon="6.90973">
        <ele>1060.5</ele>
        <time>2022-08-29T08:09:24Z</time>
      </trkpt>
      <trkpt lat="47.90319" lon="6.90973">
        <ele>1060.7</ele>
        <time>2022-08-29T08:09:25Z</time>
      </trkpt>
      <trkpt lat="47.9032" lon="6.90973">
        <ele>1060.8</ele>
        <time>2022-08-29T08:09:26Z</time>
      </trkpt>
      <trkpt lat="47.90321" lon="6.90972">
        <ele>1060.7</ele>
        <time>2022-08-29T08:09:27Z</time>
      </trkpt>
      <trkpt lat="47.90321" lon="6.90971">
        <ele>1060.4</ele>
        <time>2022-08-29T08:09:28Z</time>
      </trkpt>
      <trkpt lat="47.90322" lon="6.90969">
        <ele>1060</ele>
        <time>2022-08-29T08:09:29Z</time>
      </trkpt>
      <trkpt lat="47.90323" lon="6.90968">
        <ele>1059.9</ele>
        <time>2022-08-29T08:09:30Z</time>
      </trkpt>
      <trkpt lat="47.90323" lon="6.90967">
        <ele>1059.6</ele>
        <time>2022-08-29T08:09:31Z</time>
      </trkpt>
      <trkpt lat="47.90323" lon="6.90966">
        <ele>1059.3</ele>
        <time>2022-08-29T08:09:32Z</time>
      </trkpt>
      <trkpt lat="47.90324" lon="6.90964">
        <ele>1059</ele>
        <time>2022-08-29T08:09:33Z</time>
      </trkpt>
      <trkpt lat="47.90325" lon="6.90963">
        <ele>1058.8</ele>
        <time>2022-08-29T08:09:34Z</time>
      </trkpt>
      <trkpt lat="47.90326" lon="6.90962">
        <ele>1058.7</ele>
        <time>2022-08-29T08:09:35Z</time>
      </trkpt>
      <trkpt lat="47.90326" lon="6.9096">
        <ele>1058.2</ele>
        <time>2022-08-29T08:09:36Z</time>
      </trkpt>
      <trkpt lat="47.90327" lon="6.9096">
        <ele>1058.3</ele>
        <time>2022-08-29T08:09:37Z</time>
      </trkpt>
      <trkpt lat="47.90328" lon="6.9096">
        <ele>1058.5</ele>
        <time>2022-08-29T08:09:38Z</time>
      </trkpt>
      <trkpt lat="47.90329" lon="6.90959">
        <ele>1058.4</ele>
        <time>2022-08-29T08:09:39Z</time>
      </trkpt>
      <trkpt lat="47.9033" lon="6.90959">
        <ele>1058.6</ele>
        <time>2022-08-29T08:09:40Z</time>
      </trkpt>
      <trkpt lat="47.90331" lon="6.90958">
        <ele>1058.5</ele>
        <time>2022-08-29T08:09:41Z</time>
      </trkpt>
      <trkpt lat="47.90332" lon="6.90958">
        <ele>1058.7</ele>
        <time>2022-08-29T08:09:42Z</time>
      </trkpt>
      <trkpt lat="47.90333" lon="6.90957">
        <ele>1058.6</ele>
        <time>2022-08-29T08:09:43Z</time>
      </trkpt>
      <trkpt lat="47.90334" lon="6.90957">
        <ele>1058.7</ele>
        <time>2022-08-29T08:09:44Z</time>
      </trkpt>
      <trkpt lat="47.90334" lon="6.90956">
        <ele>1058.4</ele>
        <time>2022-08-29T08:09:45Z</time>
      </trkpt>
      <trkpt lat="47.90335" lon="6.90955">
        <ele>1058.2</ele>
        <time>2022-08-29T08:09:46Z</time>
      </trkpt>
      <trkpt lat="47.90335" lon="6.90954">
        <ele>1057.9</ele>
        <time>2022-08-29T08:09:47Z</time>
      </trkpt>
      <trkpt lat="47.90336" lon="6.90953">
        <ele>1057.7</ele>
        <time>2022-08-29T08:09:48Z</time>
      </trkpt>
      <trkpt lat="47.90336" lon="6.90951">
        <ele>1057.1</ele>
        <time>2022-08-29T08:09:49Z</time>
      </trkpt>
      <trkpt lat="47.90337" lon="6.90951">
        <ele>1057.2</ele>
        <time>2022-08-29T08:09:50Z</time>
      </trkpt>
      <trkpt lat="47.90337" lon="6.9095">
        <ele>1056.9</ele>
        <time>2022-08-29T08:09:51Z</time>
      </trkpt>
      <trkpt lat="47.90338" lon="6.90949">
        <ele>1056.7</ele>
        <time>2022-08-29T08:09:52Z</time>
      </trkpt>
      <trkpt lat="47.90339" lon="6.90949">
        <ele>1056.8</ele>
        <time>2022-08-29T08:09:54Z</time>
      </trkpt>
      <trkpt lat="47.90339" lon="6.90948">
        <ele>1056.5</ele>
        <time>2022-08-29T08:09:55Z</time>
      </trkpt>
      <trkpt lat="47.9034" lon="6.90947">
        <ele>1056.2</ele>
        <time>2022-08-29T08:09:56Z</time>
      </trkpt>
      <trkpt lat="47.9034" lon="6.90946">
        <ele>1055.9</ele>
        <time>2022-08-29T08:09:57Z</time>
      </trkpt>
      <trkpt lat="47.90341" lon="6.90945">
        <ele>1055.7</ele>
        <time>2022-08-29T08:09:58Z</time>
      </trkpt>
      <trkpt lat="47.90341" lon="6.90944">
        <ele>1055.4</ele>
        <time>2022-08-29T08:09:59Z</time>
      </trkpt>
      <trkpt lat="47.90342" lon="6.90943">
        <ele>1055.2</ele>
        <time>2022-08-29T08:10:00Z</time>
      </trkpt>
      <trkpt lat="47.90342" lon="6.90942">
        <ele>1054.9</ele>
        <time>2022-08-29T08:10:01Z</time>
      </trkpt>
      <trkpt lat="47.90343" lon="6.90941">
        <ele>1054.6</ele>
        <time>2022-08-29T08:10:02Z</time>
      </trkpt>
      <trkpt lat="47.90343" lon="6.9094">
        <ele>1054.3</ele>
        <time>2022-08-29T08:10:03Z</time>
      </trkpt>
      <trkpt lat="47.90343" lon="6.90939">
        <ele>1054</ele>
        <time>2022-08-29T08:10:05Z</time>
      </trkpt>
      <trkpt lat="47.90344" lon="6.90938">
        <ele>1053.8</ele>
        <time>2022-08-29T08:10:07Z</time>
      </trkpt>
      <trkpt lat="47.90345" lon="6.90937">
        <ele>1053.5</ele>
        <time>2022-08-29T08:10:09Z</time>
      </trkpt>
      <trkpt lat="47.90345" lon="6.90936">
        <ele>1053.2</ele>
        <time>2022-08-29T08:10:10Z</time>
      </trkpt>
      <trkpt lat="47.90346" lon="6.90936">
        <ele>1053.3</ele>
        <time>2022-08-29T08:10:11Z</time>
      </trkpt>
      <trkpt lat="47.90346" lon="6.90935">
        <ele>1053</ele>
        <time>2022-08-29T08:10:12Z</time>
      </trkpt>
      <trkpt lat="47.90347" lon="6.90934">
        <ele>1052.8</ele>
        <time>2022-08-29T08:10:13Z</time>
      </trkpt>
      <trkpt lat="47.90348" lon="6.90933">
        <ele>1052.6</ele>
        <time>2022-08-29T08:10:14Z</time>
      </trkpt>
      <trkpt lat="47.90348" lon="6.90932">
        <ele>1052.3</ele>
        <time>2022-08-29T08:10:15Z</time>
      </trkpt>
      <trkpt lat="47.90349" lon="6.90931">
        <ele>1052</ele>
        <time>2022-08-29T08:10:16Z</time>
      </trkpt>
      <trkpt lat="47.9035" lon="6.90931">
        <ele>1052.1</ele>
        <time>2022-08-29T08:10:17Z</time>
      </trkpt>
      <trkpt lat="47.90351" lon="6.9093">
        <ele>1051.9</ele>
        <time>2022-08-29T08:10:18Z</time>
      </trkpt>
      <trkpt lat="47.90353" lon="6.9093">
        <ele>1052.1</ele>
        <time>2022-08-29T08:10:19Z</time>
      </trkpt>
      <trkpt lat="47.90354" lon="6.9093">
        <ele>1052.2</ele>
        <time>2022-08-29T08:10:20Z</time>
      </trkpt>
      <trkpt lat="47.90355" lon="6.90931">
        <ele>1052.6</ele>
        <time>2022-08-29T08:10:21Z</time>
      </trkpt>
      <trkpt lat="47.90356" lon="6.90931">
        <ele>1052.7</ele>
        <time>2022-08-29T08:10:22Z</time>
      </trkpt>
      <trkpt lat="47.90358" lon="6.90931">
        <ele>1052.8</ele>
        <time>2022-08-29T08:10:23Z</time>
      </trkpt>
      <trkpt lat="47.90359" lon="6.90932">
        <ele>1053.2</ele>
        <time>2022-08-29T08:10:24Z</time>
      </trkpt>
      <trkpt lat="47.9036" lon="6.90931">
        <ele>1053</ele>
        <time>2022-08-29T08:10:25Z</time>
      </trkpt>
      <trkpt lat="47.90361" lon="6.90931">
        <ele>1053.1</ele>
        <time>2022-08-29T08:10:26Z</time>
      </trkpt>
      <trkpt lat="47.90362" lon="6.90931">
        <ele>1053.1</ele>
        <time>2022-08-29T08:10:27Z</time>
      </trkpt>
      <trkpt lat="47.90363" lon="6.90931">
        <ele>1053.2</ele>
        <time>2022-08-29T08:10:28Z</time>
      </trkpt>
      <trkpt lat="47.90364" lon="6.9093">
        <ele>1052.9</ele>
        <time>2022-08-29T08:10:29Z</time>
      </trkpt>
      <trkpt lat="47.90365" lon="6.9093">
        <ele>1052.9</ele>
        <time>2022-08-29T08:10:30Z</time>
      </trkpt>
      <trkpt lat="47.90367" lon="6.9093">
        <ele>1052.9</ele>
        <time>2022-08-29T08:10:31Z</time>
      </trkpt>
      <trkpt lat="47.90368" lon="6.9093">
        <ele>1053</ele>
        <time>2022-08-29T08:10:32Z</time>
      </trkpt>
      <trkpt lat="47.90369" lon="6.9093">
        <ele>1053</ele>
        <time>2022-08-29T08:10:33Z</time>
      </trkpt>
      <trkpt lat="47.9037" lon="6.9093">
        <ele>1053</ele>
        <time>2022-08-29T08:10:34Z</time>
      </trkpt>
      <trkpt lat="47.90371" lon="6.90929">
        <ele>1052.7</ele>
        <time>2022-08-29T08:10:35Z</time>
      </trkpt>
      <trkpt lat="47.90372" lon="6.90929">
        <ele>1052.7</ele>
        <time>2022-08-29T08:10:36Z</time>
      </trkpt>
      <trkpt lat="47.90373" lon="6.90929">
        <ele>1052.7</ele>
        <time>2022-08-29T08:10:37Z</time>
      </trkpt>
      <trkpt lat="47.90374" lon="6.90928">
        <ele>1052.5</ele>
        <time>2022-08-29T08:10:38Z</time>
      </trkpt>
      <trkpt lat="47.90375" lon="6.90928">
        <ele>1052.5</ele>
        <time>2022-08-29T08:10:39Z</time>
      </trkpt>
      <trkpt lat="47.90376" lon="6.90927">
        <ele>1052.2</ele>
        <time>2022-08-29T08:10:40Z</time>
      </trkpt>
      <trkpt lat="47.90377" lon="6.90927">
        <ele>1052.2</ele>
        <time>2022-08-29T08:10:41Z</time>
      </trkpt>
      <trkpt lat="47.90378" lon="6.90926">
        <ele>1051.9</ele>
        <time>2022-08-29T08:10:42Z</time>
      </trkpt>
      <trkpt lat="47.90379" lon="6.90925">
        <ele>1051.6</ele>
        <time>2022-08-29T08:10:43Z</time>
      </trkpt>
      <trkpt lat="47.9038" lon="6.90925">
        <ele>1051.6</ele>
        <time>2022-08-29T08:10:44Z</time>
      </trkpt>
      <trkpt lat="47.90381" lon="6.90924">
        <ele>1051.3</ele>
        <time>2022-08-29T08:10:45Z</time>
      </trkpt>
      <trkpt lat="47.90382" lon="6.90923">
        <ele>1051</ele>
        <time>2022-08-29T08:10:46Z</time>
      </trkpt>
      <trkpt lat="47.90383" lon="6.90921">
        <ele>1050.4</ele>
        <time>2022-08-29T08:10:47Z</time>
      </trkpt>
      <trkpt lat="47.90384" lon="6.9092">
        <ele>1050.1</ele>
        <time>2022-08-29T08:10:48Z</time>
      </trkpt>
      <trkpt lat="47.90384" lon="6.90919">
        <ele>1049.7</ele>
        <time>2022-08-29T08:10:49Z</time>
      </trkpt>
      <trkpt lat="47.90385" lon="6.90919">
        <ele>1049.7</ele>
        <time>2022-08-29T08:10:50Z</time>
      </trkpt>
      <trkpt lat="47.90386" lon="6.90918">
        <ele>1049.4</ele>
        <time>2022-08-29T08:10:51Z</time>
      </trkpt>
      <trkpt lat="47.90386" lon="6.90917">
        <ele>1049.1</ele>
        <time>2022-08-29T08:10:52Z</time>
      </trkpt>
      <trkpt lat="47.90387" lon="6.90917">
        <ele>1049.1</ele>
        <time>2022-08-29T08:10:53Z</time>
      </trkpt>
      <trkpt lat="47.90388" lon="6.90916">
        <ele>1048.8</ele>
        <time>2022-08-29T08:10:54Z</time>
      </trkpt>
      <trkpt lat="47.90388" lon="6.90915">
        <ele>1048.5</ele>
        <time>2022-08-29T08:10:55Z</time>
      </trkpt>
      <trkpt lat="47.90389" lon="6.90914">
        <ele>1048.1</ele>
        <time>2022-08-29T08:10:56Z</time>
      </trkpt>
      <trkpt lat="47.90389" lon="6.90913">
        <ele>1047.8</ele>
        <time>2022-08-29T08:10:57Z</time>
      </trkpt>
      <trkpt lat="47.9039" lon="6.90912">
        <ele>1047.5</ele>
        <time>2022-08-29T08:10:58Z</time>
      </trkpt>
      <trkpt lat="47.90391" lon="6.90911">
        <ele>1047.1</ele>
        <time>2022-08-29T08:10:59Z</time>
      </trkpt>
      <trkpt lat="47.90391" lon="6.9091">
        <ele>1046.8</ele>
        <time>2022-08-29T08:11:00Z</time>
      </trkpt>
      <trkpt lat="47.90392" lon="6.9091">
        <ele>1046.8</ele>
        <time>2022-08-29T08:11:01Z</time>
      </trkpt>
      <trkpt lat="47.90392" lon="6.90909">
        <ele>1046.4</ele>
        <time>2022-08-29T08:11:02Z</time>
      </trkpt>
      <trkpt lat="47.90393" lon="6.90908">
        <ele>1046.1</ele>
        <time>2022-08-29T08:11:03Z</time>
      </trkpt>
      <trkpt lat="47.90394" lon="6.90908">
        <ele>1046.1</ele>
        <time>2022-08-29T08:11:04Z</time>
      </trkpt>
      <trkpt lat="47.90394" lon="6.90907">
        <ele>1045.7</ele>
        <time>2022-08-29T08:11:05Z</time>
      </trkpt>
      <trkpt lat="47.90395" lon="6.90906">
        <ele>1045.4</ele>
        <time>2022-08-29T08:11:06Z</time>
      </trkpt>
      <trkpt lat="47.90395" lon="6.90905">
        <ele>1045.1</ele>
        <time>2022-08-29T08:11:07Z</time>
      </trkpt>
      <trkpt lat="47.90396" lon="6.90905">
        <ele>1045.1</ele>
        <time>2022-08-29T08:11:08Z</time>
      </trkpt>
      <trkpt lat="47.90397" lon="6.90904">
        <ele>1044.7</ele>
        <time>2022-08-29T08:11:09Z</time>
      </trkpt>
      <trkpt lat="47.90398" lon="6.90904">
        <ele>1044.7</ele>
        <time>2022-08-29T08:11:11Z</time>
      </trkpt>
      <trkpt lat="47.90398" lon="6.90903">
        <ele>1044.4</ele>
        <time>2022-08-29T08:11:12Z</time>
      </trkpt>
      <trkpt lat="47.90399" lon="6.90903">
        <ele>1044.4</ele>
        <time>2022-08-29T08:11:14Z</time>
      </trkpt>
      <trkpt lat="47.90399" lon="6.90902">
        <ele>1044.1</ele>
        <time>2022-08-29T08:11:15Z</time>
      </trkpt>
      <trkpt lat="47.904" lon="6.90902">
        <ele>1044.1</ele>
        <time>2022-08-29T08:11:16Z</time>
      </trkpt>
      <trkpt lat="47.90401" lon="6.90902">
        <ele>1044</ele>
        <time>2022-08-29T08:11:17Z</time>
      </trkpt>
      <trkpt lat="47.90401" lon="6.90901">
        <ele>1043.7</ele>
        <time>2022-08-29T08:11:18Z</time>
      </trkpt>
      <trkpt lat="47.90402" lon="6.90902">
        <ele>1044</ele>
        <time>2022-08-29T08:11:19Z</time>
      </trkpt>
      <trkpt lat="47.90403" lon="6.90902">
        <ele>1044</ele>
        <time>2022-08-29T08:11:21Z</time>
      </trkpt>
      <trkpt lat="47.90404" lon="6.90902">
        <ele>1044</ele>
        <time>2022-08-29T08:11:22Z</time>
      </trkpt>
      <trkpt lat="47.90405" lon="6.90902">
        <ele>1044</ele>
        <time>2022-08-29T08:11:23Z</time>
      </trkpt>
      <trkpt lat="47.90406" lon="6.90902">
        <ele>1044</ele>
        <time>2022-08-29T08:11:24Z</time>
      </trkpt>
      <trkpt lat="47.90407" lon="6.90902">
        <ele>1043.9</ele>
        <time>2022-08-29T08:11:25Z</time>
      </trkpt>
      <trkpt lat="47.90408" lon="6.90902">
        <ele>1043.9</ele>
        <time>2022-08-29T08:11:26Z</time>
      </trkpt>
      <trkpt lat="47.90409" lon="6.90902">
        <ele>1043.9</ele>
        <time>2022-08-29T08:11:27Z</time>
      </trkpt>
      <trkpt lat="47.9041" lon="6.90901">
        <ele>1043.6</ele>
        <time>2022-08-29T08:11:28Z</time>
      </trkpt>
      <trkpt lat="47.90411" lon="6.909">
        <ele>1043.3</ele>
        <time>2022-08-29T08:11:30Z</time>
      </trkpt>
      <trkpt lat="47.90411" lon="6.90899">
        <ele>1043</ele>
        <time>2022-08-29T08:11:31Z</time>
      </trkpt>
      <trkpt lat="47.90411" lon="6.90897">
        <ele>1042.4</ele>
        <time>2022-08-29T08:11:32Z</time>
      </trkpt>
      <trkpt lat="47.90412" lon="6.90896">
        <ele>1042.1</ele>
        <time>2022-08-29T08:11:33Z</time>
      </trkpt>
      <trkpt lat="47.90412" lon="6.90894">
        <ele>1041.5</ele>
        <time>2022-08-29T08:11:34Z</time>
      </trkpt>
      <trkpt lat="47.90413" lon="6.90894">
        <ele>1041.5</ele>
        <time>2022-08-29T08:11:35Z</time>
      </trkpt>
      <trkpt lat="47.90413" lon="6.90893">
        <ele>1041.2</ele>
        <time>2022-08-29T08:11:36Z</time>
      </trkpt>
      <trkpt lat="47.90414" lon="6.90892">
        <ele>1040.9</ele>
        <time>2022-08-29T08:11:37Z</time>
      </trkpt>
      <trkpt lat="47.90414" lon="6.90891">
        <ele>1040.6</ele>
        <time>2022-08-29T08:11:38Z</time>
      </trkpt>
      <trkpt lat="47.90415" lon="6.9089">
        <ele>1040.3</ele>
        <time>2022-08-29T08:11:39Z</time>
      </trkpt>
      <trkpt lat="47.90416" lon="6.90889">
        <ele>1040</ele>
        <time>2022-08-29T08:11:40Z</time>
      </trkpt>
      <trkpt lat="47.90417" lon="6.90889">
        <ele>1040</ele>
        <time>2022-08-29T08:11:41Z</time>
      </trkpt>
      <trkpt lat="47.90418" lon="6.90888">
        <ele>1039.6</ele>
        <time>2022-08-29T08:11:42Z</time>
      </trkpt>
      <trkpt lat="47.90419" lon="6.90887">
        <ele>1039.2</ele>
        <time>2022-08-29T08:11:44Z</time>
      </trkpt>
      <trkpt lat="47.9042" lon="6.90886">
        <ele>1038.8</ele>
        <time>2022-08-29T08:11:45Z</time>
      </trkpt>
      <trkpt lat="47.90421" lon="6.90885">
        <ele>1038.4</ele>
        <time>2022-08-29T08:11:46Z</time>
      </trkpt>
      <trkpt lat="47.90422" lon="6.90884">
        <ele>1038.1</ele>
        <time>2022-08-29T08:11:47Z</time>
      </trkpt>
      <trkpt lat="47.90422" lon="6.90883">
        <ele>1037.8</ele>
        <time>2022-08-29T08:11:48Z</time>
      </trkpt>
      <trkpt lat="47.90423" lon="6.90882">
        <ele>1037.5</ele>
        <time>2022-08-29T08:11:49Z</time>
      </trkpt>
      <trkpt lat="47.90424" lon="6.90882">
        <ele>1037.3</ele>
        <time>2022-08-29T08:11:50Z</time>
      </trkpt>
      <trkpt lat="47.90425" lon="6.90881">
        <ele>1037</ele>
        <time>2022-08-29T08:11:51Z</time>
      </trkpt>
      <trkpt lat="47.90426" lon="6.9088">
        <ele>1036.6</ele>
        <time>2022-08-29T08:11:52Z</time>
      </trkpt>
      <trkpt lat="47.90427" lon="6.9088">
        <ele>1036.5</ele>
        <time>2022-08-29T08:11:53Z</time>
      </trkpt>
      <trkpt lat="47.90428" lon="6.9088">
        <ele>1036.4</ele>
        <time>2022-08-29T08:11:54Z</time>
      </trkpt>
      <trkpt lat="47.90429" lon="6.9088">
        <ele>1036.3</ele>
        <time>2022-08-29T08:11:55Z</time>
      </trkpt>
      <trkpt lat="47.9043" lon="6.9088">
        <ele>1036.1</ele>
        <time>2022-08-29T08:11:56Z</time>
      </trkpt>
      <trkpt lat="47.90431" lon="6.9088">
        <ele>1036</ele>
        <time>2022-08-29T08:11:57Z</time>
      </trkpt>
      <trkpt lat="47.90432" lon="6.9088">
        <ele>1035.9</ele>
        <time>2022-08-29T08:11:58Z</time>
      </trkpt>
      <trkpt lat="47.90434" lon="6.9088">
        <ele>1035.7</ele>
        <time>2022-08-29T08:11:59Z</time>
      </trkpt>
      <trkpt lat="47.90435" lon="6.9088">
        <ele>1035.5</ele>
        <time>2022-08-29T08:12:00Z</time>
      </trkpt>
      <trkpt lat="47.90436" lon="6.90879">
        <ele>1035.2</ele>
        <time>2022-08-29T08:12:01Z</time>
      </trkpt>
      <trkpt lat="47.90438" lon="6.90879">
        <ele>1035</ele>
        <time>2022-08-29T08:12:02Z</time>
      </trkpt>
      <trkpt lat="47.90439" lon="6.9088">
        <ele>1035.1</ele>
        <time>2022-08-29T08:12:03Z</time>
      </trkpt>
      <trkpt lat="47.9044" lon="6.9088">
        <ele>1034.9</ele>
        <time>2022-08-29T08:12:04Z</time>
      </trkpt>
      <trkpt lat="47.90441" lon="6.9088">
        <ele>1034.8</ele>
        <time>2022-08-29T08:12:05Z</time>
      </trkpt>
      <trkpt lat="47.90442" lon="6.9088">
        <ele>1034.7</ele>
        <time>2022-08-29T08:12:06Z</time>
      </trkpt>
      <trkpt lat="47.90443" lon="6.9088">
        <ele>1034.6</ele>
        <time>2022-08-29T08:12:08Z</time>
      </trkpt>
      <trkpt lat="47.90444" lon="6.9088">
        <ele>1034.5</ele>
        <time>2022-08-29T08:12:09Z</time>
      </trkpt>
      <trkpt lat="47.90445" lon="6.90879">
        <ele>1034</ele>
        <time>2022-08-29T08:12:10Z</time>
      </trkpt>
      <trkpt lat="47.90446" lon="6.90879">
        <ele>1033.6</ele>
        <time>2022-08-29T08:12:11Z</time>
      </trkpt>
      <trkpt lat="47.90447" lon="6.90879">
        <ele>1033.2</ele>
        <time>2022-08-29T08:12:12Z</time>
      </trkpt>
      <trkpt lat="47.90448" lon="6.90879">
        <ele>1032.8</ele>
        <time>2022-08-29T08:12:13Z</time>
      </trkpt>
      <trkpt lat="47.90448" lon="6.9088">
        <ele>1032.9</ele>
        <time>2022-08-29T08:12:14Z</time>
      </trkpt>
      <trkpt lat="47.90449" lon="6.9088">
        <ele>1032.5</ele>
        <time>2022-08-29T08:12:15Z</time>
      </trkpt>
      <trkpt lat="47.9045" lon="6.90881">
        <ele>1032.3</ele>
        <time>2022-08-29T08:12:16Z</time>
      </trkpt>
      <trkpt lat="47.90451" lon="6.90882">
        <ele>1032</ele>
        <time>2022-08-29T08:12:18Z</time>
      </trkpt>
      <trkpt lat="47.90452" lon="6.90883">
        <ele>1031.7</ele>
        <time>2022-08-29T08:12:19Z</time>
      </trkpt>
      <trkpt lat="47.90453" lon="6.90883">
        <ele>1031.3</ele>
        <time>2022-08-29T08:12:23Z</time>
      </trkpt>
      <trkpt lat="47.90454" lon="6.90884">
        <ele>1031</ele>
        <time>2022-08-29T08:12:24Z</time>
      </trkpt>
      <trkpt lat="47.90454" lon="6.90883">
        <ele>1030.8</ele>
        <time>2022-08-29T08:12:25Z</time>
      </trkpt>
      <trkpt lat="47.90455" lon="6.90882">
        <ele>1030.3</ele>
        <time>2022-08-29T08:12:26Z</time>
      </trkpt>
      <trkpt lat="47.90455" lon="6.90881">
        <ele>1030.2</ele>
        <time>2022-08-29T08:12:27Z</time>
      </trkpt>
      <trkpt lat="47.90455" lon="6.9088">
        <ele>1030.1</ele>
        <time>2022-08-29T08:12:28Z</time>
      </trkpt>
      <trkpt lat="47.90455" lon="6.90879">
        <ele>1030</ele>
        <time>2022-08-29T08:12:29Z</time>
      </trkpt>
      <trkpt lat="47.90455" lon="6.90878">
        <ele>1029.8</ele>
        <time>2022-08-29T08:12:30Z</time>
      </trkpt>
      <trkpt lat="47.90455" lon="6.90876">
        <ele>1029.6</ele>
        <time>2022-08-29T08:12:31Z</time>
      </trkpt>
      <trkpt lat="47.90455" lon="6.90875">
        <ele>1029.5</ele>
        <time>2022-08-29T08:12:32Z</time>
      </trkpt>
      <trkpt lat="47.90456" lon="6.90873">
        <ele>1028.9</ele>
        <time>2022-08-29T08:12:33Z</time>
      </trkpt>
      <trkpt lat="47.90456" lon="6.90872">
        <ele>1028.8</ele>
        <time>2022-08-29T08:12:34Z</time>
      </trkpt>
      <trkpt lat="47.90456" lon="6.90871">
        <ele>1028.7</ele>
        <time>2022-08-29T08:12:35Z</time>
      </trkpt>
      <trkpt lat="47.90456" lon="6.90869">
        <ele>1028.5</ele>
        <time>2022-08-29T08:12:36Z</time>
      </trkpt>
      <trkpt lat="47.90456" lon="6.90868">
        <ele>1028.4</ele>
        <time>2022-08-29T08:12:37Z</time>
      </trkpt>
      <trkpt lat="47.90457" lon="6.90867">
        <ele>1028</ele>
        <time>2022-08-29T08:12:38Z</time>
      </trkpt>
      <trkpt lat="47.90457" lon="6.90866">
        <ele>1027.9</ele>
        <time>2022-08-29T08:12:39Z</time>
      </trkpt>
      <trkpt lat="47.90457" lon="6.90865">
        <ele>1027.8</ele>
        <time>2022-08-29T08:12:40Z</time>
      </trkpt>
      <trkpt lat="47.90457" lon="6.90864">
        <ele>1027.7</ele>
        <time>2022-08-29T08:12:41Z</time>
      </trkpt>
      <trkpt lat="47.90456" lon="6.90862">
        <ele>1027.8</ele>
        <time>2022-08-29T08:12:42Z</time>
      </trkpt>
      <trkpt lat="47.90456" lon="6.90861">
        <ele>1027.7</ele>
        <time>2022-08-29T08:12:43Z</time>
      </trkpt>
      <trkpt lat="47.90456" lon="6.9086">
        <ele>1027.5</ele>
        <time>2022-08-29T08:12:44Z</time>
      </trkpt>
      <trkpt lat="47.90455" lon="6.90859">
        <ele>1027.6</ele>
        <time>2022-08-29T08:12:45Z</time>
      </trkpt>
      <trkpt lat="47.90455" lon="6.90857">
        <ele>1027.3</ele>
        <time>2022-08-29T08:12:46Z</time>
      </trkpt>
      <trkpt lat="47.90454" lon="6.90857">
        <ele>1027.5</ele>
        <time>2022-08-29T08:12:47Z</time>
      </trkpt>
      <trkpt lat="47.90454" lon="6.90856">
        <ele>1027.3</ele>
        <time>2022-08-29T08:12:48Z</time>
      </trkpt>
      <trkpt lat="47.90454" lon="6.90855">
        <ele>1027.2</ele>
        <time>2022-08-29T08:12:49Z</time>
      </trkpt>
      <trkpt lat="47.90453" lon="6.90854">
        <ele>1027.2</ele>
        <time>2022-08-29T08:12:50Z</time>
      </trkpt>
      <trkpt lat="47.90453" lon="6.90853">
        <ele>1027</ele>
        <time>2022-08-29T08:12:51Z</time>
      </trkpt>
      <trkpt lat="47.90452" lon="6.90852">
        <ele>1027.1</ele>
        <time>2022-08-29T08:12:52Z</time>
      </trkpt>
      <trkpt lat="47.90452" lon="6.90851">
        <ele>1026.9</ele>
        <time>2022-08-29T08:12:54Z</time>
      </trkpt>
      <trkpt lat="47.90451" lon="6.9085">
        <ele>1026.9</ele>
        <time>2022-08-29T08:12:55Z</time>
      </trkpt>
      <trkpt lat="47.90451" lon="6.90849">
        <ele>1026.7</ele>
        <time>2022-08-29T08:12:56Z</time>
      </trkpt>
      <trkpt lat="47.90451" lon="6.90848">
        <ele>1026.5</ele>
        <time>2022-08-29T08:12:57Z</time>
      </trkpt>
      <trkpt lat="47.90451" lon="6.90847">
        <ele>1026.3</ele>
        <time>2022-08-29T08:12:58Z</time>
      </trkpt>
      <trkpt lat="47.90451" lon="6.90846">
        <ele>1026.1</ele>
        <time>2022-08-29T08:13:00Z</time>
      </trkpt>
      <trkpt lat="47.90452" lon="6.90846">
        <ele>1025.9</ele>
        <time>2022-08-29T08:13:01Z</time>
      </trkpt>
      <trkpt lat="47.90451" lon="6.90844">
        <ele>1025.7</ele>
        <time>2022-08-29T08:13:03Z</time>
      </trkpt>
      <trkpt lat="47.90451" lon="6.90843">
        <ele>1025.5</ele>
        <time>2022-08-29T08:13:04Z</time>
      </trkpt>
      <trkpt lat="47.90451" lon="6.90842">
        <ele>1025.3</ele>
        <time>2022-08-29T08:13:05Z</time>
      </trkpt>
      <trkpt lat="47.90451" lon="6.90841">
        <ele>1025.1</ele>
        <time>2022-08-29T08:13:06Z</time>
      </trkpt>
      <trkpt lat="47.9045" lon="6.9084">
        <ele>1025</ele>
        <time>2022-08-29T08:13:07Z</time>
      </trkpt>
      <trkpt lat="47.90449" lon="6.90839">
        <ele>1024.9</ele>
        <time>2022-08-29T08:13:09Z</time>
      </trkpt>
      <trkpt lat="47.90449" lon="6.90838">
        <ele>1024.7</ele>
        <time>2022-08-29T08:13:11Z</time>
      </trkpt>
      <trkpt lat="47.90448" lon="6.90837">
        <ele>1024.6</ele>
        <time>2022-08-29T08:13:13Z</time>
      </trkpt>
      <trkpt lat="47.90448" lon="6.90836">
        <ele>1024.3</ele>
        <time>2022-08-29T08:13:14Z</time>
      </trkpt>
      <trkpt lat="47.90447" lon="6.90836">
        <ele>1024.4</ele>
        <time>2022-08-29T08:13:15Z</time>
      </trkpt>
      <trkpt lat="47.90447" lon="6.90835">
        <ele>1024.2</ele>
        <time>2022-08-29T08:13:16Z</time>
      </trkpt>
      <trkpt lat="47.90447" lon="6.90834">
        <ele>1024</ele>
        <time>2022-08-29T08:13:17Z</time>
      </trkpt>
      <trkpt lat="47.90446" lon="6.90832">
        <ele>1023.7</ele>
        <time>2022-08-29T08:13:29Z</time>
      </trkpt>
      <trkpt lat="47.90445" lon="6.90831">
        <ele>1023.6</ele>
        <time>2022-08-29T08:13:30Z</time>
      </trkpt>
      <trkpt lat="47.90445" lon="6.9083">
        <ele>1023.5</ele>
        <time>2022-08-29T08:13:31Z</time>
      </trkpt>
      <trkpt lat="47.90444" lon="6.90829">
        <ele>1023.4</ele>
        <time>2022-08-29T08:13:32Z</time>
      </trkpt>
      <trkpt lat="47.90443" lon="6.90828">
        <ele>1023.2</ele>
        <time>2022-08-29T08:13:35Z</time>
      </trkpt>
      <trkpt lat="47.90442" lon="6.90828">
        <ele>1023.2</ele>
        <time>2022-08-29T08:13:36Z</time>
      </trkpt>
      <trkpt lat="47.90441" lon="6.90828">
        <ele>1023.1</ele>
        <time>2022-08-29T08:13:37Z</time>
      </trkpt>
      <trkpt lat="47.9044" lon="6.90828">
        <ele>1023.1</ele>
        <time>2022-08-29T08:13:38Z</time>
      </trkpt>
      <trkpt lat="47.90439" lon="6.90828">
        <ele>1023.1</ele>
        <time>2022-08-29T08:13:39Z</time>
      </trkpt>
      <trkpt lat="47.90437" lon="6.90827">
        <ele>1022.8</ele>
        <time>2022-08-29T08:13:40Z</time>
      </trkpt>
      <trkpt lat="47.90436" lon="6.90827">
        <ele>1022.8</ele>
        <time>2022-08-29T08:13:41Z</time>
      </trkpt>
      <trkpt lat="47.90435" lon="6.90827">
        <ele>1022.8</ele>
        <time>2022-08-29T08:13:42Z</time>
      </trkpt>
      <trkpt lat="47.90434" lon="6.90827">
        <ele>1022.7</ele>
        <time>2022-08-29T08:13:43Z</time>
      </trkpt>
      <trkpt lat="47.90433" lon="6.90827">
        <ele>1022.7</ele>
        <time>2022-08-29T08:13:44Z</time>
      </trkpt>
      <trkpt lat="47.90431" lon="6.90827">
        <ele>1022.6</ele>
        <time>2022-08-29T08:13:45Z</time>
      </trkpt>
      <trkpt lat="47.9043" lon="6.90828">
        <ele>1022.8</ele>
        <time>2022-08-29T08:13:46Z</time>
      </trkpt>
      <trkpt lat="47.90429" lon="6.90828">
        <ele>1022.8</ele>
        <time>2022-08-29T08:13:47Z</time>
      </trkpt>
      <trkpt lat="47.90428" lon="6.90829">
        <ele>1023</ele>
        <time>2022-08-29T08:13:48Z</time>
      </trkpt>
      <trkpt lat="47.90427" lon="6.9083">
        <ele>1023.2</ele>
        <time>2022-08-29T08:13:50Z</time>
      </trkpt>
      <trkpt lat="47.90426" lon="6.9083">
        <ele>1023.2</ele>
        <time>2022-08-29T08:13:53Z</time>
      </trkpt>
      <trkpt lat="47.90425" lon="6.9083">
        <ele>1023.2</ele>
        <time>2022-08-29T08:13:55Z</time>
      </trkpt>
      <trkpt lat="47.90424" lon="6.90829">
        <ele>1022.9</ele>
        <time>2022-08-29T08:13:56Z</time>
      </trkpt>
      <trkpt lat="47.90423" lon="6.90829">
        <ele>1022.9</ele>
        <time>2022-08-29T08:13:57Z</time>
      </trkpt>
      <trkpt lat="47.90421" lon="6.90828">
        <ele>1022.6</ele>
        <time>2022-08-29T08:13:58Z</time>
      </trkpt>
      <trkpt lat="47.9042" lon="6.90828">
        <ele>1022.6</ele>
        <time>2022-08-29T08:13:59Z</time>
      </trkpt>
      <trkpt lat="47.90419" lon="6.90827">
        <ele>1022.3</ele>
        <time>2022-08-29T08:14:00Z</time>
      </trkpt>
      <trkpt lat="47.90418" lon="6.90827">
        <ele>1022.2</ele>
        <time>2022-08-29T08:14:01Z</time>
      </trkpt>
      <trkpt lat="47.90417" lon="6.90826">
        <ele>1021.9</ele>
        <time>2022-08-29T08:14:03Z</time>
      </trkpt>
      <trkpt lat="47.90416" lon="6.90826">
        <ele>1021.8</ele>
        <time>2022-08-29T08:14:04Z</time>
      </trkpt>
      <trkpt lat="47.90415" lon="6.90826">
        <ele>1021.7</ele>
        <time>2022-08-29T08:14:05Z</time>
      </trkpt>
      <trkpt lat="47.90414" lon="6.90826">
        <ele>1021.6</ele>
        <time>2022-08-29T08:14:06Z</time>
      </trkpt>
      <trkpt lat="47.90413" lon="6.90826">
        <ele>1021.5</ele>
        <time>2022-08-29T08:14:08Z</time>
      </trkpt>
      <trkpt lat="47.90413" lon="6.90825">
        <ele>1021.2</ele>
        <time>2022-08-29T08:14:09Z</time>
      </trkpt>
      <trkpt lat="47.90412" lon="6.90825">
        <ele>1021.1</ele>
        <time>2022-08-29T08:14:10Z</time>
      </trkpt>
      <trkpt lat="47.90411" lon="6.90825">
        <ele>1021</ele>
        <time>2022-08-29T08:14:11Z</time>
      </trkpt>
      <trkpt lat="47.9041" lon="6.90825">
        <ele>1020.9</ele>
        <time>2022-08-29T08:14:12Z</time>
      </trkpt>
      <trkpt lat="47.90409" lon="6.90825">
        <ele>1020.8</ele>
        <time>2022-08-29T08:14:13Z</time>
      </trkpt>
      <trkpt lat="47.90408" lon="6.90826">
        <ele>1021</ele>
        <time>2022-08-29T08:14:14Z</time>
      </trkpt>
      <trkpt lat="47.90407" lon="6.90826">
        <ele>1020.8</ele>
        <time>2022-08-29T08:14:16Z</time>
      </trkpt>
      <trkpt lat="47.90406" lon="6.90826">
        <ele>1020.7</ele>
        <time>2022-08-29T08:14:17Z</time>
      </trkpt>
      <trkpt lat="47.90405" lon="6.90826">
        <ele>1020.6</ele>
        <time>2022-08-29T08:14:18Z</time>
      </trkpt>
      <trkpt lat="47.90404" lon="6.90825">
        <ele>1020.2</ele>
        <time>2022-08-29T08:14:19Z</time>
      </trkpt>
      <trkpt lat="47.90403" lon="6.90824">
        <ele>1019.8</ele>
        <time>2022-08-29T08:14:20Z</time>
      </trkpt>
      <trkpt lat="47.90401" lon="6.90824">
        <ele>1019.6</ele>
        <time>2022-08-29T08:14:21Z</time>
      </trkpt>
      <trkpt lat="47.904" lon="6.90823">
        <ele>1019.2</ele>
        <time>2022-08-29T08:14:22Z</time>
      </trkpt>
      <trkpt lat="47.90398" lon="6.90823">
        <ele>1019</ele>
        <time>2022-08-29T08:14:23Z</time>
      </trkpt>
      <trkpt lat="47.90397" lon="6.90822">
        <ele>1018.6</ele>
        <time>2022-08-29T08:14:24Z</time>
      </trkpt>
      <trkpt lat="47.90396" lon="6.90822">
        <ele>1018.5</ele>
        <time>2022-08-29T08:14:25Z</time>
      </trkpt>
      <trkpt lat="47.90395" lon="6.90821">
        <ele>1018.1</ele>
        <time>2022-08-29T08:14:26Z</time>
      </trkpt>
      <trkpt lat="47.90394" lon="6.90821">
        <ele>1018</ele>
        <time>2022-08-29T08:14:27Z</time>
      </trkpt>
      <trkpt lat="47.90393" lon="6.90821">
        <ele>1017.9</ele>
        <time>2022-08-29T08:14:29Z</time>
      </trkpt>
      <trkpt lat="47.90392" lon="6.90821">
        <ele>1017.8</ele>
        <time>2022-08-29T08:14:30Z</time>
      </trkpt>
      <trkpt lat="47.90392" lon="6.9082">
        <ele>1017.5</ele>
        <time>2022-08-29T08:14:31Z</time>
      </trkpt>
      <trkpt lat="47.90391" lon="6.9082">
        <ele>1017.4</ele>
        <time>2022-08-29T08:14:32Z</time>
      </trkpt>
      <trkpt lat="47.9039" lon="6.9082">
        <ele>1017.3</ele>
        <time>2022-08-29T08:14:33Z</time>
      </trkpt>
      <trkpt lat="47.90389" lon="6.9082">
        <ele>1017.2</ele>
        <time>2022-08-29T08:14:35Z</time>
      </trkpt>
      <trkpt lat="47.90388" lon="6.90819">
        <ele>1016.8</ele>
        <time>2022-08-29T08:14:36Z</time>
      </trkpt>
      <trkpt lat="47.90387" lon="6.90818">
        <ele>1016.5</ele>
        <time>2022-08-29T08:14:38Z</time>
      </trkpt>
      <trkpt lat="47.90386" lon="6.90817">
        <ele>1016.1</ele>
        <time>2022-08-29T08:14:39Z</time>
      </trkpt>
      <trkpt lat="47.90385" lon="6.90817">
        <ele>1016.1</ele>
        <time>2022-08-29T08:14:40Z</time>
      </trkpt>
      <trkpt lat="47.90384" lon="6.90816">
        <ele>1015.7</ele>
        <time>2022-08-29T08:14:41Z</time>
      </trkpt>
      <trkpt lat="47.90383" lon="6.90816">
        <ele>1015.7</ele>
        <time>2022-08-29T08:14:42Z</time>
      </trkpt>
      <trkpt lat="47.90382" lon="6.90815">
        <ele>1015.3</ele>
        <time>2022-08-29T08:14:44Z</time>
      </trkpt>
      <trkpt lat="47.90381" lon="6.90815">
        <ele>1015.2</ele>
        <time>2022-08-29T08:14:45Z</time>
      </trkpt>
      <trkpt lat="47.9038" lon="6.90814">
        <ele>1014.9</ele>
        <time>2022-08-29T08:14:46Z</time>
      </trkpt>
      <trkpt lat="47.90378" lon="6.90813">
        <ele>1014.5</ele>
        <time>2022-08-29T08:14:47Z</time>
      </trkpt>
      <trkpt lat="47.90377" lon="6.90812">
        <ele>1014.1</ele>
        <time>2022-08-29T08:14:48Z</time>
      </trkpt>
      <trkpt lat="47.90376" lon="6.90811">
        <ele>1013.7</ele>
        <time>2022-08-29T08:14:49Z</time>
      </trkpt>
      <trkpt lat="47.90375" lon="6.90811">
        <ele>1013.7</ele>
        <time>2022-08-29T08:14:52Z</time>
      </trkpt>
      <trkpt lat="47.90374" lon="6.90811">
        <ele>1013.6</ele>
        <time>2022-08-29T08:14:55Z</time>
      </trkpt>
      <trkpt lat="47.90373" lon="6.90811">
        <ele>1013.5</ele>
        <time>2022-08-29T08:14:56Z</time>
      </trkpt>
      <trkpt lat="47.90372" lon="6.90811">
        <ele>1013.5</ele>
        <time>2022-08-29T08:14:58Z</time>
      </trkpt>
      <trkpt lat="47.90371" lon="6.90812">
        <ele>1013.7</ele>
        <time>2022-08-29T08:14:59Z</time>
      </trkpt>
      <trkpt lat="47.9037" lon="6.90812">
        <ele>1013.7</ele>
        <time>2022-08-29T08:15:01Z</time>
      </trkpt>
      <trkpt lat="47.90369" lon="6.90812">
        <ele>1013.6</ele>
        <time>2022-08-29T08:15:02Z</time>
      </trkpt>
      <trkpt lat="47.90368" lon="6.90812">
        <ele>1013.5</ele>
        <time>2022-08-29T08:15:03Z</time>
      </trkpt>
      <trkpt lat="47.90366" lon="6.90812">
        <ele>1013.4</ele>
        <time>2022-08-29T08:15:04Z</time>
      </trkpt>
      <trkpt lat="47.90365" lon="6.90811">
        <ele>1013</ele>
        <time>2022-08-29T08:15:05Z</time>
      </trkpt>
      <trkpt lat="47.90364" lon="6.9081">
        <ele>1012.6</ele>
        <time>2022-08-29T08:15:06Z</time>
      </trkpt>
      <trkpt lat="47.90363" lon="6.90809">
        <ele>1012.2</ele>
        <time>2022-08-29T08:15:07Z</time>
      </trkpt>
      <trkpt lat="47.90362" lon="6.90808">
        <ele>1011.9</ele>
        <time>2022-08-29T08:15:08Z</time>
      </trkpt>
      <trkpt lat="47.90361" lon="6.90808">
        <ele>1011.8</ele>
        <time>2022-08-29T08:15:09Z</time>
      </trkpt>
      <trkpt lat="47.9036" lon="6.90807">
        <ele>1011.4</ele>
        <time>2022-08-29T08:15:10Z</time>
      </trkpt>
      <trkpt lat="47.90359" lon="6.90807">
        <ele>1011.2</ele>
        <time>2022-08-29T08:15:11Z</time>
      </trkpt>
      <trkpt lat="47.90358" lon="6.90806">
        <ele>1010.8</ele>
        <time>2022-08-29T08:15:12Z</time>
      </trkpt>
      <trkpt lat="47.90357" lon="6.90805">
        <ele>1010.4</ele>
        <time>2022-08-29T08:15:13Z</time>
      </trkpt>
      <trkpt lat="47.90355" lon="6.90805">
        <ele>1010.2</ele>
        <time>2022-08-29T08:15:14Z</time>
      </trkpt>
      <trkpt lat="47.90355" lon="6.90804">
        <ele>1009.8</ele>
        <time>2022-08-29T08:15:15Z</time>
      </trkpt>
      <trkpt lat="47.90354" lon="6.90804">
        <ele>1009.7</ele>
        <time>2022-08-29T08:15:16Z</time>
      </trkpt>
      <trkpt lat="47.90353" lon="6.90803">
        <ele>1009.3</ele>
        <time>2022-08-29T08:15:18Z</time>
      </trkpt>
      <trkpt lat="47.90352" lon="6.90803">
        <ele>1009.2</ele>
        <time>2022-08-29T08:15:19Z</time>
      </trkpt>
      <trkpt lat="47.90351" lon="6.90803">
        <ele>1009.1</ele>
        <time>2022-08-29T08:15:20Z</time>
      </trkpt>
      <trkpt lat="47.9035" lon="6.90802">
        <ele>1008.7</ele>
        <time>2022-08-29T08:15:21Z</time>
      </trkpt>
      <trkpt lat="47.90349" lon="6.90802">
        <ele>1008.6</ele>
        <time>2022-08-29T08:15:22Z</time>
      </trkpt>
      <trkpt lat="47.90348" lon="6.90802">
        <ele>1008.5</ele>
        <time>2022-08-29T08:15:23Z</time>
      </trkpt>
      <trkpt lat="47.90347" lon="6.90802">
        <ele>1008.4</ele>
        <time>2022-08-29T08:15:24Z</time>
      </trkpt>
      <trkpt lat="47.90346" lon="6.90802">
        <ele>1008.3</ele>
        <time>2022-08-29T08:15:25Z</time>
      </trkpt>
      <trkpt lat="47.90344" lon="6.90802">
        <ele>1008.1</ele>
        <time>2022-08-29T08:15:26Z</time>
      </trkpt>
      <trkpt lat="47.90343" lon="6.90801">
        <ele>1007.7</ele>
        <time>2022-08-29T08:15:27Z</time>
      </trkpt>
      <trkpt lat="47.90342" lon="6.90801">
        <ele>1007.6</ele>
        <time>2022-08-29T08:15:28Z</time>
      </trkpt>
      <trkpt lat="47.9034" lon="6.90801">
        <ele>1007.4</ele>
        <time>2022-08-29T08:15:29Z</time>
      </trkpt>
      <trkpt lat="47.90339" lon="6.90801">
        <ele>1007.3</ele>
        <time>2022-08-29T08:15:31Z</time>
      </trkpt>
      <trkpt lat="47.90338" lon="6.90801">
        <ele>1007.2</ele>
        <time>2022-08-29T08:15:32Z</time>
      </trkpt>
      <trkpt lat="47.90337" lon="6.90801">
        <ele>1007.1</ele>
        <time>2022-08-29T08:15:34Z</time>
      </trkpt>
      <trkpt lat="47.90336" lon="6.90802">
        <ele>1007.3</ele>
        <time>2022-08-29T08:15:35Z</time>
      </trkpt>
      <trkpt lat="47.90335" lon="6.90802">
        <ele>1007.1</ele>
        <time>2022-08-29T08:15:36Z</time>
      </trkpt>
      <trkpt lat="47.90334" lon="6.90802">
        <ele>1007</ele>
        <time>2022-08-29T08:15:37Z</time>
      </trkpt>
      <trkpt lat="47.90333" lon="6.90802">
        <ele>1007</ele>
        <time>2022-08-29T08:15:39Z</time>
      </trkpt>
      <trkpt lat="47.90332" lon="6.90802">
        <ele>1007</ele>
        <time>2022-08-29T08:15:42Z</time>
      </trkpt>
      <trkpt lat="47.90332" lon="6.90801">
        <ele>1006.7</ele>
        <time>2022-08-29T08:15:43Z</time>
      </trkpt>
      <trkpt lat="47.90331" lon="6.90801">
        <ele>1006.7</ele>
        <time>2022-08-29T08:15:44Z</time>
      </trkpt>
      <trkpt lat="47.9033" lon="6.90801">
        <ele>1006.6</ele>
        <time>2022-08-29T08:15:45Z</time>
      </trkpt>
      <trkpt lat="47.9033" lon="6.908">
        <ele>1006.4</ele>
        <time>2022-08-29T08:15:46Z</time>
      </trkpt>
      <trkpt lat="47.90329" lon="6.908">
        <ele>1006.3</ele>
        <time>2022-08-29T08:15:47Z</time>
      </trkpt>
      <trkpt lat="47.90328" lon="6.90799">
        <ele>1006</ele>
        <time>2022-08-29T08:15:48Z</time>
      </trkpt>
      <trkpt lat="47.90327" lon="6.90799">
        <ele>1006</ele>
        <time>2022-08-29T08:15:49Z</time>
      </trkpt>
      <trkpt lat="47.90325" lon="6.90798">
        <ele>1005.7</ele>
        <time>2022-08-29T08:15:50Z</time>
      </trkpt>
      <trkpt lat="47.90325" lon="6.90797">
        <ele>1005.4</ele>
        <time>2022-08-29T08:15:51Z</time>
      </trkpt>
      <trkpt lat="47.90324" lon="6.90797">
        <ele>1005.3</ele>
        <time>2022-08-29T08:15:52Z</time>
      </trkpt>
      <trkpt lat="47.90323" lon="6.90796">
        <ele>1005</ele>
        <time>2022-08-29T08:15:53Z</time>
      </trkpt>
      <trkpt lat="47.90322" lon="6.90796">
        <ele>1005</ele>
        <time>2022-08-29T08:15:54Z</time>
      </trkpt>
      <trkpt lat="47.90321" lon="6.90795">
        <ele>1004.6</ele>
        <time>2022-08-29T08:15:55Z</time>
      </trkpt>
      <trkpt lat="47.9032" lon="6.90795">
        <ele>1004.6</ele>
        <time>2022-08-29T08:15:56Z</time>
      </trkpt>
      <trkpt lat="47.90319" lon="6.90795">
        <ele>1004.6</ele>
        <time>2022-08-29T08:15:57Z</time>
      </trkpt>
      <trkpt lat="47.90318" lon="6.90794">
        <ele>1004.2</ele>
        <time>2022-08-29T08:15:58Z</time>
      </trkpt>
      <trkpt lat="47.90317" lon="6.90793">
        <ele>1003.9</ele>
        <time>2022-08-29T08:15:59Z</time>
      </trkpt>
      <trkpt lat="47.90315" lon="6.90792">
        <ele>1003.5</ele>
        <time>2022-08-29T08:16:09Z</time>
      </trkpt>
      <trkpt lat="47.90314" lon="6.90791">
        <ele>1003.1</ele>
        <time>2022-08-29T08:16:10Z</time>
      </trkpt>
      <trkpt lat="47.90313" lon="6.90791">
        <ele>1003</ele>
        <time>2022-08-29T08:16:11Z</time>
      </trkpt>
      <trkpt lat="47.90311" lon="6.9079">
        <ele>1002.6</ele>
        <time>2022-08-29T08:16:12Z</time>
      </trkpt>
      <trkpt lat="47.9031" lon="6.9079">
        <ele>1002.6</ele>
        <time>2022-08-29T08:16:13Z</time>
      </trkpt>
      <trkpt lat="47.90309" lon="6.90789">
        <ele>1002.2</ele>
        <time>2022-08-29T08:16:14Z</time>
      </trkpt>
      <trkpt lat="47.90307" lon="6.90789">
        <ele>1002.1</ele>
        <time>2022-08-29T08:16:15Z</time>
      </trkpt>
      <trkpt lat="47.90306" lon="6.90789">
        <ele>1002.1</ele>
        <time>2022-08-29T08:16:16Z</time>
      </trkpt>
      <trkpt lat="47.90304" lon="6.90789">
        <ele>1002.1</ele>
        <time>2022-08-29T08:16:17Z</time>
      </trkpt>
      <trkpt lat="47.90303" lon="6.90788">
        <ele>1001.8</ele>
        <time>2022-08-29T08:16:18Z</time>
      </trkpt>
      <trkpt lat="47.90302" lon="6.90788">
        <ele>1001.8</ele>
        <time>2022-08-29T08:16:20Z</time>
      </trkpt>
      <trkpt lat="47.903" lon="6.90787">
        <ele>1001.5</ele>
        <time>2022-08-29T08:16:21Z</time>
      </trkpt>
      <trkpt lat="47.90299" lon="6.90786">
        <ele>1001.2</ele>
        <time>2022-08-29T08:16:24Z</time>
      </trkpt>
      <trkpt lat="47.90298" lon="6.90785">
        <ele>1000.9</ele>
        <time>2022-08-29T08:16:26Z</time>
      </trkpt>
      <trkpt lat="47.90298" lon="6.90784">
        <ele>1000.5</ele>
        <time>2022-08-29T08:16:27Z</time>
      </trkpt>
      <trkpt lat="47.90297" lon="6.90783">
        <ele>1000.2</ele>
        <time>2022-08-29T08:16:28Z</time>
      </trkpt>
      <trkpt lat="47.90297" lon="6.90782">
        <ele>999.8</ele>
        <time>2022-08-29T08:16:29Z</time>
      </trkpt>
      <trkpt lat="47.90296" lon="6.90782">
        <ele>999.9</ele>
        <time>2022-08-29T08:16:30Z</time>
      </trkpt>
      <trkpt lat="47.90295" lon="6.90781">
        <ele>999.5</ele>
        <time>2022-08-29T08:16:31Z</time>
      </trkpt>
      <trkpt lat="47.90294" lon="6.9078">
        <ele>999.2</ele>
        <time>2022-08-29T08:16:32Z</time>
      </trkpt>
      <trkpt lat="47.90292" lon="6.90779">
        <ele>998.9</ele>
        <time>2022-08-29T08:16:33Z</time>
      </trkpt>
      <trkpt lat="47.90291" lon="6.90778">
        <ele>998.6</ele>
        <time>2022-08-29T08:16:34Z</time>
      </trkpt>
      <trkpt lat="47.9029" lon="6.90778">
        <ele>998.6</ele>
        <time>2022-08-29T08:16:35Z</time>
      </trkpt>
      <trkpt lat="47.90289" lon="6.90777">
        <ele>998.3</ele>
        <time>2022-08-29T08:16:36Z</time>
      </trkpt>
      <trkpt lat="47.90288" lon="6.90776">
        <ele>998</ele>
        <time>2022-08-29T08:16:37Z</time>
      </trkpt>
      <trkpt lat="47.90287" lon="6.90775">
        <ele>997.7</ele>
        <time>2022-08-29T08:16:38Z</time>
      </trkpt>
      <trkpt lat="47.90286" lon="6.90775">
        <ele>997.7</ele>
        <time>2022-08-29T08:16:39Z</time>
      </trkpt>
      <trkpt lat="47.90285" lon="6.90774">
        <ele>997.4</ele>
        <time>2022-08-29T08:16:40Z</time>
      </trkpt>
      <trkpt lat="47.90284" lon="6.90773">
        <ele>997.1</ele>
        <time>2022-08-29T08:16:43Z</time>
      </trkpt>
      <trkpt lat="47.90283" lon="6.90774">
        <ele>997.5</ele>
        <time>2022-08-29T08:16:45Z</time>
      </trkpt>
      <trkpt lat="47.90282" lon="6.90774">
        <ele>997.5</ele>
        <time>2022-08-29T08:16:47Z</time>
      </trkpt>
      <trkpt lat="47.90282" lon="6.90775">
        <ele>997.8</ele>
        <time>2022-08-29T08:16:48Z</time>
      </trkpt>
      <trkpt lat="47.90281" lon="6.90775">
        <ele>997.9</ele>
        <time>2022-08-29T08:16:49Z</time>
      </trkpt>
      <trkpt lat="47.9028" lon="6.90775">
        <ele>997.9</ele>
        <time>2022-08-29T08:16:50Z</time>
      </trkpt>
      <trkpt lat="47.90279" lon="6.90774">
        <ele>997.6</ele>
        <time>2022-08-29T08:16:51Z</time>
      </trkpt>
      <trkpt lat="47.90278" lon="6.90774">
        <ele>997.6</ele>
        <time>2022-08-29T08:16:52Z</time>
      </trkpt>
      <trkpt lat="47.90277" lon="6.90773">
        <ele>997.4</ele>
        <time>2022-08-29T08:16:53Z</time>
      </trkpt>
      <trkpt lat="47.90276" lon="6.90773">
        <ele>997.5</ele>
        <time>2022-08-29T08:16:54Z</time>
      </trkpt>
      <trkpt lat="47.90276" lon="6.90772">
        <ele>997.1</ele>
        <time>2022-08-29T08:16:56Z</time>
      </trkpt>
      <trkpt lat="47.90276" lon="6.90771">
        <ele>996.8</ele>
        <time>2022-08-29T08:17:00Z</time>
      </trkpt>
      <trkpt lat="47.90274" lon="6.9077">
        <ele>996.6</ele>
        <time>2022-08-29T08:17:01Z</time>
      </trkpt>
      <trkpt lat="47.90273" lon="6.90769">
        <ele>996.4</ele>
        <time>2022-08-29T08:17:02Z</time>
      </trkpt>
      <trkpt lat="47.90272" lon="6.90768">
        <ele>996.2</ele>
        <time>2022-08-29T08:17:03Z</time>
      </trkpt>
      <trkpt lat="47.9027" lon="6.90767">
        <ele>996.1</ele>
        <time>2022-08-29T08:17:04Z</time>
      </trkpt>
      <trkpt lat="47.90268" lon="6.90765">
        <ele>995.6</ele>
        <time>2022-08-29T08:17:14Z</time>
      </trkpt>
      <trkpt lat="47.90266" lon="6.90764">
        <ele>995.5</ele>
        <time>2022-08-29T08:17:15Z</time>
      </trkpt>
      <trkpt lat="47.90265" lon="6.90764">
        <ele>995.6</ele>
        <time>2022-08-29T08:17:16Z</time>
      </trkpt>
      <trkpt lat="47.90263" lon="6.90761">
        <ele>994.9</ele>
        <time>2022-08-29T08:17:25Z</time>
      </trkpt>
      <trkpt lat="47.90262" lon="6.9076">
        <ele>994.7</ele>
        <time>2022-08-29T08:17:26Z</time>
      </trkpt>
      <trkpt lat="47.90261" lon="6.90759">
        <ele>994.5</ele>
        <time>2022-08-29T08:17:27Z</time>
      </trkpt>
      <trkpt lat="47.9026" lon="6.90758">
        <ele>994.3</ele>
        <time>2022-08-29T08:17:28Z</time>
      </trkpt>
      <trkpt lat="47.90259" lon="6.90756">
        <ele>993.7</ele>
        <time>2022-08-29T08:17:29Z</time>
      </trkpt>
      <trkpt lat="47.90258" lon="6.90755">
        <ele>993.5</ele>
        <time>2022-08-29T08:17:30Z</time>
      </trkpt>
      <trkpt lat="47.90257" lon="6.90754">
        <ele>993.3</ele>
        <time>2022-08-29T08:17:31Z</time>
      </trkpt>
      <trkpt lat="47.90256" lon="6.90752">
        <ele>992.8</ele>
        <time>2022-08-29T08:17:32Z</time>
      </trkpt>
      <trkpt lat="47.90255" lon="6.90751">
        <ele>992.6</ele>
        <time>2022-08-29T08:17:33Z</time>
      </trkpt>
      <trkpt lat="47.90254" lon="6.9075">
        <ele>992.4</ele>
        <time>2022-08-29T08:17:34Z</time>
      </trkpt>
      <trkpt lat="47.90253" lon="6.90748">
        <ele>992.2</ele>
        <time>2022-08-29T08:17:35Z</time>
      </trkpt>
      <trkpt lat="47.90252" lon="6.90747">
        <ele>992.1</ele>
        <time>2022-08-29T08:17:36Z</time>
      </trkpt>
      <trkpt lat="47.90251" lon="6.90746">
        <ele>992.1</ele>
        <time>2022-08-29T08:17:37Z</time>
      </trkpt>
      <trkpt lat="47.9025" lon="6.90744">
        <ele>991.9</ele>
        <time>2022-08-29T08:17:38Z</time>
      </trkpt>
      <trkpt lat="47.90249" lon="6.90743">
        <ele>991.8</ele>
        <time>2022-08-29T08:17:39Z</time>
      </trkpt>
      <trkpt lat="47.90248" lon="6.90742">
        <ele>991.7</ele>
        <time>2022-08-29T08:17:40Z</time>
      </trkpt>
      <trkpt lat="47.90247" lon="6.90741">
        <ele>991.6</ele>
        <time>2022-08-29T08:17:41Z</time>
      </trkpt>
      <trkpt lat="47.90247" lon="6.9074">
        <ele>991.4</ele>
        <time>2022-08-29T08:17:42Z</time>
      </trkpt>
      <trkpt lat="47.90246" lon="6.90739">
        <ele>991.3</ele>
        <time>2022-08-29T08:17:43Z</time>
      </trkpt>
      <trkpt lat="47.90245" lon="6.90738">
        <ele>991.2</ele>
        <time>2022-08-29T08:17:44Z</time>
      </trkpt>
      <trkpt lat="47.90244" lon="6.90737">
        <ele>991.1</ele>
        <time>2022-08-29T08:17:46Z</time>
      </trkpt>
      <trkpt lat="47.90243" lon="6.90736">
        <ele>991</ele>
        <time>2022-08-29T08:17:47Z</time>
      </trkpt>
      <trkpt lat="47.90243" lon="6.90735">
        <ele>990.8</ele>
        <time>2022-08-29T08:17:48Z</time>
      </trkpt>
      <trkpt lat="47.90243" lon="6.90734">
        <ele>990.6</ele>
        <time>2022-08-29T08:17:50Z</time>
      </trkpt>
      <trkpt lat="47.90243" lon="6.90733">
        <ele>990.4</ele>
        <time>2022-08-29T08:17:52Z</time>
      </trkpt>
      <trkpt lat="47.90242" lon="6.90733">
        <ele>990.5</ele>
        <time>2022-08-29T08:17:53Z</time>
      </trkpt>
      <trkpt lat="47.90242" lon="6.90732">
        <ele>990.3</ele>
        <time>2022-08-29T08:17:54Z</time>
      </trkpt>
      <trkpt lat="47.90241" lon="6.90731">
        <ele>990.2</ele>
        <time>2022-08-29T08:17:55Z</time>
      </trkpt>
      <trkpt lat="47.9024" lon="6.90731">
        <ele>990.3</ele>
        <time>2022-08-29T08:17:56Z</time>
      </trkpt>
      <trkpt lat="47.9024" lon="6.9073">
        <ele>990.1</ele>
        <time>2022-08-29T08:17:57Z</time>
      </trkpt>
      <trkpt lat="47.90239" lon="6.9073">
        <ele>990.2</ele>
        <time>2022-08-29T08:17:58Z</time>
      </trkpt>
      <trkpt lat="47.90238" lon="6.90729">
        <ele>990.1</ele>
        <time>2022-08-29T08:17:59Z</time>
      </trkpt>
      <trkpt lat="47.90237" lon="6.90729">
        <ele>990.2</ele>
        <time>2022-08-29T08:18:00Z</time>
      </trkpt>
      <trkpt lat="47.90237" lon="6.90728">
        <ele>990</ele>
        <time>2022-08-29T08:18:01Z</time>
      </trkpt>
      <trkpt lat="47.90236" lon="6.90727">
        <ele>989.9</ele>
        <time>2022-08-29T08:18:02Z</time>
      </trkpt>
      <trkpt lat="47.90235" lon="6.90726">
        <ele>989.8</ele>
        <time>2022-08-29T08:18:03Z</time>
      </trkpt>
      <trkpt lat="47.90235" lon="6.90725">
        <ele>989.6</ele>
        <time>2022-08-29T08:18:04Z</time>
      </trkpt>
      <trkpt lat="47.90234" lon="6.90724">
        <ele>989.5</ele>
        <time>2022-08-29T08:18:05Z</time>
      </trkpt>
      <trkpt lat="47.90234" lon="6.90723">
        <ele>989.3</ele>
        <time>2022-08-29T08:18:06Z</time>
      </trkpt>
      <trkpt lat="47.90233" lon="6.90722">
        <ele>989.2</ele>
        <time>2022-08-29T08:18:07Z</time>
      </trkpt>
      <trkpt lat="47.90232" lon="6.90721">
        <ele>989</ele>
        <time>2022-08-29T08:18:08Z</time>
      </trkpt>
      <trkpt lat="47.90231" lon="6.9072">
        <ele>988.9</ele>
        <time>2022-08-29T08:18:09Z</time>
      </trkpt>
      <trkpt lat="47.9023" lon="6.90719">
        <ele>988.7</ele>
        <time>2022-08-29T08:18:10Z</time>
      </trkpt>
      <trkpt lat="47.90229" lon="6.90718">
        <ele>988.6</ele>
        <time>2022-08-29T08:18:11Z</time>
      </trkpt>
      <trkpt lat="47.90228" lon="6.90717">
        <ele>988.5</ele>
        <time>2022-08-29T08:18:12Z</time>
      </trkpt>
      <trkpt lat="47.90227" lon="6.90716">
        <ele>988.4</ele>
        <time>2022-08-29T08:18:13Z</time>
      </trkpt>
      <trkpt lat="47.90226" lon="6.90715">
        <ele>988.3</ele>
        <time>2022-08-29T08:18:14Z</time>
      </trkpt>
      <trkpt lat="47.90225" lon="6.90714">
        <ele>988.2</ele>
        <time>2022-08-29T08:18:15Z</time>
      </trkpt>
      <trkpt lat="47.90223" lon="6.90712">
        <ele>988.1</ele>
        <time>2022-08-29T08:18:16Z</time>
      </trkpt>
      <trkpt lat="47.90222" lon="6.90711">
        <ele>987.9</ele>
        <time>2022-08-29T08:18:17Z</time>
      </trkpt>
      <trkpt lat="47.90221" lon="6.9071">
        <ele>987.6</ele>
        <time>2022-08-29T08:18:18Z</time>
      </trkpt>
      <trkpt lat="47.9022" lon="6.90709">
        <ele>987.3</ele>
        <time>2022-08-29T08:18:19Z</time>
      </trkpt>
      <trkpt lat="47.90219" lon="6.90708">
        <ele>987</ele>
        <time>2022-08-29T08:18:20Z</time>
      </trkpt>
      <trkpt lat="47.90218" lon="6.90707">
        <ele>986.7</ele>
        <time>2022-08-29T08:18:21Z</time>
      </trkpt>
      <trkpt lat="47.90217" lon="6.90705">
        <ele>986.1</ele>
        <time>2022-08-29T08:18:22Z</time>
      </trkpt>
      <trkpt lat="47.90216" lon="6.90704">
        <ele>985.8</ele>
        <time>2022-08-29T08:18:23Z</time>
      </trkpt>
      <trkpt lat="47.90215" lon="6.90703">
        <ele>985.5</ele>
        <time>2022-08-29T08:18:24Z</time>
      </trkpt>
      <trkpt lat="47.90214" lon="6.90702">
        <ele>985.2</ele>
        <time>2022-08-29T08:18:25Z</time>
      </trkpt>
      <trkpt lat="47.90213" lon="6.90701">
        <ele>984.9</ele>
        <time>2022-08-29T08:18:26Z</time>
      </trkpt>
      <trkpt lat="47.90212" lon="6.90699">
        <ele>984.3</ele>
        <time>2022-08-29T08:18:27Z</time>
      </trkpt>
      <trkpt lat="47.90211" lon="6.90698">
        <ele>984</ele>
        <time>2022-08-29T08:18:28Z</time>
      </trkpt>
      <trkpt lat="47.9021" lon="6.90696">
        <ele>983.5</ele>
        <time>2022-08-29T08:18:29Z</time>
      </trkpt>
      <trkpt lat="47.90209" lon="6.90695">
        <ele>983.2</ele>
        <time>2022-08-29T08:18:30Z</time>
      </trkpt>
      <trkpt lat="47.90209" lon="6.90693">
        <ele>982.9</ele>
        <time>2022-08-29T08:18:31Z</time>
      </trkpt>
      <trkpt lat="47.90209" lon="6.90692">
        <ele>982.7</ele>
        <time>2022-08-29T08:18:32Z</time>
      </trkpt>
      <trkpt lat="47.90209" lon="6.90691">
        <ele>982.5</ele>
        <time>2022-08-29T08:18:33Z</time>
      </trkpt>
      <trkpt lat="47.90209" lon="6.9069">
        <ele>982.4</ele>
        <time>2022-08-29T08:18:34Z</time>
      </trkpt>
      <trkpt lat="47.90209" lon="6.90689">
        <ele>982.2</ele>
        <time>2022-08-29T08:18:35Z</time>
      </trkpt>
      <trkpt lat="47.90209" lon="6.90688">
        <ele>982</ele>
        <time>2022-08-29T08:18:36Z</time>
      </trkpt>
      <trkpt lat="47.90209" lon="6.90687">
        <ele>981.9</ele>
        <time>2022-08-29T08:18:37Z</time>
      </trkpt>
      <trkpt lat="47.90208" lon="6.90686">
        <ele>981.6</ele>
        <time>2022-08-29T08:18:39Z</time>
      </trkpt>
      <trkpt lat="47.90208" lon="6.90685">
        <ele>981.4</ele>
        <time>2022-08-29T08:18:40Z</time>
      </trkpt>
      <trkpt lat="47.90207" lon="6.90684">
        <ele>981.2</ele>
        <time>2022-08-29T08:18:42Z</time>
      </trkpt>
      <trkpt lat="47.90207" lon="6.90683">
        <ele>981.1</ele>
        <time>2022-08-29T08:18:43Z</time>
      </trkpt>
      <trkpt lat="47.90206" lon="6.90682">
        <ele>980.8</ele>
        <time>2022-08-29T08:18:44Z</time>
      </trkpt>
      <trkpt lat="47.90206" lon="6.90681">
        <ele>980.7</ele>
        <time>2022-08-29T08:18:45Z</time>
      </trkpt>
      <trkpt lat="47.90205" lon="6.9068">
        <ele>980.5</ele>
        <time>2022-08-29T08:18:46Z</time>
      </trkpt>
      <trkpt lat="47.90204" lon="6.90679">
        <ele>980.3</ele>
        <time>2022-08-29T08:18:47Z</time>
      </trkpt>
      <trkpt lat="47.90203" lon="6.90678">
        <ele>980.1</ele>
        <time>2022-08-29T08:18:48Z</time>
      </trkpt>
      <trkpt lat="47.90202" lon="6.90677">
        <ele>980</ele>
        <time>2022-08-29T08:18:49Z</time>
      </trkpt>
      <trkpt lat="47.90202" lon="6.90676">
        <ele>979.9</ele>
        <time>2022-08-29T08:18:50Z</time>
      </trkpt>
      <trkpt lat="47.90201" lon="6.90676">
        <ele>979.8</ele>
        <time>2022-08-29T08:18:51Z</time>
      </trkpt>
      <trkpt lat="47.90201" lon="6.90675">
        <ele>979.7</ele>
        <time>2022-08-29T08:18:52Z</time>
      </trkpt>
      <trkpt lat="47.902" lon="6.90674">
        <ele>979.6</ele>
        <time>2022-08-29T08:18:53Z</time>
      </trkpt>
      <trkpt lat="47.902" lon="6.90673">
        <ele>979.5</ele>
        <time>2022-08-29T08:18:54Z</time>
      </trkpt>
      <trkpt lat="47.902" lon="6.90672">
        <ele>979.4</ele>
        <time>2022-08-29T08:18:55Z</time>
      </trkpt>
      <trkpt lat="47.902" lon="6.9067">
        <ele>979.2</ele>
        <time>2022-08-29T08:18:56Z</time>
      </trkpt>
      <trkpt lat="47.902" lon="6.90669">
        <ele>979.1</ele>
        <time>2022-08-29T08:18:57Z</time>
      </trkpt>
      <trkpt lat="47.902" lon="6.90668">
        <ele>978.9</ele>
        <time>2022-08-29T08:18:58Z</time>
      </trkpt>
      <trkpt lat="47.902" lon="6.90667">
        <ele>978.8</ele>
        <time>2022-08-29T08:19:00Z</time>
      </trkpt>
      <trkpt lat="47.90199" lon="6.90665">
        <ele>978.7</ele>
        <time>2022-08-29T08:19:11Z</time>
      </trkpt>
      <trkpt lat="47.90198" lon="6.90665">
        <ele>978.7</ele>
        <time>2022-08-29T08:19:12Z</time>
      </trkpt>
      <trkpt lat="47.90198" lon="6.90666">
        <ele>978.8</ele>
        <time>2022-08-29T08:19:16Z</time>
      </trkpt>
      <trkpt lat="47.90197" lon="6.90666">
        <ele>978.9</ele>
        <time>2022-08-29T08:19:17Z</time>
      </trkpt>
      <trkpt lat="47.90198" lon="6.90666">
        <ele>978.8</ele>
        <time>2022-08-29T08:19:19Z</time>
      </trkpt>
      <trkpt lat="47.90198" lon="6.90665">
        <ele>978.7</ele>
        <time>2022-08-29T08:19:22Z</time>
      </trkpt>
      <trkpt lat="47.90199" lon="6.90664">
        <ele>978.6</ele>
        <time>2022-08-29T08:19:23Z</time>
      </trkpt>
      <trkpt lat="47.90199" lon="6.90663">
        <ele>978.5</ele>
        <time>2022-08-29T08:19:24Z</time>
      </trkpt>
      <trkpt lat="47.90199" lon="6.90661">
        <ele>978.3</ele>
        <time>2022-08-29T08:19:25Z</time>
      </trkpt>
      <trkpt lat="47.90199" lon="6.9066">
        <ele>978.2</ele>
        <time>2022-08-29T08:19:26Z</time>
      </trkpt>
      <trkpt lat="47.902" lon="6.90658">
        <ele>978</ele>
        <time>2022-08-29T08:19:27Z</time>
      </trkpt>
      <trkpt lat="47.902" lon="6.90657">
        <ele>977.9</ele>
        <time>2022-08-29T08:19:28Z</time>
      </trkpt>
      <trkpt lat="47.902" lon="6.90655">
        <ele>977.7</ele>
        <time>2022-08-29T08:19:29Z</time>
      </trkpt>
      <trkpt lat="47.902" lon="6.90653">
        <ele>977.5</ele>
        <time>2022-08-29T08:19:30Z</time>
      </trkpt>
      <trkpt lat="47.902" lon="6.90652">
        <ele>977.4</ele>
        <time>2022-08-29T08:19:31Z</time>
      </trkpt>
      <trkpt lat="47.90201" lon="6.9065">
        <ele>977.1</ele>
        <time>2022-08-29T08:19:32Z</time>
      </trkpt>
      <trkpt lat="47.90201" lon="6.90648">
        <ele>976.9</ele>
        <time>2022-08-29T08:19:33Z</time>
      </trkpt>
      <trkpt lat="47.90201" lon="6.90646">
        <ele>976.7</ele>
        <time>2022-08-29T08:19:34Z</time>
      </trkpt>
      <trkpt lat="47.90202" lon="6.90644">
        <ele>976.4</ele>
        <time>2022-08-29T08:19:35Z</time>
      </trkpt>
      <trkpt lat="47.90202" lon="6.90642">
        <ele>976.2</ele>
        <time>2022-08-29T08:19:36Z</time>
      </trkpt>
      <trkpt lat="47.90202" lon="6.90641">
        <ele>976.1</ele>
        <time>2022-08-29T08:19:37Z</time>
      </trkpt>
      <trkpt lat="47.90202" lon="6.90639">
        <ele>975.9</ele>
        <time>2022-08-29T08:19:38Z</time>
      </trkpt>
      <trkpt lat="47.90202" lon="6.90637">
        <ele>975.8</ele>
        <time>2022-08-29T08:19:39Z</time>
      </trkpt>
      <trkpt lat="47.90202" lon="6.90635">
        <ele>975.7</ele>
        <time>2022-08-29T08:19:40Z</time>
      </trkpt>
      <trkpt lat="47.90202" lon="6.90634">
        <ele>975.6</ele>
        <time>2022-08-29T08:19:41Z</time>
      </trkpt>
      <trkpt lat="47.90203" lon="6.90632">
        <ele>975.4</ele>
        <time>2022-08-29T08:19:42Z</time>
      </trkpt>
      <trkpt lat="47.90203" lon="6.90631">
        <ele>975.3</ele>
        <time>2022-08-29T08:19:43Z</time>
      </trkpt>
      <trkpt lat="47.90203" lon="6.90629">
        <ele>975.2</ele>
        <time>2022-08-29T08:19:44Z</time>
      </trkpt>
      <trkpt lat="47.90203" lon="6.90627">
        <ele>975.1</ele>
        <time>2022-08-29T08:19:45Z</time>
      </trkpt>
      <trkpt lat="47.90203" lon="6.90626">
        <ele>975</ele>
        <time>2022-08-29T08:19:46Z</time>
      </trkpt>
      <trkpt lat="47.90203" lon="6.90624">
        <ele>974.9</ele>
        <time>2022-08-29T08:19:47Z</time>
      </trkpt>
      <trkpt lat="47.90203" lon="6.90623">
        <ele>974.8</ele>
        <time>2022-08-29T08:19:48Z</time>
      </trkpt>
      <trkpt lat="47.90204" lon="6.90621">
        <ele>974.5</ele>
        <time>2022-08-29T08:19:49Z</time>
      </trkpt>
      <trkpt lat="47.90203" lon="6.90619">
        <ele>974.6</ele>
        <time>2022-08-29T08:19:50Z</time>
      </trkpt>
      <trkpt lat="47.90203" lon="6.90618">
        <ele>974.6</ele>
        <time>2022-08-29T08:19:51Z</time>
      </trkpt>
      <trkpt lat="47.90203" lon="6.90616">
        <ele>974.4</ele>
        <time>2022-08-29T08:19:52Z</time>
      </trkpt>
      <trkpt lat="47.90203" lon="6.90615">
        <ele>974.4</ele>
        <time>2022-08-29T08:19:53Z</time>
      </trkpt>
      <trkpt lat="47.90202" lon="6.90613">
        <ele>974.5</ele>
        <time>2022-08-29T08:19:54Z</time>
      </trkpt>
      <trkpt lat="47.90201" lon="6.90611">
        <ele>974.6</ele>
        <time>2022-08-29T08:19:55Z</time>
      </trkpt>
      <trkpt lat="47.90201" lon="6.9061">
        <ele>974.5</ele>
        <time>2022-08-29T08:19:56Z</time>
      </trkpt>
      <trkpt lat="47.902" lon="6.90608">
        <ele>974.6</ele>
        <time>2022-08-29T08:19:57Z</time>
      </trkpt>
      <trkpt lat="47.90199" lon="6.90606">
        <ele>974.6</ele>
        <time>2022-08-29T08:19:58Z</time>
      </trkpt>
      <trkpt lat="47.90199" lon="6.90605">
        <ele>974.5</ele>
        <time>2022-08-29T08:19:59Z</time>
      </trkpt>
      <trkpt lat="47.90198" lon="6.90603">
        <ele>974.6</ele>
        <time>2022-08-29T08:20:00Z</time>
      </trkpt>
      <trkpt lat="47.90198" lon="6.90601">
        <ele>974.5</ele>
        <time>2022-08-29T08:20:01Z</time>
      </trkpt>
      <trkpt lat="47.90198" lon="6.906">
        <ele>974.4</ele>
        <time>2022-08-29T08:20:02Z</time>
      </trkpt>
      <trkpt lat="47.90198" lon="6.90598">
        <ele>974.2</ele>
        <time>2022-08-29T08:20:03Z</time>
      </trkpt>
      <trkpt lat="47.90199" lon="6.90597">
        <ele>973.9</ele>
        <time>2022-08-29T08:20:04Z</time>
      </trkpt>
      <trkpt lat="47.90199" lon="6.90596">
        <ele>973.8</ele>
        <time>2022-08-29T08:20:05Z</time>
      </trkpt>
      <trkpt lat="47.90199" lon="6.90595">
        <ele>973.8</ele>
        <time>2022-08-29T08:20:06Z</time>
      </trkpt>
      <trkpt lat="47.90199" lon="6.90594">
        <ele>973.7</ele>
        <time>2022-08-29T08:20:07Z</time>
      </trkpt>
      <trkpt lat="47.90199" lon="6.90593">
        <ele>973.6</ele>
        <time>2022-08-29T08:20:08Z</time>
      </trkpt>
      <trkpt lat="47.90199" lon="6.90592">
        <ele>973.5</ele>
        <time>2022-08-29T08:20:09Z</time>
      </trkpt>
      <trkpt lat="47.90199" lon="6.90591">
        <ele>973.4</ele>
        <time>2022-08-29T08:20:10Z</time>
      </trkpt>
      <trkpt lat="47.90198" lon="6.90589">
        <ele>973.5</ele>
        <time>2022-08-29T08:20:11Z</time>
      </trkpt>
      <trkpt lat="47.90198" lon="6.90588">
        <ele>973.5</ele>
        <time>2022-08-29T08:20:12Z</time>
      </trkpt>
      <trkpt lat="47.90197" lon="6.90586">
        <ele>973.6</ele>
        <time>2022-08-29T08:20:13Z</time>
      </trkpt>
      <trkpt lat="47.90197" lon="6.90584">
        <ele>973.4</ele>
        <time>2022-08-29T08:20:14Z</time>
      </trkpt>
      <trkpt lat="47.90196" lon="6.90583">
        <ele>973.6</ele>
        <time>2022-08-29T08:20:15Z</time>
      </trkpt>
      <trkpt lat="47.90196" lon="6.90582">
        <ele>973.5</ele>
        <time>2022-08-29T08:20:16Z</time>
      </trkpt>
      <trkpt lat="47.90196" lon="6.9058">
        <ele>973.2</ele>
        <time>2022-08-29T08:20:17Z</time>
      </trkpt>
      <trkpt lat="47.90196" lon="6.90579">
        <ele>973.1</ele>
        <time>2022-08-29T08:20:18Z</time>
      </trkpt>
      <trkpt lat="47.90197" lon="6.90578">
        <ele>972.8</ele>
        <time>2022-08-29T08:20:19Z</time>
      </trkpt>
      <trkpt lat="47.90197" lon="6.90577">
        <ele>972.7</ele>
        <time>2022-08-29T08:20:20Z</time>
      </trkpt>
      <trkpt lat="47.90198" lon="6.90576">
        <ele>972.3</ele>
        <time>2022-08-29T08:20:21Z</time>
      </trkpt>
      <trkpt lat="47.90197" lon="6.90574">
        <ele>972.3</ele>
        <time>2022-08-29T08:20:22Z</time>
      </trkpt>
      <trkpt lat="47.90197" lon="6.90573">
        <ele>972.2</ele>
        <time>2022-08-29T08:20:23Z</time>
      </trkpt>
      <trkpt lat="47.90197" lon="6.90572">
        <ele>972.1</ele>
        <time>2022-08-29T08:20:24Z</time>
      </trkpt>
      <trkpt lat="47.90196" lon="6.90571">
        <ele>972.3</ele>
        <time>2022-08-29T08:20:25Z</time>
      </trkpt>
      <trkpt lat="47.90196" lon="6.90569">
        <ele>972.1</ele>
        <time>2022-08-29T08:20:26Z</time>
      </trkpt>
      <trkpt lat="47.90195" lon="6.90568">
        <ele>972.2</ele>
        <time>2022-08-29T08:20:27Z</time>
      </trkpt>
      <trkpt lat="47.90195" lon="6.90566">
        <ele>972</ele>
        <time>2022-08-29T08:20:28Z</time>
      </trkpt>
      <trkpt lat="47.90194" lon="6.90564">
        <ele>971.9</ele>
        <time>2022-08-29T08:20:29Z</time>
      </trkpt>
      <trkpt lat="47.90194" lon="6.90563">
        <ele>971.8</ele>
        <time>2022-08-29T08:20:30Z</time>
      </trkpt>
      <trkpt lat="47.90194" lon="6.90562">
        <ele>971.7</ele>
        <time>2022-08-29T08:20:31Z</time>
      </trkpt>
      <trkpt lat="47.90193" lon="6.9056">
        <ele>971.5</ele>
        <time>2022-08-29T08:20:32Z</time>
      </trkpt>
      <trkpt lat="47.90193" lon="6.90559">
        <ele>971.4</ele>
        <time>2022-08-29T08:20:33Z</time>
      </trkpt>
      <trkpt lat="47.90192" lon="6.90557">
        <ele>971.2</ele>
        <time>2022-08-29T08:20:34Z</time>
      </trkpt>
      <trkpt lat="47.90192" lon="6.90556">
        <ele>971</ele>
        <time>2022-08-29T08:20:35Z</time>
      </trkpt>
      <trkpt lat="47.90192" lon="6.90555">
        <ele>971</ele>
        <time>2022-08-29T08:20:36Z</time>
      </trkpt>
      <trkpt lat="47.90191" lon="6.90553">
        <ele>970.8</ele>
        <time>2022-08-29T08:20:37Z</time>
      </trkpt>
      <trkpt lat="47.90191" lon="6.90552">
        <ele>970.7</ele>
        <time>2022-08-29T08:20:38Z</time>
      </trkpt>
      <trkpt lat="47.9019" lon="6.9055">
        <ele>970.6</ele>
        <time>2022-08-29T08:20:39Z</time>
      </trkpt>
      <trkpt lat="47.9019" lon="6.90549">
        <ele>970.5</ele>
        <time>2022-08-29T08:20:40Z</time>
      </trkpt>
      <trkpt lat="47.9019" lon="6.90547">
        <ele>970.3</ele>
        <time>2022-08-29T08:20:41Z</time>
      </trkpt>
      <trkpt lat="47.9019" lon="6.90546">
        <ele>970.3</ele>
        <time>2022-08-29T08:20:42Z</time>
      </trkpt>
      <trkpt lat="47.9019" lon="6.90545">
        <ele>970.2</ele>
        <time>2022-08-29T08:20:44Z</time>
      </trkpt>
      <trkpt lat="47.9019" lon="6.90543">
        <ele>970</ele>
        <time>2022-08-29T08:20:52Z</time>
      </trkpt>
      <trkpt lat="47.90189" lon="6.90542">
        <ele>969.9</ele>
        <time>2022-08-29T08:20:53Z</time>
      </trkpt>
      <trkpt lat="47.90189" lon="6.90541">
        <ele>969.8</ele>
        <time>2022-08-29T08:20:55Z</time>
      </trkpt>
      <trkpt lat="47.90188" lon="6.9054">
        <ele>969.8</ele>
        <time>2022-08-29T08:20:56Z</time>
      </trkpt>
      <trkpt lat="47.90188" lon="6.90539">
        <ele>969.7</ele>
        <time>2022-08-29T08:20:57Z</time>
      </trkpt>
      <trkpt lat="47.90187" lon="6.90538">
        <ele>969.6</ele>
        <time>2022-08-29T08:20:58Z</time>
      </trkpt>
      <trkpt lat="47.90187" lon="6.90536">
        <ele>969.4</ele>
        <time>2022-08-29T08:21:21Z</time>
      </trkpt>
      <trkpt lat="47.90187" lon="6.90535">
        <ele>969.3</ele>
        <time>2022-08-29T08:21:22Z</time>
      </trkpt>
      <trkpt lat="47.90186" lon="6.90534">
        <ele>969.2</ele>
        <time>2022-08-29T08:21:23Z</time>
      </trkpt>
      <trkpt lat="47.90186" lon="6.90533">
        <ele>969.1</ele>
        <time>2022-08-29T08:21:24Z</time>
      </trkpt>
      <trkpt lat="47.90187" lon="6.90532">
        <ele>969.1</ele>
        <time>2022-08-29T08:21:25Z</time>
      </trkpt>
      <trkpt lat="47.90186" lon="6.90533">
        <ele>969.1</ele>
      </trkpt>
      <trkpt lat="47.90184" lon="6.90525">
        <ele>968.8</ele>
      </trkpt>
      <trkpt lat="47.90185" lon="6.90516">
        <ele>969.4</ele>
      </trkpt>
      <trkpt lat="47.90185" lon="6.90513">
        <ele>969.6</ele>
        <time>2022-08-29T08:27:08Z</time>
      </trkpt>
      <trkpt lat="47.90186" lon="6.90512">
        <ele>969.6</ele>
        <time>2022-08-29T08:27:09Z</time>
      </trkpt>
      <trkpt lat="47.90186" lon="6.9051">
        <ele>969.7</ele>
        <time>2022-08-29T08:27:10Z</time>
      </trkpt>
      <trkpt lat="47.90187" lon="6.90508">
        <ele>969.7</ele>
        <time>2022-08-29T08:27:11Z</time>
      </trkpt>
      <trkpt lat="47.90187" lon="6.90507">
        <ele>969.7</ele>
        <time>2022-08-29T08:27:12Z</time>
      </trkpt>
      <trkpt lat="47.90188" lon="6.90505">
        <ele>969.7</ele>
        <time>2022-08-29T08:27:13Z</time>
      </trkpt>
      <trkpt lat="47.90189" lon="6.90504">
        <ele>969.6</ele>
        <time>2022-08-29T08:27:14Z</time>
      </trkpt>
      <trkpt lat="47.9019" lon="6.90503">
        <ele>969.6</ele>
        <time>2022-08-29T08:27:16Z</time>
      </trkpt>
      <trkpt lat="47.9019" lon="6.90502">
        <ele>969.6</ele>
        <time>2022-08-29T08:27:17Z</time>
      </trkpt>
      <trkpt lat="47.90191" lon="6.90501">
        <ele>969.5</ele>
        <time>2022-08-29T08:27:18Z</time>
      </trkpt>
      <trkpt lat="47.90191" lon="6.905">
        <ele>969.5</ele>
        <time>2022-08-29T08:27:19Z</time>
      </trkpt>
      <trkpt lat="47.90192" lon="6.90499">
        <ele>969.5</ele>
        <time>2022-08-29T08:27:20Z</time>
      </trkpt>
      <trkpt lat="47.90192" lon="6.90498">
        <ele>969.6</ele>
        <time>2022-08-29T08:27:21Z</time>
      </trkpt>
      <trkpt lat="47.90193" lon="6.90497">
        <ele>969.6</ele>
        <time>2022-08-29T08:27:22Z</time>
      </trkpt>
      <trkpt lat="47.90194" lon="6.90496">
        <ele>969.5</ele>
        <time>2022-08-29T08:27:24Z</time>
      </trkpt>
      <trkpt lat="47.90195" lon="6.90496">
        <ele>969.2</ele>
        <time>2022-08-29T08:27:25Z</time>
      </trkpt>
      <trkpt lat="47.90196" lon="6.90495">
        <ele>969</ele>
        <time>2022-08-29T08:27:26Z</time>
      </trkpt>
      <trkpt lat="47.90197" lon="6.90494">
        <ele>968.8</ele>
        <time>2022-08-29T08:27:27Z</time>
      </trkpt>
      <trkpt lat="47.90198" lon="6.90493">
        <ele>968.5</ele>
        <time>2022-08-29T08:27:28Z</time>
      </trkpt>
      <trkpt lat="47.90199" lon="6.90492">
        <ele>968.3</ele>
        <time>2022-08-29T08:27:29Z</time>
      </trkpt>
      <trkpt lat="47.902" lon="6.90491">
        <ele>968</ele>
        <time>2022-08-29T08:27:30Z</time>
      </trkpt>
      <trkpt lat="47.902" lon="6.9049">
        <ele>968.1</ele>
        <time>2022-08-29T08:27:31Z</time>
      </trkpt>
      <trkpt lat="47.902" lon="6.90488">
        <ele>968.3</ele>
        <time>2022-08-29T08:27:32Z</time>
      </trkpt>
      <trkpt lat="47.902" lon="6.90486">
        <ele>968.5</ele>
        <time>2022-08-29T08:27:33Z</time>
      </trkpt>
      <trkpt lat="47.902" lon="6.90485">
        <ele>968.6</ele>
        <time>2022-08-29T08:27:34Z</time>
      </trkpt>
      <trkpt lat="47.902" lon="6.90483">
        <ele>968.8</ele>
        <time>2022-08-29T08:27:35Z</time>
      </trkpt>
      <trkpt lat="47.902" lon="6.90481">
        <ele>969</ele>
        <time>2022-08-29T08:27:36Z</time>
      </trkpt>
      <trkpt lat="47.90199" lon="6.90479">
        <ele>969.5</ele>
        <time>2022-08-29T08:27:37Z</time>
      </trkpt>
      <trkpt lat="47.90199" lon="6.90477">
        <ele>969.7</ele>
        <time>2022-08-29T08:27:38Z</time>
      </trkpt>
      <trkpt lat="47.90199" lon="6.90475">
        <ele>969.9</ele>
        <time>2022-08-29T08:27:39Z</time>
      </trkpt>
      <trkpt lat="47.90199" lon="6.90474">
        <ele>970</ele>
        <time>2022-08-29T08:27:40Z</time>
      </trkpt>
      <trkpt lat="47.90199" lon="6.90472">
        <ele>970.2</ele>
        <time>2022-08-29T08:27:41Z</time>
      </trkpt>
      <trkpt lat="47.90199" lon="6.9047">
        <ele>970.3</ele>
        <time>2022-08-29T08:27:42Z</time>
      </trkpt>
      <trkpt lat="47.90199" lon="6.90469">
        <ele>970.4</ele>
        <time>2022-08-29T08:27:43Z</time>
      </trkpt>
      <trkpt lat="47.90199" lon="6.90467">
        <ele>970.5</ele>
        <time>2022-08-29T08:27:44Z</time>
      </trkpt>
      <trkpt lat="47.90199" lon="6.90466">
        <ele>970.5</ele>
        <time>2022-08-29T08:27:45Z</time>
      </trkpt>
      <trkpt lat="47.90199" lon="6.90464">
        <ele>970.6</ele>
        <time>2022-08-29T08:27:46Z</time>
      </trkpt>
      <trkpt lat="47.90199" lon="6.90463">
        <ele>970.7</ele>
        <time>2022-08-29T08:27:47Z</time>
      </trkpt>
      <trkpt lat="47.902" lon="6.90461">
        <ele>970.4</ele>
        <time>2022-08-29T08:27:48Z</time>
      </trkpt>
      <trkpt lat="47.902" lon="6.9046">
        <ele>970.4</ele>
        <time>2022-08-29T08:27:49Z</time>
      </trkpt>
      <trkpt lat="47.902" lon="6.90458">
        <ele>970.5</ele>
        <time>2022-08-29T08:27:50Z</time>
      </trkpt>
      <trkpt lat="47.90199" lon="6.90457">
        <ele>971</ele>
        <time>2022-08-29T08:27:51Z</time>
      </trkpt>
      <trkpt lat="47.90199" lon="6.90455">
        <ele>971.1</ele>
        <time>2022-08-29T08:27:52Z</time>
      </trkpt>
      <trkpt lat="47.90199" lon="6.90453">
        <ele>971.2</ele>
        <time>2022-08-29T08:27:53Z</time>
      </trkpt>
      <trkpt lat="47.90198" lon="6.90452">
        <ele>971.8</ele>
        <time>2022-08-29T08:27:54Z</time>
      </trkpt>
      <trkpt lat="47.90198" lon="6.9045">
        <ele>971.9</ele>
        <time>2022-08-29T08:27:55Z</time>
      </trkpt>
      <trkpt lat="47.90198" lon="6.90449">
        <ele>971.9</ele>
        <time>2022-08-29T08:27:56Z</time>
      </trkpt>
      <trkpt lat="47.90198" lon="6.90447">
        <ele>972.1</ele>
        <time>2022-08-29T08:27:57Z</time>
      </trkpt>
      <trkpt lat="47.90198" lon="6.90446">
        <ele>972.1</ele>
        <time>2022-08-29T08:27:58Z</time>
      </trkpt>
      <trkpt lat="47.90198" lon="6.90444">
        <ele>972.2</ele>
        <time>2022-08-29T08:27:59Z</time>
      </trkpt>
      <trkpt lat="47.90198" lon="6.90443">
        <ele>972.2</ele>
        <time>2022-08-29T08:28:00Z</time>
      </trkpt>
      <trkpt lat="47.90198" lon="6.90441">
        <ele>972.1</ele>
        <time>2022-08-29T08:28:01Z</time>
      </trkpt>
      <trkpt lat="47.90198" lon="6.9044">
        <ele>972</ele>
        <time>2022-08-29T08:28:02Z</time>
      </trkpt>
      <trkpt lat="47.90197" lon="6.90438">
        <ele>972.5</ele>
        <time>2022-08-29T08:28:03Z</time>
      </trkpt>
      <trkpt lat="47.90197" lon="6.90436">
        <ele>972.4</ele>
        <time>2022-08-29T08:28:04Z</time>
      </trkpt>
      <trkpt lat="47.90197" lon="6.90435">
        <ele>972.4</ele>
        <time>2022-08-29T08:28:05Z</time>
      </trkpt>
      <trkpt lat="47.90197" lon="6.90433">
        <ele>972.3</ele>
        <time>2022-08-29T08:28:06Z</time>
      </trkpt>
      <trkpt lat="47.90197" lon="6.90432">
        <ele>972.3</ele>
        <time>2022-08-29T08:28:07Z</time>
      </trkpt>
      <trkpt lat="47.90197" lon="6.9043">
        <ele>972.2</ele>
        <time>2022-08-29T08:28:08Z</time>
      </trkpt>
      <trkpt lat="47.90197" lon="6.90429">
        <ele>972.2</ele>
        <time>2022-08-29T08:28:09Z</time>
      </trkpt>
      <trkpt lat="47.90197" lon="6.90428">
        <ele>972.1</ele>
        <time>2022-08-29T08:28:10Z</time>
      </trkpt>
      <trkpt lat="47.90198" lon="6.90427">
        <ele>971.6</ele>
        <time>2022-08-29T08:28:11Z</time>
      </trkpt>
      <trkpt lat="47.90198" lon="6.90425">
        <ele>971.5</ele>
        <time>2022-08-29T08:28:12Z</time>
      </trkpt>
      <trkpt lat="47.90198" lon="6.90424">
        <ele>971.5</ele>
        <time>2022-08-29T08:28:13Z</time>
      </trkpt>
      <trkpt lat="47.90199" lon="6.90422">
        <ele>970.9</ele>
        <time>2022-08-29T08:28:14Z</time>
      </trkpt>
      <trkpt lat="47.90199" lon="6.90421">
        <ele>970.9</ele>
        <time>2022-08-29T08:28:15Z</time>
      </trkpt>
      <trkpt lat="47.90199" lon="6.9042">
        <ele>970.8</ele>
        <time>2022-08-29T08:28:16Z</time>
      </trkpt>
      <trkpt lat="47.90199" lon="6.90418">
        <ele>970.8</ele>
        <time>2022-08-29T08:28:17Z</time>
      </trkpt>
      <trkpt lat="47.90199" lon="6.90417">
        <ele>970.7</ele>
        <time>2022-08-29T08:28:18Z</time>
      </trkpt>
      <trkpt lat="47.90199" lon="6.90415">
        <ele>970.7</ele>
        <time>2022-08-29T08:28:19Z</time>
      </trkpt>
      <trkpt lat="47.90199" lon="6.90414">
        <ele>970.7</ele>
        <time>2022-08-29T08:28:20Z</time>
      </trkpt>
      <trkpt lat="47.90199" lon="6.90412">
        <ele>970.7</ele>
        <time>2022-08-29T08:28:21Z</time>
      </trkpt>
      <trkpt lat="47.90199" lon="6.90411">
        <ele>970.7</ele>
        <time>2022-08-29T08:28:22Z</time>
      </trkpt>
      <trkpt lat="47.90199" lon="6.9041">
        <ele>970.7</ele>
        <time>2022-08-29T08:28:23Z</time>
      </trkpt>
      <trkpt lat="47.90199" lon="6.90408">
        <ele>970.7</ele>
        <time>2022-08-29T08:28:24Z</time>
      </trkpt>
      <trkpt lat="47.90199" lon="6.90407">
        <ele>970.6</ele>
        <time>2022-08-29T08:28:25Z</time>
      </trkpt>
      <trkpt lat="47.90199" lon="6.90405">
        <ele>970.6</ele>
        <time>2022-08-29T08:28:26Z</time>
      </trkpt>
      <trkpt lat="47.90199" lon="6.90404">
        <ele>970.6</ele>
        <time>2022-08-29T08:28:27Z</time>
      </trkpt>
      <trkpt lat="47.90199" lon="6.90402">
        <ele>970.6</ele>
        <time>2022-08-29T08:28:28Z</time>
      </trkpt>
      <trkpt lat="47.90198" lon="6.904">
        <ele>971.1</ele>
        <time>2022-08-29T08:28:29Z</time>
      </trkpt>
      <trkpt lat="47.90197" lon="6.90397">
        <ele>971.6</ele>
        <time>2022-08-29T08:28:30Z</time>
      </trkpt>
      <trkpt lat="47.90196" lon="6.90395">
        <ele>972.2</ele>
        <time>2022-08-29T08:28:31Z</time>
      </trkpt>
      <trkpt lat="47.90195" lon="6.90393">
        <ele>972.7</ele>
        <time>2022-08-29T08:28:32Z</time>
      </trkpt>
      <trkpt lat="47.90194" lon="6.90391">
        <ele>973.2</ele>
        <time>2022-08-29T08:28:33Z</time>
      </trkpt>
      <trkpt lat="47.90194" lon="6.90388">
        <ele>973.2</ele>
        <time>2022-08-29T08:28:34Z</time>
      </trkpt>
      <trkpt lat="47.90193" lon="6.90386">
        <ele>973.6</ele>
        <time>2022-08-29T08:28:35Z</time>
      </trkpt>
      <trkpt lat="47.90193" lon="6.90384">
        <ele>973.5</ele>
        <time>2022-08-29T08:28:36Z</time>
      </trkpt>
      <trkpt lat="47.90192" lon="6.90383">
        <ele>973.9</ele>
        <time>2022-08-29T08:28:37Z</time>
      </trkpt>
      <trkpt lat="47.90192" lon="6.90381">
        <ele>973.9</ele>
        <time>2022-08-29T08:28:38Z</time>
      </trkpt>
      <trkpt lat="47.90192" lon="6.90379">
        <ele>973.9</ele>
        <time>2022-08-29T08:28:39Z</time>
      </trkpt>
      <trkpt lat="47.90192" lon="6.90378">
        <ele>973.9</ele>
        <time>2022-08-29T08:28:40Z</time>
      </trkpt>
      <trkpt lat="47.90192" lon="6.90376">
        <ele>973.8</ele>
        <time>2022-08-29T08:28:41Z</time>
      </trkpt>
      <trkpt lat="47.90192" lon="6.90375">
        <ele>973.8</ele>
        <time>2022-08-29T08:28:42Z</time>
      </trkpt>
      <trkpt lat="47.90193" lon="6.90374">
        <ele>973.5</ele>
        <time>2022-08-29T08:28:43Z</time>
      </trkpt>
      <trkpt lat="47.90193" lon="6.90372">
        <ele>973.5</ele>
        <time>2022-08-29T08:28:44Z</time>
      </trkpt>
      <trkpt lat="47.90193" lon="6.90371">
        <ele>973.5</ele>
        <time>2022-08-29T08:28:45Z</time>
      </trkpt>
      <trkpt lat="47.90193" lon="6.90369">
        <ele>973.5</ele>
        <time>2022-08-29T08:28:46Z</time>
      </trkpt>
      <trkpt lat="47.90193" lon="6.90368">
        <ele>973.5</ele>
        <time>2022-08-29T08:28:47Z</time>
      </trkpt>
      <trkpt lat="47.90193" lon="6.90366">
        <ele>973.4</ele>
        <time>2022-08-29T08:28:48Z</time>
      </trkpt>
      <trkpt lat="47.90193" lon="6.90365">
        <ele>973.4</ele>
        <time>2022-08-29T08:28:49Z</time>
      </trkpt>
      <trkpt lat="47.90193" lon="6.90363">
        <ele>973.4</ele>
        <time>2022-08-29T08:28:50Z</time>
      </trkpt>
      <trkpt lat="47.90193" lon="6.90362">
        <ele>973.4</ele>
        <time>2022-08-29T08:28:51Z</time>
      </trkpt>
      <trkpt lat="47.90193" lon="6.9036">
        <ele>973.4</ele>
        <time>2022-08-29T08:28:52Z</time>
      </trkpt>
      <trkpt lat="47.90194" lon="6.90358">
        <ele>973</ele>
        <time>2022-08-29T08:28:53Z</time>
      </trkpt>
      <trkpt lat="47.90194" lon="6.90357">
        <ele>973</ele>
        <time>2022-08-29T08:28:54Z</time>
      </trkpt>
      <trkpt lat="47.90195" lon="6.90355">
        <ele>972.5</ele>
        <time>2022-08-29T08:28:55Z</time>
      </trkpt>
      <trkpt lat="47.90195" lon="6.90353">
        <ele>972.4</ele>
        <time>2022-08-29T08:28:56Z</time>
      </trkpt>
      <trkpt lat="47.90196" lon="6.90352">
        <ele>971.8</ele>
        <time>2022-08-29T08:28:57Z</time>
      </trkpt>
      <trkpt lat="47.90196" lon="6.9035">
        <ele>971.7</ele>
        <time>2022-08-29T08:28:58Z</time>
      </trkpt>
      <trkpt lat="47.90197" lon="6.90349">
        <ele>971.1</ele>
        <time>2022-08-29T08:28:59Z</time>
      </trkpt>
      <trkpt lat="47.90197" lon="6.90348">
        <ele>971</ele>
        <time>2022-08-29T08:29:00Z</time>
      </trkpt>
      <trkpt lat="47.90197" lon="6.90347">
        <ele>971</ele>
        <time>2022-08-29T08:29:01Z</time>
      </trkpt>
      <trkpt lat="47.90197" lon="6.90345">
        <ele>970.9</ele>
        <time>2022-08-29T08:29:02Z</time>
      </trkpt>
      <trkpt lat="47.90197" lon="6.90344">
        <ele>970.9</ele>
        <time>2022-08-29T08:29:03Z</time>
      </trkpt>
      <trkpt lat="47.90197" lon="6.90343">
        <ele>970.8</ele>
        <time>2022-08-29T08:29:04Z</time>
      </trkpt>
      <trkpt lat="47.90198" lon="6.90341">
        <ele>970.1</ele>
        <time>2022-08-29T08:29:05Z</time>
      </trkpt>
      <trkpt lat="47.90198" lon="6.9034">
        <ele>970.1</ele>
        <time>2022-08-29T08:29:06Z</time>
      </trkpt>
      <trkpt lat="47.90198" lon="6.90339">
        <ele>970.1</ele>
        <time>2022-08-29T08:29:07Z</time>
      </trkpt>
      <trkpt lat="47.90198" lon="6.90337">
        <ele>970</ele>
        <time>2022-08-29T08:29:08Z</time>
      </trkpt>
      <trkpt lat="47.90198" lon="6.90336">
        <ele>969.9</ele>
        <time>2022-08-29T08:29:09Z</time>
      </trkpt>
      <trkpt lat="47.90198" lon="6.90335">
        <ele>969.9</ele>
        <time>2022-08-29T08:29:10Z</time>
      </trkpt>
      <trkpt lat="47.90198" lon="6.90334">
        <ele>969.9</ele>
        <time>2022-08-29T08:29:11Z</time>
      </trkpt>
      <trkpt lat="47.90198" lon="6.90333">
        <ele>969.8</ele>
        <time>2022-08-29T08:29:12Z</time>
      </trkpt>
      <trkpt lat="47.90198" lon="6.90331">
        <ele>969.6</ele>
        <time>2022-08-29T08:29:13Z</time>
      </trkpt>
      <trkpt lat="47.90198" lon="6.9033">
        <ele>969.6</ele>
        <time>2022-08-29T08:29:14Z</time>
      </trkpt>
      <trkpt lat="47.90198" lon="6.90329">
        <ele>969.5</ele>
        <time>2022-08-29T08:29:15Z</time>
      </trkpt>
      <trkpt lat="47.90198" lon="6.90327">
        <ele>969.3</ele>
        <time>2022-08-29T08:29:16Z</time>
      </trkpt>
      <trkpt lat="47.90197" lon="6.90326">
        <ele>969.9</ele>
        <time>2022-08-29T08:29:17Z</time>
      </trkpt>
      <trkpt lat="47.90197" lon="6.90324">
        <ele>969.7</ele>
        <time>2022-08-29T08:29:18Z</time>
      </trkpt>
      <trkpt lat="47.90197" lon="6.90323">
        <ele>969.6</ele>
        <time>2022-08-29T08:29:19Z</time>
      </trkpt>
      <trkpt lat="47.90196" lon="6.90321">
        <ele>970.1</ele>
        <time>2022-08-29T08:29:20Z</time>
      </trkpt>
      <trkpt lat="47.90196" lon="6.90319">
        <ele>970</ele>
        <time>2022-08-29T08:29:21Z</time>
      </trkpt>
      <trkpt lat="47.90196" lon="6.90318">
        <ele>969.9</ele>
        <time>2022-08-29T08:29:22Z</time>
      </trkpt>
      <trkpt lat="47.90196" lon="6.90316">
        <ele>969.7</ele>
        <time>2022-08-29T08:29:23Z</time>
      </trkpt>
      <trkpt lat="47.90196" lon="6.90314">
        <ele>969.6</ele>
        <time>2022-08-29T08:29:24Z</time>
      </trkpt>
      <trkpt lat="47.90195" lon="6.90313">
        <ele>970.2</ele>
        <time>2022-08-29T08:29:25Z</time>
      </trkpt>
      <trkpt lat="47.90195" lon="6.90312">
        <ele>970.1</ele>
        <time>2022-08-29T08:29:26Z</time>
      </trkpt>
      <trkpt lat="47.90195" lon="6.9031">
        <ele>969.9</ele>
        <time>2022-08-29T08:29:27Z</time>
      </trkpt>
      <trkpt lat="47.90195" lon="6.90309">
        <ele>969.9</ele>
        <time>2022-08-29T08:29:28Z</time>
      </trkpt>
      <trkpt lat="47.90195" lon="6.90308">
        <ele>969.8</ele>
        <time>2022-08-29T08:29:29Z</time>
      </trkpt>
      <trkpt lat="47.90195" lon="6.90306">
        <ele>969.7</ele>
        <time>2022-08-29T08:29:30Z</time>
      </trkpt>
      <trkpt lat="47.90195" lon="6.90305">
        <ele>969.5</ele>
        <time>2022-08-29T08:29:31Z</time>
      </trkpt>
      <trkpt lat="47.90195" lon="6.90304">
        <ele>969.4</ele>
        <time>2022-08-29T08:29:32Z</time>
      </trkpt>
      <trkpt lat="47.90194" lon="6.90302">
        <ele>969.8</ele>
        <time>2022-08-29T08:29:33Z</time>
      </trkpt>
      <trkpt lat="47.90194" lon="6.90301">
        <ele>969.6</ele>
        <time>2022-08-29T08:29:34Z</time>
      </trkpt>
      <trkpt lat="47.90194" lon="6.903">
        <ele>969.5</ele>
        <time>2022-08-29T08:29:35Z</time>
      </trkpt>
      <trkpt lat="47.90194" lon="6.90298">
        <ele>969.2</ele>
        <time>2022-08-29T08:29:36Z</time>
      </trkpt>
      <trkpt lat="47.90193" lon="6.90297">
        <ele>969.7</ele>
        <time>2022-08-29T08:29:37Z</time>
      </trkpt>
      <trkpt lat="47.90193" lon="6.90296">
        <ele>969.6</ele>
        <time>2022-08-29T08:29:38Z</time>
      </trkpt>
      <trkpt lat="47.90193" lon="6.90294">
        <ele>969.3</ele>
        <time>2022-08-29T08:29:39Z</time>
      </trkpt>
      <trkpt lat="47.90193" lon="6.90293">
        <ele>969.1</ele>
        <time>2022-08-29T08:29:40Z</time>
      </trkpt>
      <trkpt lat="47.90192" lon="6.90291">
        <ele>969.5</ele>
        <time>2022-08-29T08:29:41Z</time>
      </trkpt>
      <trkpt lat="47.90192" lon="6.9029">
        <ele>969.4</ele>
        <time>2022-08-29T08:29:42Z</time>
      </trkpt>
      <trkpt lat="47.90192" lon="6.90289">
        <ele>969.3</ele>
        <time>2022-08-29T08:29:43Z</time>
      </trkpt>
      <trkpt lat="47.90191" lon="6.90288">
        <ele>969.8</ele>
        <time>2022-08-29T08:29:44Z</time>
      </trkpt>
      <trkpt lat="47.90191" lon="6.90287">
        <ele>969.7</ele>
        <time>2022-08-29T08:29:45Z</time>
      </trkpt>
      <trkpt lat="47.90191" lon="6.90286">
        <ele>969.6</ele>
        <time>2022-08-29T08:29:46Z</time>
      </trkpt>
      <trkpt lat="47.90191" lon="6.90285">
        <ele>969.4</ele>
        <time>2022-08-29T08:29:47Z</time>
      </trkpt>
      <trkpt lat="47.90191" lon="6.90283">
        <ele>969.2</ele>
        <time>2022-08-29T08:29:48Z</time>
      </trkpt>
      <trkpt lat="47.9019" lon="6.90282">
        <ele>969.7</ele>
        <time>2022-08-29T08:29:49Z</time>
      </trkpt>
      <trkpt lat="47.9019" lon="6.90279">
        <ele>969.4</ele>
        <time>2022-08-29T08:29:50Z</time>
      </trkpt>
      <trkpt lat="47.9019" lon="6.90277">
        <ele>969.1</ele>
        <time>2022-08-29T08:29:51Z</time>
      </trkpt>
      <trkpt lat="47.9019" lon="6.90276">
        <ele>969</ele>
        <time>2022-08-29T08:29:52Z</time>
      </trkpt>
      <trkpt lat="47.9019" lon="6.90274">
        <ele>968.7</ele>
        <time>2022-08-29T08:29:53Z</time>
      </trkpt>
      <trkpt lat="47.9019" lon="6.90272">
        <ele>968.4</ele>
        <time>2022-08-29T08:29:54Z</time>
      </trkpt>
      <trkpt lat="47.9019" lon="6.90271">
        <ele>968.3</ele>
        <time>2022-08-29T08:29:55Z</time>
      </trkpt>
      <trkpt lat="47.9019" lon="6.90269">
        <ele>968</ele>
        <time>2022-08-29T08:29:56Z</time>
      </trkpt>
      <trkpt lat="47.9019" lon="6.90268">
        <ele>967.9</ele>
        <time>2022-08-29T08:29:57Z</time>
      </trkpt>
      <trkpt lat="47.9019" lon="6.90267">
        <ele>967.8</ele>
        <time>2022-08-29T08:29:58Z</time>
      </trkpt>
      <trkpt lat="47.90189" lon="6.90265">
        <ele>968.3</ele>
        <time>2022-08-29T08:29:59Z</time>
      </trkpt>
      <trkpt lat="47.90189" lon="6.90264">
        <ele>968.1</ele>
        <time>2022-08-29T08:30:00Z</time>
      </trkpt>
      <trkpt lat="47.90189" lon="6.90262">
        <ele>967.9</ele>
        <time>2022-08-29T08:30:01Z</time>
      </trkpt>
      <trkpt lat="47.90188" lon="6.90261">
        <ele>968.5</ele>
        <time>2022-08-29T08:30:02Z</time>
      </trkpt>
      <trkpt lat="47.90188" lon="6.90259">
        <ele>968.2</ele>
        <time>2022-08-29T08:30:03Z</time>
      </trkpt>
      <trkpt lat="47.90188" lon="6.90258">
        <ele>968.1</ele>
        <time>2022-08-29T08:30:04Z</time>
      </trkpt>
      <trkpt lat="47.90187" lon="6.90256">
        <ele>968.6</ele>
        <time>2022-08-29T08:30:05Z</time>
      </trkpt>
      <trkpt lat="47.90187" lon="6.90254">
        <ele>968.4</ele>
        <time>2022-08-29T08:30:06Z</time>
      </trkpt>
      <trkpt lat="47.90186" lon="6.90252">
        <ele>968.9</ele>
        <time>2022-08-29T08:30:07Z</time>
      </trkpt>
      <trkpt lat="47.90185" lon="6.9025">
        <ele>969.5</ele>
        <time>2022-08-29T08:30:08Z</time>
      </trkpt>
      <trkpt lat="47.90185" lon="6.90248">
        <ele>969.2</ele>
        <time>2022-08-29T08:30:09Z</time>
      </trkpt>
      <trkpt lat="47.90184" lon="6.90247">
        <ele>969.8</ele>
        <time>2022-08-29T08:30:10Z</time>
      </trkpt>
      <trkpt lat="47.90184" lon="6.90245">
        <ele>969.6</ele>
        <time>2022-08-29T08:30:11Z</time>
      </trkpt>
      <trkpt lat="47.90184" lon="6.90244">
        <ele>969.4</ele>
        <time>2022-08-29T08:30:12Z</time>
      </trkpt>
      <trkpt lat="47.90183" lon="6.90243">
        <ele>970.1</ele>
        <time>2022-08-29T08:30:13Z</time>
      </trkpt>
      <trkpt lat="47.90183" lon="6.90242">
        <ele>969.9</ele>
        <time>2022-08-29T08:30:14Z</time>
      </trkpt>
      <trkpt lat="47.90183" lon="6.90241">
        <ele>969.8</ele>
        <time>2022-08-29T08:30:15Z</time>
      </trkpt>
      <trkpt lat="47.90183" lon="6.9024">
        <ele>969.6</ele>
        <time>2022-08-29T08:30:16Z</time>
      </trkpt>
      <trkpt lat="47.90182" lon="6.90238">
        <ele>970.1</ele>
        <time>2022-08-29T08:30:17Z</time>
      </trkpt>
      <trkpt lat="47.90182" lon="6.90236">
        <ele>969.8</ele>
        <time>2022-08-29T08:30:18Z</time>
      </trkpt>
      <trkpt lat="47.90181" lon="6.90234">
        <ele>970.3</ele>
        <time>2022-08-29T08:30:19Z</time>
      </trkpt>
      <trkpt lat="47.90181" lon="6.90232">
        <ele>970.1</ele>
        <time>2022-08-29T08:30:20Z</time>
      </trkpt>
      <trkpt lat="47.9018" lon="6.90229">
        <ele>970.4</ele>
        <time>2022-08-29T08:30:21Z</time>
      </trkpt>
      <trkpt lat="47.9018" lon="6.90227">
        <ele>970.1</ele>
        <time>2022-08-29T08:30:22Z</time>
      </trkpt>
      <trkpt lat="47.9018" lon="6.90225">
        <ele>969.8</ele>
        <time>2022-08-29T08:30:23Z</time>
      </trkpt>
      <trkpt lat="47.9018" lon="6.90223">
        <ele>969.6</ele>
        <time>2022-08-29T08:30:24Z</time>
      </trkpt>
      <trkpt lat="47.9018" lon="6.90222">
        <ele>969.4</ele>
        <time>2022-08-29T08:30:25Z</time>
      </trkpt>
      <trkpt lat="47.90181" lon="6.90221">
        <ele>968.6</ele>
        <time>2022-08-29T08:30:26Z</time>
      </trkpt>
      <trkpt lat="47.90181" lon="6.9022">
        <ele>968.6</ele>
        <time>2022-08-29T08:30:27Z</time>
      </trkpt>
      <trkpt lat="47.90181" lon="6.90218">
        <ele>968.5</ele>
        <time>2022-08-29T08:30:28Z</time>
      </trkpt>
      <trkpt lat="47.90182" lon="6.90217">
        <ele>967.7</ele>
        <time>2022-08-29T08:30:29Z</time>
      </trkpt>
      <trkpt lat="47.90182" lon="6.90216">
        <ele>967.6</ele>
        <time>2022-08-29T08:30:30Z</time>
      </trkpt>
      <trkpt lat="47.90182" lon="6.90214">
        <ele>967.6</ele>
        <time>2022-08-29T08:30:31Z</time>
      </trkpt>
      <trkpt lat="47.90182" lon="6.90213">
        <ele>967.5</ele>
        <time>2022-08-29T08:30:32Z</time>
      </trkpt>
      <trkpt lat="47.90182" lon="6.90211">
        <ele>967.5</ele>
        <time>2022-08-29T08:30:33Z</time>
      </trkpt>
      <trkpt lat="47.90182" lon="6.9021">
        <ele>967.4</ele>
        <time>2022-08-29T08:30:34Z</time>
      </trkpt>
      <trkpt lat="47.90183" lon="6.90208">
        <ele>966.6</ele>
        <time>2022-08-29T08:30:35Z</time>
      </trkpt>
      <trkpt lat="47.90183" lon="6.90207">
        <ele>966.5</ele>
        <time>2022-08-29T08:30:36Z</time>
      </trkpt>
      <trkpt lat="47.90183" lon="6.90206">
        <ele>966.5</ele>
        <time>2022-08-29T08:30:37Z</time>
      </trkpt>
      <trkpt lat="47.90182" lon="6.90205">
        <ele>967.2</ele>
        <time>2022-08-29T08:30:38Z</time>
      </trkpt>
      <trkpt lat="47.90182" lon="6.90203">
        <ele>967.2</ele>
        <time>2022-08-29T08:30:39Z</time>
      </trkpt>
      <trkpt lat="47.90182" lon="6.90202">
        <ele>967.1</ele>
        <time>2022-08-29T08:30:40Z</time>
      </trkpt>
      <trkpt lat="47.90182" lon="6.902">
        <ele>967.1</ele>
        <time>2022-08-29T08:30:41Z</time>
      </trkpt>
      <trkpt lat="47.90181" lon="6.90198">
        <ele>967.8</ele>
        <time>2022-08-29T08:30:42Z</time>
      </trkpt>
      <trkpt lat="47.90181" lon="6.90197">
        <ele>967.7</ele>
        <time>2022-08-29T08:30:43Z</time>
      </trkpt>
      <trkpt lat="47.90181" lon="6.90195">
        <ele>967.7</ele>
        <time>2022-08-29T08:30:44Z</time>
      </trkpt>
      <trkpt lat="47.90181" lon="6.90193">
        <ele>967.6</ele>
        <time>2022-08-29T08:30:45Z</time>
      </trkpt>
      <trkpt lat="47.90181" lon="6.90192">
        <ele>967.7</ele>
        <time>2022-08-29T08:30:46Z</time>
      </trkpt>
      <trkpt lat="47.90181" lon="6.9019">
        <ele>967.7</ele>
        <time>2022-08-29T08:30:47Z</time>
      </trkpt>
      <trkpt lat="47.90181" lon="6.90188">
        <ele>967.7</ele>
        <time>2022-08-29T08:30:48Z</time>
      </trkpt>
      <trkpt lat="47.90181" lon="6.90186">
        <ele>967.7</ele>
        <time>2022-08-29T08:30:49Z</time>
      </trkpt>
      <trkpt lat="47.9018" lon="6.90184">
        <ele>968.4</ele>
        <time>2022-08-29T08:30:50Z</time>
      </trkpt>
      <trkpt lat="47.9018" lon="6.90182">
        <ele>968.4</ele>
        <time>2022-08-29T08:30:51Z</time>
      </trkpt>
      <trkpt lat="47.9018" lon="6.9018">
        <ele>968.4</ele>
        <time>2022-08-29T08:30:52Z</time>
      </trkpt>
      <trkpt lat="47.9018" lon="6.90178">
        <ele>968.4</ele>
        <time>2022-08-29T08:30:53Z</time>
      </trkpt>
      <trkpt lat="47.9018" lon="6.90176">
        <ele>968.4</ele>
        <time>2022-08-29T08:30:54Z</time>
      </trkpt>
      <trkpt lat="47.9018" lon="6.90174">
        <ele>968.4</ele>
        <time>2022-08-29T08:30:55Z</time>
      </trkpt>
      <trkpt lat="47.9018" lon="6.90173">
        <ele>968.4</ele>
        <time>2022-08-29T08:30:56Z</time>
      </trkpt>
      <trkpt lat="47.9018" lon="6.90171">
        <ele>968.4</ele>
        <time>2022-08-29T08:30:57Z</time>
      </trkpt>
      <trkpt lat="47.9018" lon="6.9017">
        <ele>968.4</ele>
        <time>2022-08-29T08:30:58Z</time>
      </trkpt>
      <trkpt lat="47.90181" lon="6.90169">
        <ele>967.7</ele>
        <time>2022-08-29T08:30:59Z</time>
      </trkpt>
      <trkpt lat="47.90181" lon="6.90167">
        <ele>967.7</ele>
        <time>2022-08-29T08:31:00Z</time>
      </trkpt>
      <trkpt lat="47.90181" lon="6.90166">
        <ele>967.8</ele>
        <time>2022-08-29T08:31:01Z</time>
      </trkpt>
      <trkpt lat="47.90181" lon="6.90165">
        <ele>967.9</ele>
        <time>2022-08-29T08:31:02Z</time>
      </trkpt>
      <trkpt lat="47.90181" lon="6.90164">
        <ele>968</ele>
        <time>2022-08-29T08:31:03Z</time>
      </trkpt>
      <trkpt lat="47.90181" lon="6.90163">
        <ele>968.1</ele>
        <time>2022-08-29T08:31:04Z</time>
      </trkpt>
      <trkpt lat="47.90181" lon="6.90162">
        <ele>968.2</ele>
        <time>2022-08-29T08:31:05Z</time>
      </trkpt>
      <trkpt lat="47.90182" lon="6.90161">
        <ele>967.6</ele>
        <time>2022-08-29T08:31:06Z</time>
      </trkpt>
      <trkpt lat="47.90182" lon="6.9016">
        <ele>967.7</ele>
        <time>2022-08-29T08:31:07Z</time>
      </trkpt>
      <trkpt lat="47.90182" lon="6.90159">
        <ele>967.8</ele>
        <time>2022-08-29T08:31:08Z</time>
      </trkpt>
      <trkpt lat="47.90183" lon="6.90158">
        <ele>967.2</ele>
        <time>2022-08-29T08:31:09Z</time>
      </trkpt>
      <trkpt lat="47.90183" lon="6.90157">
        <ele>967.3</ele>
        <time>2022-08-29T08:31:10Z</time>
      </trkpt>
      <trkpt lat="47.90183" lon="6.90155">
        <ele>967.5</ele>
        <time>2022-08-29T08:31:11Z</time>
      </trkpt>
      <trkpt lat="47.90183" lon="6.90154">
        <ele>967.6</ele>
        <time>2022-08-29T08:31:12Z</time>
      </trkpt>
      <trkpt lat="47.90184" lon="6.90152">
        <ele>967.1</ele>
        <time>2022-08-29T08:31:13Z</time>
      </trkpt>
      <trkpt lat="47.90185" lon="6.9015">
        <ele>966.6</ele>
        <time>2022-08-29T08:31:14Z</time>
      </trkpt>
      <trkpt lat="47.90185" lon="6.90149">
        <ele>966.7</ele>
        <time>2022-08-29T08:31:15Z</time>
      </trkpt>
      <trkpt lat="47.90186" lon="6.90147">
        <ele>966.2</ele>
        <time>2022-08-29T08:31:16Z</time>
      </trkpt>
      <trkpt lat="47.90186" lon="6.90146">
        <ele>966.3</ele>
        <time>2022-08-29T08:31:17Z</time>
      </trkpt>
      <trkpt lat="47.90187" lon="6.90144">
        <ele>965.8</ele>
        <time>2022-08-29T08:31:18Z</time>
      </trkpt>
      <trkpt lat="47.90187" lon="6.90142">
        <ele>966</ele>
        <time>2022-08-29T08:31:19Z</time>
      </trkpt>
      <trkpt lat="47.90187" lon="6.90141">
        <ele>966.1</ele>
        <time>2022-08-29T08:31:20Z</time>
      </trkpt>
      <trkpt lat="47.90187" lon="6.90139">
        <ele>966.3</ele>
        <time>2022-08-29T08:31:21Z</time>
      </trkpt>
      <trkpt lat="47.90187" lon="6.90138">
        <ele>966.5</ele>
        <time>2022-08-29T08:31:22Z</time>
      </trkpt>
      <trkpt lat="47.90188" lon="6.90136">
        <ele>966</ele>
        <time>2022-08-29T08:31:23Z</time>
      </trkpt>
      <trkpt lat="47.90188" lon="6.90135">
        <ele>966.1</ele>
        <time>2022-08-29T08:31:24Z</time>
      </trkpt>
      <trkpt lat="47.90188" lon="6.90133">
        <ele>966.4</ele>
        <time>2022-08-29T08:31:25Z</time>
      </trkpt>
      <trkpt lat="47.90188" lon="6.90132">
        <ele>966.5</ele>
        <time>2022-08-29T08:31:26Z</time>
      </trkpt>
      <trkpt lat="47.90188" lon="6.90131">
        <ele>966.6</ele>
        <time>2022-08-29T08:31:27Z</time>
      </trkpt>
      <trkpt lat="47.90188" lon="6.90129">
        <ele>966.9</ele>
        <time>2022-08-29T08:31:28Z</time>
      </trkpt>
      <trkpt lat="47.90188" lon="6.90128">
        <ele>967</ele>
        <time>2022-08-29T08:31:29Z</time>
      </trkpt>
      <trkpt lat="47.90189" lon="6.90126">
        <ele>966.5</ele>
        <time>2022-08-29T08:31:30Z</time>
      </trkpt>
      <trkpt lat="47.90189" lon="6.90125">
        <ele>966.6</ele>
        <time>2022-08-29T08:31:31Z</time>
      </trkpt>
      <trkpt lat="47.90189" lon="6.90123">
        <ele>966.9</ele>
        <time>2022-08-29T08:31:32Z</time>
      </trkpt>
      <trkpt lat="47.9019" lon="6.90122">
        <ele>966.2</ele>
        <time>2022-08-29T08:31:33Z</time>
      </trkpt>
      <trkpt lat="47.90191" lon="6.9012">
        <ele>965.7</ele>
        <time>2022-08-29T08:31:34Z</time>
      </trkpt>
      <trkpt lat="47.90192" lon="6.90119">
        <ele>965</ele>
        <time>2022-08-29T08:31:35Z</time>
      </trkpt>
      <trkpt lat="47.90192" lon="6.90117">
        <ele>965.3</ele>
        <time>2022-08-29T08:31:36Z</time>
      </trkpt>
      <trkpt lat="47.90193" lon="6.90116">
        <ele>964.6</ele>
        <time>2022-08-29T08:31:37Z</time>
      </trkpt>
      <trkpt lat="47.90193" lon="6.90115">
        <ele>964.7</ele>
        <time>2022-08-29T08:31:38Z</time>
      </trkpt>
      <trkpt lat="47.90193" lon="6.90114">
        <ele>964.8</ele>
        <time>2022-08-29T08:31:39Z</time>
      </trkpt>
      <trkpt lat="47.90193" lon="6.90113">
        <ele>964.9</ele>
        <time>2022-08-29T08:31:40Z</time>
      </trkpt>
      <trkpt lat="47.90194" lon="6.90111">
        <ele>964.4</ele>
        <time>2022-08-29T08:31:41Z</time>
      </trkpt>
      <trkpt lat="47.90194" lon="6.9011">
        <ele>964.6</ele>
        <time>2022-08-29T08:31:42Z</time>
      </trkpt>
      <trkpt lat="47.90194" lon="6.90108">
        <ele>964.9</ele>
        <time>2022-08-29T08:31:43Z</time>
      </trkpt>
      <trkpt lat="47.90195" lon="6.90106">
        <ele>964.5</ele>
        <time>2022-08-29T08:31:44Z</time>
      </trkpt>
      <trkpt lat="47.90195" lon="6.90104">
        <ele>964.9</ele>
        <time>2022-08-29T08:31:45Z</time>
      </trkpt>
      <trkpt lat="47.90195" lon="6.90103">
        <ele>965.1</ele>
        <time>2022-08-29T08:31:46Z</time>
      </trkpt>
      <trkpt lat="47.90195" lon="6.90101">
        <ele>965.4</ele>
        <time>2022-08-29T08:31:47Z</time>
      </trkpt>
      <trkpt lat="47.90195" lon="6.90099">
        <ele>965.8</ele>
        <time>2022-08-29T08:31:48Z</time>
      </trkpt>
      <trkpt lat="47.90196" lon="6.90097">
        <ele>965.4</ele>
        <time>2022-08-29T08:31:49Z</time>
      </trkpt>
      <trkpt lat="47.90196" lon="6.90096">
        <ele>965.6</ele>
        <time>2022-08-29T08:31:50Z</time>
      </trkpt>
      <trkpt lat="47.90197" lon="6.90094">
        <ele>965.2</ele>
        <time>2022-08-29T08:31:51Z</time>
      </trkpt>
      <trkpt lat="47.90197" lon="6.90093">
        <ele>965.4</ele>
        <time>2022-08-29T08:31:52Z</time>
      </trkpt>
      <trkpt lat="47.90198" lon="6.90091">
        <ele>965.1</ele>
        <time>2022-08-29T08:31:53Z</time>
      </trkpt>
      <trkpt lat="47.90198" lon="6.9009">
        <ele>965.2</ele>
        <time>2022-08-29T08:31:54Z</time>
      </trkpt>
      <trkpt lat="47.90198" lon="6.90088">
        <ele>965.6</ele>
        <time>2022-08-29T08:31:55Z</time>
      </trkpt>
      <trkpt lat="47.90199" lon="6.90087">
        <ele>965.1</ele>
        <time>2022-08-29T08:31:56Z</time>
      </trkpt>
      <trkpt lat="47.90199" lon="6.90085">
        <ele>965.4</ele>
        <time>2022-08-29T08:31:57Z</time>
      </trkpt>
      <trkpt lat="47.90199" lon="6.90083">
        <ele>965.8</ele>
        <time>2022-08-29T08:31:58Z</time>
      </trkpt>
      <trkpt lat="47.90199" lon="6.90081">
        <ele>966.4</ele>
        <time>2022-08-29T08:31:59Z</time>
      </trkpt>
      <trkpt lat="47.90199" lon="6.9008">
        <ele>966.7</ele>
        <time>2022-08-29T08:32:00Z</time>
      </trkpt>
      <trkpt lat="47.90199" lon="6.90078">
        <ele>967.2</ele>
        <time>2022-08-29T08:32:01Z</time>
      </trkpt>
      <trkpt lat="47.902" lon="6.90076">
        <ele>967.1</ele>
        <time>2022-08-29T08:32:02Z</time>
      </trkpt>
      <trkpt lat="47.902" lon="6.90074">
        <ele>967.6</ele>
        <time>2022-08-29T08:32:03Z</time>
      </trkpt>
      <trkpt lat="47.90201" lon="6.90073">
        <ele>967.2</ele>
        <time>2022-08-29T08:32:04Z</time>
      </trkpt>
      <trkpt lat="47.90202" lon="6.90072">
        <ele>966.7</ele>
        <time>2022-08-29T08:32:05Z</time>
      </trkpt>
      <trkpt lat="47.90203" lon="6.9007">
        <ele>966.5</ele>
        <time>2022-08-29T08:32:06Z</time>
      </trkpt>
      <trkpt lat="47.90203" lon="6.90069">
        <ele>966.8</ele>
        <time>2022-08-29T08:32:07Z</time>
      </trkpt>
      <trkpt lat="47.90204" lon="6.90068">
        <ele>966.3</ele>
        <time>2022-08-29T08:32:08Z</time>
      </trkpt>
      <trkpt lat="47.90205" lon="6.90066">
        <ele>966.2</ele>
        <time>2022-08-29T08:32:09Z</time>
      </trkpt>
      <trkpt lat="47.90205" lon="6.90065">
        <ele>966.4</ele>
        <time>2022-08-29T08:32:10Z</time>
      </trkpt>
      <trkpt lat="47.90206" lon="6.90064">
        <ele>966</ele>
        <time>2022-08-29T08:32:11Z</time>
      </trkpt>
      <trkpt lat="47.90206" lon="6.90062">
        <ele>966.5</ele>
        <time>2022-08-29T08:32:12Z</time>
      </trkpt>
      <trkpt lat="47.90206" lon="6.90061">
        <ele>966.8</ele>
        <time>2022-08-29T08:32:13Z</time>
      </trkpt>
      <trkpt lat="47.90206" lon="6.90059">
        <ele>967.3</ele>
        <time>2022-08-29T08:32:14Z</time>
      </trkpt>
      <trkpt lat="47.90207" lon="6.90058">
        <ele>966.8</ele>
        <time>2022-08-29T08:32:15Z</time>
      </trkpt>
      <trkpt lat="47.90207" lon="6.90056">
        <ele>967.4</ele>
        <time>2022-08-29T08:32:16Z</time>
      </trkpt>
      <trkpt lat="47.90207" lon="6.90054">
        <ele>968.1</ele>
        <time>2022-08-29T08:32:17Z</time>
      </trkpt>
      <trkpt lat="47.90207" lon="6.90053">
        <ele>968.5</ele>
        <time>2022-08-29T08:32:18Z</time>
      </trkpt>
      <trkpt lat="47.90208" lon="6.90052">
        <ele>968.1</ele>
        <time>2022-08-29T08:32:19Z</time>
      </trkpt>
      <trkpt lat="47.90208" lon="6.9005">
        <ele>968.9</ele>
        <time>2022-08-29T08:32:20Z</time>
      </trkpt>
      <trkpt lat="47.90208" lon="6.90049">
        <ele>969.2</ele>
        <time>2022-08-29T08:32:21Z</time>
      </trkpt>
      <trkpt lat="47.90209" lon="6.90048">
        <ele>968.8</ele>
        <time>2022-08-29T08:32:22Z</time>
      </trkpt>
      <trkpt lat="47.90209" lon="6.90046">
        <ele>969.6</ele>
        <time>2022-08-29T08:32:23Z</time>
      </trkpt>
      <trkpt lat="47.9021" lon="6.90045">
        <ele>969.2</ele>
        <time>2022-08-29T08:32:24Z</time>
      </trkpt>
      <trkpt lat="47.9021" lon="6.90044">
        <ele>969.6</ele>
        <time>2022-08-29T08:32:25Z</time>
      </trkpt>
      <trkpt lat="47.90211" lon="6.90042">
        <ele>969.6</ele>
        <time>2022-08-29T08:32:26Z</time>
      </trkpt>
      <trkpt lat="47.90212" lon="6.90041">
        <ele>969.2</ele>
        <time>2022-08-29T08:32:27Z</time>
      </trkpt>
      <trkpt lat="47.90212" lon="6.9004">
        <ele>969.5</ele>
        <time>2022-08-29T08:32:28Z</time>
      </trkpt>
      <trkpt lat="47.90213" lon="6.90039">
        <ele>969.1</ele>
        <time>2022-08-29T08:32:29Z</time>
      </trkpt>
      <trkpt lat="47.90214" lon="6.90038">
        <ele>968.7</ele>
        <time>2022-08-29T08:32:30Z</time>
      </trkpt>
      <trkpt lat="47.90215" lon="6.90037">
        <ele>968.3</ele>
        <time>2022-08-29T08:32:31Z</time>
      </trkpt>
      <trkpt lat="47.90216" lon="6.90036">
        <ele>967.9</ele>
        <time>2022-08-29T08:32:32Z</time>
      </trkpt>
      <trkpt lat="47.90216" lon="6.90035">
        <ele>968.3</ele>
        <time>2022-08-29T08:32:33Z</time>
      </trkpt>
      <trkpt lat="47.90217" lon="6.90034">
        <ele>967.9</ele>
        <time>2022-08-29T08:32:34Z</time>
      </trkpt>
      <trkpt lat="47.90218" lon="6.90033">
        <ele>967.4</ele>
        <time>2022-08-29T08:32:35Z</time>
      </trkpt>
      <trkpt lat="47.90218" lon="6.90032">
        <ele>967.8</ele>
        <time>2022-08-29T08:32:36Z</time>
      </trkpt>
      <trkpt lat="47.90219" lon="6.90031">
        <ele>967.4</ele>
        <time>2022-08-29T08:32:37Z</time>
      </trkpt>
      <trkpt lat="47.90219" lon="6.9003">
        <ele>967.7</ele>
        <time>2022-08-29T08:32:38Z</time>
      </trkpt>
      <trkpt lat="47.9022" lon="6.90029">
        <ele>967.3</ele>
        <time>2022-08-29T08:32:39Z</time>
      </trkpt>
      <trkpt lat="47.9022" lon="6.90028">
        <ele>967.7</ele>
        <time>2022-08-29T08:32:40Z</time>
      </trkpt>
      <trkpt lat="47.90221" lon="6.90028">
        <ele>966.9</ele>
        <time>2022-08-29T08:32:41Z</time>
      </trkpt>
      <trkpt lat="47.90222" lon="6.90027">
        <ele>966.4</ele>
        <time>2022-08-29T08:32:42Z</time>
      </trkpt>
      <trkpt lat="47.90223" lon="6.90026">
        <ele>966</ele>
        <time>2022-08-29T08:32:44Z</time>
      </trkpt>
      <trkpt lat="47.90224" lon="6.90025">
        <ele>965.7</ele>
        <time>2022-08-29T08:32:45Z</time>
      </trkpt>
      <trkpt lat="47.90225" lon="6.90024">
        <ele>965.4</ele>
        <time>2022-08-29T08:32:46Z</time>
      </trkpt>
      <trkpt lat="47.90226" lon="6.90023">
        <ele>965</ele>
        <time>2022-08-29T08:32:47Z</time>
      </trkpt>
      <trkpt lat="47.90227" lon="6.90023">
        <ele>964.5</ele>
        <time>2022-08-29T08:32:48Z</time>
      </trkpt>
      <trkpt lat="47.90228" lon="6.90022">
        <ele>964.1</ele>
        <time>2022-08-29T08:32:49Z</time>
      </trkpt>
      <trkpt lat="47.90229" lon="6.90021">
        <ele>963.8</ele>
        <time>2022-08-29T08:32:50Z</time>
      </trkpt>
      <trkpt lat="47.9023" lon="6.90021">
        <ele>963.2</ele>
        <time>2022-08-29T08:32:51Z</time>
      </trkpt>
      <trkpt lat="47.90231" lon="6.9002">
        <ele>962.9</ele>
        <time>2022-08-29T08:32:52Z</time>
      </trkpt>
      <trkpt lat="47.90232" lon="6.90019">
        <ele>962.6</ele>
        <time>2022-08-29T08:32:53Z</time>
      </trkpt>
      <trkpt lat="47.90233" lon="6.90018">
        <ele>962.3</ele>
        <time>2022-08-29T08:32:54Z</time>
      </trkpt>
      <trkpt lat="47.90234" lon="6.90017">
        <ele>961.9</ele>
        <time>2022-08-29T08:32:55Z</time>
      </trkpt>
      <trkpt lat="47.90234" lon="6.90016">
        <ele>962.2</ele>
        <time>2022-08-29T08:32:56Z</time>
      </trkpt>
      <trkpt lat="47.90235" lon="6.90015">
        <ele>961.9</ele>
        <time>2022-08-29T08:32:57Z</time>
      </trkpt>
      <trkpt lat="47.90235" lon="6.90013">
        <ele>962.4</ele>
        <time>2022-08-29T08:32:58Z</time>
      </trkpt>
      <trkpt lat="47.90236" lon="6.90012">
        <ele>962</ele>
        <time>2022-08-29T08:32:59Z</time>
      </trkpt>
      <trkpt lat="47.90236" lon="6.9001">
        <ele>962.5</ele>
        <time>2022-08-29T08:33:00Z</time>
      </trkpt>
      <trkpt lat="47.90236" lon="6.90009">
        <ele>962.8</ele>
        <time>2022-08-29T08:33:01Z</time>
      </trkpt>
      <trkpt lat="47.90236" lon="6.90007">
        <ele>963.3</ele>
        <time>2022-08-29T08:33:02Z</time>
      </trkpt>
      <trkpt lat="47.90236" lon="6.90009">
        <ele>962.8</ele>
        <time>2022-08-29T08:36:25Z</time>
      </trkpt>
      <trkpt lat="47.90236" lon="6.9001">
        <ele>962.5</ele>
        <time>2022-08-29T08:36:27Z</time>
      </trkpt>
      <trkpt lat="47.90236" lon="6.90009">
        <ele>962.8</ele>
        <time>2022-08-29T08:36:30Z</time>
      </trkpt>
      <trkpt lat="47.90236" lon="6.90008">
        <ele>963</ele>
        <time>2022-08-29T08:36:31Z</time>
      </trkpt>
      <trkpt lat="47.90236" lon="6.90007">
        <ele>963.3</ele>
        <time>2022-08-29T08:36:32Z</time>
      </trkpt>
      <trkpt lat="47.90236" lon="6.90006">
        <ele>963.6</ele>
        <time>2022-08-29T08:36:33Z</time>
      </trkpt>
      <trkpt lat="47.90236" lon="6.90005">
        <ele>963.8</ele>
        <time>2022-08-29T08:36:34Z</time>
      </trkpt>
      <trkpt lat="47.90236" lon="6.90004">
        <ele>964.1</ele>
        <time>2022-08-29T08:36:35Z</time>
      </trkpt>
      <trkpt lat="47.90236" lon="6.90002">
        <ele>964.6</ele>
        <time>2022-08-29T08:36:36Z</time>
      </trkpt>
      <trkpt lat="47.90236" lon="6.90001">
        <ele>964.8</ele>
        <time>2022-08-29T08:36:37Z</time>
      </trkpt>
      <trkpt lat="47.90237" lon="6.9">
        <ele>964.5</ele>
        <time>2022-08-29T08:36:38Z</time>
      </trkpt>
      <trkpt lat="47.90237" lon="6.89999">
        <ele>964.5</ele>
        <time>2022-08-29T08:36:39Z</time>
      </trkpt>
      <trkpt lat="47.90237" lon="6.89997">
        <ele>964.4</ele>
        <time>2022-08-29T08:36:40Z</time>
      </trkpt>
      <trkpt lat="47.90238" lon="6.89995">
        <ele>963.8</ele>
        <time>2022-08-29T08:36:41Z</time>
      </trkpt>
      <trkpt lat="47.90238" lon="6.89993">
        <ele>963.8</ele>
        <time>2022-08-29T08:36:42Z</time>
      </trkpt>
      <trkpt lat="47.90238" lon="6.89992">
        <ele>963.8</ele>
        <time>2022-08-29T08:36:43Z</time>
      </trkpt>
      <trkpt lat="47.90239" lon="6.8999">
        <ele>963.2</ele>
        <time>2022-08-29T08:36:44Z</time>
      </trkpt>
      <trkpt lat="47.90239" lon="6.89989">
        <ele>963.2</ele>
        <time>2022-08-29T08:36:45Z</time>
      </trkpt>
      <trkpt lat="47.90239" lon="6.89988">
        <ele>963.2</ele>
        <time>2022-08-29T08:36:46Z</time>
      </trkpt>
      <trkpt lat="47.90239" lon="6.89987">
        <ele>963.2</ele>
        <time>2022-08-29T08:36:47Z</time>
      </trkpt>
      <trkpt lat="47.9024" lon="6.89985">
        <ele>962.6</ele>
        <time>2022-08-29T08:36:48Z</time>
      </trkpt>
      <trkpt lat="47.9024" lon="6.89984">
        <ele>962.6</ele>
        <time>2022-08-29T08:36:49Z</time>
      </trkpt>
      <trkpt lat="47.9024" lon="6.89983">
        <ele>962.5</ele>
        <time>2022-08-29T08:36:50Z</time>
      </trkpt>
      <trkpt lat="47.90241" lon="6.89981">
        <ele>962</ele>
        <time>2022-08-29T08:36:51Z</time>
      </trkpt>
      <trkpt lat="47.90241" lon="6.8998">
        <ele>962</ele>
        <time>2022-08-29T08:36:52Z</time>
      </trkpt>
      <trkpt lat="47.90241" lon="6.89978">
        <ele>961.9</ele>
        <time>2022-08-29T08:36:53Z</time>
      </trkpt>
      <trkpt lat="47.90241" lon="6.89976">
        <ele>961.9</ele>
        <time>2022-08-29T08:36:54Z</time>
      </trkpt>
      <trkpt lat="47.90241" lon="6.89975">
        <ele>961.9</ele>
        <time>2022-08-29T08:36:55Z</time>
      </trkpt>
      <trkpt lat="47.90241" lon="6.89973">
        <ele>961.9</ele>
        <time>2022-08-29T08:36:56Z</time>
      </trkpt>
      <trkpt lat="47.9024" lon="6.89971">
        <ele>962.4</ele>
        <time>2022-08-29T08:36:57Z</time>
      </trkpt>
      <trkpt lat="47.9024" lon="6.8997">
        <ele>962.3</ele>
        <time>2022-08-29T08:36:58Z</time>
      </trkpt>
      <trkpt lat="47.9024" lon="6.89968">
        <ele>962.2</ele>
        <time>2022-08-29T08:36:59Z</time>
      </trkpt>
      <trkpt lat="47.9024" lon="6.89967">
        <ele>962.2</ele>
        <time>2022-08-29T08:37:00Z</time>
      </trkpt>
      <trkpt lat="47.9024" lon="6.89966">
        <ele>962.2</ele>
        <time>2022-08-29T08:37:01Z</time>
      </trkpt>
      <trkpt lat="47.9024" lon="6.89964">
        <ele>962.1</ele>
        <time>2022-08-29T08:37:02Z</time>
      </trkpt>
      <trkpt lat="47.9024" lon="6.89963">
        <ele>962.1</ele>
        <time>2022-08-29T08:37:03Z</time>
      </trkpt>
      <trkpt lat="47.9024" lon="6.89961">
        <ele>962</ele>
        <time>2022-08-29T08:37:04Z</time>
      </trkpt>
      <trkpt lat="47.9024" lon="6.8996">
        <ele>962</ele>
        <time>2022-08-29T08:37:05Z</time>
      </trkpt>
      <trkpt lat="47.9024" lon="6.89958">
        <ele>961.9</ele>
        <time>2022-08-29T08:37:06Z</time>
      </trkpt>
      <trkpt lat="47.90241" lon="6.89957">
        <ele>961.3</ele>
        <time>2022-08-29T08:37:07Z</time>
      </trkpt>
      <trkpt lat="47.90241" lon="6.89956">
        <ele>961.3</ele>
        <time>2022-08-29T08:37:08Z</time>
      </trkpt>
      <trkpt lat="47.90241" lon="6.89955">
        <ele>961.2</ele>
        <time>2022-08-29T08:37:09Z</time>
      </trkpt>
      <trkpt lat="47.90241" lon="6.89953">
        <ele>961.2</ele>
        <time>2022-08-29T08:37:10Z</time>
      </trkpt>
      <trkpt lat="47.90241" lon="6.89952">
        <ele>961.1</ele>
        <time>2022-08-29T08:37:11Z</time>
      </trkpt>
      <trkpt lat="47.90241" lon="6.8995">
        <ele>961.1</ele>
        <time>2022-08-29T08:37:12Z</time>
      </trkpt>
      <trkpt lat="47.90241" lon="6.89949">
        <ele>961</ele>
        <time>2022-08-29T08:37:13Z</time>
      </trkpt>
      <trkpt lat="47.90241" lon="6.89947">
        <ele>961</ele>
        <time>2022-08-29T08:37:14Z</time>
      </trkpt>
      <trkpt lat="47.90241" lon="6.89946">
        <ele>960.9</ele>
        <time>2022-08-29T08:37:15Z</time>
      </trkpt>
      <trkpt lat="47.90241" lon="6.89945">
        <ele>960.9</ele>
        <time>2022-08-29T08:37:16Z</time>
      </trkpt>
      <trkpt lat="47.90241" lon="6.89943">
        <ele>960.7</ele>
        <time>2022-08-29T08:37:17Z</time>
      </trkpt>
      <trkpt lat="47.90241" lon="6.89942">
        <ele>960.6</ele>
        <time>2022-08-29T08:37:18Z</time>
      </trkpt>
      <trkpt lat="47.90241" lon="6.89941">
        <ele>960.5</ele>
        <time>2022-08-29T08:37:20Z</time>
      </trkpt>
      <trkpt lat="47.90241" lon="6.89939">
        <ele>960.3</ele>
        <time>2022-08-29T08:37:21Z</time>
      </trkpt>
      <trkpt lat="47.90241" lon="6.89938">
        <ele>960.2</ele>
        <time>2022-08-29T08:37:22Z</time>
      </trkpt>
      <trkpt lat="47.90241" lon="6.89937">
        <ele>960.1</ele>
        <time>2022-08-29T08:37:23Z</time>
      </trkpt>
      <trkpt lat="47.90241" lon="6.89936">
        <ele>959.9</ele>
        <time>2022-08-29T08:37:24Z</time>
      </trkpt>
      <trkpt lat="47.90241" lon="6.89934">
        <ele>959.7</ele>
        <time>2022-08-29T08:37:26Z</time>
      </trkpt>
      <trkpt lat="47.90241" lon="6.89933">
        <ele>959.6</ele>
        <time>2022-08-29T08:37:27Z</time>
      </trkpt>
      <trkpt lat="47.9024" lon="6.89932">
        <ele>960.1</ele>
        <time>2022-08-29T08:37:28Z</time>
      </trkpt>
      <trkpt lat="47.9024" lon="6.89931">
        <ele>959.9</ele>
        <time>2022-08-29T08:37:29Z</time>
      </trkpt>
      <trkpt lat="47.9024" lon="6.8993">
        <ele>959.8</ele>
        <time>2022-08-29T08:37:30Z</time>
      </trkpt>
      <trkpt lat="47.9024" lon="6.89928">
        <ele>959.6</ele>
        <time>2022-08-29T08:37:31Z</time>
      </trkpt>
      <trkpt lat="47.90239" lon="6.89927">
        <ele>960.1</ele>
        <time>2022-08-29T08:37:32Z</time>
      </trkpt>
      <trkpt lat="47.90239" lon="6.89926">
        <ele>959.9</ele>
        <time>2022-08-29T08:37:33Z</time>
      </trkpt>
      <trkpt lat="47.90239" lon="6.89924">
        <ele>959.7</ele>
        <time>2022-08-29T08:37:34Z</time>
      </trkpt>
      <trkpt lat="47.90238" lon="6.89922">
        <ele>960.1</ele>
        <time>2022-08-29T08:37:35Z</time>
      </trkpt>
      <trkpt lat="47.90238" lon="6.89921">
        <ele>959.9</ele>
        <time>2022-08-29T08:37:36Z</time>
      </trkpt>
      <trkpt lat="47.90238" lon="6.89919">
        <ele>959.7</ele>
        <time>2022-08-29T08:37:37Z</time>
      </trkpt>
      <trkpt lat="47.90238" lon="6.89917">
        <ele>959.5</ele>
        <time>2022-08-29T08:37:38Z</time>
      </trkpt>
      <trkpt lat="47.90238" lon="6.89916">
        <ele>959.4</ele>
        <time>2022-08-29T08:37:39Z</time>
      </trkpt>
      <trkpt lat="47.90238" lon="6.89914">
        <ele>959.1</ele>
        <time>2022-08-29T08:37:40Z</time>
      </trkpt>
      <trkpt lat="47.90238" lon="6.89912">
        <ele>958.9</ele>
        <time>2022-08-29T08:37:41Z</time>
      </trkpt>
      <trkpt lat="47.90238" lon="6.89911">
        <ele>958.8</ele>
        <time>2022-08-29T08:37:42Z</time>
      </trkpt>
      <trkpt lat="47.90238" lon="6.89909">
        <ele>958.5</ele>
        <time>2022-08-29T08:37:43Z</time>
      </trkpt>
      <trkpt lat="47.90238" lon="6.89908">
        <ele>958.4</ele>
        <time>2022-08-29T08:37:44Z</time>
      </trkpt>
      <trkpt lat="47.90238" lon="6.89907">
        <ele>958.2</ele>
        <time>2022-08-29T08:37:45Z</time>
      </trkpt>
      <trkpt lat="47.90237" lon="6.89905">
        <ele>958.5</ele>
        <time>2022-08-29T08:37:46Z</time>
      </trkpt>
      <trkpt lat="47.90236" lon="6.89904">
        <ele>959</ele>
        <time>2022-08-29T08:37:47Z</time>
      </trkpt>
      <trkpt lat="47.90236" lon="6.89902">
        <ele>958.7</ele>
        <time>2022-08-29T08:37:48Z</time>
      </trkpt>
      <trkpt lat="47.90235" lon="6.89901">
        <ele>959.1</ele>
        <time>2022-08-29T08:37:49Z</time>
      </trkpt>
      <trkpt lat="47.90235" lon="6.89899">
        <ele>958.9</ele>
        <time>2022-08-29T08:37:50Z</time>
      </trkpt>
      <trkpt lat="47.90235" lon="6.89898">
        <ele>958.8</ele>
        <time>2022-08-29T08:37:51Z</time>
      </trkpt>
      <trkpt lat="47.90236" lon="6.89897">
        <ele>958.1</ele>
        <time>2022-08-29T08:37:52Z</time>
      </trkpt>
      <trkpt lat="47.90236" lon="6.89895">
        <ele>957.8</ele>
        <time>2022-08-29T08:37:53Z</time>
      </trkpt>
      <trkpt lat="47.90236" lon="6.89894">
        <ele>957.7</ele>
        <time>2022-08-29T08:37:54Z</time>
      </trkpt>
      <trkpt lat="47.90236" lon="6.89892">
        <ele>957.5</ele>
        <time>2022-08-29T08:37:55Z</time>
      </trkpt>
      <trkpt lat="47.90236" lon="6.89891">
        <ele>957.3</ele>
        <time>2022-08-29T08:37:56Z</time>
      </trkpt>
      <trkpt lat="47.90235" lon="6.89889">
        <ele>957.7</ele>
        <time>2022-08-29T08:37:57Z</time>
      </trkpt>
      <trkpt lat="47.90235" lon="6.89887">
        <ele>957.3</ele>
        <time>2022-08-29T08:37:58Z</time>
      </trkpt>
      <trkpt lat="47.90234" lon="6.89885">
        <ele>957.6</ele>
        <time>2022-08-29T08:37:59Z</time>
      </trkpt>
      <trkpt lat="47.90234" lon="6.89884">
        <ele>957.4</ele>
        <time>2022-08-29T08:38:00Z</time>
      </trkpt>
      <trkpt lat="47.90234" lon="6.89883">
        <ele>957.3</ele>
        <time>2022-08-29T08:38:01Z</time>
      </trkpt>
      <trkpt lat="47.90234" lon="6.89882">
        <ele>957.1</ele>
        <time>2022-08-29T08:38:02Z</time>
      </trkpt>
      <trkpt lat="47.90233" lon="6.8988">
        <ele>957.4</ele>
        <time>2022-08-29T08:38:03Z</time>
      </trkpt>
      <trkpt lat="47.90233" lon="6.89879">
        <ele>957.2</ele>
        <time>2022-08-29T08:38:04Z</time>
      </trkpt>
      <trkpt lat="47.90233" lon="6.89877">
        <ele>956.9</ele>
        <time>2022-08-29T08:38:05Z</time>
      </trkpt>
      <trkpt lat="47.90234" lon="6.89875">
        <ele>956</ele>
        <time>2022-08-29T08:38:06Z</time>
      </trkpt>
      <trkpt lat="47.90234" lon="6.89874">
        <ele>955.8</ele>
        <time>2022-08-29T08:38:07Z</time>
      </trkpt>
      <trkpt lat="47.90234" lon="6.89872">
        <ele>955.5</ele>
        <time>2022-08-29T08:38:08Z</time>
      </trkpt>
      <trkpt lat="47.90235" lon="6.89871">
        <ele>954.8</ele>
        <time>2022-08-29T08:38:09Z</time>
      </trkpt>
      <trkpt lat="47.90235" lon="6.8987">
        <ele>954.6</ele>
        <time>2022-08-29T08:38:10Z</time>
      </trkpt>
      <trkpt lat="47.90235" lon="6.89869">
        <ele>954.4</ele>
        <time>2022-08-29T08:38:11Z</time>
      </trkpt>
      <trkpt lat="47.90235" lon="6.89867">
        <ele>954.1</ele>
        <time>2022-08-29T08:38:12Z</time>
      </trkpt>
      <trkpt lat="47.90234" lon="6.89866">
        <ele>954.6</ele>
        <time>2022-08-29T08:38:13Z</time>
      </trkpt>
      <trkpt lat="47.90234" lon="6.89865">
        <ele>954.4</ele>
        <time>2022-08-29T08:38:15Z</time>
      </trkpt>
      <trkpt lat="47.90233" lon="6.89864">
        <ele>954.9</ele>
        <time>2022-08-29T08:38:16Z</time>
      </trkpt>
      <trkpt lat="47.90232" lon="6.89862">
        <ele>955.2</ele>
        <time>2022-08-29T08:38:17Z</time>
      </trkpt>
      <trkpt lat="47.90232" lon="6.89861">
        <ele>955</ele>
        <time>2022-08-29T08:38:18Z</time>
      </trkpt>
      <trkpt lat="47.90231" lon="6.8986">
        <ele>955.4</ele>
        <time>2022-08-29T08:38:19Z</time>
      </trkpt>
      <trkpt lat="47.90231" lon="6.89859">
        <ele>955.3</ele>
        <time>2022-08-29T08:38:20Z</time>
      </trkpt>
      <trkpt lat="47.9023" lon="6.89857">
        <ele>955.5</ele>
        <time>2022-08-29T08:38:21Z</time>
      </trkpt>
      <trkpt lat="47.9023" lon="6.89856">
        <ele>955.4</ele>
        <time>2022-08-29T08:38:22Z</time>
      </trkpt>
      <trkpt lat="47.9023" lon="6.89854">
        <ele>955</ele>
        <time>2022-08-29T08:38:23Z</time>
      </trkpt>
      <trkpt lat="47.90229" lon="6.89853">
        <ele>955.5</ele>
        <time>2022-08-29T08:38:24Z</time>
      </trkpt>
      <trkpt lat="47.90229" lon="6.89851">
        <ele>955.1</ele>
        <time>2022-08-29T08:38:25Z</time>
      </trkpt>
      <trkpt lat="47.90229" lon="6.8985">
        <ele>954.9</ele>
        <time>2022-08-29T08:38:26Z</time>
      </trkpt>
      <trkpt lat="47.90229" lon="6.89849">
        <ele>954.8</ele>
        <time>2022-08-29T08:38:27Z</time>
      </trkpt>
      <trkpt lat="47.90228" lon="6.89847">
        <ele>955</ele>
        <time>2022-08-29T08:38:28Z</time>
      </trkpt>
      <trkpt lat="47.90228" lon="6.89846">
        <ele>954.9</ele>
        <time>2022-08-29T08:38:29Z</time>
      </trkpt>
      <trkpt lat="47.90228" lon="6.89845">
        <ele>954.7</ele>
        <time>2022-08-29T08:38:30Z</time>
      </trkpt>
      <trkpt lat="47.90227" lon="6.89844">
        <ele>955.1</ele>
        <time>2022-08-29T08:38:31Z</time>
      </trkpt>
      <trkpt lat="47.90227" lon="6.89842">
        <ele>954.8</ele>
        <time>2022-08-29T08:38:32Z</time>
      </trkpt>
      <trkpt lat="47.90226" lon="6.89841">
        <ele>955.2</ele>
        <time>2022-08-29T08:38:33Z</time>
      </trkpt>
      <trkpt lat="47.90226" lon="6.8984">
        <ele>955</ele>
        <time>2022-08-29T08:38:34Z</time>
      </trkpt>
      <trkpt lat="47.90225" lon="6.89838">
        <ele>955.2</ele>
        <time>2022-08-29T08:38:35Z</time>
      </trkpt>
      <trkpt lat="47.90225" lon="6.89837">
        <ele>955</ele>
        <time>2022-08-29T08:38:36Z</time>
      </trkpt>
      <trkpt lat="47.90225" lon="6.89836">
        <ele>954.9</ele>
        <time>2022-08-29T08:38:37Z</time>
      </trkpt>
      <trkpt lat="47.90224" lon="6.89835">
        <ele>955.3</ele>
        <time>2022-08-29T08:38:38Z</time>
      </trkpt>
      <trkpt lat="47.90224" lon="6.89834">
        <ele>955.1</ele>
        <time>2022-08-29T08:38:39Z</time>
      </trkpt>
      <trkpt lat="47.90224" lon="6.89833">
        <ele>954.9</ele>
        <time>2022-08-29T08:38:40Z</time>
      </trkpt>
      <trkpt lat="47.90223" lon="6.89832">
        <ele>955.3</ele>
        <time>2022-08-29T08:38:41Z</time>
      </trkpt>
      <trkpt lat="47.90222" lon="6.8983">
        <ele>955.4</ele>
        <time>2022-08-29T08:38:42Z</time>
      </trkpt>
      <trkpt lat="47.90222" lon="6.89829">
        <ele>955.2</ele>
        <time>2022-08-29T08:38:43Z</time>
      </trkpt>
      <trkpt lat="47.90221" lon="6.89828">
        <ele>955.5</ele>
        <time>2022-08-29T08:38:44Z</time>
      </trkpt>
      <trkpt lat="47.90221" lon="6.89827">
        <ele>955.2</ele>
        <time>2022-08-29T08:38:45Z</time>
      </trkpt>
      <trkpt lat="47.9022" lon="6.89826">
        <ele>955.5</ele>
        <time>2022-08-29T08:38:46Z</time>
      </trkpt>
      <trkpt lat="47.9022" lon="6.89824">
        <ele>955.1</ele>
        <time>2022-08-29T08:38:47Z</time>
      </trkpt>
      <trkpt lat="47.90219" lon="6.89823">
        <ele>955.4</ele>
        <time>2022-08-29T08:38:48Z</time>
      </trkpt>
      <trkpt lat="47.90218" lon="6.89822">
        <ele>955.7</ele>
        <time>2022-08-29T08:38:49Z</time>
      </trkpt>
      <trkpt lat="47.90218" lon="6.89821">
        <ele>955.5</ele>
        <time>2022-08-29T08:38:50Z</time>
      </trkpt>
      <trkpt lat="47.90216" lon="6.89819">
        <ele>956</ele>
        <time>2022-08-29T08:38:51Z</time>
      </trkpt>
      <trkpt lat="47.90215" lon="6.89817">
        <ele>956.1</ele>
        <time>2022-08-29T08:38:52Z</time>
      </trkpt>
      <trkpt lat="47.90214" lon="6.89815">
        <ele>956.2</ele>
        <time>2022-08-29T08:38:53Z</time>
      </trkpt>
      <trkpt lat="47.90213" lon="6.89813">
        <ele>956.3</ele>
        <time>2022-08-29T08:38:54Z</time>
      </trkpt>
      <trkpt lat="47.90212" lon="6.89811">
        <ele>956.3</ele>
        <time>2022-08-29T08:38:55Z</time>
      </trkpt>
      <trkpt lat="47.90211" lon="6.89809">
        <ele>956.4</ele>
        <time>2022-08-29T08:38:56Z</time>
      </trkpt>
      <trkpt lat="47.90211" lon="6.89808">
        <ele>956.2</ele>
        <time>2022-08-29T08:38:57Z</time>
      </trkpt>
      <trkpt lat="47.9021" lon="6.89806">
        <ele>956.3</ele>
        <time>2022-08-29T08:38:58Z</time>
      </trkpt>
      <trkpt lat="47.9021" lon="6.89804">
        <ele>955.8</ele>
        <time>2022-08-29T08:38:59Z</time>
      </trkpt>
      <trkpt lat="47.90209" lon="6.89803">
        <ele>956.1</ele>
        <time>2022-08-29T08:39:00Z</time>
      </trkpt>
      <trkpt lat="47.90209" lon="6.89802">
        <ele>955.9</ele>
        <time>2022-08-29T08:39:01Z</time>
      </trkpt>
      <trkpt lat="47.90209" lon="6.89801">
        <ele>955.7</ele>
        <time>2022-08-29T08:39:02Z</time>
      </trkpt>
      <trkpt lat="47.90208" lon="6.89799">
        <ele>955.8</ele>
        <time>2022-08-29T08:39:03Z</time>
      </trkpt>
      <trkpt lat="47.90208" lon="6.89798">
        <ele>955.5</ele>
        <time>2022-08-29T08:39:04Z</time>
      </trkpt>
      <trkpt lat="47.90207" lon="6.89796">
        <ele>955.6</ele>
        <time>2022-08-29T08:39:05Z</time>
      </trkpt>
      <trkpt lat="47.90207" lon="6.89794">
        <ele>955.2</ele>
        <time>2022-08-29T08:39:06Z</time>
      </trkpt>
      <trkpt lat="47.90206" lon="6.89793">
        <ele>955.5</ele>
        <time>2022-08-29T08:39:07Z</time>
      </trkpt>
      <trkpt lat="47.90206" lon="6.89791">
        <ele>955</ele>
        <time>2022-08-29T08:39:08Z</time>
      </trkpt>
      <trkpt lat="47.90205" lon="6.89789">
        <ele>955.1</ele>
        <time>2022-08-29T08:39:09Z</time>
      </trkpt>
      <trkpt lat="47.90204" lon="6.89787">
        <ele>955.2</ele>
        <time>2022-08-29T08:39:10Z</time>
      </trkpt>
      <trkpt lat="47.90204" lon="6.89785">
        <ele>954.7</ele>
        <time>2022-08-29T08:39:11Z</time>
      </trkpt>
      <trkpt lat="47.90203" lon="6.89783">
        <ele>954.8</ele>
        <time>2022-08-29T08:39:12Z</time>
      </trkpt>
      <trkpt lat="47.90203" lon="6.89781">
        <ele>954.4</ele>
        <time>2022-08-29T08:39:13Z</time>
      </trkpt>
      <trkpt lat="47.90203" lon="6.89779">
        <ele>954</ele>
        <time>2022-08-29T08:39:14Z</time>
      </trkpt>
      <trkpt lat="47.90202" lon="6.89776">
        <ele>953.9</ele>
        <time>2022-08-29T08:39:15Z</time>
      </trkpt>
      <trkpt lat="47.90202" lon="6.89774">
        <ele>953.6</ele>
        <time>2022-08-29T08:39:16Z</time>
      </trkpt>
      <trkpt lat="47.90202" lon="6.89772">
        <ele>953.3</ele>
        <time>2022-08-29T08:39:17Z</time>
      </trkpt>
      <trkpt lat="47.90201" lon="6.8977">
        <ele>953.5</ele>
        <time>2022-08-29T08:39:18Z</time>
      </trkpt>
      <trkpt lat="47.90201" lon="6.89768">
        <ele>953.2</ele>
        <time>2022-08-29T08:39:19Z</time>
      </trkpt>
      <trkpt lat="47.90201" lon="6.89766">
        <ele>952.9</ele>
        <time>2022-08-29T08:39:20Z</time>
      </trkpt>
      <trkpt lat="47.90201" lon="6.89765">
        <ele>952.7</ele>
        <time>2022-08-29T08:39:21Z</time>
      </trkpt>
      <trkpt lat="47.90201" lon="6.89763">
        <ele>952.4</ele>
        <time>2022-08-29T08:39:22Z</time>
      </trkpt>
      <trkpt lat="47.90201" lon="6.89761">
        <ele>952.1</ele>
        <time>2022-08-29T08:39:23Z</time>
      </trkpt>
      <trkpt lat="47.90201" lon="6.89759">
        <ele>951.8</ele>
        <time>2022-08-29T08:39:24Z</time>
      </trkpt>
      <trkpt lat="47.902" lon="6.89757">
        <ele>952.1</ele>
        <time>2022-08-29T08:39:25Z</time>
      </trkpt>
      <trkpt lat="47.90199" lon="6.89754">
        <ele>952.1</ele>
        <time>2022-08-29T08:39:26Z</time>
      </trkpt>
      <trkpt lat="47.90199" lon="6.89752">
        <ele>951.8</ele>
        <time>2022-08-29T08:39:27Z</time>
      </trkpt>
      <trkpt lat="47.90199" lon="6.8975">
        <ele>951.5</ele>
        <time>2022-08-29T08:39:28Z</time>
      </trkpt>
      <trkpt lat="47.90199" lon="6.89748">
        <ele>951</ele>
        <time>2022-08-29T08:39:29Z</time>
      </trkpt>
      <trkpt lat="47.90199" lon="6.89747">
        <ele>950.7</ele>
        <time>2022-08-29T08:39:30Z</time>
      </trkpt>
      <trkpt lat="47.90199" lon="6.89745">
        <ele>950.2</ele>
        <time>2022-08-29T08:39:31Z</time>
      </trkpt>
      <trkpt lat="47.90199" lon="6.89744">
        <ele>949.9</ele>
        <time>2022-08-29T08:39:32Z</time>
      </trkpt>
      <trkpt lat="47.90199" lon="6.89742">
        <ele>949.4</ele>
        <time>2022-08-29T08:39:33Z</time>
      </trkpt>
      <trkpt lat="47.90198" lon="6.89741">
        <ele>949.6</ele>
        <time>2022-08-29T08:39:34Z</time>
      </trkpt>
      <trkpt lat="47.90198" lon="6.8974">
        <ele>949.3</ele>
        <time>2022-08-29T08:39:35Z</time>
      </trkpt>
      <trkpt lat="47.90198" lon="6.89739">
        <ele>949.1</ele>
        <time>2022-08-29T08:39:36Z</time>
      </trkpt>
      <trkpt lat="47.90198" lon="6.89738">
        <ele>948.8</ele>
        <time>2022-08-29T08:39:37Z</time>
      </trkpt>
      <trkpt lat="47.90198" lon="6.89737">
        <ele>948.5</ele>
        <time>2022-08-29T08:39:38Z</time>
      </trkpt>
      <trkpt lat="47.90198" lon="6.89736">
        <ele>948.2</ele>
        <time>2022-08-29T08:39:39Z</time>
      </trkpt>
      <trkpt lat="47.90198" lon="6.89735">
        <ele>948</ele>
        <time>2022-08-29T08:39:40Z</time>
      </trkpt>
      <trkpt lat="47.90198" lon="6.89734">
        <ele>947.7</ele>
        <time>2022-08-29T08:39:41Z</time>
      </trkpt>
      <trkpt lat="47.90197" lon="6.89733">
        <ele>947.9</ele>
        <time>2022-08-29T08:39:42Z</time>
      </trkpt>
      <trkpt lat="47.90197" lon="6.89732">
        <ele>947.6</ele>
        <time>2022-08-29T08:39:43Z</time>
      </trkpt>
      <trkpt lat="47.90196" lon="6.89731">
        <ele>947.8</ele>
        <time>2022-08-29T08:39:44Z</time>
      </trkpt>
      <trkpt lat="47.90196" lon="6.8973">
        <ele>947.5</ele>
        <time>2022-08-29T08:39:45Z</time>
      </trkpt>
      <trkpt lat="47.90195" lon="6.89729">
        <ele>947.7</ele>
        <time>2022-08-29T08:39:46Z</time>
      </trkpt>
      <trkpt lat="47.90194" lon="6.89728">
        <ele>947.8</ele>
        <time>2022-08-29T08:39:47Z</time>
      </trkpt>
      <trkpt lat="47.90194" lon="6.89727">
        <ele>947.6</ele>
        <time>2022-08-29T08:39:48Z</time>
      </trkpt>
      <trkpt lat="47.90193" lon="6.89726">
        <ele>947.7</ele>
        <time>2022-08-29T08:39:49Z</time>
      </trkpt>
      <trkpt lat="47.90193" lon="6.89725">
        <ele>947.4</ele>
        <time>2022-08-29T08:39:50Z</time>
      </trkpt>
      <trkpt lat="47.90192" lon="6.89724">
        <ele>947.6</ele>
        <time>2022-08-29T08:39:51Z</time>
      </trkpt>
      <trkpt lat="47.90191" lon="6.89723">
        <ele>947.7</ele>
        <time>2022-08-29T08:39:52Z</time>
      </trkpt>
      <trkpt lat="47.9019" lon="6.89722">
        <ele>947.9</ele>
        <time>2022-08-29T08:39:53Z</time>
      </trkpt>
      <trkpt lat="47.90189" lon="6.89721">
        <ele>948</ele>
        <time>2022-08-29T08:39:54Z</time>
      </trkpt>
      <trkpt lat="47.90188" lon="6.8972">
        <ele>948.2</ele>
        <time>2022-08-29T08:39:55Z</time>
      </trkpt>
      <trkpt lat="47.90187" lon="6.89719">
        <ele>948.4</ele>
        <time>2022-08-29T08:39:56Z</time>
      </trkpt>
      <trkpt lat="47.90186" lon="6.89717">
        <ele>948.3</ele>
        <time>2022-08-29T08:39:57Z</time>
      </trkpt>
      <trkpt lat="47.90185" lon="6.89715">
        <ele>948.2</ele>
        <time>2022-08-29T08:39:58Z</time>
      </trkpt>
      <trkpt lat="47.90184" lon="6.89713">
        <ele>948.1</ele>
        <time>2022-08-29T08:39:59Z</time>
      </trkpt>
      <trkpt lat="47.90183" lon="6.89711">
        <ele>947.9</ele>
        <time>2022-08-29T08:40:00Z</time>
      </trkpt>
      <trkpt lat="47.90182" lon="6.89709">
        <ele>947.8</ele>
        <time>2022-08-29T08:40:01Z</time>
      </trkpt>
      <trkpt lat="47.90181" lon="6.89707">
        <ele>947.7</ele>
        <time>2022-08-29T08:40:02Z</time>
      </trkpt>
      <trkpt lat="47.9018" lon="6.89705">
        <ele>947.6</ele>
        <time>2022-08-29T08:40:03Z</time>
      </trkpt>
      <trkpt lat="47.90179" lon="6.89703">
        <ele>947.4</ele>
        <time>2022-08-29T08:40:04Z</time>
      </trkpt>
      <trkpt lat="47.90178" lon="6.89702">
        <ele>947.6</ele>
        <time>2022-08-29T08:40:05Z</time>
      </trkpt>
      <trkpt lat="47.90177" lon="6.89701">
        <ele>947.7</ele>
        <time>2022-08-29T08:40:06Z</time>
      </trkpt>
      <trkpt lat="47.90177" lon="6.89699">
        <ele>947.2</ele>
        <time>2022-08-29T08:40:07Z</time>
      </trkpt>
      <trkpt lat="47.90176" lon="6.89699">
        <ele>947.6</ele>
        <time>2022-08-29T08:40:08Z</time>
      </trkpt>
      <trkpt lat="47.90176" lon="6.89698">
        <ele>947.3</ele>
        <time>2022-08-29T08:40:09Z</time>
      </trkpt>
      <trkpt lat="47.90176" lon="6.89697">
        <ele>947</ele>
        <time>2022-08-29T08:40:10Z</time>
      </trkpt>
      <trkpt lat="47.90175" lon="6.89696">
        <ele>947.1</ele>
        <time>2022-08-29T08:40:11Z</time>
      </trkpt>
      <trkpt lat="47.90175" lon="6.89695">
        <ele>946.9</ele>
        <time>2022-08-29T08:40:12Z</time>
      </trkpt>
      <trkpt lat="47.90174" lon="6.89693">
        <ele>946.7</ele>
        <time>2022-08-29T08:40:13Z</time>
      </trkpt>
      <trkpt lat="47.90174" lon="6.89692">
        <ele>946.4</ele>
        <time>2022-08-29T08:40:14Z</time>
      </trkpt>
      <trkpt lat="47.90173" lon="6.89691">
        <ele>946.6</ele>
        <time>2022-08-29T08:40:15Z</time>
      </trkpt>
      <trkpt lat="47.90173" lon="6.89689">
        <ele>946</ele>
        <time>2022-08-29T08:40:16Z</time>
      </trkpt>
      <trkpt lat="47.90172" lon="6.89688">
        <ele>946.2</ele>
        <time>2022-08-29T08:40:17Z</time>
      </trkpt>
      <trkpt lat="47.90171" lon="6.89686">
        <ele>946.1</ele>
        <time>2022-08-29T08:40:18Z</time>
      </trkpt>
      <trkpt lat="47.9017" lon="6.89685">
        <ele>946.2</ele>
        <time>2022-08-29T08:40:19Z</time>
      </trkpt>
      <trkpt lat="47.90169" lon="6.89684">
        <ele>946.4</ele>
        <time>2022-08-29T08:40:20Z</time>
      </trkpt>
      <trkpt lat="47.90168" lon="6.89683">
        <ele>946.5</ele>
        <time>2022-08-29T08:40:21Z</time>
      </trkpt>
      <trkpt lat="47.90167" lon="6.89681">
        <ele>946.5</ele>
        <time>2022-08-29T08:40:22Z</time>
      </trkpt>
      <trkpt lat="47.90166" lon="6.8968">
        <ele>946.6</ele>
        <time>2022-08-29T08:40:23Z</time>
      </trkpt>
      <trkpt lat="47.90165" lon="6.89678">
        <ele>946.5</ele>
        <time>2022-08-29T08:40:24Z</time>
      </trkpt>
      <trkpt lat="47.90164" lon="6.89677">
        <ele>946.7</ele>
        <time>2022-08-29T08:40:25Z</time>
      </trkpt>
      <trkpt lat="47.90163" lon="6.89676">
        <ele>946.8</ele>
        <time>2022-08-29T08:40:26Z</time>
      </trkpt>
      <trkpt lat="47.90163" lon="6.89675">
        <ele>946.6</ele>
        <time>2022-08-29T08:40:27Z</time>
      </trkpt>
      <trkpt lat="47.90163" lon="6.89674">
        <ele>946.3</ele>
        <time>2022-08-29T08:40:30Z</time>
      </trkpt>
      <trkpt lat="47.90162" lon="6.89674">
        <ele>946.7</ele>
        <time>2022-08-29T08:40:32Z</time>
      </trkpt>
      <trkpt lat="47.90162" lon="6.89673">
        <ele>946.5</ele>
        <time>2022-08-29T08:40:33Z</time>
      </trkpt>
      <trkpt lat="47.90162" lon="6.89671">
        <ele>946</ele>
        <time>2022-08-29T08:40:34Z</time>
      </trkpt>
      <trkpt lat="47.90162" lon="6.8967">
        <ele>945.7</ele>
        <time>2022-08-29T08:40:35Z</time>
      </trkpt>
      <trkpt lat="47.90161" lon="6.89669">
        <ele>945.8</ele>
        <time>2022-08-29T08:40:36Z</time>
      </trkpt>
      <trkpt lat="47.90161" lon="6.89668">
        <ele>945.6</ele>
        <time>2022-08-29T08:40:37Z</time>
      </trkpt>
      <trkpt lat="47.9016" lon="6.89667">
        <ele>945.7</ele>
        <time>2022-08-29T08:40:38Z</time>
      </trkpt>
      <trkpt lat="47.9016" lon="6.89665">
        <ele>945.1</ele>
        <time>2022-08-29T08:40:39Z</time>
      </trkpt>
      <trkpt lat="47.90159" lon="6.89664">
        <ele>945.2</ele>
        <time>2022-08-29T08:40:40Z</time>
      </trkpt>
      <trkpt lat="47.90158" lon="6.89662">
        <ele>944.9</ele>
        <time>2022-08-29T08:40:41Z</time>
      </trkpt>
      <trkpt lat="47.90158" lon="6.8966">
        <ele>944.3</ele>
        <time>2022-08-29T08:40:42Z</time>
      </trkpt>
      <trkpt lat="47.90157" lon="6.89658">
        <ele>944</ele>
        <time>2022-08-29T08:40:43Z</time>
      </trkpt>
      <trkpt lat="47.90156" lon="6.89657">
        <ele>944.1</ele>
        <time>2022-08-29T08:40:44Z</time>
      </trkpt>
      <trkpt lat="47.90155" lon="6.89655">
        <ele>943.8</ele>
        <time>2022-08-29T08:40:45Z</time>
      </trkpt>
      <trkpt lat="47.90155" lon="6.89654">
        <ele>943.5</ele>
        <time>2022-08-29T08:40:46Z</time>
      </trkpt>
      <trkpt lat="47.90155" lon="6.89653">
        <ele>943.2</ele>
        <time>2022-08-29T08:40:47Z</time>
      </trkpt>
      <trkpt lat="47.90154" lon="6.89652">
        <ele>943.3</ele>
        <time>2022-08-29T08:40:48Z</time>
      </trkpt>
      <trkpt lat="47.90154" lon="6.89651">
        <ele>942.9</ele>
        <time>2022-08-29T08:40:49Z</time>
      </trkpt>
      <trkpt lat="47.90154" lon="6.8965">
        <ele>942.6</ele>
        <time>2022-08-29T08:40:50Z</time>
      </trkpt>
      <trkpt lat="47.90153" lon="6.89649">
        <ele>942.7</ele>
        <time>2022-08-29T08:40:51Z</time>
      </trkpt>
      <trkpt lat="47.90153" lon="6.89647">
        <ele>942</ele>
        <time>2022-08-29T08:40:52Z</time>
      </trkpt>
      <trkpt lat="47.90152" lon="6.89646">
        <ele>942.1</ele>
        <time>2022-08-29T08:40:53Z</time>
      </trkpt>
      <trkpt lat="47.90152" lon="6.89645">
        <ele>941.8</ele>
        <time>2022-08-29T08:40:54Z</time>
      </trkpt>
      <trkpt lat="47.90152" lon="6.89643">
        <ele>941.1</ele>
        <time>2022-08-29T08:40:55Z</time>
      </trkpt>
      <trkpt lat="47.90151" lon="6.89641">
        <ele>940.9</ele>
        <time>2022-08-29T08:40:56Z</time>
      </trkpt>
      <trkpt lat="47.90151" lon="6.8964">
        <ele>940.6</ele>
        <time>2022-08-29T08:40:57Z</time>
      </trkpt>
      <trkpt lat="47.90151" lon="6.89638">
        <ele>939.9</ele>
        <time>2022-08-29T08:40:58Z</time>
      </trkpt>
      <trkpt lat="47.9015" lon="6.89637">
        <ele>940</ele>
        <time>2022-08-29T08:40:59Z</time>
      </trkpt>
      <trkpt lat="47.9015" lon="6.89636">
        <ele>939.7</ele>
        <time>2022-08-29T08:41:00Z</time>
      </trkpt>
      <trkpt lat="47.90149" lon="6.89635">
        <ele>939.8</ele>
        <time>2022-08-29T08:41:02Z</time>
      </trkpt>
      <trkpt lat="47.90148" lon="6.89634">
        <ele>939.9</ele>
        <time>2022-08-29T08:41:03Z</time>
      </trkpt>
      <trkpt lat="47.90147" lon="6.89633">
        <ele>940</ele>
        <time>2022-08-29T08:41:05Z</time>
      </trkpt>
      <trkpt lat="47.90146" lon="6.89633">
        <ele>940.4</ele>
        <time>2022-08-29T08:41:06Z</time>
      </trkpt>
      <trkpt lat="47.90145" lon="6.89632">
        <ele>940.5</ele>
        <time>2022-08-29T08:41:07Z</time>
      </trkpt>
      <trkpt lat="47.90144" lon="6.89631">
        <ele>940.5</ele>
        <time>2022-08-29T08:41:08Z</time>
      </trkpt>
      <trkpt lat="47.90143" lon="6.89631">
        <ele>940.9</ele>
        <time>2022-08-29T08:41:09Z</time>
      </trkpt>
      <trkpt lat="47.90143" lon="6.8963">
        <ele>940.6</ele>
        <time>2022-08-29T08:41:10Z</time>
      </trkpt>
      <trkpt lat="47.90142" lon="6.8963">
        <ele>941</ele>
        <time>2022-08-29T08:41:11Z</time>
      </trkpt>
      <trkpt lat="47.90141" lon="6.89629">
        <ele>941</ele>
        <time>2022-08-29T08:41:12Z</time>
      </trkpt>
      <trkpt lat="47.9014" lon="6.89627">
        <ele>940.7</ele>
        <time>2022-08-29T08:41:13Z</time>
      </trkpt>
      <trkpt lat="47.90139" lon="6.89626">
        <ele>940.8</ele>
        <time>2022-08-29T08:41:14Z</time>
      </trkpt>
      <trkpt lat="47.90137" lon="6.89625">
        <ele>941.3</ele>
        <time>2022-08-29T08:41:15Z</time>
      </trkpt>
      <trkpt lat="47.90137" lon="6.89624">
        <ele>941</ele>
        <time>2022-08-29T08:41:16Z</time>
      </trkpt>
      <trkpt lat="47.90136" lon="6.89623">
        <ele>941</ele>
        <time>2022-08-29T08:41:17Z</time>
      </trkpt>
      <trkpt lat="47.90135" lon="6.89622">
        <ele>941.1</ele>
        <time>2022-08-29T08:41:18Z</time>
      </trkpt>
      <trkpt lat="47.90135" lon="6.89621">
        <ele>940.8</ele>
        <time>2022-08-29T08:41:19Z</time>
      </trkpt>
      <trkpt lat="47.90134" lon="6.8962">
        <ele>940.9</ele>
        <time>2022-08-29T08:41:20Z</time>
      </trkpt>
      <trkpt lat="47.90134" lon="6.89618">
        <ele>940.2</ele>
        <time>2022-08-29T08:41:21Z</time>
      </trkpt>
      <trkpt lat="47.90133" lon="6.89617">
        <ele>940.3</ele>
        <time>2022-08-29T08:41:22Z</time>
      </trkpt>
      <trkpt lat="47.90132" lon="6.89616">
        <ele>940.4</ele>
        <time>2022-08-29T08:41:23Z</time>
      </trkpt>
      <trkpt lat="47.90131" lon="6.89615">
        <ele>940.4</ele>
        <time>2022-08-29T08:41:24Z</time>
      </trkpt>
      <trkpt lat="47.90129" lon="6.89614">
        <ele>940.9</ele>
        <time>2022-08-29T08:41:25Z</time>
      </trkpt>
      <trkpt lat="47.90129" lon="6.89613">
        <ele>940.6</ele>
        <time>2022-08-29T08:41:26Z</time>
      </trkpt>
      <trkpt lat="47.90128" lon="6.89612">
        <ele>940.6</ele>
        <time>2022-08-29T08:41:27Z</time>
      </trkpt>
      <trkpt lat="47.90127" lon="6.89612">
        <ele>941</ele>
        <time>2022-08-29T08:41:28Z</time>
      </trkpt>
      <trkpt lat="47.90127" lon="6.89611">
        <ele>940.7</ele>
        <time>2022-08-29T08:41:29Z</time>
      </trkpt>
      <trkpt lat="47.90126" lon="6.8961">
        <ele>940.7</ele>
        <time>2022-08-29T08:41:30Z</time>
      </trkpt>
      <trkpt lat="47.90125" lon="6.8961">
        <ele>941.1</ele>
        <time>2022-08-29T08:41:31Z</time>
      </trkpt>
      <trkpt lat="47.90124" lon="6.89609">
        <ele>941.1</ele>
        <time>2022-08-29T08:41:32Z</time>
      </trkpt>
      <trkpt lat="47.90123" lon="6.89608">
        <ele>941.2</ele>
        <time>2022-08-29T08:41:33Z</time>
      </trkpt>
      <trkpt lat="47.90122" lon="6.89607">
        <ele>941.2</ele>
        <time>2022-08-29T08:41:34Z</time>
      </trkpt>
      <trkpt lat="47.90121" lon="6.89605">
        <ele>940.9</ele>
        <time>2022-08-29T08:41:35Z</time>
      </trkpt>
      <trkpt lat="47.9012" lon="6.89605">
        <ele>941.3</ele>
        <time>2022-08-29T08:41:36Z</time>
      </trkpt>
      <trkpt lat="47.90119" lon="6.89604">
        <ele>941.3</ele>
        <time>2022-08-29T08:41:37Z</time>
      </trkpt>
      <trkpt lat="47.90118" lon="6.89603">
        <ele>941.4</ele>
        <time>2022-08-29T08:41:38Z</time>
      </trkpt>
      <trkpt lat="47.90118" lon="6.89602">
        <ele>941</ele>
        <time>2022-08-29T08:41:39Z</time>
      </trkpt>
      <trkpt lat="47.90117" lon="6.89601">
        <ele>941</ele>
        <time>2022-08-29T08:41:40Z</time>
      </trkpt>
      <trkpt lat="47.90117" lon="6.896">
        <ele>940.7</ele>
        <time>2022-08-29T08:41:41Z</time>
      </trkpt>
      <trkpt lat="47.90116" lon="6.89599">
        <ele>940.7</ele>
        <time>2022-08-29T08:41:42Z</time>
      </trkpt>
      <trkpt lat="47.90115" lon="6.89598">
        <ele>940.7</ele>
        <time>2022-08-29T08:41:44Z</time>
      </trkpt>
      <trkpt lat="47.90114" lon="6.89597">
        <ele>940.8</ele>
        <time>2022-08-29T08:41:45Z</time>
      </trkpt>
      <trkpt lat="47.90113" lon="6.89596">
        <ele>940.8</ele>
        <time>2022-08-29T08:41:46Z</time>
      </trkpt>
      <trkpt lat="47.90112" lon="6.89594">
        <ele>940.5</ele>
        <time>2022-08-29T08:41:47Z</time>
      </trkpt>
      <trkpt lat="47.9011" lon="6.89593">
        <ele>940.9</ele>
        <time>2022-08-29T08:41:48Z</time>
      </trkpt>
      <trkpt lat="47.90109" lon="6.89591">
        <ele>940.6</ele>
        <time>2022-08-29T08:41:49Z</time>
      </trkpt>
      <trkpt lat="47.90108" lon="6.8959">
        <ele>940.6</ele>
        <time>2022-08-29T08:41:50Z</time>
      </trkpt>
      <trkpt lat="47.90107" lon="6.89588">
        <ele>940.3</ele>
        <time>2022-08-29T08:41:51Z</time>
      </trkpt>
      <trkpt lat="47.90106" lon="6.89588">
        <ele>940.7</ele>
        <time>2022-08-29T08:41:52Z</time>
      </trkpt>
      <trkpt lat="47.90105" lon="6.89587">
        <ele>940.7</ele>
        <time>2022-08-29T08:41:53Z</time>
      </trkpt>
      <trkpt lat="47.90105" lon="6.89586">
        <ele>940.4</ele>
        <time>2022-08-29T08:41:54Z</time>
      </trkpt>
      <trkpt lat="47.90104" lon="6.89585">
        <ele>940.4</ele>
        <time>2022-08-29T08:41:55Z</time>
      </trkpt>
      <trkpt lat="47.90103" lon="6.89585">
        <ele>940.8</ele>
        <time>2022-08-29T08:41:56Z</time>
      </trkpt>
      <trkpt lat="47.90103" lon="6.89584">
        <ele>940.4</ele>
        <time>2022-08-29T08:41:57Z</time>
      </trkpt>
      <trkpt lat="47.90102" lon="6.89583">
        <ele>940.5</ele>
        <time>2022-08-29T08:41:58Z</time>
      </trkpt>
      <trkpt lat="47.90101" lon="6.89581">
        <ele>940.1</ele>
        <time>2022-08-29T08:41:59Z</time>
      </trkpt>
      <trkpt lat="47.901" lon="6.8958">
        <ele>940.1</ele>
        <time>2022-08-29T08:42:00Z</time>
      </trkpt>
      <trkpt lat="47.901" lon="6.89579">
        <ele>939.7</ele>
        <time>2022-08-29T08:42:01Z</time>
      </trkpt>
      <trkpt lat="47.90099" lon="6.89578">
        <ele>939.8</ele>
        <time>2022-08-29T08:42:02Z</time>
      </trkpt>
      <trkpt lat="47.90099" lon="6.89577">
        <ele>939.4</ele>
        <time>2022-08-29T08:42:03Z</time>
      </trkpt>
      <trkpt lat="47.90098" lon="6.89575">
        <ele>939</ele>
        <time>2022-08-29T08:42:04Z</time>
      </trkpt>
      <trkpt lat="47.90097" lon="6.89574">
        <ele>939.1</ele>
        <time>2022-08-29T08:42:05Z</time>
      </trkpt>
      <trkpt lat="47.90097" lon="6.89573">
        <ele>938.7</ele>
        <time>2022-08-29T08:42:06Z</time>
      </trkpt>
      <trkpt lat="47.90096" lon="6.89571">
        <ele>938.3</ele>
        <time>2022-08-29T08:42:07Z</time>
      </trkpt>
      <trkpt lat="47.90095" lon="6.8957">
        <ele>938.4</ele>
        <time>2022-08-29T08:42:08Z</time>
      </trkpt>
      <trkpt lat="47.90094" lon="6.89568">
        <ele>938</ele>
        <time>2022-08-29T08:42:09Z</time>
      </trkpt>
      <trkpt lat="47.90094" lon="6.89567">
        <ele>937.7</ele>
        <time>2022-08-29T08:42:10Z</time>
      </trkpt>
      <trkpt lat="47.90093" lon="6.89565">
        <ele>937.3</ele>
        <time>2022-08-29T08:42:11Z</time>
      </trkpt>
      <trkpt lat="47.90093" lon="6.89564">
        <ele>937</ele>
        <time>2022-08-29T08:42:12Z</time>
      </trkpt>
      <trkpt lat="47.90092" lon="6.89563">
        <ele>937</ele>
        <time>2022-08-29T08:42:13Z</time>
      </trkpt>
      <trkpt lat="47.90092" lon="6.89562">
        <ele>936.6</ele>
        <time>2022-08-29T08:42:14Z</time>
      </trkpt>
      <trkpt lat="47.90091" lon="6.89561">
        <ele>936.7</ele>
        <time>2022-08-29T08:42:15Z</time>
      </trkpt>
      <trkpt lat="47.9009" lon="6.8956">
        <ele>936.8</ele>
        <time>2022-08-29T08:42:16Z</time>
      </trkpt>
      <trkpt lat="47.90089" lon="6.89559">
        <ele>936.8</ele>
        <time>2022-08-29T08:42:17Z</time>
      </trkpt>
      <trkpt lat="47.90089" lon="6.89558">
        <ele>936.4</ele>
        <time>2022-08-29T08:42:18Z</time>
      </trkpt>
      <trkpt lat="47.90088" lon="6.89557">
        <ele>936.5</ele>
        <time>2022-08-29T08:42:19Z</time>
      </trkpt>
      <trkpt lat="47.90087" lon="6.89556">
        <ele>936.6</ele>
        <time>2022-08-29T08:42:20Z</time>
      </trkpt>
      <trkpt lat="47.90086" lon="6.89554">
        <ele>936.4</ele>
        <time>2022-08-29T08:42:21Z</time>
      </trkpt>
      <trkpt lat="47.90084" lon="6.89552">
        <ele>936.7</ele>
        <time>2022-08-29T08:42:29Z</time>
      </trkpt>
      <trkpt lat="47.90084" lon="6.8955">
        <ele>936.1</ele>
        <time>2022-08-29T08:42:30Z</time>
      </trkpt>
      <trkpt lat="47.90083" lon="6.89548">
        <ele>936</ele>
        <time>2022-08-29T08:42:31Z</time>
      </trkpt>
      <trkpt lat="47.90082" lon="6.89547">
        <ele>936.1</ele>
        <time>2022-08-29T08:42:32Z</time>
      </trkpt>
      <trkpt lat="47.90082" lon="6.89546">
        <ele>935.8</ele>
        <time>2022-08-29T08:42:33Z</time>
      </trkpt>
      <trkpt lat="47.90081" lon="6.89545">
        <ele>935.9</ele>
        <time>2022-08-29T08:42:34Z</time>
      </trkpt>
      <trkpt lat="47.90081" lon="6.89544">
        <ele>935.6</ele>
        <time>2022-08-29T08:42:35Z</time>
      </trkpt>
      <trkpt lat="47.9008" lon="6.89543">
        <ele>935.7</ele>
        <time>2022-08-29T08:42:36Z</time>
      </trkpt>
      <trkpt lat="47.90079" lon="6.89542">
        <ele>935.8</ele>
        <time>2022-08-29T08:42:37Z</time>
      </trkpt>
      <trkpt lat="47.90079" lon="6.8954">
        <ele>935.2</ele>
        <time>2022-08-29T08:42:38Z</time>
      </trkpt>
      <trkpt lat="47.90078" lon="6.89539">
        <ele>935.3</ele>
        <time>2022-08-29T08:42:39Z</time>
      </trkpt>
      <trkpt lat="47.90077" lon="6.89538">
        <ele>935.5</ele>
        <time>2022-08-29T08:42:41Z</time>
      </trkpt>
      <trkpt lat="47.90076" lon="6.89537">
        <ele>935.6</ele>
        <time>2022-08-29T08:42:42Z</time>
      </trkpt>
      <trkpt lat="47.90075" lon="6.89536">
        <ele>935.7</ele>
        <time>2022-08-29T08:42:44Z</time>
      </trkpt>
      <trkpt lat="47.90074" lon="6.89535">
        <ele>935.8</ele>
        <time>2022-08-29T08:42:45Z</time>
      </trkpt>
      <trkpt lat="47.90072" lon="6.89534">
        <ele>936.3</ele>
        <time>2022-08-29T08:42:46Z</time>
      </trkpt>
      <trkpt lat="47.90071" lon="6.89533">
        <ele>936.4</ele>
        <time>2022-08-29T08:42:47Z</time>
      </trkpt>
      <trkpt lat="47.9007" lon="6.89531">
        <ele>936.2</ele>
        <time>2022-08-29T08:42:48Z</time>
      </trkpt>
      <trkpt lat="47.90069" lon="6.8953">
        <ele>936.3</ele>
        <time>2022-08-29T08:42:49Z</time>
      </trkpt>
      <trkpt lat="47.90068" lon="6.89528">
        <ele>936.1</ele>
        <time>2022-08-29T08:42:50Z</time>
      </trkpt>
      <trkpt lat="47.90068" lon="6.89527">
        <ele>935.8</ele>
        <time>2022-08-29T08:42:51Z</time>
      </trkpt>
      <trkpt lat="47.90067" lon="6.89526">
        <ele>936</ele>
        <time>2022-08-29T08:42:52Z</time>
      </trkpt>
      <trkpt lat="47.90066" lon="6.89525">
        <ele>936.1</ele>
        <time>2022-08-29T08:42:53Z</time>
      </trkpt>
      <trkpt lat="47.90065" lon="6.89523">
        <ele>935.9</ele>
        <time>2022-08-29T08:42:54Z</time>
      </trkpt>
      <trkpt lat="47.90065" lon="6.89522">
        <ele>935.6</ele>
        <time>2022-08-29T08:42:55Z</time>
      </trkpt>
      <trkpt lat="47.90064" lon="6.89521">
        <ele>935.7</ele>
        <time>2022-08-29T08:42:56Z</time>
      </trkpt>
      <trkpt lat="47.90063" lon="6.8952">
        <ele>935.8</ele>
        <time>2022-08-29T08:42:58Z</time>
      </trkpt>
      <trkpt lat="47.90063" lon="6.89519">
        <ele>935.5</ele>
        <time>2022-08-29T08:42:59Z</time>
      </trkpt>
      <trkpt lat="47.90062" lon="6.89519">
        <ele>935.9</ele>
        <time>2022-08-29T08:43:00Z</time>
      </trkpt>
      <trkpt lat="47.90062" lon="6.89518">
        <ele>935.6</ele>
        <time>2022-08-29T08:43:01Z</time>
      </trkpt>
      <trkpt lat="47.90061" lon="6.89517">
        <ele>935.7</ele>
        <time>2022-08-29T08:43:02Z</time>
      </trkpt>
      <trkpt lat="47.90061" lon="6.89516">
        <ele>935.5</ele>
        <time>2022-08-29T08:43:03Z</time>
      </trkpt>
      <trkpt lat="47.9006" lon="6.89515">
        <ele>935.6</ele>
        <time>2022-08-29T08:43:04Z</time>
      </trkpt>
      <trkpt lat="47.9006" lon="6.89514">
        <ele>935.3</ele>
        <time>2022-08-29T08:43:05Z</time>
      </trkpt>
      <trkpt lat="47.9006" lon="6.89513">
        <ele>935</ele>
        <time>2022-08-29T08:43:06Z</time>
      </trkpt>
      <trkpt lat="47.90059" lon="6.89512">
        <ele>935.1</ele>
        <time>2022-08-29T08:43:07Z</time>
      </trkpt>
      <trkpt lat="47.90059" lon="6.8951">
        <ele>934.5</ele>
        <time>2022-08-29T08:43:08Z</time>
      </trkpt>
      <trkpt lat="47.90058" lon="6.89509">
        <ele>934.6</ele>
        <time>2022-08-29T08:43:09Z</time>
      </trkpt>
      <trkpt lat="47.90057" lon="6.89508">
        <ele>934.7</ele>
        <time>2022-08-29T08:43:10Z</time>
      </trkpt>
      <trkpt lat="47.90056" lon="6.89507">
        <ele>934.8</ele>
        <time>2022-08-29T08:43:11Z</time>
      </trkpt>
      <trkpt lat="47.90056" lon="6.89506">
        <ele>934.6</ele>
        <time>2022-08-29T08:43:12Z</time>
      </trkpt>
      <trkpt lat="47.90055" lon="6.89505">
        <ele>934.6</ele>
        <time>2022-08-29T08:43:13Z</time>
      </trkpt>
      <trkpt lat="47.90054" lon="6.89504">
        <ele>934.7</ele>
        <time>2022-08-29T08:43:14Z</time>
      </trkpt>
      <trkpt lat="47.90053" lon="6.89502">
        <ele>934.5</ele>
        <time>2022-08-29T08:43:15Z</time>
      </trkpt>
      <trkpt lat="47.90052" lon="6.89501">
        <ele>934.6</ele>
        <time>2022-08-29T08:43:16Z</time>
      </trkpt>
      <trkpt lat="47.9005" lon="6.895">
        <ele>935</ele>
        <time>2022-08-29T08:43:17Z</time>
      </trkpt>
      <trkpt lat="47.90049" lon="6.89499">
        <ele>935.1</ele>
        <time>2022-08-29T08:43:18Z</time>
      </trkpt>
      <trkpt lat="47.90049" lon="6.89498">
        <ele>934.8</ele>
        <time>2022-08-29T08:43:19Z</time>
      </trkpt>
      <trkpt lat="47.90048" lon="6.89497">
        <ele>934.9</ele>
        <time>2022-08-29T08:43:20Z</time>
      </trkpt>
      <trkpt lat="47.90047" lon="6.89496">
        <ele>935</ele>
        <time>2022-08-29T08:43:21Z</time>
      </trkpt>
      <trkpt lat="47.90045" lon="6.89494">
        <ele>935.2</ele>
        <time>2022-08-29T08:43:22Z</time>
      </trkpt>
      <trkpt lat="47.90044" lon="6.89492">
        <ele>935</ele>
        <time>2022-08-29T08:43:23Z</time>
      </trkpt>
      <trkpt lat="47.90043" lon="6.8949">
        <ele>934.8</ele>
        <time>2022-08-29T08:43:24Z</time>
      </trkpt>
      <trkpt lat="47.90042" lon="6.89487">
        <ele>934.4</ele>
        <time>2022-08-29T08:43:25Z</time>
      </trkpt>
      <trkpt lat="47.90041" lon="6.89485">
        <ele>934.2</ele>
        <time>2022-08-29T08:43:26Z</time>
      </trkpt>
      <trkpt lat="47.9004" lon="6.89483">
        <ele>934</ele>
        <time>2022-08-29T08:43:27Z</time>
      </trkpt>
      <trkpt lat="47.90039" lon="6.89481">
        <ele>933.9</ele>
        <time>2022-08-29T08:43:28Z</time>
      </trkpt>
      <trkpt lat="47.90039" lon="6.8948">
        <ele>933.6</ele>
        <time>2022-08-29T08:43:29Z</time>
      </trkpt>
      <trkpt lat="47.90038" lon="6.89479">
        <ele>933.7</ele>
        <time>2022-08-29T08:43:30Z</time>
      </trkpt>
      <trkpt lat="47.90038" lon="6.89478">
        <ele>933.5</ele>
        <time>2022-08-29T08:43:31Z</time>
      </trkpt>
      <trkpt lat="47.90037" lon="6.89477">
        <ele>933.6</ele>
        <time>2022-08-29T08:43:32Z</time>
      </trkpt>
      <trkpt lat="47.90037" lon="6.89476">
        <ele>933.3</ele>
        <time>2022-08-29T08:43:33Z</time>
      </trkpt>
      <trkpt lat="47.90036" lon="6.89475">
        <ele>933.5</ele>
        <time>2022-08-29T08:43:34Z</time>
      </trkpt>
      <trkpt lat="47.90035" lon="6.89474">
        <ele>933.6</ele>
        <time>2022-08-29T08:43:35Z</time>
      </trkpt>
      <trkpt lat="47.90035" lon="6.89473">
        <ele>933.3</ele>
        <time>2022-08-29T08:43:36Z</time>
      </trkpt>
      <trkpt lat="47.90035" lon="6.89472">
        <ele>933.1</ele>
        <time>2022-08-29T08:43:37Z</time>
      </trkpt>
      <trkpt lat="47.90034" lon="6.89471">
        <ele>933.1</ele>
        <time>2022-08-29T08:43:38Z</time>
      </trkpt>
      <trkpt lat="47.90033" lon="6.8947">
        <ele>933.2</ele>
        <time>2022-08-29T08:43:39Z</time>
      </trkpt>
      <trkpt lat="47.90033" lon="6.89469">
        <ele>932.9</ele>
        <time>2022-08-29T08:43:40Z</time>
      </trkpt>
      <trkpt lat="47.90033" lon="6.89468">
        <ele>932.6</ele>
        <time>2022-08-29T08:43:41Z</time>
      </trkpt>
      <trkpt lat="47.90032" lon="6.89467">
        <ele>932.7</ele>
        <time>2022-08-29T08:43:42Z</time>
      </trkpt>
      <trkpt lat="47.90031" lon="6.89465">
        <ele>932.4</ele>
        <time>2022-08-29T08:43:43Z</time>
      </trkpt>
      <trkpt lat="47.90031" lon="6.89464">
        <ele>932.1</ele>
        <time>2022-08-29T08:43:44Z</time>
      </trkpt>
      <trkpt lat="47.9003" lon="6.89462">
        <ele>931.8</ele>
        <time>2022-08-29T08:43:45Z</time>
      </trkpt>
      <trkpt lat="47.90028" lon="6.89461">
        <ele>932.3</ele>
        <time>2022-08-29T08:43:46Z</time>
      </trkpt>
      <trkpt lat="47.90027" lon="6.8946">
        <ele>932.3</ele>
        <time>2022-08-29T08:43:47Z</time>
      </trkpt>
      <trkpt lat="47.90026" lon="6.89459">
        <ele>932.4</ele>
        <time>2022-08-29T08:43:48Z</time>
      </trkpt>
      <trkpt lat="47.90025" lon="6.89458">
        <ele>932.5</ele>
        <time>2022-08-29T08:43:49Z</time>
      </trkpt>
      <trkpt lat="47.90024" lon="6.89457">
        <ele>932.6</ele>
        <time>2022-08-29T08:43:50Z</time>
      </trkpt>
      <trkpt lat="47.90023" lon="6.89456">
        <ele>932.6</ele>
        <time>2022-08-29T08:43:51Z</time>
      </trkpt>
      <trkpt lat="47.90022" lon="6.89455">
        <ele>932.7</ele>
        <time>2022-08-29T08:43:52Z</time>
      </trkpt>
      <trkpt lat="47.90021" lon="6.89454">
        <ele>932.8</ele>
        <time>2022-08-29T08:43:53Z</time>
      </trkpt>
      <trkpt lat="47.9002" lon="6.89453">
        <ele>932.9</ele>
        <time>2022-08-29T08:43:55Z</time>
      </trkpt>
      <trkpt lat="47.9002" lon="6.89452">
        <ele>932.5</ele>
        <time>2022-08-29T08:43:56Z</time>
      </trkpt>
      <trkpt lat="47.90019" lon="6.89451">
        <ele>932.6</ele>
        <time>2022-08-29T08:43:57Z</time>
      </trkpt>
      <trkpt lat="47.90019" lon="6.8945">
        <ele>932.3</ele>
        <time>2022-08-29T08:43:58Z</time>
      </trkpt>
      <trkpt lat="47.90018" lon="6.89449">
        <ele>932.3</ele>
        <time>2022-08-29T08:43:59Z</time>
      </trkpt>
      <trkpt lat="47.90017" lon="6.89448">
        <ele>932.4</ele>
        <time>2022-08-29T08:44:00Z</time>
      </trkpt>
      <trkpt lat="47.90017" lon="6.89447">
        <ele>932.1</ele>
        <time>2022-08-29T08:44:01Z</time>
      </trkpt>
      <trkpt lat="47.90016" lon="6.89446">
        <ele>932.2</ele>
        <time>2022-08-29T08:44:02Z</time>
      </trkpt>
      <trkpt lat="47.90016" lon="6.89444">
        <ele>931.5</ele>
        <time>2022-08-29T08:44:03Z</time>
      </trkpt>
      <trkpt lat="47.90016" lon="6.89443">
        <ele>931.2</ele>
        <time>2022-08-29T08:44:04Z</time>
      </trkpt>
      <trkpt lat="47.90015" lon="6.89442">
        <ele>931.4</ele>
        <time>2022-08-29T08:44:05Z</time>
      </trkpt>
      <trkpt lat="47.90015" lon="6.89441">
        <ele>931.1</ele>
        <time>2022-08-29T08:44:06Z</time>
      </trkpt>
      <trkpt lat="47.90014" lon="6.8944">
        <ele>931.2</ele>
        <time>2022-08-29T08:44:07Z</time>
      </trkpt>
      <trkpt lat="47.90014" lon="6.89439">
        <ele>930.9</ele>
        <time>2022-08-29T08:44:08Z</time>
      </trkpt>
      <trkpt lat="47.90013" lon="6.89438">
        <ele>931</ele>
        <time>2022-08-29T08:44:09Z</time>
      </trkpt>
      <trkpt lat="47.90012" lon="6.89438">
        <ele>931.4</ele>
        <time>2022-08-29T08:44:10Z</time>
      </trkpt>
      <trkpt lat="47.90011" lon="6.89437">
        <ele>931.5</ele>
        <time>2022-08-29T08:44:11Z</time>
      </trkpt>
      <trkpt lat="47.90011" lon="6.89436">
        <ele>931.2</ele>
        <time>2022-08-29T08:44:12Z</time>
      </trkpt>
      <trkpt lat="47.9001" lon="6.89435">
        <ele>931.3</ele>
        <time>2022-08-29T08:44:13Z</time>
      </trkpt>
      <trkpt lat="47.90009" lon="6.89435">
        <ele>931.7</ele>
        <time>2022-08-29T08:44:14Z</time>
      </trkpt>
      <trkpt lat="47.90008" lon="6.89434">
        <ele>931.8</ele>
        <time>2022-08-29T08:44:15Z</time>
      </trkpt>
      <trkpt lat="47.90008" lon="6.89433">
        <ele>931.5</ele>
        <time>2022-08-29T08:44:16Z</time>
      </trkpt>
      <trkpt lat="47.90007" lon="6.89432">
        <ele>931.6</ele>
        <time>2022-08-29T08:44:17Z</time>
      </trkpt>
      <trkpt lat="47.90006" lon="6.89432">
        <ele>932</ele>
        <time>2022-08-29T08:44:18Z</time>
      </trkpt>
      <trkpt lat="47.90006" lon="6.89431">
        <ele>931.8</ele>
        <time>2022-08-29T08:44:19Z</time>
      </trkpt>
      <trkpt lat="47.90005" lon="6.8943">
        <ele>931.9</ele>
        <time>2022-08-29T08:44:20Z</time>
      </trkpt>
      <trkpt lat="47.90004" lon="6.8943">
        <ele>932.3</ele>
        <time>2022-08-29T08:44:21Z</time>
      </trkpt>
      <trkpt lat="47.90003" lon="6.89429">
        <ele>932.4</ele>
        <time>2022-08-29T08:44:22Z</time>
      </trkpt>
      <trkpt lat="47.90002" lon="6.89428">
        <ele>932.5</ele>
        <time>2022-08-29T08:44:23Z</time>
      </trkpt>
      <trkpt lat="47.90001" lon="6.89427">
        <ele>932.6</ele>
        <time>2022-08-29T08:44:24Z</time>
      </trkpt>
      <trkpt lat="47.9" lon="6.89426">
        <ele>932.7</ele>
        <time>2022-08-29T08:44:25Z</time>
      </trkpt>
      <trkpt lat="47.89999" lon="6.89425">
        <ele>932.8</ele>
        <time>2022-08-29T08:44:26Z</time>
      </trkpt>
      <trkpt lat="47.89999" lon="6.89424">
        <ele>932.5</ele>
        <time>2022-08-29T08:44:27Z</time>
      </trkpt>
      <trkpt lat="47.89998" lon="6.89423">
        <ele>932.6</ele>
        <time>2022-08-29T08:44:29Z</time>
      </trkpt>
      <trkpt lat="47.89998" lon="6.89422">
        <ele>932.3</ele>
        <time>2022-08-29T08:44:30Z</time>
      </trkpt>
      <trkpt lat="47.89997" lon="6.89421">
        <ele>932.4</ele>
        <time>2022-08-29T08:44:31Z</time>
      </trkpt>
      <trkpt lat="47.89997" lon="6.8942">
        <ele>932.1</ele>
        <time>2022-08-29T08:44:32Z</time>
      </trkpt>
      <trkpt lat="47.89996" lon="6.89418">
        <ele>932</ele>
        <time>2022-08-29T08:44:33Z</time>
      </trkpt>
      <trkpt lat="47.89995" lon="6.89417">
        <ele>932.1</ele>
        <time>2022-08-29T08:44:34Z</time>
      </trkpt>
      <trkpt lat="47.89994" lon="6.89416">
        <ele>932.2</ele>
        <time>2022-08-29T08:44:35Z</time>
      </trkpt>
      <trkpt lat="47.89994" lon="6.89415">
        <ele>931.9</ele>
        <time>2022-08-29T08:44:36Z</time>
      </trkpt>
      <trkpt lat="47.89993" lon="6.89415">
        <ele>932.3</ele>
        <time>2022-08-29T08:44:37Z</time>
      </trkpt>
      <trkpt lat="47.89992" lon="6.89413">
        <ele>932</ele>
        <time>2022-08-29T08:44:38Z</time>
      </trkpt>
      <trkpt lat="47.89991" lon="6.89412">
        <ele>932.1</ele>
        <time>2022-08-29T08:44:39Z</time>
      </trkpt>
      <trkpt lat="47.8999" lon="6.89411">
        <ele>932.2</ele>
        <time>2022-08-29T08:44:40Z</time>
      </trkpt>
      <trkpt lat="47.89989" lon="6.89409">
        <ele>931.9</ele>
        <time>2022-08-29T08:44:41Z</time>
      </trkpt>
      <trkpt lat="47.89989" lon="6.89407">
        <ele>931.3</ele>
        <time>2022-08-29T08:44:42Z</time>
      </trkpt>
      <trkpt lat="47.89988" lon="6.89406">
        <ele>931.3</ele>
        <time>2022-08-29T08:44:43Z</time>
      </trkpt>
      <trkpt lat="47.89988" lon="6.89404">
        <ele>930.7</ele>
        <time>2022-08-29T08:44:44Z</time>
      </trkpt>
      <trkpt lat="47.89987" lon="6.89402">
        <ele>930.4</ele>
        <time>2022-08-29T08:44:45Z</time>
      </trkpt>
      <trkpt lat="47.89987" lon="6.894">
        <ele>929.8</ele>
        <time>2022-08-29T08:44:46Z</time>
      </trkpt>
      <trkpt lat="47.89986" lon="6.89398">
        <ele>929.5</ele>
        <time>2022-08-29T08:44:47Z</time>
      </trkpt>
      <trkpt lat="47.89986" lon="6.89397">
        <ele>929.2</ele>
        <time>2022-08-29T08:44:49Z</time>
      </trkpt>
      <trkpt lat="47.89985" lon="6.89397">
        <ele>929.5</ele>
        <time>2022-08-29T08:44:50Z</time>
      </trkpt>
      <trkpt lat="47.89985" lon="6.89396">
        <ele>929.2</ele>
        <time>2022-08-29T08:44:51Z</time>
      </trkpt>
      <trkpt lat="47.89984" lon="6.89395">
        <ele>929.2</ele>
        <time>2022-08-29T08:44:52Z</time>
      </trkpt>
      <trkpt lat="47.89984" lon="6.89394">
        <ele>928.9</ele>
        <time>2022-08-29T08:44:53Z</time>
      </trkpt>
      <trkpt lat="47.89983" lon="6.89393">
        <ele>928.9</ele>
        <time>2022-08-29T08:44:54Z</time>
      </trkpt>
      <trkpt lat="47.89982" lon="6.89393">
        <ele>929.2</ele>
        <time>2022-08-29T08:44:55Z</time>
      </trkpt>
      <trkpt lat="47.89981" lon="6.89392">
        <ele>929.2</ele>
        <time>2022-08-29T08:44:56Z</time>
      </trkpt>
      <trkpt lat="47.8998" lon="6.89391">
        <ele>929.2</ele>
        <time>2022-08-29T08:44:57Z</time>
      </trkpt>
      <trkpt lat="47.89978" lon="6.8939">
        <ele>929.5</ele>
        <time>2022-08-29T08:44:58Z</time>
      </trkpt>
      <trkpt lat="47.89976" lon="6.89388">
        <ele>929.6</ele>
        <time>2022-08-29T08:45:04Z</time>
      </trkpt>
      <trkpt lat="47.89976" lon="6.89387">
        <ele>929.5</ele>
        <time>2022-08-29T08:45:05Z</time>
      </trkpt>
      <trkpt lat="47.89975" lon="6.89386">
        <ele>929.6</ele>
        <time>2022-08-29T08:45:06Z</time>
      </trkpt>
      <trkpt lat="47.89975" lon="6.89385">
        <ele>929.5</ele>
        <time>2022-08-29T08:45:07Z</time>
      </trkpt>
      <trkpt lat="47.89974" lon="6.89385">
        <ele>929.8</ele>
        <time>2022-08-29T08:45:08Z</time>
      </trkpt>
      <trkpt lat="47.89974" lon="6.89384">
        <ele>929.7</ele>
        <time>2022-08-29T08:45:09Z</time>
      </trkpt>
      <trkpt lat="47.89974" lon="6.89383">
        <ele>929.5</ele>
        <time>2022-08-29T08:45:10Z</time>
      </trkpt>
      <trkpt lat="47.89974" lon="6.89382">
        <ele>929.4</ele>
        <time>2022-08-29T08:45:11Z</time>
      </trkpt>
      <trkpt lat="47.89975" lon="6.89381">
        <ele>928.9</ele>
        <time>2022-08-29T08:45:12Z</time>
      </trkpt>
      <trkpt lat="47.89975" lon="6.8938">
        <ele>928.7</ele>
        <time>2022-08-29T08:45:13Z</time>
      </trkpt>
      <trkpt lat="47.89975" lon="6.89379">
        <ele>928.5</ele>
        <time>2022-08-29T08:45:14Z</time>
      </trkpt>
      <trkpt lat="47.89976" lon="6.89377">
        <ele>927.8</ele>
        <time>2022-08-29T08:45:15Z</time>
      </trkpt>
      <trkpt lat="47.89975" lon="6.89376">
        <ele>928.1</ele>
        <time>2022-08-29T08:45:16Z</time>
      </trkpt>
      <trkpt lat="47.89975" lon="6.89375">
        <ele>927.9</ele>
        <time>2022-08-29T08:45:17Z</time>
      </trkpt>
      <trkpt lat="47.89974" lon="6.89375">
        <ele>928.3</ele>
        <time>2022-08-29T08:45:18Z</time>
      </trkpt>
      <trkpt lat="47.89973" lon="6.89374">
        <ele>928.5</ele>
        <time>2022-08-29T08:45:19Z</time>
      </trkpt>
      <trkpt lat="47.89972" lon="6.89376">
        <ele>929.3</ele>
        <time>2022-08-29T08:46:01Z</time>
      </trkpt>
      <trkpt lat="47.89972" lon="6.89377">
        <ele>929.4</ele>
        <time>2022-08-29T08:46:03Z</time>
      </trkpt>
      <trkpt lat="47.89973" lon="6.89377">
        <ele>929</ele>
        <time>2022-08-29T08:46:06Z</time>
      </trkpt>
      <trkpt lat="47.89974" lon="6.89377">
        <ele>928.6</ele>
        <time>2022-08-29T08:46:09Z</time>
      </trkpt>
      <trkpt lat="47.89974" lon="6.89378">
        <ele>928.8</ele>
        <time>2022-08-29T08:46:10Z</time>
      </trkpt>
      <trkpt lat="47.89975" lon="6.89378">
        <ele>928.4</ele>
        <time>2022-08-29T08:46:11Z</time>
      </trkpt>
      <trkpt lat="47.89976" lon="6.89377">
        <ele>927.8</ele>
        <time>2022-08-29T08:46:13Z</time>
      </trkpt>
      <trkpt lat="47.89976" lon="6.89376">
        <ele>927.7</ele>
        <time>2022-08-29T08:46:15Z</time>
      </trkpt>
      <trkpt lat="47.89976" lon="6.89375">
        <ele>927.5</ele>
        <time>2022-08-29T08:46:16Z</time>
      </trkpt>
      <trkpt lat="47.89975" lon="6.89373">
        <ele>927.6</ele>
        <time>2022-08-29T08:46:17Z</time>
      </trkpt>
      <trkpt lat="47.89975" lon="6.89372">
        <ele>927.4</ele>
        <time>2022-08-29T08:46:18Z</time>
      </trkpt>
      <trkpt lat="47.89974" lon="6.8937">
        <ele>927.5</ele>
        <time>2022-08-29T08:46:19Z</time>
      </trkpt>
      <trkpt lat="47.89974" lon="6.89369">
        <ele>927.4</ele>
        <time>2022-08-29T08:46:20Z</time>
      </trkpt>
      <trkpt lat="47.89974" lon="6.89368">
        <ele>927.2</ele>
        <time>2022-08-29T08:46:21Z</time>
      </trkpt>
      <trkpt lat="47.89973" lon="6.89366">
        <ele>927.4</ele>
        <time>2022-08-29T08:46:22Z</time>
      </trkpt>
      <trkpt lat="47.89973" lon="6.89365">
        <ele>927.2</ele>
        <time>2022-08-29T08:46:23Z</time>
      </trkpt>
      <trkpt lat="47.89974" lon="6.89364">
        <ele>926.6</ele>
        <time>2022-08-29T08:46:24Z</time>
      </trkpt>
      <trkpt lat="47.89973" lon="6.89361">
        <ele>926.6</ele>
        <time>2022-08-29T08:46:34Z</time>
      </trkpt>
      <trkpt lat="47.89974" lon="6.89359">
        <ele>925.9</ele>
        <time>2022-08-29T08:46:35Z</time>
      </trkpt>
      <trkpt lat="47.89974" lon="6.89358">
        <ele>925.8</ele>
        <time>2022-08-29T08:46:36Z</time>
      </trkpt>
      <trkpt lat="47.89974" lon="6.89357">
        <ele>925.7</ele>
        <time>2022-08-29T08:46:37Z</time>
      </trkpt>
      <trkpt lat="47.89974" lon="6.89355">
        <ele>925.5</ele>
        <time>2022-08-29T08:46:38Z</time>
      </trkpt>
      <trkpt lat="47.89974" lon="6.89354">
        <ele>925.4</ele>
        <time>2022-08-29T08:46:39Z</time>
      </trkpt>
      <trkpt lat="47.89974" lon="6.89352">
        <ele>925.1</ele>
        <time>2022-08-29T08:46:40Z</time>
      </trkpt>
      <trkpt lat="47.89974" lon="6.8935">
        <ele>924.9</ele>
        <time>2022-08-29T08:46:41Z</time>
      </trkpt>
      <trkpt lat="47.89973" lon="6.89348">
        <ele>925.2</ele>
        <time>2022-08-29T08:46:42Z</time>
      </trkpt>
      <trkpt lat="47.89973" lon="6.89347">
        <ele>925.1</ele>
        <time>2022-08-29T08:46:43Z</time>
      </trkpt>
      <trkpt lat="47.89973" lon="6.89345">
        <ele>924.9</ele>
        <time>2022-08-29T08:46:44Z</time>
      </trkpt>
      <trkpt lat="47.89972" lon="6.89344">
        <ele>925.3</ele>
        <time>2022-08-29T08:46:45Z</time>
      </trkpt>
      <trkpt lat="47.89972" lon="6.89342">
        <ele>925</ele>
        <time>2022-08-29T08:46:46Z</time>
      </trkpt>
      <trkpt lat="47.89971" lon="6.89341">
        <ele>925.4</ele>
        <time>2022-08-29T08:46:47Z</time>
      </trkpt>
      <trkpt lat="47.89971" lon="6.89339">
        <ele>925.1</ele>
        <time>2022-08-29T08:46:48Z</time>
      </trkpt>
      <trkpt lat="47.8997" lon="6.89338">
        <ele>925.5</ele>
        <time>2022-08-29T08:46:49Z</time>
      </trkpt>
      <trkpt lat="47.89969" lon="6.89337">
        <ele>925.8</ele>
        <time>2022-08-29T08:46:50Z</time>
      </trkpt>
      <trkpt lat="47.89969" lon="6.89335">
        <ele>925.6</ele>
        <time>2022-08-29T08:46:51Z</time>
      </trkpt>
      <trkpt lat="47.89968" lon="6.89333">
        <ele>925.8</ele>
        <time>2022-08-29T08:46:52Z</time>
      </trkpt>
      <trkpt lat="47.89968" lon="6.89332">
        <ele>925.6</ele>
        <time>2022-08-29T08:46:53Z</time>
      </trkpt>
      <trkpt lat="47.89967" lon="6.8933">
        <ele>925.8</ele>
        <time>2022-08-29T08:46:54Z</time>
      </trkpt>
      <trkpt lat="47.89967" lon="6.89329">
        <ele>925.7</ele>
        <time>2022-08-29T08:46:55Z</time>
      </trkpt>
      <trkpt lat="47.89966" lon="6.89327">
        <ele>925.8</ele>
        <time>2022-08-29T08:46:56Z</time>
      </trkpt>
      <trkpt lat="47.89966" lon="6.89326">
        <ele>925.7</ele>
        <time>2022-08-29T08:46:57Z</time>
      </trkpt>
      <trkpt lat="47.89966" lon="6.89324">
        <ele>925.4</ele>
        <time>2022-08-29T08:46:58Z</time>
      </trkpt>
      <trkpt lat="47.89965" lon="6.89323">
        <ele>925.7</ele>
        <time>2022-08-29T08:46:59Z</time>
      </trkpt>
      <trkpt lat="47.89965" lon="6.89322">
        <ele>925.6</ele>
        <time>2022-08-29T08:47:00Z</time>
      </trkpt>
      <trkpt lat="47.89964" lon="6.8932">
        <ele>925.8</ele>
        <time>2022-08-29T08:47:01Z</time>
      </trkpt>
      <trkpt lat="47.89962" lon="6.89318">
        <ele>926.4</ele>
        <time>2022-08-29T08:47:02Z</time>
      </trkpt>
      <trkpt lat="47.89961" lon="6.89316">
        <ele>926.6</ele>
        <time>2022-08-29T08:47:03Z</time>
      </trkpt>
      <trkpt lat="47.8996" lon="6.89314">
        <ele>926.8</ele>
        <time>2022-08-29T08:47:04Z</time>
      </trkpt>
      <trkpt lat="47.89959" lon="6.89313">
        <ele>927.1</ele>
        <time>2022-08-29T08:47:05Z</time>
      </trkpt>
      <trkpt lat="47.89958" lon="6.89311">
        <ele>927.3</ele>
        <time>2022-08-29T08:47:06Z</time>
      </trkpt>
      <trkpt lat="47.89958" lon="6.8931">
        <ele>927.2</ele>
        <time>2022-08-29T08:47:07Z</time>
      </trkpt>
      <trkpt lat="47.89957" lon="6.89308">
        <ele>927.4</ele>
        <time>2022-08-29T08:47:08Z</time>
      </trkpt>
      <trkpt lat="47.89957" lon="6.89306">
        <ele>927.2</ele>
        <time>2022-08-29T08:47:09Z</time>
      </trkpt>
      <trkpt lat="47.89957" lon="6.89305">
        <ele>927</ele>
        <time>2022-08-29T08:47:10Z</time>
      </trkpt>
      <trkpt lat="47.89957" lon="6.89303">
        <ele>926.7</ele>
        <time>2022-08-29T08:47:11Z</time>
      </trkpt>
      <trkpt lat="47.89957" lon="6.89302">
        <ele>926.5</ele>
        <time>2022-08-29T08:47:12Z</time>
      </trkpt>
      <trkpt lat="47.89956" lon="6.89301">
        <ele>926.8</ele>
        <time>2022-08-29T08:47:13Z</time>
      </trkpt>
      <trkpt lat="47.89956" lon="6.89299">
        <ele>926.5</ele>
        <time>2022-08-29T08:47:14Z</time>
      </trkpt>
      <trkpt lat="47.89956" lon="6.89298">
        <ele>926.3</ele>
        <time>2022-08-29T08:47:15Z</time>
      </trkpt>
      <trkpt lat="47.89956" lon="6.89297">
        <ele>926.1</ele>
        <time>2022-08-29T08:47:16Z</time>
      </trkpt>
      <trkpt lat="47.89956" lon="6.89296">
        <ele>925.9</ele>
        <time>2022-08-29T08:47:17Z</time>
      </trkpt>
      <trkpt lat="47.89956" lon="6.89295">
        <ele>925.8</ele>
        <time>2022-08-29T08:47:18Z</time>
      </trkpt>
      <trkpt lat="47.89955" lon="6.89293">
        <ele>925.9</ele>
        <time>2022-08-29T08:47:19Z</time>
      </trkpt>
      <trkpt lat="47.89955" lon="6.89292">
        <ele>925.7</ele>
        <time>2022-08-29T08:47:20Z</time>
      </trkpt>
      <trkpt lat="47.89955" lon="6.89291">
        <ele>925.6</ele>
        <time>2022-08-29T08:47:21Z</time>
      </trkpt>
      <trkpt lat="47.89954" lon="6.8929">
        <ele>925.9</ele>
        <time>2022-08-29T08:47:22Z</time>
      </trkpt>
      <trkpt lat="47.89953" lon="6.89289">
        <ele>926.2</ele>
        <time>2022-08-29T08:47:23Z</time>
      </trkpt>
      <trkpt lat="47.89952" lon="6.89287">
        <ele>926.4</ele>
        <time>2022-08-29T08:47:24Z</time>
      </trkpt>
      <trkpt lat="47.89952" lon="6.89285">
        <ele>926.1</ele>
        <time>2022-08-29T08:47:25Z</time>
      </trkpt>
      <trkpt lat="47.89951" lon="6.89284">
        <ele>926.5</ele>
        <time>2022-08-29T08:47:26Z</time>
      </trkpt>
      <trkpt lat="47.89951" lon="6.89282">
        <ele>926.1</ele>
        <time>2022-08-29T08:47:27Z</time>
      </trkpt>
      <trkpt lat="47.89951" lon="6.8928">
        <ele>925.8</ele>
        <time>2022-08-29T08:47:28Z</time>
      </trkpt>
      <trkpt lat="47.89951" lon="6.89278">
        <ele>925.5</ele>
        <time>2022-08-29T08:47:29Z</time>
      </trkpt>
      <trkpt lat="47.89951" lon="6.89277">
        <ele>925.3</ele>
        <time>2022-08-29T08:47:30Z</time>
      </trkpt>
      <trkpt lat="47.89951" lon="6.89275">
        <ele>924.9</ele>
        <time>2022-08-29T08:47:31Z</time>
      </trkpt>
      <trkpt lat="47.89951" lon="6.89274">
        <ele>924.7</ele>
        <time>2022-08-29T08:47:32Z</time>
      </trkpt>
      <trkpt lat="47.89951" lon="6.89272">
        <ele>924.3</ele>
        <time>2022-08-29T08:47:33Z</time>
      </trkpt>
      <trkpt lat="47.8995" lon="6.8927">
        <ele>924.4</ele>
        <time>2022-08-29T08:47:34Z</time>
      </trkpt>
      <trkpt lat="47.8995" lon="6.89269">
        <ele>924.2</ele>
        <time>2022-08-29T08:47:35Z</time>
      </trkpt>
      <trkpt lat="47.89949" lon="6.89267">
        <ele>924.3</ele>
        <time>2022-08-29T08:47:36Z</time>
      </trkpt>
      <trkpt lat="47.89949" lon="6.89266">
        <ele>924.1</ele>
        <time>2022-08-29T08:47:37Z</time>
      </trkpt>
      <trkpt lat="47.89949" lon="6.89265">
        <ele>923.9</ele>
        <time>2022-08-29T08:47:38Z</time>
      </trkpt>
      <trkpt lat="47.89949" lon="6.89263">
        <ele>923.4</ele>
        <time>2022-08-29T08:47:39Z</time>
      </trkpt>
      <trkpt lat="47.89949" lon="6.89262">
        <ele>923.2</ele>
        <time>2022-08-29T08:47:40Z</time>
      </trkpt>
      <trkpt lat="47.89949" lon="6.89261">
        <ele>923</ele>
        <time>2022-08-29T08:47:41Z</time>
      </trkpt>
      <trkpt lat="47.89949" lon="6.8926">
        <ele>922.8</ele>
        <time>2022-08-29T08:47:42Z</time>
      </trkpt>
      <trkpt lat="47.89949" lon="6.89259">
        <ele>922.6</ele>
        <time>2022-08-29T08:47:43Z</time>
      </trkpt>
      <trkpt lat="47.89949" lon="6.89258">
        <ele>922.4</ele>
        <time>2022-08-29T08:47:44Z</time>
      </trkpt>
      <trkpt lat="47.89948" lon="6.89257">
        <ele>922.7</ele>
        <time>2022-08-29T08:47:45Z</time>
      </trkpt>
      <trkpt lat="47.89948" lon="6.89256">
        <ele>922.5</ele>
        <time>2022-08-29T08:47:46Z</time>
      </trkpt>
      <trkpt lat="47.89947" lon="6.89255">
        <ele>922.8</ele>
        <time>2022-08-29T08:47:47Z</time>
      </trkpt>
      <trkpt lat="47.89947" lon="6.89254">
        <ele>922.6</ele>
        <time>2022-08-29T08:47:49Z</time>
      </trkpt>
      <trkpt lat="47.89946" lon="6.89253">
        <ele>922.9</ele>
        <time>2022-08-29T08:47:50Z</time>
      </trkpt>
      <trkpt lat="47.89946" lon="6.89252">
        <ele>922.6</ele>
        <time>2022-08-29T08:47:51Z</time>
      </trkpt>
      <trkpt lat="47.89945" lon="6.89251">
        <ele>922.9</ele>
        <time>2022-08-29T08:47:52Z</time>
      </trkpt>
      <trkpt lat="47.89944" lon="6.8925">
        <ele>923.2</ele>
        <time>2022-08-29T08:47:53Z</time>
      </trkpt>
      <trkpt lat="47.89944" lon="6.89249">
        <ele>923</ele>
        <time>2022-08-29T08:47:54Z</time>
      </trkpt>
      <trkpt lat="47.89943" lon="6.89248">
        <ele>923.2</ele>
        <time>2022-08-29T08:47:55Z</time>
      </trkpt>
      <trkpt lat="47.89942" lon="6.89247">
        <ele>923.4</ele>
        <time>2022-08-29T08:47:56Z</time>
      </trkpt>
      <trkpt lat="47.89942" lon="6.89246">
        <ele>923.2</ele>
        <time>2022-08-29T08:47:57Z</time>
      </trkpt>
      <trkpt lat="47.89941" lon="6.89244">
        <ele>923.2</ele>
        <time>2022-08-29T08:47:58Z</time>
      </trkpt>
      <trkpt lat="47.8994" lon="6.89243">
        <ele>923.4</ele>
        <time>2022-08-29T08:47:59Z</time>
      </trkpt>
      <trkpt lat="47.89939" lon="6.89242">
        <ele>923.6</ele>
        <time>2022-08-29T08:48:00Z</time>
      </trkpt>
      <trkpt lat="47.89938" lon="6.89241">
        <ele>923.9</ele>
        <time>2022-08-29T08:48:01Z</time>
      </trkpt>
      <trkpt lat="47.89938" lon="6.89239">
        <ele>923.4</ele>
        <time>2022-08-29T08:48:02Z</time>
      </trkpt>
      <trkpt lat="47.89937" lon="6.89238">
        <ele>923.7</ele>
        <time>2022-08-29T08:48:03Z</time>
      </trkpt>
      <trkpt lat="47.89936" lon="6.89237">
        <ele>924</ele>
        <time>2022-08-29T08:48:04Z</time>
      </trkpt>
      <trkpt lat="47.89935" lon="6.89235">
        <ele>924</ele>
        <time>2022-08-29T08:48:05Z</time>
      </trkpt>
      <trkpt lat="47.89934" lon="6.89233">
        <ele>924.1</ele>
        <time>2022-08-29T08:48:06Z</time>
      </trkpt>
      <trkpt lat="47.89934" lon="6.89232">
        <ele>923.8</ele>
        <time>2022-08-29T08:48:07Z</time>
      </trkpt>
      <trkpt lat="47.89933" lon="6.8923">
        <ele>923.9</ele>
        <time>2022-08-29T08:48:08Z</time>
      </trkpt>
      <trkpt lat="47.89933" lon="6.89228">
        <ele>923.5</ele>
        <time>2022-08-29T08:48:09Z</time>
      </trkpt>
      <trkpt lat="47.89932" lon="6.89226">
        <ele>923.6</ele>
        <time>2022-08-29T08:48:10Z</time>
      </trkpt>
      <trkpt lat="47.89932" lon="6.89225">
        <ele>923.3</ele>
        <time>2022-08-29T08:48:11Z</time>
      </trkpt>
      <trkpt lat="47.89932" lon="6.89223">
        <ele>922.9</ele>
        <time>2022-08-29T08:48:12Z</time>
      </trkpt>
      <trkpt lat="47.89932" lon="6.89221">
        <ele>922.4</ele>
        <time>2022-08-29T08:48:13Z</time>
      </trkpt>
      <trkpt lat="47.89932" lon="6.8922">
        <ele>922.2</ele>
        <time>2022-08-29T08:48:14Z</time>
      </trkpt>
      <trkpt lat="47.89931" lon="6.89219">
        <ele>922.5</ele>
        <time>2022-08-29T08:48:15Z</time>
      </trkpt>
      <trkpt lat="47.89931" lon="6.89217">
        <ele>922</ele>
        <time>2022-08-29T08:48:16Z</time>
      </trkpt>
      <trkpt lat="47.89931" lon="6.89216">
        <ele>921.8</ele>
        <time>2022-08-29T08:48:17Z</time>
      </trkpt>
      <trkpt lat="47.89931" lon="6.89215">
        <ele>921.6</ele>
        <time>2022-08-29T08:48:19Z</time>
      </trkpt>
      <trkpt lat="47.8993" lon="6.89214">
        <ele>921.9</ele>
        <time>2022-08-29T08:48:20Z</time>
      </trkpt>
      <trkpt lat="47.8993" lon="6.89213">
        <ele>921.6</ele>
        <time>2022-08-29T08:48:21Z</time>
      </trkpt>
      <trkpt lat="47.8993" lon="6.89212">
        <ele>921.4</ele>
        <time>2022-08-29T08:48:22Z</time>
      </trkpt>
      <trkpt lat="47.89929" lon="6.8921">
        <ele>921.5</ele>
        <time>2022-08-29T08:48:23Z</time>
      </trkpt>
      <trkpt lat="47.89929" lon="6.89208">
        <ele>921</ele>
        <time>2022-08-29T08:48:24Z</time>
      </trkpt>
      <trkpt lat="47.89928" lon="6.89206">
        <ele>921.1</ele>
        <time>2022-08-29T08:48:25Z</time>
      </trkpt>
      <trkpt lat="47.89928" lon="6.89204">
        <ele>920.7</ele>
        <time>2022-08-29T08:48:26Z</time>
      </trkpt>
      <trkpt lat="47.89927" lon="6.89203">
        <ele>921</ele>
        <time>2022-08-29T08:48:27Z</time>
      </trkpt>
      <trkpt lat="47.89927" lon="6.89202">
        <ele>920.8</ele>
        <time>2022-08-29T08:48:28Z</time>
      </trkpt>
      <trkpt lat="47.89927" lon="6.89201">
        <ele>920.6</ele>
        <time>2022-08-29T08:48:29Z</time>
      </trkpt>
      <trkpt lat="47.89927" lon="6.892">
        <ele>920.3</ele>
        <time>2022-08-29T08:48:30Z</time>
      </trkpt>
      <trkpt lat="47.89927" lon="6.89199">
        <ele>920.1</ele>
        <time>2022-08-29T08:48:31Z</time>
      </trkpt>
      <trkpt lat="47.89926" lon="6.89198">
        <ele>920.4</ele>
        <time>2022-08-29T08:48:32Z</time>
      </trkpt>
      <trkpt lat="47.89925" lon="6.89196">
        <ele>920.6</ele>
        <time>2022-08-29T08:48:33Z</time>
      </trkpt>
      <trkpt lat="47.89925" lon="6.89194">
        <ele>920.1</ele>
        <time>2022-08-29T08:48:34Z</time>
      </trkpt>
      <trkpt lat="47.89924" lon="6.89192">
        <ele>920.3</ele>
        <time>2022-08-29T08:48:35Z</time>
      </trkpt>
      <trkpt lat="47.89924" lon="6.8919">
        <ele>920</ele>
        <time>2022-08-29T08:48:36Z</time>
      </trkpt>
      <trkpt lat="47.89924" lon="6.89188">
        <ele>919.6</ele>
        <time>2022-08-29T08:48:37Z</time>
      </trkpt>
      <trkpt lat="47.89923" lon="6.89186">
        <ele>919.8</ele>
        <time>2022-08-29T08:48:38Z</time>
      </trkpt>
      <trkpt lat="47.89923" lon="6.89184">
        <ele>919.5</ele>
        <time>2022-08-29T08:48:39Z</time>
      </trkpt>
      <trkpt lat="47.89922" lon="6.89182">
        <ele>919.7</ele>
        <time>2022-08-29T08:48:40Z</time>
      </trkpt>
      <trkpt lat="47.89922" lon="6.8918">
        <ele>919.3</ele>
        <time>2022-08-29T08:48:41Z</time>
      </trkpt>
      <trkpt lat="47.89921" lon="6.89178">
        <ele>919.5</ele>
        <time>2022-08-29T08:48:42Z</time>
      </trkpt>
      <trkpt lat="47.89921" lon="6.89176">
        <ele>919.2</ele>
        <time>2022-08-29T08:48:43Z</time>
      </trkpt>
      <trkpt lat="47.8992" lon="6.89174">
        <ele>919.4</ele>
        <time>2022-08-29T08:48:44Z</time>
      </trkpt>
      <trkpt lat="47.8992" lon="6.89173">
        <ele>919.2</ele>
        <time>2022-08-29T08:48:45Z</time>
      </trkpt>
      <trkpt lat="47.89919" lon="6.89171">
        <ele>919.4</ele>
        <time>2022-08-29T08:48:46Z</time>
      </trkpt>
      <trkpt lat="47.89919" lon="6.8917">
        <ele>919.3</ele>
        <time>2022-08-29T08:48:47Z</time>
      </trkpt>
      <trkpt lat="47.89919" lon="6.89169">
        <ele>919.1</ele>
        <time>2022-08-29T08:48:48Z</time>
      </trkpt>
      <trkpt lat="47.89919" lon="6.89168">
        <ele>918.9</ele>
        <time>2022-08-29T08:48:49Z</time>
      </trkpt>
      <trkpt lat="47.89919" lon="6.89167">
        <ele>918.7</ele>
        <time>2022-08-29T08:48:50Z</time>
      </trkpt>
      <trkpt lat="47.89919" lon="6.89165">
        <ele>918.4</ele>
        <time>2022-08-29T08:48:51Z</time>
      </trkpt>
      <trkpt lat="47.89919" lon="6.89163">
        <ele>918</ele>
        <time>2022-08-29T08:48:52Z</time>
      </trkpt>
      <trkpt lat="47.89919" lon="6.89162">
        <ele>917.8</ele>
        <time>2022-08-29T08:48:53Z</time>
      </trkpt>
      <trkpt lat="47.89919" lon="6.8916">
        <ele>917.5</ele>
        <time>2022-08-29T08:48:54Z</time>
      </trkpt>
      <trkpt lat="47.89919" lon="6.89159">
        <ele>917.3</ele>
        <time>2022-08-29T08:48:55Z</time>
      </trkpt>
      <trkpt lat="47.89919" lon="6.89158">
        <ele>917.1</ele>
        <time>2022-08-29T08:48:56Z</time>
      </trkpt>
      <trkpt lat="47.8992" lon="6.89157">
        <ele>916.3</ele>
        <time>2022-08-29T08:48:57Z</time>
      </trkpt>
      <trkpt lat="47.8992" lon="6.89156">
        <ele>916.2</ele>
        <time>2022-08-29T08:48:58Z</time>
      </trkpt>
      <trkpt lat="47.8992" lon="6.89155">
        <ele>916</ele>
        <time>2022-08-29T08:48:59Z</time>
      </trkpt>
      <trkpt lat="47.8992" lon="6.89154">
        <ele>915.8</ele>
        <time>2022-08-29T08:49:00Z</time>
      </trkpt>
      <trkpt lat="47.8992" lon="6.89153">
        <ele>915.6</ele>
        <time>2022-08-29T08:49:01Z</time>
      </trkpt>
      <trkpt lat="47.89919" lon="6.89152">
        <ele>916</ele>
        <time>2022-08-29T08:49:02Z</time>
      </trkpt>
      <trkpt lat="47.89919" lon="6.8915">
        <ele>915.7</ele>
        <time>2022-08-29T08:49:03Z</time>
      </trkpt>
      <trkpt lat="47.89919" lon="6.89149">
        <ele>915.5</ele>
        <time>2022-08-29T08:49:04Z</time>
      </trkpt>
      <trkpt lat="47.89918" lon="6.89148">
        <ele>915.9</ele>
        <time>2022-08-29T08:49:05Z</time>
      </trkpt>
      <trkpt lat="47.89918" lon="6.89147">
        <ele>915.7</ele>
        <time>2022-08-29T08:49:06Z</time>
      </trkpt>
      <trkpt lat="47.89918" lon="6.89146">
        <ele>915.5</ele>
        <time>2022-08-29T08:49:07Z</time>
      </trkpt>
      <trkpt lat="47.89918" lon="6.89144">
        <ele>915.2</ele>
        <time>2022-08-29T08:49:08Z</time>
      </trkpt>
      <trkpt lat="47.89918" lon="6.89143">
        <ele>915</ele>
        <time>2022-08-29T08:49:09Z</time>
      </trkpt>
      <trkpt lat="47.89918" lon="6.89142">
        <ele>914.8</ele>
        <time>2022-08-29T08:49:10Z</time>
      </trkpt>
      <trkpt lat="47.89918" lon="6.89141">
        <ele>914.6</ele>
        <time>2022-08-29T08:49:12Z</time>
      </trkpt>
      <trkpt lat="47.89918" lon="6.8914">
        <ele>914.4</ele>
        <time>2022-08-29T08:49:13Z</time>
      </trkpt>
      <trkpt lat="47.89917" lon="6.89139">
        <ele>914.8</ele>
        <time>2022-08-29T08:49:14Z</time>
      </trkpt>
      <trkpt lat="47.89917" lon="6.89138">
        <ele>914.6</ele>
        <time>2022-08-29T08:49:15Z</time>
      </trkpt>
      <trkpt lat="47.89916" lon="6.89137">
        <ele>914.8</ele>
        <time>2022-08-29T08:49:16Z</time>
      </trkpt>
      <trkpt lat="47.89915" lon="6.89136">
        <ele>915.1</ele>
        <time>2022-08-29T08:49:17Z</time>
      </trkpt>
      <trkpt lat="47.89915" lon="6.89135">
        <ele>914.8</ele>
        <time>2022-08-29T08:49:18Z</time>
      </trkpt>
      <trkpt lat="47.89914" lon="6.89134">
        <ele>915</ele>
        <time>2022-08-29T08:49:19Z</time>
      </trkpt>
      <trkpt lat="47.89914" lon="6.89132">
        <ele>914.5</ele>
        <time>2022-08-29T08:49:20Z</time>
      </trkpt>
      <trkpt lat="47.89913" lon="6.89131">
        <ele>914.7</ele>
        <time>2022-08-29T08:49:21Z</time>
      </trkpt>
      <trkpt lat="47.89912" lon="6.89129">
        <ele>914.7</ele>
        <time>2022-08-29T08:49:22Z</time>
      </trkpt>
      <trkpt lat="47.89911" lon="6.89128">
        <ele>915</ele>
        <time>2022-08-29T08:49:23Z</time>
      </trkpt>
      <trkpt lat="47.89911" lon="6.89126">
        <ele>914.4</ele>
        <time>2022-08-29T08:49:24Z</time>
      </trkpt>
      <trkpt lat="47.8991" lon="6.89124">
        <ele>914.4</ele>
        <time>2022-08-29T08:49:25Z</time>
      </trkpt>
      <trkpt lat="47.89909" lon="6.89123">
        <ele>914.7</ele>
        <time>2022-08-29T08:49:26Z</time>
      </trkpt>
      <trkpt lat="47.89909" lon="6.89121">
        <ele>914.2</ele>
        <time>2022-08-29T08:49:27Z</time>
      </trkpt>
      <trkpt lat="47.89908" lon="6.89119">
        <ele>914.2</ele>
        <time>2022-08-29T08:49:28Z</time>
      </trkpt>
      <trkpt lat="47.89908" lon="6.89118">
        <ele>913.9</ele>
        <time>2022-08-29T08:49:29Z</time>
      </trkpt>
      <trkpt lat="47.89908" lon="6.89117">
        <ele>913.6</ele>
        <time>2022-08-29T08:49:30Z</time>
      </trkpt>
      <trkpt lat="47.89907" lon="6.89115">
        <ele>913.6</ele>
        <time>2022-08-29T08:49:31Z</time>
      </trkpt>
      <trkpt lat="47.89907" lon="6.89113">
        <ele>913.1</ele>
        <time>2022-08-29T08:49:32Z</time>
      </trkpt>
      <trkpt lat="47.89906" lon="6.89112">
        <ele>913.4</ele>
        <time>2022-08-29T08:49:33Z</time>
      </trkpt>
      <trkpt lat="47.89906" lon="6.8911">
        <ele>912.8</ele>
        <time>2022-08-29T08:49:34Z</time>
      </trkpt>
      <trkpt lat="47.89905" lon="6.89109">
        <ele>913.1</ele>
        <time>2022-08-29T08:49:35Z</time>
      </trkpt>
      <trkpt lat="47.89905" lon="6.89107">
        <ele>912.6</ele>
        <time>2022-08-29T08:49:36Z</time>
      </trkpt>
      <trkpt lat="47.89904" lon="6.89106">
        <ele>912.9</ele>
        <time>2022-08-29T08:49:37Z</time>
      </trkpt>
      <trkpt lat="47.89903" lon="6.89104">
        <ele>912.9</ele>
        <time>2022-08-29T08:49:38Z</time>
      </trkpt>
      <trkpt lat="47.89903" lon="6.89102">
        <ele>912.4</ele>
        <time>2022-08-29T08:49:39Z</time>
      </trkpt>
      <trkpt lat="47.89902" lon="6.89101">
        <ele>912.7</ele>
        <time>2022-08-29T08:49:40Z</time>
      </trkpt>
      <trkpt lat="47.89901" lon="6.891">
        <ele>913</ele>
        <time>2022-08-29T08:49:41Z</time>
      </trkpt>
      <trkpt lat="47.89901" lon="6.89098">
        <ele>912.5</ele>
        <time>2022-08-29T08:49:42Z</time>
      </trkpt>
      <trkpt lat="47.899" lon="6.89097">
        <ele>912.8</ele>
        <time>2022-08-29T08:49:43Z</time>
      </trkpt>
      <trkpt lat="47.89899" lon="6.89095">
        <ele>912.9</ele>
        <time>2022-08-29T08:49:44Z</time>
      </trkpt>
      <trkpt lat="47.89898" lon="6.89094">
        <ele>913.2</ele>
        <time>2022-08-29T08:49:45Z</time>
      </trkpt>
      <trkpt lat="47.89897" lon="6.89092">
        <ele>913.3</ele>
        <time>2022-08-29T08:49:46Z</time>
      </trkpt>
      <trkpt lat="47.89897" lon="6.89091">
        <ele>913</ele>
        <time>2022-08-29T08:49:47Z</time>
      </trkpt>
      <trkpt lat="47.89896" lon="6.89089">
        <ele>913.1</ele>
        <time>2022-08-29T08:49:48Z</time>
      </trkpt>
      <trkpt lat="47.89896" lon="6.89088">
        <ele>912.9</ele>
        <time>2022-08-29T08:49:49Z</time>
      </trkpt>
      <trkpt lat="47.89895" lon="6.89087">
        <ele>913.2</ele>
        <time>2022-08-29T08:49:50Z</time>
      </trkpt>
      <trkpt lat="47.89895" lon="6.89085">
        <ele>912.7</ele>
        <time>2022-08-29T08:49:51Z</time>
      </trkpt>
      <trkpt lat="47.89895" lon="6.89083">
        <ele>912.2</ele>
        <time>2022-08-29T08:49:52Z</time>
      </trkpt>
      <trkpt lat="47.89895" lon="6.89082">
        <ele>911.9</ele>
        <time>2022-08-29T08:49:53Z</time>
      </trkpt>
      <trkpt lat="47.89896" lon="6.8908">
        <ele>910.8</ele>
        <time>2022-08-29T08:49:54Z</time>
      </trkpt>
      <trkpt lat="47.89896" lon="6.89079">
        <ele>910.6</ele>
        <time>2022-08-29T08:49:55Z</time>
      </trkpt>
      <trkpt lat="47.89896" lon="6.89077">
        <ele>910.1</ele>
        <time>2022-08-29T08:49:56Z</time>
      </trkpt>
      <trkpt lat="47.89896" lon="6.89076">
        <ele>909.9</ele>
        <time>2022-08-29T08:49:57Z</time>
      </trkpt>
      <trkpt lat="47.89896" lon="6.89075">
        <ele>909.6</ele>
        <time>2022-08-29T08:49:59Z</time>
      </trkpt>
      <trkpt lat="47.89896" lon="6.89074">
        <ele>909.4</ele>
        <time>2022-08-29T08:50:00Z</time>
      </trkpt>
      <trkpt lat="47.89896" lon="6.89073">
        <ele>909.1</ele>
        <time>2022-08-29T08:50:02Z</time>
      </trkpt>
      <trkpt lat="47.89895" lon="6.89073">
        <ele>909.7</ele>
        <time>2022-08-29T08:50:03Z</time>
      </trkpt>
      <trkpt lat="47.89895" lon="6.89072">
        <ele>909.5</ele>
        <time>2022-08-29T08:50:04Z</time>
      </trkpt>
      <trkpt lat="47.89895" lon="6.8907">
        <ele>909</ele>
        <time>2022-08-29T08:50:06Z</time>
      </trkpt>
      <trkpt lat="47.89894" lon="6.89068">
        <ele>909.1</ele>
        <time>2022-08-29T08:50:07Z</time>
      </trkpt>
      <trkpt lat="47.89893" lon="6.89065">
        <ele>909</ele>
        <time>2022-08-29T08:50:08Z</time>
      </trkpt>
      <trkpt lat="47.89892" lon="6.89062">
        <ele>908.8</ele>
        <time>2022-08-29T08:50:09Z</time>
      </trkpt>
      <trkpt lat="47.89891" lon="6.89059">
        <ele>908.6</ele>
        <time>2022-08-29T08:50:10Z</time>
      </trkpt>
      <trkpt lat="47.8989" lon="6.89056">
        <ele>908.5</ele>
        <time>2022-08-29T08:50:11Z</time>
      </trkpt>
      <trkpt lat="47.89889" lon="6.89054">
        <ele>908.5</ele>
        <time>2022-08-29T08:50:12Z</time>
      </trkpt>
      <trkpt lat="47.89888" lon="6.89052">
        <ele>908.3</ele>
        <time>2022-08-29T08:50:13Z</time>
      </trkpt>
      <trkpt lat="47.89887" lon="6.89051">
        <ele>908.5</ele>
        <time>2022-08-29T08:50:14Z</time>
      </trkpt>
      <trkpt lat="47.89886" lon="6.89049">
        <ele>908.3</ele>
        <time>2022-08-29T08:50:15Z</time>
      </trkpt>
      <trkpt lat="47.89885" lon="6.89049">
        <ele>908.7</ele>
        <time>2022-08-29T08:50:16Z</time>
      </trkpt>
      <trkpt lat="47.89884" lon="6.89048">
        <ele>908.9</ele>
        <time>2022-08-29T08:50:17Z</time>
      </trkpt>
      <trkpt lat="47.89884" lon="6.89047">
        <ele>908.6</ele>
        <time>2022-08-29T08:50:18Z</time>
      </trkpt>
      <trkpt lat="47.89883" lon="6.89046">
        <ele>908.7</ele>
        <time>2022-08-29T08:50:19Z</time>
      </trkpt>
      <trkpt lat="47.89882" lon="6.89044">
        <ele>908.6</ele>
        <time>2022-08-29T08:50:21Z</time>
      </trkpt>
      <trkpt lat="47.89882" lon="6.89043">
        <ele>908.3</ele>
        <time>2022-08-29T08:50:22Z</time>
      </trkpt>
      <trkpt lat="47.89881" lon="6.89042">
        <ele>908.5</ele>
        <time>2022-08-29T08:50:23Z</time>
      </trkpt>
      <trkpt lat="47.89881" lon="6.89041">
        <ele>908.2</ele>
        <time>2022-08-29T08:50:24Z</time>
      </trkpt>
      <trkpt lat="47.8988" lon="6.8904">
        <ele>908.4</ele>
        <time>2022-08-29T08:50:25Z</time>
      </trkpt>
      <trkpt lat="47.8988" lon="6.89038">
        <ele>907.9</ele>
        <time>2022-08-29T08:50:26Z</time>
      </trkpt>
      <trkpt lat="47.8988" lon="6.89037">
        <ele>907.6</ele>
        <time>2022-08-29T08:50:27Z</time>
      </trkpt>
      <trkpt lat="47.8988" lon="6.89036">
        <ele>907.3</ele>
        <time>2022-08-29T08:50:28Z</time>
      </trkpt>
      <trkpt lat="47.8988" lon="6.89035">
        <ele>907.1</ele>
        <time>2022-08-29T08:50:29Z</time>
      </trkpt>
      <trkpt lat="47.8988" lon="6.89034">
        <ele>906.8</ele>
        <time>2022-08-29T08:50:30Z</time>
      </trkpt>
      <trkpt lat="47.89879" lon="6.89033">
        <ele>907</ele>
        <time>2022-08-29T08:50:31Z</time>
      </trkpt>
      <trkpt lat="47.89879" lon="6.89032">
        <ele>906.7</ele>
        <time>2022-08-29T08:50:32Z</time>
      </trkpt>
      <trkpt lat="47.89879" lon="6.8903">
        <ele>906.2</ele>
        <time>2022-08-29T08:50:33Z</time>
      </trkpt>
      <trkpt lat="47.89878" lon="6.89029">
        <ele>906.4</ele>
        <time>2022-08-29T08:50:34Z</time>
      </trkpt>
      <trkpt lat="47.89878" lon="6.89027">
        <ele>905.9</ele>
        <time>2022-08-29T08:50:35Z</time>
      </trkpt>
      <trkpt lat="47.89878" lon="6.89025">
        <ele>905.6</ele>
        <time>2022-08-29T08:50:36Z</time>
      </trkpt>
      <trkpt lat="47.89877" lon="6.89024">
        <ele>905.9</ele>
        <time>2022-08-29T08:50:37Z</time>
      </trkpt>
      <trkpt lat="47.89877" lon="6.89023">
        <ele>905.7</ele>
        <time>2022-08-29T08:50:38Z</time>
      </trkpt>
      <trkpt lat="47.89877" lon="6.89021">
        <ele>905.3</ele>
        <time>2022-08-29T08:50:39Z</time>
      </trkpt>
      <trkpt lat="47.89877" lon="6.8902">
        <ele>905.1</ele>
        <time>2022-08-29T08:50:40Z</time>
      </trkpt>
      <trkpt lat="47.89877" lon="6.89019">
        <ele>904.9</ele>
        <time>2022-08-29T08:50:41Z</time>
      </trkpt>
      <trkpt lat="47.89876" lon="6.89017">
        <ele>905.1</ele>
        <time>2022-08-29T08:50:42Z</time>
      </trkpt>
      <trkpt lat="47.89876" lon="6.89016">
        <ele>904.9</ele>
        <time>2022-08-29T08:50:43Z</time>
      </trkpt>
      <trkpt lat="47.89876" lon="6.89015">
        <ele>904.7</ele>
        <time>2022-08-29T08:50:44Z</time>
      </trkpt>
      <trkpt lat="47.89875" lon="6.89014">
        <ele>905</ele>
        <time>2022-08-29T08:50:45Z</time>
      </trkpt>
      <trkpt lat="47.89875" lon="6.89012">
        <ele>904.7</ele>
        <time>2022-08-29T08:50:46Z</time>
      </trkpt>
      <trkpt lat="47.89875" lon="6.8901">
        <ele>904.3</ele>
        <time>2022-08-29T08:50:47Z</time>
      </trkpt>
      <trkpt lat="47.89874" lon="6.89009">
        <ele>904.6</ele>
        <time>2022-08-29T08:50:48Z</time>
      </trkpt>
      <trkpt lat="47.89874" lon="6.89007">
        <ele>904.3</ele>
        <time>2022-08-29T08:50:49Z</time>
      </trkpt>
      <trkpt lat="47.89874" lon="6.89006">
        <ele>904.1</ele>
        <time>2022-08-29T08:50:50Z</time>
      </trkpt>
      <trkpt lat="47.89874" lon="6.89004">
        <ele>903.7</ele>
        <time>2022-08-29T08:50:51Z</time>
      </trkpt>
      <trkpt lat="47.89874" lon="6.89003">
        <ele>903.6</ele>
        <time>2022-08-29T08:50:52Z</time>
      </trkpt>
      <trkpt lat="47.89873" lon="6.89002">
        <ele>903.9</ele>
        <time>2022-08-29T08:50:53Z</time>
      </trkpt>
      <trkpt lat="47.89873" lon="6.89">
        <ele>903.6</ele>
        <time>2022-08-29T08:50:54Z</time>
      </trkpt>
      <trkpt lat="47.89873" lon="6.88999">
        <ele>903.4</ele>
        <time>2022-08-29T08:50:55Z</time>
      </trkpt>
      <trkpt lat="47.89873" lon="6.88998">
        <ele>903.3</ele>
        <time>2022-08-29T08:50:56Z</time>
      </trkpt>
      <trkpt lat="47.89873" lon="6.88997">
        <ele>903.1</ele>
        <time>2022-08-29T08:50:57Z</time>
      </trkpt>
      <trkpt lat="47.89874" lon="6.88996">
        <ele>902.4</ele>
        <time>2022-08-29T08:50:58Z</time>
      </trkpt>
      <trkpt lat="47.89874" lon="6.88995">
        <ele>902.2</ele>
        <time>2022-08-29T08:50:59Z</time>
      </trkpt>
      <trkpt lat="47.89875" lon="6.88994">
        <ele>901.5</ele>
        <time>2022-08-29T08:51:00Z</time>
      </trkpt>
      <trkpt lat="47.89875" lon="6.88993">
        <ele>901.4</ele>
        <time>2022-08-29T08:51:01Z</time>
      </trkpt>
      <trkpt lat="47.89875" lon="6.88992">
        <ele>901.2</ele>
        <time>2022-08-29T08:51:03Z</time>
      </trkpt>
      <trkpt lat="47.89875" lon="6.88991">
        <ele>901</ele>
        <time>2022-08-29T08:51:04Z</time>
      </trkpt>
      <trkpt lat="47.89875" lon="6.8899">
        <ele>900.9</ele>
        <time>2022-08-29T08:51:06Z</time>
      </trkpt>
      <trkpt lat="47.89875" lon="6.88989">
        <ele>900.7</ele>
        <time>2022-08-29T08:51:07Z</time>
      </trkpt>
      <trkpt lat="47.89875" lon="6.88987">
        <ele>900.4</ele>
        <time>2022-08-29T08:51:08Z</time>
      </trkpt>
      <trkpt lat="47.89875" lon="6.88986">
        <ele>900.2</ele>
        <time>2022-08-29T08:51:09Z</time>
      </trkpt>
      <trkpt lat="47.89875" lon="6.88984">
        <ele>899.9</ele>
        <time>2022-08-29T08:51:10Z</time>
      </trkpt>
      <trkpt lat="47.89874" lon="6.88982">
        <ele>900.1</ele>
        <time>2022-08-29T08:51:11Z</time>
      </trkpt>
      <trkpt lat="47.89874" lon="6.88981">
        <ele>900</ele>
        <time>2022-08-29T08:51:12Z</time>
      </trkpt>
      <trkpt lat="47.89874" lon="6.88979">
        <ele>899.7</ele>
        <time>2022-08-29T08:51:13Z</time>
      </trkpt>
      <trkpt lat="47.89874" lon="6.88978">
        <ele>899.5</ele>
        <time>2022-08-29T08:51:14Z</time>
      </trkpt>
      <trkpt lat="47.89873" lon="6.88977">
        <ele>899.9</ele>
        <time>2022-08-29T08:51:15Z</time>
      </trkpt>
      <trkpt lat="47.89873" lon="6.88975">
        <ele>899.6</ele>
        <time>2022-08-29T08:51:16Z</time>
      </trkpt>
      <trkpt lat="47.89872" lon="6.88974">
        <ele>900</ele>
        <time>2022-08-29T08:51:17Z</time>
      </trkpt>
      <trkpt lat="47.89872" lon="6.88973">
        <ele>899.9</ele>
        <time>2022-08-29T08:51:18Z</time>
      </trkpt>
      <trkpt lat="47.89871" lon="6.88972">
        <ele>900.2</ele>
        <time>2022-08-29T08:51:19Z</time>
      </trkpt>
      <trkpt lat="47.8987" lon="6.88971">
        <ele>900.5</ele>
        <time>2022-08-29T08:51:20Z</time>
      </trkpt>
      <trkpt lat="47.8987" lon="6.8897">
        <ele>900.2</ele>
        <time>2022-08-29T08:51:21Z</time>
      </trkpt>
      <trkpt lat="47.89869" lon="6.88969">
        <ele>900.4</ele>
        <time>2022-08-29T08:51:22Z</time>
      </trkpt>
      <trkpt lat="47.89868" lon="6.88967">
        <ele>900.3</ele>
        <time>2022-08-29T08:51:23Z</time>
      </trkpt>
      <trkpt lat="47.89867" lon="6.88967">
        <ele>900.8</ele>
        <time>2022-08-29T08:51:24Z</time>
      </trkpt>
      <trkpt lat="47.89867" lon="6.88966">
        <ele>900.5</ele>
        <time>2022-08-29T08:51:25Z</time>
      </trkpt>
      <trkpt lat="47.89866" lon="6.88965">
        <ele>900.7</ele>
        <time>2022-08-29T08:51:26Z</time>
      </trkpt>
      <trkpt lat="47.89866" lon="6.88964">
        <ele>900.4</ele>
        <time>2022-08-29T08:51:27Z</time>
      </trkpt>
      <trkpt lat="47.89865" lon="6.88963">
        <ele>900.6</ele>
        <time>2022-08-29T08:51:28Z</time>
      </trkpt>
      <trkpt lat="47.89864" lon="6.88962">
        <ele>900.8</ele>
        <time>2022-08-29T08:51:29Z</time>
      </trkpt>
      <trkpt lat="47.89864" lon="6.88961">
        <ele>900.4</ele>
        <time>2022-08-29T08:51:30Z</time>
      </trkpt>
      <trkpt lat="47.89863" lon="6.8896">
        <ele>900.6</ele>
        <time>2022-08-29T08:51:31Z</time>
      </trkpt>
      <trkpt lat="47.89862" lon="6.88959">
        <ele>900.8</ele>
        <time>2022-08-29T08:51:32Z</time>
      </trkpt>
      <trkpt lat="47.89862" lon="6.88958">
        <ele>900.4</ele>
        <time>2022-08-29T08:51:33Z</time>
      </trkpt>
      <trkpt lat="47.89862" lon="6.88957">
        <ele>900.1</ele>
        <time>2022-08-29T08:51:34Z</time>
      </trkpt>
      <trkpt lat="47.89862" lon="6.88956">
        <ele>899.7</ele>
        <time>2022-08-29T08:51:35Z</time>
      </trkpt>
      <trkpt lat="47.89861" lon="6.88955">
        <ele>899.8</ele>
        <time>2022-08-29T08:51:36Z</time>
      </trkpt>
      <trkpt lat="47.89861" lon="6.88954">
        <ele>899.5</ele>
        <time>2022-08-29T08:51:37Z</time>
      </trkpt>
      <trkpt lat="47.89861" lon="6.88953">
        <ele>899.1</ele>
        <time>2022-08-29T08:51:38Z</time>
      </trkpt>
      <trkpt lat="47.89861" lon="6.88951">
        <ele>898.4</ele>
        <time>2022-08-29T08:51:39Z</time>
      </trkpt>
      <trkpt lat="47.8986" lon="6.8895">
        <ele>898.5</ele>
        <time>2022-08-29T08:51:40Z</time>
      </trkpt>
      <trkpt lat="47.8986" lon="6.88948">
        <ele>897.8</ele>
        <time>2022-08-29T08:51:41Z</time>
      </trkpt>
      <trkpt lat="47.89859" lon="6.88947">
        <ele>897.9</ele>
        <time>2022-08-29T08:51:42Z</time>
      </trkpt>
      <trkpt lat="47.89858" lon="6.88945">
        <ele>897.6</ele>
        <time>2022-08-29T08:51:43Z</time>
      </trkpt>
      <trkpt lat="47.89858" lon="6.88943">
        <ele>897</ele>
        <time>2022-08-29T08:51:44Z</time>
      </trkpt>
      <trkpt lat="47.89857" lon="6.88942">
        <ele>897.2</ele>
        <time>2022-08-29T08:51:45Z</time>
      </trkpt>
      <trkpt lat="47.89856" lon="6.8894">
        <ele>897.1</ele>
        <time>2022-08-29T08:51:46Z</time>
      </trkpt>
      <trkpt lat="47.89856" lon="6.88939">
        <ele>896.9</ele>
        <time>2022-08-29T08:51:47Z</time>
      </trkpt>
      <trkpt lat="47.89855" lon="6.88937">
        <ele>896.8</ele>
        <time>2022-08-29T08:51:48Z</time>
      </trkpt>
      <trkpt lat="47.89854" lon="6.88935">
        <ele>896.7</ele>
        <time>2022-08-29T08:51:49Z</time>
      </trkpt>
      <trkpt lat="47.89852" lon="6.88933">
        <ele>897.1</ele>
        <time>2022-08-29T08:51:50Z</time>
      </trkpt>
      <trkpt lat="47.89851" lon="6.88931">
        <ele>897</ele>
        <time>2022-08-29T08:51:51Z</time>
      </trkpt>
      <trkpt lat="47.8985" lon="6.88927">
        <ele>896.4</ele>
        <time>2022-08-29T08:51:57Z</time>
      </trkpt>
      <trkpt lat="47.8985" lon="6.88925">
        <ele>895.9</ele>
        <time>2022-08-29T08:51:58Z</time>
      </trkpt>
      <trkpt lat="47.8985" lon="6.88924">
        <ele>895.6</ele>
        <time>2022-08-29T08:51:59Z</time>
      </trkpt>
      <trkpt lat="47.89849" lon="6.88923">
        <ele>895.8</ele>
        <time>2022-08-29T08:52:00Z</time>
      </trkpt>
      <trkpt lat="47.89849" lon="6.88921">
        <ele>895.3</ele>
        <time>2022-08-29T08:52:01Z</time>
      </trkpt>
      <trkpt lat="47.89848" lon="6.8892">
        <ele>895.5</ele>
        <time>2022-08-29T08:52:02Z</time>
      </trkpt>
      <trkpt lat="47.89848" lon="6.88918">
        <ele>895</ele>
        <time>2022-08-29T08:52:03Z</time>
      </trkpt>
      <trkpt lat="47.89847" lon="6.88917">
        <ele>895.2</ele>
        <time>2022-08-29T08:52:04Z</time>
      </trkpt>
      <trkpt lat="47.89846" lon="6.88915">
        <ele>895.3</ele>
        <time>2022-08-29T08:52:05Z</time>
      </trkpt>
      <trkpt lat="47.89846" lon="6.88914">
        <ele>895</ele>
        <time>2022-08-29T08:52:06Z</time>
      </trkpt>
      <trkpt lat="47.89846" lon="6.88912">
        <ele>894.6</ele>
        <time>2022-08-29T08:52:07Z</time>
      </trkpt>
      <trkpt lat="47.89846" lon="6.88911">
        <ele>894.4</ele>
        <time>2022-08-29T08:52:08Z</time>
      </trkpt>
      <trkpt lat="47.89846" lon="6.8891">
        <ele>894.2</ele>
        <time>2022-08-29T08:52:09Z</time>
      </trkpt>
      <trkpt lat="47.89846" lon="6.88909">
        <ele>893.9</ele>
        <time>2022-08-29T08:52:10Z</time>
      </trkpt>
      <trkpt lat="47.89846" lon="6.88908">
        <ele>893.7</ele>
        <time>2022-08-29T08:52:11Z</time>
      </trkpt>
      <trkpt lat="47.89845" lon="6.88907">
        <ele>894</ele>
        <time>2022-08-29T08:52:12Z</time>
      </trkpt>
      <trkpt lat="47.89845" lon="6.88906">
        <ele>893.8</ele>
        <time>2022-08-29T08:52:13Z</time>
      </trkpt>
      <trkpt lat="47.89844" lon="6.88904">
        <ele>893.8</ele>
        <time>2022-08-29T08:52:14Z</time>
      </trkpt>
      <trkpt lat="47.89844" lon="6.88903">
        <ele>893.6</ele>
        <time>2022-08-29T08:52:15Z</time>
      </trkpt>
      <trkpt lat="47.89843" lon="6.88902">
        <ele>893.8</ele>
        <time>2022-08-29T08:52:16Z</time>
      </trkpt>
      <trkpt lat="47.89842" lon="6.889">
        <ele>893.8</ele>
        <time>2022-08-29T08:52:17Z</time>
      </trkpt>
      <trkpt lat="47.89842" lon="6.88899">
        <ele>893.6</ele>
        <time>2022-08-29T08:52:18Z</time>
      </trkpt>
      <trkpt lat="47.89841" lon="6.88897">
        <ele>893.6</ele>
        <time>2022-08-29T08:52:19Z</time>
      </trkpt>
      <trkpt lat="47.89841" lon="6.88896">
        <ele>893.3</ele>
        <time>2022-08-29T08:52:20Z</time>
      </trkpt>
      <trkpt lat="47.89841" lon="6.88895">
        <ele>893.1</ele>
        <time>2022-08-29T08:52:21Z</time>
      </trkpt>
      <trkpt lat="47.8984" lon="6.88894">
        <ele>893.3</ele>
        <time>2022-08-29T08:52:22Z</time>
      </trkpt>
      <trkpt lat="47.8984" lon="6.88893">
        <ele>893.1</ele>
        <time>2022-08-29T08:52:23Z</time>
      </trkpt>
      <trkpt lat="47.89839" lon="6.88892">
        <ele>893.3</ele>
        <time>2022-08-29T08:52:24Z</time>
      </trkpt>
      <trkpt lat="47.89839" lon="6.88891">
        <ele>893.1</ele>
        <time>2022-08-29T08:52:26Z</time>
      </trkpt>
      <trkpt lat="47.89838" lon="6.8889">
        <ele>893.3</ele>
        <time>2022-08-29T08:52:28Z</time>
      </trkpt>
      <trkpt lat="47.89838" lon="6.88889">
        <ele>893</ele>
        <time>2022-08-29T08:52:29Z</time>
      </trkpt>
      <trkpt lat="47.89837" lon="6.88888">
        <ele>893.2</ele>
        <time>2022-08-29T08:52:30Z</time>
      </trkpt>
      <trkpt lat="47.89837" lon="6.88887">
        <ele>893</ele>
        <time>2022-08-29T08:52:31Z</time>
      </trkpt>
      <trkpt lat="47.89837" lon="6.88886">
        <ele>892.9</ele>
        <time>2022-08-29T08:52:32Z</time>
      </trkpt>
      <trkpt lat="47.89836" lon="6.88884">
        <ele>892.9</ele>
        <time>2022-08-29T08:52:33Z</time>
      </trkpt>
      <trkpt lat="47.89836" lon="6.88883">
        <ele>892.7</ele>
        <time>2022-08-29T08:52:34Z</time>
      </trkpt>
      <trkpt lat="47.89835" lon="6.88881">
        <ele>892.8</ele>
        <time>2022-08-29T08:52:35Z</time>
      </trkpt>
      <trkpt lat="47.89835" lon="6.8888">
        <ele>892.6</ele>
        <time>2022-08-29T08:52:36Z</time>
      </trkpt>
      <trkpt lat="47.89834" lon="6.88878">
        <ele>892.7</ele>
        <time>2022-08-29T08:52:37Z</time>
      </trkpt>
      <trkpt lat="47.89834" lon="6.88877">
        <ele>892.5</ele>
        <time>2022-08-29T08:52:38Z</time>
      </trkpt>
      <trkpt lat="47.89833" lon="6.88875">
        <ele>892.6</ele>
        <time>2022-08-29T08:52:39Z</time>
      </trkpt>
      <trkpt lat="47.89833" lon="6.88873">
        <ele>892.3</ele>
        <time>2022-08-29T08:52:40Z</time>
      </trkpt>
      <trkpt lat="47.89833" lon="6.88871">
        <ele>891.9</ele>
        <time>2022-08-29T08:52:41Z</time>
      </trkpt>
      <trkpt lat="47.89833" lon="6.8887">
        <ele>891.7</ele>
        <time>2022-08-29T08:52:42Z</time>
      </trkpt>
      <trkpt lat="47.89833" lon="6.88868">
        <ele>891.4</ele>
        <time>2022-08-29T08:52:43Z</time>
      </trkpt>
      <trkpt lat="47.89833" lon="6.88866">
        <ele>891</ele>
        <time>2022-08-29T08:52:44Z</time>
      </trkpt>
      <trkpt lat="47.89832" lon="6.88864">
        <ele>891.1</ele>
        <time>2022-08-29T08:52:45Z</time>
      </trkpt>
      <trkpt lat="47.89832" lon="6.88862">
        <ele>890.7</ele>
        <time>2022-08-29T08:52:46Z</time>
      </trkpt>
      <trkpt lat="47.89831" lon="6.88861">
        <ele>890.9</ele>
        <time>2022-08-29T08:52:47Z</time>
      </trkpt>
      <trkpt lat="47.8983" lon="6.88859">
        <ele>890.7</ele>
        <time>2022-08-29T08:52:48Z</time>
      </trkpt>
      <trkpt lat="47.89829" lon="6.88858">
        <ele>890.7</ele>
        <time>2022-08-29T08:52:49Z</time>
      </trkpt>
      <trkpt lat="47.89828" lon="6.88857">
        <ele>890.8</ele>
        <time>2022-08-29T08:52:50Z</time>
      </trkpt>
      <trkpt lat="47.89827" lon="6.88856">
        <ele>890.9</ele>
        <time>2022-08-29T08:52:51Z</time>
      </trkpt>
      <trkpt lat="47.89826" lon="6.88855">
        <ele>891</ele>
        <time>2022-08-29T08:52:52Z</time>
      </trkpt>
      <trkpt lat="47.89825" lon="6.88853">
        <ele>890.8</ele>
        <time>2022-08-29T08:52:53Z</time>
      </trkpt>
      <trkpt lat="47.89824" lon="6.88852">
        <ele>891</ele>
        <time>2022-08-29T08:52:54Z</time>
      </trkpt>
      <trkpt lat="47.89823" lon="6.88851">
        <ele>891.1</ele>
        <time>2022-08-29T08:52:55Z</time>
      </trkpt>
      <trkpt lat="47.89822" lon="6.88849">
        <ele>890.9</ele>
        <time>2022-08-29T08:52:56Z</time>
      </trkpt>
      <trkpt lat="47.89821" lon="6.88848">
        <ele>891.1</ele>
        <time>2022-08-29T08:52:57Z</time>
      </trkpt>
      <trkpt lat="47.89821" lon="6.88847">
        <ele>890.8</ele>
        <time>2022-08-29T08:52:58Z</time>
      </trkpt>
      <trkpt lat="47.89821" lon="6.88846">
        <ele>890.5</ele>
        <time>2022-08-29T08:52:59Z</time>
      </trkpt>
      <trkpt lat="47.8982" lon="6.88845">
        <ele>890.6</ele>
        <time>2022-08-29T08:53:00Z</time>
      </trkpt>
      <trkpt lat="47.8982" lon="6.88844">
        <ele>890.3</ele>
        <time>2022-08-29T08:53:01Z</time>
      </trkpt>
      <trkpt lat="47.89821" lon="6.88843">
        <ele>889.6</ele>
        <time>2022-08-29T08:53:02Z</time>
      </trkpt>
      <trkpt lat="47.89821" lon="6.88842">
        <ele>889.3</ele>
        <time>2022-08-29T08:53:03Z</time>
      </trkpt>
      <trkpt lat="47.8982" lon="6.8884">
        <ele>889.2</ele>
        <time>2022-08-29T08:53:04Z</time>
      </trkpt>
      <trkpt lat="47.8982" lon="6.88839">
        <ele>888.9</ele>
        <time>2022-08-29T08:53:05Z</time>
      </trkpt>
      <trkpt lat="47.8982" lon="6.88837">
        <ele>888.3</ele>
        <time>2022-08-29T08:53:06Z</time>
      </trkpt>
      <trkpt lat="47.8982" lon="6.88836">
        <ele>888</ele>
        <time>2022-08-29T08:53:07Z</time>
      </trkpt>
      <trkpt lat="47.8982" lon="6.88835">
        <ele>887.7</ele>
        <time>2022-08-29T08:53:08Z</time>
      </trkpt>
      <trkpt lat="47.8982" lon="6.88833">
        <ele>887.1</ele>
        <time>2022-08-29T08:53:09Z</time>
      </trkpt>
      <trkpt lat="47.89819" lon="6.88833">
        <ele>887.6</ele>
        <time>2022-08-29T08:53:10Z</time>
      </trkpt>
      <trkpt lat="47.89819" lon="6.88832">
        <ele>887.3</ele>
        <time>2022-08-29T08:53:11Z</time>
      </trkpt>
      <trkpt lat="47.89819" lon="6.88831">
        <ele>887</ele>
        <time>2022-08-29T08:53:12Z</time>
      </trkpt>
      <trkpt lat="47.89819" lon="6.8883">
        <ele>886.8</ele>
        <time>2022-08-29T08:53:13Z</time>
      </trkpt>
      <trkpt lat="47.89818" lon="6.88828">
        <ele>886.7</ele>
        <time>2022-08-29T08:53:14Z</time>
      </trkpt>
      <trkpt lat="47.89818" lon="6.88827">
        <ele>886.4</ele>
        <time>2022-08-29T08:53:15Z</time>
      </trkpt>
      <trkpt lat="47.89817" lon="6.88825">
        <ele>886.3</ele>
        <time>2022-08-29T08:53:16Z</time>
      </trkpt>
      <trkpt lat="47.89816" lon="6.88824">
        <ele>886.5</ele>
        <time>2022-08-29T08:53:17Z</time>
      </trkpt>
      <trkpt lat="47.89816" lon="6.88823">
        <ele>886.2</ele>
        <time>2022-08-29T08:53:18Z</time>
      </trkpt>
      <trkpt lat="47.89815" lon="6.88822">
        <ele>886.4</ele>
        <time>2022-08-29T08:53:19Z</time>
      </trkpt>
      <trkpt lat="47.89815" lon="6.88821">
        <ele>886.2</ele>
        <time>2022-08-29T08:53:20Z</time>
      </trkpt>
      <trkpt lat="47.89814" lon="6.8882">
        <ele>886.4</ele>
        <time>2022-08-29T08:53:21Z</time>
      </trkpt>
      <trkpt lat="47.89814" lon="6.88819">
        <ele>886.1</ele>
        <time>2022-08-29T08:53:22Z</time>
      </trkpt>
      <trkpt lat="47.89813" lon="6.88817">
        <ele>886.1</ele>
        <time>2022-08-29T08:53:23Z</time>
      </trkpt>
      <trkpt lat="47.89813" lon="6.88816">
        <ele>885.8</ele>
        <time>2022-08-29T08:53:24Z</time>
      </trkpt>
      <trkpt lat="47.89812" lon="6.88815">
        <ele>886.1</ele>
        <time>2022-08-29T08:53:25Z</time>
      </trkpt>
      <trkpt lat="47.89812" lon="6.88814">
        <ele>885.8</ele>
        <time>2022-08-29T08:53:26Z</time>
      </trkpt>
      <trkpt lat="47.89811" lon="6.88812">
        <ele>885.8</ele>
        <time>2022-08-29T08:53:27Z</time>
      </trkpt>
      <trkpt lat="47.8981" lon="6.8881">
        <ele>885.8</ele>
        <time>2022-08-29T08:53:28Z</time>
      </trkpt>
      <trkpt lat="47.89809" lon="6.88809">
        <ele>886</ele>
        <time>2022-08-29T08:53:29Z</time>
      </trkpt>
      <trkpt lat="47.89809" lon="6.88807">
        <ele>885.5</ele>
        <time>2022-08-29T08:53:30Z</time>
      </trkpt>
      <trkpt lat="47.89808" lon="6.88805">
        <ele>885.6</ele>
        <time>2022-08-29T08:53:31Z</time>
      </trkpt>
      <trkpt lat="47.89808" lon="6.88804">
        <ele>885.5</ele>
        <time>2022-08-29T08:53:32Z</time>
      </trkpt>
      <trkpt lat="47.89808" lon="6.88803">
        <ele>885.3</ele>
        <time>2022-08-29T08:53:33Z</time>
      </trkpt>
      <trkpt lat="47.89808" lon="6.88802">
        <ele>885.2</ele>
        <time>2022-08-29T08:53:34Z</time>
      </trkpt>
      <trkpt lat="47.89808" lon="6.888">
        <ele>884.9</ele>
        <time>2022-08-29T08:53:35Z</time>
      </trkpt>
      <trkpt lat="47.89807" lon="6.88799">
        <ele>885.3</ele>
        <time>2022-08-29T08:53:36Z</time>
      </trkpt>
      <trkpt lat="47.89807" lon="6.88797">
        <ele>885</ele>
        <time>2022-08-29T08:53:37Z</time>
      </trkpt>
      <trkpt lat="47.89807" lon="6.88796">
        <ele>884.8</ele>
        <time>2022-08-29T08:53:38Z</time>
      </trkpt>
      <trkpt lat="47.89807" lon="6.88795">
        <ele>884.7</ele>
        <time>2022-08-29T08:53:39Z</time>
      </trkpt>
      <trkpt lat="47.89807" lon="6.88793">
        <ele>884.4</ele>
        <time>2022-08-29T08:53:40Z</time>
      </trkpt>
      <trkpt lat="47.89807" lon="6.88792">
        <ele>884.2</ele>
        <time>2022-08-29T08:53:41Z</time>
      </trkpt>
      <trkpt lat="47.89807" lon="6.88791">
        <ele>884.1</ele>
        <time>2022-08-29T08:53:42Z</time>
      </trkpt>
      <trkpt lat="47.89807" lon="6.88789">
        <ele>883.8</ele>
        <time>2022-08-29T08:53:43Z</time>
      </trkpt>
      <trkpt lat="47.89807" lon="6.88788">
        <ele>883.7</ele>
        <time>2022-08-29T08:53:44Z</time>
      </trkpt>
      <trkpt lat="47.89807" lon="6.88786">
        <ele>883.4</ele>
        <time>2022-08-29T08:53:45Z</time>
      </trkpt>
      <trkpt lat="47.89807" lon="6.88785">
        <ele>883.2</ele>
        <time>2022-08-29T08:53:46Z</time>
      </trkpt>
      <trkpt lat="47.89806" lon="6.88783">
        <ele>883.5</ele>
        <time>2022-08-29T08:53:47Z</time>
      </trkpt>
      <trkpt lat="47.89805" lon="6.88782">
        <ele>883.9</ele>
        <time>2022-08-29T08:53:48Z</time>
      </trkpt>
      <trkpt lat="47.89805" lon="6.8878">
        <ele>883.6</ele>
        <time>2022-08-29T08:53:49Z</time>
      </trkpt>
      <trkpt lat="47.89804" lon="6.88779">
        <ele>884</ele>
        <time>2022-08-29T08:53:50Z</time>
      </trkpt>
      <trkpt lat="47.89804" lon="6.88778">
        <ele>883.9</ele>
        <time>2022-08-29T08:53:51Z</time>
      </trkpt>
      <trkpt lat="47.89804" lon="6.88777">
        <ele>883.6</ele>
        <time>2022-08-29T08:53:52Z</time>
      </trkpt>
      <trkpt lat="47.89803" lon="6.88776">
        <ele>883.9</ele>
        <time>2022-08-29T08:53:53Z</time>
      </trkpt>
      <trkpt lat="47.89803" lon="6.88775">
        <ele>883.7</ele>
        <time>2022-08-29T08:53:54Z</time>
      </trkpt>
      <trkpt lat="47.89803" lon="6.88774">
        <ele>883.4</ele>
        <time>2022-08-29T08:53:55Z</time>
      </trkpt>
      <trkpt lat="47.89802" lon="6.88773">
        <ele>883.7</ele>
        <time>2022-08-29T08:53:56Z</time>
      </trkpt>
      <trkpt lat="47.89802" lon="6.88771">
        <ele>883.2</ele>
        <time>2022-08-29T08:53:57Z</time>
      </trkpt>
      <trkpt lat="47.89801" lon="6.8877">
        <ele>883.5</ele>
        <time>2022-08-29T08:53:58Z</time>
      </trkpt>
      <trkpt lat="47.898" lon="6.88769">
        <ele>883.8</ele>
        <time>2022-08-29T08:53:59Z</time>
      </trkpt>
      <trkpt lat="47.898" lon="6.88767">
        <ele>883.3</ele>
        <time>2022-08-29T08:54:00Z</time>
      </trkpt>
      <trkpt lat="47.89799" lon="6.88766">
        <ele>883.6</ele>
        <time>2022-08-29T08:54:01Z</time>
      </trkpt>
      <trkpt lat="47.89799" lon="6.88765">
        <ele>883.3</ele>
        <time>2022-08-29T08:54:02Z</time>
      </trkpt>
      <trkpt lat="47.89798" lon="6.88764">
        <ele>883.6</ele>
        <time>2022-08-29T08:54:03Z</time>
      </trkpt>
      <trkpt lat="47.89798" lon="6.88763">
        <ele>883.4</ele>
        <time>2022-08-29T08:54:04Z</time>
      </trkpt>
      <trkpt lat="47.89798" lon="6.88762">
        <ele>883.1</ele>
        <time>2022-08-29T08:54:05Z</time>
      </trkpt>
      <trkpt lat="47.89798" lon="6.88761">
        <ele>882.9</ele>
        <time>2022-08-29T08:54:06Z</time>
      </trkpt>
      <trkpt lat="47.89798" lon="6.88759">
        <ele>882.3</ele>
        <time>2022-08-29T08:54:07Z</time>
      </trkpt>
      <trkpt lat="47.89797" lon="6.88758">
        <ele>882.6</ele>
        <time>2022-08-29T08:54:08Z</time>
      </trkpt>
      <trkpt lat="47.89797" lon="6.88756">
        <ele>882.1</ele>
        <time>2022-08-29T08:54:09Z</time>
      </trkpt>
      <trkpt lat="47.89796" lon="6.88755">
        <ele>882.4</ele>
        <time>2022-08-29T08:54:10Z</time>
      </trkpt>
      <trkpt lat="47.89796" lon="6.88753">
        <ele>881.9</ele>
        <time>2022-08-29T08:54:11Z</time>
      </trkpt>
      <trkpt lat="47.89795" lon="6.88751">
        <ele>882</ele>
        <time>2022-08-29T08:54:12Z</time>
      </trkpt>
      <trkpt lat="47.89795" lon="6.8875">
        <ele>881.7</ele>
        <time>2022-08-29T08:54:13Z</time>
      </trkpt>
      <trkpt lat="47.89795" lon="6.88748">
        <ele>881.2</ele>
        <time>2022-08-29T08:54:14Z</time>
      </trkpt>
      <trkpt lat="47.89794" lon="6.88747">
        <ele>881.5</ele>
        <time>2022-08-29T08:54:15Z</time>
      </trkpt>
      <trkpt lat="47.89794" lon="6.88746">
        <ele>881.3</ele>
        <time>2022-08-29T08:54:16Z</time>
      </trkpt>
      <trkpt lat="47.89793" lon="6.88744">
        <ele>881.4</ele>
        <time>2022-08-29T08:54:17Z</time>
      </trkpt>
      <trkpt lat="47.89793" lon="6.88743">
        <ele>881.2</ele>
        <time>2022-08-29T08:54:18Z</time>
      </trkpt>
      <trkpt lat="47.89792" lon="6.88742">
        <ele>881.5</ele>
        <time>2022-08-29T08:54:19Z</time>
      </trkpt>
      <trkpt lat="47.89792" lon="6.88741">
        <ele>881.2</ele>
        <time>2022-08-29T08:54:20Z</time>
      </trkpt>
      <trkpt lat="47.89792" lon="6.8874">
        <ele>881</ele>
        <time>2022-08-29T08:54:21Z</time>
      </trkpt>
      <trkpt lat="47.89792" lon="6.88738">
        <ele>880.5</ele>
        <time>2022-08-29T08:54:22Z</time>
      </trkpt>
      <trkpt lat="47.89791" lon="6.88737">
        <ele>880.8</ele>
        <time>2022-08-29T08:54:23Z</time>
      </trkpt>
      <trkpt lat="47.89791" lon="6.88736">
        <ele>880.6</ele>
        <time>2022-08-29T08:54:24Z</time>
      </trkpt>
      <trkpt lat="47.8979" lon="6.88735">
        <ele>880.9</ele>
        <time>2022-08-29T08:54:25Z</time>
      </trkpt>
      <trkpt lat="47.8979" lon="6.88734">
        <ele>880.6</ele>
        <time>2022-08-29T08:54:27Z</time>
      </trkpt>
      <trkpt lat="47.89789" lon="6.88733">
        <ele>880.9</ele>
        <time>2022-08-29T08:54:28Z</time>
      </trkpt>
      <trkpt lat="47.89788" lon="6.88732">
        <ele>881.2</ele>
        <time>2022-08-29T08:54:29Z</time>
      </trkpt>
      <trkpt lat="47.89788" lon="6.88731">
        <ele>880.9</ele>
        <time>2022-08-29T08:54:30Z</time>
      </trkpt>
      <trkpt lat="47.89787" lon="6.8873">
        <ele>881.2</ele>
        <time>2022-08-29T08:54:31Z</time>
      </trkpt>
      <trkpt lat="47.89787" lon="6.88729">
        <ele>881</ele>
        <time>2022-08-29T08:54:32Z</time>
      </trkpt>
      <trkpt lat="47.89786" lon="6.88728">
        <ele>881.3</ele>
        <time>2022-08-29T08:54:33Z</time>
      </trkpt>
      <trkpt lat="47.89785" lon="6.88727">
        <ele>881.5</ele>
        <time>2022-08-29T08:54:34Z</time>
      </trkpt>
      <trkpt lat="47.89784" lon="6.88726">
        <ele>881.8</ele>
        <time>2022-08-29T08:54:35Z</time>
      </trkpt>
      <trkpt lat="47.89783" lon="6.88725">
        <ele>882</ele>
        <time>2022-08-29T08:54:36Z</time>
      </trkpt>
      <trkpt lat="47.89782" lon="6.88723">
        <ele>882.1</ele>
        <time>2022-08-29T08:54:37Z</time>
      </trkpt>
      <trkpt lat="47.89781" lon="6.88721">
        <ele>882.1</ele>
        <time>2022-08-29T08:54:38Z</time>
      </trkpt>
      <trkpt lat="47.8978" lon="6.88719">
        <ele>882.2</ele>
        <time>2022-08-29T08:54:39Z</time>
      </trkpt>
      <trkpt lat="47.89779" lon="6.88718">
        <ele>882.5</ele>
        <time>2022-08-29T08:54:40Z</time>
      </trkpt>
      <trkpt lat="47.89779" lon="6.88716">
        <ele>882</ele>
        <time>2022-08-29T08:54:41Z</time>
      </trkpt>
      <trkpt lat="47.89778" lon="6.88715">
        <ele>882.3</ele>
        <time>2022-08-29T08:54:42Z</time>
      </trkpt>
      <trkpt lat="47.89777" lon="6.88714">
        <ele>882.6</ele>
        <time>2022-08-29T08:54:43Z</time>
      </trkpt>
      <trkpt lat="47.89776" lon="6.88713">
        <ele>882.8</ele>
        <time>2022-08-29T08:54:45Z</time>
      </trkpt>
      <trkpt lat="47.89776" lon="6.88712">
        <ele>882.6</ele>
        <time>2022-08-29T08:54:46Z</time>
      </trkpt>
      <trkpt lat="47.89775" lon="6.88711">
        <ele>882.9</ele>
        <time>2022-08-29T08:54:47Z</time>
      </trkpt>
      <trkpt lat="47.89774" lon="6.8871">
        <ele>883.2</ele>
        <time>2022-08-29T08:54:48Z</time>
      </trkpt>
      <trkpt lat="47.89774" lon="6.88708">
        <ele>882.8</ele>
        <time>2022-08-29T08:54:49Z</time>
      </trkpt>
      <trkpt lat="47.89773" lon="6.88706">
        <ele>882.9</ele>
        <time>2022-08-29T08:54:50Z</time>
      </trkpt>
      <trkpt lat="47.89773" lon="6.88705">
        <ele>882.7</ele>
        <time>2022-08-29T08:54:51Z</time>
      </trkpt>
      <trkpt lat="47.89772" lon="6.88703">
        <ele>882.8</ele>
        <time>2022-08-29T08:54:52Z</time>
      </trkpt>
      <trkpt lat="47.89771" lon="6.88701">
        <ele>882.9</ele>
        <time>2022-08-29T08:54:53Z</time>
      </trkpt>
      <trkpt lat="47.89771" lon="6.88699">
        <ele>882.5</ele>
        <time>2022-08-29T08:54:54Z</time>
      </trkpt>
      <trkpt lat="47.89771" lon="6.88698">
        <ele>882.3</ele>
        <time>2022-08-29T08:54:55Z</time>
      </trkpt>
      <trkpt lat="47.8977" lon="6.88696">
        <ele>882.5</ele>
        <time>2022-08-29T08:54:56Z</time>
      </trkpt>
      <trkpt lat="47.8977" lon="6.88695">
        <ele>882.3</ele>
        <time>2022-08-29T08:54:57Z</time>
      </trkpt>
      <trkpt lat="47.8977" lon="6.88694">
        <ele>882.1</ele>
        <time>2022-08-29T08:54:58Z</time>
      </trkpt>
      <trkpt lat="47.89771" lon="6.88692">
        <ele>881.2</ele>
        <time>2022-08-29T08:54:59Z</time>
      </trkpt>
      <trkpt lat="47.89771" lon="6.8869">
        <ele>880.9</ele>
        <time>2022-08-29T08:55:00Z</time>
      </trkpt>
      <trkpt lat="47.89771" lon="6.88689">
        <ele>880.7</ele>
        <time>2022-08-29T08:55:01Z</time>
      </trkpt>
      <trkpt lat="47.8977" lon="6.88687">
        <ele>880.9</ele>
        <time>2022-08-29T08:55:02Z</time>
      </trkpt>
      <trkpt lat="47.8977" lon="6.88685">
        <ele>880.5</ele>
        <time>2022-08-29T08:55:03Z</time>
      </trkpt>
      <trkpt lat="47.8977" lon="6.88684">
        <ele>880.3</ele>
        <time>2022-08-29T08:55:04Z</time>
      </trkpt>
      <trkpt lat="47.8977" lon="6.88683">
        <ele>880.1</ele>
        <time>2022-08-29T08:55:05Z</time>
      </trkpt>
      <trkpt lat="47.8977" lon="6.88681">
        <ele>879.8</ele>
        <time>2022-08-29T08:55:06Z</time>
      </trkpt>
      <trkpt lat="47.89769" lon="6.8868">
        <ele>880.1</ele>
        <time>2022-08-29T08:55:07Z</time>
      </trkpt>
      <trkpt lat="47.89769" lon="6.88679">
        <ele>880</ele>
        <time>2022-08-29T08:55:08Z</time>
      </trkpt>
      <trkpt lat="47.89769" lon="6.88677">
        <ele>879.6</ele>
        <time>2022-08-29T08:55:09Z</time>
      </trkpt>
      <trkpt lat="47.89768" lon="6.88675">
        <ele>879.8</ele>
        <time>2022-08-29T08:55:10Z</time>
      </trkpt>
      <trkpt lat="47.89768" lon="6.88674">
        <ele>879.6</ele>
        <time>2022-08-29T08:55:11Z</time>
      </trkpt>
      <trkpt lat="47.89768" lon="6.88672">
        <ele>879.2</ele>
        <time>2022-08-29T08:55:12Z</time>
      </trkpt>
      <trkpt lat="47.89768" lon="6.88671">
        <ele>879.1</ele>
        <time>2022-08-29T08:55:13Z</time>
      </trkpt>
      <trkpt lat="47.89767" lon="6.8867">
        <ele>879.4</ele>
        <time>2022-08-29T08:55:14Z</time>
      </trkpt>
      <trkpt lat="47.89767" lon="6.88668">
        <ele>879.1</ele>
        <time>2022-08-29T08:55:15Z</time>
      </trkpt>
      <trkpt lat="47.89767" lon="6.88667">
        <ele>878.9</ele>
        <time>2022-08-29T08:55:16Z</time>
      </trkpt>
      <trkpt lat="47.89766" lon="6.88666">
        <ele>879.2</ele>
        <time>2022-08-29T08:55:17Z</time>
      </trkpt>
      <trkpt lat="47.89765" lon="6.88665">
        <ele>879.6</ele>
        <time>2022-08-29T08:55:18Z</time>
      </trkpt>
      <trkpt lat="47.89765" lon="6.88663">
        <ele>879.2</ele>
        <time>2022-08-29T08:55:19Z</time>
      </trkpt>
      <trkpt lat="47.89765" lon="6.88662">
        <ele>879</ele>
        <time>2022-08-29T08:55:20Z</time>
      </trkpt>
      <trkpt lat="47.89764" lon="6.88661">
        <ele>879.3</ele>
        <time>2022-08-29T08:55:21Z</time>
      </trkpt>
      <trkpt lat="47.89764" lon="6.8866">
        <ele>879.1</ele>
        <time>2022-08-29T08:55:22Z</time>
      </trkpt>
      <trkpt lat="47.89764" lon="6.88659">
        <ele>878.9</ele>
        <time>2022-08-29T08:55:23Z</time>
      </trkpt>
      <trkpt lat="47.89764" lon="6.88658">
        <ele>878.7</ele>
        <time>2022-08-29T08:55:24Z</time>
      </trkpt>
      <trkpt lat="47.89764" lon="6.88657">
        <ele>878.5</ele>
        <time>2022-08-29T08:55:25Z</time>
      </trkpt>
      <trkpt lat="47.89764" lon="6.88656">
        <ele>878.3</ele>
        <time>2022-08-29T08:55:26Z</time>
      </trkpt>
      <trkpt lat="47.89764" lon="6.88655">
        <ele>878.1</ele>
        <time>2022-08-29T08:55:27Z</time>
      </trkpt>
      <trkpt lat="47.89763" lon="6.88654">
        <ele>878.5</ele>
        <time>2022-08-29T08:55:28Z</time>
      </trkpt>
      <trkpt lat="47.89763" lon="6.88653">
        <ele>878.3</ele>
        <time>2022-08-29T08:55:29Z</time>
      </trkpt>
      <trkpt lat="47.89762" lon="6.88651">
        <ele>878.4</ele>
        <time>2022-08-29T08:55:30Z</time>
      </trkpt>
      <trkpt lat="47.89762" lon="6.8865">
        <ele>878.2</ele>
        <time>2022-08-29T08:55:31Z</time>
      </trkpt>
      <trkpt lat="47.89761" lon="6.88648">
        <ele>878.3</ele>
        <time>2022-08-29T08:55:32Z</time>
      </trkpt>
      <trkpt lat="47.89761" lon="6.88647">
        <ele>878.1</ele>
        <time>2022-08-29T08:55:33Z</time>
      </trkpt>
      <trkpt lat="47.89761" lon="6.88645">
        <ele>877.7</ele>
        <time>2022-08-29T08:55:34Z</time>
      </trkpt>
      <trkpt lat="47.8976" lon="6.88644">
        <ele>878</ele>
        <time>2022-08-29T08:55:35Z</time>
      </trkpt>
      <trkpt lat="47.8976" lon="6.88642">
        <ele>877.6</ele>
        <time>2022-08-29T08:55:36Z</time>
      </trkpt>
      <trkpt lat="47.89759" lon="6.8864">
        <ele>877.7</ele>
        <time>2022-08-29T08:55:37Z</time>
      </trkpt>
      <trkpt lat="47.89758" lon="6.88639">
        <ele>878</ele>
        <time>2022-08-29T08:55:38Z</time>
      </trkpt>
      <trkpt lat="47.89757" lon="6.88637">
        <ele>878.1</ele>
        <time>2022-08-29T08:55:39Z</time>
      </trkpt>
      <trkpt lat="47.89757" lon="6.88636">
        <ele>877.8</ele>
        <time>2022-08-29T08:55:40Z</time>
      </trkpt>
      <trkpt lat="47.89756" lon="6.88635">
        <ele>878.1</ele>
        <time>2022-08-29T08:55:41Z</time>
      </trkpt>
      <trkpt lat="47.89756" lon="6.88634">
        <ele>877.9</ele>
        <time>2022-08-29T08:55:42Z</time>
      </trkpt>
      <trkpt lat="47.89755" lon="6.88633">
        <ele>878.2</ele>
        <time>2022-08-29T08:55:44Z</time>
      </trkpt>
      <trkpt lat="47.89755" lon="6.88632">
        <ele>878</ele>
        <time>2022-08-29T08:55:45Z</time>
      </trkpt>
      <trkpt lat="47.89755" lon="6.88631">
        <ele>877.8</ele>
        <time>2022-08-29T08:55:46Z</time>
      </trkpt>
      <trkpt lat="47.89755" lon="6.8863">
        <ele>877.6</ele>
        <time>2022-08-29T08:55:47Z</time>
      </trkpt>
      <trkpt lat="47.89754" lon="6.88629">
        <ele>877.8</ele>
        <time>2022-08-29T08:55:48Z</time>
      </trkpt>
      <trkpt lat="47.89754" lon="6.88628">
        <ele>877.6</ele>
        <time>2022-08-29T08:55:49Z</time>
      </trkpt>
      <trkpt lat="47.89753" lon="6.88626">
        <ele>877.7</ele>
        <time>2022-08-29T08:55:50Z</time>
      </trkpt>
      <trkpt lat="47.89753" lon="6.88625">
        <ele>877.5</ele>
        <time>2022-08-29T08:55:51Z</time>
      </trkpt>
      <trkpt lat="47.89752" lon="6.88623">
        <ele>877.6</ele>
        <time>2022-08-29T08:55:52Z</time>
      </trkpt>
      <trkpt lat="47.89752" lon="6.88622">
        <ele>877.3</ele>
        <time>2022-08-29T08:55:53Z</time>
      </trkpt>
      <trkpt lat="47.89752" lon="6.8862">
        <ele>876.9</ele>
        <time>2022-08-29T08:55:54Z</time>
      </trkpt>
      <trkpt lat="47.89752" lon="6.88619">
        <ele>876.7</ele>
        <time>2022-08-29T08:55:55Z</time>
      </trkpt>
      <trkpt lat="47.89751" lon="6.88618">
        <ele>877</ele>
        <time>2022-08-29T08:55:56Z</time>
      </trkpt>
      <trkpt lat="47.89751" lon="6.88617">
        <ele>876.8</ele>
        <time>2022-08-29T08:55:57Z</time>
      </trkpt>
      <trkpt lat="47.89751" lon="6.88615">
        <ele>876.3</ele>
        <time>2022-08-29T08:55:58Z</time>
      </trkpt>
      <trkpt lat="47.89751" lon="6.88614">
        <ele>876.1</ele>
        <time>2022-08-29T08:55:59Z</time>
      </trkpt>
      <trkpt lat="47.89751" lon="6.88613">
        <ele>875.9</ele>
        <time>2022-08-29T08:56:00Z</time>
      </trkpt>
      <trkpt lat="47.8975" lon="6.88611">
        <ele>876</ele>
        <time>2022-08-29T08:56:01Z</time>
      </trkpt>
      <trkpt lat="47.8975" lon="6.8861">
        <ele>875.8</ele>
        <time>2022-08-29T08:56:02Z</time>
      </trkpt>
      <trkpt lat="47.89749" lon="6.88608">
        <ele>875.9</ele>
        <time>2022-08-29T08:56:03Z</time>
      </trkpt>
      <trkpt lat="47.89748" lon="6.88606">
        <ele>875.9</ele>
        <time>2022-08-29T08:56:04Z</time>
      </trkpt>
      <trkpt lat="47.89748" lon="6.88605">
        <ele>875.8</ele>
        <time>2022-08-29T08:56:05Z</time>
      </trkpt>
      <trkpt lat="47.89747" lon="6.88604">
        <ele>876</ele>
        <time>2022-08-29T08:56:06Z</time>
      </trkpt>
      <trkpt lat="47.89746" lon="6.88602">
        <ele>876.1</ele>
        <time>2022-08-29T08:56:07Z</time>
      </trkpt>
      <trkpt lat="47.89746" lon="6.88601">
        <ele>875.9</ele>
        <time>2022-08-29T08:56:08Z</time>
      </trkpt>
      <trkpt lat="47.89745" lon="6.886">
        <ele>876.2</ele>
        <time>2022-08-29T08:56:09Z</time>
      </trkpt>
      <trkpt lat="47.89745" lon="6.88599">
        <ele>876</ele>
        <time>2022-08-29T08:56:10Z</time>
      </trkpt>
      <trkpt lat="47.89745" lon="6.88597">
        <ele>875.6</ele>
        <time>2022-08-29T08:56:12Z</time>
      </trkpt>
      <trkpt lat="47.89745" lon="6.88596">
        <ele>875.4</ele>
        <time>2022-08-29T08:56:13Z</time>
      </trkpt>
      <trkpt lat="47.89744" lon="6.88595">
        <ele>875.7</ele>
        <time>2022-08-29T08:56:14Z</time>
      </trkpt>
      <trkpt lat="47.89744" lon="6.88594">
        <ele>875.5</ele>
        <time>2022-08-29T08:56:15Z</time>
      </trkpt>
      <trkpt lat="47.89744" lon="6.88592">
        <ele>875.2</ele>
        <time>2022-08-29T08:56:17Z</time>
      </trkpt>
      <trkpt lat="47.89744" lon="6.88591">
        <ele>875</ele>
        <time>2022-08-29T08:56:18Z</time>
      </trkpt>
      <trkpt lat="47.89744" lon="6.8859">
        <ele>874.8</ele>
        <time>2022-08-29T08:56:19Z</time>
      </trkpt>
      <trkpt lat="47.89744" lon="6.88589">
        <ele>874.6</ele>
        <time>2022-08-29T08:56:20Z</time>
      </trkpt>
      <trkpt lat="47.89744" lon="6.88588">
        <ele>874.4</ele>
        <time>2022-08-29T08:56:21Z</time>
      </trkpt>
      <trkpt lat="47.89743" lon="6.88586">
        <ele>874.5</ele>
        <time>2022-08-29T08:56:22Z</time>
      </trkpt>
      <trkpt lat="47.89742" lon="6.88585">
        <ele>874.8</ele>
        <time>2022-08-29T08:56:23Z</time>
      </trkpt>
      <trkpt lat="47.89741" lon="6.88583">
        <ele>874.8</ele>
        <time>2022-08-29T08:56:24Z</time>
      </trkpt>
      <trkpt lat="47.8974" lon="6.88582">
        <ele>875.1</ele>
        <time>2022-08-29T08:56:25Z</time>
      </trkpt>
      <trkpt lat="47.8974" lon="6.88581">
        <ele>875</ele>
        <time>2022-08-29T08:56:26Z</time>
      </trkpt>
      <trkpt lat="47.89739" lon="6.8858">
        <ele>875.2</ele>
        <time>2022-08-29T08:56:27Z</time>
      </trkpt>
      <trkpt lat="47.89739" lon="6.88579">
        <ele>875.1</ele>
        <time>2022-08-29T08:56:28Z</time>
      </trkpt>
      <trkpt lat="47.89738" lon="6.88578">
        <ele>875.3</ele>
        <time>2022-08-29T08:56:29Z</time>
      </trkpt>
      <trkpt lat="47.89738" lon="6.88577">
        <ele>875.2</ele>
        <time>2022-08-29T08:56:31Z</time>
      </trkpt>
      <trkpt lat="47.89738" lon="6.88576">
        <ele>875</ele>
        <time>2022-08-29T08:56:32Z</time>
      </trkpt>
      <trkpt lat="47.89738" lon="6.88574">
        <ele>874.7</ele>
        <time>2022-08-29T08:56:33Z</time>
      </trkpt>
      <trkpt lat="47.89737" lon="6.88573">
        <ele>875</ele>
        <time>2022-08-29T08:56:34Z</time>
      </trkpt>
      <trkpt lat="47.89737" lon="6.88571">
        <ele>874.6</ele>
        <time>2022-08-29T08:56:35Z</time>
      </trkpt>
      <trkpt lat="47.89737" lon="6.8857">
        <ele>874.5</ele>
        <time>2022-08-29T08:56:36Z</time>
      </trkpt>
      <trkpt lat="47.89737" lon="6.88569">
        <ele>874.3</ele>
        <time>2022-08-29T08:56:37Z</time>
      </trkpt>
      <trkpt lat="47.89738" lon="6.88567">
        <ele>873.6</ele>
        <time>2022-08-29T08:56:38Z</time>
      </trkpt>
      <trkpt lat="47.89738" lon="6.88566">
        <ele>873.4</ele>
        <time>2022-08-29T08:56:41Z</time>
      </trkpt>
      <trkpt lat="47.89738" lon="6.88565">
        <ele>873.3</ele>
        <time>2022-08-29T08:56:43Z</time>
      </trkpt>
      <trkpt lat="47.89738" lon="6.88564">
        <ele>873.1</ele>
        <time>2022-08-29T08:56:44Z</time>
      </trkpt>
      <trkpt lat="47.89737" lon="6.88562">
        <ele>873.2</ele>
        <time>2022-08-29T08:56:45Z</time>
      </trkpt>
      <trkpt lat="47.89737" lon="6.88561">
        <ele>873</ele>
        <time>2022-08-29T08:56:46Z</time>
      </trkpt>
      <trkpt lat="47.89736" lon="6.88559">
        <ele>873.1</ele>
        <time>2022-08-29T08:56:47Z</time>
      </trkpt>
      <trkpt lat="47.89736" lon="6.88558">
        <ele>872.9</ele>
        <time>2022-08-29T08:56:48Z</time>
      </trkpt>
      <trkpt lat="47.89735" lon="6.88556">
        <ele>873</ele>
        <time>2022-08-29T08:56:49Z</time>
      </trkpt>
      <trkpt lat="47.89734" lon="6.88555">
        <ele>873.2</ele>
        <time>2022-08-29T08:56:50Z</time>
      </trkpt>
      <trkpt lat="47.89733" lon="6.88554">
        <ele>873.5</ele>
        <time>2022-08-29T08:56:51Z</time>
      </trkpt>
      <trkpt lat="47.89732" lon="6.88552">
        <ele>873.5</ele>
        <time>2022-08-29T08:56:52Z</time>
      </trkpt>
      <trkpt lat="47.89731" lon="6.88551">
        <ele>873.8</ele>
        <time>2022-08-29T08:56:53Z</time>
      </trkpt>
      <trkpt lat="47.8973" lon="6.88549">
        <ele>873.8</ele>
        <time>2022-08-29T08:56:54Z</time>
      </trkpt>
      <trkpt lat="47.8973" lon="6.88548">
        <ele>873.6</ele>
        <time>2022-08-29T08:56:55Z</time>
      </trkpt>
      <trkpt lat="47.89729" lon="6.88547">
        <ele>873.9</ele>
        <time>2022-08-29T08:56:56Z</time>
      </trkpt>
      <trkpt lat="47.89728" lon="6.88546">
        <ele>874.1</ele>
        <time>2022-08-29T08:56:57Z</time>
      </trkpt>
      <trkpt lat="47.89727" lon="6.88544">
        <ele>874.1</ele>
        <time>2022-08-29T08:56:58Z</time>
      </trkpt>
      <trkpt lat="47.89726" lon="6.88542">
        <ele>874.1</ele>
        <time>2022-08-29T08:56:59Z</time>
      </trkpt>
      <trkpt lat="47.89725" lon="6.8854">
        <ele>874.2</ele>
        <time>2022-08-29T08:57:00Z</time>
      </trkpt>
      <trkpt lat="47.89724" lon="6.88539">
        <ele>874.4</ele>
        <time>2022-08-29T08:57:01Z</time>
      </trkpt>
      <trkpt lat="47.89724" lon="6.88537">
        <ele>874</ele>
        <time>2022-08-29T08:57:02Z</time>
      </trkpt>
      <trkpt lat="47.89723" lon="6.88535">
        <ele>874</ele>
        <time>2022-08-29T08:57:03Z</time>
      </trkpt>
      <trkpt lat="47.89722" lon="6.88534">
        <ele>874.2</ele>
        <time>2022-08-29T08:57:04Z</time>
      </trkpt>
      <trkpt lat="47.89721" lon="6.88532">
        <ele>874.2</ele>
        <time>2022-08-29T08:57:05Z</time>
      </trkpt>
      <trkpt lat="47.89721" lon="6.88531">
        <ele>874.1</ele>
        <time>2022-08-29T08:57:06Z</time>
      </trkpt>
      <trkpt lat="47.8972" lon="6.88529">
        <ele>874.1</ele>
        <time>2022-08-29T08:57:07Z</time>
      </trkpt>
      <trkpt lat="47.89719" lon="6.88527">
        <ele>874.2</ele>
        <time>2022-08-29T08:57:08Z</time>
      </trkpt>
      <trkpt lat="47.89719" lon="6.88526">
        <ele>874</ele>
        <time>2022-08-29T08:57:09Z</time>
      </trkpt>
      <trkpt lat="47.89718" lon="6.88525">
        <ele>874.3</ele>
        <time>2022-08-29T08:57:10Z</time>
      </trkpt>
      <trkpt lat="47.89718" lon="6.88523">
        <ele>874</ele>
        <time>2022-08-29T08:57:11Z</time>
      </trkpt>
      <trkpt lat="47.89717" lon="6.88522">
        <ele>874.2</ele>
        <time>2022-08-29T08:57:12Z</time>
      </trkpt>
      <trkpt lat="47.89716" lon="6.8852">
        <ele>874.3</ele>
        <time>2022-08-29T08:57:13Z</time>
      </trkpt>
      <trkpt lat="47.89716" lon="6.88518">
        <ele>874.1</ele>
        <time>2022-08-29T08:57:14Z</time>
      </trkpt>
      <trkpt lat="47.89715" lon="6.88517">
        <ele>874.3</ele>
        <time>2022-08-29T08:57:15Z</time>
      </trkpt>
      <trkpt lat="47.89715" lon="6.88516">
        <ele>874.2</ele>
        <time>2022-08-29T08:57:16Z</time>
      </trkpt>
      <trkpt lat="47.89714" lon="6.88514">
        <ele>874.3</ele>
        <time>2022-08-29T08:57:17Z</time>
      </trkpt>
      <trkpt lat="47.89714" lon="6.88513">
        <ele>874.1</ele>
        <time>2022-08-29T08:57:18Z</time>
      </trkpt>
      <trkpt lat="47.89714" lon="6.88511">
        <ele>873.8</ele>
        <time>2022-08-29T08:57:19Z</time>
      </trkpt>
      <trkpt lat="47.89713" lon="6.8851">
        <ele>874.1</ele>
        <time>2022-08-29T08:57:20Z</time>
      </trkpt>
      <trkpt lat="47.89713" lon="6.88508">
        <ele>873.8</ele>
        <time>2022-08-29T08:57:21Z</time>
      </trkpt>
      <trkpt lat="47.89712" lon="6.88507">
        <ele>874.1</ele>
        <time>2022-08-29T08:57:22Z</time>
      </trkpt>
      <trkpt lat="47.89712" lon="6.88506">
        <ele>873.9</ele>
        <time>2022-08-29T08:57:23Z</time>
      </trkpt>
      <trkpt lat="47.89711" lon="6.88506">
        <ele>874.3</ele>
        <time>2022-08-29T08:57:24Z</time>
      </trkpt>
      <trkpt lat="47.89711" lon="6.88504">
        <ele>874</ele>
        <time>2022-08-29T08:57:25Z</time>
      </trkpt>
      <trkpt lat="47.89711" lon="6.88503">
        <ele>873.9</ele>
        <time>2022-08-29T08:57:26Z</time>
      </trkpt>
      <trkpt lat="47.8971" lon="6.88502">
        <ele>874.1</ele>
        <time>2022-08-29T08:57:27Z</time>
      </trkpt>
      <trkpt lat="47.8971" lon="6.88501">
        <ele>874</ele>
        <time>2022-08-29T08:57:28Z</time>
      </trkpt>
      <trkpt lat="47.8971" lon="6.88499">
        <ele>873.7</ele>
        <time>2022-08-29T08:57:29Z</time>
      </trkpt>
      <trkpt lat="47.8971" lon="6.88498">
        <ele>873.6</ele>
        <time>2022-08-29T08:57:30Z</time>
      </trkpt>
      <trkpt lat="47.89709" lon="6.88497">
        <ele>873.8</ele>
        <time>2022-08-29T08:57:31Z</time>
      </trkpt>
      <trkpt lat="47.89709" lon="6.88495">
        <ele>873.5</ele>
        <time>2022-08-29T08:57:32Z</time>
      </trkpt>
      <trkpt lat="47.89709" lon="6.88494">
        <ele>873.4</ele>
        <time>2022-08-29T08:57:33Z</time>
      </trkpt>
      <trkpt lat="47.89708" lon="6.88493">
        <ele>873.6</ele>
        <time>2022-08-29T08:57:34Z</time>
      </trkpt>
      <trkpt lat="47.89708" lon="6.88491">
        <ele>873.3</ele>
        <time>2022-08-29T08:57:35Z</time>
      </trkpt>
      <trkpt lat="47.89708" lon="6.8849">
        <ele>873.2</ele>
        <time>2022-08-29T08:57:36Z</time>
      </trkpt>
      <trkpt lat="47.89708" lon="6.88489">
        <ele>873</ele>
        <time>2022-08-29T08:57:37Z</time>
      </trkpt>
      <trkpt lat="47.89708" lon="6.88487">
        <ele>872.8</ele>
        <time>2022-08-29T08:57:38Z</time>
      </trkpt>
      <trkpt lat="47.89707" lon="6.88486">
        <ele>873</ele>
        <time>2022-08-29T08:57:39Z</time>
      </trkpt>
      <trkpt lat="47.89707" lon="6.88484">
        <ele>872.7</ele>
        <time>2022-08-29T08:57:40Z</time>
      </trkpt>
      <trkpt lat="47.89707" lon="6.88483">
        <ele>872.6</ele>
        <time>2022-08-29T08:57:41Z</time>
      </trkpt>
      <trkpt lat="47.89706" lon="6.88481">
        <ele>872.7</ele>
        <time>2022-08-29T08:57:42Z</time>
      </trkpt>
      <trkpt lat="47.89706" lon="6.88479">
        <ele>872.4</ele>
        <time>2022-08-29T08:57:43Z</time>
      </trkpt>
      <trkpt lat="47.89706" lon="6.88477">
        <ele>872.1</ele>
        <time>2022-08-29T08:57:44Z</time>
      </trkpt>
      <trkpt lat="47.89705" lon="6.88475">
        <ele>872.2</ele>
        <time>2022-08-29T08:57:45Z</time>
      </trkpt>
      <trkpt lat="47.89705" lon="6.88473">
        <ele>871.9</ele>
        <time>2022-08-29T08:57:46Z</time>
      </trkpt>
      <trkpt lat="47.89704" lon="6.88471">
        <ele>872.1</ele>
        <time>2022-08-29T08:57:47Z</time>
      </trkpt>
      <trkpt lat="47.89703" lon="6.88469">
        <ele>872.2</ele>
        <time>2022-08-29T08:57:48Z</time>
      </trkpt>
      <trkpt lat="47.89703" lon="6.88467">
        <ele>872</ele>
        <time>2022-08-29T08:57:49Z</time>
      </trkpt>
      <trkpt lat="47.89702" lon="6.88465">
        <ele>872.2</ele>
        <time>2022-08-29T08:57:50Z</time>
      </trkpt>
      <trkpt lat="47.89702" lon="6.88464">
        <ele>872</ele>
        <time>2022-08-29T08:57:51Z</time>
      </trkpt>
      <trkpt lat="47.89702" lon="6.88462">
        <ele>871.8</ele>
        <time>2022-08-29T08:57:52Z</time>
      </trkpt>
      <trkpt lat="47.89702" lon="6.88461">
        <ele>871.7</ele>
        <time>2022-08-29T08:57:53Z</time>
      </trkpt>
      <trkpt lat="47.89702" lon="6.88459">
        <ele>871.5</ele>
        <time>2022-08-29T08:57:54Z</time>
      </trkpt>
      <trkpt lat="47.89702" lon="6.88458">
        <ele>871.3</ele>
        <time>2022-08-29T08:57:55Z</time>
      </trkpt>
      <trkpt lat="47.89701" lon="6.88456">
        <ele>871.5</ele>
        <time>2022-08-29T08:57:56Z</time>
      </trkpt>
      <trkpt lat="47.897" lon="6.88454">
        <ele>871.7</ele>
        <time>2022-08-29T08:57:57Z</time>
      </trkpt>
      <trkpt lat="47.897" lon="6.88452">
        <ele>871.5</ele>
        <time>2022-08-29T08:57:58Z</time>
      </trkpt>
      <trkpt lat="47.89699" lon="6.8845">
        <ele>871.7</ele>
        <time>2022-08-29T08:57:59Z</time>
      </trkpt>
      <trkpt lat="47.89698" lon="6.88448">
        <ele>871.9</ele>
        <time>2022-08-29T08:58:00Z</time>
      </trkpt>
      <trkpt lat="47.89698" lon="6.88446">
        <ele>871.6</ele>
        <time>2022-08-29T08:58:01Z</time>
      </trkpt>
      <trkpt lat="47.89697" lon="6.88445">
        <ele>872</ele>
        <time>2022-08-29T08:58:02Z</time>
      </trkpt>
      <trkpt lat="47.89697" lon="6.88443">
        <ele>871.8</ele>
        <time>2022-08-29T08:58:03Z</time>
      </trkpt>
      <trkpt lat="47.89697" lon="6.88441">
        <ele>871.6</ele>
        <time>2022-08-29T08:58:04Z</time>
      </trkpt>
      <trkpt lat="47.89697" lon="6.88439">
        <ele>871.5</ele>
        <time>2022-08-29T08:58:05Z</time>
      </trkpt>
      <trkpt lat="47.89697" lon="6.88437">
        <ele>871.4</ele>
        <time>2022-08-29T08:58:06Z</time>
      </trkpt>
      <trkpt lat="47.89697" lon="6.88435">
        <ele>871.2</ele>
        <time>2022-08-29T08:58:07Z</time>
      </trkpt>
      <trkpt lat="47.89697" lon="6.88433">
        <ele>871.1</ele>
        <time>2022-08-29T08:58:08Z</time>
      </trkpt>
      <trkpt lat="47.89697" lon="6.88432">
        <ele>871</ele>
        <time>2022-08-29T08:58:09Z</time>
      </trkpt>
      <trkpt lat="47.89697" lon="6.8843">
        <ele>870.9</ele>
        <time>2022-08-29T08:58:10Z</time>
      </trkpt>
      <trkpt lat="47.89696" lon="6.88429">
        <ele>871.2</ele>
        <time>2022-08-29T08:58:11Z</time>
      </trkpt>
      <trkpt lat="47.89696" lon="6.88428">
        <ele>871.1</ele>
        <time>2022-08-29T08:58:12Z</time>
      </trkpt>
      <trkpt lat="47.89696" lon="6.88427">
        <ele>871.1</ele>
        <time>2022-08-29T08:58:13Z</time>
      </trkpt>
      <trkpt lat="47.89696" lon="6.88426">
        <ele>871</ele>
        <time>2022-08-29T08:58:14Z</time>
      </trkpt>
      <trkpt lat="47.89696" lon="6.88425">
        <ele>870.9</ele>
        <time>2022-08-29T08:58:15Z</time>
      </trkpt>
      <trkpt lat="47.89696" lon="6.88423">
        <ele>870.8</ele>
        <time>2022-08-29T08:58:16Z</time>
      </trkpt>
      <trkpt lat="47.89695" lon="6.88422">
        <ele>871.1</ele>
        <time>2022-08-29T08:58:17Z</time>
      </trkpt>
      <trkpt lat="47.89695" lon="6.88421">
        <ele>871.1</ele>
        <time>2022-08-29T08:58:18Z</time>
      </trkpt>
      <trkpt lat="47.89695" lon="6.88419">
        <ele>870.9</ele>
        <time>2022-08-29T08:58:19Z</time>
      </trkpt>
      <trkpt lat="47.89695" lon="6.88417">
        <ele>870.8</ele>
        <time>2022-08-29T08:58:20Z</time>
      </trkpt>
      <trkpt lat="47.89694" lon="6.88416">
        <ele>871</ele>
        <time>2022-08-29T08:58:21Z</time>
      </trkpt>
      <trkpt lat="47.89694" lon="6.88414">
        <ele>870.6</ele>
        <time>2022-08-29T08:58:22Z</time>
      </trkpt>
      <trkpt lat="47.89694" lon="6.88413">
        <ele>870.4</ele>
        <time>2022-08-29T08:58:23Z</time>
      </trkpt>
      <trkpt lat="47.89694" lon="6.88412">
        <ele>870.2</ele>
        <time>2022-08-29T08:58:24Z</time>
      </trkpt>
      <trkpt lat="47.89693" lon="6.8841">
        <ele>870.1</ele>
        <time>2022-08-29T08:58:25Z</time>
      </trkpt>
      <trkpt lat="47.89693" lon="6.88409">
        <ele>869.9</ele>
        <time>2022-08-29T08:58:26Z</time>
      </trkpt>
      <trkpt lat="47.89693" lon="6.88408">
        <ele>869.7</ele>
        <time>2022-08-29T08:58:27Z</time>
      </trkpt>
      <trkpt lat="47.89693" lon="6.88407">
        <ele>869.5</ele>
        <time>2022-08-29T08:58:28Z</time>
      </trkpt>
      <trkpt lat="47.89692" lon="6.88406">
        <ele>869.6</ele>
        <time>2022-08-29T08:58:29Z</time>
      </trkpt>
      <trkpt lat="47.89692" lon="6.88405">
        <ele>869.4</ele>
        <time>2022-08-29T08:58:30Z</time>
      </trkpt>
      <trkpt lat="47.89692" lon="6.88404">
        <ele>869.2</ele>
        <time>2022-08-29T08:58:32Z</time>
      </trkpt>
      <trkpt lat="47.89691" lon="6.88403">
        <ele>869.3</ele>
        <time>2022-08-29T08:58:33Z</time>
      </trkpt>
      <trkpt lat="47.89691" lon="6.88402">
        <ele>869.1</ele>
        <time>2022-08-29T08:58:34Z</time>
      </trkpt>
      <trkpt lat="47.89691" lon="6.88401">
        <ele>868.9</ele>
        <time>2022-08-29T08:58:35Z</time>
      </trkpt>
      <trkpt lat="47.89691" lon="6.884">
        <ele>868.7</ele>
        <time>2022-08-29T08:58:36Z</time>
      </trkpt>
      <trkpt lat="47.89691" lon="6.88398">
        <ele>868.3</ele>
        <time>2022-08-29T08:58:37Z</time>
      </trkpt>
      <trkpt lat="47.8969" lon="6.88397">
        <ele>868.5</ele>
        <time>2022-08-29T08:58:38Z</time>
      </trkpt>
      <trkpt lat="47.8969" lon="6.88396">
        <ele>868.3</ele>
        <time>2022-08-29T08:58:39Z</time>
      </trkpt>
      <trkpt lat="47.8969" lon="6.88395">
        <ele>868</ele>
        <time>2022-08-29T08:58:40Z</time>
      </trkpt>
      <trkpt lat="47.89689" lon="6.88394">
        <ele>868.2</ele>
        <time>2022-08-29T08:58:41Z</time>
      </trkpt>
      <trkpt lat="47.89689" lon="6.88393">
        <ele>868</ele>
        <time>2022-08-29T08:58:42Z</time>
      </trkpt>
      <trkpt lat="47.89689" lon="6.88392">
        <ele>867.8</ele>
        <time>2022-08-29T08:58:43Z</time>
      </trkpt>
      <trkpt lat="47.89689" lon="6.88391">
        <ele>867.6</ele>
        <time>2022-08-29T08:58:44Z</time>
      </trkpt>
      <trkpt lat="47.89689" lon="6.8839">
        <ele>867.4</ele>
        <time>2022-08-29T08:58:45Z</time>
      </trkpt>
      <trkpt lat="47.89689" lon="6.88389">
        <ele>867.2</ele>
        <time>2022-08-29T08:58:47Z</time>
      </trkpt>
      <trkpt lat="47.89688" lon="6.88387">
        <ele>867.3</ele>
        <time>2022-08-29T08:58:48Z</time>
      </trkpt>
      <trkpt lat="47.89688" lon="6.88386">
        <ele>867.2</ele>
        <time>2022-08-29T08:58:49Z</time>
      </trkpt>
      <trkpt lat="47.89688" lon="6.88384">
        <ele>866.9</ele>
        <time>2022-08-29T08:58:50Z</time>
      </trkpt>
      <trkpt lat="47.89688" lon="6.88383">
        <ele>866.8</ele>
        <time>2022-08-29T08:58:51Z</time>
      </trkpt>
      <trkpt lat="47.89687" lon="6.88381">
        <ele>866.9</ele>
        <time>2022-08-29T08:58:52Z</time>
      </trkpt>
      <trkpt lat="47.89687" lon="6.88379">
        <ele>866.6</ele>
        <time>2022-08-29T08:58:53Z</time>
      </trkpt>
      <trkpt lat="47.89687" lon="6.88377">
        <ele>866.4</ele>
        <time>2022-08-29T08:58:54Z</time>
      </trkpt>
      <trkpt lat="47.89686" lon="6.88376">
        <ele>866.6</ele>
        <time>2022-08-29T08:58:55Z</time>
      </trkpt>
      <trkpt lat="47.89686" lon="6.88374">
        <ele>866.4</ele>
        <time>2022-08-29T08:58:56Z</time>
      </trkpt>
      <trkpt lat="47.89686" lon="6.88373">
        <ele>866.2</ele>
        <time>2022-08-29T08:58:57Z</time>
      </trkpt>
      <trkpt lat="47.89686" lon="6.88371">
        <ele>866</ele>
        <time>2022-08-29T08:58:58Z</time>
      </trkpt>
      <trkpt lat="47.89686" lon="6.88369">
        <ele>865.7</ele>
        <time>2022-08-29T08:58:59Z</time>
      </trkpt>
      <trkpt lat="47.89685" lon="6.88367">
        <ele>865.9</ele>
        <time>2022-08-29T08:59:00Z</time>
      </trkpt>
      <trkpt lat="47.89685" lon="6.88366">
        <ele>865.7</ele>
        <time>2022-08-29T08:59:01Z</time>
      </trkpt>
      <trkpt lat="47.89685" lon="6.88364">
        <ele>865.5</ele>
        <time>2022-08-29T08:59:02Z</time>
      </trkpt>
      <trkpt lat="47.89685" lon="6.88363">
        <ele>865.3</ele>
        <time>2022-08-29T08:59:03Z</time>
      </trkpt>
      <trkpt lat="47.89684" lon="6.88361">
        <ele>865.5</ele>
        <time>2022-08-29T08:59:04Z</time>
      </trkpt>
      <trkpt lat="47.89684" lon="6.8836">
        <ele>865.4</ele>
        <time>2022-08-29T08:59:05Z</time>
      </trkpt>
      <trkpt lat="47.89683" lon="6.88358">
        <ele>865.6</ele>
        <time>2022-08-29T08:59:06Z</time>
      </trkpt>
      <trkpt lat="47.89683" lon="6.88357">
        <ele>865.4</ele>
        <time>2022-08-29T08:59:07Z</time>
      </trkpt>
      <trkpt lat="47.89682" lon="6.88355">
        <ele>865.6</ele>
        <time>2022-08-29T08:59:08Z</time>
      </trkpt>
      <trkpt lat="47.89681" lon="6.88354">
        <ele>865.9</ele>
        <time>2022-08-29T08:59:09Z</time>
      </trkpt>
      <trkpt lat="47.89681" lon="6.88353">
        <ele>865.8</ele>
        <time>2022-08-29T08:59:10Z</time>
      </trkpt>
      <trkpt lat="47.8968" lon="6.88352">
        <ele>866.1</ele>
        <time>2022-08-29T08:59:11Z</time>
      </trkpt>
      <trkpt lat="47.8968" lon="6.8835">
        <ele>865.8</ele>
        <time>2022-08-29T08:59:12Z</time>
      </trkpt>
      <trkpt lat="47.8968" lon="6.88349">
        <ele>865.7</ele>
        <time>2022-08-29T08:59:13Z</time>
      </trkpt>
      <trkpt lat="47.8968" lon="6.88347">
        <ele>865.5</ele>
        <time>2022-08-29T08:59:14Z</time>
      </trkpt>
      <trkpt lat="47.8968" lon="6.88346">
        <ele>865.3</ele>
        <time>2022-08-29T08:59:15Z</time>
      </trkpt>
      <trkpt lat="47.8968" lon="6.88344">
        <ele>865.1</ele>
        <time>2022-08-29T08:59:16Z</time>
      </trkpt>
      <trkpt lat="47.8968" lon="6.88343">
        <ele>864.9</ele>
        <time>2022-08-29T08:59:17Z</time>
      </trkpt>
      <trkpt lat="47.8968" lon="6.88342">
        <ele>864.8</ele>
        <time>2022-08-29T08:59:18Z</time>
      </trkpt>
      <trkpt lat="47.89679" lon="6.88341">
        <ele>865.1</ele>
        <time>2022-08-29T08:59:19Z</time>
      </trkpt>
      <trkpt lat="47.89679" lon="6.8834">
        <ele>865</ele>
        <time>2022-08-29T08:59:20Z</time>
      </trkpt>
      <trkpt lat="47.89678" lon="6.88339">
        <ele>865.2</ele>
        <time>2022-08-29T08:59:21Z</time>
      </trkpt>
      <trkpt lat="47.89677" lon="6.88338">
        <ele>865.5</ele>
        <time>2022-08-29T08:59:22Z</time>
      </trkpt>
      <trkpt lat="47.89676" lon="6.88337">
        <ele>865.8</ele>
        <time>2022-08-29T08:59:23Z</time>
      </trkpt>
      <trkpt lat="47.89675" lon="6.88336">
        <ele>866.1</ele>
        <time>2022-08-29T08:59:24Z</time>
      </trkpt>
      <trkpt lat="47.89675" lon="6.88334">
        <ele>865.8</ele>
        <time>2022-08-29T08:59:25Z</time>
      </trkpt>
      <trkpt lat="47.89675" lon="6.88333">
        <ele>865.6</ele>
        <time>2022-08-29T08:59:26Z</time>
      </trkpt>
      <trkpt lat="47.89674" lon="6.88331">
        <ele>865.6</ele>
        <time>2022-08-29T08:59:27Z</time>
      </trkpt>
      <trkpt lat="47.89674" lon="6.8833">
        <ele>865.3</ele>
        <time>2022-08-29T08:59:28Z</time>
      </trkpt>
      <trkpt lat="47.89674" lon="6.88328">
        <ele>864.9</ele>
        <time>2022-08-29T08:59:29Z</time>
      </trkpt>
      <trkpt lat="47.89674" lon="6.88327">
        <ele>864.7</ele>
        <time>2022-08-29T08:59:30Z</time>
      </trkpt>
      <trkpt lat="47.89673" lon="6.88325">
        <ele>864.6</ele>
        <time>2022-08-29T08:59:31Z</time>
      </trkpt>
      <trkpt lat="47.89673" lon="6.88324">
        <ele>864.4</ele>
        <time>2022-08-29T08:59:32Z</time>
      </trkpt>
      <trkpt lat="47.89672" lon="6.88322">
        <ele>864.4</ele>
        <time>2022-08-29T08:59:33Z</time>
      </trkpt>
      <trkpt lat="47.89672" lon="6.88321">
        <ele>864.1</ele>
        <time>2022-08-29T08:59:34Z</time>
      </trkpt>
      <trkpt lat="47.89671" lon="6.88319">
        <ele>864.1</ele>
        <time>2022-08-29T08:59:35Z</time>
      </trkpt>
      <trkpt lat="47.89671" lon="6.88318">
        <ele>863.9</ele>
        <time>2022-08-29T08:59:36Z</time>
      </trkpt>
      <trkpt lat="47.89671" lon="6.88317">
        <ele>863.7</ele>
        <time>2022-08-29T08:59:37Z</time>
      </trkpt>
      <trkpt lat="47.89671" lon="6.88315">
        <ele>863.2</ele>
        <time>2022-08-29T08:59:38Z</time>
      </trkpt>
      <trkpt lat="47.8967" lon="6.88314">
        <ele>863.4</ele>
        <time>2022-08-29T08:59:39Z</time>
      </trkpt>
      <trkpt lat="47.8967" lon="6.88313">
        <ele>863.2</ele>
        <time>2022-08-29T08:59:40Z</time>
      </trkpt>
      <trkpt lat="47.89669" lon="6.88312">
        <ele>863.4</ele>
        <time>2022-08-29T08:59:41Z</time>
      </trkpt>
      <trkpt lat="47.89669" lon="6.88311">
        <ele>863.2</ele>
        <time>2022-08-29T08:59:42Z</time>
      </trkpt>
      <trkpt lat="47.89668" lon="6.88309">
        <ele>863.2</ele>
        <time>2022-08-29T08:59:43Z</time>
      </trkpt>
      <trkpt lat="47.89667" lon="6.88308">
        <ele>863.4</ele>
        <time>2022-08-29T08:59:44Z</time>
      </trkpt>
      <trkpt lat="47.89667" lon="6.88307">
        <ele>863.2</ele>
        <time>2022-08-29T08:59:45Z</time>
      </trkpt>
      <trkpt lat="47.89666" lon="6.88306">
        <ele>863.3</ele>
        <time>2022-08-29T08:59:46Z</time>
      </trkpt>
      <trkpt lat="47.89665" lon="6.88305">
        <ele>863.2</ele>
        <time>2022-08-29T08:59:47Z</time>
      </trkpt>
      <trkpt lat="47.89665" lon="6.88304">
        <ele>862.9</ele>
        <time>2022-08-29T08:59:48Z</time>
      </trkpt>
      <trkpt lat="47.89664" lon="6.88303">
        <ele>862.9</ele>
        <time>2022-08-29T08:59:49Z</time>
      </trkpt>
      <trkpt lat="47.89664" lon="6.88302">
        <ele>862.5</ele>
        <time>2022-08-29T08:59:50Z</time>
      </trkpt>
      <trkpt lat="47.89663" lon="6.88301">
        <ele>862.5</ele>
        <time>2022-08-29T08:59:51Z</time>
      </trkpt>
      <trkpt lat="47.89663" lon="6.883">
        <ele>862.2</ele>
        <time>2022-08-29T08:59:52Z</time>
      </trkpt>
      <trkpt lat="47.89663" lon="6.88299">
        <ele>861.9</ele>
        <time>2022-08-29T08:59:53Z</time>
      </trkpt>
      <trkpt lat="47.89662" lon="6.88298">
        <ele>861.8</ele>
        <time>2022-08-29T08:59:54Z</time>
      </trkpt>
      <trkpt lat="47.89662" lon="6.88297">
        <ele>861.5</ele>
        <time>2022-08-29T08:59:55Z</time>
      </trkpt>
      <trkpt lat="47.89662" lon="6.88295">
        <ele>860.9</ele>
        <time>2022-08-29T08:59:56Z</time>
      </trkpt>
      <trkpt lat="47.89661" lon="6.88294">
        <ele>860.9</ele>
        <time>2022-08-29T08:59:57Z</time>
      </trkpt>
      <trkpt lat="47.89661" lon="6.88292">
        <ele>860.2</ele>
        <time>2022-08-29T08:59:58Z</time>
      </trkpt>
      <trkpt lat="47.8966" lon="6.88291">
        <ele>860.2</ele>
        <time>2022-08-29T08:59:59Z</time>
      </trkpt>
      <trkpt lat="47.89659" lon="6.88289">
        <ele>859.9</ele>
        <time>2022-08-29T09:00:00Z</time>
      </trkpt>
      <trkpt lat="47.89658" lon="6.88287">
        <ele>859.6</ele>
        <time>2022-08-29T09:00:01Z</time>
      </trkpt>
      <trkpt lat="47.89658" lon="6.88285">
        <ele>859</ele>
        <time>2022-08-29T09:00:02Z</time>
      </trkpt>
      <trkpt lat="47.89657" lon="6.88284">
        <ele>859</ele>
        <time>2022-08-29T09:00:03Z</time>
      </trkpt>
      <trkpt lat="47.89657" lon="6.88282">
        <ele>858.4</ele>
        <time>2022-08-29T09:00:04Z</time>
      </trkpt>
      <trkpt lat="47.89656" lon="6.88281">
        <ele>858.4</ele>
        <time>2022-08-29T09:00:05Z</time>
      </trkpt>
      <trkpt lat="47.89656" lon="6.88279">
        <ele>857.8</ele>
        <time>2022-08-29T09:00:06Z</time>
      </trkpt>
      <trkpt lat="47.89655" lon="6.88277">
        <ele>857.5</ele>
        <time>2022-08-29T09:00:07Z</time>
      </trkpt>
      <trkpt lat="47.89654" lon="6.88276">
        <ele>857.5</ele>
        <time>2022-08-29T09:00:08Z</time>
      </trkpt>
      <trkpt lat="47.89654" lon="6.88275">
        <ele>857.1</ele>
        <time>2022-08-29T09:00:09Z</time>
      </trkpt>
      <trkpt lat="47.89653" lon="6.88274">
        <ele>857.1</ele>
        <time>2022-08-29T09:00:10Z</time>
      </trkpt>
      <trkpt lat="47.89652" lon="6.88273">
        <ele>857.1</ele>
        <time>2022-08-29T09:00:11Z</time>
      </trkpt>
      <trkpt lat="47.89651" lon="6.88271">
        <ele>856.8</ele>
        <time>2022-08-29T09:00:12Z</time>
      </trkpt>
      <trkpt lat="47.8965" lon="6.8827">
        <ele>856.8</ele>
        <time>2022-08-29T09:00:13Z</time>
      </trkpt>
      <trkpt lat="47.89649" lon="6.88269">
        <ele>856.8</ele>
        <time>2022-08-29T09:00:14Z</time>
      </trkpt>
      <trkpt lat="47.89649" lon="6.88267">
        <ele>856.1</ele>
        <time>2022-08-29T09:00:15Z</time>
      </trkpt>
      <trkpt lat="47.89648" lon="6.88266">
        <ele>856.1</ele>
        <time>2022-08-29T09:00:16Z</time>
      </trkpt>
      <trkpt lat="47.89647" lon="6.88265">
        <ele>856.1</ele>
        <time>2022-08-29T09:00:17Z</time>
      </trkpt>
      <trkpt lat="47.89646" lon="6.88263">
        <ele>855.8</ele>
        <time>2022-08-29T09:00:18Z</time>
      </trkpt>
      <trkpt lat="47.89646" lon="6.88262">
        <ele>855.4</ele>
        <time>2022-08-29T09:00:19Z</time>
      </trkpt>
      <trkpt lat="47.89645" lon="6.88261">
        <ele>855.5</ele>
        <time>2022-08-29T09:00:20Z</time>
      </trkpt>
      <trkpt lat="47.89645" lon="6.8826">
        <ele>855.1</ele>
        <time>2022-08-29T09:00:21Z</time>
      </trkpt>
      <trkpt lat="47.89644" lon="6.88259">
        <ele>855.1</ele>
        <time>2022-08-29T09:00:22Z</time>
      </trkpt>
      <trkpt lat="47.89643" lon="6.88258">
        <ele>855.2</ele>
        <time>2022-08-29T09:00:23Z</time>
      </trkpt>
      <trkpt lat="47.89643" lon="6.88257">
        <ele>854.8</ele>
        <time>2022-08-29T09:00:24Z</time>
      </trkpt>
      <trkpt lat="47.89642" lon="6.88256">
        <ele>854.8</ele>
        <time>2022-08-29T09:00:25Z</time>
      </trkpt>
      <trkpt lat="47.89641" lon="6.88256">
        <ele>855.2</ele>
        <time>2022-08-29T09:00:26Z</time>
      </trkpt>
      <trkpt lat="47.89641" lon="6.88255">
        <ele>854.9</ele>
        <time>2022-08-29T09:00:27Z</time>
      </trkpt>
      <trkpt lat="47.8964" lon="6.88254">
        <ele>854.9</ele>
        <time>2022-08-29T09:00:29Z</time>
      </trkpt>
      <trkpt lat="47.89639" lon="6.88253">
        <ele>854.9</ele>
        <time>2022-08-29T09:00:31Z</time>
      </trkpt>
      <trkpt lat="47.89638" lon="6.88253">
        <ele>855.1</ele>
        <time>2022-08-29T09:00:33Z</time>
      </trkpt>
      <trkpt lat="47.89637" lon="6.88252">
        <ele>854.8</ele>
        <time>2022-08-29T09:00:34Z</time>
      </trkpt>
      <trkpt lat="47.89637" lon="6.88251">
        <ele>854.5</ele>
        <time>2022-08-29T09:00:35Z</time>
      </trkpt>
      <trkpt lat="47.89636" lon="6.8825">
        <ele>854.3</ele>
        <time>2022-08-29T09:00:36Z</time>
      </trkpt>
      <trkpt lat="47.89635" lon="6.88249">
        <ele>854.1</ele>
        <time>2022-08-29T09:00:37Z</time>
      </trkpt>
      <trkpt lat="47.89634" lon="6.88248">
        <ele>853.9</ele>
        <time>2022-08-29T09:00:38Z</time>
      </trkpt>
      <trkpt lat="47.89633" lon="6.88247">
        <ele>853.7</ele>
        <time>2022-08-29T09:00:39Z</time>
      </trkpt>
      <trkpt lat="47.89632" lon="6.88246">
        <ele>853.6</ele>
        <time>2022-08-29T09:00:40Z</time>
      </trkpt>
      <trkpt lat="47.8963" lon="6.88245">
        <ele>853.5</ele>
        <time>2022-08-29T09:00:41Z</time>
      </trkpt>
      <trkpt lat="47.89629" lon="6.88244">
        <ele>853.4</ele>
        <time>2022-08-29T09:00:42Z</time>
      </trkpt>
      <trkpt lat="47.89628" lon="6.88244">
        <ele>853.5</ele>
        <time>2022-08-29T09:00:43Z</time>
      </trkpt>
      <trkpt lat="47.89627" lon="6.88243">
        <ele>853.3</ele>
        <time>2022-08-29T09:00:44Z</time>
      </trkpt>
      <trkpt lat="47.89626" lon="6.88243">
        <ele>853.5</ele>
        <time>2022-08-29T09:00:45Z</time>
      </trkpt>
      <trkpt lat="47.89625" lon="6.88243">
        <ele>853.6</ele>
        <time>2022-08-29T09:00:46Z</time>
      </trkpt>
      <trkpt lat="47.89625" lon="6.88242">
        <ele>853.3</ele>
        <time>2022-08-29T09:00:47Z</time>
      </trkpt>
      <trkpt lat="47.89624" lon="6.88242">
        <ele>853.5</ele>
        <time>2022-08-29T09:00:48Z</time>
      </trkpt>
      <trkpt lat="47.89623" lon="6.88242">
        <ele>853.6</ele>
        <time>2022-08-29T09:00:50Z</time>
      </trkpt>
      <trkpt lat="47.89622" lon="6.88242">
        <ele>853.8</ele>
        <time>2022-08-29T09:00:51Z</time>
      </trkpt>
      <trkpt lat="47.89621" lon="6.88241">
        <ele>853.6</ele>
        <time>2022-08-29T09:00:52Z</time>
      </trkpt>
      <trkpt lat="47.8962" lon="6.88241">
        <ele>853.8</ele>
        <time>2022-08-29T09:00:53Z</time>
      </trkpt>
      <trkpt lat="47.89619" lon="6.88241">
        <ele>853.9</ele>
        <time>2022-08-29T09:00:54Z</time>
      </trkpt>
      <trkpt lat="47.89618" lon="6.8824">
        <ele>853.8</ele>
        <time>2022-08-29T09:00:55Z</time>
      </trkpt>
      <trkpt lat="47.89617" lon="6.8824">
        <ele>854</ele>
        <time>2022-08-29T09:00:56Z</time>
      </trkpt>
      <trkpt lat="47.89616" lon="6.88239">
        <ele>853.9</ele>
        <time>2022-08-29T09:00:57Z</time>
      </trkpt>
      <trkpt lat="47.89615" lon="6.88239">
        <ele>854</ele>
        <time>2022-08-29T09:00:58Z</time>
      </trkpt>
      <trkpt lat="47.89614" lon="6.88238">
        <ele>854</ele>
        <time>2022-08-29T09:00:59Z</time>
      </trkpt>
      <trkpt lat="47.89613" lon="6.88237">
        <ele>853.9</ele>
        <time>2022-08-29T09:01:00Z</time>
      </trkpt>
      <trkpt lat="47.89612" lon="6.88237">
        <ele>854.1</ele>
        <time>2022-08-29T09:01:01Z</time>
      </trkpt>
      <trkpt lat="47.89612" lon="6.88236">
        <ele>853.8</ele>
        <time>2022-08-29T09:01:02Z</time>
      </trkpt>
      <trkpt lat="47.89611" lon="6.88236">
        <ele>854</ele>
        <time>2022-08-29T09:01:03Z</time>
      </trkpt>
      <trkpt lat="47.8961" lon="6.88236">
        <ele>854</ele>
        <time>2022-08-29T09:01:04Z</time>
      </trkpt>
      <trkpt lat="47.89609" lon="6.88236">
        <ele>854</ele>
        <time>2022-08-29T09:01:05Z</time>
      </trkpt>
      <trkpt lat="47.89608" lon="6.88236">
        <ele>854</ele>
        <time>2022-08-29T09:01:06Z</time>
      </trkpt>
      <trkpt lat="47.89607" lon="6.88235">
        <ele>853.8</ele>
        <time>2022-08-29T09:01:07Z</time>
      </trkpt>
      <trkpt lat="47.89606" lon="6.88235">
        <ele>853.9</ele>
        <time>2022-08-29T09:01:08Z</time>
      </trkpt>
      <trkpt lat="47.89605" lon="6.88235">
        <ele>853.9</ele>
        <time>2022-08-29T09:01:09Z</time>
      </trkpt>
      <trkpt lat="47.89604" lon="6.88235">
        <ele>853.9</ele>
        <time>2022-08-29T09:01:10Z</time>
      </trkpt>
      <trkpt lat="47.89603" lon="6.88236">
        <ele>854.1</ele>
        <time>2022-08-29T09:01:14Z</time>
      </trkpt>
      <trkpt lat="47.89602" lon="6.88236">
        <ele>854.1</ele>
        <time>2022-08-29T09:01:15Z</time>
      </trkpt>
      <trkpt lat="47.89601" lon="6.88236">
        <ele>854.2</ele>
        <time>2022-08-29T09:01:16Z</time>
      </trkpt>
      <trkpt lat="47.89601" lon="6.88237">
        <ele>854.4</ele>
        <time>2022-08-29T09:01:17Z</time>
      </trkpt>
      <trkpt lat="47.896" lon="6.88237">
        <ele>854.4</ele>
        <time>2022-08-29T09:01:18Z</time>
      </trkpt>
      <trkpt lat="47.89599" lon="6.88236">
        <ele>854.2</ele>
        <time>2022-08-29T09:01:19Z</time>
      </trkpt>
      <trkpt lat="47.89598" lon="6.88236">
        <ele>854.2</ele>
        <time>2022-08-29T09:01:20Z</time>
      </trkpt>
      <trkpt lat="47.89597" lon="6.88236">
        <ele>854.2</ele>
        <time>2022-08-29T09:01:21Z</time>
      </trkpt>
      <trkpt lat="47.89596" lon="6.88236">
        <ele>854.3</ele>
        <time>2022-08-29T09:01:22Z</time>
      </trkpt>
      <trkpt lat="47.89595" lon="6.88235">
        <ele>854.1</ele>
        <time>2022-08-29T09:01:23Z</time>
      </trkpt>
      <trkpt lat="47.89594" lon="6.88235">
        <ele>854.1</ele>
        <time>2022-08-29T09:01:24Z</time>
      </trkpt>
      <trkpt lat="47.89593" lon="6.88234">
        <ele>853.9</ele>
        <time>2022-08-29T09:01:25Z</time>
      </trkpt>
      <trkpt lat="47.89592" lon="6.88234">
        <ele>853.9</ele>
        <time>2022-08-29T09:01:27Z</time>
      </trkpt>
      <trkpt lat="47.89591" lon="6.88233">
        <ele>853.8</ele>
        <time>2022-08-29T09:01:28Z</time>
      </trkpt>
      <trkpt lat="47.8959" lon="6.88233">
        <ele>853.8</ele>
        <time>2022-08-29T09:01:29Z</time>
      </trkpt>
      <trkpt lat="47.89589" lon="6.88232">
        <ele>853.6</ele>
        <time>2022-08-29T09:01:30Z</time>
      </trkpt>
      <trkpt lat="47.89588" lon="6.88232">
        <ele>853.7</ele>
        <time>2022-08-29T09:01:31Z</time>
      </trkpt>
      <trkpt lat="47.89587" lon="6.88232">
        <ele>853.7</ele>
        <time>2022-08-29T09:01:32Z</time>
      </trkpt>
      <trkpt lat="47.89586" lon="6.88231">
        <ele>853.5</ele>
        <time>2022-08-29T09:01:33Z</time>
      </trkpt>
      <trkpt lat="47.89584" lon="6.88231">
        <ele>853.6</ele>
        <time>2022-08-29T09:01:34Z</time>
      </trkpt>
      <trkpt lat="47.89582" lon="6.8823">
        <ele>853.3</ele>
        <time>2022-08-29T09:01:35Z</time>
      </trkpt>
      <trkpt lat="47.89581" lon="6.8823">
        <ele>853.2</ele>
        <time>2022-08-29T09:01:36Z</time>
      </trkpt>
      <trkpt lat="47.89579" lon="6.8823">
        <ele>853.1</ele>
        <time>2022-08-29T09:01:37Z</time>
      </trkpt>
      <trkpt lat="47.89578" lon="6.88229">
        <ele>852.8</ele>
        <time>2022-08-29T09:01:38Z</time>
      </trkpt>
      <trkpt lat="47.89576" lon="6.88229">
        <ele>852.7</ele>
        <time>2022-08-29T09:01:39Z</time>
      </trkpt>
      <trkpt lat="47.89575" lon="6.88229">
        <ele>852.6</ele>
        <time>2022-08-29T09:01:40Z</time>
      </trkpt>
      <trkpt lat="47.89574" lon="6.88229">
        <ele>852.6</ele>
        <time>2022-08-29T09:01:41Z</time>
      </trkpt>
      <trkpt lat="47.89573" lon="6.88228">
        <ele>852.4</ele>
        <time>2022-08-29T09:01:42Z</time>
      </trkpt>
      <trkpt lat="47.89572" lon="6.88228">
        <ele>852.3</ele>
        <time>2022-08-29T09:01:54Z</time>
      </trkpt>
      <trkpt lat="47.89571" lon="6.88227">
        <ele>852.1</ele>
        <time>2022-08-29T09:01:55Z</time>
      </trkpt>
      <trkpt lat="47.8957" lon="6.88227">
        <ele>852</ele>
        <time>2022-08-29T09:01:56Z</time>
      </trkpt>
      <trkpt lat="47.89569" lon="6.88227">
        <ele>852</ele>
        <time>2022-08-29T09:01:57Z</time>
      </trkpt>
      <trkpt lat="47.89568" lon="6.88227">
        <ele>851.9</ele>
        <time>2022-08-29T09:01:59Z</time>
      </trkpt>
      <trkpt lat="47.89567" lon="6.88227">
        <ele>851.9</ele>
        <time>2022-08-29T09:02:00Z</time>
      </trkpt>
      <trkpt lat="47.89567" lon="6.88228">
        <ele>852</ele>
        <time>2022-08-29T09:02:01Z</time>
      </trkpt>
      <trkpt lat="47.89566" lon="6.88228">
        <ele>851.9</ele>
        <time>2022-08-29T09:02:02Z</time>
      </trkpt>
      <trkpt lat="47.89565" lon="6.88229">
        <ele>851.9</ele>
        <time>2022-08-29T09:02:03Z</time>
      </trkpt>
      <trkpt lat="47.89564" lon="6.88229">
        <ele>851.8</ele>
        <time>2022-08-29T09:02:04Z</time>
      </trkpt>
      <trkpt lat="47.89563" lon="6.8823">
        <ele>851.8</ele>
        <time>2022-08-29T09:02:05Z</time>
      </trkpt>
      <trkpt lat="47.89563" lon="6.88231">
        <ele>851.9</ele>
        <time>2022-08-29T09:02:06Z</time>
      </trkpt>
      <trkpt lat="47.89562" lon="6.88231">
        <ele>851.8</ele>
        <time>2022-08-29T09:02:07Z</time>
      </trkpt>
      <trkpt lat="47.89561" lon="6.88232">
        <ele>851.8</ele>
        <time>2022-08-29T09:02:08Z</time>
      </trkpt>
      <trkpt lat="47.8956" lon="6.88233">
        <ele>851.8</ele>
        <time>2022-08-29T09:03:17Z</time>
      </trkpt>
      <trkpt lat="47.8956" lon="6.88234">
        <ele>851.9</ele>
        <time>2022-08-29T09:03:19Z</time>
      </trkpt>
      <trkpt lat="47.89561" lon="6.88233">
        <ele>851.9</ele>
        <time>2022-08-29T09:03:31Z</time>
      </trkpt>
      <trkpt lat="47.89561" lon="6.88232">
        <ele>851.8</ele>
        <time>2022-08-29T09:03:32Z</time>
      </trkpt>
      <trkpt lat="47.89561" lon="6.88233">
        <ele>851.9</ele>
        <time>2022-08-29T09:03:33Z</time>
      </trkpt>
      <trkpt lat="47.89562" lon="6.88233">
        <ele>852</ele>
        <time>2022-08-29T09:03:34Z</time>
      </trkpt>
      <trkpt lat="47.89562" lon="6.88234">
        <ele>852</ele>
        <time>2022-08-29T09:03:35Z</time>
      </trkpt>
      <trkpt lat="47.89562" lon="6.88235">
        <ele>852.1</ele>
        <time>2022-08-29T09:03:37Z</time>
      </trkpt>
      <trkpt lat="47.89562" lon="6.88236">
        <ele>852.2</ele>
        <time>2022-08-29T09:03:38Z</time>
      </trkpt>
      <trkpt lat="47.89562" lon="6.88237">
        <ele>852.3</ele>
        <time>2022-08-29T09:03:39Z</time>
      </trkpt>
      <trkpt lat="47.89562" lon="6.88239">
        <ele>852.4</ele>
        <time>2022-08-29T09:03:40Z</time>
      </trkpt>
      <trkpt lat="47.89563" lon="6.8824">
        <ele>852.6</ele>
        <time>2022-08-29T09:03:41Z</time>
      </trkpt>
      <trkpt lat="47.89563" lon="6.88241">
        <ele>852.7</ele>
        <time>2022-08-29T09:03:42Z</time>
      </trkpt>
      <trkpt lat="47.89563" lon="6.88242">
        <ele>852.7</ele>
        <time>2022-08-29T09:03:43Z</time>
      </trkpt>
      <trkpt lat="47.89563" lon="6.88243">
        <ele>852.8</ele>
        <time>2022-08-29T09:03:44Z</time>
      </trkpt>
      <trkpt lat="47.89563" lon="6.88245">
        <ele>853</ele>
        <time>2022-08-29T09:03:45Z</time>
      </trkpt>
      <trkpt lat="47.89563" lon="6.88246">
        <ele>853</ele>
        <time>2022-08-29T09:03:46Z</time>
      </trkpt>
      <trkpt lat="47.89562" lon="6.88247">
        <ele>853</ele>
        <time>2022-08-29T09:03:47Z</time>
      </trkpt>
      <trkpt lat="47.89562" lon="6.88249">
        <ele>853.1</ele>
        <time>2022-08-29T09:03:48Z</time>
      </trkpt>
      <trkpt lat="47.89562" lon="6.8825">
        <ele>853.2</ele>
        <time>2022-08-29T09:03:49Z</time>
      </trkpt>
      <trkpt lat="47.89562" lon="6.88251">
        <ele>853.2</ele>
        <time>2022-08-29T09:03:50Z</time>
      </trkpt>
      <trkpt lat="47.89562" lon="6.88253">
        <ele>853.4</ele>
        <time>2022-08-29T09:03:51Z</time>
      </trkpt>
      <trkpt lat="47.89562" lon="6.88254">
        <ele>853.4</ele>
        <time>2022-08-29T09:03:52Z</time>
      </trkpt>
      <trkpt lat="47.89562" lon="6.88256">
        <ele>853.5</ele>
        <time>2022-08-29T09:03:53Z</time>
      </trkpt>
      <trkpt lat="47.89562" lon="6.88257">
        <ele>853.6</ele>
        <time>2022-08-29T09:03:54Z</time>
      </trkpt>
      <trkpt lat="47.89562" lon="6.88259">
        <ele>853.7</ele>
        <time>2022-08-29T09:03:55Z</time>
      </trkpt>
      <trkpt lat="47.89562" lon="6.8826">
        <ele>853.8</ele>
        <time>2022-08-29T09:03:56Z</time>
      </trkpt>
      <trkpt lat="47.89562" lon="6.88261">
        <ele>853.9</ele>
        <time>2022-08-29T09:03:57Z</time>
      </trkpt>
      <trkpt lat="47.89562" lon="6.88262">
        <ele>853.9</ele>
        <time>2022-08-29T09:03:58Z</time>
      </trkpt>
      <trkpt lat="47.89563" lon="6.88264">
        <ele>854.2</ele>
        <time>2022-08-29T09:03:59Z</time>
      </trkpt>
      <trkpt lat="47.89563" lon="6.88265">
        <ele>854.3</ele>
        <time>2022-08-29T09:04:00Z</time>
      </trkpt>
      <trkpt lat="47.89563" lon="6.88267">
        <ele>854.4</ele>
        <time>2022-08-29T09:04:01Z</time>
      </trkpt>
      <trkpt lat="47.89564" lon="6.88268">
        <ele>854.6</ele>
        <time>2022-08-29T09:04:02Z</time>
      </trkpt>
      <trkpt lat="47.89565" lon="6.8827">
        <ele>854.9</ele>
        <time>2022-08-29T09:04:03Z</time>
      </trkpt>
      <trkpt lat="47.89565" lon="6.88271">
        <ele>855</ele>
        <time>2022-08-29T09:04:04Z</time>
      </trkpt>
      <trkpt lat="47.89566" lon="6.88273">
        <ele>855.2</ele>
        <time>2022-08-29T09:04:05Z</time>
      </trkpt>
      <trkpt lat="47.89566" lon="6.88274">
        <ele>855.3</ele>
        <time>2022-08-29T09:04:06Z</time>
      </trkpt>
      <trkpt lat="47.89566" lon="6.88276">
        <ele>855.4</ele>
        <time>2022-08-29T09:04:07Z</time>
      </trkpt>
      <trkpt lat="47.89567" lon="6.88277">
        <ele>855.6</ele>
        <time>2022-08-29T09:04:08Z</time>
      </trkpt>
      <trkpt lat="47.89566" lon="6.88278">
        <ele>855.5</ele>
        <time>2022-08-29T09:04:09Z</time>
      </trkpt>
      <trkpt lat="47.89566" lon="6.8828">
        <ele>855.8</ele>
        <time>2022-08-29T09:04:10Z</time>
      </trkpt>
      <trkpt lat="47.89566" lon="6.88281">
        <ele>856</ele>
        <time>2022-08-29T09:04:11Z</time>
      </trkpt>
      <trkpt lat="47.89566" lon="6.88283">
        <ele>856.2</ele>
        <time>2022-08-29T09:04:12Z</time>
      </trkpt>
      <trkpt lat="47.89566" lon="6.88284">
        <ele>856.4</ele>
        <time>2022-08-29T09:04:13Z</time>
      </trkpt>
      <trkpt lat="47.89567" lon="6.88286">
        <ele>856.8</ele>
        <time>2022-08-29T09:04:14Z</time>
      </trkpt>
      <trkpt lat="47.89567" lon="6.88287">
        <ele>857</ele>
        <time>2022-08-29T09:04:15Z</time>
      </trkpt>
      <trkpt lat="47.89567" lon="6.88288">
        <ele>857.1</ele>
        <time>2022-08-29T09:04:16Z</time>
      </trkpt>
      <trkpt lat="47.89567" lon="6.8829">
        <ele>857.4</ele>
        <time>2022-08-29T09:04:17Z</time>
      </trkpt>
      <trkpt lat="47.89567" lon="6.88291">
        <ele>857.6</ele>
        <time>2022-08-29T09:04:18Z</time>
      </trkpt>
      <trkpt lat="47.89566" lon="6.88293">
        <ele>857.6</ele>
        <time>2022-08-29T09:04:19Z</time>
      </trkpt>
      <trkpt lat="47.89566" lon="6.88294">
        <ele>857.8</ele>
        <time>2022-08-29T09:04:20Z</time>
      </trkpt>
      <trkpt lat="47.89566" lon="6.88296">
        <ele>858</ele>
        <time>2022-08-29T09:04:21Z</time>
      </trkpt>
      <trkpt lat="47.89566" lon="6.88297">
        <ele>858.2</ele>
        <time>2022-08-29T09:04:22Z</time>
      </trkpt>
      <trkpt lat="47.89566" lon="6.88299">
        <ele>858.5</ele>
        <time>2022-08-29T09:04:23Z</time>
      </trkpt>
      <trkpt lat="47.89566" lon="6.883">
        <ele>858.6</ele>
        <time>2022-08-29T09:04:24Z</time>
      </trkpt>
      <trkpt lat="47.89566" lon="6.88302">
        <ele>858.9</ele>
        <time>2022-08-29T09:04:25Z</time>
      </trkpt>
      <trkpt lat="47.89566" lon="6.88303">
        <ele>859</ele>
        <time>2022-08-29T09:04:26Z</time>
      </trkpt>
      <trkpt lat="47.89566" lon="6.88305">
        <ele>859.3</ele>
        <time>2022-08-29T09:04:27Z</time>
      </trkpt>
      <trkpt lat="47.89567" lon="6.88306">
        <ele>859.8</ele>
        <time>2022-08-29T09:04:28Z</time>
      </trkpt>
      <trkpt lat="47.89567" lon="6.88308">
        <ele>860</ele>
        <time>2022-08-29T09:04:29Z</time>
      </trkpt>
      <trkpt lat="47.89567" lon="6.88309">
        <ele>860.2</ele>
        <time>2022-08-29T09:04:30Z</time>
      </trkpt>
      <trkpt lat="47.89567" lon="6.8831">
        <ele>860.3</ele>
        <time>2022-08-29T09:04:31Z</time>
      </trkpt>
      <trkpt lat="47.89567" lon="6.88312">
        <ele>860.6</ele>
        <time>2022-08-29T09:04:32Z</time>
      </trkpt>
      <trkpt lat="47.89567" lon="6.88313">
        <ele>860.7</ele>
        <time>2022-08-29T09:04:33Z</time>
      </trkpt>
      <trkpt lat="47.89567" lon="6.88315">
        <ele>860.9</ele>
        <time>2022-08-29T09:04:34Z</time>
      </trkpt>
      <trkpt lat="47.89568" lon="6.88316">
        <ele>861.5</ele>
        <time>2022-08-29T09:04:35Z</time>
      </trkpt>
      <trkpt lat="47.89568" lon="6.88318">
        <ele>861.7</ele>
        <time>2022-08-29T09:04:36Z</time>
      </trkpt>
      <trkpt lat="47.89568" lon="6.8832">
        <ele>862</ele>
        <time>2022-08-29T09:04:37Z</time>
      </trkpt>
      <trkpt lat="47.89568" lon="6.88321">
        <ele>862.1</ele>
        <time>2022-08-29T09:04:38Z</time>
      </trkpt>
      <trkpt lat="47.89568" lon="6.88322">
        <ele>862.3</ele>
        <time>2022-08-29T09:04:39Z</time>
      </trkpt>
      <trkpt lat="47.89568" lon="6.88324">
        <ele>862.5</ele>
        <time>2022-08-29T09:04:40Z</time>
      </trkpt>
      <trkpt lat="47.89568" lon="6.88325">
        <ele>862.7</ele>
        <time>2022-08-29T09:04:41Z</time>
      </trkpt>
      <trkpt lat="47.89568" lon="6.88327">
        <ele>863</ele>
        <time>2022-08-29T09:04:42Z</time>
      </trkpt>
      <trkpt lat="47.89568" lon="6.88328">
        <ele>863.1</ele>
        <time>2022-08-29T09:04:43Z</time>
      </trkpt>
      <trkpt lat="47.89567" lon="6.88329">
        <ele>862.8</ele>
        <time>2022-08-29T09:04:44Z</time>
      </trkpt>
      <trkpt lat="47.89567" lon="6.88331">
        <ele>863</ele>
        <time>2022-08-29T09:04:45Z</time>
      </trkpt>
      <trkpt lat="47.89567" lon="6.88332">
        <ele>863.2</ele>
        <time>2022-08-29T09:04:46Z</time>
      </trkpt>
      <trkpt lat="47.89567" lon="6.88333">
        <ele>863.3</ele>
        <time>2022-08-29T09:04:47Z</time>
      </trkpt>
      <trkpt lat="47.89566" lon="6.88335">
        <ele>862.8</ele>
        <time>2022-08-29T09:04:48Z</time>
      </trkpt>
      <trkpt lat="47.89566" lon="6.88336">
        <ele>862.8</ele>
        <time>2022-08-29T09:04:49Z</time>
      </trkpt>
      <trkpt lat="47.89566" lon="6.88337">
        <ele>862.8</ele>
        <time>2022-08-29T09:04:50Z</time>
      </trkpt>
      <trkpt lat="47.89566" lon="6.88339">
        <ele>862.7</ele>
        <time>2022-08-29T09:04:51Z</time>
      </trkpt>
      <trkpt lat="47.89566" lon="6.8834">
        <ele>862.7</ele>
        <time>2022-08-29T09:04:52Z</time>
      </trkpt>
      <trkpt lat="47.89566" lon="6.88342">
        <ele>862.7</ele>
        <time>2022-08-29T09:04:53Z</time>
      </trkpt>
      <trkpt lat="47.89566" lon="6.88343">
        <ele>862.6</ele>
        <time>2022-08-29T09:04:54Z</time>
      </trkpt>
      <trkpt lat="47.89566" lon="6.88345">
        <ele>862.6</ele>
        <time>2022-08-29T09:04:55Z</time>
      </trkpt>
      <trkpt lat="47.89566" lon="6.88346">
        <ele>862.5</ele>
        <time>2022-08-29T09:04:56Z</time>
      </trkpt>
      <trkpt lat="47.89566" lon="6.88348">
        <ele>862.5</ele>
        <time>2022-08-29T09:04:57Z</time>
      </trkpt>
      <trkpt lat="47.89566" lon="6.8835">
        <ele>862.4</ele>
        <time>2022-08-29T09:04:58Z</time>
      </trkpt>
      <trkpt lat="47.89566" lon="6.88352">
        <ele>862.4</ele>
        <time>2022-08-29T09:04:59Z</time>
      </trkpt>
      <trkpt lat="47.89565" lon="6.88353">
        <ele>861.9</ele>
        <time>2022-08-29T09:05:00Z</time>
      </trkpt>
      <trkpt lat="47.89565" lon="6.88355">
        <ele>861.9</ele>
        <time>2022-08-29T09:05:01Z</time>
      </trkpt>
      <trkpt lat="47.89565" lon="6.88356">
        <ele>861.9</ele>
        <time>2022-08-29T09:05:02Z</time>
      </trkpt>
      <trkpt lat="47.89565" lon="6.88358">
        <ele>861.8</ele>
        <time>2022-08-29T09:05:03Z</time>
      </trkpt>
      <trkpt lat="47.89565" lon="6.88359">
        <ele>861.8</ele>
        <time>2022-08-29T09:05:04Z</time>
      </trkpt>
      <trkpt lat="47.89565" lon="6.88361">
        <ele>861.7</ele>
        <time>2022-08-29T09:05:05Z</time>
      </trkpt>
      <trkpt lat="47.89564" lon="6.88362">
        <ele>861.4</ele>
        <time>2022-08-29T09:05:06Z</time>
      </trkpt>
      <trkpt lat="47.89564" lon="6.88363">
        <ele>861.5</ele>
        <time>2022-08-29T09:05:07Z</time>
      </trkpt>
      <trkpt lat="47.89564" lon="6.88364">
        <ele>861.7</ele>
        <time>2022-08-29T09:05:08Z</time>
      </trkpt>
      <trkpt lat="47.89564" lon="6.88366">
        <ele>861.9</ele>
        <time>2022-08-29T09:05:09Z</time>
      </trkpt>
      <trkpt lat="47.89563" lon="6.88367">
        <ele>861.6</ele>
        <time>2022-08-29T09:05:10Z</time>
      </trkpt>
      <trkpt lat="47.89563" lon="6.88368">
        <ele>861.7</ele>
        <time>2022-08-29T09:05:11Z</time>
      </trkpt>
      <trkpt lat="47.89563" lon="6.88369">
        <ele>861.8</ele>
        <time>2022-08-29T09:05:12Z</time>
      </trkpt>
      <trkpt lat="47.89563" lon="6.8837">
        <ele>861.9</ele>
        <time>2022-08-29T09:05:13Z</time>
      </trkpt>
      <trkpt lat="47.89562" lon="6.88371">
        <ele>861.6</ele>
        <time>2022-08-29T09:05:14Z</time>
      </trkpt>
      <trkpt lat="47.89562" lon="6.88373">
        <ele>861.8</ele>
        <time>2022-08-29T09:05:15Z</time>
      </trkpt>
      <trkpt lat="47.89562" lon="6.88375">
        <ele>862.1</ele>
        <time>2022-08-29T09:05:16Z</time>
      </trkpt>
      <trkpt lat="47.89561" lon="6.88376">
        <ele>861.8</ele>
        <time>2022-08-29T09:05:17Z</time>
      </trkpt>
      <trkpt lat="47.89561" lon="6.88378">
        <ele>862</ele>
        <time>2022-08-29T09:05:18Z</time>
      </trkpt>
      <trkpt lat="47.89561" lon="6.88379">
        <ele>862.1</ele>
        <time>2022-08-29T09:05:19Z</time>
      </trkpt>
      <trkpt lat="47.89561" lon="6.88381">
        <ele>862.3</ele>
        <time>2022-08-29T09:05:20Z</time>
      </trkpt>
      <trkpt lat="47.8956" lon="6.88382">
        <ele>862</ele>
        <time>2022-08-29T09:05:21Z</time>
      </trkpt>
      <trkpt lat="47.8956" lon="6.88384">
        <ele>862.2</ele>
        <time>2022-08-29T09:05:22Z</time>
      </trkpt>
      <trkpt lat="47.8956" lon="6.88385">
        <ele>862.3</ele>
        <time>2022-08-29T09:05:23Z</time>
      </trkpt>
      <trkpt lat="47.89559" lon="6.88387">
        <ele>862.2</ele>
        <time>2022-08-29T09:05:24Z</time>
      </trkpt>
      <trkpt lat="47.89559" lon="6.88388">
        <ele>862.3</ele>
        <time>2022-08-29T09:05:25Z</time>
      </trkpt>
      <trkpt lat="47.89558" lon="6.88389">
        <ele>862</ele>
        <time>2022-08-29T09:05:26Z</time>
      </trkpt>
      <trkpt lat="47.89558" lon="6.8839">
        <ele>862.2</ele>
        <time>2022-08-29T09:05:27Z</time>
      </trkpt>
      <trkpt lat="47.89557" lon="6.88391">
        <ele>862</ele>
        <time>2022-08-29T09:05:28Z</time>
      </trkpt>
      <trkpt lat="47.89557" lon="6.88392">
        <ele>862.3</ele>
        <time>2022-08-29T09:05:29Z</time>
      </trkpt>
      <trkpt lat="47.89556" lon="6.88393">
        <ele>862.1</ele>
        <time>2022-08-29T09:05:30Z</time>
      </trkpt>
      <trkpt lat="47.89556" lon="6.88394">
        <ele>862.3</ele>
        <time>2022-08-29T09:05:31Z</time>
      </trkpt>
      <trkpt lat="47.89555" lon="6.88396">
        <ele>862.3</ele>
        <time>2022-08-29T09:05:32Z</time>
      </trkpt>
      <trkpt lat="47.89555" lon="6.88397">
        <ele>862.5</ele>
        <time>2022-08-29T09:05:33Z</time>
      </trkpt>
      <trkpt lat="47.89555" lon="6.88398">
        <ele>862.7</ele>
        <time>2022-08-29T09:05:34Z</time>
      </trkpt>
      <trkpt lat="47.89554" lon="6.884">
        <ele>862.6</ele>
        <time>2022-08-29T09:05:35Z</time>
      </trkpt>
      <trkpt lat="47.89554" lon="6.88401">
        <ele>862.8</ele>
        <time>2022-08-29T09:05:36Z</time>
      </trkpt>
      <trkpt lat="47.89554" lon="6.88403">
        <ele>863.3</ele>
        <time>2022-08-29T09:05:37Z</time>
      </trkpt>
      <trkpt lat="47.89553" lon="6.88404">
        <ele>863</ele>
        <time>2022-08-29T09:05:38Z</time>
      </trkpt>
      <trkpt lat="47.89553" lon="6.88406">
        <ele>863.4</ele>
        <time>2022-08-29T09:05:39Z</time>
      </trkpt>
      <trkpt lat="47.89553" lon="6.88407">
        <ele>863.6</ele>
        <time>2022-08-29T09:05:40Z</time>
      </trkpt>
      <trkpt lat="47.89553" lon="6.88408">
        <ele>863.8</ele>
        <time>2022-08-29T09:05:41Z</time>
      </trkpt>
      <trkpt lat="47.89552" lon="6.8841">
        <ele>863.8</ele>
        <time>2022-08-29T09:05:42Z</time>
      </trkpt>
      <trkpt lat="47.89552" lon="6.88411">
        <ele>864</ele>
        <time>2022-08-29T09:05:43Z</time>
      </trkpt>
      <trkpt lat="47.89552" lon="6.88413">
        <ele>864.4</ele>
        <time>2022-08-29T09:05:44Z</time>
      </trkpt>
      <trkpt lat="47.89552" lon="6.88414">
        <ele>864.6</ele>
        <time>2022-08-29T09:05:45Z</time>
      </trkpt>
      <trkpt lat="47.89552" lon="6.88415">
        <ele>864.8</ele>
        <time>2022-08-29T09:05:46Z</time>
      </trkpt>
      <trkpt lat="47.89551" lon="6.88417">
        <ele>864.8</ele>
        <time>2022-08-29T09:05:47Z</time>
      </trkpt>
      <trkpt lat="47.8955" lon="6.88418">
        <ele>864.4</ele>
        <time>2022-08-29T09:05:48Z</time>
      </trkpt>
      <trkpt lat="47.89549" lon="6.88419">
        <ele>864.1</ele>
        <time>2022-08-29T09:05:49Z</time>
      </trkpt>
      <trkpt lat="47.89548" lon="6.8842">
        <ele>863.7</ele>
        <time>2022-08-29T09:05:50Z</time>
      </trkpt>
      <trkpt lat="47.89547" lon="6.88421">
        <ele>863.4</ele>
        <time>2022-08-29T09:05:51Z</time>
      </trkpt>
      <trkpt lat="47.89546" lon="6.88423">
        <ele>863.3</ele>
        <time>2022-08-29T09:05:52Z</time>
      </trkpt>
      <trkpt lat="47.89546" lon="6.88424">
        <ele>863.4</ele>
        <time>2022-08-29T09:05:53Z</time>
      </trkpt>
      <trkpt lat="47.89545" lon="6.88426">
        <ele>863.3</ele>
        <time>2022-08-29T09:05:54Z</time>
      </trkpt>
      <trkpt lat="47.89545" lon="6.88428">
        <ele>863.6</ele>
        <time>2022-08-29T09:05:55Z</time>
      </trkpt>
      <trkpt lat="47.89545" lon="6.8843">
        <ele>864</ele>
        <time>2022-08-29T09:05:56Z</time>
      </trkpt>
      <trkpt lat="47.89544" lon="6.88432">
        <ele>863.8</ele>
        <time>2022-08-29T09:05:57Z</time>
      </trkpt>
      <trkpt lat="47.89544" lon="6.88433">
        <ele>864</ele>
        <time>2022-08-29T09:05:58Z</time>
      </trkpt>
      <trkpt lat="47.89543" lon="6.88435">
        <ele>863.9</ele>
        <time>2022-08-29T09:05:59Z</time>
      </trkpt>
      <trkpt lat="47.89543" lon="6.88437">
        <ele>864.3</ele>
        <time>2022-08-29T09:06:00Z</time>
      </trkpt>
      <trkpt lat="47.89542" lon="6.88438">
        <ele>864</ele>
        <time>2022-08-29T09:06:01Z</time>
      </trkpt>
      <trkpt lat="47.89542" lon="6.88439">
        <ele>864.2</ele>
        <time>2022-08-29T09:06:02Z</time>
      </trkpt>
      <trkpt lat="47.89541" lon="6.88441">
        <ele>864.1</ele>
        <time>2022-08-29T09:06:03Z</time>
      </trkpt>
      <trkpt lat="47.89541" lon="6.88442">
        <ele>864.3</ele>
        <time>2022-08-29T09:06:04Z</time>
      </trkpt>
      <trkpt lat="47.89541" lon="6.88443">
        <ele>864.4</ele>
        <time>2022-08-29T09:06:05Z</time>
      </trkpt>
      <trkpt lat="47.89541" lon="6.88445">
        <ele>864.8</ele>
        <time>2022-08-29T09:06:06Z</time>
      </trkpt>
      <trkpt lat="47.8954" lon="6.88446">
        <ele>864.4</ele>
        <time>2022-08-29T09:06:07Z</time>
      </trkpt>
      <trkpt lat="47.8954" lon="6.88447">
        <ele>864.5</ele>
        <time>2022-08-29T09:06:08Z</time>
      </trkpt>
      <trkpt lat="47.8954" lon="6.88448">
        <ele>864.5</ele>
        <time>2022-08-29T09:06:09Z</time>
      </trkpt>
      <trkpt lat="47.8954" lon="6.8845">
        <ele>864.7</ele>
        <time>2022-08-29T09:06:10Z</time>
      </trkpt>
      <trkpt lat="47.89539" lon="6.88451">
        <ele>864.3</ele>
        <time>2022-08-29T09:06:11Z</time>
      </trkpt>
      <trkpt lat="47.89539" lon="6.88453">
        <ele>864.5</ele>
        <time>2022-08-29T09:06:12Z</time>
      </trkpt>
      <trkpt lat="47.89539" lon="6.88454">
        <ele>864.5</ele>
        <time>2022-08-29T09:06:13Z</time>
      </trkpt>
      <trkpt lat="47.89539" lon="6.88456">
        <ele>864.7</ele>
        <time>2022-08-29T09:06:14Z</time>
      </trkpt>
      <trkpt lat="47.89539" lon="6.88458">
        <ele>864.8</ele>
        <time>2022-08-29T09:06:15Z</time>
      </trkpt>
      <trkpt lat="47.89538" lon="6.88459">
        <ele>864.5</ele>
        <time>2022-08-29T09:06:16Z</time>
      </trkpt>
      <trkpt lat="47.89538" lon="6.88461">
        <ele>864.6</ele>
        <time>2022-08-29T09:06:17Z</time>
      </trkpt>
      <trkpt lat="47.89538" lon="6.88463">
        <ele>864.8</ele>
        <time>2022-08-29T09:06:18Z</time>
      </trkpt>
      <trkpt lat="47.89538" lon="6.88465">
        <ele>864.9</ele>
        <time>2022-08-29T09:06:19Z</time>
      </trkpt>
      <trkpt lat="47.89538" lon="6.88467">
        <ele>865</ele>
        <time>2022-08-29T09:06:20Z</time>
      </trkpt>
      <trkpt lat="47.89538" lon="6.88469">
        <ele>865.2</ele>
        <time>2022-08-29T09:06:21Z</time>
      </trkpt>
      <trkpt lat="47.89538" lon="6.88471">
        <ele>865.3</ele>
        <time>2022-08-29T09:06:22Z</time>
      </trkpt>
      <trkpt lat="47.89539" lon="6.88473">
        <ele>865.9</ele>
        <time>2022-08-29T09:06:23Z</time>
      </trkpt>
      <trkpt lat="47.89539" lon="6.88474">
        <ele>865.9</ele>
        <time>2022-08-29T09:06:24Z</time>
      </trkpt>
      <trkpt lat="47.89539" lon="6.88476">
        <ele>865.9</ele>
        <time>2022-08-29T09:06:25Z</time>
      </trkpt>
      <trkpt lat="47.89539" lon="6.88478">
        <ele>865.9</ele>
        <time>2022-08-29T09:06:26Z</time>
      </trkpt>
      <trkpt lat="47.8954" lon="6.88479">
        <ele>866.4</ele>
        <time>2022-08-29T09:06:27Z</time>
      </trkpt>
      <trkpt lat="47.8954" lon="6.88481">
        <ele>866.4</ele>
        <time>2022-08-29T09:06:28Z</time>
      </trkpt>
      <trkpt lat="47.8954" lon="6.88483">
        <ele>866.4</ele>
        <time>2022-08-29T09:06:29Z</time>
      </trkpt>
      <trkpt lat="47.89541" lon="6.88484">
        <ele>866.9</ele>
        <time>2022-08-29T09:06:30Z</time>
      </trkpt>
      <trkpt lat="47.89541" lon="6.88486">
        <ele>866.9</ele>
        <time>2022-08-29T09:06:31Z</time>
      </trkpt>
      <trkpt lat="47.89541" lon="6.88487">
        <ele>866.9</ele>
        <time>2022-08-29T09:06:32Z</time>
      </trkpt>
      <trkpt lat="47.89541" lon="6.88489">
        <ele>867</ele>
        <time>2022-08-29T09:06:33Z</time>
      </trkpt>
      <trkpt lat="47.89541" lon="6.88491">
        <ele>867</ele>
        <time>2022-08-29T09:06:34Z</time>
      </trkpt>
      <trkpt lat="47.89542" lon="6.88492">
        <ele>867.5</ele>
        <time>2022-08-29T09:06:35Z</time>
      </trkpt>
      <trkpt lat="47.89542" lon="6.88494">
        <ele>867.6</ele>
        <time>2022-08-29T09:06:36Z</time>
      </trkpt>
      <trkpt lat="47.89542" lon="6.88496">
        <ele>867.6</ele>
        <time>2022-08-29T09:06:37Z</time>
      </trkpt>
      <trkpt lat="47.89542" lon="6.88497">
        <ele>867.6</ele>
        <time>2022-08-29T09:06:38Z</time>
      </trkpt>
      <trkpt lat="47.89542" lon="6.88498">
        <ele>867.6</ele>
        <time>2022-08-29T09:06:39Z</time>
      </trkpt>
      <trkpt lat="47.89541" lon="6.885">
        <ele>867.1</ele>
        <time>2022-08-29T09:06:40Z</time>
      </trkpt>
      <trkpt lat="47.89541" lon="6.88501">
        <ele>867.3</ele>
        <time>2022-08-29T09:06:41Z</time>
      </trkpt>
      <trkpt lat="47.89541" lon="6.88503">
        <ele>867.5</ele>
        <time>2022-08-29T09:06:42Z</time>
      </trkpt>
      <trkpt lat="47.89541" lon="6.88504">
        <ele>867.7</ele>
        <time>2022-08-29T09:06:43Z</time>
      </trkpt>
      <trkpt lat="47.89541" lon="6.88506">
        <ele>867.9</ele>
        <time>2022-08-29T09:06:44Z</time>
      </trkpt>
      <trkpt lat="47.89541" lon="6.88507">
        <ele>868</ele>
        <time>2022-08-29T09:06:45Z</time>
      </trkpt>
      <trkpt lat="47.8954" lon="6.88508">
        <ele>867.7</ele>
        <time>2022-08-29T09:06:46Z</time>
      </trkpt>
      <trkpt lat="47.8954" lon="6.88509">
        <ele>867.8</ele>
        <time>2022-08-29T09:06:47Z</time>
      </trkpt>
      <trkpt lat="47.89539" lon="6.8851">
        <ele>867.4</ele>
        <time>2022-08-29T09:06:48Z</time>
      </trkpt>
      <trkpt lat="47.89539" lon="6.88511">
        <ele>867.6</ele>
        <time>2022-08-29T09:06:49Z</time>
      </trkpt>
      <trkpt lat="47.89538" lon="6.88512">
        <ele>867.2</ele>
        <time>2022-08-29T09:06:50Z</time>
      </trkpt>
      <trkpt lat="47.89538" lon="6.88514">
        <ele>867.5</ele>
        <time>2022-08-29T09:06:51Z</time>
      </trkpt>
      <trkpt lat="47.89538" lon="6.88516">
        <ele>867.8</ele>
        <time>2022-08-29T09:06:52Z</time>
      </trkpt>
      <trkpt lat="47.89538" lon="6.88518">
        <ele>868</ele>
        <time>2022-08-29T09:06:53Z</time>
      </trkpt>
      <trkpt lat="47.89538" lon="6.8852">
        <ele>868.3</ele>
        <time>2022-08-29T09:06:54Z</time>
      </trkpt>
      <trkpt lat="47.89538" lon="6.88522">
        <ele>868.6</ele>
        <time>2022-08-29T09:06:55Z</time>
      </trkpt>
      <trkpt lat="47.89538" lon="6.88524">
        <ele>868.9</ele>
        <time>2022-08-29T09:06:56Z</time>
      </trkpt>
      <trkpt lat="47.89537" lon="6.88525">
        <ele>868.6</ele>
        <time>2022-08-29T09:06:57Z</time>
      </trkpt>
      <trkpt lat="47.89536" lon="6.88526">
        <ele>868.3</ele>
        <time>2022-08-29T09:06:58Z</time>
      </trkpt>
      <trkpt lat="47.89536" lon="6.88527">
        <ele>868.4</ele>
        <time>2022-08-29T09:06:59Z</time>
      </trkpt>
      <trkpt lat="47.89535" lon="6.88528">
        <ele>868.2</ele>
        <time>2022-08-29T09:07:00Z</time>
      </trkpt>
      <trkpt lat="47.89534" lon="6.88529">
        <ele>868</ele>
        <time>2022-08-29T09:07:01Z</time>
      </trkpt>
      <trkpt lat="47.89533" lon="6.88529">
        <ele>867.5</ele>
        <time>2022-08-29T09:07:02Z</time>
      </trkpt>
      <trkpt lat="47.89532" lon="6.8853">
        <ele>867.3</ele>
        <time>2022-08-29T09:07:03Z</time>
      </trkpt>
      <trkpt lat="47.89531" lon="6.88531">
        <ele>867.2</ele>
        <time>2022-08-29T09:07:04Z</time>
      </trkpt>
      <trkpt lat="47.8953" lon="6.88531">
        <ele>866.7</ele>
        <time>2022-08-29T09:07:05Z</time>
      </trkpt>
      <trkpt lat="47.89529" lon="6.88531">
        <ele>866.3</ele>
        <time>2022-08-29T09:07:06Z</time>
      </trkpt>
      <trkpt lat="47.89528" lon="6.88532">
        <ele>866.2</ele>
        <time>2022-08-29T09:07:07Z</time>
      </trkpt>
      <trkpt lat="47.89527" lon="6.88532">
        <ele>865.8</ele>
        <time>2022-08-29T09:07:08Z</time>
      </trkpt>
      <trkpt lat="47.89526" lon="6.88532">
        <ele>865.5</ele>
        <time>2022-08-29T09:07:09Z</time>
      </trkpt>
      <trkpt lat="47.89525" lon="6.88533">
        <ele>865.4</ele>
        <time>2022-08-29T09:07:10Z</time>
      </trkpt>
      <trkpt lat="47.89524" lon="6.88533">
        <ele>865.1</ele>
        <time>2022-08-29T09:07:11Z</time>
      </trkpt>
      <trkpt lat="47.89523" lon="6.88534">
        <ele>865</ele>
        <time>2022-08-29T09:07:12Z</time>
      </trkpt>
      <trkpt lat="47.89522" lon="6.88535">
        <ele>864.9</ele>
        <time>2022-08-29T09:07:13Z</time>
      </trkpt>
      <trkpt lat="47.8952" lon="6.88536">
        <ele>864.5</ele>
        <time>2022-08-29T09:07:14Z</time>
      </trkpt>
      <trkpt lat="47.89519" lon="6.88536">
        <ele>864.1</ele>
        <time>2022-08-29T09:07:15Z</time>
      </trkpt>
      <trkpt lat="47.89518" lon="6.88537">
        <ele>864</ele>
        <time>2022-08-29T09:07:16Z</time>
      </trkpt>
      <trkpt lat="47.89517" lon="6.88538">
        <ele>863.9</ele>
        <time>2022-08-29T09:07:17Z</time>
      </trkpt>
      <trkpt lat="47.89516" lon="6.88539">
        <ele>863.8</ele>
        <time>2022-08-29T09:07:18Z</time>
      </trkpt>
      <trkpt lat="47.89516" lon="6.8854">
        <ele>864.1</ele>
        <time>2022-08-29T09:07:19Z</time>
      </trkpt>
      <trkpt lat="47.89515" lon="6.88541">
        <ele>864</ele>
        <time>2022-08-29T09:07:20Z</time>
      </trkpt>
      <trkpt lat="47.89515" lon="6.88543">
        <ele>864.4</ele>
        <time>2022-08-29T09:07:21Z</time>
      </trkpt>
      <trkpt lat="47.89514" lon="6.88544">
        <ele>864.3</ele>
        <time>2022-08-29T09:07:22Z</time>
      </trkpt>
      <trkpt lat="47.89514" lon="6.88545">
        <ele>864.6</ele>
        <time>2022-08-29T09:07:23Z</time>
      </trkpt>
      <trkpt lat="47.89513" lon="6.88547">
        <ele>864.7</ele>
        <time>2022-08-29T09:07:24Z</time>
      </trkpt>
      <trkpt lat="47.89513" lon="6.88548">
        <ele>864.9</ele>
        <time>2022-08-29T09:07:25Z</time>
      </trkpt>
      <trkpt lat="47.89512" lon="6.88549">
        <ele>864.8</ele>
        <time>2022-08-29T09:07:26Z</time>
      </trkpt>
      <trkpt lat="47.89512" lon="6.8855">
        <ele>865</ele>
        <time>2022-08-29T09:07:27Z</time>
      </trkpt>
      <trkpt lat="47.89511" lon="6.88551">
        <ele>864.9</ele>
        <time>2022-08-29T09:07:28Z</time>
      </trkpt>
      <trkpt lat="47.8951" lon="6.88551">
        <ele>864.6</ele>
        <time>2022-08-29T09:07:29Z</time>
      </trkpt>
      <trkpt lat="47.89509" lon="6.88552">
        <ele>864.4</ele>
        <time>2022-08-29T09:07:30Z</time>
      </trkpt>
      <trkpt lat="47.89508" lon="6.88553">
        <ele>864.3</ele>
        <time>2022-08-29T09:07:31Z</time>
      </trkpt>
      <trkpt lat="47.89507" lon="6.88554">
        <ele>864.2</ele>
        <time>2022-08-29T09:07:32Z</time>
      </trkpt>
      <trkpt lat="47.89506" lon="6.88555">
        <ele>864</ele>
        <time>2022-08-29T09:07:33Z</time>
      </trkpt>
      <trkpt lat="47.89505" lon="6.88555">
        <ele>863.7</ele>
        <time>2022-08-29T09:07:34Z</time>
      </trkpt>
      <trkpt lat="47.89504" lon="6.88556">
        <ele>863.6</ele>
        <time>2022-08-29T09:07:35Z</time>
      </trkpt>
      <trkpt lat="47.89503" lon="6.88558">
        <ele>863.7</ele>
        <time>2022-08-29T09:07:36Z</time>
      </trkpt>
      <trkpt lat="47.89503" lon="6.88559">
        <ele>863.9</ele>
        <time>2022-08-29T09:07:37Z</time>
      </trkpt>
      <trkpt lat="47.89502" lon="6.88561">
        <ele>864.1</ele>
        <time>2022-08-29T09:07:38Z</time>
      </trkpt>
      <trkpt lat="47.89501" lon="6.88562">
        <ele>864</ele>
        <time>2022-08-29T09:07:39Z</time>
      </trkpt>
      <trkpt lat="47.89501" lon="6.88565">
        <ele>864.7</ele>
        <time>2022-08-29T09:07:40Z</time>
      </trkpt>
      <trkpt lat="47.89501" lon="6.88567">
        <ele>865.2</ele>
        <time>2022-08-29T09:07:41Z</time>
      </trkpt>
      <trkpt lat="47.895" lon="6.88569">
        <ele>865.4</ele>
        <time>2022-08-29T09:07:42Z</time>
      </trkpt>
      <trkpt lat="47.895" lon="6.88571">
        <ele>865.9</ele>
        <time>2022-08-29T09:07:43Z</time>
      </trkpt>
      <trkpt lat="47.89499" lon="6.88573">
        <ele>866.1</ele>
        <time>2022-08-29T09:07:44Z</time>
      </trkpt>
      <trkpt lat="47.89499" lon="6.88575">
        <ele>866.6</ele>
        <time>2022-08-29T09:07:45Z</time>
      </trkpt>
      <trkpt lat="47.89499" lon="6.88577">
        <ele>867.1</ele>
        <time>2022-08-29T09:07:46Z</time>
      </trkpt>
      <trkpt lat="47.89498" lon="6.88579">
        <ele>867.3</ele>
        <time>2022-08-29T09:07:47Z</time>
      </trkpt>
      <trkpt lat="47.89498" lon="6.88581">
        <ele>867.8</ele>
        <time>2022-08-29T09:07:48Z</time>
      </trkpt>
      <trkpt lat="47.89498" lon="6.88583">
        <ele>868.3</ele>
        <time>2022-08-29T09:07:49Z</time>
      </trkpt>
      <trkpt lat="47.89497" lon="6.88585">
        <ele>868.4</ele>
        <time>2022-08-29T09:07:50Z</time>
      </trkpt>
      <trkpt lat="47.89497" lon="6.88587">
        <ele>868.9</ele>
        <time>2022-08-29T09:07:51Z</time>
      </trkpt>
      <trkpt lat="47.89496" lon="6.88589">
        <ele>869.1</ele>
        <time>2022-08-29T09:07:52Z</time>
      </trkpt>
      <trkpt lat="47.89496" lon="6.88591">
        <ele>869.6</ele>
        <time>2022-08-29T09:07:53Z</time>
      </trkpt>
      <trkpt lat="47.89495" lon="6.88592">
        <ele>869.5</ele>
        <time>2022-08-29T09:07:54Z</time>
      </trkpt>
      <trkpt lat="47.89495" lon="6.88594">
        <ele>870</ele>
        <time>2022-08-29T09:07:55Z</time>
      </trkpt>
      <trkpt lat="47.89494" lon="6.88596">
        <ele>870.1</ele>
        <time>2022-08-29T09:07:56Z</time>
      </trkpt>
      <trkpt lat="47.89494" lon="6.88597">
        <ele>870.4</ele>
        <time>2022-08-29T09:07:57Z</time>
      </trkpt>
      <trkpt lat="47.89494" lon="6.88599">
        <ele>870.9</ele>
        <time>2022-08-29T09:07:58Z</time>
      </trkpt>
      <trkpt lat="47.89494" lon="6.88601">
        <ele>871.4</ele>
        <time>2022-08-29T09:07:59Z</time>
      </trkpt>
      <trkpt lat="47.89493" lon="6.88604">
        <ele>871.8</ele>
        <time>2022-08-29T09:08:00Z</time>
      </trkpt>
      <trkpt lat="47.89493" lon="6.88606">
        <ele>872.2</ele>
        <time>2022-08-29T09:08:01Z</time>
      </trkpt>
      <trkpt lat="47.89493" lon="6.88608">
        <ele>872.7</ele>
        <time>2022-08-29T09:08:02Z</time>
      </trkpt>
      <trkpt lat="47.89492" lon="6.88609">
        <ele>872.6</ele>
        <time>2022-08-29T09:08:03Z</time>
      </trkpt>
      <trkpt lat="47.89492" lon="6.88611">
        <ele>873.1</ele>
        <time>2022-08-29T09:08:04Z</time>
      </trkpt>
      <trkpt lat="47.89491" lon="6.88613">
        <ele>873.1</ele>
        <time>2022-08-29T09:08:05Z</time>
      </trkpt>
      <trkpt lat="47.89491" lon="6.88614">
        <ele>873.3</ele>
        <time>2022-08-29T09:08:06Z</time>
      </trkpt>
      <trkpt lat="47.8949" lon="6.88616">
        <ele>873.3</ele>
        <time>2022-08-29T09:08:07Z</time>
      </trkpt>
      <trkpt lat="47.8949" lon="6.88617">
        <ele>873.5</ele>
        <time>2022-08-29T09:08:08Z</time>
      </trkpt>
      <trkpt lat="47.8949" lon="6.88618">
        <ele>873.6</ele>
        <time>2022-08-29T09:08:09Z</time>
      </trkpt>
      <trkpt lat="47.89489" lon="6.8862">
        <ele>873.6</ele>
        <time>2022-08-29T09:08:10Z</time>
      </trkpt>
      <trkpt lat="47.89489" lon="6.88621">
        <ele>873.8</ele>
        <time>2022-08-29T09:08:11Z</time>
      </trkpt>
      <trkpt lat="47.89489" lon="6.88622">
        <ele>874</ele>
        <time>2022-08-29T09:08:12Z</time>
      </trkpt>
      <trkpt lat="47.89489" lon="6.88624">
        <ele>874.4</ele>
        <time>2022-08-29T09:08:13Z</time>
      </trkpt>
      <trkpt lat="47.89489" lon="6.88625">
        <ele>874.5</ele>
        <time>2022-08-29T09:08:14Z</time>
      </trkpt>
      <trkpt lat="47.89489" lon="6.88626">
        <ele>874.7</ele>
        <time>2022-08-29T09:08:15Z</time>
      </trkpt>
      <trkpt lat="47.89489" lon="6.88628">
        <ele>875.1</ele>
        <time>2022-08-29T09:08:16Z</time>
      </trkpt>
      <trkpt lat="47.89488" lon="6.88629">
        <ele>874.9</ele>
        <time>2022-08-29T09:08:17Z</time>
      </trkpt>
      <trkpt lat="47.89488" lon="6.8863">
        <ele>875.1</ele>
        <time>2022-08-29T09:08:18Z</time>
      </trkpt>
      <trkpt lat="47.89487" lon="6.88631">
        <ele>874.9</ele>
        <time>2022-08-29T09:08:19Z</time>
      </trkpt>
      <trkpt lat="47.89486" lon="6.88632">
        <ele>874.7</ele>
        <time>2022-08-29T09:08:20Z</time>
      </trkpt>
      <trkpt lat="47.89486" lon="6.88633">
        <ele>874.9</ele>
        <time>2022-08-29T09:08:21Z</time>
      </trkpt>
      <trkpt lat="47.89485" lon="6.88635">
        <ele>874.9</ele>
        <time>2022-08-29T09:08:22Z</time>
      </trkpt>
      <trkpt lat="47.89484" lon="6.88636">
        <ele>874.7</ele>
        <time>2022-08-29T09:08:23Z</time>
      </trkpt>
      <trkpt lat="47.89483" lon="6.88637">
        <ele>874.5</ele>
        <time>2022-08-29T09:08:24Z</time>
      </trkpt>
      <trkpt lat="47.89482" lon="6.88638">
        <ele>874.4</ele>
        <time>2022-08-29T09:08:25Z</time>
      </trkpt>
      <trkpt lat="47.89482" lon="6.88639">
        <ele>874.5</ele>
        <time>2022-08-29T09:08:26Z</time>
      </trkpt>
      <trkpt lat="47.89481" lon="6.8864">
        <ele>874.4</ele>
        <time>2022-08-29T09:08:27Z</time>
      </trkpt>
      <trkpt lat="47.8948" lon="6.88641">
        <ele>874.3</ele>
        <time>2022-08-29T09:08:28Z</time>
      </trkpt>
      <trkpt lat="47.89479" lon="6.88642">
        <ele>874.1</ele>
        <time>2022-08-29T09:08:29Z</time>
      </trkpt>
      <trkpt lat="47.89478" lon="6.88643">
        <ele>874</ele>
        <time>2022-08-29T09:08:30Z</time>
      </trkpt>
      <trkpt lat="47.89477" lon="6.88643">
        <ele>873.6</ele>
        <time>2022-08-29T09:08:31Z</time>
      </trkpt>
      <trkpt lat="47.89476" lon="6.88644">
        <ele>873.5</ele>
        <time>2022-08-29T09:08:32Z</time>
      </trkpt>
      <trkpt lat="47.89474" lon="6.88645">
        <ele>873</ele>
        <time>2022-08-29T09:08:33Z</time>
      </trkpt>
      <trkpt lat="47.89473" lon="6.88646">
        <ele>872.8</ele>
        <time>2022-08-29T09:08:34Z</time>
      </trkpt>
      <trkpt lat="47.89472" lon="6.88647">
        <ele>872.7</ele>
        <time>2022-08-29T09:08:35Z</time>
      </trkpt>
      <trkpt lat="47.89471" lon="6.88648">
        <ele>872.8</ele>
        <time>2022-08-29T09:08:36Z</time>
      </trkpt>
      <trkpt lat="47.8947" lon="6.88649">
        <ele>872.9</ele>
        <time>2022-08-29T09:08:37Z</time>
      </trkpt>
      <trkpt lat="47.89469" lon="6.8865">
        <ele>872.9</ele>
        <time>2022-08-29T09:08:38Z</time>
      </trkpt>
      <trkpt lat="47.89469" lon="6.88651">
        <ele>873.2</ele>
        <time>2022-08-29T09:08:39Z</time>
      </trkpt>
      <trkpt lat="47.89468" lon="6.88652">
        <ele>873.2</ele>
        <time>2022-08-29T09:08:40Z</time>
      </trkpt>
      <trkpt lat="47.89467" lon="6.88653">
        <ele>873.3</ele>
        <time>2022-08-29T09:08:41Z</time>
      </trkpt>
      <trkpt lat="47.89466" lon="6.88654">
        <ele>873.4</ele>
        <time>2022-08-29T09:08:42Z</time>
      </trkpt>
      <trkpt lat="47.89465" lon="6.88655">
        <ele>873.4</ele>
        <time>2022-08-29T09:08:43Z</time>
      </trkpt>
      <trkpt lat="47.89464" lon="6.88656">
        <ele>873.5</ele>
        <time>2022-08-29T09:08:44Z</time>
      </trkpt>
      <trkpt lat="47.89463" lon="6.88656">
        <ele>873.4</ele>
        <time>2022-08-29T09:08:45Z</time>
      </trkpt>
      <trkpt lat="47.89463" lon="6.88657">
        <ele>873.6</ele>
        <time>2022-08-29T09:08:46Z</time>
      </trkpt>
      <trkpt lat="47.89462" lon="6.88657">
        <ele>873.4</ele>
        <time>2022-08-29T09:08:47Z</time>
      </trkpt>
      <trkpt lat="47.89461" lon="6.88658">
        <ele>873.5</ele>
        <time>2022-08-29T09:08:48Z</time>
      </trkpt>
      <trkpt lat="47.8946" lon="6.88659">
        <ele>873.6</ele>
        <time>2022-08-29T09:08:49Z</time>
      </trkpt>
      <trkpt lat="47.89459" lon="6.8866">
        <ele>873.7</ele>
        <time>2022-08-29T09:08:50Z</time>
      </trkpt>
      <trkpt lat="47.89458" lon="6.88661">
        <ele>873.7</ele>
        <time>2022-08-29T09:08:51Z</time>
      </trkpt>
      <trkpt lat="47.89457" lon="6.88662">
        <ele>873.8</ele>
        <time>2022-08-29T09:08:52Z</time>
      </trkpt>
      <trkpt lat="47.89456" lon="6.88662">
        <ele>873.7</ele>
        <time>2022-08-29T09:08:53Z</time>
      </trkpt>
      <trkpt lat="47.89455" lon="6.88663">
        <ele>873.7</ele>
        <time>2022-08-29T09:08:54Z</time>
      </trkpt>
      <trkpt lat="47.89454" lon="6.88663">
        <ele>873.6</ele>
        <time>2022-08-29T09:08:55Z</time>
      </trkpt>
      <trkpt lat="47.89453" lon="6.88664">
        <ele>873.7</ele>
        <time>2022-08-29T09:08:56Z</time>
      </trkpt>
      <trkpt lat="47.89451" lon="6.88665">
        <ele>873.6</ele>
        <time>2022-08-29T09:08:57Z</time>
      </trkpt>
      <trkpt lat="47.8945" lon="6.88665">
        <ele>873.4</ele>
        <time>2022-08-29T09:08:58Z</time>
      </trkpt>
      <trkpt lat="47.89449" lon="6.88666">
        <ele>873.5</ele>
        <time>2022-08-29T09:08:59Z</time>
      </trkpt>
      <trkpt lat="47.89448" lon="6.88667">
        <ele>873.5</ele>
        <time>2022-08-29T09:09:00Z</time>
      </trkpt>
      <trkpt lat="47.89448" lon="6.88669">
        <ele>873.8</ele>
        <time>2022-08-29T09:09:01Z</time>
      </trkpt>
      <trkpt lat="47.89447" lon="6.8867">
        <ele>873.7</ele>
        <time>2022-08-29T09:09:02Z</time>
      </trkpt>
      <trkpt lat="47.89446" lon="6.88671">
        <ele>873.7</ele>
        <time>2022-08-29T09:09:03Z</time>
      </trkpt>
      <trkpt lat="47.89445" lon="6.88672">
        <ele>873.7</ele>
        <time>2022-08-29T09:09:04Z</time>
      </trkpt>
      <trkpt lat="47.89445" lon="6.88674">
        <ele>873.9</ele>
        <time>2022-08-29T09:09:05Z</time>
      </trkpt>
      <trkpt lat="47.89444" lon="6.88675">
        <ele>873.8</ele>
        <time>2022-08-29T09:09:06Z</time>
      </trkpt>
      <trkpt lat="47.89442" lon="6.88677">
        <ele>873.6</ele>
        <time>2022-08-29T09:09:23Z</time>
      </trkpt>
      <trkpt lat="47.89441" lon="6.88677">
        <ele>873.4</ele>
        <time>2022-08-29T09:09:24Z</time>
      </trkpt>
      <trkpt lat="47.8944" lon="6.88678">
        <ele>873.4</ele>
        <time>2022-08-29T09:09:25Z</time>
      </trkpt>
      <trkpt lat="47.89439" lon="6.88678">
        <ele>873.2</ele>
        <time>2022-08-29T09:09:27Z</time>
      </trkpt>
      <trkpt lat="47.89438" lon="6.88678">
        <ele>873</ele>
        <time>2022-08-29T09:09:28Z</time>
      </trkpt>
      <trkpt lat="47.89437" lon="6.88678">
        <ele>872.8</ele>
        <time>2022-08-29T09:09:29Z</time>
      </trkpt>
      <trkpt lat="47.89436" lon="6.88678">
        <ele>872.6</ele>
        <time>2022-08-29T09:09:30Z</time>
      </trkpt>
      <trkpt lat="47.89435" lon="6.88678">
        <ele>872.4</ele>
        <time>2022-08-29T09:09:31Z</time>
      </trkpt>
      <trkpt lat="47.89434" lon="6.88677">
        <ele>872.1</ele>
        <time>2022-08-29T09:09:32Z</time>
      </trkpt>
      <trkpt lat="47.89432" lon="6.88677">
        <ele>871.7</ele>
        <time>2022-08-29T09:09:33Z</time>
      </trkpt>
      <trkpt lat="47.89431" lon="6.88677">
        <ele>871.5</ele>
        <time>2022-08-29T09:09:34Z</time>
      </trkpt>
      <trkpt lat="47.8943" lon="6.88677">
        <ele>871.3</ele>
        <time>2022-08-29T09:09:35Z</time>
      </trkpt>
      <trkpt lat="47.89429" lon="6.88677">
        <ele>871.1</ele>
        <time>2022-08-29T09:09:37Z</time>
      </trkpt>
      <trkpt lat="47.89428" lon="6.88677">
        <ele>870.9</ele>
        <time>2022-08-29T09:09:39Z</time>
      </trkpt>
      <trkpt lat="47.89427" lon="6.88677">
        <ele>870.7</ele>
        <time>2022-08-29T09:09:40Z</time>
      </trkpt>
      <trkpt lat="47.89424" lon="6.88675">
        <ele>870</ele>
        <time>2022-08-29T09:09:50Z</time>
      </trkpt>
      <trkpt lat="47.89417" lon="6.88673">
        <ele>868.5</ele>
      </trkpt>
      <trkpt lat="47.89414" lon="6.88662">
        <ele>866.7</ele>
      </trkpt>
      <trkpt lat="47.89413" lon="6.88654">
        <ele>865.2</ele>
      </trkpt>
      <trkpt lat="47.89414" lon="6.8865">
        <ele>864.6</ele>
        <time>2022-08-29T09:16:35Z</time>
      </trkpt>
      <trkpt lat="47.89414" lon="6.88648">
        <ele>864.3</ele>
        <time>2022-08-29T09:16:36Z</time>
      </trkpt>
      <trkpt lat="47.89414" lon="6.88647">
        <ele>864.1</ele>
        <time>2022-08-29T09:16:37Z</time>
      </trkpt>
      <trkpt lat="47.89415" lon="6.88646">
        <ele>864</ele>
        <time>2022-08-29T09:16:38Z</time>
      </trkpt>
      <trkpt lat="47.89415" lon="6.88645">
        <ele>863.9</ele>
        <time>2022-08-29T09:16:39Z</time>
      </trkpt>
      <trkpt lat="47.89415" lon="6.88644">
        <ele>863.7</ele>
        <time>2022-08-29T09:16:40Z</time>
      </trkpt>
      <trkpt lat="47.89416" lon="6.88643">
        <ele>863.6</ele>
        <time>2022-08-29T09:16:41Z</time>
      </trkpt>
      <trkpt lat="47.89416" lon="6.88642">
        <ele>863.5</ele>
        <time>2022-08-29T09:16:42Z</time>
      </trkpt>
      <trkpt lat="47.89416" lon="6.88641">
        <ele>863.3</ele>
        <time>2022-08-29T09:16:43Z</time>
      </trkpt>
      <trkpt lat="47.89417" lon="6.8864">
        <ele>863.2</ele>
        <time>2022-08-29T09:16:44Z</time>
      </trkpt>
      <trkpt lat="47.89417" lon="6.88638">
        <ele>862.9</ele>
        <time>2022-08-29T09:16:45Z</time>
      </trkpt>
      <trkpt lat="47.89417" lon="6.88637">
        <ele>862.6</ele>
        <time>2022-08-29T09:16:46Z</time>
      </trkpt>
      <trkpt lat="47.89417" lon="6.88636">
        <ele>862.4</ele>
        <time>2022-08-29T09:16:47Z</time>
      </trkpt>
      <trkpt lat="47.89418" lon="6.88634">
        <ele>862.1</ele>
        <time>2022-08-29T09:16:48Z</time>
      </trkpt>
      <trkpt lat="47.89418" lon="6.88633">
        <ele>861.9</ele>
        <time>2022-08-29T09:16:49Z</time>
      </trkpt>
      <trkpt lat="47.89418" lon="6.88632">
        <ele>861.7</ele>
        <time>2022-08-29T09:16:50Z</time>
      </trkpt>
      <trkpt lat="47.89419" lon="6.88631">
        <ele>861.6</ele>
        <time>2022-08-29T09:16:51Z</time>
      </trkpt>
      <trkpt lat="47.89419" lon="6.8863">
        <ele>861.4</ele>
        <time>2022-08-29T09:16:52Z</time>
      </trkpt>
      <trkpt lat="47.89419" lon="6.88629">
        <ele>861.2</ele>
        <time>2022-08-29T09:16:53Z</time>
      </trkpt>
      <trkpt lat="47.8942" lon="6.88628">
        <ele>861.1</ele>
        <time>2022-08-29T09:16:54Z</time>
      </trkpt>
      <trkpt lat="47.8942" lon="6.88627">
        <ele>860.9</ele>
        <time>2022-08-29T09:16:55Z</time>
      </trkpt>
      <trkpt lat="47.8942" lon="6.88626">
        <ele>860.7</ele>
        <time>2022-08-29T09:16:56Z</time>
      </trkpt>
      <trkpt lat="47.89421" lon="6.88625">
        <ele>860.6</ele>
        <time>2022-08-29T09:16:57Z</time>
      </trkpt>
      <trkpt lat="47.89421" lon="6.88624">
        <ele>860.4</ele>
        <time>2022-08-29T09:16:58Z</time>
      </trkpt>
      <trkpt lat="47.89422" lon="6.88623">
        <ele>860.3</ele>
        <time>2022-08-29T09:16:59Z</time>
      </trkpt>
      <trkpt lat="47.89422" lon="6.88622">
        <ele>860.1</ele>
        <time>2022-08-29T09:17:00Z</time>
      </trkpt>
      <trkpt lat="47.89423" lon="6.88621">
        <ele>860</ele>
        <time>2022-08-29T09:17:01Z</time>
      </trkpt>
      <trkpt lat="47.89423" lon="6.8862">
        <ele>859.8</ele>
        <time>2022-08-29T09:17:02Z</time>
      </trkpt>
      <trkpt lat="47.89424" lon="6.88619">
        <ele>859.8</ele>
        <time>2022-08-29T09:17:03Z</time>
      </trkpt>
      <trkpt lat="47.89424" lon="6.88618">
        <ele>859.5</ele>
        <time>2022-08-29T09:17:04Z</time>
      </trkpt>
      <trkpt lat="47.89424" lon="6.88617">
        <ele>859.3</ele>
        <time>2022-08-29T09:17:05Z</time>
      </trkpt>
      <trkpt lat="47.89424" lon="6.88616">
        <ele>859.1</ele>
        <time>2022-08-29T09:17:06Z</time>
      </trkpt>
      <trkpt lat="47.89424" lon="6.88615">
        <ele>858.9</ele>
        <time>2022-08-29T09:17:07Z</time>
      </trkpt>
      <trkpt lat="47.89424" lon="6.88614">
        <ele>858.7</ele>
        <time>2022-08-29T09:17:08Z</time>
      </trkpt>
      <trkpt lat="47.89425" lon="6.88612">
        <ele>858.4</ele>
        <time>2022-08-29T09:17:10Z</time>
      </trkpt>
      <trkpt lat="47.89425" lon="6.88611">
        <ele>858.2</ele>
        <time>2022-08-29T09:17:11Z</time>
      </trkpt>
      <trkpt lat="47.89425" lon="6.8861">
        <ele>858</ele>
        <time>2022-08-29T09:17:12Z</time>
      </trkpt>
      <trkpt lat="47.89425" lon="6.88609">
        <ele>857.7</ele>
        <time>2022-08-29T09:17:13Z</time>
      </trkpt>
      <trkpt lat="47.89425" lon="6.88608">
        <ele>857.5</ele>
        <time>2022-08-29T09:17:14Z</time>
      </trkpt>
      <trkpt lat="47.89426" lon="6.88606">
        <ele>857.2</ele>
        <time>2022-08-29T09:17:15Z</time>
      </trkpt>
      <trkpt lat="47.89426" lon="6.88604">
        <ele>856.8</ele>
        <time>2022-08-29T09:17:16Z</time>
      </trkpt>
      <trkpt lat="47.89426" lon="6.88603">
        <ele>856.6</ele>
        <time>2022-08-29T09:17:17Z</time>
      </trkpt>
      <trkpt lat="47.89426" lon="6.88602">
        <ele>856.4</ele>
        <time>2022-08-29T09:17:18Z</time>
      </trkpt>
      <trkpt lat="47.89427" lon="6.88601">
        <ele>856.3</ele>
        <time>2022-08-29T09:17:19Z</time>
      </trkpt>
      <trkpt lat="47.89427" lon="6.886">
        <ele>856.1</ele>
        <time>2022-08-29T09:17:20Z</time>
      </trkpt>
      <trkpt lat="47.89428" lon="6.88599">
        <ele>856</ele>
        <time>2022-08-29T09:17:21Z</time>
      </trkpt>
      <trkpt lat="47.89429" lon="6.88598">
        <ele>855.9</ele>
        <time>2022-08-29T09:17:23Z</time>
      </trkpt>
      <trkpt lat="47.8943" lon="6.88597">
        <ele>855.9</ele>
        <time>2022-08-29T09:17:24Z</time>
      </trkpt>
      <trkpt lat="47.8943" lon="6.88596">
        <ele>855.7</ele>
        <time>2022-08-29T09:17:25Z</time>
      </trkpt>
      <trkpt lat="47.89431" lon="6.88595">
        <ele>855.6</ele>
        <time>2022-08-29T09:17:26Z</time>
      </trkpt>
      <trkpt lat="47.89431" lon="6.88594">
        <ele>855.4</ele>
        <time>2022-08-29T09:17:27Z</time>
      </trkpt>
      <trkpt lat="47.89432" lon="6.88593">
        <ele>855.3</ele>
        <time>2022-08-29T09:17:28Z</time>
      </trkpt>
      <trkpt lat="47.89432" lon="6.88592">
        <ele>855.1</ele>
        <time>2022-08-29T09:17:34Z</time>
      </trkpt>
      <trkpt lat="47.89432" lon="6.88591">
        <ele>854.9</ele>
        <time>2022-08-29T09:17:35Z</time>
      </trkpt>
      <trkpt lat="47.89432" lon="6.88589">
        <ele>854.4</ele>
        <time>2022-08-29T09:17:36Z</time>
      </trkpt>
      <trkpt lat="47.89432" lon="6.88588">
        <ele>854.2</ele>
        <time>2022-08-29T09:17:38Z</time>
      </trkpt>
      <trkpt lat="47.89432" lon="6.88587">
        <ele>854</ele>
        <time>2022-08-29T09:17:39Z</time>
      </trkpt>
      <trkpt lat="47.89432" lon="6.88586">
        <ele>853.8</ele>
        <time>2022-08-29T09:17:40Z</time>
      </trkpt>
      <trkpt lat="47.89433" lon="6.88585">
        <ele>853.7</ele>
        <time>2022-08-29T09:17:41Z</time>
      </trkpt>
      <trkpt lat="47.89433" lon="6.88584">
        <ele>853.5</ele>
        <time>2022-08-29T09:17:42Z</time>
      </trkpt>
      <trkpt lat="47.89434" lon="6.88583">
        <ele>853.4</ele>
        <time>2022-08-29T09:17:43Z</time>
      </trkpt>
      <trkpt lat="47.89434" lon="6.88582">
        <ele>853.2</ele>
        <time>2022-08-29T09:17:44Z</time>
      </trkpt>
      <trkpt lat="47.89435" lon="6.88581">
        <ele>853.1</ele>
        <time>2022-08-29T09:17:45Z</time>
      </trkpt>
      <trkpt lat="47.89435" lon="6.88579">
        <ele>852.7</ele>
        <time>2022-08-29T09:17:46Z</time>
      </trkpt>
      <trkpt lat="47.89436" lon="6.88578">
        <ele>852.6</ele>
        <time>2022-08-29T09:17:47Z</time>
      </trkpt>
      <trkpt lat="47.89436" lon="6.88577">
        <ele>852.3</ele>
        <time>2022-08-29T09:17:48Z</time>
      </trkpt>
      <trkpt lat="47.89436" lon="6.88576">
        <ele>852.1</ele>
        <time>2022-08-29T09:17:49Z</time>
      </trkpt>
      <trkpt lat="47.89437" lon="6.88575">
        <ele>852</ele>
        <time>2022-08-29T09:17:50Z</time>
      </trkpt>
      <trkpt lat="47.89437" lon="6.88574">
        <ele>851.8</ele>
        <time>2022-08-29T09:17:51Z</time>
      </trkpt>
      <trkpt lat="47.89437" lon="6.88573">
        <ele>851.6</ele>
        <time>2022-08-29T09:17:52Z</time>
      </trkpt>
      <trkpt lat="47.89437" lon="6.88572">
        <ele>851.4</ele>
        <time>2022-08-29T09:17:53Z</time>
      </trkpt>
      <trkpt lat="47.89437" lon="6.88571">
        <ele>851.1</ele>
        <time>2022-08-29T09:17:54Z</time>
      </trkpt>
      <trkpt lat="47.89438" lon="6.8857">
        <ele>851.1</ele>
        <time>2022-08-29T09:17:55Z</time>
      </trkpt>
      <trkpt lat="47.89438" lon="6.88569">
        <ele>850.9</ele>
        <time>2022-08-29T09:17:56Z</time>
      </trkpt>
      <trkpt lat="47.89438" lon="6.88568">
        <ele>850.6</ele>
        <time>2022-08-29T09:17:57Z</time>
      </trkpt>
      <trkpt lat="47.89439" lon="6.88567">
        <ele>850.6</ele>
        <time>2022-08-29T09:17:58Z</time>
      </trkpt>
      <trkpt lat="47.89439" lon="6.88566">
        <ele>850.3</ele>
        <time>2022-08-29T09:17:59Z</time>
      </trkpt>
      <trkpt lat="47.8944" lon="6.88565">
        <ele>850.3</ele>
        <time>2022-08-29T09:18:00Z</time>
      </trkpt>
      <trkpt lat="47.8944" lon="6.88564">
        <ele>850.1</ele>
        <time>2022-08-29T09:18:01Z</time>
      </trkpt>
      <trkpt lat="47.8944" lon="6.88562">
        <ele>849.6</ele>
        <time>2022-08-29T09:18:02Z</time>
      </trkpt>
      <trkpt lat="47.8944" lon="6.88561">
        <ele>849.4</ele>
        <time>2022-08-29T09:18:03Z</time>
      </trkpt>
      <trkpt lat="47.89441" lon="6.88561">
        <ele>849.6</ele>
        <time>2022-08-29T09:18:04Z</time>
      </trkpt>
      <trkpt lat="47.89441" lon="6.8856">
        <ele>849.4</ele>
        <time>2022-08-29T09:18:05Z</time>
      </trkpt>
      <trkpt lat="47.89441" lon="6.88559">
        <ele>849.1</ele>
        <time>2022-08-29T09:18:06Z</time>
      </trkpt>
      <trkpt lat="47.89441" lon="6.88558">
        <ele>848.9</ele>
        <time>2022-08-29T09:18:07Z</time>
      </trkpt>
      <trkpt lat="47.89442" lon="6.88557">
        <ele>848.9</ele>
        <time>2022-08-29T09:18:08Z</time>
      </trkpt>
      <trkpt lat="47.89442" lon="6.88556">
        <ele>848.7</ele>
        <time>2022-08-29T09:18:09Z</time>
      </trkpt>
      <trkpt lat="47.89442" lon="6.88555">
        <ele>848.4</ele>
        <time>2022-08-29T09:18:10Z</time>
      </trkpt>
      <trkpt lat="47.89443" lon="6.88554">
        <ele>848.3</ele>
        <time>2022-08-29T09:18:11Z</time>
      </trkpt>
      <trkpt lat="47.89443" lon="6.88553">
        <ele>848.1</ele>
        <time>2022-08-29T09:18:12Z</time>
      </trkpt>
      <trkpt lat="47.89444" lon="6.88552">
        <ele>848</ele>
        <time>2022-08-29T09:18:13Z</time>
      </trkpt>
      <trkpt lat="47.89444" lon="6.88551">
        <ele>847.8</ele>
        <time>2022-08-29T09:18:14Z</time>
      </trkpt>
      <trkpt lat="47.89444" lon="6.8855">
        <ele>847.5</ele>
        <time>2022-08-29T09:18:15Z</time>
      </trkpt>
      <trkpt lat="47.89444" lon="6.88549">
        <ele>847.3</ele>
        <time>2022-08-29T09:18:16Z</time>
      </trkpt>
      <trkpt lat="47.89444" lon="6.88548">
        <ele>847</ele>
        <time>2022-08-29T09:18:17Z</time>
      </trkpt>
      <trkpt lat="47.89445" lon="6.88546">
        <ele>846.7</ele>
        <time>2022-08-29T09:18:18Z</time>
      </trkpt>
      <trkpt lat="47.89445" lon="6.88545">
        <ele>846.4</ele>
        <time>2022-08-29T09:18:19Z</time>
      </trkpt>
      <trkpt lat="47.89445" lon="6.88544">
        <ele>846.2</ele>
        <time>2022-08-29T09:18:20Z</time>
      </trkpt>
      <trkpt lat="47.89445" lon="6.88543">
        <ele>845.9</ele>
        <time>2022-08-29T09:18:21Z</time>
      </trkpt>
      <trkpt lat="47.89446" lon="6.88541">
        <ele>845.6</ele>
        <time>2022-08-29T09:18:22Z</time>
      </trkpt>
      <trkpt lat="47.89446" lon="6.8854">
        <ele>845.3</ele>
        <time>2022-08-29T09:18:23Z</time>
      </trkpt>
      <trkpt lat="47.89446" lon="6.88539">
        <ele>845.1</ele>
        <time>2022-08-29T09:18:24Z</time>
      </trkpt>
      <trkpt lat="47.89446" lon="6.88538">
        <ele>844.8</ele>
        <time>2022-08-29T09:18:25Z</time>
      </trkpt>
      <trkpt lat="47.89447" lon="6.88537">
        <ele>844.8</ele>
        <time>2022-08-29T09:18:26Z</time>
      </trkpt>
      <trkpt lat="47.89447" lon="6.88536">
        <ele>844.5</ele>
        <time>2022-08-29T09:18:27Z</time>
      </trkpt>
      <trkpt lat="47.89448" lon="6.88535">
        <ele>844.4</ele>
        <time>2022-08-29T09:18:28Z</time>
      </trkpt>
      <trkpt lat="47.89448" lon="6.88534">
        <ele>844.2</ele>
        <time>2022-08-29T09:18:29Z</time>
      </trkpt>
      <trkpt lat="47.89448" lon="6.88533">
        <ele>843.9</ele>
        <time>2022-08-29T09:18:30Z</time>
      </trkpt>
      <trkpt lat="47.89449" lon="6.88532">
        <ele>843.9</ele>
        <time>2022-08-29T09:18:31Z</time>
      </trkpt>
      <trkpt lat="47.89449" lon="6.88531">
        <ele>843.6</ele>
        <time>2022-08-29T09:18:32Z</time>
      </trkpt>
      <trkpt lat="47.89449" lon="6.88529">
        <ele>843.1</ele>
        <time>2022-08-29T09:18:33Z</time>
      </trkpt>
      <trkpt lat="47.89449" lon="6.88528">
        <ele>842.9</ele>
        <time>2022-08-29T09:18:34Z</time>
      </trkpt>
      <trkpt lat="47.8945" lon="6.88526">
        <ele>842.6</ele>
        <time>2022-08-29T09:18:35Z</time>
      </trkpt>
      <trkpt lat="47.8945" lon="6.88525">
        <ele>842.3</ele>
        <time>2022-08-29T09:18:36Z</time>
      </trkpt>
      <trkpt lat="47.8945" lon="6.88523">
        <ele>841.8</ele>
        <time>2022-08-29T09:18:37Z</time>
      </trkpt>
      <trkpt lat="47.8945" lon="6.88522">
        <ele>841.6</ele>
        <time>2022-08-29T09:18:38Z</time>
      </trkpt>
      <trkpt lat="47.8945" lon="6.8852">
        <ele>841.1</ele>
        <time>2022-08-29T09:18:39Z</time>
      </trkpt>
      <trkpt lat="47.89451" lon="6.88519">
        <ele>841</ele>
        <time>2022-08-29T09:18:40Z</time>
      </trkpt>
      <trkpt lat="47.89451" lon="6.88518">
        <ele>840.8</ele>
        <time>2022-08-29T09:18:41Z</time>
      </trkpt>
      <trkpt lat="47.89451" lon="6.88517">
        <ele>840.6</ele>
        <time>2022-08-29T09:18:42Z</time>
      </trkpt>
      <trkpt lat="47.89452" lon="6.88516">
        <ele>840.5</ele>
        <time>2022-08-29T09:18:43Z</time>
      </trkpt>
      <trkpt lat="47.89452" lon="6.88515">
        <ele>840.3</ele>
        <time>2022-08-29T09:18:44Z</time>
      </trkpt>
      <trkpt lat="47.89453" lon="6.88514">
        <ele>840.2</ele>
        <time>2022-08-29T09:18:45Z</time>
      </trkpt>
      <trkpt lat="47.89453" lon="6.88513">
        <ele>840</ele>
        <time>2022-08-29T09:18:46Z</time>
      </trkpt>
      <trkpt lat="47.89454" lon="6.88512">
        <ele>839.9</ele>
        <time>2022-08-29T09:18:48Z</time>
      </trkpt>
      <trkpt lat="47.89455" lon="6.88511">
        <ele>839.9</ele>
        <time>2022-08-29T09:18:50Z</time>
      </trkpt>
      <trkpt lat="47.89455" lon="6.8851">
        <ele>839.7</ele>
        <time>2022-08-29T09:18:51Z</time>
      </trkpt>
      <trkpt lat="47.89456" lon="6.88509">
        <ele>839.6</ele>
        <time>2022-08-29T09:18:52Z</time>
      </trkpt>
      <trkpt lat="47.89457" lon="6.88508">
        <ele>839.6</ele>
        <time>2022-08-29T09:18:54Z</time>
      </trkpt>
      <trkpt lat="47.89457" lon="6.88507">
        <ele>839.4</ele>
        <time>2022-08-29T09:18:55Z</time>
      </trkpt>
      <trkpt lat="47.89458" lon="6.88507">
        <ele>839.6</ele>
        <time>2022-08-29T09:18:56Z</time>
      </trkpt>
      <trkpt lat="47.89458" lon="6.88505">
        <ele>839.1</ele>
        <time>2022-08-29T09:18:57Z</time>
      </trkpt>
      <trkpt lat="47.89459" lon="6.88504">
        <ele>839.1</ele>
        <time>2022-08-29T09:18:58Z</time>
      </trkpt>
      <trkpt lat="47.89459" lon="6.88503">
        <ele>838.8</ele>
        <time>2022-08-29T09:18:59Z</time>
      </trkpt>
      <trkpt lat="47.8946" lon="6.88502">
        <ele>838.8</ele>
        <time>2022-08-29T09:19:00Z</time>
      </trkpt>
      <trkpt lat="47.8946" lon="6.885">
        <ele>838.4</ele>
        <time>2022-08-29T09:19:01Z</time>
      </trkpt>
      <trkpt lat="47.89461" lon="6.88499">
        <ele>838.4</ele>
        <time>2022-08-29T09:19:02Z</time>
      </trkpt>
      <trkpt lat="47.89462" lon="6.88498">
        <ele>838.4</ele>
        <time>2022-08-29T09:19:03Z</time>
      </trkpt>
      <trkpt lat="47.89462" lon="6.88497">
        <ele>838.2</ele>
        <time>2022-08-29T09:19:04Z</time>
      </trkpt>
      <trkpt lat="47.89463" lon="6.88496">
        <ele>838.3</ele>
        <time>2022-08-29T09:19:05Z</time>
      </trkpt>
      <trkpt lat="47.89464" lon="6.88495">
        <ele>838.3</ele>
        <time>2022-08-29T09:19:06Z</time>
      </trkpt>
      <trkpt lat="47.89464" lon="6.88494">
        <ele>838.2</ele>
        <time>2022-08-29T09:19:07Z</time>
      </trkpt>
      <trkpt lat="47.89464" lon="6.88493">
        <ele>838</ele>
        <time>2022-08-29T09:19:09Z</time>
      </trkpt>
      <trkpt lat="47.89464" lon="6.88492">
        <ele>837.8</ele>
        <time>2022-08-29T09:19:10Z</time>
      </trkpt>
      <trkpt lat="47.89464" lon="6.88491">
        <ele>837.6</ele>
        <time>2022-08-29T09:19:11Z</time>
      </trkpt>
      <trkpt lat="47.89465" lon="6.8849">
        <ele>837.7</ele>
        <time>2022-08-29T09:19:12Z</time>
      </trkpt>
      <trkpt lat="47.89465" lon="6.88489">
        <ele>837.5</ele>
        <time>2022-08-29T09:19:13Z</time>
      </trkpt>
      <trkpt lat="47.89465" lon="6.88488">
        <ele>837.4</ele>
        <time>2022-08-29T09:19:14Z</time>
      </trkpt>
      <trkpt lat="47.89465" lon="6.88487">
        <ele>837.2</ele>
        <time>2022-08-29T09:19:15Z</time>
      </trkpt>
      <trkpt lat="47.89465" lon="6.88486">
        <ele>837</ele>
        <time>2022-08-29T09:19:17Z</time>
      </trkpt>
      <trkpt lat="47.89465" lon="6.88485">
        <ele>836.9</ele>
        <time>2022-08-29T09:19:18Z</time>
      </trkpt>
      <trkpt lat="47.89466" lon="6.88484">
        <ele>837</ele>
        <time>2022-08-29T09:19:19Z</time>
      </trkpt>
      <trkpt lat="47.89466" lon="6.88483">
        <ele>836.8</ele>
        <time>2022-08-29T09:19:20Z</time>
      </trkpt>
      <trkpt lat="47.89466" lon="6.88482">
        <ele>836.6</ele>
        <time>2022-08-29T09:19:21Z</time>
      </trkpt>
      <trkpt lat="47.89466" lon="6.88481">
        <ele>836.5</ele>
        <time>2022-08-29T09:19:22Z</time>
      </trkpt>
      <trkpt lat="47.89465" lon="6.8848">
        <ele>836</ele>
        <time>2022-08-29T09:19:23Z</time>
      </trkpt>
      <trkpt lat="47.89465" lon="6.88479">
        <ele>835.8</ele>
        <time>2022-08-29T09:19:24Z</time>
      </trkpt>
      <trkpt lat="47.89465" lon="6.88478">
        <ele>835.7</ele>
        <time>2022-08-29T09:19:26Z</time>
      </trkpt>
      <trkpt lat="47.89465" lon="6.88477">
        <ele>835.5</ele>
        <time>2022-08-29T09:19:27Z</time>
      </trkpt>
      <trkpt lat="47.89465" lon="6.88476">
        <ele>835.3</ele>
        <time>2022-08-29T09:19:28Z</time>
      </trkpt>
      <trkpt lat="47.89465" lon="6.88475">
        <ele>835.1</ele>
        <time>2022-08-29T09:19:29Z</time>
      </trkpt>
      <trkpt lat="47.89465" lon="6.88474">
        <ele>835</ele>
        <time>2022-08-29T09:19:30Z</time>
      </trkpt>
      <trkpt lat="47.89465" lon="6.88473">
        <ele>834.8</ele>
        <time>2022-08-29T09:19:31Z</time>
      </trkpt>
      <trkpt lat="47.89465" lon="6.88472">
        <ele>834.6</ele>
        <time>2022-08-29T09:19:32Z</time>
      </trkpt>
      <trkpt lat="47.89465" lon="6.8847">
        <ele>834.4</ele>
        <time>2022-08-29T09:19:33Z</time>
      </trkpt>
      <trkpt lat="47.89465" lon="6.88469">
        <ele>834.2</ele>
        <time>2022-08-29T09:19:34Z</time>
      </trkpt>
      <trkpt lat="47.89465" lon="6.88468">
        <ele>834.1</ele>
        <time>2022-08-29T09:19:35Z</time>
      </trkpt>
      <trkpt lat="47.89465" lon="6.88466">
        <ele>833.8</ele>
        <time>2022-08-29T09:19:36Z</time>
      </trkpt>
      <trkpt lat="47.89465" lon="6.88465">
        <ele>833.7</ele>
        <time>2022-08-29T09:19:37Z</time>
      </trkpt>
      <trkpt lat="47.89465" lon="6.88463">
        <ele>833.4</ele>
        <time>2022-08-29T09:19:38Z</time>
      </trkpt>
      <trkpt lat="47.89465" lon="6.88461">
        <ele>833.1</ele>
        <time>2022-08-29T09:19:39Z</time>
      </trkpt>
      <trkpt lat="47.89465" lon="6.88459">
        <ele>832.9</ele>
        <time>2022-08-29T09:19:40Z</time>
      </trkpt>
      <trkpt lat="47.89465" lon="6.88458">
        <ele>832.7</ele>
        <time>2022-08-29T09:19:41Z</time>
      </trkpt>
      <trkpt lat="47.89465" lon="6.88457">
        <ele>832.6</ele>
        <time>2022-08-29T09:19:42Z</time>
      </trkpt>
      <trkpt lat="47.89465" lon="6.88456">
        <ele>832.5</ele>
        <time>2022-08-29T09:19:43Z</time>
      </trkpt>
      <trkpt lat="47.89465" lon="6.88455">
        <ele>832.3</ele>
        <time>2022-08-29T09:19:44Z</time>
      </trkpt>
      <trkpt lat="47.89465" lon="6.88454">
        <ele>832.2</ele>
        <time>2022-08-29T09:19:45Z</time>
      </trkpt>
      <trkpt lat="47.89465" lon="6.88453">
        <ele>832</ele>
        <time>2022-08-29T09:19:47Z</time>
      </trkpt>
      <trkpt lat="47.89465" lon="6.88452">
        <ele>831.9</ele>
        <time>2022-08-29T09:19:48Z</time>
      </trkpt>
      <trkpt lat="47.89465" lon="6.8845">
        <ele>831.6</ele>
        <time>2022-08-29T09:19:49Z</time>
      </trkpt>
      <trkpt lat="47.89465" lon="6.88449">
        <ele>831.5</ele>
        <time>2022-08-29T09:19:50Z</time>
      </trkpt>
      <trkpt lat="47.89465" lon="6.88448">
        <ele>831.4</ele>
        <time>2022-08-29T09:19:51Z</time>
      </trkpt>
      <trkpt lat="47.89465" lon="6.88446">
        <ele>831.1</ele>
        <time>2022-08-29T09:19:52Z</time>
      </trkpt>
      <trkpt lat="47.89466" lon="6.88445">
        <ele>831.4</ele>
        <time>2022-08-29T09:19:53Z</time>
      </trkpt>
      <trkpt lat="47.89466" lon="6.88444">
        <ele>831.2</ele>
        <time>2022-08-29T09:19:54Z</time>
      </trkpt>
      <trkpt lat="47.89466" lon="6.88442">
        <ele>830.9</ele>
        <time>2022-08-29T09:19:55Z</time>
      </trkpt>
      <trkpt lat="47.89467" lon="6.88441">
        <ele>831.1</ele>
        <time>2022-08-29T09:19:56Z</time>
      </trkpt>
      <trkpt lat="47.89467" lon="6.88439">
        <ele>830.8</ele>
        <time>2022-08-29T09:19:57Z</time>
      </trkpt>
      <trkpt lat="47.89468" lon="6.88438">
        <ele>831</ele>
        <time>2022-08-29T09:19:58Z</time>
      </trkpt>
      <trkpt lat="47.89468" lon="6.88436">
        <ele>830.7</ele>
        <time>2022-08-29T09:19:59Z</time>
      </trkpt>
      <trkpt lat="47.89468" lon="6.88435">
        <ele>830.5</ele>
        <time>2022-08-29T09:20:00Z</time>
      </trkpt>
      <trkpt lat="47.89469" lon="6.88434">
        <ele>830.7</ele>
        <time>2022-08-29T09:20:01Z</time>
      </trkpt>
      <trkpt lat="47.89469" lon="6.88432">
        <ele>830.4</ele>
        <time>2022-08-29T09:20:02Z</time>
      </trkpt>
      <trkpt lat="47.89469" lon="6.88431">
        <ele>830.2</ele>
        <time>2022-08-29T09:20:03Z</time>
      </trkpt>
      <trkpt lat="47.89469" lon="6.8843">
        <ele>830</ele>
        <time>2022-08-29T09:20:04Z</time>
      </trkpt>
      <trkpt lat="47.89469" lon="6.88429">
        <ele>829.8</ele>
        <time>2022-08-29T09:20:06Z</time>
      </trkpt>
      <trkpt lat="47.8947" lon="6.88427">
        <ele>829.9</ele>
        <time>2022-08-29T09:20:07Z</time>
      </trkpt>
      <trkpt lat="47.8947" lon="6.88426">
        <ele>829.7</ele>
        <time>2022-08-29T09:20:08Z</time>
      </trkpt>
      <trkpt lat="47.89471" lon="6.88425">
        <ele>830</ele>
        <time>2022-08-29T09:20:09Z</time>
      </trkpt>
      <trkpt lat="47.89471" lon="6.88423">
        <ele>829.6</ele>
        <time>2022-08-29T09:20:10Z</time>
      </trkpt>
      <trkpt lat="47.89472" lon="6.88421">
        <ele>829.7</ele>
        <time>2022-08-29T09:20:11Z</time>
      </trkpt>
      <trkpt lat="47.89472" lon="6.8842">
        <ele>829.5</ele>
        <time>2022-08-29T09:20:12Z</time>
      </trkpt>
      <trkpt lat="47.89472" lon="6.88419">
        <ele>829.3</ele>
        <time>2022-08-29T09:20:13Z</time>
      </trkpt>
      <trkpt lat="47.89472" lon="6.88418">
        <ele>829.1</ele>
        <time>2022-08-29T09:20:14Z</time>
      </trkpt>
      <trkpt lat="47.89473" lon="6.88417">
        <ele>829.4</ele>
        <time>2022-08-29T09:20:15Z</time>
      </trkpt>
      <trkpt lat="47.89473" lon="6.88415">
        <ele>829</ele>
        <time>2022-08-29T09:20:16Z</time>
      </trkpt>
      <trkpt lat="47.89473" lon="6.88414">
        <ele>828.9</ele>
        <time>2022-08-29T09:20:17Z</time>
      </trkpt>
      <trkpt lat="47.89474" lon="6.88412">
        <ele>828.9</ele>
        <time>2022-08-29T09:20:18Z</time>
      </trkpt>
      <trkpt lat="47.89474" lon="6.8841">
        <ele>828.6</ele>
        <time>2022-08-29T09:20:19Z</time>
      </trkpt>
      <trkpt lat="47.89474" lon="6.88409">
        <ele>828.4</ele>
        <time>2022-08-29T09:20:20Z</time>
      </trkpt>
      <trkpt lat="47.89474" lon="6.88408">
        <ele>828.2</ele>
        <time>2022-08-29T09:20:21Z</time>
      </trkpt>
      <trkpt lat="47.89475" lon="6.88406">
        <ele>828.2</ele>
        <time>2022-08-29T09:20:22Z</time>
      </trkpt>
      <trkpt lat="47.89475" lon="6.88405">
        <ele>828.1</ele>
        <time>2022-08-29T09:20:23Z</time>
      </trkpt>
      <trkpt lat="47.89475" lon="6.88404">
        <ele>827.9</ele>
        <time>2022-08-29T09:20:24Z</time>
      </trkpt>
      <trkpt lat="47.89476" lon="6.88403">
        <ele>828.1</ele>
        <time>2022-08-29T09:20:25Z</time>
      </trkpt>
      <trkpt lat="47.89476" lon="6.88402">
        <ele>827.9</ele>
        <time>2022-08-29T09:20:26Z</time>
      </trkpt>
      <trkpt lat="47.89476" lon="6.88401">
        <ele>827.7</ele>
        <time>2022-08-29T09:20:27Z</time>
      </trkpt>
      <trkpt lat="47.89476" lon="6.884">
        <ele>827.6</ele>
        <time>2022-08-29T09:20:28Z</time>
      </trkpt>
      <trkpt lat="47.89476" lon="6.88399">
        <ele>827.4</ele>
        <time>2022-08-29T09:20:29Z</time>
      </trkpt>
      <trkpt lat="47.89476" lon="6.88398">
        <ele>827.2</ele>
        <time>2022-08-29T09:20:30Z</time>
      </trkpt>
      <trkpt lat="47.89477" lon="6.88398">
        <ele>827.6</ele>
        <time>2022-08-29T09:20:31Z</time>
      </trkpt>
      <trkpt lat="47.89477" lon="6.88397">
        <ele>827.4</ele>
        <time>2022-08-29T09:20:32Z</time>
      </trkpt>
      <trkpt lat="47.89477" lon="6.88396">
        <ele>827.2</ele>
        <time>2022-08-29T09:20:33Z</time>
      </trkpt>
      <trkpt lat="47.89477" lon="6.88395">
        <ele>827</ele>
        <time>2022-08-29T09:20:34Z</time>
      </trkpt>
      <trkpt lat="47.89477" lon="6.88394">
        <ele>826.8</ele>
        <time>2022-08-29T09:20:36Z</time>
      </trkpt>
      <trkpt lat="47.89477" lon="6.88393">
        <ele>826.7</ele>
        <time>2022-08-29T09:20:37Z</time>
      </trkpt>
      <trkpt lat="47.89477" lon="6.88392">
        <ele>826.5</ele>
        <time>2022-08-29T09:20:38Z</time>
      </trkpt>
      <trkpt lat="47.89477" lon="6.88391">
        <ele>826.3</ele>
        <time>2022-08-29T09:20:39Z</time>
      </trkpt>
      <trkpt lat="47.89477" lon="6.8839">
        <ele>826.1</ele>
        <time>2022-08-29T09:20:40Z</time>
      </trkpt>
      <trkpt lat="47.89477" lon="6.88389">
        <ele>825.9</ele>
        <time>2022-08-29T09:20:41Z</time>
      </trkpt>
      <trkpt lat="47.89477" lon="6.88388">
        <ele>825.8</ele>
        <time>2022-08-29T09:20:42Z</time>
      </trkpt>
      <trkpt lat="47.89478" lon="6.88388">
        <ele>826.2</ele>
        <time>2022-08-29T09:20:43Z</time>
      </trkpt>
      <trkpt lat="47.89478" lon="6.88387">
        <ele>826</ele>
        <time>2022-08-29T09:20:44Z</time>
      </trkpt>
      <trkpt lat="47.89479" lon="6.88386">
        <ele>826.3</ele>
        <time>2022-08-29T09:20:45Z</time>
      </trkpt>
      <trkpt lat="47.89479" lon="6.88385">
        <ele>826.1</ele>
        <time>2022-08-29T09:20:46Z</time>
      </trkpt>
      <trkpt lat="47.89479" lon="6.88384">
        <ele>826</ele>
        <time>2022-08-29T09:20:47Z</time>
      </trkpt>
      <trkpt lat="47.8948" lon="6.88384">
        <ele>826.4</ele>
        <time>2022-08-29T09:20:48Z</time>
      </trkpt>
      <trkpt lat="47.8948" lon="6.88383">
        <ele>826.2</ele>
        <time>2022-08-29T09:20:49Z</time>
      </trkpt>
      <trkpt lat="47.89481" lon="6.88382">
        <ele>826.5</ele>
        <time>2022-08-29T09:20:50Z</time>
      </trkpt>
      <trkpt lat="47.89481" lon="6.88381">
        <ele>826.3</ele>
        <time>2022-08-29T09:20:51Z</time>
      </trkpt>
      <trkpt lat="47.89481" lon="6.8838">
        <ele>826.2</ele>
        <time>2022-08-29T09:20:53Z</time>
      </trkpt>
      <trkpt lat="47.89481" lon="6.88379">
        <ele>826.1</ele>
        <time>2022-08-29T09:20:54Z</time>
      </trkpt>
      <trkpt lat="47.8948" lon="6.88378">
        <ele>825.5</ele>
        <time>2022-08-29T09:20:55Z</time>
      </trkpt>
      <trkpt lat="47.8948" lon="6.88377">
        <ele>825.4</ele>
        <time>2022-08-29T09:20:56Z</time>
      </trkpt>
      <trkpt lat="47.8948" lon="6.88376">
        <ele>825.2</ele>
        <time>2022-08-29T09:20:57Z</time>
      </trkpt>
      <trkpt lat="47.8948" lon="6.88375">
        <ele>825.1</ele>
        <time>2022-08-29T09:20:58Z</time>
      </trkpt>
      <trkpt lat="47.89479" lon="6.88374">
        <ele>824.5</ele>
        <time>2022-08-29T09:21:00Z</time>
      </trkpt>
      <trkpt lat="47.89479" lon="6.88373">
        <ele>824.4</ele>
        <time>2022-08-29T09:21:01Z</time>
      </trkpt>
      <trkpt lat="47.89479" lon="6.88372">
        <ele>824.3</ele>
        <time>2022-08-29T09:21:02Z</time>
      </trkpt>
      <trkpt lat="47.89479" lon="6.88371">
        <ele>824.1</ele>
        <time>2022-08-29T09:21:03Z</time>
      </trkpt>
      <trkpt lat="47.89479" lon="6.8837">
        <ele>824</ele>
        <time>2022-08-29T09:21:04Z</time>
      </trkpt>
      <trkpt lat="47.8948" lon="6.88369">
        <ele>824.2</ele>
        <time>2022-08-29T09:21:05Z</time>
      </trkpt>
      <trkpt lat="47.8948" lon="6.88368">
        <ele>824.1</ele>
        <time>2022-08-29T09:21:06Z</time>
      </trkpt>
      <trkpt lat="47.8948" lon="6.88367">
        <ele>823.9</ele>
        <time>2022-08-29T09:21:07Z</time>
      </trkpt>
      <trkpt lat="47.8948" lon="6.88366">
        <ele>823.8</ele>
        <time>2022-08-29T09:21:08Z</time>
      </trkpt>
      <trkpt lat="47.89479" lon="6.88366">
        <ele>823.4</ele>
        <time>2022-08-29T09:21:09Z</time>
      </trkpt>
      <trkpt lat="47.89479" lon="6.88365">
        <ele>823.2</ele>
        <time>2022-08-29T09:21:10Z</time>
      </trkpt>
      <trkpt lat="47.89478" lon="6.88364">
        <ele>822.7</ele>
        <time>2022-08-29T09:21:12Z</time>
      </trkpt>
      <trkpt lat="47.89478" lon="6.88363">
        <ele>822.6</ele>
        <time>2022-08-29T09:21:13Z</time>
      </trkpt>
      <trkpt lat="47.89477" lon="6.88362">
        <ele>822</ele>
        <time>2022-08-29T09:21:14Z</time>
      </trkpt>
      <trkpt lat="47.89476" lon="6.88362">
        <ele>821.6</ele>
        <time>2022-08-29T09:21:15Z</time>
      </trkpt>
      <trkpt lat="47.89476" lon="6.88361">
        <ele>821.5</ele>
        <time>2022-08-29T09:21:16Z</time>
      </trkpt>
      <trkpt lat="47.89475" lon="6.8836">
        <ele>821.1</ele>
        <time>2022-08-29T09:21:17Z</time>
      </trkpt>
      <trkpt lat="47.89475" lon="6.88359">
        <ele>821.1</ele>
        <time>2022-08-29T09:21:19Z</time>
      </trkpt>
      <trkpt lat="47.89474" lon="6.88358">
        <ele>820.7</ele>
        <time>2022-08-29T09:21:20Z</time>
      </trkpt>
      <trkpt lat="47.89473" lon="6.88358">
        <ele>820.3</ele>
        <time>2022-08-29T09:21:21Z</time>
      </trkpt>
      <trkpt lat="47.89473" lon="6.88357">
        <ele>820.3</ele>
        <time>2022-08-29T09:21:22Z</time>
      </trkpt>
      <trkpt lat="47.89472" lon="6.88356">
        <ele>819.9</ele>
        <time>2022-08-29T09:21:23Z</time>
      </trkpt>
      <trkpt lat="47.89472" lon="6.88355">
        <ele>819.9</ele>
        <time>2022-08-29T09:21:24Z</time>
      </trkpt>
      <trkpt lat="47.89471" lon="6.88353">
        <ele>819.6</ele>
        <time>2022-08-29T09:21:25Z</time>
      </trkpt>
      <trkpt lat="47.89471" lon="6.88352">
        <ele>819.6</ele>
        <time>2022-08-29T09:21:26Z</time>
      </trkpt>
      <trkpt lat="47.8947" lon="6.88351">
        <ele>819.2</ele>
        <time>2022-08-29T09:21:27Z</time>
      </trkpt>
      <trkpt lat="47.89469" lon="6.8835">
        <ele>818.8</ele>
        <time>2022-08-29T09:21:29Z</time>
      </trkpt>
      <trkpt lat="47.89468" lon="6.88349">
        <ele>818.5</ele>
        <time>2022-08-29T09:21:31Z</time>
      </trkpt>
      <trkpt lat="47.89467" lon="6.88349">
        <ele>818.1</ele>
        <time>2022-08-29T09:21:32Z</time>
      </trkpt>
      <trkpt lat="47.89467" lon="6.88348">
        <ele>818.1</ele>
        <time>2022-08-29T09:21:33Z</time>
      </trkpt>
      <trkpt lat="47.89466" lon="6.88348">
        <ele>817.8</ele>
        <time>2022-08-29T09:21:34Z</time>
      </trkpt>
      <trkpt lat="47.89465" lon="6.88345">
        <ele>817.4</ele>
        <time>2022-08-29T09:21:43Z</time>
      </trkpt>
      <trkpt lat="47.89464" lon="6.88344">
        <ele>817</ele>
        <time>2022-08-29T09:21:44Z</time>
      </trkpt>
      <trkpt lat="47.89463" lon="6.88342">
        <ele>816.7</ele>
        <time>2022-08-29T09:21:45Z</time>
      </trkpt>
      <trkpt lat="47.89462" lon="6.88341">
        <ele>816.3</ele>
        <time>2022-08-29T09:21:47Z</time>
      </trkpt>
      <trkpt lat="47.89461" lon="6.8834">
        <ele>816</ele>
        <time>2022-08-29T09:21:48Z</time>
      </trkpt>
      <trkpt lat="47.8946" lon="6.88339">
        <ele>815.6</ele>
        <time>2022-08-29T09:21:49Z</time>
      </trkpt>
      <trkpt lat="47.89459" lon="6.88339">
        <ele>815.2</ele>
        <time>2022-08-29T09:21:50Z</time>
      </trkpt>
      <trkpt lat="47.89459" lon="6.88338">
        <ele>815.2</ele>
        <time>2022-08-29T09:21:51Z</time>
      </trkpt>
      <trkpt lat="47.89458" lon="6.88337">
        <ele>814.9</ele>
        <time>2022-08-29T09:21:52Z</time>
      </trkpt>
      <trkpt lat="47.89457" lon="6.88335">
        <ele>814.5</ele>
        <time>2022-08-29T09:21:53Z</time>
      </trkpt>
      <trkpt lat="47.89456" lon="6.88334">
        <ele>814.2</ele>
        <time>2022-08-29T09:21:54Z</time>
      </trkpt>
      <trkpt lat="47.89455" lon="6.88333">
        <ele>813.8</ele>
        <time>2022-08-29T09:21:55Z</time>
      </trkpt>
      <trkpt lat="47.89455" lon="6.88332">
        <ele>814</ele>
        <time>2022-08-29T09:21:56Z</time>
      </trkpt>
      <trkpt lat="47.89454" lon="6.8833">
        <ele>813.9</ele>
        <time>2022-08-29T09:21:57Z</time>
      </trkpt>
      <trkpt lat="47.89453" lon="6.88329">
        <ele>813.7</ele>
        <time>2022-08-29T09:21:58Z</time>
      </trkpt>
      <trkpt lat="47.89452" lon="6.88328">
        <ele>813.5</ele>
        <time>2022-08-29T09:21:59Z</time>
      </trkpt>
      <trkpt lat="47.89451" lon="6.88327">
        <ele>813.2</ele>
        <time>2022-08-29T09:22:00Z</time>
      </trkpt>
      <trkpt lat="47.8945" lon="6.88326">
        <ele>813</ele>
        <time>2022-08-29T09:22:01Z</time>
      </trkpt>
      <trkpt lat="47.89449" lon="6.88325">
        <ele>812.7</ele>
        <time>2022-08-29T09:22:02Z</time>
      </trkpt>
      <trkpt lat="47.89448" lon="6.88324">
        <ele>812.4</ele>
        <time>2022-08-29T09:22:04Z</time>
      </trkpt>
      <trkpt lat="47.89448" lon="6.88323">
        <ele>812.5</ele>
        <time>2022-08-29T09:22:05Z</time>
      </trkpt>
      <trkpt lat="47.89447" lon="6.88322">
        <ele>812.3</ele>
        <time>2022-08-29T09:22:06Z</time>
      </trkpt>
      <trkpt lat="47.89447" lon="6.88321">
        <ele>812.4</ele>
        <time>2022-08-29T09:22:07Z</time>
      </trkpt>
      <trkpt lat="47.89446" lon="6.8832">
        <ele>812.1</ele>
        <time>2022-08-29T09:22:08Z</time>
      </trkpt>
      <trkpt lat="47.89445" lon="6.88319">
        <ele>811.8</ele>
        <time>2022-08-29T09:22:09Z</time>
      </trkpt>
      <trkpt lat="47.89444" lon="6.88317">
        <ele>811.6</ele>
        <time>2022-08-29T09:22:10Z</time>
      </trkpt>
      <trkpt lat="47.89443" lon="6.88316">
        <ele>811.3</ele>
        <time>2022-08-29T09:22:11Z</time>
      </trkpt>
      <trkpt lat="47.89442" lon="6.88315">
        <ele>811</ele>
        <time>2022-08-29T09:22:12Z</time>
      </trkpt>
      <trkpt lat="47.89442" lon="6.88314">
        <ele>811.1</ele>
        <time>2022-08-29T09:22:13Z</time>
      </trkpt>
      <trkpt lat="47.89441" lon="6.88312">
        <ele>810.9</ele>
        <time>2022-08-29T09:22:14Z</time>
      </trkpt>
      <trkpt lat="47.8944" lon="6.88311">
        <ele>810.6</ele>
        <time>2022-08-29T09:22:15Z</time>
      </trkpt>
      <trkpt lat="47.89438" lon="6.88308">
        <ele>810</ele>
        <time>2022-08-29T09:22:22Z</time>
      </trkpt>
      <trkpt lat="47.89437" lon="6.88307">
        <ele>809.7</ele>
        <time>2022-08-29T09:22:23Z</time>
      </trkpt>
      <trkpt lat="47.89437" lon="6.88306">
        <ele>809.8</ele>
        <time>2022-08-29T09:22:24Z</time>
      </trkpt>
      <trkpt lat="47.89436" lon="6.88304">
        <ele>809.4</ele>
        <time>2022-08-29T09:22:25Z</time>
      </trkpt>
      <trkpt lat="47.89436" lon="6.88303">
        <ele>809.4</ele>
        <time>2022-08-29T09:22:26Z</time>
      </trkpt>
      <trkpt lat="47.89436" lon="6.88301">
        <ele>809.4</ele>
        <time>2022-08-29T09:22:27Z</time>
      </trkpt>
      <trkpt lat="47.89435" lon="6.883">
        <ele>808.9</ele>
        <time>2022-08-29T09:22:28Z</time>
      </trkpt>
      <trkpt lat="47.89435" lon="6.88299">
        <ele>808.9</ele>
        <time>2022-08-29T09:22:29Z</time>
      </trkpt>
      <trkpt lat="47.89435" lon="6.88298">
        <ele>808.9</ele>
        <time>2022-08-29T09:22:30Z</time>
      </trkpt>
      <trkpt lat="47.89435" lon="6.88297">
        <ele>808.9</ele>
        <time>2022-08-29T09:22:31Z</time>
      </trkpt>
      <trkpt lat="47.89435" lon="6.88295">
        <ele>808.9</ele>
        <time>2022-08-29T09:22:32Z</time>
      </trkpt>
      <trkpt lat="47.89435" lon="6.88294">
        <ele>808.9</ele>
        <time>2022-08-29T09:22:33Z</time>
      </trkpt>
      <trkpt lat="47.89435" lon="6.88293">
        <ele>808.9</ele>
        <time>2022-08-29T09:22:34Z</time>
      </trkpt>
      <trkpt lat="47.89435" lon="6.88292">
        <ele>808.9</ele>
        <time>2022-08-29T09:22:35Z</time>
      </trkpt>
      <trkpt lat="47.89435" lon="6.8829">
        <ele>808.9</ele>
        <time>2022-08-29T09:22:36Z</time>
      </trkpt>
      <trkpt lat="47.89434" lon="6.88289">
        <ele>808.4</ele>
        <time>2022-08-29T09:22:37Z</time>
      </trkpt>
      <trkpt lat="47.89434" lon="6.88288">
        <ele>808.4</ele>
        <time>2022-08-29T09:22:39Z</time>
      </trkpt>
      <trkpt lat="47.89434" lon="6.88287">
        <ele>808.4</ele>
        <time>2022-08-29T09:22:40Z</time>
      </trkpt>
      <trkpt lat="47.89434" lon="6.88286">
        <ele>808.4</ele>
        <time>2022-08-29T09:22:41Z</time>
      </trkpt>
      <trkpt lat="47.89434" lon="6.88285">
        <ele>808.4</ele>
        <time>2022-08-29T09:22:42Z</time>
      </trkpt>
      <trkpt lat="47.89434" lon="6.88284">
        <ele>808.4</ele>
        <time>2022-08-29T09:22:43Z</time>
      </trkpt>
      <trkpt lat="47.89433" lon="6.88283">
        <ele>807.9</ele>
        <time>2022-08-29T09:22:44Z</time>
      </trkpt>
      <trkpt lat="47.89433" lon="6.88282">
        <ele>807.9</ele>
        <time>2022-08-29T09:22:45Z</time>
      </trkpt>
      <trkpt lat="47.89433" lon="6.88281">
        <ele>807.8</ele>
        <time>2022-08-29T09:22:46Z</time>
      </trkpt>
      <trkpt lat="47.89433" lon="6.8828">
        <ele>807.8</ele>
        <time>2022-08-29T09:22:47Z</time>
      </trkpt>
      <trkpt lat="47.89433" lon="6.88279">
        <ele>807.8</ele>
        <time>2022-08-29T09:22:48Z</time>
      </trkpt>
      <trkpt lat="47.89433" lon="6.88278">
        <ele>807.8</ele>
        <time>2022-08-29T09:22:49Z</time>
      </trkpt>
      <trkpt lat="47.89433" lon="6.88277">
        <ele>807.7</ele>
        <time>2022-08-29T09:22:50Z</time>
      </trkpt>
      <trkpt lat="47.89433" lon="6.88276">
        <ele>807.6</ele>
        <time>2022-08-29T09:22:51Z</time>
      </trkpt>
      <trkpt lat="47.89433" lon="6.88275">
        <ele>807.5</ele>
        <time>2022-08-29T09:22:52Z</time>
      </trkpt>
      <trkpt lat="47.89433" lon="6.88274">
        <ele>807.4</ele>
        <time>2022-08-29T09:22:53Z</time>
      </trkpt>
      <trkpt lat="47.89433" lon="6.88273">
        <ele>807.3</ele>
        <time>2022-08-29T09:22:54Z</time>
      </trkpt>
      <trkpt lat="47.89433" lon="6.88272">
        <ele>807.2</ele>
        <time>2022-08-29T09:22:55Z</time>
      </trkpt>
      <trkpt lat="47.89433" lon="6.88271">
        <ele>807</ele>
        <time>2022-08-29T09:22:56Z</time>
      </trkpt>
      <trkpt lat="47.89433" lon="6.8827">
        <ele>806.9</ele>
        <time>2022-08-29T09:22:57Z</time>
      </trkpt>
      <trkpt lat="47.89433" lon="6.88269">
        <ele>806.8</ele>
        <time>2022-08-29T09:22:58Z</time>
      </trkpt>
      <trkpt lat="47.89433" lon="6.88267">
        <ele>806.6</ele>
        <time>2022-08-29T09:22:59Z</time>
      </trkpt>
      <trkpt lat="47.89433" lon="6.88266">
        <ele>806.5</ele>
        <time>2022-08-29T09:23:00Z</time>
      </trkpt>
      <trkpt lat="47.89433" lon="6.88265">
        <ele>806.4</ele>
        <time>2022-08-29T09:23:01Z</time>
      </trkpt>
      <trkpt lat="47.89433" lon="6.88264">
        <ele>806.2</ele>
        <time>2022-08-29T09:23:02Z</time>
      </trkpt>
      <trkpt lat="47.89433" lon="6.88263">
        <ele>806.1</ele>
        <time>2022-08-29T09:23:03Z</time>
      </trkpt>
      <trkpt lat="47.89433" lon="6.88262">
        <ele>806</ele>
        <time>2022-08-29T09:23:04Z</time>
      </trkpt>
      <trkpt lat="47.89433" lon="6.88261">
        <ele>805.9</ele>
        <time>2022-08-29T09:23:05Z</time>
      </trkpt>
      <trkpt lat="47.89433" lon="6.8826">
        <ele>805.8</ele>
        <time>2022-08-29T09:23:06Z</time>
      </trkpt>
      <trkpt lat="47.89433" lon="6.88259">
        <ele>805.7</ele>
        <time>2022-08-29T09:23:07Z</time>
      </trkpt>
      <trkpt lat="47.89433" lon="6.88258">
        <ele>805.6</ele>
        <time>2022-08-29T09:23:08Z</time>
      </trkpt>
      <trkpt lat="47.89433" lon="6.88257">
        <ele>805.4</ele>
        <time>2022-08-29T09:23:09Z</time>
      </trkpt>
      <trkpt lat="47.89432" lon="6.88256">
        <ele>804.8</ele>
        <time>2022-08-29T09:23:10Z</time>
      </trkpt>
      <trkpt lat="47.89432" lon="6.88255">
        <ele>804.7</ele>
        <time>2022-08-29T09:23:11Z</time>
      </trkpt>
      <trkpt lat="47.89432" lon="6.88254">
        <ele>804.6</ele>
        <time>2022-08-29T09:23:12Z</time>
      </trkpt>
      <trkpt lat="47.89432" lon="6.88253">
        <ele>804.5</ele>
        <time>2022-08-29T09:23:13Z</time>
      </trkpt>
      <trkpt lat="47.89431" lon="6.88252">
        <ele>803.9</ele>
        <time>2022-08-29T09:23:14Z</time>
      </trkpt>
      <trkpt lat="47.89431" lon="6.88251">
        <ele>803.8</ele>
        <time>2022-08-29T09:23:15Z</time>
      </trkpt>
      <trkpt lat="47.8943" lon="6.8825">
        <ele>803.2</ele>
        <time>2022-08-29T09:23:16Z</time>
      </trkpt>
      <trkpt lat="47.89429" lon="6.88249">
        <ele>802.8</ele>
        <time>2022-08-29T09:23:18Z</time>
      </trkpt>
      <trkpt lat="47.89429" lon="6.88248">
        <ele>802.7</ele>
        <time>2022-08-29T09:23:19Z</time>
      </trkpt>
      <trkpt lat="47.89428" lon="6.88247">
        <ele>802.3</ele>
        <time>2022-08-29T09:23:20Z</time>
      </trkpt>
      <trkpt lat="47.89428" lon="6.88246">
        <ele>802.3</ele>
        <time>2022-08-29T09:23:21Z</time>
      </trkpt>
      <trkpt lat="47.89428" lon="6.88245">
        <ele>802.3</ele>
        <time>2022-08-29T09:23:23Z</time>
      </trkpt>
      <trkpt lat="47.89427" lon="6.88244">
        <ele>801.8</ele>
        <time>2022-08-29T09:23:25Z</time>
      </trkpt>
      <trkpt lat="47.89427" lon="6.88242">
        <ele>801.8</ele>
        <time>2022-08-29T09:23:27Z</time>
      </trkpt>
      <trkpt lat="47.89426" lon="6.88241">
        <ele>801.4</ele>
        <time>2022-08-29T09:23:28Z</time>
      </trkpt>
      <trkpt lat="47.89426" lon="6.8824">
        <ele>801.4</ele>
        <time>2022-08-29T09:23:29Z</time>
      </trkpt>
      <trkpt lat="47.89426" lon="6.88238">
        <ele>801.4</ele>
        <time>2022-08-29T09:23:30Z</time>
      </trkpt>
      <trkpt lat="47.89425" lon="6.88237">
        <ele>800.9</ele>
        <time>2022-08-29T09:23:31Z</time>
      </trkpt>
      <trkpt lat="47.89425" lon="6.88236">
        <ele>801</ele>
        <time>2022-08-29T09:23:32Z</time>
      </trkpt>
      <trkpt lat="47.89424" lon="6.88236">
        <ele>800.5</ele>
        <time>2022-08-29T09:23:33Z</time>
      </trkpt>
      <trkpt lat="47.89424" lon="6.88235">
        <ele>800.5</ele>
        <time>2022-08-29T09:23:34Z</time>
      </trkpt>
      <trkpt lat="47.89424" lon="6.88234">
        <ele>800.6</ele>
        <time>2022-08-29T09:23:35Z</time>
      </trkpt>
      <trkpt lat="47.89423" lon="6.88232">
        <ele>800.2</ele>
        <time>2022-08-29T09:23:36Z</time>
      </trkpt>
      <trkpt lat="47.89423" lon="6.88231">
        <ele>800.2</ele>
        <time>2022-08-29T09:23:37Z</time>
      </trkpt>
      <trkpt lat="47.89422" lon="6.8823">
        <ele>799.8</ele>
        <time>2022-08-29T09:23:39Z</time>
      </trkpt>
      <trkpt lat="47.89422" lon="6.88229">
        <ele>799.8</ele>
        <time>2022-08-29T09:23:40Z</time>
      </trkpt>
      <trkpt lat="47.89421" lon="6.88228">
        <ele>799.4</ele>
        <time>2022-08-29T09:23:42Z</time>
      </trkpt>
      <trkpt lat="47.89421" lon="6.88227">
        <ele>799.5</ele>
        <time>2022-08-29T09:23:43Z</time>
      </trkpt>
      <trkpt lat="47.8942" lon="6.88227">
        <ele>799.1</ele>
        <time>2022-08-29T09:23:46Z</time>
      </trkpt>
      <trkpt lat="47.8942" lon="6.88226">
        <ele>799.1</ele>
        <time>2022-08-29T09:23:47Z</time>
      </trkpt>
      <trkpt lat="47.8942" lon="6.88225">
        <ele>799.1</ele>
        <time>2022-08-29T09:23:48Z</time>
      </trkpt>
      <trkpt lat="47.89419" lon="6.88225">
        <ele>798.8</ele>
        <time>2022-08-29T09:23:49Z</time>
      </trkpt>
      <trkpt lat="47.89419" lon="6.88223">
        <ele>798.8</ele>
        <time>2022-08-29T09:23:50Z</time>
      </trkpt>
      <trkpt lat="47.89418" lon="6.88222">
        <ele>798.5</ele>
        <time>2022-08-29T09:23:51Z</time>
      </trkpt>
      <trkpt lat="47.89418" lon="6.88221">
        <ele>798.4</ele>
        <time>2022-08-29T09:23:52Z</time>
      </trkpt>
      <trkpt lat="47.89418" lon="6.8822">
        <ele>798.4</ele>
        <time>2022-08-29T09:23:53Z</time>
      </trkpt>
      <trkpt lat="47.89418" lon="6.88219">
        <ele>798.4</ele>
        <time>2022-08-29T09:23:54Z</time>
      </trkpt>
      <trkpt lat="47.89418" lon="6.88218">
        <ele>798.3</ele>
        <time>2022-08-29T09:23:55Z</time>
      </trkpt>
      <trkpt lat="47.89418" lon="6.88217">
        <ele>798.3</ele>
        <time>2022-08-29T09:23:56Z</time>
      </trkpt>
      <trkpt lat="47.89417" lon="6.88216">
        <ele>797.9</ele>
        <time>2022-08-29T09:23:57Z</time>
      </trkpt>
      <trkpt lat="47.89417" lon="6.88215">
        <ele>797.9</ele>
        <time>2022-08-29T09:23:58Z</time>
      </trkpt>
      <trkpt lat="47.89417" lon="6.88214">
        <ele>797.8</ele>
        <time>2022-08-29T09:23:59Z</time>
      </trkpt>
      <trkpt lat="47.89417" lon="6.88213">
        <ele>797.8</ele>
        <time>2022-08-29T09:24:00Z</time>
      </trkpt>
      <trkpt lat="47.89416" lon="6.88212">
        <ele>797.3</ele>
        <time>2022-08-29T09:24:01Z</time>
      </trkpt>
      <trkpt lat="47.89415" lon="6.88211">
        <ele>796.9</ele>
        <time>2022-08-29T09:24:02Z</time>
      </trkpt>
      <trkpt lat="47.89415" lon="6.88209">
        <ele>796.8</ele>
        <time>2022-08-29T09:24:03Z</time>
      </trkpt>
      <trkpt lat="47.89414" lon="6.88208">
        <ele>796.3</ele>
        <time>2022-08-29T09:24:04Z</time>
      </trkpt>
      <trkpt lat="47.89413" lon="6.88207">
        <ele>795.8</ele>
        <time>2022-08-29T09:24:05Z</time>
      </trkpt>
      <trkpt lat="47.89413" lon="6.88204">
        <ele>795.7</ele>
        <time>2022-08-29T09:24:11Z</time>
      </trkpt>
      <trkpt lat="47.89413" lon="6.88203">
        <ele>795.6</ele>
        <time>2022-08-29T09:24:12Z</time>
      </trkpt>
      <trkpt lat="47.89413" lon="6.88201">
        <ele>795.6</ele>
        <time>2022-08-29T09:24:13Z</time>
      </trkpt>
      <trkpt lat="47.89413" lon="6.88199">
        <ele>795.5</ele>
        <time>2022-08-29T09:24:14Z</time>
      </trkpt>
      <trkpt lat="47.89413" lon="6.88198">
        <ele>795.4</ele>
        <time>2022-08-29T09:24:15Z</time>
      </trkpt>
      <trkpt lat="47.89413" lon="6.88196">
        <ele>795.3</ele>
        <time>2022-08-29T09:24:16Z</time>
      </trkpt>
      <trkpt lat="47.89413" lon="6.88195">
        <ele>795.3</ele>
        <time>2022-08-29T09:24:17Z</time>
      </trkpt>
      <trkpt lat="47.89414" lon="6.88193">
        <ele>795.7</ele>
        <time>2022-08-29T09:24:18Z</time>
      </trkpt>
      <trkpt lat="47.89414" lon="6.88192">
        <ele>795.7</ele>
        <time>2022-08-29T09:24:19Z</time>
      </trkpt>
      <trkpt lat="47.89414" lon="6.8819">
        <ele>795.7</ele>
        <time>2022-08-29T09:24:20Z</time>
      </trkpt>
      <trkpt lat="47.89414" lon="6.88188">
        <ele>795.7</ele>
        <time>2022-08-29T09:24:21Z</time>
      </trkpt>
      <trkpt lat="47.89414" lon="6.88187">
        <ele>795.7</ele>
        <time>2022-08-29T09:24:22Z</time>
      </trkpt>
      <trkpt lat="47.89413" lon="6.88185">
        <ele>795.2</ele>
        <time>2022-08-29T09:24:23Z</time>
      </trkpt>
      <trkpt lat="47.89413" lon="6.88184">
        <ele>795.2</ele>
        <time>2022-08-29T09:24:24Z</time>
      </trkpt>
      <trkpt lat="47.89413" lon="6.88182">
        <ele>795.2</ele>
        <time>2022-08-29T09:24:25Z</time>
      </trkpt>
      <trkpt lat="47.89413" lon="6.88181">
        <ele>795.2</ele>
        <time>2022-08-29T09:24:26Z</time>
      </trkpt>
      <trkpt lat="47.89412" lon="6.8818">
        <ele>794.7</ele>
        <time>2022-08-29T09:24:27Z</time>
      </trkpt>
      <trkpt lat="47.89412" lon="6.88179">
        <ele>794.7</ele>
        <time>2022-08-29T09:24:28Z</time>
      </trkpt>
      <trkpt lat="47.89412" lon="6.88178">
        <ele>794.7</ele>
        <time>2022-08-29T09:24:29Z</time>
      </trkpt>
      <trkpt lat="47.89412" lon="6.88177">
        <ele>794.7</ele>
        <time>2022-08-29T09:24:30Z</time>
      </trkpt>
      <trkpt lat="47.89412" lon="6.88176">
        <ele>794.7</ele>
        <time>2022-08-29T09:24:31Z</time>
      </trkpt>
      <trkpt lat="47.89412" lon="6.88175">
        <ele>794.7</ele>
        <time>2022-08-29T09:24:32Z</time>
      </trkpt>
      <trkpt lat="47.89412" lon="6.88174">
        <ele>794.7</ele>
        <time>2022-08-29T09:24:33Z</time>
      </trkpt>
      <trkpt lat="47.89412" lon="6.88173">
        <ele>794.7</ele>
        <time>2022-08-29T09:24:35Z</time>
      </trkpt>
      <trkpt lat="47.89412" lon="6.88172">
        <ele>794.7</ele>
        <time>2022-08-29T09:24:37Z</time>
      </trkpt>
      <trkpt lat="47.89411" lon="6.88171">
        <ele>794.2</ele>
        <time>2022-08-29T09:24:39Z</time>
      </trkpt>
      <trkpt lat="47.89411" lon="6.8817">
        <ele>794.2</ele>
        <time>2022-08-29T09:24:40Z</time>
      </trkpt>
      <trkpt lat="47.8941" lon="6.88169">
        <ele>793.7</ele>
        <time>2022-08-29T09:24:41Z</time>
      </trkpt>
      <trkpt lat="47.8941" lon="6.88168">
        <ele>793.7</ele>
        <time>2022-08-29T09:24:42Z</time>
      </trkpt>
      <trkpt lat="47.8941" lon="6.88167">
        <ele>793.6</ele>
        <time>2022-08-29T09:24:44Z</time>
      </trkpt>
      <trkpt lat="47.89409" lon="6.88166">
        <ele>793.1</ele>
        <time>2022-08-29T09:24:45Z</time>
      </trkpt>
      <trkpt lat="47.89409" lon="6.88165">
        <ele>793.1</ele>
        <time>2022-08-29T09:24:46Z</time>
      </trkpt>
      <trkpt lat="47.89409" lon="6.88164">
        <ele>793.1</ele>
        <time>2022-08-29T09:24:47Z</time>
      </trkpt>
      <trkpt lat="47.89408" lon="6.88158">
        <ele>792.5</ele>
        <time>2022-08-29T09:25:05Z</time>
      </trkpt>
      <trkpt lat="47.89407" lon="6.88156">
        <ele>792</ele>
        <time>2022-08-29T09:25:06Z</time>
      </trkpt>
      <trkpt lat="47.89406" lon="6.88153">
        <ele>791.4</ele>
        <time>2022-08-29T09:25:07Z</time>
      </trkpt>
      <trkpt lat="47.89406" lon="6.88152">
        <ele>791.4</ele>
        <time>2022-08-29T09:25:08Z</time>
      </trkpt>
      <trkpt lat="47.89405" lon="6.8815">
        <ele>790.9</ele>
        <time>2022-08-29T09:25:09Z</time>
      </trkpt>
      <trkpt lat="47.89405" lon="6.88149">
        <ele>790.9</ele>
        <time>2022-08-29T09:25:10Z</time>
      </trkpt>
      <trkpt lat="47.89405" lon="6.88147">
        <ele>790.8</ele>
        <time>2022-08-29T09:25:12Z</time>
      </trkpt>
      <trkpt lat="47.89404" lon="6.88146">
        <ele>790.3</ele>
        <time>2022-08-29T09:25:13Z</time>
      </trkpt>
      <trkpt lat="47.89404" lon="6.88145">
        <ele>790.3</ele>
        <time>2022-08-29T09:25:14Z</time>
      </trkpt>
      <trkpt lat="47.89404" lon="6.88144">
        <ele>790.2</ele>
        <time>2022-08-29T09:25:15Z</time>
      </trkpt>
      <trkpt lat="47.89403" lon="6.88143">
        <ele>789.7</ele>
        <time>2022-08-29T09:25:16Z</time>
      </trkpt>
      <trkpt lat="47.89403" lon="6.88141">
        <ele>789.7</ele>
        <time>2022-08-29T09:25:17Z</time>
      </trkpt>
      <trkpt lat="47.89402" lon="6.8814">
        <ele>789.1</ele>
        <time>2022-08-29T09:25:18Z</time>
      </trkpt>
      <trkpt lat="47.89402" lon="6.88139">
        <ele>789.1</ele>
        <time>2022-08-29T09:25:19Z</time>
      </trkpt>
      <trkpt lat="47.89401" lon="6.88139">
        <ele>788.5</ele>
        <time>2022-08-29T09:25:20Z</time>
      </trkpt>
      <trkpt lat="47.89401" lon="6.88138">
        <ele>788.5</ele>
        <time>2022-08-29T09:25:21Z</time>
      </trkpt>
      <trkpt lat="47.894" lon="6.88137">
        <ele>787.9</ele>
        <time>2022-08-29T09:25:22Z</time>
      </trkpt>
      <trkpt lat="47.894" lon="6.88135">
        <ele>787.9</ele>
        <time>2022-08-29T09:25:23Z</time>
      </trkpt>
      <trkpt lat="47.89399" lon="6.88134">
        <ele>787.3</ele>
        <time>2022-08-29T09:25:24Z</time>
      </trkpt>
      <trkpt lat="47.89399" lon="6.88133">
        <ele>787.2</ele>
        <time>2022-08-29T09:25:26Z</time>
      </trkpt>
      <trkpt lat="47.89398" lon="6.88132">
        <ele>786.7</ele>
        <time>2022-08-29T09:25:27Z</time>
      </trkpt>
      <trkpt lat="47.89398" lon="6.8813">
        <ele>786.6</ele>
        <time>2022-08-29T09:25:28Z</time>
      </trkpt>
      <trkpt lat="47.89397" lon="6.88127">
        <ele>786</ele>
        <time>2022-08-29T09:25:36Z</time>
      </trkpt>
      <trkpt lat="47.89397" lon="6.88126">
        <ele>785.9</ele>
        <time>2022-08-29T09:25:37Z</time>
      </trkpt>
      <trkpt lat="47.89396" lon="6.88124">
        <ele>785.3</ele>
        <time>2022-08-29T09:25:38Z</time>
      </trkpt>
      <trkpt lat="47.89396" lon="6.88123">
        <ele>785.3</ele>
        <time>2022-08-29T09:25:39Z</time>
      </trkpt>
      <trkpt lat="47.89395" lon="6.88122">
        <ele>784.7</ele>
        <time>2022-08-29T09:25:40Z</time>
      </trkpt>
      <trkpt lat="47.89395" lon="6.88121">
        <ele>784.7</ele>
        <time>2022-08-29T09:25:41Z</time>
      </trkpt>
      <trkpt lat="47.89395" lon="6.8812">
        <ele>784.6</ele>
        <time>2022-08-29T09:25:42Z</time>
      </trkpt>
      <trkpt lat="47.89394" lon="6.88119">
        <ele>784</ele>
        <time>2022-08-29T09:25:43Z</time>
      </trkpt>
      <trkpt lat="47.89394" lon="6.88118">
        <ele>784</ele>
        <time>2022-08-29T09:25:44Z</time>
      </trkpt>
      <trkpt lat="47.89394" lon="6.88117">
        <ele>784</ele>
        <time>2022-08-29T09:25:45Z</time>
      </trkpt>
      <trkpt lat="47.89394" lon="6.88116">
        <ele>783.9</ele>
        <time>2022-08-29T09:25:46Z</time>
      </trkpt>
      <trkpt lat="47.89394" lon="6.88115">
        <ele>783.9</ele>
        <time>2022-08-29T09:25:47Z</time>
      </trkpt>
      <trkpt lat="47.89393" lon="6.88114">
        <ele>783.3</ele>
        <time>2022-08-29T09:25:48Z</time>
      </trkpt>
      <trkpt lat="47.89393" lon="6.88113">
        <ele>783.3</ele>
        <time>2022-08-29T09:25:49Z</time>
      </trkpt>
      <trkpt lat="47.89392" lon="6.88113">
        <ele>782.7</ele>
        <time>2022-08-29T09:25:50Z</time>
      </trkpt>
      <trkpt lat="47.89392" lon="6.88112">
        <ele>782.7</ele>
        <time>2022-08-29T09:25:51Z</time>
      </trkpt>
      <trkpt lat="47.89392" lon="6.88111">
        <ele>782.7</ele>
        <time>2022-08-29T09:25:52Z</time>
      </trkpt>
      <trkpt lat="47.89391" lon="6.88111">
        <ele>782.1</ele>
        <time>2022-08-29T09:25:53Z</time>
      </trkpt>
      <trkpt lat="47.89391" lon="6.8811">
        <ele>782.1</ele>
        <time>2022-08-29T09:25:54Z</time>
      </trkpt>
      <trkpt lat="47.89391" lon="6.88109">
        <ele>782.1</ele>
        <time>2022-08-29T09:25:55Z</time>
      </trkpt>
      <trkpt lat="47.89391" lon="6.88108">
        <ele>782</ele>
        <time>2022-08-29T09:25:57Z</time>
      </trkpt>
      <trkpt lat="47.8939" lon="6.88107">
        <ele>781.5</ele>
        <time>2022-08-29T09:25:58Z</time>
      </trkpt>
      <trkpt lat="47.8939" lon="6.88106">
        <ele>781.4</ele>
        <time>2022-08-29T09:26:00Z</time>
      </trkpt>
      <trkpt lat="47.89389" lon="6.88105">
        <ele>780.8</ele>
        <time>2022-08-29T09:26:01Z</time>
      </trkpt>
      <trkpt lat="47.89389" lon="6.88104">
        <ele>780.8</ele>
        <time>2022-08-29T09:26:03Z</time>
      </trkpt>
      <trkpt lat="47.89388" lon="6.88104">
        <ele>780.3</ele>
        <time>2022-08-29T09:26:04Z</time>
      </trkpt>
      <trkpt lat="47.89388" lon="6.88103">
        <ele>780.3</ele>
        <time>2022-08-29T09:26:05Z</time>
      </trkpt>
      <trkpt lat="47.89387" lon="6.88102">
        <ele>779.8</ele>
        <time>2022-08-29T09:26:07Z</time>
      </trkpt>
      <trkpt lat="47.89387" lon="6.88101">
        <ele>779.8</ele>
        <time>2022-08-29T09:26:08Z</time>
      </trkpt>
      <trkpt lat="47.89387" lon="6.881">
        <ele>779.7</ele>
        <time>2022-08-29T09:26:09Z</time>
      </trkpt>
      <trkpt lat="47.89386" lon="6.88099">
        <ele>779.2</ele>
        <time>2022-08-29T09:26:10Z</time>
      </trkpt>
      <trkpt lat="47.89386" lon="6.88098">
        <ele>779.2</ele>
        <time>2022-08-29T09:26:11Z</time>
      </trkpt>
      <trkpt lat="47.89386" lon="6.88097">
        <ele>779.1</ele>
        <time>2022-08-29T09:26:12Z</time>
      </trkpt>
      <trkpt lat="47.89386" lon="6.88096">
        <ele>779.1</ele>
        <time>2022-08-29T09:26:13Z</time>
      </trkpt>
      <trkpt lat="47.89386" lon="6.88095">
        <ele>779.1</ele>
        <time>2022-08-29T09:26:14Z</time>
      </trkpt>
      <trkpt lat="47.89386" lon="6.88094">
        <ele>779</ele>
        <time>2022-08-29T09:26:15Z</time>
      </trkpt>
      <trkpt lat="47.89385" lon="6.88093">
        <ele>778.5</ele>
        <time>2022-08-29T09:26:16Z</time>
      </trkpt>
      <trkpt lat="47.89384" lon="6.8809">
        <ele>778</ele>
        <time>2022-08-29T09:26:24Z</time>
      </trkpt>
      <trkpt lat="47.89384" lon="6.88088">
        <ele>777.9</ele>
        <time>2022-08-29T09:26:25Z</time>
      </trkpt>
      <trkpt lat="47.89383" lon="6.88087">
        <ele>777.4</ele>
        <time>2022-08-29T09:26:26Z</time>
      </trkpt>
      <trkpt lat="47.89383" lon="6.88085">
        <ele>777.3</ele>
        <time>2022-08-29T09:26:27Z</time>
      </trkpt>
      <trkpt lat="47.89383" lon="6.88084">
        <ele>777.3</ele>
        <time>2022-08-29T09:26:28Z</time>
      </trkpt>
      <trkpt lat="47.89383" lon="6.88083">
        <ele>777.2</ele>
        <time>2022-08-29T09:26:29Z</time>
      </trkpt>
      <trkpt lat="47.89383" lon="6.88081">
        <ele>777.3</ele>
        <time>2022-08-29T09:26:30Z</time>
      </trkpt>
      <trkpt lat="47.89383" lon="6.8808">
        <ele>777.3</ele>
        <time>2022-08-29T09:26:31Z</time>
      </trkpt>
      <trkpt lat="47.89382" lon="6.88079">
        <ele>776.8</ele>
        <time>2022-08-29T09:26:32Z</time>
      </trkpt>
      <trkpt lat="47.89382" lon="6.88077">
        <ele>776.8</ele>
        <time>2022-08-29T09:26:33Z</time>
      </trkpt>
      <trkpt lat="47.89382" lon="6.88076">
        <ele>776.8</ele>
        <time>2022-08-29T09:26:34Z</time>
      </trkpt>
      <trkpt lat="47.89382" lon="6.88075">
        <ele>776.9</ele>
        <time>2022-08-29T09:26:35Z</time>
      </trkpt>
      <trkpt lat="47.89382" lon="6.88074">
        <ele>776.9</ele>
        <time>2022-08-29T09:26:36Z</time>
      </trkpt>
      <trkpt lat="47.89382" lon="6.88073">
        <ele>776.9</ele>
        <time>2022-08-29T09:26:37Z</time>
      </trkpt>
      <trkpt lat="47.89381" lon="6.88072">
        <ele>776.4</ele>
        <time>2022-08-29T09:26:38Z</time>
      </trkpt>
      <trkpt lat="47.89381" lon="6.88071">
        <ele>776.4</ele>
        <time>2022-08-29T09:26:39Z</time>
      </trkpt>
      <trkpt lat="47.89381" lon="6.8807">
        <ele>776.4</ele>
        <time>2022-08-29T09:26:40Z</time>
      </trkpt>
      <trkpt lat="47.8938" lon="6.8807">
        <ele>776</ele>
        <time>2022-08-29T09:26:41Z</time>
      </trkpt>
      <trkpt lat="47.89379" lon="6.88069">
        <ele>775.6</ele>
        <time>2022-08-29T09:26:42Z</time>
      </trkpt>
      <trkpt lat="47.89379" lon="6.88068">
        <ele>775.6</ele>
        <time>2022-08-29T09:26:43Z</time>
      </trkpt>
      <trkpt lat="47.89378" lon="6.88067">
        <ele>775.1</ele>
        <time>2022-08-29T09:26:44Z</time>
      </trkpt>
      <trkpt lat="47.89378" lon="6.88066">
        <ele>775.1</ele>
        <time>2022-08-29T09:26:46Z</time>
      </trkpt>
      <trkpt lat="47.89377" lon="6.88065">
        <ele>774.7</ele>
        <time>2022-08-29T09:26:47Z</time>
      </trkpt>
      <trkpt lat="47.89377" lon="6.88064">
        <ele>774.7</ele>
        <time>2022-08-29T09:26:49Z</time>
      </trkpt>
      <trkpt lat="47.89376" lon="6.88063">
        <ele>774.3</ele>
        <time>2022-08-29T09:26:52Z</time>
      </trkpt>
      <trkpt lat="47.89376" lon="6.88062">
        <ele>774.3</ele>
        <time>2022-08-29T09:26:53Z</time>
      </trkpt>
      <trkpt lat="47.89376" lon="6.88061">
        <ele>774.3</ele>
        <time>2022-08-29T09:26:54Z</time>
      </trkpt>
      <trkpt lat="47.89375" lon="6.8806">
        <ele>773.9</ele>
        <time>2022-08-29T09:26:56Z</time>
      </trkpt>
      <trkpt lat="47.89374" lon="6.88058">
        <ele>773.5</ele>
        <time>2022-08-29T09:26:59Z</time>
      </trkpt>
      <trkpt lat="47.89374" lon="6.88057">
        <ele>773.5</ele>
        <time>2022-08-29T09:27:00Z</time>
      </trkpt>
      <trkpt lat="47.89373" lon="6.88056">
        <ele>773.1</ele>
        <time>2022-08-29T09:27:01Z</time>
      </trkpt>
      <trkpt lat="47.89372" lon="6.88055">
        <ele>772.7</ele>
        <time>2022-08-29T09:27:02Z</time>
      </trkpt>
      <trkpt lat="47.89372" lon="6.88054">
        <ele>772.7</ele>
        <time>2022-08-29T09:27:03Z</time>
      </trkpt>
      <trkpt lat="47.89371" lon="6.88053">
        <ele>772.3</ele>
        <time>2022-08-29T09:27:04Z</time>
      </trkpt>
      <trkpt lat="47.8937" lon="6.88052">
        <ele>771.9</ele>
        <time>2022-08-29T09:27:05Z</time>
      </trkpt>
      <trkpt lat="47.8937" lon="6.88051">
        <ele>772</ele>
        <time>2022-08-29T09:27:06Z</time>
      </trkpt>
      <trkpt lat="47.89369" lon="6.8805">
        <ele>771.6</ele>
        <time>2022-08-29T09:27:07Z</time>
      </trkpt>
      <trkpt lat="47.89368" lon="6.88048">
        <ele>771.2</ele>
        <time>2022-08-29T09:27:08Z</time>
      </trkpt>
      <trkpt lat="47.89368" lon="6.88047">
        <ele>771.2</ele>
        <time>2022-08-29T09:27:09Z</time>
      </trkpt>
      <trkpt lat="47.89368" lon="6.88046">
        <ele>771.2</ele>
        <time>2022-08-29T09:27:10Z</time>
      </trkpt>
      <trkpt lat="47.89367" lon="6.88045">
        <ele>770.8</ele>
        <time>2022-08-29T09:27:11Z</time>
      </trkpt>
      <trkpt lat="47.89367" lon="6.88044">
        <ele>770.9</ele>
        <time>2022-08-29T09:27:12Z</time>
      </trkpt>
      <trkpt lat="47.89367" lon="6.88043">
        <ele>770.9</ele>
        <time>2022-08-29T09:27:13Z</time>
      </trkpt>
      <trkpt lat="47.89366" lon="6.88042">
        <ele>770.5</ele>
        <time>2022-08-29T09:27:14Z</time>
      </trkpt>
      <trkpt lat="47.89366" lon="6.88041">
        <ele>770.5</ele>
        <time>2022-08-29T09:27:15Z</time>
      </trkpt>
      <trkpt lat="47.89366" lon="6.8804">
        <ele>770.6</ele>
        <time>2022-08-29T09:27:16Z</time>
      </trkpt>
      <trkpt lat="47.89366" lon="6.88039">
        <ele>770.6</ele>
        <time>2022-08-29T09:27:17Z</time>
      </trkpt>
      <trkpt lat="47.89365" lon="6.88038">
        <ele>770.2</ele>
        <time>2022-08-29T09:27:18Z</time>
      </trkpt>
      <trkpt lat="47.89365" lon="6.88037">
        <ele>770.3</ele>
        <time>2022-08-29T09:27:19Z</time>
      </trkpt>
      <trkpt lat="47.89365" lon="6.88036">
        <ele>770.3</ele>
        <time>2022-08-29T09:27:20Z</time>
      </trkpt>
      <trkpt lat="47.89364" lon="6.88035">
        <ele>769.9</ele>
        <time>2022-08-29T09:27:22Z</time>
      </trkpt>
      <trkpt lat="47.89364" lon="6.88034">
        <ele>769.9</ele>
        <time>2022-08-29T09:27:23Z</time>
      </trkpt>
      <trkpt lat="47.89364" lon="6.88033">
        <ele>770</ele>
        <time>2022-08-29T09:27:24Z</time>
      </trkpt>
      <trkpt lat="47.89363" lon="6.88032">
        <ele>769.6</ele>
        <time>2022-08-29T09:27:25Z</time>
      </trkpt>
      <trkpt lat="47.89362" lon="6.8803">
        <ele>769.3</ele>
        <time>2022-08-29T09:27:34Z</time>
      </trkpt>
      <trkpt lat="47.89362" lon="6.88029">
        <ele>769.3</ele>
        <time>2022-08-29T09:27:35Z</time>
      </trkpt>
      <trkpt lat="47.89361" lon="6.88028">
        <ele>768.9</ele>
        <time>2022-08-29T09:27:36Z</time>
      </trkpt>
      <trkpt lat="47.89361" lon="6.88027">
        <ele>768.9</ele>
        <time>2022-08-29T09:27:38Z</time>
      </trkpt>
      <trkpt lat="47.8936" lon="6.88026">
        <ele>768.5</ele>
        <time>2022-08-29T09:27:39Z</time>
      </trkpt>
      <trkpt lat="47.8936" lon="6.88025">
        <ele>768.5</ele>
        <time>2022-08-29T09:27:41Z</time>
      </trkpt>
      <trkpt lat="47.89359" lon="6.88024">
        <ele>768</ele>
        <time>2022-08-29T09:27:42Z</time>
      </trkpt>
      <trkpt lat="47.89359" lon="6.88023">
        <ele>768</ele>
        <time>2022-08-29T09:27:43Z</time>
      </trkpt>
      <trkpt lat="47.89358" lon="6.88022">
        <ele>767.6</ele>
        <time>2022-08-29T09:27:44Z</time>
      </trkpt>
      <trkpt lat="47.89358" lon="6.88021">
        <ele>767.5</ele>
        <time>2022-08-29T09:27:45Z</time>
      </trkpt>
      <trkpt lat="47.89357" lon="6.88019">
        <ele>767.1</ele>
        <time>2022-08-29T09:27:46Z</time>
      </trkpt>
      <trkpt lat="47.89357" lon="6.88018">
        <ele>767</ele>
        <time>2022-08-29T09:27:47Z</time>
      </trkpt>
      <trkpt lat="47.89356" lon="6.88016">
        <ele>766.6</ele>
        <time>2022-08-29T09:27:48Z</time>
      </trkpt>
      <trkpt lat="47.89355" lon="6.88015">
        <ele>766.1</ele>
        <time>2022-08-29T09:27:49Z</time>
      </trkpt>
      <trkpt lat="47.89355" lon="6.88014">
        <ele>766.1</ele>
        <time>2022-08-29T09:27:50Z</time>
      </trkpt>
      <trkpt lat="47.89354" lon="6.88013">
        <ele>765.7</ele>
        <time>2022-08-29T09:27:51Z</time>
      </trkpt>
      <trkpt lat="47.89354" lon="6.88012">
        <ele>765.6</ele>
        <time>2022-08-29T09:27:52Z</time>
      </trkpt>
      <trkpt lat="47.89353" lon="6.88011">
        <ele>765.2</ele>
        <time>2022-08-29T09:27:53Z</time>
      </trkpt>
      <trkpt lat="47.89353" lon="6.8801">
        <ele>765.1</ele>
        <time>2022-08-29T09:27:54Z</time>
      </trkpt>
      <trkpt lat="47.89352" lon="6.8801">
        <ele>764.8</ele>
        <time>2022-08-29T09:27:55Z</time>
      </trkpt>
      <trkpt lat="47.89352" lon="6.88009">
        <ele>764.7</ele>
        <time>2022-08-29T09:27:56Z</time>
      </trkpt>
      <trkpt lat="47.89351" lon="6.88008">
        <ele>764.3</ele>
        <time>2022-08-29T09:27:57Z</time>
      </trkpt>
      <trkpt lat="47.89351" lon="6.88007">
        <ele>764.2</ele>
        <time>2022-08-29T09:27:59Z</time>
      </trkpt>
      <trkpt lat="47.8935" lon="6.88006">
        <ele>763.8</ele>
        <time>2022-08-29T09:28:00Z</time>
      </trkpt>
      <trkpt lat="47.89349" lon="6.88005">
        <ele>763.4</ele>
        <time>2022-08-29T09:28:02Z</time>
      </trkpt>
      <trkpt lat="47.89349" lon="6.88004">
        <ele>763.3</ele>
        <time>2022-08-29T09:28:03Z</time>
      </trkpt>
      <trkpt lat="47.89348" lon="6.88003">
        <ele>762.9</ele>
        <time>2022-08-29T09:28:04Z</time>
      </trkpt>
      <trkpt lat="47.89348" lon="6.88002">
        <ele>762.9</ele>
        <time>2022-08-29T09:28:06Z</time>
      </trkpt>
      <trkpt lat="47.89347" lon="6.88001">
        <ele>762.4</ele>
        <time>2022-08-29T09:28:07Z</time>
      </trkpt>
      <trkpt lat="47.89347" lon="6.88">
        <ele>762.4</ele>
        <time>2022-08-29T09:28:08Z</time>
      </trkpt>
      <trkpt lat="47.89346" lon="6.88">
        <ele>762</ele>
        <time>2022-08-29T09:28:09Z</time>
      </trkpt>
      <trkpt lat="47.89346" lon="6.87999">
        <ele>762</ele>
        <time>2022-08-29T09:28:10Z</time>
      </trkpt>
      <trkpt lat="47.89346" lon="6.87998">
        <ele>762</ele>
        <time>2022-08-29T09:28:11Z</time>
      </trkpt>
      <trkpt lat="47.89345" lon="6.87998">
        <ele>761.6</ele>
        <time>2022-08-29T09:28:12Z</time>
      </trkpt>
      <trkpt lat="47.89345" lon="6.87997">
        <ele>761.6</ele>
        <time>2022-08-29T09:28:13Z</time>
      </trkpt>
      <trkpt lat="47.89344" lon="6.87996">
        <ele>761.1</ele>
        <time>2022-08-29T09:28:15Z</time>
      </trkpt>
      <trkpt lat="47.89343" lon="6.87995">
        <ele>760.7</ele>
        <time>2022-08-29T09:28:17Z</time>
      </trkpt>
      <trkpt lat="47.89343" lon="6.87994">
        <ele>760.7</ele>
        <time>2022-08-29T09:28:18Z</time>
      </trkpt>
      <trkpt lat="47.89342" lon="6.87994">
        <ele>760.3</ele>
        <time>2022-08-29T09:28:20Z</time>
      </trkpt>
      <trkpt lat="47.89342" lon="6.87993">
        <ele>760.3</ele>
        <time>2022-08-29T09:28:21Z</time>
      </trkpt>
      <trkpt lat="47.89341" lon="6.87993">
        <ele>759.9</ele>
        <time>2022-08-29T09:28:22Z</time>
      </trkpt>
      <trkpt lat="47.89341" lon="6.87992">
        <ele>759.8</ele>
        <time>2022-08-29T09:28:23Z</time>
      </trkpt>
      <trkpt lat="47.8934" lon="6.87991">
        <ele>759.4</ele>
        <time>2022-08-29T09:28:24Z</time>
      </trkpt>
      <trkpt lat="47.89339" lon="6.8799">
        <ele>759</ele>
        <time>2022-08-29T09:28:26Z</time>
      </trkpt>
      <trkpt lat="47.89339" lon="6.87989">
        <ele>758.9</ele>
        <time>2022-08-29T09:28:28Z</time>
      </trkpt>
      <trkpt lat="47.89338" lon="6.87989">
        <ele>758.5</ele>
        <time>2022-08-29T09:28:29Z</time>
      </trkpt>
      <trkpt lat="47.89338" lon="6.87988">
        <ele>758.5</ele>
        <time>2022-08-29T09:28:30Z</time>
      </trkpt>
      <trkpt lat="47.89337" lon="6.87988">
        <ele>758.1</ele>
        <time>2022-08-29T09:28:32Z</time>
      </trkpt>
      <trkpt lat="47.89337" lon="6.87987">
        <ele>758</ele>
        <time>2022-08-29T09:28:34Z</time>
      </trkpt>
      <trkpt lat="47.89336" lon="6.87985">
        <ele>757.6</ele>
        <time>2022-08-29T09:28:35Z</time>
      </trkpt>
      <trkpt lat="47.89335" lon="6.87984">
        <ele>757.1</ele>
        <time>2022-08-29T09:28:37Z</time>
      </trkpt>
      <trkpt lat="47.89335" lon="6.87983">
        <ele>757.1</ele>
        <time>2022-08-29T09:28:38Z</time>
      </trkpt>
      <trkpt lat="47.89334" lon="6.87982">
        <ele>756.6</ele>
        <time>2022-08-29T09:28:39Z</time>
      </trkpt>
      <trkpt lat="47.89334" lon="6.87981">
        <ele>756.6</ele>
        <time>2022-08-29T09:28:41Z</time>
      </trkpt>
      <trkpt lat="47.89333" lon="6.8798">
        <ele>756.2</ele>
        <time>2022-08-29T09:28:42Z</time>
      </trkpt>
      <trkpt lat="47.89333" lon="6.87979">
        <ele>756.2</ele>
        <time>2022-08-29T09:28:43Z</time>
      </trkpt>
      <trkpt lat="47.89333" lon="6.87978">
        <ele>756.1</ele>
        <time>2022-08-29T09:28:44Z</time>
      </trkpt>
      <trkpt lat="47.89332" lon="6.87977">
        <ele>755.8</ele>
        <time>2022-08-29T09:28:46Z</time>
      </trkpt>
      <trkpt lat="47.89332" lon="6.87976">
        <ele>755.8</ele>
        <time>2022-08-29T09:28:49Z</time>
      </trkpt>
      <trkpt lat="47.89332" lon="6.87975">
        <ele>755.8</ele>
        <time>2022-08-29T09:28:50Z</time>
      </trkpt>
      <trkpt lat="47.89332" lon="6.87974">
        <ele>755.7</ele>
        <time>2022-08-29T09:28:51Z</time>
      </trkpt>
      <trkpt lat="47.89331" lon="6.87973">
        <ele>755.4</ele>
        <time>2022-08-29T09:28:53Z</time>
      </trkpt>
      <trkpt lat="47.89331" lon="6.87972">
        <ele>755.4</ele>
        <time>2022-08-29T09:28:54Z</time>
      </trkpt>
      <trkpt lat="47.8933" lon="6.87971">
        <ele>755.2</ele>
        <time>2022-08-29T09:28:55Z</time>
      </trkpt>
      <trkpt lat="47.89329" lon="6.8797">
        <ele>755</ele>
        <time>2022-08-29T09:29:03Z</time>
      </trkpt>
      <trkpt lat="47.89328" lon="6.8797">
        <ele>754.7</ele>
        <time>2022-08-29T09:29:04Z</time>
      </trkpt>
      <trkpt lat="47.89328" lon="6.87969">
        <ele>754.8</ele>
        <time>2022-08-29T09:29:05Z</time>
      </trkpt>
      <trkpt lat="47.89328" lon="6.87968">
        <ele>754.8</ele>
        <time>2022-08-29T09:29:06Z</time>
      </trkpt>
      <trkpt lat="47.89327" lon="6.87968">
        <ele>754.5</ele>
        <time>2022-08-29T09:29:07Z</time>
      </trkpt>
      <trkpt lat="47.89327" lon="6.87966">
        <ele>754.5</ele>
        <time>2022-08-29T09:29:08Z</time>
      </trkpt>
      <trkpt lat="47.89327" lon="6.87965">
        <ele>754.6</ele>
        <time>2022-08-29T09:29:09Z</time>
      </trkpt>
      <trkpt lat="47.89327" lon="6.87964">
        <ele>754.6</ele>
        <time>2022-08-29T09:29:10Z</time>
      </trkpt>
      <trkpt lat="47.89327" lon="6.87963">
        <ele>754.6</ele>
        <time>2022-08-29T09:29:11Z</time>
      </trkpt>
      <trkpt lat="47.89327" lon="6.87962">
        <ele>754.6</ele>
        <time>2022-08-29T09:29:12Z</time>
      </trkpt>
      <trkpt lat="47.89327" lon="6.8796">
        <ele>754.7</ele>
        <time>2022-08-29T09:29:13Z</time>
      </trkpt>
      <trkpt lat="47.89327" lon="6.87959">
        <ele>754.7</ele>
        <time>2022-08-29T09:29:14Z</time>
      </trkpt>
      <trkpt lat="47.89326" lon="6.87958">
        <ele>754.4</ele>
        <time>2022-08-29T09:29:15Z</time>
      </trkpt>
      <trkpt lat="47.89326" lon="6.87957">
        <ele>754.4</ele>
        <time>2022-08-29T09:29:16Z</time>
      </trkpt>
      <trkpt lat="47.89325" lon="6.87956">
        <ele>754</ele>
        <time>2022-08-29T09:29:17Z</time>
      </trkpt>
      <trkpt lat="47.89325" lon="6.87955">
        <ele>754</ele>
        <time>2022-08-29T09:29:18Z</time>
      </trkpt>
      <trkpt lat="47.89324" lon="6.87955">
        <ele>753.6</ele>
        <time>2022-08-29T09:29:19Z</time>
      </trkpt>
      <trkpt lat="47.89324" lon="6.87954">
        <ele>753.6</ele>
        <time>2022-08-29T09:29:20Z</time>
      </trkpt>
      <trkpt lat="47.89323" lon="6.87953">
        <ele>753.2</ele>
        <time>2022-08-29T09:29:21Z</time>
      </trkpt>
      <trkpt lat="47.89323" lon="6.87952">
        <ele>753.2</ele>
        <time>2022-08-29T09:29:22Z</time>
      </trkpt>
      <trkpt lat="47.89322" lon="6.87951">
        <ele>752.8</ele>
        <time>2022-08-29T09:29:24Z</time>
      </trkpt>
      <trkpt lat="47.89322" lon="6.8795">
        <ele>752.8</ele>
        <time>2022-08-29T09:29:25Z</time>
      </trkpt>
      <trkpt lat="47.89322" lon="6.87949">
        <ele>752.8</ele>
        <time>2022-08-29T09:29:26Z</time>
      </trkpt>
      <trkpt lat="47.89322" lon="6.87948">
        <ele>752.8</ele>
        <time>2022-08-29T09:29:27Z</time>
      </trkpt>
      <trkpt lat="47.89321" lon="6.87947">
        <ele>752.3</ele>
        <time>2022-08-29T09:29:28Z</time>
      </trkpt>
      <trkpt lat="47.89321" lon="6.87946">
        <ele>752.3</ele>
        <time>2022-08-29T09:29:30Z</time>
      </trkpt>
      <trkpt lat="47.89321" lon="6.87945">
        <ele>752.2</ele>
        <time>2022-08-29T09:29:31Z</time>
      </trkpt>
      <trkpt lat="47.8932" lon="6.87944">
        <ele>751.8</ele>
        <time>2022-08-29T09:29:33Z</time>
      </trkpt>
      <trkpt lat="47.8932" lon="6.87943">
        <ele>751.9</ele>
        <time>2022-08-29T09:29:34Z</time>
      </trkpt>
      <trkpt lat="47.89319" lon="6.87942">
        <ele>751.5</ele>
        <time>2022-08-29T09:29:35Z</time>
      </trkpt>
      <trkpt lat="47.89319" lon="6.87941">
        <ele>751.5</ele>
        <time>2022-08-29T09:29:36Z</time>
      </trkpt>
      <trkpt lat="47.89318" lon="6.8794">
        <ele>751.1</ele>
        <time>2022-08-29T09:29:37Z</time>
      </trkpt>
      <trkpt lat="47.89318" lon="6.87939">
        <ele>751.2</ele>
        <time>2022-08-29T09:29:38Z</time>
      </trkpt>
      <trkpt lat="47.89317" lon="6.87939">
        <ele>750.7</ele>
        <time>2022-08-29T09:29:39Z</time>
      </trkpt>
      <trkpt lat="47.89317" lon="6.87938">
        <ele>750.8</ele>
        <time>2022-08-29T09:29:40Z</time>
      </trkpt>
      <trkpt lat="47.89316" lon="6.87937">
        <ele>750.4</ele>
        <time>2022-08-29T09:29:43Z</time>
      </trkpt>
      <trkpt lat="47.89316" lon="6.87936">
        <ele>750.5</ele>
        <time>2022-08-29T09:29:44Z</time>
      </trkpt>
      <trkpt lat="47.89315" lon="6.87935">
        <ele>750.1</ele>
        <time>2022-08-29T09:29:45Z</time>
      </trkpt>
      <trkpt lat="47.89314" lon="6.87934">
        <ele>749.7</ele>
        <time>2022-08-29T09:29:46Z</time>
      </trkpt>
      <trkpt lat="47.89314" lon="6.87933">
        <ele>749.8</ele>
        <time>2022-08-29T09:29:47Z</time>
      </trkpt>
      <trkpt lat="47.89313" lon="6.87932">
        <ele>749.4</ele>
        <time>2022-08-29T09:29:48Z</time>
      </trkpt>
      <trkpt lat="47.89312" lon="6.87931">
        <ele>749</ele>
        <time>2022-08-29T09:29:49Z</time>
      </trkpt>
      <trkpt lat="47.89312" lon="6.8793">
        <ele>749.1</ele>
        <time>2022-08-29T09:29:50Z</time>
      </trkpt>
      <trkpt lat="47.89311" lon="6.8793">
        <ele>748.6</ele>
        <time>2022-08-29T09:29:52Z</time>
      </trkpt>
      <trkpt lat="47.89311" lon="6.87929">
        <ele>748.7</ele>
        <time>2022-08-29T09:29:53Z</time>
      </trkpt>
      <trkpt lat="47.8931" lon="6.87929">
        <ele>748.2</ele>
        <time>2022-08-29T09:29:54Z</time>
      </trkpt>
      <trkpt lat="47.89309" lon="6.87928">
        <ele>747.8</ele>
        <time>2022-08-29T09:29:55Z</time>
      </trkpt>
      <trkpt lat="47.89308" lon="6.87927">
        <ele>747.4</ele>
        <time>2022-08-29T09:29:57Z</time>
      </trkpt>
      <trkpt lat="47.89308" lon="6.87926">
        <ele>747.5</ele>
        <time>2022-08-29T09:29:58Z</time>
      </trkpt>
      <trkpt lat="47.89306" lon="6.87924">
        <ele>746.7</ele>
        <time>2022-08-29T09:30:11Z</time>
      </trkpt>
      <trkpt lat="47.89305" lon="6.87923">
        <ele>746.3</ele>
        <time>2022-08-29T09:30:12Z</time>
      </trkpt>
      <trkpt lat="47.89305" lon="6.87922">
        <ele>746.3</ele>
        <time>2022-08-29T09:30:13Z</time>
      </trkpt>
      <trkpt lat="47.89304" lon="6.87921">
        <ele>745.9</ele>
        <time>2022-08-29T09:30:14Z</time>
      </trkpt>
      <trkpt lat="47.89303" lon="6.87921">
        <ele>745.4</ele>
        <time>2022-08-29T09:30:15Z</time>
      </trkpt>
      <trkpt lat="47.89302" lon="6.8792">
        <ele>745</ele>
        <time>2022-08-29T09:30:16Z</time>
      </trkpt>
      <trkpt lat="47.89301" lon="6.8792">
        <ele>744.5</ele>
        <time>2022-08-29T09:30:17Z</time>
      </trkpt>
      <trkpt lat="47.89301" lon="6.87919">
        <ele>744.6</ele>
        <time>2022-08-29T09:30:18Z</time>
      </trkpt>
      <trkpt lat="47.893" lon="6.87919">
        <ele>744.1</ele>
        <time>2022-08-29T09:30:19Z</time>
      </trkpt>
      <trkpt lat="47.89299" lon="6.87919">
        <ele>743.6</ele>
        <time>2022-08-29T09:30:20Z</time>
      </trkpt>
      <trkpt lat="47.89299" lon="6.87918">
        <ele>743.6</ele>
        <time>2022-08-29T09:30:21Z</time>
      </trkpt>
      <trkpt lat="47.89298" lon="6.87917">
        <ele>743.2</ele>
        <time>2022-08-29T09:30:24Z</time>
      </trkpt>
      <trkpt lat="47.89297" lon="6.87916">
        <ele>742.7</ele>
        <time>2022-08-29T09:30:26Z</time>
      </trkpt>
      <trkpt lat="47.89297" lon="6.87915">
        <ele>742.7</ele>
        <time>2022-08-29T09:30:27Z</time>
      </trkpt>
      <trkpt lat="47.89296" lon="6.87915">
        <ele>742.2</ele>
        <time>2022-08-29T09:30:28Z</time>
      </trkpt>
      <trkpt lat="47.89296" lon="6.87914">
        <ele>742.2</ele>
        <time>2022-08-29T09:30:29Z</time>
      </trkpt>
      <trkpt lat="47.89295" lon="6.87913">
        <ele>741.7</ele>
        <time>2022-08-29T09:30:30Z</time>
      </trkpt>
      <trkpt lat="47.89294" lon="6.87912">
        <ele>741.2</ele>
        <time>2022-08-29T09:30:32Z</time>
      </trkpt>
      <trkpt lat="47.89294" lon="6.87911">
        <ele>741.3</ele>
        <time>2022-08-29T09:30:33Z</time>
      </trkpt>
      <trkpt lat="47.89293" lon="6.8791">
        <ele>740.8</ele>
        <time>2022-08-29T09:30:34Z</time>
      </trkpt>
      <trkpt lat="47.89293" lon="6.87909">
        <ele>740.8</ele>
        <time>2022-08-29T09:30:35Z</time>
      </trkpt>
      <trkpt lat="47.89293" lon="6.87908">
        <ele>740.8</ele>
        <time>2022-08-29T09:30:36Z</time>
      </trkpt>
      <trkpt lat="47.89292" lon="6.87907">
        <ele>740.3</ele>
        <time>2022-08-29T09:30:37Z</time>
      </trkpt>
      <trkpt lat="47.89292" lon="6.87905">
        <ele>740.4</ele>
        <time>2022-08-29T09:30:38Z</time>
      </trkpt>
      <trkpt lat="47.89292" lon="6.87904">
        <ele>740.4</ele>
        <time>2022-08-29T09:30:39Z</time>
      </trkpt>
      <trkpt lat="47.89292" lon="6.87903">
        <ele>740.4</ele>
        <time>2022-08-29T09:30:40Z</time>
      </trkpt>
      <trkpt lat="47.89292" lon="6.87902">
        <ele>740.4</ele>
        <time>2022-08-29T09:30:41Z</time>
      </trkpt>
      <trkpt lat="47.89292" lon="6.879">
        <ele>740.5</ele>
        <time>2022-08-29T09:30:42Z</time>
      </trkpt>
      <trkpt lat="47.89291" lon="6.87899">
        <ele>740</ele>
        <time>2022-08-29T09:30:43Z</time>
      </trkpt>
      <trkpt lat="47.89291" lon="6.87898">
        <ele>740</ele>
        <time>2022-08-29T09:30:44Z</time>
      </trkpt>
      <trkpt lat="47.89291" lon="6.87897">
        <ele>740</ele>
        <time>2022-08-29T09:30:45Z</time>
      </trkpt>
      <trkpt lat="47.8929" lon="6.87896">
        <ele>739.6</ele>
        <time>2022-08-29T09:30:46Z</time>
      </trkpt>
      <trkpt lat="47.8929" lon="6.87895">
        <ele>739.6</ele>
        <time>2022-08-29T09:30:47Z</time>
      </trkpt>
      <trkpt lat="47.89289" lon="6.87893">
        <ele>739.2</ele>
        <time>2022-08-29T09:30:48Z</time>
      </trkpt>
      <trkpt lat="47.89289" lon="6.87892">
        <ele>739.2</ele>
        <time>2022-08-29T09:30:49Z</time>
      </trkpt>
      <trkpt lat="47.89289" lon="6.87891">
        <ele>739.2</ele>
        <time>2022-08-29T09:30:50Z</time>
      </trkpt>
      <trkpt lat="47.89289" lon="6.8789">
        <ele>739.2</ele>
        <time>2022-08-29T09:30:51Z</time>
      </trkpt>
      <trkpt lat="47.89289" lon="6.87889">
        <ele>739.2</ele>
        <time>2022-08-29T09:30:52Z</time>
      </trkpt>
      <trkpt lat="47.89289" lon="6.87888">
        <ele>739.2</ele>
        <time>2022-08-29T09:30:53Z</time>
      </trkpt>
      <trkpt lat="47.89289" lon="6.87887">
        <ele>739.2</ele>
        <time>2022-08-29T09:30:54Z</time>
      </trkpt>
      <trkpt lat="47.89289" lon="6.87886">
        <ele>739.1</ele>
        <time>2022-08-29T09:30:55Z</time>
      </trkpt>
      <trkpt lat="47.89288" lon="6.87885">
        <ele>738.6</ele>
        <time>2022-08-29T09:30:56Z</time>
      </trkpt>
      <trkpt lat="47.89288" lon="6.87884">
        <ele>738.5</ele>
        <time>2022-08-29T09:30:57Z</time>
      </trkpt>
      <trkpt lat="47.89288" lon="6.87883">
        <ele>738.5</ele>
        <time>2022-08-29T09:30:59Z</time>
      </trkpt>
      <trkpt lat="47.89287" lon="6.87882">
        <ele>738</ele>
        <time>2022-08-29T09:31:00Z</time>
      </trkpt>
      <trkpt lat="47.89287" lon="6.87881">
        <ele>737.9</ele>
        <time>2022-08-29T09:31:01Z</time>
      </trkpt>
      <trkpt lat="47.89287" lon="6.8788">
        <ele>737.9</ele>
        <time>2022-08-29T09:31:02Z</time>
      </trkpt>
      <trkpt lat="47.89286" lon="6.87879">
        <ele>737.4</ele>
        <time>2022-08-29T09:31:03Z</time>
      </trkpt>
      <trkpt lat="47.89286" lon="6.87878">
        <ele>737.3</ele>
        <time>2022-08-29T09:31:04Z</time>
      </trkpt>
      <trkpt lat="47.89286" lon="6.87877">
        <ele>737.3</ele>
        <time>2022-08-29T09:31:05Z</time>
      </trkpt>
      <trkpt lat="47.89285" lon="6.87876">
        <ele>736.8</ele>
        <time>2022-08-29T09:31:06Z</time>
      </trkpt>
      <trkpt lat="47.89285" lon="6.87874">
        <ele>736.7</ele>
        <time>2022-08-29T09:31:07Z</time>
      </trkpt>
      <trkpt lat="47.89284" lon="6.87873">
        <ele>736.2</ele>
        <time>2022-08-29T09:31:08Z</time>
      </trkpt>
      <trkpt lat="47.89284" lon="6.87872">
        <ele>736.2</ele>
        <time>2022-08-29T09:31:09Z</time>
      </trkpt>
      <trkpt lat="47.89284" lon="6.87871">
        <ele>736.1</ele>
        <time>2022-08-29T09:31:10Z</time>
      </trkpt>
      <trkpt lat="47.89283" lon="6.8787">
        <ele>735.6</ele>
        <time>2022-08-29T09:31:11Z</time>
      </trkpt>
      <trkpt lat="47.89283" lon="6.87869">
        <ele>735.6</ele>
        <time>2022-08-29T09:31:12Z</time>
      </trkpt>
      <trkpt lat="47.89283" lon="6.87868">
        <ele>735.6</ele>
        <time>2022-08-29T09:31:13Z</time>
      </trkpt>
      <trkpt lat="47.89282" lon="6.87866">
        <ele>735</ele>
        <time>2022-08-29T09:31:14Z</time>
      </trkpt>
      <trkpt lat="47.89282" lon="6.87865">
        <ele>735</ele>
        <time>2022-08-29T09:31:15Z</time>
      </trkpt>
      <trkpt lat="47.89282" lon="6.87864">
        <ele>734.9</ele>
        <time>2022-08-29T09:31:16Z</time>
      </trkpt>
      <trkpt lat="47.89282" lon="6.87863">
        <ele>734.9</ele>
        <time>2022-08-29T09:31:17Z</time>
      </trkpt>
      <trkpt lat="47.89282" lon="6.87862">
        <ele>734.9</ele>
        <time>2022-08-29T09:31:18Z</time>
      </trkpt>
      <trkpt lat="47.89282" lon="6.87861">
        <ele>734.8</ele>
        <time>2022-08-29T09:31:19Z</time>
      </trkpt>
      <trkpt lat="47.89282" lon="6.8786">
        <ele>734.6</ele>
        <time>2022-08-29T09:31:20Z</time>
      </trkpt>
      <trkpt lat="47.89282" lon="6.87859">
        <ele>734.4</ele>
        <time>2022-08-29T09:31:21Z</time>
      </trkpt>
      <trkpt lat="47.89281" lon="6.87858">
        <ele>733.7</ele>
        <time>2022-08-29T09:31:22Z</time>
      </trkpt>
      <trkpt lat="47.89281" lon="6.87857">
        <ele>733.5</ele>
        <time>2022-08-29T09:31:23Z</time>
      </trkpt>
      <trkpt lat="47.89281" lon="6.87856">
        <ele>733.3</ele>
        <time>2022-08-29T09:31:24Z</time>
      </trkpt>
      <trkpt lat="47.89281" lon="6.87855">
        <ele>733</ele>
        <time>2022-08-29T09:31:25Z</time>
      </trkpt>
      <trkpt lat="47.89281" lon="6.87854">
        <ele>732.8</ele>
        <time>2022-08-29T09:31:26Z</time>
      </trkpt>
      <trkpt lat="47.89281" lon="6.87853">
        <ele>732.6</ele>
        <time>2022-08-29T09:31:28Z</time>
      </trkpt>
      <trkpt lat="47.89281" lon="6.87852">
        <ele>732.4</ele>
        <time>2022-08-29T09:31:29Z</time>
      </trkpt>
      <trkpt lat="47.89281" lon="6.87851">
        <ele>732.2</ele>
        <time>2022-08-29T09:31:30Z</time>
      </trkpt>
      <trkpt lat="47.89281" lon="6.8785">
        <ele>731.9</ele>
        <time>2022-08-29T09:31:31Z</time>
      </trkpt>
      <trkpt lat="47.89281" lon="6.87849">
        <ele>731.7</ele>
        <time>2022-08-29T09:31:32Z</time>
      </trkpt>
      <trkpt lat="47.89281" lon="6.87848">
        <ele>731.5</ele>
        <time>2022-08-29T09:31:33Z</time>
      </trkpt>
      <trkpt lat="47.89282" lon="6.87848">
        <ele>731.9</ele>
        <time>2022-08-29T09:31:34Z</time>
      </trkpt>
      <trkpt lat="47.89282" lon="6.87847">
        <ele>731.7</ele>
        <time>2022-08-29T09:31:35Z</time>
      </trkpt>
      <trkpt lat="47.89282" lon="6.87846">
        <ele>731.5</ele>
        <time>2022-08-29T09:31:36Z</time>
      </trkpt>
      <trkpt lat="47.89283" lon="6.87845">
        <ele>731.7</ele>
        <time>2022-08-29T09:31:37Z</time>
      </trkpt>
      <trkpt lat="47.89283" lon="6.87844">
        <ele>731.4</ele>
        <time>2022-08-29T09:31:38Z</time>
      </trkpt>
      <trkpt lat="47.89283" lon="6.87841">
        <ele>730.8</ele>
        <time>2022-08-29T09:31:47Z</time>
      </trkpt>
      <trkpt lat="47.89284" lon="6.87839">
        <ele>730.7</ele>
        <time>2022-08-29T09:31:48Z</time>
      </trkpt>
      <trkpt lat="47.89284" lon="6.87838">
        <ele>730.5</ele>
        <time>2022-08-29T09:31:49Z</time>
      </trkpt>
      <trkpt lat="47.89285" lon="6.87836">
        <ele>730.5</ele>
        <time>2022-08-29T09:31:50Z</time>
      </trkpt>
      <trkpt lat="47.89285" lon="6.87835">
        <ele>730.2</ele>
        <time>2022-08-29T09:31:51Z</time>
      </trkpt>
      <trkpt lat="47.89285" lon="6.87834">
        <ele>730</ele>
        <time>2022-08-29T09:31:52Z</time>
      </trkpt>
      <trkpt lat="47.89286" lon="6.87834">
        <ele>730.4</ele>
        <time>2022-08-29T09:31:53Z</time>
      </trkpt>
      <trkpt lat="47.89286" lon="6.87833">
        <ele>730.2</ele>
        <time>2022-08-29T09:31:54Z</time>
      </trkpt>
      <trkpt lat="47.89286" lon="6.87832">
        <ele>730</ele>
        <time>2022-08-29T09:31:56Z</time>
      </trkpt>
      <trkpt lat="47.89287" lon="6.87831">
        <ele>730.1</ele>
        <time>2022-08-29T09:31:57Z</time>
      </trkpt>
      <trkpt lat="47.89287" lon="6.8783">
        <ele>729.9</ele>
        <time>2022-08-29T09:31:58Z</time>
      </trkpt>
      <trkpt lat="47.89287" lon="6.87829">
        <ele>729.7</ele>
        <time>2022-08-29T09:31:59Z</time>
      </trkpt>
      <trkpt lat="47.89288" lon="6.87828">
        <ele>729.8</ele>
        <time>2022-08-29T09:32:00Z</time>
      </trkpt>
      <trkpt lat="47.89288" lon="6.87827">
        <ele>729.6</ele>
        <time>2022-08-29T09:32:01Z</time>
      </trkpt>
      <trkpt lat="47.89288" lon="6.87825">
        <ele>729.1</ele>
        <time>2022-08-29T09:32:02Z</time>
      </trkpt>
      <trkpt lat="47.89288" lon="6.87824">
        <ele>728.9</ele>
        <time>2022-08-29T09:32:03Z</time>
      </trkpt>
      <trkpt lat="47.89289" lon="6.87823">
        <ele>729</ele>
        <time>2022-08-29T09:32:04Z</time>
      </trkpt>
      <trkpt lat="47.89289" lon="6.87821">
        <ele>728.5</ele>
        <time>2022-08-29T09:32:05Z</time>
      </trkpt>
      <trkpt lat="47.89289" lon="6.8782">
        <ele>728.3</ele>
        <time>2022-08-29T09:32:06Z</time>
      </trkpt>
      <trkpt lat="47.89289" lon="6.87819">
        <ele>728</ele>
        <time>2022-08-29T09:32:07Z</time>
      </trkpt>
      <trkpt lat="47.8929" lon="6.87818">
        <ele>728.1</ele>
        <time>2022-08-29T09:32:08Z</time>
      </trkpt>
      <trkpt lat="47.8929" lon="6.87817">
        <ele>727.9</ele>
        <time>2022-08-29T09:32:10Z</time>
      </trkpt>
      <trkpt lat="47.89291" lon="6.87816">
        <ele>727.9</ele>
        <time>2022-08-29T09:32:11Z</time>
      </trkpt>
      <trkpt lat="47.89291" lon="6.87815">
        <ele>727.7</ele>
        <time>2022-08-29T09:32:12Z</time>
      </trkpt>
      <trkpt lat="47.89291" lon="6.87814">
        <ele>727.4</ele>
        <time>2022-08-29T09:32:13Z</time>
      </trkpt>
      <trkpt lat="47.89292" lon="6.87814">
        <ele>727.7</ele>
        <time>2022-08-29T09:32:14Z</time>
      </trkpt>
      <trkpt lat="47.89292" lon="6.87813">
        <ele>727.5</ele>
        <time>2022-08-29T09:32:15Z</time>
      </trkpt>
      <trkpt lat="47.89292" lon="6.87812">
        <ele>727.2</ele>
        <time>2022-08-29T09:32:17Z</time>
      </trkpt>
      <trkpt lat="47.89293" lon="6.87811">
        <ele>727.2</ele>
        <time>2022-08-29T09:32:18Z</time>
      </trkpt>
      <trkpt lat="47.89293" lon="6.8781">
        <ele>727</ele>
        <time>2022-08-29T09:32:19Z</time>
      </trkpt>
      <trkpt lat="47.89293" lon="6.87809">
        <ele>726.7</ele>
        <time>2022-08-29T09:32:20Z</time>
      </trkpt>
      <trkpt lat="47.89293" lon="6.87808">
        <ele>726.5</ele>
        <time>2022-08-29T09:32:22Z</time>
      </trkpt>
      <trkpt lat="47.89294" lon="6.87807">
        <ele>726.5</ele>
        <time>2022-08-29T09:32:23Z</time>
      </trkpt>
      <trkpt lat="47.89294" lon="6.87806">
        <ele>726.2</ele>
        <time>2022-08-29T09:32:24Z</time>
      </trkpt>
      <trkpt lat="47.89294" lon="6.87805">
        <ele>726</ele>
        <time>2022-08-29T09:32:25Z</time>
      </trkpt>
      <trkpt lat="47.89294" lon="6.87804">
        <ele>725.8</ele>
        <time>2022-08-29T09:32:26Z</time>
      </trkpt>
      <trkpt lat="47.89294" lon="6.87803">
        <ele>725.6</ele>
        <time>2022-08-29T09:32:27Z</time>
      </trkpt>
      <trkpt lat="47.89295" lon="6.87802">
        <ele>725.6</ele>
        <time>2022-08-29T09:32:28Z</time>
      </trkpt>
      <trkpt lat="47.89295" lon="6.87801">
        <ele>725.4</ele>
        <time>2022-08-29T09:32:29Z</time>
      </trkpt>
      <trkpt lat="47.89294" lon="6.87798">
        <ele>724.5</ele>
        <time>2022-08-29T09:32:42Z</time>
      </trkpt>
      <trkpt lat="47.89294" lon="6.87797">
        <ele>724.3</ele>
        <time>2022-08-29T09:32:43Z</time>
      </trkpt>
      <trkpt lat="47.89294" lon="6.87795">
        <ele>723.9</ele>
        <time>2022-08-29T09:32:44Z</time>
      </trkpt>
      <trkpt lat="47.89293" lon="6.87794">
        <ele>723.5</ele>
        <time>2022-08-29T09:32:45Z</time>
      </trkpt>
      <trkpt lat="47.89293" lon="6.87793">
        <ele>723.3</ele>
        <time>2022-08-29T09:32:46Z</time>
      </trkpt>
      <trkpt lat="47.89293" lon="6.87792">
        <ele>723.1</ele>
        <time>2022-08-29T09:32:47Z</time>
      </trkpt>
      <trkpt lat="47.89292" lon="6.87791">
        <ele>722.7</ele>
        <time>2022-08-29T09:32:48Z</time>
      </trkpt>
      <trkpt lat="47.89292" lon="6.8779">
        <ele>722.5</ele>
        <time>2022-08-29T09:32:49Z</time>
      </trkpt>
      <trkpt lat="47.89292" lon="6.87789">
        <ele>722.3</ele>
        <time>2022-08-29T09:32:50Z</time>
      </trkpt>
      <trkpt lat="47.89291" lon="6.87788">
        <ele>721.9</ele>
        <time>2022-08-29T09:32:51Z</time>
      </trkpt>
      <trkpt lat="47.89291" lon="6.87787">
        <ele>721.7</ele>
        <time>2022-08-29T09:32:52Z</time>
      </trkpt>
      <trkpt lat="47.89291" lon="6.87786">
        <ele>721.5</ele>
        <time>2022-08-29T09:32:54Z</time>
      </trkpt>
      <trkpt lat="47.89291" lon="6.87785">
        <ele>721.3</ele>
        <time>2022-08-29T09:32:55Z</time>
      </trkpt>
      <trkpt lat="47.89291" lon="6.87784">
        <ele>721.1</ele>
        <time>2022-08-29T09:32:56Z</time>
      </trkpt>
      <trkpt lat="47.89291" lon="6.87783">
        <ele>720.9</ele>
        <time>2022-08-29T09:32:59Z</time>
      </trkpt>
      <trkpt lat="47.89291" lon="6.87782">
        <ele>720.7</ele>
        <time>2022-08-29T09:33:01Z</time>
      </trkpt>
      <trkpt lat="47.89291" lon="6.87781">
        <ele>720.5</ele>
        <time>2022-08-29T09:33:02Z</time>
      </trkpt>
      <trkpt lat="47.89291" lon="6.8778">
        <ele>720.3</ele>
        <time>2022-08-29T09:33:03Z</time>
      </trkpt>
      <trkpt lat="47.89291" lon="6.87779">
        <ele>720.1</ele>
        <time>2022-08-29T09:33:04Z</time>
      </trkpt>
      <trkpt lat="47.8929" lon="6.87778">
        <ele>719.8</ele>
        <time>2022-08-29T09:33:05Z</time>
      </trkpt>
      <trkpt lat="47.8929" lon="6.87777">
        <ele>719.6</ele>
        <time>2022-08-29T09:33:06Z</time>
      </trkpt>
      <trkpt lat="47.8929" lon="6.87776">
        <ele>719.4</ele>
        <time>2022-08-29T09:33:08Z</time>
      </trkpt>
      <trkpt lat="47.8929" lon="6.87775">
        <ele>719.2</ele>
        <time>2022-08-29T09:33:09Z</time>
      </trkpt>
      <trkpt lat="47.8929" lon="6.87774">
        <ele>719</ele>
        <time>2022-08-29T09:33:10Z</time>
      </trkpt>
      <trkpt lat="47.8929" lon="6.87773">
        <ele>718.7</ele>
        <time>2022-08-29T09:33:11Z</time>
      </trkpt>
      <trkpt lat="47.8929" lon="6.87772">
        <ele>718.5</ele>
        <time>2022-08-29T09:33:12Z</time>
      </trkpt>
      <trkpt lat="47.89289" lon="6.87771">
        <ele>718.2</ele>
        <time>2022-08-29T09:33:13Z</time>
      </trkpt>
      <trkpt lat="47.89289" lon="6.8777">
        <ele>718</ele>
        <time>2022-08-29T09:33:14Z</time>
      </trkpt>
      <trkpt lat="47.89289" lon="6.87769">
        <ele>717.8</ele>
        <time>2022-08-29T09:33:15Z</time>
      </trkpt>
      <trkpt lat="47.89289" lon="6.87768">
        <ele>717.6</ele>
        <time>2022-08-29T09:33:17Z</time>
      </trkpt>
      <trkpt lat="47.89289" lon="6.87767">
        <ele>717.4</ele>
        <time>2022-08-29T09:33:20Z</time>
      </trkpt>
      <trkpt lat="47.89289" lon="6.87765">
        <ele>716.9</ele>
        <time>2022-08-29T09:33:22Z</time>
      </trkpt>
      <trkpt lat="47.89289" lon="6.87764">
        <ele>716.7</ele>
        <time>2022-08-29T09:33:23Z</time>
      </trkpt>
      <trkpt lat="47.89289" lon="6.87763">
        <ele>716.5</ele>
        <time>2022-08-29T09:33:24Z</time>
      </trkpt>
      <trkpt lat="47.89289" lon="6.87761">
        <ele>716.1</ele>
        <time>2022-08-29T09:33:25Z</time>
      </trkpt>
      <trkpt lat="47.89289" lon="6.8776">
        <ele>715.9</ele>
        <time>2022-08-29T09:33:26Z</time>
      </trkpt>
      <trkpt lat="47.89289" lon="6.87759">
        <ele>715.7</ele>
        <time>2022-08-29T09:33:27Z</time>
      </trkpt>
      <trkpt lat="47.89288" lon="6.87758">
        <ele>715.4</ele>
        <time>2022-08-29T09:33:28Z</time>
      </trkpt>
      <trkpt lat="47.89288" lon="6.87757">
        <ele>715.2</ele>
        <time>2022-08-29T09:33:29Z</time>
      </trkpt>
      <trkpt lat="47.89288" lon="6.87755">
        <ele>714.8</ele>
        <time>2022-08-29T09:33:30Z</time>
      </trkpt>
      <trkpt lat="47.89287" lon="6.87754">
        <ele>714.5</ele>
        <time>2022-08-29T09:33:31Z</time>
      </trkpt>
      <trkpt lat="47.89287" lon="6.87753">
        <ele>714.3</ele>
        <time>2022-08-29T09:33:32Z</time>
      </trkpt>
      <trkpt lat="47.89287" lon="6.87752">
        <ele>714.1</ele>
        <time>2022-08-29T09:33:34Z</time>
      </trkpt>
      <trkpt lat="47.89287" lon="6.87751">
        <ele>713.9</ele>
        <time>2022-08-29T09:33:35Z</time>
      </trkpt>
      <trkpt lat="47.89286" lon="6.8775">
        <ele>713.6</ele>
        <time>2022-08-29T09:33:36Z</time>
      </trkpt>
      <trkpt lat="47.89286" lon="6.87749">
        <ele>713.5</ele>
        <time>2022-08-29T09:33:37Z</time>
      </trkpt>
      <trkpt lat="47.89286" lon="6.87747">
        <ele>713.3</ele>
        <time>2022-08-29T09:33:38Z</time>
      </trkpt>
      <trkpt lat="47.89285" lon="6.87747">
        <ele>713.2</ele>
        <time>2022-08-29T09:33:39Z</time>
      </trkpt>
      <trkpt lat="47.89285" lon="6.87746">
        <ele>713.2</ele>
        <time>2022-08-29T09:33:40Z</time>
      </trkpt>
      <trkpt lat="47.89285" lon="6.87745">
        <ele>713.1</ele>
        <time>2022-08-29T09:33:41Z</time>
      </trkpt>
      <trkpt lat="47.89285" lon="6.87744">
        <ele>713</ele>
        <time>2022-08-29T09:33:42Z</time>
      </trkpt>
      <trkpt lat="47.89285" lon="6.87743">
        <ele>712.9</ele>
        <time>2022-08-29T09:33:43Z</time>
      </trkpt>
      <trkpt lat="47.89285" lon="6.87742">
        <ele>712.8</ele>
        <time>2022-08-29T09:33:44Z</time>
      </trkpt>
      <trkpt lat="47.89285" lon="6.87741">
        <ele>712.7</ele>
        <time>2022-08-29T09:33:46Z</time>
      </trkpt>
      <trkpt lat="47.89286" lon="6.8774">
        <ele>712.7</ele>
        <time>2022-08-29T09:33:47Z</time>
      </trkpt>
      <trkpt lat="47.89286" lon="6.87739">
        <ele>712.6</ele>
        <time>2022-08-29T09:33:55Z</time>
      </trkpt>
      <trkpt lat="47.89285" lon="6.87738">
        <ele>712.4</ele>
        <time>2022-08-29T09:33:56Z</time>
      </trkpt>
      <trkpt lat="47.89285" lon="6.87737">
        <ele>712.3</ele>
        <time>2022-08-29T09:33:57Z</time>
      </trkpt>
      <trkpt lat="47.89285" lon="6.87735">
        <ele>712.2</ele>
        <time>2022-08-29T09:34:09Z</time>
      </trkpt>
      <trkpt lat="47.89284" lon="6.87734">
        <ele>712</ele>
        <time>2022-08-29T09:34:10Z</time>
      </trkpt>
      <trkpt lat="47.89284" lon="6.87733">
        <ele>711.9</ele>
        <time>2022-08-29T09:34:12Z</time>
      </trkpt>
      <trkpt lat="47.89283" lon="6.87732">
        <ele>711.8</ele>
        <time>2022-08-29T09:34:13Z</time>
      </trkpt>
      <trkpt lat="47.89283" lon="6.87731">
        <ele>711.8</ele>
        <time>2022-08-29T09:34:14Z</time>
      </trkpt>
      <trkpt lat="47.89282" lon="6.8773">
        <ele>711.6</ele>
        <time>2022-08-29T09:34:16Z</time>
      </trkpt>
      <trkpt lat="47.89282" lon="6.87729">
        <ele>711.6</ele>
        <time>2022-08-29T09:34:17Z</time>
      </trkpt>
      <trkpt lat="47.89281" lon="6.87729">
        <ele>711.5</ele>
        <time>2022-08-29T09:35:20Z</time>
      </trkpt>
      <trkpt lat="47.8928" lon="6.87729">
        <ele>711.5</ele>
        <time>2022-08-29T09:35:22Z</time>
      </trkpt>
      <trkpt lat="47.89279" lon="6.87729">
        <ele>711.5</ele>
        <time>2022-08-29T09:35:23Z</time>
      </trkpt>
      <trkpt lat="47.89278" lon="6.87729">
        <ele>711.5</ele>
        <time>2022-08-29T09:35:25Z</time>
      </trkpt>
      <trkpt lat="47.89277" lon="6.87728">
        <ele>711.4</ele>
        <time>2022-08-29T09:35:26Z</time>
      </trkpt>
      <trkpt lat="47.89276" lon="6.87727">
        <ele>711.2</ele>
        <time>2022-08-29T09:35:28Z</time>
      </trkpt>
      <trkpt lat="47.89276" lon="6.87726">
        <ele>711.1</ele>
        <time>2022-08-29T09:35:29Z</time>
      </trkpt>
      <trkpt lat="47.89275" lon="6.87725">
        <ele>711</ele>
        <time>2022-08-29T09:35:30Z</time>
      </trkpt>
      <trkpt lat="47.89274" lon="6.87725">
        <ele>710.9</ele>
        <time>2022-08-29T09:35:31Z</time>
      </trkpt>
      <trkpt lat="47.89274" lon="6.87724">
        <ele>710.9</ele>
        <time>2022-08-29T09:35:48Z</time>
      </trkpt>
      <trkpt lat="47.89273" lon="6.87723">
        <ele>710.7</ele>
        <time>2022-08-29T09:35:50Z</time>
      </trkpt>
      <trkpt lat="47.89272" lon="6.87722">
        <ele>710.6</ele>
        <time>2022-08-29T09:35:52Z</time>
      </trkpt>
      <trkpt lat="47.89272" lon="6.87721">
        <ele>710.6</ele>
        <time>2022-08-29T09:35:53Z</time>
      </trkpt>
      <trkpt lat="47.89272" lon="6.8772">
        <ele>710.5</ele>
        <time>2022-08-29T09:35:54Z</time>
      </trkpt>
      <trkpt lat="47.89271" lon="6.87719">
        <ele>710.4</ele>
        <time>2022-08-29T09:35:55Z</time>
      </trkpt>
      <trkpt lat="47.89271" lon="6.87718">
        <ele>710.4</ele>
        <time>2022-08-29T09:35:56Z</time>
      </trkpt>
      <trkpt lat="47.89271" lon="6.87717">
        <ele>710.4</ele>
        <time>2022-08-29T09:35:57Z</time>
      </trkpt>
      <trkpt lat="47.8927" lon="6.87716">
        <ele>710.3</ele>
        <time>2022-08-29T09:35:58Z</time>
      </trkpt>
      <trkpt lat="47.8927" lon="6.87715">
        <ele>710.2</ele>
        <time>2022-08-29T09:36:20Z</time>
      </trkpt>
      <trkpt lat="47.89269" lon="6.87714">
        <ele>710.1</ele>
        <time>2022-08-29T09:36:22Z</time>
      </trkpt>
      <trkpt lat="47.89268" lon="6.87714">
        <ele>710</ele>
        <time>2022-08-29T09:36:24Z</time>
      </trkpt>
      <trkpt lat="47.89268" lon="6.87715">
        <ele>710</ele>
        <time>2022-08-29T09:36:25Z</time>
      </trkpt>
      <trkpt lat="47.89267" lon="6.87715">
        <ele>709.9</ele>
        <time>2022-08-29T09:36:26Z</time>
      </trkpt>
      <trkpt lat="47.89266" lon="6.87715">
        <ele>709.8</ele>
        <time>2022-08-29T09:36:27Z</time>
      </trkpt>
      <trkpt lat="47.89265" lon="6.87715">
        <ele>709.7</ele>
        <time>2022-08-29T09:36:28Z</time>
      </trkpt>
      <trkpt lat="47.89264" lon="6.87715">
        <ele>709.6</ele>
        <time>2022-08-29T09:36:29Z</time>
      </trkpt>
      <trkpt lat="47.89263" lon="6.87715">
        <ele>709.5</ele>
        <time>2022-08-29T09:36:31Z</time>
      </trkpt>
      <trkpt lat="47.89262" lon="6.87715">
        <ele>709.4</ele>
        <time>2022-08-29T09:36:32Z</time>
      </trkpt>
      <trkpt lat="47.89261" lon="6.87716">
        <ele>709.4</ele>
        <time>2022-08-29T09:36:33Z</time>
      </trkpt>
      <trkpt lat="47.8926" lon="6.87716">
        <ele>709.3</ele>
        <time>2022-08-29T09:36:34Z</time>
      </trkpt>
      <trkpt lat="47.89259" lon="6.87716">
        <ele>709.2</ele>
        <time>2022-08-29T09:36:35Z</time>
      </trkpt>
      <trkpt lat="47.89259" lon="6.87717">
        <ele>709.3</ele>
        <time>2022-08-29T09:36:36Z</time>
      </trkpt>
      <trkpt lat="47.89258" lon="6.87717">
        <ele>709.2</ele>
        <time>2022-08-29T09:36:37Z</time>
      </trkpt>
      <trkpt lat="47.89257" lon="6.87718">
        <ele>709.2</ele>
        <time>2022-08-29T09:36:38Z</time>
      </trkpt>
      <trkpt lat="47.89256" lon="6.87718">
        <ele>709.1</ele>
        <time>2022-08-29T09:36:39Z</time>
      </trkpt>
      <trkpt lat="47.89255" lon="6.87719">
        <ele>709.1</ele>
        <time>2022-08-29T09:36:40Z</time>
      </trkpt>
      <trkpt lat="47.89254" lon="6.8772">
        <ele>709.1</ele>
        <time>2022-08-29T09:36:42Z</time>
      </trkpt>
      <trkpt lat="47.89253" lon="6.8772">
        <ele>709</ele>
        <time>2022-08-29T09:36:43Z</time>
      </trkpt>
      <trkpt lat="47.89252" lon="6.87721">
        <ele>709</ele>
        <time>2022-08-29T09:36:44Z</time>
      </trkpt>
      <trkpt lat="47.89251" lon="6.87721">
        <ele>708.9</ele>
        <time>2022-08-29T09:36:45Z</time>
      </trkpt>
      <trkpt lat="47.8925" lon="6.87722">
        <ele>709</ele>
        <time>2022-08-29T09:36:46Z</time>
      </trkpt>
      <trkpt lat="47.89249" lon="6.87722">
        <ele>708.6</ele>
        <time>2022-08-29T09:36:47Z</time>
      </trkpt>
      <trkpt lat="47.89249" lon="6.87723">
        <ele>708.7</ele>
        <time>2022-08-29T09:36:48Z</time>
      </trkpt>
      <trkpt lat="47.89248" lon="6.87723">
        <ele>708.3</ele>
        <time>2022-08-29T09:36:49Z</time>
      </trkpt>
      <trkpt lat="47.89247" lon="6.87724">
        <ele>708.1</ele>
        <time>2022-08-29T09:36:50Z</time>
      </trkpt>
      <trkpt lat="47.89246" lon="6.87725">
        <ele>707.8</ele>
        <time>2022-08-29T09:36:51Z</time>
      </trkpt>
      <trkpt lat="47.89245" lon="6.87726">
        <ele>707.5</ele>
        <time>2022-08-29T09:36:52Z</time>
      </trkpt>
      <trkpt lat="47.89244" lon="6.87726">
        <ele>707.2</ele>
        <time>2022-08-29T09:36:53Z</time>
      </trkpt>
      <trkpt lat="47.89243" lon="6.87727">
        <ele>706.9</ele>
        <time>2022-08-29T09:36:54Z</time>
      </trkpt>
      <trkpt lat="47.89243" lon="6.87728">
        <ele>707</ele>
        <time>2022-08-29T09:36:55Z</time>
      </trkpt>
      <trkpt lat="47.89242" lon="6.87728">
        <ele>706.7</ele>
        <time>2022-08-29T09:36:56Z</time>
      </trkpt>
      <trkpt lat="47.89241" lon="6.87729">
        <ele>706.4</ele>
        <time>2022-08-29T09:36:57Z</time>
      </trkpt>
      <trkpt lat="47.8924" lon="6.87729">
        <ele>706.1</ele>
        <time>2022-08-29T09:36:58Z</time>
      </trkpt>
      <trkpt lat="47.89239" lon="6.8773">
        <ele>705.8</ele>
        <time>2022-08-29T09:36:59Z</time>
      </trkpt>
      <trkpt lat="47.89238" lon="6.87731">
        <ele>705.6</ele>
        <time>2022-08-29T09:37:00Z</time>
      </trkpt>
      <trkpt lat="47.89237" lon="6.87732">
        <ele>705.4</ele>
        <time>2022-08-29T09:37:02Z</time>
      </trkpt>
      <trkpt lat="47.89236" lon="6.87733">
        <ele>705.1</ele>
        <time>2022-08-29T09:37:03Z</time>
      </trkpt>
      <trkpt lat="47.89235" lon="6.87734">
        <ele>704.9</ele>
        <time>2022-08-29T09:37:04Z</time>
      </trkpt>
      <trkpt lat="47.89235" lon="6.87735">
        <ele>705</ele>
        <time>2022-08-29T09:37:05Z</time>
      </trkpt>
      <trkpt lat="47.89234" lon="6.87736">
        <ele>704.8</ele>
        <time>2022-08-29T09:37:06Z</time>
      </trkpt>
      <trkpt lat="47.89233" lon="6.87736">
        <ele>704.5</ele>
        <time>2022-08-29T09:37:07Z</time>
      </trkpt>
      <trkpt lat="47.89232" lon="6.87737">
        <ele>704.3</ele>
        <time>2022-08-29T09:37:08Z</time>
      </trkpt>
      <trkpt lat="47.89232" lon="6.87738">
        <ele>704.4</ele>
        <time>2022-08-29T09:37:09Z</time>
      </trkpt>
      <trkpt lat="47.89231" lon="6.87739">
        <ele>704.2</ele>
        <time>2022-08-29T09:37:10Z</time>
      </trkpt>
      <trkpt lat="47.89231" lon="6.8774">
        <ele>704.3</ele>
        <time>2022-08-29T09:37:11Z</time>
      </trkpt>
      <trkpt lat="47.8923" lon="6.8774">
        <ele>704</ele>
        <time>2022-08-29T09:37:12Z</time>
      </trkpt>
      <trkpt lat="47.89229" lon="6.87741">
        <ele>703.8</ele>
        <time>2022-08-29T09:37:13Z</time>
      </trkpt>
      <trkpt lat="47.89229" lon="6.87742">
        <ele>703.9</ele>
        <time>2022-08-29T09:37:14Z</time>
      </trkpt>
      <trkpt lat="47.89229" lon="6.87743">
        <ele>704.1</ele>
        <time>2022-08-29T09:37:15Z</time>
      </trkpt>
      <trkpt lat="47.89228" lon="6.87743">
        <ele>703.8</ele>
        <time>2022-08-29T09:37:16Z</time>
      </trkpt>
      <trkpt lat="47.89228" lon="6.87744">
        <ele>703.9</ele>
        <time>2022-08-29T09:37:17Z</time>
      </trkpt>
      <trkpt lat="47.89227" lon="6.87745">
        <ele>703.7</ele>
        <time>2022-08-29T09:37:18Z</time>
      </trkpt>
      <trkpt lat="47.89227" lon="6.87746">
        <ele>703.8</ele>
        <time>2022-08-29T09:37:20Z</time>
      </trkpt>
      <trkpt lat="47.89227" lon="6.87747">
        <ele>704</ele>
        <time>2022-08-29T09:37:21Z</time>
      </trkpt>
      <trkpt lat="47.89226" lon="6.87748">
        <ele>703.8</ele>
        <time>2022-08-29T09:37:22Z</time>
      </trkpt>
      <trkpt lat="47.89226" lon="6.87749">
        <ele>704</ele>
        <time>2022-08-29T09:37:23Z</time>
      </trkpt>
      <trkpt lat="47.89225" lon="6.8775">
        <ele>703.8</ele>
        <time>2022-08-29T09:37:24Z</time>
      </trkpt>
      <trkpt lat="47.89225" lon="6.87751">
        <ele>703.8</ele>
        <time>2022-08-29T09:37:25Z</time>
      </trkpt>
      <trkpt lat="47.89225" lon="6.87752">
        <ele>703.9</ele>
        <time>2022-08-29T09:37:26Z</time>
      </trkpt>
      <trkpt lat="47.89224" lon="6.87753">
        <ele>703.6</ele>
        <time>2022-08-29T09:37:27Z</time>
      </trkpt>
      <trkpt lat="47.89224" lon="6.87754">
        <ele>703.7</ele>
        <time>2022-08-29T09:37:28Z</time>
      </trkpt>
      <trkpt lat="47.89223" lon="6.87755">
        <ele>703.4</ele>
        <time>2022-08-29T09:37:29Z</time>
      </trkpt>
      <trkpt lat="47.89222" lon="6.87756">
        <ele>703.1</ele>
        <time>2022-08-29T09:37:30Z</time>
      </trkpt>
      <trkpt lat="47.89221" lon="6.87757">
        <ele>702.7</ele>
        <time>2022-08-29T09:37:32Z</time>
      </trkpt>
      <trkpt lat="47.89221" lon="6.87758">
        <ele>702.8</ele>
        <time>2022-08-29T09:37:33Z</time>
      </trkpt>
      <trkpt lat="47.8922" lon="6.87759">
        <ele>702.4</ele>
        <time>2022-08-29T09:37:34Z</time>
      </trkpt>
      <trkpt lat="47.89219" lon="6.8776">
        <ele>702</ele>
        <time>2022-08-29T09:37:35Z</time>
      </trkpt>
      <trkpt lat="47.89218" lon="6.87761">
        <ele>701.6</ele>
        <time>2022-08-29T09:37:37Z</time>
      </trkpt>
      <trkpt lat="47.89217" lon="6.87762">
        <ele>701.3</ele>
        <time>2022-08-29T09:37:38Z</time>
      </trkpt>
      <trkpt lat="47.89216" lon="6.87763">
        <ele>700.9</ele>
        <time>2022-08-29T09:37:39Z</time>
      </trkpt>
      <trkpt lat="47.89216" lon="6.87764">
        <ele>700.9</ele>
        <time>2022-08-29T09:37:40Z</time>
      </trkpt>
      <trkpt lat="47.89215" lon="6.87765">
        <ele>700.6</ele>
        <time>2022-08-29T09:37:41Z</time>
      </trkpt>
      <trkpt lat="47.89215" lon="6.87766">
        <ele>700.6</ele>
        <time>2022-08-29T09:37:42Z</time>
      </trkpt>
      <trkpt lat="47.89215" lon="6.87767">
        <ele>700.7</ele>
        <time>2022-08-29T09:37:43Z</time>
      </trkpt>
      <trkpt lat="47.89214" lon="6.87768">
        <ele>700.3</ele>
        <time>2022-08-29T09:37:44Z</time>
      </trkpt>
      <trkpt lat="47.89214" lon="6.87769">
        <ele>700.3</ele>
        <time>2022-08-29T09:37:45Z</time>
      </trkpt>
      <trkpt lat="47.89213" lon="6.8777">
        <ele>700</ele>
        <time>2022-08-29T09:37:46Z</time>
      </trkpt>
      <trkpt lat="47.89213" lon="6.87771">
        <ele>700</ele>
        <time>2022-08-29T09:37:47Z</time>
      </trkpt>
      <trkpt lat="47.89213" lon="6.87772">
        <ele>700.1</ele>
        <time>2022-08-29T09:37:48Z</time>
      </trkpt>
      <trkpt lat="47.89212" lon="6.87773">
        <ele>699.7</ele>
        <time>2022-08-29T09:37:49Z</time>
      </trkpt>
      <trkpt lat="47.89212" lon="6.87775">
        <ele>699.8</ele>
        <time>2022-08-29T09:37:50Z</time>
      </trkpt>
      <trkpt lat="47.89211" lon="6.87776">
        <ele>699.5</ele>
        <time>2022-08-29T09:37:51Z</time>
      </trkpt>
      <trkpt lat="47.89211" lon="6.87777">
        <ele>699.5</ele>
        <time>2022-08-29T09:37:52Z</time>
      </trkpt>
      <trkpt lat="47.8921" lon="6.87779">
        <ele>699.2</ele>
        <time>2022-08-29T09:37:53Z</time>
      </trkpt>
      <trkpt lat="47.8921" lon="6.8778">
        <ele>699.2</ele>
        <time>2022-08-29T09:37:54Z</time>
      </trkpt>
      <trkpt lat="47.8921" lon="6.87781">
        <ele>699.1</ele>
        <time>2022-08-29T09:37:55Z</time>
      </trkpt>
      <trkpt lat="47.89209" lon="6.87783">
        <ele>698.8</ele>
        <time>2022-08-29T09:37:56Z</time>
      </trkpt>
      <trkpt lat="47.89209" lon="6.87784">
        <ele>698.8</ele>
        <time>2022-08-29T09:37:57Z</time>
      </trkpt>
      <trkpt lat="47.89208" lon="6.87786">
        <ele>698.4</ele>
        <time>2022-08-29T09:37:58Z</time>
      </trkpt>
      <trkpt lat="47.89208" lon="6.87787">
        <ele>698.4</ele>
        <time>2022-08-29T09:37:59Z</time>
      </trkpt>
      <trkpt lat="47.89208" lon="6.87789">
        <ele>698.4</ele>
        <time>2022-08-29T09:38:00Z</time>
      </trkpt>
      <trkpt lat="47.89208" lon="6.8779">
        <ele>698.4</ele>
        <time>2022-08-29T09:38:01Z</time>
      </trkpt>
      <trkpt lat="47.89207" lon="6.87792">
        <ele>698</ele>
        <time>2022-08-29T09:38:02Z</time>
      </trkpt>
      <trkpt lat="47.89207" lon="6.87793">
        <ele>698</ele>
        <time>2022-08-29T09:38:03Z</time>
      </trkpt>
      <trkpt lat="47.89207" lon="6.87794">
        <ele>698</ele>
        <time>2022-08-29T09:38:04Z</time>
      </trkpt>
      <trkpt lat="47.89207" lon="6.87796">
        <ele>698</ele>
        <time>2022-08-29T09:38:05Z</time>
      </trkpt>
      <trkpt lat="47.89207" lon="6.87797">
        <ele>698</ele>
        <time>2022-08-29T09:38:06Z</time>
      </trkpt>
      <trkpt lat="47.89207" lon="6.87799">
        <ele>698</ele>
        <time>2022-08-29T09:38:07Z</time>
      </trkpt>
      <trkpt lat="47.89207" lon="6.87801">
        <ele>698.1</ele>
        <time>2022-08-29T09:38:08Z</time>
      </trkpt>
      <trkpt lat="47.89207" lon="6.87802">
        <ele>698.1</ele>
        <time>2022-08-29T09:38:09Z</time>
      </trkpt>
      <trkpt lat="47.89207" lon="6.87804">
        <ele>698.1</ele>
        <time>2022-08-29T09:38:10Z</time>
      </trkpt>
      <trkpt lat="47.89207" lon="6.87806">
        <ele>698.1</ele>
        <time>2022-08-29T09:38:11Z</time>
      </trkpt>
      <trkpt lat="47.89207" lon="6.87807">
        <ele>698</ele>
        <time>2022-08-29T09:38:12Z</time>
      </trkpt>
      <trkpt lat="47.89208" lon="6.87809">
        <ele>698.3</ele>
        <time>2022-08-29T09:38:13Z</time>
      </trkpt>
      <trkpt lat="47.89208" lon="6.87811">
        <ele>698.2</ele>
        <time>2022-08-29T09:38:14Z</time>
      </trkpt>
      <trkpt lat="47.89208" lon="6.87812">
        <ele>698.2</ele>
        <time>2022-08-29T09:38:15Z</time>
      </trkpt>
      <trkpt lat="47.89208" lon="6.87814">
        <ele>698.1</ele>
        <time>2022-08-29T09:38:16Z</time>
      </trkpt>
      <trkpt lat="47.89208" lon="6.87815">
        <ele>698.1</ele>
        <time>2022-08-29T09:38:17Z</time>
      </trkpt>
      <trkpt lat="47.89208" lon="6.87817">
        <ele>698</ele>
        <time>2022-08-29T09:38:18Z</time>
      </trkpt>
      <trkpt lat="47.89208" lon="6.87818">
        <ele>697.9</ele>
        <time>2022-08-29T09:38:19Z</time>
      </trkpt>
      <trkpt lat="47.89208" lon="6.8782">
        <ele>697.9</ele>
        <time>2022-08-29T09:38:20Z</time>
      </trkpt>
      <trkpt lat="47.89208" lon="6.87821">
        <ele>697.8</ele>
        <time>2022-08-29T09:38:21Z</time>
      </trkpt>
      <trkpt lat="47.89208" lon="6.87823">
        <ele>697.8</ele>
        <time>2022-08-29T09:38:22Z</time>
      </trkpt>
      <trkpt lat="47.89208" lon="6.87824">
        <ele>697.7</ele>
        <time>2022-08-29T09:38:23Z</time>
      </trkpt>
      <trkpt lat="47.89209" lon="6.87826">
        <ele>698</ele>
        <time>2022-08-29T09:38:24Z</time>
      </trkpt>
      <trkpt lat="47.89209" lon="6.87828">
        <ele>697.9</ele>
        <time>2022-08-29T09:38:25Z</time>
      </trkpt>
      <trkpt lat="47.89209" lon="6.87829">
        <ele>697.9</ele>
        <time>2022-08-29T09:38:26Z</time>
      </trkpt>
      <trkpt lat="47.89209" lon="6.87831">
        <ele>697.8</ele>
        <time>2022-08-29T09:38:27Z</time>
      </trkpt>
      <trkpt lat="47.8921" lon="6.87833">
        <ele>698.1</ele>
        <time>2022-08-29T09:38:28Z</time>
      </trkpt>
      <trkpt lat="47.8921" lon="6.87834">
        <ele>698</ele>
        <time>2022-08-29T09:38:29Z</time>
      </trkpt>
      <trkpt lat="47.8921" lon="6.87836">
        <ele>697.9</ele>
        <time>2022-08-29T09:38:30Z</time>
      </trkpt>
      <trkpt lat="47.8921" lon="6.87838">
        <ele>697.9</ele>
        <time>2022-08-29T09:38:31Z</time>
      </trkpt>
      <trkpt lat="47.8921" lon="6.8784">
        <ele>697.8</ele>
        <time>2022-08-29T09:38:32Z</time>
      </trkpt>
      <trkpt lat="47.89211" lon="6.87841">
        <ele>698.1</ele>
        <time>2022-08-29T09:38:33Z</time>
      </trkpt>
      <trkpt lat="47.89211" lon="6.87843">
        <ele>698</ele>
        <time>2022-08-29T09:38:34Z</time>
      </trkpt>
      <trkpt lat="47.89211" lon="6.87844">
        <ele>698</ele>
        <time>2022-08-29T09:38:35Z</time>
      </trkpt>
      <trkpt lat="47.89212" lon="6.87845">
        <ele>698.3</ele>
        <time>2022-08-29T09:38:36Z</time>
      </trkpt>
      <trkpt lat="47.89212" lon="6.87847">
        <ele>698.2</ele>
        <time>2022-08-29T09:38:37Z</time>
      </trkpt>
      <trkpt lat="47.89212" lon="6.87848">
        <ele>698.2</ele>
        <time>2022-08-29T09:38:38Z</time>
      </trkpt>
      <trkpt lat="47.89212" lon="6.8785">
        <ele>698.1</ele>
        <time>2022-08-29T09:38:39Z</time>
      </trkpt>
      <trkpt lat="47.89213" lon="6.87851">
        <ele>698.4</ele>
        <time>2022-08-29T09:38:40Z</time>
      </trkpt>
      <trkpt lat="47.89213" lon="6.87853">
        <ele>698.3</ele>
        <time>2022-08-29T09:38:41Z</time>
      </trkpt>
      <trkpt lat="47.89213" lon="6.87854">
        <ele>698.3</ele>
        <time>2022-08-29T09:38:42Z</time>
      </trkpt>
      <trkpt lat="47.89214" lon="6.87856">
        <ele>698.5</ele>
        <time>2022-08-29T09:38:43Z</time>
      </trkpt>
      <trkpt lat="47.89214" lon="6.87857">
        <ele>698.5</ele>
        <time>2022-08-29T09:38:44Z</time>
      </trkpt>
      <trkpt lat="47.89215" lon="6.87859">
        <ele>698.7</ele>
        <time>2022-08-29T09:38:45Z</time>
      </trkpt>
      <trkpt lat="47.89215" lon="6.8786">
        <ele>698.7</ele>
        <time>2022-08-29T09:38:46Z</time>
      </trkpt>
      <trkpt lat="47.89216" lon="6.87862">
        <ele>699</ele>
        <time>2022-08-29T09:38:47Z</time>
      </trkpt>
      <trkpt lat="47.89217" lon="6.87863">
        <ele>699.3</ele>
        <time>2022-08-29T09:38:48Z</time>
      </trkpt>
      <trkpt lat="47.89218" lon="6.87865">
        <ele>699.6</ele>
        <time>2022-08-29T09:38:49Z</time>
      </trkpt>
      <trkpt lat="47.89218" lon="6.87866">
        <ele>699.6</ele>
        <time>2022-08-29T09:38:50Z</time>
      </trkpt>
      <trkpt lat="47.89218" lon="6.87868">
        <ele>699.6</ele>
        <time>2022-08-29T09:38:51Z</time>
      </trkpt>
      <trkpt lat="47.89219" lon="6.87869">
        <ele>699.9</ele>
        <time>2022-08-29T09:38:52Z</time>
      </trkpt>
      <trkpt lat="47.89219" lon="6.87871">
        <ele>699.9</ele>
        <time>2022-08-29T09:38:53Z</time>
      </trkpt>
      <trkpt lat="47.89219" lon="6.87872">
        <ele>699.9</ele>
        <time>2022-08-29T09:38:54Z</time>
      </trkpt>
      <trkpt lat="47.89219" lon="6.87874">
        <ele>699.8</ele>
        <time>2022-08-29T09:38:55Z</time>
      </trkpt>
      <trkpt lat="47.89219" lon="6.87876">
        <ele>699.8</ele>
        <time>2022-08-29T09:38:56Z</time>
      </trkpt>
      <trkpt lat="47.89219" lon="6.87877">
        <ele>699.8</ele>
        <time>2022-08-29T09:38:57Z</time>
      </trkpt>
      <trkpt lat="47.89219" lon="6.87879">
        <ele>699.8</ele>
        <time>2022-08-29T09:38:58Z</time>
      </trkpt>
      <trkpt lat="47.89219" lon="6.8788">
        <ele>699.8</ele>
        <time>2022-08-29T09:38:59Z</time>
      </trkpt>
      <trkpt lat="47.89219" lon="6.87882">
        <ele>699.8</ele>
        <time>2022-08-29T09:39:00Z</time>
      </trkpt>
      <trkpt lat="47.89219" lon="6.87883">
        <ele>699.8</ele>
        <time>2022-08-29T09:39:01Z</time>
      </trkpt>
      <trkpt lat="47.89219" lon="6.87885">
        <ele>699.8</ele>
        <time>2022-08-29T09:39:02Z</time>
      </trkpt>
      <trkpt lat="47.8922" lon="6.87886">
        <ele>700.1</ele>
        <time>2022-08-29T09:39:03Z</time>
      </trkpt>
      <trkpt lat="47.8922" lon="6.87888">
        <ele>700.1</ele>
        <time>2022-08-29T09:39:04Z</time>
      </trkpt>
      <trkpt lat="47.8922" lon="6.87889">
        <ele>700.1</ele>
        <time>2022-08-29T09:39:05Z</time>
      </trkpt>
      <trkpt lat="47.8922" lon="6.87891">
        <ele>700</ele>
        <time>2022-08-29T09:39:06Z</time>
      </trkpt>
      <trkpt lat="47.8922" lon="6.87892">
        <ele>700</ele>
        <time>2022-08-29T09:39:07Z</time>
      </trkpt>
      <trkpt lat="47.89221" lon="6.87893">
        <ele>700.3</ele>
        <time>2022-08-29T09:39:08Z</time>
      </trkpt>
      <trkpt lat="47.8922" lon="6.87895">
        <ele>699.8</ele>
        <time>2022-08-29T09:39:09Z</time>
      </trkpt>
      <trkpt lat="47.8922" lon="6.87896">
        <ele>699.8</ele>
        <time>2022-08-29T09:39:10Z</time>
      </trkpt>
      <trkpt lat="47.8922" lon="6.87898">
        <ele>699.7</ele>
        <time>2022-08-29T09:39:11Z</time>
      </trkpt>
      <trkpt lat="47.8922" lon="6.87899">
        <ele>699.7</ele>
        <time>2022-08-29T09:39:12Z</time>
      </trkpt>
      <trkpt lat="47.8922" lon="6.879">
        <ele>699.6</ele>
        <time>2022-08-29T09:39:13Z</time>
      </trkpt>
      <trkpt lat="47.8922" lon="6.87902">
        <ele>699.5</ele>
        <time>2022-08-29T09:39:14Z</time>
      </trkpt>
      <trkpt lat="47.8922" lon="6.87904">
        <ele>699.4</ele>
        <time>2022-08-29T09:39:15Z</time>
      </trkpt>
      <trkpt lat="47.8922" lon="6.87905">
        <ele>699.4</ele>
        <time>2022-08-29T09:39:16Z</time>
      </trkpt>
      <trkpt lat="47.8922" lon="6.87907">
        <ele>699.3</ele>
        <time>2022-08-29T09:39:17Z</time>
      </trkpt>
      <trkpt lat="47.89219" lon="6.87908">
        <ele>698.8</ele>
        <time>2022-08-29T09:39:18Z</time>
      </trkpt>
      <trkpt lat="47.89219" lon="6.87909">
        <ele>698.7</ele>
        <time>2022-08-29T09:39:19Z</time>
      </trkpt>
      <trkpt lat="47.89219" lon="6.87911">
        <ele>698.7</ele>
        <time>2022-08-29T09:39:20Z</time>
      </trkpt>
      <trkpt lat="47.89219" lon="6.87912">
        <ele>698.6</ele>
        <time>2022-08-29T09:39:21Z</time>
      </trkpt>
      <trkpt lat="47.89219" lon="6.87914">
        <ele>698.5</ele>
        <time>2022-08-29T09:39:22Z</time>
      </trkpt>
      <trkpt lat="47.89218" lon="6.87915">
        <ele>698</ele>
        <time>2022-08-29T09:39:23Z</time>
      </trkpt>
      <trkpt lat="47.89218" lon="6.87917">
        <ele>697.9</ele>
        <time>2022-08-29T09:39:24Z</time>
      </trkpt>
      <trkpt lat="47.89218" lon="6.87919">
        <ele>698</ele>
        <time>2022-08-29T09:39:25Z</time>
      </trkpt>
      <trkpt lat="47.89218" lon="6.87921">
        <ele>698</ele>
        <time>2022-08-29T09:39:26Z</time>
      </trkpt>
      <trkpt lat="47.89218" lon="6.87924">
        <ele>698.1</ele>
        <time>2022-08-29T09:39:27Z</time>
      </trkpt>
      <trkpt lat="47.89218" lon="6.87926">
        <ele>698.2</ele>
        <time>2022-08-29T09:39:28Z</time>
      </trkpt>
      <trkpt lat="47.89217" lon="6.87928">
        <ele>697.8</ele>
        <time>2022-08-29T09:39:29Z</time>
      </trkpt>
      <trkpt lat="47.89217" lon="6.87929">
        <ele>697.8</ele>
        <time>2022-08-29T09:39:30Z</time>
      </trkpt>
      <trkpt lat="47.89217" lon="6.87931">
        <ele>697.9</ele>
        <time>2022-08-29T09:39:31Z</time>
      </trkpt>
      <trkpt lat="47.89216" lon="6.87933">
        <ele>697.5</ele>
        <time>2022-08-29T09:39:32Z</time>
      </trkpt>
      <trkpt lat="47.89216" lon="6.87934">
        <ele>697.5</ele>
        <time>2022-08-29T09:39:33Z</time>
      </trkpt>
      <trkpt lat="47.89216" lon="6.87936">
        <ele>697.6</ele>
        <time>2022-08-29T09:39:34Z</time>
      </trkpt>
      <trkpt lat="47.89216" lon="6.87937">
        <ele>697.6</ele>
        <time>2022-08-29T09:39:35Z</time>
      </trkpt>
      <trkpt lat="47.89216" lon="6.87938">
        <ele>697.6</ele>
        <time>2022-08-29T09:39:36Z</time>
      </trkpt>
      <trkpt lat="47.89215" lon="6.8794">
        <ele>697.2</ele>
        <time>2022-08-29T09:39:37Z</time>
      </trkpt>
      <trkpt lat="47.89215" lon="6.87941">
        <ele>697.2</ele>
        <time>2022-08-29T09:39:38Z</time>
      </trkpt>
      <trkpt lat="47.89214" lon="6.87942">
        <ele>696.8</ele>
        <time>2022-08-29T09:39:39Z</time>
      </trkpt>
      <trkpt lat="47.89214" lon="6.87943">
        <ele>696.8</ele>
        <time>2022-08-29T09:39:40Z</time>
      </trkpt>
      <trkpt lat="47.89214" lon="6.87945">
        <ele>696.9</ele>
        <time>2022-08-29T09:39:41Z</time>
      </trkpt>
      <trkpt lat="47.89213" lon="6.87946">
        <ele>696.6</ele>
        <time>2022-08-29T09:39:42Z</time>
      </trkpt>
      <trkpt lat="47.89213" lon="6.87947">
        <ele>696.7</ele>
        <time>2022-08-29T09:39:43Z</time>
      </trkpt>
      <trkpt lat="47.89213" lon="6.87948">
        <ele>696.8</ele>
        <time>2022-08-29T09:39:44Z</time>
      </trkpt>
      <trkpt lat="47.89212" lon="6.87949">
        <ele>696.5</ele>
        <time>2022-08-29T09:39:45Z</time>
      </trkpt>
      <trkpt lat="47.89212" lon="6.8795">
        <ele>696.6</ele>
        <time>2022-08-29T09:39:46Z</time>
      </trkpt>
      <trkpt lat="47.89212" lon="6.87952">
        <ele>696.9</ele>
        <time>2022-08-29T09:39:47Z</time>
      </trkpt>
      <trkpt lat="47.89211" lon="6.87953">
        <ele>696.5</ele>
        <time>2022-08-29T09:39:48Z</time>
      </trkpt>
      <trkpt lat="47.89211" lon="6.87954">
        <ele>696.7</ele>
        <time>2022-08-29T09:39:49Z</time>
      </trkpt>
      <trkpt lat="47.8921" lon="6.87955">
        <ele>696.3</ele>
        <time>2022-08-29T09:39:51Z</time>
      </trkpt>
      <trkpt lat="47.8921" lon="6.87957">
        <ele>696.6</ele>
        <time>2022-08-29T09:39:52Z</time>
      </trkpt>
      <trkpt lat="47.89209" lon="6.87958">
        <ele>696.3</ele>
        <time>2022-08-29T09:39:53Z</time>
      </trkpt>
      <trkpt lat="47.89208" lon="6.87959">
        <ele>695.9</ele>
        <time>2022-08-29T09:39:54Z</time>
      </trkpt>
      <trkpt lat="47.89207" lon="6.8796">
        <ele>695.6</ele>
        <time>2022-08-29T09:39:55Z</time>
      </trkpt>
      <trkpt lat="47.89206" lon="6.87961">
        <ele>695.3</ele>
        <time>2022-08-29T09:39:56Z</time>
      </trkpt>
      <trkpt lat="47.89205" lon="6.87961">
        <ele>694.8</ele>
        <time>2022-08-29T09:39:57Z</time>
      </trkpt>
      <trkpt lat="47.89203" lon="6.87962">
        <ele>694.1</ele>
        <time>2022-08-29T09:39:58Z</time>
      </trkpt>
      <trkpt lat="47.89201" lon="6.87962">
        <ele>693.2</ele>
        <time>2022-08-29T09:39:59Z</time>
      </trkpt>
      <trkpt lat="47.892" lon="6.87961">
        <ele>692.5</ele>
        <time>2022-08-29T09:40:00Z</time>
      </trkpt>
      <trkpt lat="47.89199" lon="6.87961">
        <ele>692.1</ele>
        <time>2022-08-29T09:40:01Z</time>
      </trkpt>
      <trkpt lat="47.89197" lon="6.8796">
        <ele>691</ele>
        <time>2022-08-29T09:40:02Z</time>
      </trkpt>
      <trkpt lat="47.89197" lon="6.87959">
        <ele>690.8</ele>
        <time>2022-08-29T09:40:03Z</time>
      </trkpt>
      <trkpt lat="47.89196" lon="6.87958">
        <ele>690.2</ele>
        <time>2022-08-29T09:40:04Z</time>
      </trkpt>
      <trkpt lat="47.89195" lon="6.87957">
        <ele>689.5</ele>
        <time>2022-08-29T09:40:05Z</time>
      </trkpt>
      <trkpt lat="47.89194" lon="6.87956">
        <ele>689.1</ele>
        <time>2022-08-29T09:40:06Z</time>
      </trkpt>
      <trkpt lat="47.89194" lon="6.87955">
        <ele>688.9</ele>
        <time>2022-08-29T09:40:07Z</time>
      </trkpt>
      <trkpt lat="47.89194" lon="6.87954">
        <ele>688.7</ele>
        <time>2022-08-29T09:40:08Z</time>
      </trkpt>
      <trkpt lat="47.89194" lon="6.87953">
        <ele>688.5</ele>
        <time>2022-08-29T09:40:09Z</time>
      </trkpt>
      <trkpt lat="47.89193" lon="6.87951">
        <ele>688.2</ele>
        <time>2022-08-29T09:40:10Z</time>
      </trkpt>
      <trkpt lat="47.89193" lon="6.8795">
        <ele>688</ele>
        <time>2022-08-29T09:40:11Z</time>
      </trkpt>
      <trkpt lat="47.89193" lon="6.87949">
        <ele>687.8</ele>
        <time>2022-08-29T09:40:12Z</time>
      </trkpt>
      <trkpt lat="47.89194" lon="6.87948">
        <ele>687.6</ele>
        <time>2022-08-29T09:40:13Z</time>
      </trkpt>
      <trkpt lat="47.89194" lon="6.87947">
        <ele>687.5</ele>
        <time>2022-08-29T09:40:14Z</time>
      </trkpt>
      <trkpt lat="47.89194" lon="6.87946">
        <ele>687.3</ele>
        <time>2022-08-29T09:40:15Z</time>
      </trkpt>
      <trkpt lat="47.89194" lon="6.87945">
        <ele>687.1</ele>
        <time>2022-08-29T09:40:16Z</time>
      </trkpt>
      <trkpt lat="47.89194" lon="6.87944">
        <ele>687</ele>
        <time>2022-08-29T09:40:17Z</time>
      </trkpt>
      <trkpt lat="47.89193" lon="6.87943">
        <ele>686.9</ele>
        <time>2022-08-29T09:40:18Z</time>
      </trkpt>
      <trkpt lat="47.89193" lon="6.87942">
        <ele>686.9</ele>
        <time>2022-08-29T09:40:19Z</time>
      </trkpt>
      <trkpt lat="47.89193" lon="6.87941">
        <ele>686.8</ele>
        <time>2022-08-29T09:40:20Z</time>
      </trkpt>
      <trkpt lat="47.89193" lon="6.8794">
        <ele>686.8</ele>
        <time>2022-08-29T09:40:21Z</time>
      </trkpt>
      <trkpt lat="47.89193" lon="6.87939">
        <ele>686.7</ele>
        <time>2022-08-29T09:40:22Z</time>
      </trkpt>
      <trkpt lat="47.89193" lon="6.87937">
        <ele>686.6</ele>
        <time>2022-08-29T09:40:23Z</time>
      </trkpt>
      <trkpt lat="47.89192" lon="6.87936">
        <ele>686.5</ele>
        <time>2022-08-29T09:40:24Z</time>
      </trkpt>
      <trkpt lat="47.89192" lon="6.87935">
        <ele>686.4</ele>
        <time>2022-08-29T09:40:25Z</time>
      </trkpt>
      <trkpt lat="47.89192" lon="6.87933">
        <ele>686.3</ele>
        <time>2022-08-29T09:40:26Z</time>
      </trkpt>
      <trkpt lat="47.89192" lon="6.87932">
        <ele>686.2</ele>
        <time>2022-08-29T09:40:27Z</time>
      </trkpt>
      <trkpt lat="47.89192" lon="6.87931">
        <ele>686.1</ele>
        <time>2022-08-29T09:40:28Z</time>
      </trkpt>
      <trkpt lat="47.89192" lon="6.87929">
        <ele>686</ele>
        <time>2022-08-29T09:40:29Z</time>
      </trkpt>
      <trkpt lat="47.89191" lon="6.87928">
        <ele>685.7</ele>
        <time>2022-08-29T09:40:30Z</time>
      </trkpt>
      <trkpt lat="47.89191" lon="6.87926">
        <ele>685.6</ele>
        <time>2022-08-29T09:40:31Z</time>
      </trkpt>
      <trkpt lat="47.89191" lon="6.87925">
        <ele>685.5</ele>
        <time>2022-08-29T09:40:32Z</time>
      </trkpt>
      <trkpt lat="47.8919" lon="6.87924">
        <ele>685.2</ele>
        <time>2022-08-29T09:40:33Z</time>
      </trkpt>
      <trkpt lat="47.8919" lon="6.87923">
        <ele>685.1</ele>
        <time>2022-08-29T09:40:34Z</time>
      </trkpt>
      <trkpt lat="47.89189" lon="6.87922">
        <ele>684.8</ele>
        <time>2022-08-29T09:40:35Z</time>
      </trkpt>
      <trkpt lat="47.89189" lon="6.87921">
        <ele>684.7</ele>
        <time>2022-08-29T09:40:36Z</time>
      </trkpt>
      <trkpt lat="47.89188" lon="6.87919">
        <ele>684.2</ele>
        <time>2022-08-29T09:40:37Z</time>
      </trkpt>
      <trkpt lat="47.89188" lon="6.87918">
        <ele>684.1</ele>
        <time>2022-08-29T09:40:38Z</time>
      </trkpt>
      <trkpt lat="47.89187" lon="6.87917">
        <ele>683.6</ele>
        <time>2022-08-29T09:40:39Z</time>
      </trkpt>
      <trkpt lat="47.89187" lon="6.87916">
        <ele>683.7</ele>
        <time>2022-08-29T09:40:40Z</time>
      </trkpt>
      <trkpt lat="47.89186" lon="6.87915">
        <ele>683.4</ele>
        <time>2022-08-29T09:40:41Z</time>
      </trkpt>
      <trkpt lat="47.89186" lon="6.87914">
        <ele>683.5</ele>
        <time>2022-08-29T09:40:42Z</time>
      </trkpt>
      <trkpt lat="47.89185" lon="6.87913">
        <ele>683.3</ele>
        <time>2022-08-29T09:40:43Z</time>
      </trkpt>
      <trkpt lat="47.89184" lon="6.87912">
        <ele>683</ele>
        <time>2022-08-29T09:40:44Z</time>
      </trkpt>
      <trkpt lat="47.89184" lon="6.87911">
        <ele>683.1</ele>
        <time>2022-08-29T09:40:45Z</time>
      </trkpt>
      <trkpt lat="47.89183" lon="6.8791">
        <ele>682.9</ele>
        <time>2022-08-29T09:40:46Z</time>
      </trkpt>
      <trkpt lat="47.89182" lon="6.87909">
        <ele>682.6</ele>
        <time>2022-08-29T09:40:47Z</time>
      </trkpt>
      <trkpt lat="47.89181" lon="6.87908">
        <ele>682.3</ele>
        <time>2022-08-29T09:40:48Z</time>
      </trkpt>
      <trkpt lat="47.8918" lon="6.87908">
        <ele>681.9</ele>
        <time>2022-08-29T09:40:49Z</time>
      </trkpt>
      <trkpt lat="47.8918" lon="6.87907">
        <ele>682</ele>
        <time>2022-08-29T09:40:50Z</time>
      </trkpt>
      <trkpt lat="47.89179" lon="6.87906">
        <ele>681.7</ele>
        <time>2022-08-29T09:40:51Z</time>
      </trkpt>
      <trkpt lat="47.89178" lon="6.87905">
        <ele>681.4</ele>
        <time>2022-08-29T09:40:52Z</time>
      </trkpt>
      <trkpt lat="47.89177" lon="6.87904">
        <ele>681</ele>
        <time>2022-08-29T09:40:53Z</time>
      </trkpt>
      <trkpt lat="47.89177" lon="6.87903">
        <ele>681.1</ele>
        <time>2022-08-29T09:40:54Z</time>
      </trkpt>
      <trkpt lat="47.89176" lon="6.87902">
        <ele>680.7</ele>
        <time>2022-08-29T09:40:55Z</time>
      </trkpt>
      <trkpt lat="47.89175" lon="6.87901">
        <ele>680.4</ele>
        <time>2022-08-29T09:40:56Z</time>
      </trkpt>
      <trkpt lat="47.89174" lon="6.879">
        <ele>680</ele>
        <time>2022-08-29T09:40:57Z</time>
      </trkpt>
      <trkpt lat="47.89174" lon="6.87899">
        <ele>680</ele>
        <time>2022-08-29T09:40:58Z</time>
      </trkpt>
      <trkpt lat="47.89173" lon="6.87898">
        <ele>679.7</ele>
        <time>2022-08-29T09:40:59Z</time>
      </trkpt>
      <trkpt lat="47.89173" lon="6.87897">
        <ele>679.7</ele>
        <time>2022-08-29T09:41:00Z</time>
      </trkpt>
      <trkpt lat="47.89172" lon="6.87896">
        <ele>679.3</ele>
        <time>2022-08-29T09:41:01Z</time>
      </trkpt>
      <trkpt lat="47.89172" lon="6.87895">
        <ele>679.3</ele>
        <time>2022-08-29T09:41:02Z</time>
      </trkpt>
      <trkpt lat="47.89171" lon="6.87893">
        <ele>678.9</ele>
        <time>2022-08-29T09:41:03Z</time>
      </trkpt>
      <trkpt lat="47.8917" lon="6.87892">
        <ele>678.5</ele>
        <time>2022-08-29T09:41:04Z</time>
      </trkpt>
      <trkpt lat="47.8917" lon="6.87891">
        <ele>678.5</ele>
        <time>2022-08-29T09:41:05Z</time>
      </trkpt>
      <trkpt lat="47.89169" lon="6.87889">
        <ele>678.1</ele>
        <time>2022-08-29T09:41:06Z</time>
      </trkpt>
      <trkpt lat="47.89169" lon="6.87888">
        <ele>678.2</ele>
        <time>2022-08-29T09:41:07Z</time>
      </trkpt>
      <trkpt lat="47.89168" lon="6.87886">
        <ele>677.8</ele>
        <time>2022-08-29T09:41:08Z</time>
      </trkpt>
      <trkpt lat="47.89168" lon="6.87885">
        <ele>677.9</ele>
        <time>2022-08-29T09:41:09Z</time>
      </trkpt>
      <trkpt lat="47.89167" lon="6.87884">
        <ele>677.5</ele>
        <time>2022-08-29T09:41:10Z</time>
      </trkpt>
      <trkpt lat="47.89166" lon="6.87882">
        <ele>677.3</ele>
        <time>2022-08-29T09:41:11Z</time>
      </trkpt>
      <trkpt lat="47.89166" lon="6.87881">
        <ele>677.3</ele>
        <time>2022-08-29T09:41:12Z</time>
      </trkpt>
      <trkpt lat="47.89165" lon="6.8788">
        <ele>677.1</ele>
        <time>2022-08-29T09:41:13Z</time>
      </trkpt>
      <trkpt lat="47.89165" lon="6.87878">
        <ele>677.2</ele>
        <time>2022-08-29T09:41:14Z</time>
      </trkpt>
      <trkpt lat="47.89165" lon="6.87877">
        <ele>677.3</ele>
        <time>2022-08-29T09:41:15Z</time>
      </trkpt>
      <trkpt lat="47.89164" lon="6.87876">
        <ele>677</ele>
        <time>2022-08-29T09:41:16Z</time>
      </trkpt>
      <trkpt lat="47.89164" lon="6.87874">
        <ele>677.1</ele>
        <time>2022-08-29T09:41:17Z</time>
      </trkpt>
      <trkpt lat="47.89163" lon="6.87873">
        <ele>676.8</ele>
        <time>2022-08-29T09:41:18Z</time>
      </trkpt>
      <trkpt lat="47.89162" lon="6.87872">
        <ele>676.5</ele>
        <time>2022-08-29T09:41:19Z</time>
      </trkpt>
      <trkpt lat="47.89162" lon="6.87871">
        <ele>676.5</ele>
        <time>2022-08-29T09:41:20Z</time>
      </trkpt>
      <trkpt lat="47.89161" lon="6.8787">
        <ele>676.2</ele>
        <time>2022-08-29T09:41:21Z</time>
      </trkpt>
      <trkpt lat="47.89161" lon="6.87869">
        <ele>676.2</ele>
        <time>2022-08-29T09:41:22Z</time>
      </trkpt>
      <trkpt lat="47.8916" lon="6.87868">
        <ele>675.9</ele>
        <time>2022-08-29T09:41:23Z</time>
      </trkpt>
      <trkpt lat="47.8916" lon="6.87867">
        <ele>675.9</ele>
        <time>2022-08-29T09:41:24Z</time>
      </trkpt>
      <trkpt lat="47.89159" lon="6.87866">
        <ele>675.5</ele>
        <time>2022-08-29T09:41:25Z</time>
      </trkpt>
      <trkpt lat="47.89159" lon="6.87864">
        <ele>675.6</ele>
        <time>2022-08-29T09:41:26Z</time>
      </trkpt>
      <trkpt lat="47.89158" lon="6.87863">
        <ele>675.2</ele>
        <time>2022-08-29T09:41:27Z</time>
      </trkpt>
      <trkpt lat="47.89158" lon="6.87862">
        <ele>675.2</ele>
        <time>2022-08-29T09:41:28Z</time>
      </trkpt>
      <trkpt lat="47.89157" lon="6.87861">
        <ele>674.8</ele>
        <time>2022-08-29T09:41:29Z</time>
      </trkpt>
      <trkpt lat="47.89157" lon="6.8786">
        <ele>674.9</ele>
        <time>2022-08-29T09:41:30Z</time>
      </trkpt>
      <trkpt lat="47.89157" lon="6.87859">
        <ele>674.9</ele>
        <time>2022-08-29T09:41:31Z</time>
      </trkpt>
      <trkpt lat="47.89157" lon="6.87858">
        <ele>674.9</ele>
        <time>2022-08-29T09:41:32Z</time>
      </trkpt>
      <trkpt lat="47.89156" lon="6.87856">
        <ele>674.5</ele>
        <time>2022-08-29T09:41:33Z</time>
      </trkpt>
      <trkpt lat="47.89156" lon="6.87855">
        <ele>674.6</ele>
        <time>2022-08-29T09:41:34Z</time>
      </trkpt>
      <trkpt lat="47.89156" lon="6.87854">
        <ele>674.6</ele>
        <time>2022-08-29T09:41:35Z</time>
      </trkpt>
      <trkpt lat="47.89155" lon="6.87853">
        <ele>674.2</ele>
        <time>2022-08-29T09:41:36Z</time>
      </trkpt>
      <trkpt lat="47.89155" lon="6.87852">
        <ele>674.2</ele>
        <time>2022-08-29T09:41:37Z</time>
      </trkpt>
      <trkpt lat="47.89155" lon="6.8785">
        <ele>674.3</ele>
        <time>2022-08-29T09:41:38Z</time>
      </trkpt>
      <trkpt lat="47.89155" lon="6.87849">
        <ele>674.3</ele>
        <time>2022-08-29T09:41:39Z</time>
      </trkpt>
      <trkpt lat="47.89155" lon="6.87848">
        <ele>674.3</ele>
        <time>2022-08-29T09:41:40Z</time>
      </trkpt>
      <trkpt lat="47.89154" lon="6.87846">
        <ele>673.9</ele>
        <time>2022-08-29T09:41:41Z</time>
      </trkpt>
      <trkpt lat="47.89154" lon="6.87845">
        <ele>673.9</ele>
        <time>2022-08-29T09:41:42Z</time>
      </trkpt>
      <trkpt lat="47.89154" lon="6.87843">
        <ele>673.9</ele>
        <time>2022-08-29T09:41:43Z</time>
      </trkpt>
      <trkpt lat="47.89153" lon="6.87842">
        <ele>673.5</ele>
        <time>2022-08-29T09:41:44Z</time>
      </trkpt>
      <trkpt lat="47.89153" lon="6.87841">
        <ele>673.5</ele>
        <time>2022-08-29T09:41:45Z</time>
      </trkpt>
      <trkpt lat="47.89153" lon="6.87839">
        <ele>673.5</ele>
        <time>2022-08-29T09:41:46Z</time>
      </trkpt>
      <trkpt lat="47.89152" lon="6.87838">
        <ele>673</ele>
        <time>2022-08-29T09:41:47Z</time>
      </trkpt>
      <trkpt lat="47.89152" lon="6.87836">
        <ele>673</ele>
        <time>2022-08-29T09:41:48Z</time>
      </trkpt>
      <trkpt lat="47.89152" lon="6.87835">
        <ele>673.1</ele>
        <time>2022-08-29T09:41:49Z</time>
      </trkpt>
      <trkpt lat="47.89152" lon="6.87833">
        <ele>673.1</ele>
        <time>2022-08-29T09:41:50Z</time>
      </trkpt>
      <trkpt lat="47.89152" lon="6.87832">
        <ele>673.1</ele>
        <time>2022-08-29T09:41:51Z</time>
      </trkpt>
      <trkpt lat="47.89151" lon="6.8783">
        <ele>672.6</ele>
        <time>2022-08-29T09:41:52Z</time>
      </trkpt>
      <trkpt lat="47.89151" lon="6.87829">
        <ele>672.6</ele>
        <time>2022-08-29T09:41:53Z</time>
      </trkpt>
      <trkpt lat="47.8915" lon="6.87827">
        <ele>672</ele>
        <time>2022-08-29T09:41:54Z</time>
      </trkpt>
      <trkpt lat="47.89149" lon="6.87825">
        <ele>671.5</ele>
        <time>2022-08-29T09:42:01Z</time>
      </trkpt>
      <trkpt lat="47.89149" lon="6.87824">
        <ele>671.5</ele>
        <time>2022-08-29T09:42:02Z</time>
      </trkpt>
      <trkpt lat="47.89149" lon="6.87823">
        <ele>671.5</ele>
        <time>2022-08-29T09:42:03Z</time>
      </trkpt>
      <trkpt lat="47.89149" lon="6.87822">
        <ele>671.5</ele>
        <time>2022-08-29T09:42:05Z</time>
      </trkpt>
      <trkpt lat="47.89148" lon="6.87821">
        <ele>670.9</ele>
        <time>2022-08-29T09:42:06Z</time>
      </trkpt>
      <trkpt lat="47.89148" lon="6.8782">
        <ele>670.9</ele>
        <time>2022-08-29T09:42:07Z</time>
      </trkpt>
      <trkpt lat="47.89148" lon="6.87819">
        <ele>670.9</ele>
        <time>2022-08-29T09:42:08Z</time>
      </trkpt>
      <trkpt lat="47.89148" lon="6.87818">
        <ele>670.9</ele>
        <time>2022-08-29T09:42:09Z</time>
      </trkpt>
      <trkpt lat="47.89148" lon="6.87817">
        <ele>670.9</ele>
        <time>2022-08-29T09:42:10Z</time>
      </trkpt>
      <trkpt lat="47.89148" lon="6.87816">
        <ele>670.9</ele>
        <time>2022-08-29T09:42:11Z</time>
      </trkpt>
      <trkpt lat="47.89148" lon="6.87815">
        <ele>670.9</ele>
        <time>2022-08-29T09:42:12Z</time>
      </trkpt>
      <trkpt lat="47.89148" lon="6.87814">
        <ele>670.9</ele>
        <time>2022-08-29T09:42:13Z</time>
      </trkpt>
      <trkpt lat="47.89147" lon="6.87813">
        <ele>670.3</ele>
        <time>2022-08-29T09:42:14Z</time>
      </trkpt>
      <trkpt lat="47.89147" lon="6.87812">
        <ele>670.3</ele>
        <time>2022-08-29T09:42:15Z</time>
      </trkpt>
      <trkpt lat="47.89147" lon="6.87811">
        <ele>670.3</ele>
        <time>2022-08-29T09:42:16Z</time>
      </trkpt>
      <trkpt lat="47.89146" lon="6.8781">
        <ele>669.6</ele>
        <time>2022-08-29T09:42:17Z</time>
      </trkpt>
      <trkpt lat="47.89146" lon="6.87809">
        <ele>669.6</ele>
        <time>2022-08-29T09:42:18Z</time>
      </trkpt>
      <trkpt lat="47.89146" lon="6.87808">
        <ele>669.6</ele>
        <time>2022-08-29T09:42:19Z</time>
      </trkpt>
      <trkpt lat="47.89146" lon="6.87807">
        <ele>669.6</ele>
        <time>2022-08-29T09:42:20Z</time>
      </trkpt>
      <trkpt lat="47.89146" lon="6.87806">
        <ele>669.6</ele>
        <time>2022-08-29T09:42:21Z</time>
      </trkpt>
      <trkpt lat="47.89145" lon="6.87805">
        <ele>669</ele>
        <time>2022-08-29T09:42:22Z</time>
      </trkpt>
      <trkpt lat="47.89145" lon="6.87803">
        <ele>669.1</ele>
        <time>2022-08-29T09:42:23Z</time>
      </trkpt>
      <trkpt lat="47.89145" lon="6.87802">
        <ele>669.1</ele>
        <time>2022-08-29T09:42:24Z</time>
      </trkpt>
      <trkpt lat="47.89145" lon="6.87801">
        <ele>669.2</ele>
        <time>2022-08-29T09:42:25Z</time>
      </trkpt>
      <trkpt lat="47.89144" lon="6.878">
        <ele>668.6</ele>
        <time>2022-08-29T09:42:26Z</time>
      </trkpt>
      <trkpt lat="47.89144" lon="6.87798">
        <ele>668.7</ele>
        <time>2022-08-29T09:42:27Z</time>
      </trkpt>
      <trkpt lat="47.89144" lon="6.87797">
        <ele>668.8</ele>
        <time>2022-08-29T09:42:28Z</time>
      </trkpt>
      <trkpt lat="47.89144" lon="6.87796">
        <ele>668.8</ele>
        <time>2022-08-29T09:42:29Z</time>
      </trkpt>
      <trkpt lat="47.89143" lon="6.87794">
        <ele>668.3</ele>
        <time>2022-08-29T09:42:30Z</time>
      </trkpt>
      <trkpt lat="47.89143" lon="6.87793">
        <ele>668.4</ele>
        <time>2022-08-29T09:42:31Z</time>
      </trkpt>
      <trkpt lat="47.89143" lon="6.87792">
        <ele>668.4</ele>
        <time>2022-08-29T09:42:32Z</time>
      </trkpt>
      <trkpt lat="47.89143" lon="6.8779">
        <ele>668.5</ele>
        <time>2022-08-29T09:42:33Z</time>
      </trkpt>
      <trkpt lat="47.89143" lon="6.87789">
        <ele>668.6</ele>
        <time>2022-08-29T09:42:34Z</time>
      </trkpt>
      <trkpt lat="47.89143" lon="6.87788">
        <ele>668.6</ele>
        <time>2022-08-29T09:42:35Z</time>
      </trkpt>
      <trkpt lat="47.89142" lon="6.87787">
        <ele>668.1</ele>
        <time>2022-08-29T09:42:36Z</time>
      </trkpt>
      <trkpt lat="47.89142" lon="6.87785">
        <ele>668.2</ele>
        <time>2022-08-29T09:42:37Z</time>
      </trkpt>
      <trkpt lat="47.89141" lon="6.87784">
        <ele>667.7</ele>
        <time>2022-08-29T09:42:38Z</time>
      </trkpt>
      <trkpt lat="47.89141" lon="6.87783">
        <ele>667.8</ele>
        <time>2022-08-29T09:42:39Z</time>
      </trkpt>
      <trkpt lat="47.89141" lon="6.87782">
        <ele>667.9</ele>
        <time>2022-08-29T09:42:40Z</time>
      </trkpt>
      <trkpt lat="47.89141" lon="6.87781">
        <ele>667.9</ele>
        <time>2022-08-29T09:42:41Z</time>
      </trkpt>
      <trkpt lat="47.89141" lon="6.8778">
        <ele>668</ele>
        <time>2022-08-29T09:42:42Z</time>
      </trkpt>
      <trkpt lat="47.89141" lon="6.87778">
        <ele>668.1</ele>
        <time>2022-08-29T09:42:43Z</time>
      </trkpt>
      <trkpt lat="47.8914" lon="6.87777">
        <ele>667.5</ele>
        <time>2022-08-29T09:42:44Z</time>
      </trkpt>
      <trkpt lat="47.8914" lon="6.87776">
        <ele>667.4</ele>
        <time>2022-08-29T09:42:45Z</time>
      </trkpt>
      <trkpt lat="47.8914" lon="6.87775">
        <ele>667.3</ele>
        <time>2022-08-29T09:42:46Z</time>
      </trkpt>
      <trkpt lat="47.8914" lon="6.87774">
        <ele>667.2</ele>
        <time>2022-08-29T09:42:47Z</time>
      </trkpt>
      <trkpt lat="47.8914" lon="6.87773">
        <ele>667.1</ele>
        <time>2022-08-29T09:42:48Z</time>
      </trkpt>
      <trkpt lat="47.8914" lon="6.87772">
        <ele>667</ele>
        <time>2022-08-29T09:42:50Z</time>
      </trkpt>
      <trkpt lat="47.8914" lon="6.87771">
        <ele>666.8</ele>
        <time>2022-08-29T09:42:54Z</time>
      </trkpt>
      <trkpt lat="47.8914" lon="6.8777">
        <ele>666.7</ele>
        <time>2022-08-29T09:42:55Z</time>
      </trkpt>
      <trkpt lat="47.8914" lon="6.87769">
        <ele>666.6</ele>
        <time>2022-08-29T09:42:56Z</time>
      </trkpt>
      <trkpt lat="47.8914" lon="6.87768">
        <ele>666.5</ele>
        <time>2022-08-29T09:42:57Z</time>
      </trkpt>
      <trkpt lat="47.8914" lon="6.87767">
        <ele>666.4</ele>
        <time>2022-08-29T09:42:58Z</time>
      </trkpt>
      <trkpt lat="47.8914" lon="6.87766">
        <ele>666.3</ele>
        <time>2022-08-29T09:42:59Z</time>
      </trkpt>
      <trkpt lat="47.8914" lon="6.87765">
        <ele>666.2</ele>
        <time>2022-08-29T09:43:00Z</time>
      </trkpt>
      <trkpt lat="47.8914" lon="6.87763">
        <ele>666</ele>
        <time>2022-08-29T09:43:01Z</time>
      </trkpt>
      <trkpt lat="47.8914" lon="6.87762">
        <ele>665.9</ele>
        <time>2022-08-29T09:43:02Z</time>
      </trkpt>
      <trkpt lat="47.8914" lon="6.8776">
        <ele>665.6</ele>
        <time>2022-08-29T09:43:03Z</time>
      </trkpt>
      <trkpt lat="47.89141" lon="6.87759">
        <ele>666</ele>
        <time>2022-08-29T09:43:04Z</time>
      </trkpt>
      <trkpt lat="47.89141" lon="6.87758">
        <ele>665.9</ele>
        <time>2022-08-29T09:43:05Z</time>
      </trkpt>
      <trkpt lat="47.89141" lon="6.87756">
        <ele>665.7</ele>
        <time>2022-08-29T09:43:06Z</time>
      </trkpt>
      <trkpt lat="47.89141" lon="6.87755">
        <ele>665.6</ele>
        <time>2022-08-29T09:43:07Z</time>
      </trkpt>
      <trkpt lat="47.89141" lon="6.87753">
        <ele>665.3</ele>
        <time>2022-08-29T09:43:08Z</time>
      </trkpt>
      <trkpt lat="47.89141" lon="6.87752">
        <ele>665.2</ele>
        <time>2022-08-29T09:43:09Z</time>
      </trkpt>
      <trkpt lat="47.89141" lon="6.87751">
        <ele>665.1</ele>
        <time>2022-08-29T09:43:10Z</time>
      </trkpt>
      <trkpt lat="47.89141" lon="6.87749">
        <ele>664.9</ele>
        <time>2022-08-29T09:43:11Z</time>
      </trkpt>
      <trkpt lat="47.89141" lon="6.87748">
        <ele>664.8</ele>
        <time>2022-08-29T09:43:12Z</time>
      </trkpt>
      <trkpt lat="47.89141" lon="6.87747">
        <ele>664.6</ele>
        <time>2022-08-29T09:43:13Z</time>
      </trkpt>
      <trkpt lat="47.89141" lon="6.87745">
        <ele>664.4</ele>
        <time>2022-08-29T09:43:14Z</time>
      </trkpt>
      <trkpt lat="47.89141" lon="6.87744">
        <ele>664.3</ele>
        <time>2022-08-29T09:43:15Z</time>
      </trkpt>
      <trkpt lat="47.89142" lon="6.87743">
        <ele>664.6</ele>
        <time>2022-08-29T09:43:16Z</time>
      </trkpt>
      <trkpt lat="47.89142" lon="6.87741">
        <ele>664.4</ele>
        <time>2022-08-29T09:43:17Z</time>
      </trkpt>
      <trkpt lat="47.89142" lon="6.8774">
        <ele>664.3</ele>
        <time>2022-08-29T09:43:18Z</time>
      </trkpt>
      <trkpt lat="47.89142" lon="6.87739">
        <ele>664.2</ele>
        <time>2022-08-29T09:43:19Z</time>
      </trkpt>
      <trkpt lat="47.89142" lon="6.87737">
        <ele>663.9</ele>
        <time>2022-08-29T09:43:20Z</time>
      </trkpt>
      <trkpt lat="47.89142" lon="6.87736">
        <ele>663.8</ele>
        <time>2022-08-29T09:43:21Z</time>
      </trkpt>
      <trkpt lat="47.89142" lon="6.87735">
        <ele>663.7</ele>
        <time>2022-08-29T09:43:22Z</time>
      </trkpt>
      <trkpt lat="47.89142" lon="6.87734">
        <ele>663.6</ele>
        <time>2022-08-29T09:43:23Z</time>
      </trkpt>
      <trkpt lat="47.89142" lon="6.87732">
        <ele>663.4</ele>
        <time>2022-08-29T09:43:24Z</time>
      </trkpt>
      <trkpt lat="47.89142" lon="6.87731">
        <ele>663.3</ele>
        <time>2022-08-29T09:43:25Z</time>
      </trkpt>
      <trkpt lat="47.89142" lon="6.8773">
        <ele>663.1</ele>
        <time>2022-08-29T09:43:26Z</time>
      </trkpt>
      <trkpt lat="47.89142" lon="6.87729">
        <ele>663</ele>
        <time>2022-08-29T09:43:27Z</time>
      </trkpt>
      <trkpt lat="47.89142" lon="6.87727">
        <ele>662.8</ele>
        <time>2022-08-29T09:43:28Z</time>
      </trkpt>
      <trkpt lat="47.89142" lon="6.87726">
        <ele>662.7</ele>
        <time>2022-08-29T09:43:29Z</time>
      </trkpt>
      <trkpt lat="47.89141" lon="6.87725">
        <ele>662.2</ele>
        <time>2022-08-29T09:43:30Z</time>
      </trkpt>
      <trkpt lat="47.89141" lon="6.87724">
        <ele>662</ele>
        <time>2022-08-29T09:43:31Z</time>
      </trkpt>
      <trkpt lat="47.89141" lon="6.87723">
        <ele>661.9</ele>
        <time>2022-08-29T09:43:32Z</time>
      </trkpt>
      <trkpt lat="47.8914" lon="6.87721">
        <ele>661.3</ele>
        <time>2022-08-29T09:43:33Z</time>
      </trkpt>
      <trkpt lat="47.8914" lon="6.8772">
        <ele>661.3</ele>
        <time>2022-08-29T09:43:34Z</time>
      </trkpt>
      <trkpt lat="47.89139" lon="6.87719">
        <ele>660.8</ele>
        <time>2022-08-29T09:43:35Z</time>
      </trkpt>
      <trkpt lat="47.89139" lon="6.87718">
        <ele>660.7</ele>
        <time>2022-08-29T09:43:36Z</time>
      </trkpt>
      <trkpt lat="47.89138" lon="6.87717">
        <ele>660.5</ele>
        <time>2022-08-29T09:43:37Z</time>
      </trkpt>
      <trkpt lat="47.89138" lon="6.87716">
        <ele>660.4</ele>
        <time>2022-08-29T09:43:38Z</time>
      </trkpt>
      <trkpt lat="47.89137" lon="6.87715">
        <ele>660.1</ele>
        <time>2022-08-29T09:43:39Z</time>
      </trkpt>
      <trkpt lat="47.89137" lon="6.87714">
        <ele>660</ele>
        <time>2022-08-29T09:43:40Z</time>
      </trkpt>
      <trkpt lat="47.89136" lon="6.87713">
        <ele>659.8</ele>
        <time>2022-08-29T09:43:41Z</time>
      </trkpt>
      <trkpt lat="47.89135" lon="6.87713">
        <ele>659.6</ele>
        <time>2022-08-29T09:43:42Z</time>
      </trkpt>
      <trkpt lat="47.89135" lon="6.87712">
        <ele>659.5</ele>
        <time>2022-08-29T09:43:43Z</time>
      </trkpt>
      <trkpt lat="47.89134" lon="6.87712">
        <ele>659.3</ele>
        <time>2022-08-29T09:43:44Z</time>
      </trkpt>
      <trkpt lat="47.89133" lon="6.87712">
        <ele>659.1</ele>
        <time>2022-08-29T09:43:45Z</time>
      </trkpt>
      <trkpt lat="47.89132" lon="6.87712">
        <ele>658.9</ele>
        <time>2022-08-29T09:43:46Z</time>
      </trkpt>
      <trkpt lat="47.89131" lon="6.87712">
        <ele>658.7</ele>
        <time>2022-08-29T09:43:47Z</time>
      </trkpt>
      <trkpt lat="47.8913" lon="6.87712">
        <ele>658.5</ele>
        <time>2022-08-29T09:43:48Z</time>
      </trkpt>
      <trkpt lat="47.8913" lon="6.87713">
        <ele>658.6</ele>
        <time>2022-08-29T09:43:49Z</time>
      </trkpt>
      <trkpt lat="47.89129" lon="6.87713">
        <ele>658.4</ele>
        <time>2022-08-29T09:43:50Z</time>
      </trkpt>
      <trkpt lat="47.89128" lon="6.87714">
        <ele>658.3</ele>
        <time>2022-08-29T09:43:51Z</time>
      </trkpt>
      <trkpt lat="47.89127" lon="6.87715">
        <ele>658.2</ele>
        <time>2022-08-29T09:43:52Z</time>
      </trkpt>
      <trkpt lat="47.89127" lon="6.87716">
        <ele>658.3</ele>
        <time>2022-08-29T09:43:53Z</time>
      </trkpt>
      <trkpt lat="47.89126" lon="6.87717">
        <ele>658.2</ele>
        <time>2022-08-29T09:43:54Z</time>
      </trkpt>
      <trkpt lat="47.89125" lon="6.87718">
        <ele>658.1</ele>
        <time>2022-08-29T09:43:55Z</time>
      </trkpt>
      <trkpt lat="47.89125" lon="6.87719">
        <ele>658.2</ele>
        <time>2022-08-29T09:43:56Z</time>
      </trkpt>
      <trkpt lat="47.89124" lon="6.8772">
        <ele>658.1</ele>
        <time>2022-08-29T09:43:57Z</time>
      </trkpt>
      <trkpt lat="47.89123" lon="6.87721">
        <ele>658</ele>
        <time>2022-08-29T09:44:09Z</time>
      </trkpt>
      <trkpt lat="47.89123" lon="6.87722">
        <ele>658.1</ele>
        <time>2022-08-29T09:44:12Z</time>
      </trkpt>
      <trkpt lat="47.89122" lon="6.87723">
        <ele>658</ele>
        <time>2022-08-29T09:44:13Z</time>
      </trkpt>
      <trkpt lat="47.89122" lon="6.87724">
        <ele>658</ele>
        <time>2022-08-29T09:44:14Z</time>
      </trkpt>
      <trkpt lat="47.89122" lon="6.87725">
        <ele>658</ele>
        <time>2022-08-29T09:44:15Z</time>
      </trkpt>
      <trkpt lat="47.89121" lon="6.87726">
        <ele>657.8</ele>
        <time>2022-08-29T09:44:16Z</time>
      </trkpt>
      <trkpt lat="47.89121" lon="6.87727">
        <ele>657.9</ele>
        <time>2022-08-29T09:44:17Z</time>
      </trkpt>
      <trkpt lat="47.8912" lon="6.87728">
        <ele>657.7</ele>
        <time>2022-08-29T09:44:18Z</time>
      </trkpt>
      <trkpt lat="47.8912" lon="6.87729">
        <ele>657.7</ele>
        <time>2022-08-29T09:44:19Z</time>
      </trkpt>
      <trkpt lat="47.89119" lon="6.87731">
        <ele>657.5</ele>
        <time>2022-08-29T09:44:20Z</time>
      </trkpt>
      <trkpt lat="47.89119" lon="6.87732">
        <ele>657.5</ele>
        <time>2022-08-29T09:44:21Z</time>
      </trkpt>
      <trkpt lat="47.89118" lon="6.87733">
        <ele>657.2</ele>
        <time>2022-08-29T09:44:22Z</time>
      </trkpt>
      <trkpt lat="47.89118" lon="6.87734">
        <ele>657.2</ele>
        <time>2022-08-29T09:44:23Z</time>
      </trkpt>
      <trkpt lat="47.89118" lon="6.87736">
        <ele>657.2</ele>
        <time>2022-08-29T09:44:24Z</time>
      </trkpt>
      <trkpt lat="47.89117" lon="6.87737">
        <ele>657</ele>
        <time>2022-08-29T09:44:25Z</time>
      </trkpt>
      <trkpt lat="47.89117" lon="6.87739">
        <ele>657</ele>
        <time>2022-08-29T09:44:26Z</time>
      </trkpt>
      <trkpt lat="47.89117" lon="6.8774">
        <ele>657</ele>
        <time>2022-08-29T09:44:27Z</time>
      </trkpt>
      <trkpt lat="47.89117" lon="6.87742">
        <ele>657</ele>
        <time>2022-08-29T09:44:28Z</time>
      </trkpt>
      <trkpt lat="47.89117" lon="6.87743">
        <ele>656.9</ele>
        <time>2022-08-29T09:44:29Z</time>
      </trkpt>
      <trkpt lat="47.89116" lon="6.87745">
        <ele>656.6</ele>
        <time>2022-08-29T09:44:30Z</time>
      </trkpt>
      <trkpt lat="47.89116" lon="6.87747">
        <ele>656.6</ele>
        <time>2022-08-29T09:44:31Z</time>
      </trkpt>
      <trkpt lat="47.89116" lon="6.87748">
        <ele>656.6</ele>
        <time>2022-08-29T09:44:32Z</time>
      </trkpt>
      <trkpt lat="47.89116" lon="6.8775">
        <ele>656.6</ele>
        <time>2022-08-29T09:44:33Z</time>
      </trkpt>
      <trkpt lat="47.89116" lon="6.87752">
        <ele>656.6</ele>
        <time>2022-08-29T09:44:34Z</time>
      </trkpt>
      <trkpt lat="47.89115" lon="6.87753">
        <ele>656.2</ele>
        <time>2022-08-29T09:44:35Z</time>
      </trkpt>
      <trkpt lat="47.89115" lon="6.87755">
        <ele>656.2</ele>
        <time>2022-08-29T09:44:36Z</time>
      </trkpt>
      <trkpt lat="47.89115" lon="6.87757">
        <ele>656.1</ele>
        <time>2022-08-29T09:44:37Z</time>
      </trkpt>
      <trkpt lat="47.89115" lon="6.87758">
        <ele>656.1</ele>
        <time>2022-08-29T09:44:38Z</time>
      </trkpt>
      <trkpt lat="47.89115" lon="6.8776">
        <ele>656.1</ele>
        <time>2022-08-29T09:44:39Z</time>
      </trkpt>
      <trkpt lat="47.89116" lon="6.87761">
        <ele>656.5</ele>
        <time>2022-08-29T09:44:40Z</time>
      </trkpt>
      <trkpt lat="47.89116" lon="6.87763">
        <ele>656.4</ele>
        <time>2022-08-29T09:44:41Z</time>
      </trkpt>
      <trkpt lat="47.89116" lon="6.87765">
        <ele>656.4</ele>
        <time>2022-08-29T09:44:42Z</time>
      </trkpt>
      <trkpt lat="47.89116" lon="6.87766">
        <ele>656.4</ele>
        <time>2022-08-29T09:44:43Z</time>
      </trkpt>
      <trkpt lat="47.89116" lon="6.87768">
        <ele>656.4</ele>
        <time>2022-08-29T09:44:44Z</time>
      </trkpt>
      <trkpt lat="47.89116" lon="6.87769">
        <ele>656.4</ele>
        <time>2022-08-29T09:44:45Z</time>
      </trkpt>
      <trkpt lat="47.89116" lon="6.87771">
        <ele>656.4</ele>
        <time>2022-08-29T09:44:46Z</time>
      </trkpt>
      <trkpt lat="47.89116" lon="6.87772">
        <ele>656.3</ele>
        <time>2022-08-29T09:44:47Z</time>
      </trkpt>
      <trkpt lat="47.89116" lon="6.87774">
        <ele>656.3</ele>
        <time>2022-08-29T09:44:48Z</time>
      </trkpt>
      <trkpt lat="47.89115" lon="6.87775">
        <ele>655.9</ele>
        <time>2022-08-29T09:44:49Z</time>
      </trkpt>
      <trkpt lat="47.89115" lon="6.87777">
        <ele>655.8</ele>
        <time>2022-08-29T09:44:50Z</time>
      </trkpt>
      <trkpt lat="47.89115" lon="6.87778">
        <ele>655.8</ele>
        <time>2022-08-29T09:44:51Z</time>
      </trkpt>
      <trkpt lat="47.89115" lon="6.8778">
        <ele>655.7</ele>
        <time>2022-08-29T09:44:52Z</time>
      </trkpt>
      <trkpt lat="47.89115" lon="6.87781">
        <ele>655.7</ele>
        <time>2022-08-29T09:44:53Z</time>
      </trkpt>
      <trkpt lat="47.89115" lon="6.87783">
        <ele>655.6</ele>
        <time>2022-08-29T09:44:54Z</time>
      </trkpt>
      <trkpt lat="47.89115" lon="6.87785">
        <ele>655.5</ele>
        <time>2022-08-29T09:44:55Z</time>
      </trkpt>
      <trkpt lat="47.89115" lon="6.87786">
        <ele>655.5</ele>
        <time>2022-08-29T09:44:56Z</time>
      </trkpt>
      <trkpt lat="47.89115" lon="6.87788">
        <ele>655.4</ele>
        <time>2022-08-29T09:44:57Z</time>
      </trkpt>
      <trkpt lat="47.89115" lon="6.87789">
        <ele>655.4</ele>
        <time>2022-08-29T09:44:58Z</time>
      </trkpt>
      <trkpt lat="47.89115" lon="6.87791">
        <ele>655.3</ele>
        <time>2022-08-29T09:44:59Z</time>
      </trkpt>
      <trkpt lat="47.89115" lon="6.87792">
        <ele>655.2</ele>
        <time>2022-08-29T09:45:00Z</time>
      </trkpt>
      <trkpt lat="47.89115" lon="6.87794">
        <ele>655.2</ele>
        <time>2022-08-29T09:45:01Z</time>
      </trkpt>
      <trkpt lat="47.89115" lon="6.87796">
        <ele>655.1</ele>
        <time>2022-08-29T09:45:02Z</time>
      </trkpt>
      <trkpt lat="47.89115" lon="6.87797">
        <ele>655</ele>
        <time>2022-08-29T09:45:03Z</time>
      </trkpt>
      <trkpt lat="47.89114" lon="6.87799">
        <ele>654.5</ele>
        <time>2022-08-29T09:45:04Z</time>
      </trkpt>
      <trkpt lat="47.89114" lon="6.878">
        <ele>654.5</ele>
        <time>2022-08-29T09:45:05Z</time>
      </trkpt>
      <trkpt lat="47.89114" lon="6.87801">
        <ele>654.4</ele>
        <time>2022-08-29T09:45:06Z</time>
      </trkpt>
      <trkpt lat="47.89113" lon="6.87803">
        <ele>653.9</ele>
        <time>2022-08-29T09:45:07Z</time>
      </trkpt>
      <trkpt lat="47.89113" lon="6.87804">
        <ele>653.9</ele>
        <time>2022-08-29T09:45:08Z</time>
      </trkpt>
      <trkpt lat="47.89112" lon="6.87805">
        <ele>653.4</ele>
        <time>2022-08-29T09:45:09Z</time>
      </trkpt>
      <trkpt lat="47.89112" lon="6.87806">
        <ele>653.4</ele>
        <time>2022-08-29T09:45:10Z</time>
      </trkpt>
      <trkpt lat="47.89111" lon="6.87807">
        <ele>653.1</ele>
        <time>2022-08-29T09:45:11Z</time>
      </trkpt>
      <trkpt lat="47.89111" lon="6.87808">
        <ele>653.2</ele>
        <time>2022-08-29T09:45:12Z</time>
      </trkpt>
      <trkpt lat="47.8911" lon="6.87809">
        <ele>653.2</ele>
        <time>2022-08-29T09:45:13Z</time>
      </trkpt>
      <trkpt lat="47.89109" lon="6.8781">
        <ele>653.1</ele>
        <time>2022-08-29T09:45:14Z</time>
      </trkpt>
      <trkpt lat="47.89109" lon="6.87811">
        <ele>653.2</ele>
        <time>2022-08-29T09:45:15Z</time>
      </trkpt>
      <trkpt lat="47.89108" lon="6.87811">
        <ele>653</ele>
        <time>2022-08-29T09:45:16Z</time>
      </trkpt>
      <trkpt lat="47.89107" lon="6.87812">
        <ele>653</ele>
        <time>2022-08-29T09:45:17Z</time>
      </trkpt>
      <trkpt lat="47.89106" lon="6.87812">
        <ele>652.8</ele>
        <time>2022-08-29T09:45:18Z</time>
      </trkpt>
      <trkpt lat="47.89105" lon="6.87813">
        <ele>652.8</ele>
        <time>2022-08-29T09:45:19Z</time>
      </trkpt>
      <trkpt lat="47.89104" lon="6.87814">
        <ele>652.7</ele>
        <time>2022-08-29T09:45:20Z</time>
      </trkpt>
      <trkpt lat="47.89103" lon="6.87814">
        <ele>652.5</ele>
        <time>2022-08-29T09:45:21Z</time>
      </trkpt>
      <trkpt lat="47.89102" lon="6.87815">
        <ele>652.5</ele>
        <time>2022-08-29T09:45:22Z</time>
      </trkpt>
      <trkpt lat="47.89101" lon="6.87816">
        <ele>652.4</ele>
        <time>2022-08-29T09:45:23Z</time>
      </trkpt>
      <trkpt lat="47.891" lon="6.87817">
        <ele>652.4</ele>
        <time>2022-08-29T09:45:24Z</time>
      </trkpt>
      <trkpt lat="47.89098" lon="6.87818">
        <ele>652.2</ele>
        <time>2022-08-29T09:45:25Z</time>
      </trkpt>
      <trkpt lat="47.89097" lon="6.87818">
        <ele>652</ele>
        <time>2022-08-29T09:45:26Z</time>
      </trkpt>
      <trkpt lat="47.89096" lon="6.87819">
        <ele>652</ele>
        <time>2022-08-29T09:45:27Z</time>
      </trkpt>
      <trkpt lat="47.89095" lon="6.8782">
        <ele>652</ele>
        <time>2022-08-29T09:45:28Z</time>
      </trkpt>
      <trkpt lat="47.89094" lon="6.8782">
        <ele>651.8</ele>
        <time>2022-08-29T09:45:29Z</time>
      </trkpt>
      <trkpt lat="47.89092" lon="6.8782">
        <ele>651.5</ele>
        <time>2022-08-29T09:45:30Z</time>
      </trkpt>
      <trkpt lat="47.89091" lon="6.87821">
        <ele>651.5</ele>
        <time>2022-08-29T09:45:31Z</time>
      </trkpt>
      <trkpt lat="47.8909" lon="6.87821">
        <ele>651.3</ele>
        <time>2022-08-29T09:45:32Z</time>
      </trkpt>
      <trkpt lat="47.89089" lon="6.87821">
        <ele>651.1</ele>
        <time>2022-08-29T09:45:33Z</time>
      </trkpt>
      <trkpt lat="47.89088" lon="6.87822">
        <ele>651.1</ele>
        <time>2022-08-29T09:45:34Z</time>
      </trkpt>
      <trkpt lat="47.89087" lon="6.87822">
        <ele>650.9</ele>
        <time>2022-08-29T09:45:35Z</time>
      </trkpt>
      <trkpt lat="47.89086" lon="6.87823">
        <ele>650.9</ele>
        <time>2022-08-29T09:45:36Z</time>
      </trkpt>
      <trkpt lat="47.89085" lon="6.87823">
        <ele>650.8</ele>
        <time>2022-08-29T09:45:37Z</time>
      </trkpt>
      <trkpt lat="47.89084" lon="6.87824">
        <ele>650.8</ele>
        <time>2022-08-29T09:45:38Z</time>
      </trkpt>
      <trkpt lat="47.89083" lon="6.87825">
        <ele>650.8</ele>
        <time>2022-08-29T09:45:39Z</time>
      </trkpt>
      <trkpt lat="47.89082" lon="6.87825">
        <ele>650.9</ele>
        <time>2022-08-29T09:45:40Z</time>
      </trkpt>
      <trkpt lat="47.89081" lon="6.87825">
        <ele>650.9</ele>
        <time>2022-08-29T09:45:41Z</time>
      </trkpt>
      <trkpt lat="47.8908" lon="6.87825">
        <ele>651</ele>
        <time>2022-08-29T09:45:42Z</time>
      </trkpt>
      <trkpt lat="47.89078" lon="6.87826">
        <ele>651.3</ele>
        <time>2022-08-29T09:45:43Z</time>
      </trkpt>
      <trkpt lat="47.89077" lon="6.87825">
        <ele>651.2</ele>
        <time>2022-08-29T09:45:44Z</time>
      </trkpt>
      <trkpt lat="47.89076" lon="6.87825">
        <ele>651.2</ele>
        <time>2022-08-29T09:45:45Z</time>
      </trkpt>
      <trkpt lat="47.89074" lon="6.87825">
        <ele>651.4</ele>
        <time>2022-08-29T09:45:46Z</time>
      </trkpt>
      <trkpt lat="47.89073" lon="6.87824">
        <ele>651.3</ele>
        <time>2022-08-29T09:45:47Z</time>
      </trkpt>
      <trkpt lat="47.89072" lon="6.87823">
        <ele>651.2</ele>
        <time>2022-08-29T09:45:48Z</time>
      </trkpt>
      <trkpt lat="47.89071" lon="6.87823">
        <ele>651.2</ele>
        <time>2022-08-29T09:45:49Z</time>
      </trkpt>
      <trkpt lat="47.8907" lon="6.87822">
        <ele>651.1</ele>
        <time>2022-08-29T09:45:55Z</time>
      </trkpt>
      <trkpt lat="47.89069" lon="6.87822">
        <ele>651.2</ele>
        <time>2022-08-29T09:45:56Z</time>
      </trkpt>
      <trkpt lat="47.89068" lon="6.87822">
        <ele>651.2</ele>
        <time>2022-08-29T09:45:57Z</time>
      </trkpt>
      <trkpt lat="47.89067" lon="6.87822">
        <ele>651.3</ele>
        <time>2022-08-29T09:45:58Z</time>
      </trkpt>
      <trkpt lat="47.89066" lon="6.87822">
        <ele>651.4</ele>
        <time>2022-08-29T09:45:59Z</time>
      </trkpt>
      <trkpt lat="47.89065" lon="6.87822">
        <ele>651.4</ele>
        <time>2022-08-29T09:46:00Z</time>
      </trkpt>
      <trkpt lat="47.89064" lon="6.87822">
        <ele>651.5</ele>
        <time>2022-08-29T09:46:01Z</time>
      </trkpt>
      <trkpt lat="47.89063" lon="6.87821">
        <ele>651.4</ele>
        <time>2022-08-29T09:46:02Z</time>
      </trkpt>
      <trkpt lat="47.89061" lon="6.87821">
        <ele>651.5</ele>
        <time>2022-08-29T09:46:03Z</time>
      </trkpt>
      <trkpt lat="47.8906" lon="6.87821">
        <ele>651.5</ele>
        <time>2022-08-29T09:46:04Z</time>
      </trkpt>
      <trkpt lat="47.89059" lon="6.87821">
        <ele>651.6</ele>
        <time>2022-08-29T09:46:05Z</time>
      </trkpt>
      <trkpt lat="47.89058" lon="6.87821">
        <ele>651.6</ele>
        <time>2022-08-29T09:46:06Z</time>
      </trkpt>
      <trkpt lat="47.89056" lon="6.87821">
        <ele>651.8</ele>
        <time>2022-08-29T09:46:07Z</time>
      </trkpt>
      <trkpt lat="47.89055" lon="6.87821">
        <ele>651.9</ele>
        <time>2022-08-29T09:46:08Z</time>
      </trkpt>
      <trkpt lat="47.89054" lon="6.87821">
        <ele>652</ele>
        <time>2022-08-29T09:46:09Z</time>
      </trkpt>
      <trkpt lat="47.89053" lon="6.8782">
        <ele>651.9</ele>
        <time>2022-08-29T09:46:10Z</time>
      </trkpt>
      <trkpt lat="47.89051" lon="6.8782">
        <ele>652.2</ele>
        <time>2022-08-29T09:46:11Z</time>
      </trkpt>
      <trkpt lat="47.8905" lon="6.8782">
        <ele>652.3</ele>
        <time>2022-08-29T09:46:12Z</time>
      </trkpt>
      <trkpt lat="47.89049" lon="6.8782">
        <ele>652.4</ele>
        <time>2022-08-29T09:46:13Z</time>
      </trkpt>
      <trkpt lat="47.89048" lon="6.8782">
        <ele>652.6</ele>
        <time>2022-08-29T09:46:14Z</time>
      </trkpt>
      <trkpt lat="47.89046" lon="6.87819">
        <ele>652.6</ele>
        <time>2022-08-29T09:46:15Z</time>
      </trkpt>
      <trkpt lat="47.89045" lon="6.87819">
        <ele>652.7</ele>
        <time>2022-08-29T09:46:16Z</time>
      </trkpt>
      <trkpt lat="47.89044" lon="6.87819">
        <ele>652.9</ele>
        <time>2022-08-29T09:46:17Z</time>
      </trkpt>
      <trkpt lat="47.89043" lon="6.87819">
        <ele>653</ele>
        <time>2022-08-29T09:46:18Z</time>
      </trkpt>
      <trkpt lat="47.89041" lon="6.87818">
        <ele>653</ele>
        <time>2022-08-29T09:46:19Z</time>
      </trkpt>
      <trkpt lat="47.8904" lon="6.87818">
        <ele>653.2</ele>
        <time>2022-08-29T09:46:20Z</time>
      </trkpt>
      <trkpt lat="47.89039" lon="6.87818">
        <ele>653.3</ele>
        <time>2022-08-29T09:46:21Z</time>
      </trkpt>
      <trkpt lat="47.89038" lon="6.87817">
        <ele>653.2</ele>
        <time>2022-08-29T09:46:22Z</time>
      </trkpt>
      <trkpt lat="47.89037" lon="6.87817">
        <ele>653.3</ele>
        <time>2022-08-29T09:46:23Z</time>
      </trkpt>
      <trkpt lat="47.89035" lon="6.87817">
        <ele>653.6</ele>
        <time>2022-08-29T09:46:24Z</time>
      </trkpt>
      <trkpt lat="47.89034" lon="6.87817">
        <ele>653.7</ele>
        <time>2022-08-29T09:46:25Z</time>
      </trkpt>
      <trkpt lat="47.89033" lon="6.87817">
        <ele>653.8</ele>
        <time>2022-08-29T09:46:26Z</time>
      </trkpt>
      <trkpt lat="47.89032" lon="6.87817">
        <ele>654</ele>
        <time>2022-08-29T09:46:27Z</time>
      </trkpt>
      <trkpt lat="47.89031" lon="6.87816">
        <ele>653.9</ele>
        <time>2022-08-29T09:46:28Z</time>
      </trkpt>
      <trkpt lat="47.8903" lon="6.87816">
        <ele>654</ele>
        <time>2022-08-29T09:46:29Z</time>
      </trkpt>
      <trkpt lat="47.89028" lon="6.87816">
        <ele>654.2</ele>
        <time>2022-08-29T09:46:30Z</time>
      </trkpt>
      <trkpt lat="47.89027" lon="6.87816">
        <ele>654.2</ele>
        <time>2022-08-29T09:46:31Z</time>
      </trkpt>
      <trkpt lat="47.89026" lon="6.87815">
        <ele>653.9</ele>
        <time>2022-08-29T09:46:32Z</time>
      </trkpt>
      <trkpt lat="47.89025" lon="6.87815">
        <ele>653.9</ele>
        <time>2022-08-29T09:46:33Z</time>
      </trkpt>
      <trkpt lat="47.89024" lon="6.87815">
        <ele>653.8</ele>
        <time>2022-08-29T09:46:34Z</time>
      </trkpt>
      <trkpt lat="47.89022" lon="6.87815">
        <ele>653.7</ele>
        <time>2022-08-29T09:46:35Z</time>
      </trkpt>
      <trkpt lat="47.89021" lon="6.87815">
        <ele>653.6</ele>
        <time>2022-08-29T09:46:36Z</time>
      </trkpt>
      <trkpt lat="47.8902" lon="6.87814">
        <ele>653.4</ele>
        <time>2022-08-29T09:46:37Z</time>
      </trkpt>
      <trkpt lat="47.89019" lon="6.87814">
        <ele>653.3</ele>
        <time>2022-08-29T09:46:38Z</time>
      </trkpt>
      <trkpt lat="47.89018" lon="6.87814">
        <ele>653.3</ele>
        <time>2022-08-29T09:46:39Z</time>
      </trkpt>
      <trkpt lat="47.89017" lon="6.87814">
        <ele>653.2</ele>
        <time>2022-08-29T09:46:40Z</time>
      </trkpt>
      <trkpt lat="47.89016" lon="6.87814">
        <ele>653.1</ele>
        <time>2022-08-29T09:46:41Z</time>
      </trkpt>
      <trkpt lat="47.89015" lon="6.87814">
        <ele>653.1</ele>
        <time>2022-08-29T09:46:42Z</time>
      </trkpt>
      <trkpt lat="47.89014" lon="6.87815">
        <ele>653.2</ele>
        <time>2022-08-29T09:46:43Z</time>
      </trkpt>
      <trkpt lat="47.89013" lon="6.87815">
        <ele>653.1</ele>
        <time>2022-08-29T09:46:44Z</time>
      </trkpt>
      <trkpt lat="47.89012" lon="6.87815">
        <ele>653.1</ele>
        <time>2022-08-29T09:46:45Z</time>
      </trkpt>
      <trkpt lat="47.89011" lon="6.87816">
        <ele>653.2</ele>
        <time>2022-08-29T09:46:46Z</time>
      </trkpt>
      <trkpt lat="47.8901" lon="6.87816">
        <ele>653.1</ele>
        <time>2022-08-29T09:46:47Z</time>
      </trkpt>
      <trkpt lat="47.89008" lon="6.87816">
        <ele>653</ele>
        <time>2022-08-29T09:46:48Z</time>
      </trkpt>
      <trkpt lat="47.89007" lon="6.87816">
        <ele>652.9</ele>
        <time>2022-08-29T09:46:49Z</time>
      </trkpt>
      <trkpt lat="47.89006" lon="6.87817">
        <ele>653</ele>
        <time>2022-08-29T09:46:50Z</time>
      </trkpt>
      <trkpt lat="47.89005" lon="6.87817">
        <ele>653</ele>
        <time>2022-08-29T09:46:51Z</time>
      </trkpt>
      <trkpt lat="47.89004" lon="6.87818">
        <ele>653.1</ele>
        <time>2022-08-29T09:46:52Z</time>
      </trkpt>
      <trkpt lat="47.89003" lon="6.87818">
        <ele>653</ele>
        <time>2022-08-29T09:46:53Z</time>
      </trkpt>
      <trkpt lat="47.89002" lon="6.87819">
        <ele>653.1</ele>
        <time>2022-08-29T09:46:54Z</time>
      </trkpt>
      <trkpt lat="47.89002" lon="6.8782">
        <ele>653.2</ele>
        <time>2022-08-29T09:46:55Z</time>
      </trkpt>
      <trkpt lat="47.89001" lon="6.87821">
        <ele>653.3</ele>
        <time>2022-08-29T09:46:56Z</time>
      </trkpt>
      <trkpt lat="47.89" lon="6.87822">
        <ele>653.4</ele>
        <time>2022-08-29T09:46:57Z</time>
      </trkpt>
      <trkpt lat="47.88999" lon="6.87823">
        <ele>653.1</ele>
        <time>2022-08-29T09:46:58Z</time>
      </trkpt>
      <trkpt lat="47.88999" lon="6.87824">
        <ele>653.2</ele>
        <time>2022-08-29T09:46:59Z</time>
      </trkpt>
      <trkpt lat="47.88998" lon="6.87825">
        <ele>652.9</ele>
        <time>2022-08-29T09:47:00Z</time>
      </trkpt>
      <trkpt lat="47.88997" lon="6.87825">
        <ele>652.5</ele>
        <time>2022-08-29T09:47:01Z</time>
      </trkpt>
      <trkpt lat="47.88996" lon="6.87826">
        <ele>652.2</ele>
        <time>2022-08-29T09:47:02Z</time>
      </trkpt>
      <trkpt lat="47.88996" lon="6.87827">
        <ele>652.4</ele>
        <time>2022-08-29T09:47:03Z</time>
      </trkpt>
      <trkpt lat="47.88995" lon="6.87828">
        <ele>652.1</ele>
        <time>2022-08-29T09:47:04Z</time>
      </trkpt>
      <trkpt lat="47.88994" lon="6.87829">
        <ele>651.8</ele>
        <time>2022-08-29T09:47:05Z</time>
      </trkpt>
      <trkpt lat="47.88994" lon="6.8783">
        <ele>651.9</ele>
        <time>2022-08-29T09:47:06Z</time>
      </trkpt>
      <trkpt lat="47.88993" lon="6.87831">
        <ele>651.6</ele>
        <time>2022-08-29T09:47:07Z</time>
      </trkpt>
      <trkpt lat="47.88992" lon="6.87833">
        <ele>651.5</ele>
        <time>2022-08-29T09:47:08Z</time>
      </trkpt>
      <trkpt lat="47.88992" lon="6.87834">
        <ele>651.6</ele>
        <time>2022-08-29T09:47:09Z</time>
      </trkpt>
      <trkpt lat="47.88991" lon="6.87835">
        <ele>651.4</ele>
        <time>2022-08-29T09:47:10Z</time>
      </trkpt>
      <trkpt lat="47.88991" lon="6.87836">
        <ele>651.5</ele>
        <time>2022-08-29T09:47:11Z</time>
      </trkpt>
      <trkpt lat="47.8899" lon="6.87837">
        <ele>651.2</ele>
        <time>2022-08-29T09:47:12Z</time>
      </trkpt>
      <trkpt lat="47.88989" lon="6.87838">
        <ele>650.9</ele>
        <time>2022-08-29T09:47:13Z</time>
      </trkpt>
      <trkpt lat="47.88989" lon="6.8784">
        <ele>651.2</ele>
        <time>2022-08-29T09:47:14Z</time>
      </trkpt>
      <trkpt lat="47.88988" lon="6.87841">
        <ele>650.9</ele>
        <time>2022-08-29T09:47:15Z</time>
      </trkpt>
      <trkpt lat="47.88988" lon="6.87842">
        <ele>651.1</ele>
        <time>2022-08-29T09:47:16Z</time>
      </trkpt>
      <trkpt lat="47.88987" lon="6.87844">
        <ele>650.9</ele>
        <time>2022-08-29T09:47:17Z</time>
      </trkpt>
      <trkpt lat="47.88987" lon="6.87845">
        <ele>651.1</ele>
        <time>2022-08-29T09:47:18Z</time>
      </trkpt>
      <trkpt lat="47.88986" lon="6.87847">
        <ele>650.9</ele>
        <time>2022-08-29T09:47:19Z</time>
      </trkpt>
      <trkpt lat="47.88986" lon="6.87848">
        <ele>651.1</ele>
        <time>2022-08-29T09:47:20Z</time>
      </trkpt>
      <trkpt lat="47.88985" lon="6.8785">
        <ele>650.9</ele>
        <time>2022-08-29T09:47:21Z</time>
      </trkpt>
      <trkpt lat="47.88985" lon="6.87851">
        <ele>651.1</ele>
        <time>2022-08-29T09:47:22Z</time>
      </trkpt>
      <trkpt lat="47.88985" lon="6.87852">
        <ele>651.2</ele>
        <time>2022-08-29T09:47:23Z</time>
      </trkpt>
      <trkpt lat="47.88984" lon="6.87854">
        <ele>651.1</ele>
        <time>2022-08-29T09:47:24Z</time>
      </trkpt>
      <trkpt lat="47.88984" lon="6.87855">
        <ele>651.2</ele>
        <time>2022-08-29T09:47:25Z</time>
      </trkpt>
      <trkpt lat="47.88983" lon="6.87857">
        <ele>651.1</ele>
        <time>2022-08-29T09:47:26Z</time>
      </trkpt>
      <trkpt lat="47.88982" lon="6.87858">
        <ele>650.8</ele>
        <time>2022-08-29T09:47:27Z</time>
      </trkpt>
      <trkpt lat="47.88982" lon="6.8786">
        <ele>651.1</ele>
        <time>2022-08-29T09:47:28Z</time>
      </trkpt>
      <trkpt lat="47.88981" lon="6.87861">
        <ele>650.8</ele>
        <time>2022-08-29T09:47:29Z</time>
      </trkpt>
      <trkpt lat="47.88981" lon="6.87863">
        <ele>651.1</ele>
        <time>2022-08-29T09:47:30Z</time>
      </trkpt>
      <trkpt lat="47.88981" lon="6.87865">
        <ele>651.3</ele>
        <time>2022-08-29T09:47:31Z</time>
      </trkpt>
      <trkpt lat="47.8898" lon="6.87866">
        <ele>651</ele>
        <time>2022-08-29T09:47:32Z</time>
      </trkpt>
      <trkpt lat="47.8898" lon="6.87868">
        <ele>651.3</ele>
        <time>2022-08-29T09:47:33Z</time>
      </trkpt>
      <trkpt lat="47.88979" lon="6.87869">
        <ele>651</ele>
        <time>2022-08-29T09:47:34Z</time>
      </trkpt>
      <trkpt lat="47.88979" lon="6.87871">
        <ele>651.3</ele>
        <time>2022-08-29T09:47:35Z</time>
      </trkpt>
      <trkpt lat="47.88979" lon="6.87873">
        <ele>651.5</ele>
        <time>2022-08-29T09:47:36Z</time>
      </trkpt>
      <trkpt lat="47.88978" lon="6.87874">
        <ele>651.2</ele>
        <time>2022-08-29T09:47:37Z</time>
      </trkpt>
      <trkpt lat="47.88978" lon="6.87876">
        <ele>651.4</ele>
        <time>2022-08-29T09:47:38Z</time>
      </trkpt>
      <trkpt lat="47.88977" lon="6.87877">
        <ele>651.1</ele>
        <time>2022-08-29T09:47:39Z</time>
      </trkpt>
      <trkpt lat="47.88977" lon="6.87879">
        <ele>651.3</ele>
        <time>2022-08-29T09:47:40Z</time>
      </trkpt>
      <trkpt lat="47.88976" lon="6.8788">
        <ele>650.9</ele>
        <time>2022-08-29T09:47:41Z</time>
      </trkpt>
      <trkpt lat="47.88976" lon="6.87882">
        <ele>651.2</ele>
        <time>2022-08-29T09:47:42Z</time>
      </trkpt>
      <trkpt lat="47.88975" lon="6.87883">
        <ele>650.8</ele>
        <time>2022-08-29T09:47:43Z</time>
      </trkpt>
      <trkpt lat="47.88975" lon="6.87884">
        <ele>650.9</ele>
        <time>2022-08-29T09:47:44Z</time>
      </trkpt>
      <trkpt lat="47.88974" lon="6.87886">
        <ele>650.6</ele>
        <time>2022-08-29T09:47:45Z</time>
      </trkpt>
      <trkpt lat="47.88974" lon="6.87887">
        <ele>650.7</ele>
        <time>2022-08-29T09:47:46Z</time>
      </trkpt>
      <trkpt lat="47.88973" lon="6.87888">
        <ele>650.3</ele>
        <time>2022-08-29T09:47:47Z</time>
      </trkpt>
      <trkpt lat="47.88973" lon="6.8789">
        <ele>650.5</ele>
        <time>2022-08-29T09:47:48Z</time>
      </trkpt>
      <trkpt lat="47.88973" lon="6.87891">
        <ele>650.6</ele>
        <time>2022-08-29T09:47:49Z</time>
      </trkpt>
      <trkpt lat="47.88972" lon="6.87892">
        <ele>650.3</ele>
        <time>2022-08-29T09:47:50Z</time>
      </trkpt>
      <trkpt lat="47.88971" lon="6.87893">
        <ele>650.1</ele>
        <time>2022-08-29T09:47:51Z</time>
      </trkpt>
      <trkpt lat="47.88971" lon="6.87895">
        <ele>650.3</ele>
        <time>2022-08-29T09:47:52Z</time>
      </trkpt>
      <trkpt lat="47.8897" lon="6.87896">
        <ele>650.1</ele>
        <time>2022-08-29T09:47:53Z</time>
      </trkpt>
      <trkpt lat="47.8897" lon="6.87897">
        <ele>650.2</ele>
        <time>2022-08-29T09:47:54Z</time>
      </trkpt>
      <trkpt lat="47.88969" lon="6.87898">
        <ele>650</ele>
        <time>2022-08-29T09:47:55Z</time>
      </trkpt>
      <trkpt lat="47.88968" lon="6.87899">
        <ele>649.8</ele>
        <time>2022-08-29T09:47:56Z</time>
      </trkpt>
      <trkpt lat="47.88968" lon="6.87901">
        <ele>650</ele>
        <time>2022-08-29T09:47:57Z</time>
      </trkpt>
      <trkpt lat="47.88967" lon="6.87902">
        <ele>649.8</ele>
        <time>2022-08-29T09:47:58Z</time>
      </trkpt>
      <trkpt lat="47.88967" lon="6.87903">
        <ele>649.9</ele>
        <time>2022-08-29T09:47:59Z</time>
      </trkpt>
      <trkpt lat="47.88966" lon="6.87905">
        <ele>649.8</ele>
        <time>2022-08-29T09:48:00Z</time>
      </trkpt>
      <trkpt lat="47.88966" lon="6.87906">
        <ele>649.9</ele>
        <time>2022-08-29T09:48:01Z</time>
      </trkpt>
      <trkpt lat="47.88965" lon="6.87907">
        <ele>649.7</ele>
        <time>2022-08-29T09:48:02Z</time>
      </trkpt>
      <trkpt lat="47.88965" lon="6.87909">
        <ele>649.9</ele>
        <time>2022-08-29T09:48:03Z</time>
      </trkpt>
      <trkpt lat="47.88965" lon="6.8791">
        <ele>650</ele>
        <time>2022-08-29T09:48:04Z</time>
      </trkpt>
      <trkpt lat="47.88964" lon="6.87911">
        <ele>649.8</ele>
        <time>2022-08-29T09:48:05Z</time>
      </trkpt>
      <trkpt lat="47.88964" lon="6.87913">
        <ele>650</ele>
        <time>2022-08-29T09:48:06Z</time>
      </trkpt>
      <trkpt lat="47.88963" lon="6.87914">
        <ele>649.8</ele>
        <time>2022-08-29T09:48:07Z</time>
      </trkpt>
      <trkpt lat="47.88963" lon="6.87915">
        <ele>649.9</ele>
        <time>2022-08-29T09:48:08Z</time>
      </trkpt>
      <trkpt lat="47.88962" lon="6.87917">
        <ele>649.7</ele>
        <time>2022-08-29T09:48:09Z</time>
      </trkpt>
      <trkpt lat="47.88961" lon="6.87918">
        <ele>649.4</ele>
        <time>2022-08-29T09:48:10Z</time>
      </trkpt>
      <trkpt lat="47.88961" lon="6.87919">
        <ele>649.5</ele>
        <time>2022-08-29T09:48:11Z</time>
      </trkpt>
      <trkpt lat="47.8896" lon="6.8792">
        <ele>649.2</ele>
        <time>2022-08-29T09:48:12Z</time>
      </trkpt>
      <trkpt lat="47.88959" lon="6.87922">
        <ele>648.9</ele>
        <time>2022-08-29T09:48:13Z</time>
      </trkpt>
      <trkpt lat="47.88959" lon="6.87923">
        <ele>649</ele>
        <time>2022-08-29T09:48:14Z</time>
      </trkpt>
      <trkpt lat="47.88958" lon="6.87924">
        <ele>648.6</ele>
        <time>2022-08-29T09:48:15Z</time>
      </trkpt>
      <trkpt lat="47.88958" lon="6.87925">
        <ele>648.7</ele>
        <time>2022-08-29T09:48:16Z</time>
      </trkpt>
      <trkpt lat="47.88957" lon="6.87927">
        <ele>648.4</ele>
        <time>2022-08-29T09:48:17Z</time>
      </trkpt>
      <trkpt lat="47.88957" lon="6.87928">
        <ele>648.4</ele>
        <time>2022-08-29T09:48:18Z</time>
      </trkpt>
      <trkpt lat="47.88956" lon="6.87929">
        <ele>648.1</ele>
        <time>2022-08-29T09:48:19Z</time>
      </trkpt>
      <trkpt lat="47.88956" lon="6.8793">
        <ele>648.1</ele>
        <time>2022-08-29T09:48:20Z</time>
      </trkpt>
      <trkpt lat="47.88955" lon="6.87931">
        <ele>647.8</ele>
        <time>2022-08-29T09:48:21Z</time>
      </trkpt>
      <trkpt lat="47.88955" lon="6.87933">
        <ele>647.9</ele>
        <time>2022-08-29T09:48:22Z</time>
      </trkpt>
      <trkpt lat="47.88954" lon="6.87934">
        <ele>647.5</ele>
        <time>2022-08-29T09:48:23Z</time>
      </trkpt>
      <trkpt lat="47.88954" lon="6.87936">
        <ele>647.6</ele>
        <time>2022-08-29T09:48:24Z</time>
      </trkpt>
      <trkpt lat="47.88953" lon="6.87937">
        <ele>647.2</ele>
        <time>2022-08-29T09:48:25Z</time>
      </trkpt>
      <trkpt lat="47.88952" lon="6.87938">
        <ele>646.9</ele>
        <time>2022-08-29T09:48:26Z</time>
      </trkpt>
      <trkpt lat="47.88952" lon="6.8794">
        <ele>646.9</ele>
        <time>2022-08-29T09:48:27Z</time>
      </trkpt>
      <trkpt lat="47.88951" lon="6.87941">
        <ele>646.5</ele>
        <time>2022-08-29T09:48:28Z</time>
      </trkpt>
      <trkpt lat="47.88951" lon="6.87943">
        <ele>646.6</ele>
        <time>2022-08-29T09:48:29Z</time>
      </trkpt>
      <trkpt lat="47.8895" lon="6.87944">
        <ele>646.2</ele>
        <time>2022-08-29T09:48:30Z</time>
      </trkpt>
      <trkpt lat="47.88949" lon="6.87945">
        <ele>645.9</ele>
        <time>2022-08-29T09:48:31Z</time>
      </trkpt>
      <trkpt lat="47.88949" lon="6.87947">
        <ele>646.2</ele>
        <time>2022-08-29T09:48:32Z</time>
      </trkpt>
      <trkpt lat="47.88948" lon="6.87948">
        <ele>645.9</ele>
        <time>2022-08-29T09:48:33Z</time>
      </trkpt>
      <trkpt lat="47.88948" lon="6.87949">
        <ele>646</ele>
        <time>2022-08-29T09:48:34Z</time>
      </trkpt>
      <trkpt lat="47.88947" lon="6.8795">
        <ele>645.8</ele>
        <time>2022-08-29T09:48:35Z</time>
      </trkpt>
      <trkpt lat="47.88946" lon="6.87952">
        <ele>645.7</ele>
        <time>2022-08-29T09:48:36Z</time>
      </trkpt>
      <trkpt lat="47.88946" lon="6.87953">
        <ele>645.8</ele>
        <time>2022-08-29T09:48:37Z</time>
      </trkpt>
      <trkpt lat="47.88945" lon="6.87954">
        <ele>645.6</ele>
        <time>2022-08-29T09:48:38Z</time>
      </trkpt>
      <trkpt lat="47.88945" lon="6.87955">
        <ele>645.7</ele>
        <time>2022-08-29T09:48:39Z</time>
      </trkpt>
      <trkpt lat="47.88944" lon="6.87956">
        <ele>645.6</ele>
        <time>2022-08-29T09:48:40Z</time>
      </trkpt>
      <trkpt lat="47.88943" lon="6.87957">
        <ele>645.6</ele>
        <time>2022-08-29T09:48:41Z</time>
      </trkpt>
      <trkpt lat="47.88943" lon="6.87958">
        <ele>645.8</ele>
        <time>2022-08-29T09:48:42Z</time>
      </trkpt>
      <trkpt lat="47.88942" lon="6.8796">
        <ele>645.9</ele>
        <time>2022-08-29T09:48:43Z</time>
      </trkpt>
      <trkpt lat="47.88941" lon="6.87961">
        <ele>645.9</ele>
        <time>2022-08-29T09:48:44Z</time>
      </trkpt>
      <trkpt lat="47.8894" lon="6.87962">
        <ele>645.9</ele>
        <time>2022-08-29T09:48:45Z</time>
      </trkpt>
      <trkpt lat="47.8894" lon="6.87963">
        <ele>646</ele>
        <time>2022-08-29T09:48:46Z</time>
      </trkpt>
      <trkpt lat="47.88939" lon="6.87964">
        <ele>646</ele>
        <time>2022-08-29T09:48:47Z</time>
      </trkpt>
      <trkpt lat="47.88939" lon="6.87965">
        <ele>646.1</ele>
        <time>2022-08-29T09:48:48Z</time>
      </trkpt>
      <trkpt lat="47.88938" lon="6.87966">
        <ele>646.1</ele>
        <time>2022-08-29T09:48:49Z</time>
      </trkpt>
      <trkpt lat="47.88937" lon="6.87967">
        <ele>646.1</ele>
        <time>2022-08-29T09:48:50Z</time>
      </trkpt>
      <trkpt lat="47.88936" lon="6.87968">
        <ele>646</ele>
        <time>2022-08-29T09:48:51Z</time>
      </trkpt>
      <trkpt lat="47.88936" lon="6.87969">
        <ele>646.1</ele>
        <time>2022-08-29T09:48:52Z</time>
      </trkpt>
      <trkpt lat="47.88935" lon="6.8797">
        <ele>646.1</ele>
        <time>2022-08-29T09:48:53Z</time>
      </trkpt>
      <trkpt lat="47.88934" lon="6.8797">
        <ele>645.9</ele>
        <time>2022-08-29T09:48:54Z</time>
      </trkpt>
      <trkpt lat="47.88933" lon="6.87971">
        <ele>645.8</ele>
        <time>2022-08-29T09:48:55Z</time>
      </trkpt>
      <trkpt lat="47.88932" lon="6.87971">
        <ele>645.6</ele>
        <time>2022-08-29T09:48:56Z</time>
      </trkpt>
      <trkpt lat="47.8893" lon="6.87972">
        <ele>645.4</ele>
        <time>2022-08-29T09:48:57Z</time>
      </trkpt>
      <trkpt lat="47.8893" lon="6.87973">
        <ele>645.5</ele>
        <time>2022-08-29T09:48:58Z</time>
      </trkpt>
      <trkpt lat="47.88929" lon="6.87973">
        <ele>645.3</ele>
        <time>2022-08-29T09:48:59Z</time>
      </trkpt>
      <trkpt lat="47.88928" lon="6.87974">
        <ele>645.1</ele>
        <time>2022-08-29T09:49:00Z</time>
      </trkpt>
      <trkpt lat="47.88928" lon="6.87975">
        <ele>645.2</ele>
        <time>2022-08-29T09:49:01Z</time>
      </trkpt>
      <trkpt lat="47.88927" lon="6.87976">
        <ele>645.1</ele>
        <time>2022-08-29T09:49:02Z</time>
      </trkpt>
      <trkpt lat="47.88926" lon="6.87977">
        <ele>644.9</ele>
        <time>2022-08-29T09:49:03Z</time>
      </trkpt>
      <trkpt lat="47.88926" lon="6.87978">
        <ele>645</ele>
        <time>2022-08-29T09:49:04Z</time>
      </trkpt>
      <trkpt lat="47.88925" lon="6.87979">
        <ele>644.8</ele>
        <time>2022-08-29T09:49:05Z</time>
      </trkpt>
      <trkpt lat="47.88925" lon="6.87981">
        <ele>644.9</ele>
        <time>2022-08-29T09:49:06Z</time>
      </trkpt>
      <trkpt lat="47.88925" lon="6.87982">
        <ele>644.9</ele>
        <time>2022-08-29T09:49:07Z</time>
      </trkpt>
      <trkpt lat="47.88924" lon="6.87984">
        <ele>644.8</ele>
        <time>2022-08-29T09:49:08Z</time>
      </trkpt>
      <trkpt lat="47.88924" lon="6.87985">
        <ele>644.8</ele>
        <time>2022-08-29T09:49:09Z</time>
      </trkpt>
      <trkpt lat="47.88924" lon="6.87987">
        <ele>644.9</ele>
        <time>2022-08-29T09:49:10Z</time>
      </trkpt>
      <trkpt lat="47.88924" lon="6.87988">
        <ele>644.9</ele>
        <time>2022-08-29T09:49:11Z</time>
      </trkpt>
      <trkpt lat="47.88924" lon="6.8799">
        <ele>645</ele>
        <time>2022-08-29T09:49:12Z</time>
      </trkpt>
      <trkpt lat="47.88924" lon="6.87991">
        <ele>645</ele>
        <time>2022-08-29T09:49:13Z</time>
      </trkpt>
      <trkpt lat="47.88924" lon="6.87993">
        <ele>645.1</ele>
        <time>2022-08-29T09:49:14Z</time>
      </trkpt>
      <trkpt lat="47.88924" lon="6.87994">
        <ele>645.1</ele>
        <time>2022-08-29T09:49:15Z</time>
      </trkpt>
      <trkpt lat="47.88924" lon="6.87996">
        <ele>645.2</ele>
        <time>2022-08-29T09:49:16Z</time>
      </trkpt>
      <trkpt lat="47.88924" lon="6.87997">
        <ele>645.3</ele>
        <time>2022-08-29T09:49:17Z</time>
      </trkpt>
      <trkpt lat="47.88924" lon="6.87999">
        <ele>645.3</ele>
        <time>2022-08-29T09:49:18Z</time>
      </trkpt>
      <trkpt lat="47.88924" lon="6.88001">
        <ele>645.4</ele>
        <time>2022-08-29T09:49:19Z</time>
      </trkpt>
      <trkpt lat="47.88924" lon="6.88002">
        <ele>645.5</ele>
        <time>2022-08-29T09:49:20Z</time>
      </trkpt>
      <trkpt lat="47.88924" lon="6.88004">
        <ele>645.6</ele>
        <time>2022-08-29T09:49:21Z</time>
      </trkpt>
      <trkpt lat="47.88924" lon="6.88006">
        <ele>645.8</ele>
        <time>2022-08-29T09:49:22Z</time>
      </trkpt>
      <trkpt lat="47.88924" lon="6.88008">
        <ele>645.9</ele>
        <time>2022-08-29T09:49:23Z</time>
      </trkpt>
      <trkpt lat="47.88924" lon="6.88009">
        <ele>645.9</ele>
        <time>2022-08-29T09:49:24Z</time>
      </trkpt>
      <trkpt lat="47.88924" lon="6.88011">
        <ele>646.1</ele>
        <time>2022-08-29T09:49:25Z</time>
      </trkpt>
      <trkpt lat="47.88924" lon="6.88013">
        <ele>646.2</ele>
        <time>2022-08-29T09:49:26Z</time>
      </trkpt>
      <trkpt lat="47.88924" lon="6.88015">
        <ele>646.3</ele>
        <time>2022-08-29T09:49:27Z</time>
      </trkpt>
      <trkpt lat="47.88924" lon="6.88016">
        <ele>646.4</ele>
        <time>2022-08-29T09:49:28Z</time>
      </trkpt>
      <trkpt lat="47.88924" lon="6.88018">
        <ele>646.5</ele>
        <time>2022-08-29T09:49:29Z</time>
      </trkpt>
      <trkpt lat="47.88924" lon="6.8802">
        <ele>646.6</ele>
        <time>2022-08-29T09:49:30Z</time>
      </trkpt>
      <trkpt lat="47.88924" lon="6.88021">
        <ele>646.7</ele>
        <time>2022-08-29T09:49:31Z</time>
      </trkpt>
      <trkpt lat="47.88924" lon="6.88023">
        <ele>646.8</ele>
        <time>2022-08-29T09:49:32Z</time>
      </trkpt>
      <trkpt lat="47.88924" lon="6.88025">
        <ele>646.9</ele>
        <time>2022-08-29T09:49:33Z</time>
      </trkpt>
      <trkpt lat="47.88925" lon="6.88026">
        <ele>647.3</ele>
        <time>2022-08-29T09:49:34Z</time>
      </trkpt>
      <trkpt lat="47.88925" lon="6.88028">
        <ele>647.4</ele>
        <time>2022-08-29T09:49:35Z</time>
      </trkpt>
      <trkpt lat="47.88925" lon="6.8803">
        <ele>647.5</ele>
        <time>2022-08-29T09:49:36Z</time>
      </trkpt>
      <trkpt lat="47.88925" lon="6.88031">
        <ele>647.6</ele>
        <time>2022-08-29T09:49:37Z</time>
      </trkpt>
      <trkpt lat="47.88925" lon="6.88033">
        <ele>647.7</ele>
        <time>2022-08-29T09:49:38Z</time>
      </trkpt>
      <trkpt lat="47.88925" lon="6.88034">
        <ele>647.8</ele>
        <time>2022-08-29T09:49:39Z</time>
      </trkpt>
      <trkpt lat="47.88925" lon="6.88036">
        <ele>647.9</ele>
        <time>2022-08-29T09:49:40Z</time>
      </trkpt>
      <trkpt lat="47.88926" lon="6.88038">
        <ele>648.3</ele>
        <time>2022-08-29T09:49:41Z</time>
      </trkpt>
      <trkpt lat="47.88926" lon="6.88039">
        <ele>648.4</ele>
        <time>2022-08-29T09:49:42Z</time>
      </trkpt>
      <trkpt lat="47.88926" lon="6.88041">
        <ele>648.5</ele>
        <time>2022-08-29T09:49:43Z</time>
      </trkpt>
      <trkpt lat="47.88926" lon="6.88042">
        <ele>648.5</ele>
        <time>2022-08-29T09:49:44Z</time>
      </trkpt>
      <trkpt lat="47.88926" lon="6.88044">
        <ele>648.7</ele>
        <time>2022-08-29T09:49:45Z</time>
      </trkpt>
      <trkpt lat="47.88926" lon="6.88046">
        <ele>648.8</ele>
        <time>2022-08-29T09:49:46Z</time>
      </trkpt>
      <trkpt lat="47.88926" lon="6.88048">
        <ele>648.9</ele>
        <time>2022-08-29T09:49:47Z</time>
      </trkpt>
      <trkpt lat="47.88927" lon="6.88049">
        <ele>649.2</ele>
        <time>2022-08-29T09:49:48Z</time>
      </trkpt>
      <trkpt lat="47.88927" lon="6.88051">
        <ele>649.3</ele>
        <time>2022-08-29T09:49:49Z</time>
      </trkpt>
      <trkpt lat="47.88927" lon="6.88052">
        <ele>649.4</ele>
        <time>2022-08-29T09:49:50Z</time>
      </trkpt>
      <trkpt lat="47.88927" lon="6.88054">
        <ele>649.5</ele>
        <time>2022-08-29T09:49:51Z</time>
      </trkpt>
      <trkpt lat="47.88927" lon="6.88056">
        <ele>649.6</ele>
        <time>2022-08-29T09:49:52Z</time>
      </trkpt>
      <trkpt lat="47.88928" lon="6.88057">
        <ele>649.8</ele>
        <time>2022-08-29T09:49:53Z</time>
      </trkpt>
      <trkpt lat="47.88928" lon="6.88059">
        <ele>649.8</ele>
        <time>2022-08-29T09:49:54Z</time>
      </trkpt>
      <trkpt lat="47.88928" lon="6.88061">
        <ele>649.7</ele>
        <time>2022-08-29T09:49:55Z</time>
      </trkpt>
      <trkpt lat="47.88928" lon="6.88062">
        <ele>649.7</ele>
        <time>2022-08-29T09:49:56Z</time>
      </trkpt>
      <trkpt lat="47.88929" lon="6.88064">
        <ele>649.9</ele>
        <time>2022-08-29T09:49:57Z</time>
      </trkpt>
      <trkpt lat="47.88929" lon="6.88066">
        <ele>649.9</ele>
        <time>2022-08-29T09:49:58Z</time>
      </trkpt>
      <trkpt lat="47.88929" lon="6.88067">
        <ele>649.9</ele>
        <time>2022-08-29T09:49:59Z</time>
      </trkpt>
      <trkpt lat="47.88929" lon="6.88069">
        <ele>649.8</ele>
        <time>2022-08-29T09:50:00Z</time>
      </trkpt>
      <trkpt lat="47.8893" lon="6.8807">
        <ele>650.1</ele>
        <time>2022-08-29T09:50:01Z</time>
      </trkpt>
      <trkpt lat="47.8893" lon="6.88072">
        <ele>650.1</ele>
        <time>2022-08-29T09:50:02Z</time>
      </trkpt>
      <trkpt lat="47.8893" lon="6.88074">
        <ele>650</ele>
        <time>2022-08-29T09:50:03Z</time>
      </trkpt>
      <trkpt lat="47.88931" lon="6.88075">
        <ele>650.3</ele>
        <time>2022-08-29T09:50:04Z</time>
      </trkpt>
      <trkpt lat="47.88931" lon="6.88077">
        <ele>650.2</ele>
        <time>2022-08-29T09:50:05Z</time>
      </trkpt>
      <trkpt lat="47.88931" lon="6.88078">
        <ele>650.2</ele>
        <time>2022-08-29T09:50:06Z</time>
      </trkpt>
      <trkpt lat="47.88931" lon="6.8808">
        <ele>650.2</ele>
        <time>2022-08-29T09:50:07Z</time>
      </trkpt>
      <trkpt lat="47.88932" lon="6.88081">
        <ele>650.5</ele>
        <time>2022-08-29T09:50:08Z</time>
      </trkpt>
      <trkpt lat="47.88932" lon="6.88083">
        <ele>650.4</ele>
        <time>2022-08-29T09:50:09Z</time>
      </trkpt>
      <trkpt lat="47.88932" lon="6.88084">
        <ele>650.4</ele>
        <time>2022-08-29T09:50:10Z</time>
      </trkpt>
      <trkpt lat="47.88932" lon="6.88086">
        <ele>650.4</ele>
        <time>2022-08-29T09:50:11Z</time>
      </trkpt>
      <trkpt lat="47.88932" lon="6.88087">
        <ele>650.4</ele>
        <time>2022-08-29T09:50:12Z</time>
      </trkpt>
      <trkpt lat="47.88932" lon="6.88089">
        <ele>650.3</ele>
        <time>2022-08-29T09:50:13Z</time>
      </trkpt>
      <trkpt lat="47.88932" lon="6.88091">
        <ele>650.3</ele>
        <time>2022-08-29T09:50:14Z</time>
      </trkpt>
      <trkpt lat="47.88932" lon="6.88093">
        <ele>650.3</ele>
        <time>2022-08-29T09:50:15Z</time>
      </trkpt>
      <trkpt lat="47.88933" lon="6.88094">
        <ele>650.5</ele>
        <time>2022-08-29T09:50:16Z</time>
      </trkpt>
      <trkpt lat="47.88933" lon="6.88096">
        <ele>650.5</ele>
        <time>2022-08-29T09:50:17Z</time>
      </trkpt>
      <trkpt lat="47.88933" lon="6.88098">
        <ele>650.5</ele>
        <time>2022-08-29T09:50:18Z</time>
      </trkpt>
      <trkpt lat="47.88933" lon="6.88099">
        <ele>650.5</ele>
        <time>2022-08-29T09:50:19Z</time>
      </trkpt>
      <trkpt lat="47.88934" lon="6.88101">
        <ele>650.8</ele>
        <time>2022-08-29T09:50:20Z</time>
      </trkpt>
      <trkpt lat="47.88934" lon="6.88103">
        <ele>650.7</ele>
        <time>2022-08-29T09:50:21Z</time>
      </trkpt>
      <trkpt lat="47.88934" lon="6.88104">
        <ele>650.7</ele>
        <time>2022-08-29T09:50:22Z</time>
      </trkpt>
      <trkpt lat="47.88934" lon="6.88106">
        <ele>650.7</ele>
        <time>2022-08-29T09:50:23Z</time>
      </trkpt>
      <trkpt lat="47.88934" lon="6.88108">
        <ele>650.7</ele>
        <time>2022-08-29T09:50:24Z</time>
      </trkpt>
      <trkpt lat="47.88934" lon="6.88109">
        <ele>650.6</ele>
        <time>2022-08-29T09:50:25Z</time>
      </trkpt>
      <trkpt lat="47.88934" lon="6.88111">
        <ele>650.6</ele>
        <time>2022-08-29T09:50:26Z</time>
      </trkpt>
      <trkpt lat="47.88935" lon="6.88113">
        <ele>651</ele>
        <time>2022-08-29T09:50:27Z</time>
      </trkpt>
      <trkpt lat="47.88935" lon="6.88114">
        <ele>651</ele>
        <time>2022-08-29T09:50:28Z</time>
      </trkpt>
      <trkpt lat="47.88935" lon="6.88116">
        <ele>651</ele>
        <time>2022-08-29T09:50:29Z</time>
      </trkpt>
      <trkpt lat="47.88936" lon="6.88118">
        <ele>651.3</ele>
        <time>2022-08-29T09:50:30Z</time>
      </trkpt>
      <trkpt lat="47.88936" lon="6.88119">
        <ele>651.3</ele>
        <time>2022-08-29T09:50:31Z</time>
      </trkpt>
      <trkpt lat="47.88936" lon="6.88121">
        <ele>651.3</ele>
        <time>2022-08-29T09:50:32Z</time>
      </trkpt>
      <trkpt lat="47.88936" lon="6.88123">
        <ele>651.4</ele>
        <time>2022-08-29T09:50:33Z</time>
      </trkpt>
      <trkpt lat="47.88936" lon="6.88124">
        <ele>651.4</ele>
        <time>2022-08-29T09:50:34Z</time>
      </trkpt>
      <trkpt lat="47.88936" lon="6.88126">
        <ele>651.4</ele>
        <time>2022-08-29T09:50:35Z</time>
      </trkpt>
      <trkpt lat="47.88936" lon="6.88128">
        <ele>651.4</ele>
        <time>2022-08-29T09:50:36Z</time>
      </trkpt>
      <trkpt lat="47.88936" lon="6.88129">
        <ele>651.4</ele>
        <time>2022-08-29T09:50:37Z</time>
      </trkpt>
      <trkpt lat="47.88936" lon="6.88131">
        <ele>651.4</ele>
        <time>2022-08-29T09:50:38Z</time>
      </trkpt>
      <trkpt lat="47.88935" lon="6.88133">
        <ele>651.2</ele>
        <time>2022-08-29T09:50:39Z</time>
      </trkpt>
      <trkpt lat="47.88935" lon="6.88134">
        <ele>651.2</ele>
        <time>2022-08-29T09:50:40Z</time>
      </trkpt>
      <trkpt lat="47.88935" lon="6.88136">
        <ele>651.3</ele>
        <time>2022-08-29T09:50:41Z</time>
      </trkpt>
      <trkpt lat="47.88934" lon="6.88138">
        <ele>651.1</ele>
        <time>2022-08-29T09:50:42Z</time>
      </trkpt>
      <trkpt lat="47.88934" lon="6.88139">
        <ele>651.1</ele>
        <time>2022-08-29T09:50:43Z</time>
      </trkpt>
      <trkpt lat="47.88934" lon="6.88141">
        <ele>651</ele>
        <time>2022-08-29T09:50:44Z</time>
      </trkpt>
      <trkpt lat="47.88934" lon="6.88142">
        <ele>651</ele>
        <time>2022-08-29T09:50:45Z</time>
      </trkpt>
      <trkpt lat="47.88934" lon="6.88144">
        <ele>650.9</ele>
        <time>2022-08-29T09:50:46Z</time>
      </trkpt>
      <trkpt lat="47.88934" lon="6.88145">
        <ele>650.9</ele>
        <time>2022-08-29T09:50:47Z</time>
      </trkpt>
      <trkpt lat="47.88934" lon="6.88147">
        <ele>650.8</ele>
        <time>2022-08-29T09:50:48Z</time>
      </trkpt>
      <trkpt lat="47.88934" lon="6.88149">
        <ele>650.8</ele>
        <time>2022-08-29T09:50:49Z</time>
      </trkpt>
      <trkpt lat="47.88934" lon="6.88151">
        <ele>650.7</ele>
        <time>2022-08-29T09:50:50Z</time>
      </trkpt>
      <trkpt lat="47.88934" lon="6.88152">
        <ele>650.6</ele>
        <time>2022-08-29T09:50:51Z</time>
      </trkpt>
      <trkpt lat="47.88934" lon="6.88154">
        <ele>650.6</ele>
        <time>2022-08-29T09:50:52Z</time>
      </trkpt>
      <trkpt lat="47.88934" lon="6.88155">
        <ele>650.5</ele>
        <time>2022-08-29T09:50:53Z</time>
      </trkpt>
      <trkpt lat="47.88934" lon="6.88157">
        <ele>650.5</ele>
        <time>2022-08-29T09:50:54Z</time>
      </trkpt>
      <trkpt lat="47.88934" lon="6.88158">
        <ele>650.4</ele>
        <time>2022-08-29T09:50:55Z</time>
      </trkpt>
      <trkpt lat="47.88934" lon="6.88159">
        <ele>650.4</ele>
        <time>2022-08-29T09:50:56Z</time>
      </trkpt>
      <trkpt lat="47.88933" lon="6.88162">
        <ele>650.1</ele>
        <time>2022-08-29T09:51:09Z</time>
      </trkpt>
      <trkpt lat="47.88933" lon="6.88163">
        <ele>650.1</ele>
        <time>2022-08-29T09:51:10Z</time>
      </trkpt>
      <trkpt lat="47.88933" lon="6.88164">
        <ele>650</ele>
        <time>2022-08-29T09:51:11Z</time>
      </trkpt>
      <trkpt lat="47.88933" lon="6.88165">
        <ele>650</ele>
        <time>2022-08-29T09:51:12Z</time>
      </trkpt>
      <trkpt lat="47.88933" lon="6.88166">
        <ele>650</ele>
        <time>2022-08-29T09:51:13Z</time>
      </trkpt>
      <trkpt lat="47.88933" lon="6.88167">
        <ele>649.9</ele>
        <time>2022-08-29T09:51:14Z</time>
      </trkpt>
      <trkpt lat="47.88934" lon="6.88168">
        <ele>650.1</ele>
        <time>2022-08-29T09:51:15Z</time>
      </trkpt>
      <trkpt lat="47.88934" lon="6.8817">
        <ele>650</ele>
        <time>2022-08-29T09:51:16Z</time>
      </trkpt>
      <trkpt lat="47.88934" lon="6.88171">
        <ele>650</ele>
        <time>2022-08-29T09:51:17Z</time>
      </trkpt>
      <trkpt lat="47.88934" lon="6.88172">
        <ele>650</ele>
        <time>2022-08-29T09:51:18Z</time>
      </trkpt>
      <trkpt lat="47.88935" lon="6.88174">
        <ele>650.1</ele>
        <time>2022-08-29T09:51:19Z</time>
      </trkpt>
      <trkpt lat="47.88935" lon="6.88176">
        <ele>650.1</ele>
        <time>2022-08-29T09:51:20Z</time>
      </trkpt>
      <trkpt lat="47.88935" lon="6.88177">
        <ele>650.1</ele>
        <time>2022-08-29T09:51:21Z</time>
      </trkpt>
      <trkpt lat="47.88935" lon="6.88179">
        <ele>650</ele>
        <time>2022-08-29T09:51:22Z</time>
      </trkpt>
      <trkpt lat="47.88935" lon="6.8818">
        <ele>650</ele>
        <time>2022-08-29T09:51:23Z</time>
      </trkpt>
      <trkpt lat="47.88935" lon="6.88182">
        <ele>649.9</ele>
        <time>2022-08-29T09:51:24Z</time>
      </trkpt>
      <trkpt lat="47.88936" lon="6.88184">
        <ele>650</ele>
        <time>2022-08-29T09:51:25Z</time>
      </trkpt>
      <trkpt lat="47.88936" lon="6.88185">
        <ele>650</ele>
        <time>2022-08-29T09:51:26Z</time>
      </trkpt>
      <trkpt lat="47.88936" lon="6.88187">
        <ele>650</ele>
        <time>2022-08-29T09:51:27Z</time>
      </trkpt>
      <trkpt lat="47.88936" lon="6.88188">
        <ele>649.9</ele>
        <time>2022-08-29T09:51:28Z</time>
      </trkpt>
      <trkpt lat="47.88936" lon="6.8819">
        <ele>649.9</ele>
        <time>2022-08-29T09:51:29Z</time>
      </trkpt>
      <trkpt lat="47.88936" lon="6.88191">
        <ele>649.9</ele>
        <time>2022-08-29T09:51:30Z</time>
      </trkpt>
      <trkpt lat="47.88936" lon="6.88193">
        <ele>649.8</ele>
        <time>2022-08-29T09:51:31Z</time>
      </trkpt>
      <trkpt lat="47.88936" lon="6.88194">
        <ele>649.8</ele>
        <time>2022-08-29T09:51:32Z</time>
      </trkpt>
      <trkpt lat="47.88936" lon="6.88196">
        <ele>649.8</ele>
        <time>2022-08-29T09:51:33Z</time>
      </trkpt>
      <trkpt lat="47.88936" lon="6.88198">
        <ele>649.8</ele>
        <time>2022-08-29T09:51:34Z</time>
      </trkpt>
      <trkpt lat="47.88936" lon="6.88199">
        <ele>649.8</ele>
        <time>2022-08-29T09:51:35Z</time>
      </trkpt>
      <trkpt lat="47.88937" lon="6.88201">
        <ele>649.9</ele>
        <time>2022-08-29T09:51:36Z</time>
      </trkpt>
      <trkpt lat="47.88937" lon="6.88202">
        <ele>649.9</ele>
        <time>2022-08-29T09:51:37Z</time>
      </trkpt>
      <trkpt lat="47.88937" lon="6.88204">
        <ele>649.9</ele>
        <time>2022-08-29T09:51:38Z</time>
      </trkpt>
      <trkpt lat="47.88937" lon="6.88206">
        <ele>649.9</ele>
        <time>2022-08-29T09:51:39Z</time>
      </trkpt>
      <trkpt lat="47.88937" lon="6.88207">
        <ele>649.9</ele>
        <time>2022-08-29T09:51:40Z</time>
      </trkpt>
      <trkpt lat="47.88938" lon="6.88208">
        <ele>650.1</ele>
        <time>2022-08-29T09:51:41Z</time>
      </trkpt>
      <trkpt lat="47.88938" lon="6.8821">
        <ele>650.1</ele>
        <time>2022-08-29T09:51:42Z</time>
      </trkpt>
      <trkpt lat="47.88938" lon="6.88211">
        <ele>650.1</ele>
        <time>2022-08-29T09:51:43Z</time>
      </trkpt>
      <trkpt lat="47.88939" lon="6.88213">
        <ele>650.2</ele>
        <time>2022-08-29T09:51:44Z</time>
      </trkpt>
      <trkpt lat="47.88939" lon="6.88214">
        <ele>650.2</ele>
        <time>2022-08-29T09:51:45Z</time>
      </trkpt>
      <trkpt lat="47.8894" lon="6.88215">
        <ele>650.4</ele>
        <time>2022-08-29T09:51:46Z</time>
      </trkpt>
      <trkpt lat="47.88941" lon="6.88217">
        <ele>650.5</ele>
        <time>2022-08-29T09:51:47Z</time>
      </trkpt>
      <trkpt lat="47.88941" lon="6.88218">
        <ele>650.5</ele>
        <time>2022-08-29T09:51:48Z</time>
      </trkpt>
      <trkpt lat="47.88942" lon="6.88219">
        <ele>650.6</ele>
        <time>2022-08-29T09:51:49Z</time>
      </trkpt>
      <trkpt lat="47.88943" lon="6.88221">
        <ele>650.8</ele>
        <time>2022-08-29T09:51:50Z</time>
      </trkpt>
      <trkpt lat="47.88943" lon="6.88222">
        <ele>650.8</ele>
        <time>2022-08-29T09:51:51Z</time>
      </trkpt>
      <trkpt lat="47.88944" lon="6.88223">
        <ele>651</ele>
        <time>2022-08-29T09:51:52Z</time>
      </trkpt>
      <trkpt lat="47.88944" lon="6.88225">
        <ele>651</ele>
        <time>2022-08-29T09:51:53Z</time>
      </trkpt>
      <trkpt lat="47.88945" lon="6.88226">
        <ele>651.3</ele>
        <time>2022-08-29T09:51:54Z</time>
      </trkpt>
      <trkpt lat="47.88945" lon="6.88228">
        <ele>651.3</ele>
        <time>2022-08-29T09:51:55Z</time>
      </trkpt>
      <trkpt lat="47.88946" lon="6.88229">
        <ele>651.6</ele>
        <time>2022-08-29T09:51:56Z</time>
      </trkpt>
      <trkpt lat="47.88946" lon="6.88231">
        <ele>651.7</ele>
        <time>2022-08-29T09:51:57Z</time>
      </trkpt>
      <trkpt lat="47.88946" lon="6.88232">
        <ele>651.7</ele>
        <time>2022-08-29T09:51:58Z</time>
      </trkpt>
      <trkpt lat="47.88947" lon="6.88233">
        <ele>652</ele>
        <time>2022-08-29T09:51:59Z</time>
      </trkpt>
      <trkpt lat="47.88948" lon="6.88234">
        <ele>652.2</ele>
        <time>2022-08-29T09:52:00Z</time>
      </trkpt>
      <trkpt lat="47.88948" lon="6.88236">
        <ele>652.3</ele>
        <time>2022-08-29T09:52:01Z</time>
      </trkpt>
      <trkpt lat="47.88949" lon="6.88237">
        <ele>652.5</ele>
        <time>2022-08-29T09:52:02Z</time>
      </trkpt>
      <trkpt lat="47.88949" lon="6.88238">
        <ele>652.5</ele>
        <time>2022-08-29T09:52:03Z</time>
      </trkpt>
      <trkpt lat="47.8895" lon="6.88239">
        <ele>652.8</ele>
        <time>2022-08-29T09:52:04Z</time>
      </trkpt>
      <trkpt lat="47.88951" lon="6.88241">
        <ele>653</ele>
        <time>2022-08-29T09:52:05Z</time>
      </trkpt>
      <trkpt lat="47.88952" lon="6.88243">
        <ele>653.2</ele>
        <time>2022-08-29T09:52:35Z</time>
      </trkpt>
      <trkpt lat="47.88953" lon="6.88244">
        <ele>653.5</ele>
        <time>2022-08-29T09:52:36Z</time>
      </trkpt>
      <trkpt lat="47.88954" lon="6.88246">
        <ele>653.7</ele>
        <time>2022-08-29T09:53:28Z</time>
      </trkpt>
      <trkpt lat="47.88954" lon="6.88247">
        <ele>653.7</ele>
        <time>2022-08-29T09:53:29Z</time>
      </trkpt>
      <trkpt lat="47.88954" lon="6.88248">
        <ele>653.7</ele>
        <time>2022-08-29T09:53:30Z</time>
      </trkpt>
      <trkpt lat="47.88955" lon="6.88248">
        <ele>653.9</ele>
        <time>2022-08-29T09:53:31Z</time>
      </trkpt>
      <trkpt lat="47.88955" lon="6.88249">
        <ele>653.9</ele>
        <time>2022-08-29T09:53:32Z</time>
      </trkpt>
      <trkpt lat="47.88956" lon="6.8825">
        <ele>654.1</ele>
        <time>2022-08-29T09:53:33Z</time>
      </trkpt>
      <trkpt lat="47.88957" lon="6.88251">
        <ele>654.2</ele>
        <time>2022-08-29T09:53:35Z</time>
      </trkpt>
      <trkpt lat="47.88957" lon="6.88252">
        <ele>654.2</ele>
        <time>2022-08-29T09:53:36Z</time>
      </trkpt>
      <trkpt lat="47.88958" lon="6.88254">
        <ele>654.4</ele>
        <time>2022-08-29T09:54:06Z</time>
      </trkpt>
      <trkpt lat="47.88959" lon="6.88254">
        <ele>654.5</ele>
        <time>2022-08-29T09:54:07Z</time>
      </trkpt>
      <trkpt lat="47.88959" lon="6.88255">
        <ele>654.5</ele>
        <time>2022-08-29T09:54:08Z</time>
      </trkpt>
      <trkpt lat="47.88958" lon="6.88257">
        <ele>654.3</ele>
        <time>2022-08-29T09:54:09Z</time>
      </trkpt>
      <trkpt lat="47.88958" lon="6.88258">
        <ele>654.3</ele>
        <time>2022-08-29T09:54:10Z</time>
      </trkpt>
    </trkseg>
  </trk>
</gpx>